<?xml version="1.0" encoding="UTF-8" standalone="no" ?>
<gpx xmlns="http://www.topografix.com/GPX/1/1" xmlns:xsi="http://www.w3.org/2001/XMLSchema-instance" xsi:schemaLocation="http://www.topografix.com/GPX/1/1 http://www.topografix.com/GPX/1/1/gpx.xsd" version="1.1" creator="VisuGPX - https://www.visugpx.com">
  <metadata>
    <name>Balade Evasion Moto du 13/04/2014</name>
    <desc><![CDATA[Pause déjeuner sur le bord du lac du Salagou (à Celles), puis montée du col du vent et passage par les gorges de la Vis.]]></desc>
  </metadata>
  <trk>
    <name><![CDATA[ACTIVE LOG: 13 AVR 2014 08:58]]></name>
    <trkseg>
      <trkpt lat="43.63607" lon="3.84447">
        <ele>57.34</ele>
        <time>2014-04-13T06:58:51Z</time>
      </trkpt>
      <trkpt lat="43.63611" lon="3.84451">
        <ele>52.05</ele>
        <time>2014-04-13T06:59:00Z</time>
      </trkpt>
      <trkpt lat="43.63631" lon="3.84466">
        <ele>55.41</ele>
        <time>2014-04-13T06:59:33Z</time>
      </trkpt>
      <trkpt lat="43.63706" lon="3.84525">
        <ele>56.37</ele>
        <time>2014-04-13T06:59:40Z</time>
      </trkpt>
      <trkpt lat="43.63805" lon="3.84631">
        <ele>55.41</ele>
        <time>2014-04-13T06:59:49Z</time>
      </trkpt>
      <trkpt lat="43.63813" lon="3.84646">
        <ele>54.93</ele>
        <time>2014-04-13T06:59:50Z</time>
      </trkpt>
      <trkpt lat="43.63819" lon="3.84662">
        <ele>54.93</ele>
        <time>2014-04-13T06:59:51Z</time>
      </trkpt>
      <trkpt lat="43.6383" lon="3.84695">
        <ele>54.45</ele>
        <time>2014-04-13T06:59:53Z</time>
      </trkpt>
      <trkpt lat="43.63891" lon="3.84752">
        <ele>54.93</ele>
        <time>2014-04-13T06:59:59Z</time>
      </trkpt>
      <trkpt lat="43.63911" lon="3.84746">
        <ele>54.93</ele>
        <time>2014-04-13T07:00:00Z</time>
      </trkpt>
      <trkpt lat="43.64027" lon="3.84749">
        <ele>62.62</ele>
        <time>2014-04-13T07:00:08Z</time>
      </trkpt>
      <trkpt lat="43.64048" lon="3.84751">
        <ele>64.07</ele>
        <time>2014-04-13T07:00:10Z</time>
      </trkpt>
      <trkpt lat="43.64058" lon="3.84756">
        <ele>64.55</ele>
        <time>2014-04-13T07:00:11Z</time>
      </trkpt>
      <trkpt lat="43.64079" lon="3.84766">
        <ele>65.51</ele>
        <time>2014-04-13T07:00:13Z</time>
      </trkpt>
      <trkpt lat="43.6409" lon="3.84766">
        <ele>65.99</ele>
        <time>2014-04-13T07:00:14Z</time>
      </trkpt>
      <trkpt lat="43.64101" lon="3.8476">
        <ele>66.47</ele>
        <time>2014-04-13T07:00:15Z</time>
      </trkpt>
      <trkpt lat="43.64111" lon="3.8475">
        <ele>66.47</ele>
        <time>2014-04-13T07:00:16Z</time>
      </trkpt>
      <trkpt lat="43.64118" lon="3.84738">
        <ele>66.47</ele>
        <time>2014-04-13T07:00:17Z</time>
      </trkpt>
      <trkpt lat="43.64122" lon="3.84724">
        <ele>66.47</ele>
        <time>2014-04-13T07:00:18Z</time>
      </trkpt>
      <trkpt lat="43.64123" lon="3.84708">
        <ele>66.47</ele>
        <time>2014-04-13T07:00:19Z</time>
      </trkpt>
      <trkpt lat="43.64121" lon="3.84692">
        <ele>66.47</ele>
        <time>2014-04-13T07:00:20Z</time>
      </trkpt>
      <trkpt lat="43.64115" lon="3.84678">
        <ele>65.03</ele>
        <time>2014-04-13T07:00:21Z</time>
      </trkpt>
      <trkpt lat="43.64106" lon="3.84667">
        <ele>64.07</ele>
        <time>2014-04-13T07:00:22Z</time>
      </trkpt>
      <trkpt lat="43.64096" lon="3.84658">
        <ele>63.58</ele>
        <time>2014-04-13T07:00:23Z</time>
      </trkpt>
      <trkpt lat="43.64087" lon="3.84649">
        <ele>63.1</ele>
        <time>2014-04-13T07:00:24Z</time>
      </trkpt>
      <trkpt lat="43.64079" lon="3.8464">
        <ele>63.1</ele>
        <time>2014-04-13T07:00:25Z</time>
      </trkpt>
      <trkpt lat="43.64075" lon="3.84629">
        <ele>62.62</ele>
        <time>2014-04-13T07:00:26Z</time>
      </trkpt>
      <trkpt lat="43.64074" lon="3.84618">
        <ele>62.62</ele>
        <time>2014-04-13T07:00:27Z</time>
      </trkpt>
      <trkpt lat="43.64076" lon="3.84608">
        <ele>62.62</ele>
        <time>2014-04-13T07:00:28Z</time>
      </trkpt>
      <trkpt lat="43.64078" lon="3.84599">
        <ele>62.62</ele>
        <time>2014-04-13T07:00:29Z</time>
      </trkpt>
      <trkpt lat="43.64081" lon="3.8459">
        <ele>62.62</ele>
        <time>2014-04-13T07:00:30Z</time>
      </trkpt>
      <trkpt lat="43.64084" lon="3.84585">
        <ele>62.62</ele>
        <time>2014-04-13T07:00:31Z</time>
      </trkpt>
      <trkpt lat="43.64088" lon="3.84582">
        <ele>62.62</ele>
        <time>2014-04-13T07:00:32Z</time>
      </trkpt>
      <trkpt lat="43.64092" lon="3.84583">
        <ele>62.62</ele>
        <time>2014-04-13T07:00:33Z</time>
      </trkpt>
      <trkpt lat="43.64095" lon="3.84586">
        <ele>62.62</ele>
        <time>2014-04-13T07:00:34Z</time>
      </trkpt>
      <trkpt lat="43.64098" lon="3.8459">
        <ele>62.62</ele>
        <time>2014-04-13T07:00:35Z</time>
      </trkpt>
      <trkpt lat="43.64122" lon="3.84609">
        <ele>63.58</ele>
        <time>2014-04-13T07:00:42Z</time>
      </trkpt>
      <trkpt lat="43.64122" lon="3.84613">
        <ele>63.1</ele>
        <time>2014-04-13T07:00:43Z</time>
      </trkpt>
      <trkpt lat="43.64122" lon="3.84616">
        <ele>63.1</ele>
        <time>2014-04-13T07:00:44Z</time>
      </trkpt>
      <trkpt lat="43.64123" lon="3.84619">
        <ele>63.1</ele>
        <time>2014-04-13T07:00:45Z</time>
      </trkpt>
      <trkpt lat="43.64124" lon="3.84621">
        <ele>63.58</ele>
        <time>2014-04-13T07:00:46Z</time>
      </trkpt>
      <trkpt lat="43.64126" lon="3.84621">
        <ele>63.58</ele>
        <time>2014-04-13T07:00:47Z</time>
      </trkpt>
      <trkpt lat="43.64127" lon="3.8462">
        <ele>63.58</ele>
        <time>2014-04-13T07:00:48Z</time>
      </trkpt>
      <trkpt lat="43.64129" lon="3.8462">
        <ele>64.07</ele>
        <time>2014-04-13T07:01:04Z</time>
      </trkpt>
      <trkpt lat="43.64128" lon="3.8462">
        <ele>65.03</ele>
        <time>2014-04-13T07:01:26Z</time>
      </trkpt>
      <trkpt lat="43.64126" lon="3.84622">
        <ele>63.58</ele>
        <time>2014-04-13T07:39:57Z</time>
      </trkpt>
      <trkpt lat="43.64126" lon="3.84622">
        <ele>63.58</ele>
        <time>2014-04-13T07:40:41Z</time>
      </trkpt>
      <trkpt lat="43.64127" lon="3.84621">
        <ele>64.55</ele>
        <time>2014-04-13T07:41:24Z</time>
      </trkpt>
      <trkpt lat="43.64119" lon="3.84598">
        <ele>64.07</ele>
        <time>2014-04-13T07:41:32Z</time>
      </trkpt>
      <trkpt lat="43.64118" lon="3.84593">
        <ele>64.07</ele>
        <time>2014-04-13T07:41:33Z</time>
      </trkpt>
      <trkpt lat="43.64096" lon="3.84575">
        <ele>63.58</ele>
        <time>2014-04-13T07:41:41Z</time>
      </trkpt>
      <trkpt lat="43.64094" lon="3.84573">
        <ele>64.07</ele>
        <time>2014-04-13T07:41:42Z</time>
      </trkpt>
      <trkpt lat="43.64092" lon="3.84571">
        <ele>64.07</ele>
        <time>2014-04-13T07:41:43Z</time>
      </trkpt>
      <trkpt lat="43.6409" lon="3.84571">
        <ele>64.07</ele>
        <time>2014-04-13T07:41:44Z</time>
      </trkpt>
      <trkpt lat="43.6409" lon="3.84572">
        <ele>64.07</ele>
        <time>2014-04-13T07:42:00Z</time>
      </trkpt>
      <trkpt lat="43.6409" lon="3.84574">
        <ele>64.07</ele>
        <time>2014-04-13T07:42:52Z</time>
      </trkpt>
      <trkpt lat="43.64088" lon="3.84578">
        <ele>64.07</ele>
        <time>2014-04-13T07:42:53Z</time>
      </trkpt>
      <trkpt lat="43.64086" lon="3.84583">
        <ele>63.58</ele>
        <time>2014-04-13T07:42:54Z</time>
      </trkpt>
      <trkpt lat="43.64084" lon="3.8459">
        <ele>63.58</ele>
        <time>2014-04-13T07:42:55Z</time>
      </trkpt>
      <trkpt lat="43.64081" lon="3.84598">
        <ele>63.58</ele>
        <time>2014-04-13T07:42:56Z</time>
      </trkpt>
      <trkpt lat="43.64065" lon="3.84661">
        <ele>63.58</ele>
        <time>2014-04-13T07:43:06Z</time>
      </trkpt>
      <trkpt lat="43.64062" lon="3.84665">
        <ele>63.58</ele>
        <time>2014-04-13T07:43:07Z</time>
      </trkpt>
      <trkpt lat="43.64057" lon="3.8467">
        <ele>63.58</ele>
        <time>2014-04-13T07:43:08Z</time>
      </trkpt>
      <trkpt lat="43.6405" lon="3.84674">
        <ele>63.58</ele>
        <time>2014-04-13T07:43:09Z</time>
      </trkpt>
      <trkpt lat="43.64042" lon="3.84677">
        <ele>64.07</ele>
        <time>2014-04-13T07:43:10Z</time>
      </trkpt>
      <trkpt lat="43.64033" lon="3.84677">
        <ele>64.07</ele>
        <time>2014-04-13T07:43:11Z</time>
      </trkpt>
      <trkpt lat="43.64024" lon="3.84675">
        <ele>63.58</ele>
        <time>2014-04-13T07:43:12Z</time>
      </trkpt>
      <trkpt lat="43.64014" lon="3.84672">
        <ele>63.58</ele>
        <time>2014-04-13T07:43:13Z</time>
      </trkpt>
      <trkpt lat="43.63876" lon="3.84639">
        <ele>56.86</ele>
        <time>2014-04-13T07:43:24Z</time>
      </trkpt>
      <trkpt lat="43.63849" lon="3.84629">
        <ele>56.37</ele>
        <time>2014-04-13T07:43:26Z</time>
      </trkpt>
      <trkpt lat="43.63835" lon="3.84622">
        <ele>56.37</ele>
        <time>2014-04-13T07:43:27Z</time>
      </trkpt>
      <trkpt lat="43.63745" lon="3.8455">
        <ele>56.37</ele>
        <time>2014-04-13T07:43:35Z</time>
      </trkpt>
      <trkpt lat="43.63605" lon="3.84436">
        <ele>53.01</ele>
        <time>2014-04-13T07:43:48Z</time>
      </trkpt>
      <trkpt lat="43.63436" lon="3.84343">
        <ele>56.37</ele>
        <time>2014-04-13T07:44:02Z</time>
      </trkpt>
      <trkpt lat="43.63414" lon="3.84332">
        <ele>56.86</ele>
        <time>2014-04-13T07:44:08Z</time>
      </trkpt>
      <trkpt lat="43.63413" lon="3.84331">
        <ele>55.89</ele>
        <time>2014-04-13T07:44:23Z</time>
      </trkpt>
      <trkpt lat="43.63385" lon="3.84319">
        <ele>55.41</ele>
        <time>2014-04-13T07:44:36Z</time>
      </trkpt>
      <trkpt lat="43.63297" lon="3.84305">
        <ele>55.41</ele>
        <time>2014-04-13T07:44:43Z</time>
      </trkpt>
      <trkpt lat="43.63189" lon="3.84247">
        <ele>55.89</ele>
        <time>2014-04-13T07:44:51Z</time>
      </trkpt>
      <trkpt lat="43.63173" lon="3.84231">
        <ele>55.89</ele>
        <time>2014-04-13T07:44:53Z</time>
      </trkpt>
      <trkpt lat="43.63167" lon="3.8422">
        <ele>55.89</ele>
        <time>2014-04-13T07:44:54Z</time>
      </trkpt>
      <trkpt lat="43.63163" lon="3.84207">
        <ele>55.89</ele>
        <time>2014-04-13T07:44:55Z</time>
      </trkpt>
      <trkpt lat="43.6316" lon="3.84192">
        <ele>55.89</ele>
        <time>2014-04-13T07:44:56Z</time>
      </trkpt>
      <trkpt lat="43.63155" lon="3.84179">
        <ele>55.89</ele>
        <time>2014-04-13T07:44:57Z</time>
      </trkpt>
      <trkpt lat="43.63147" lon="3.84168">
        <ele>56.37</ele>
        <time>2014-04-13T07:44:58Z</time>
      </trkpt>
      <trkpt lat="43.63138" lon="3.8416">
        <ele>56.37</ele>
        <time>2014-04-13T07:44:59Z</time>
      </trkpt>
      <trkpt lat="43.63128" lon="3.84155">
        <ele>56.86</ele>
        <time>2014-04-13T07:45:00Z</time>
      </trkpt>
      <trkpt lat="43.63117" lon="3.84154">
        <ele>57.34</ele>
        <time>2014-04-13T07:45:01Z</time>
      </trkpt>
      <trkpt lat="43.63107" lon="3.84156">
        <ele>57.34</ele>
        <time>2014-04-13T07:45:02Z</time>
      </trkpt>
      <trkpt lat="43.63096" lon="3.84161">
        <ele>57.34</ele>
        <time>2014-04-13T07:45:03Z</time>
      </trkpt>
      <trkpt lat="43.63086" lon="3.84169">
        <ele>57.34</ele>
        <time>2014-04-13T07:45:04Z</time>
      </trkpt>
      <trkpt lat="43.63076" lon="3.84176">
        <ele>56.37</ele>
        <time>2014-04-13T07:45:05Z</time>
      </trkpt>
      <trkpt lat="43.63064" lon="3.8418">
        <ele>56.37</ele>
        <time>2014-04-13T07:45:06Z</time>
      </trkpt>
      <trkpt lat="43.63051" lon="3.84181">
        <ele>56.86</ele>
        <time>2014-04-13T07:45:07Z</time>
      </trkpt>
      <trkpt lat="43.63037" lon="3.84179">
        <ele>56.86</ele>
        <time>2014-04-13T07:45:08Z</time>
      </trkpt>
      <trkpt lat="43.63023" lon="3.84177">
        <ele>56.86</ele>
        <time>2014-04-13T07:45:09Z</time>
      </trkpt>
      <trkpt lat="43.62876" lon="3.84116">
        <ele>58.3</ele>
        <time>2014-04-13T07:45:19Z</time>
      </trkpt>
      <trkpt lat="43.62728" lon="3.83955">
        <ele>64.55</ele>
        <time>2014-04-13T07:45:30Z</time>
      </trkpt>
      <trkpt lat="43.62589" lon="3.83726">
        <ele>71.27</ele>
        <time>2014-04-13T07:45:43Z</time>
      </trkpt>
      <trkpt lat="43.62559" lon="3.83679">
        <ele>73.68</ele>
        <time>2014-04-13T07:45:48Z</time>
      </trkpt>
      <trkpt lat="43.62557" lon="3.83673">
        <ele>74.16</ele>
        <time>2014-04-13T07:45:49Z</time>
      </trkpt>
      <trkpt lat="43.62557" lon="3.83657">
        <ele>75.6</ele>
        <time>2014-04-13T07:45:54Z</time>
      </trkpt>
      <trkpt lat="43.62559" lon="3.83633">
        <ele>75.12</ele>
        <time>2014-04-13T07:45:56Z</time>
      </trkpt>
      <trkpt lat="43.62557" lon="3.83619">
        <ele>75.6</ele>
        <time>2014-04-13T07:45:57Z</time>
      </trkpt>
      <trkpt lat="43.62554" lon="3.83607">
        <ele>75.6</ele>
        <time>2014-04-13T07:45:58Z</time>
      </trkpt>
      <trkpt lat="43.62548" lon="3.83595">
        <ele>76.08</ele>
        <time>2014-04-13T07:45:59Z</time>
      </trkpt>
      <trkpt lat="43.6254" lon="3.83585">
        <ele>76.08</ele>
        <time>2014-04-13T07:46:00Z</time>
      </trkpt>
      <trkpt lat="43.6253" lon="3.83578">
        <ele>76.56</ele>
        <time>2014-04-13T07:46:01Z</time>
      </trkpt>
      <trkpt lat="43.62521" lon="3.83571">
        <ele>76.56</ele>
        <time>2014-04-13T07:46:02Z</time>
      </trkpt>
      <trkpt lat="43.62512" lon="3.83563">
        <ele>76.56</ele>
        <time>2014-04-13T07:46:03Z</time>
      </trkpt>
      <trkpt lat="43.62505" lon="3.83552">
        <ele>76.56</ele>
        <time>2014-04-13T07:46:04Z</time>
      </trkpt>
      <trkpt lat="43.625" lon="3.83539">
        <ele>76.56</ele>
        <time>2014-04-13T07:46:05Z</time>
      </trkpt>
      <trkpt lat="43.62444" lon="3.83437">
        <ele>75.12</ele>
        <time>2014-04-13T07:46:14Z</time>
      </trkpt>
      <trkpt lat="43.62424" lon="3.83419">
        <ele>74.16</ele>
        <time>2014-04-13T07:46:16Z</time>
      </trkpt>
      <trkpt lat="43.62357" lon="3.83374">
        <ele>73.68</ele>
        <time>2014-04-13T07:46:23Z</time>
      </trkpt>
      <trkpt lat="43.6235" lon="3.83365">
        <ele>73.2</ele>
        <time>2014-04-13T07:46:24Z</time>
      </trkpt>
      <trkpt lat="43.62345" lon="3.83355">
        <ele>73.2</ele>
        <time>2014-04-13T07:46:25Z</time>
      </trkpt>
      <trkpt lat="43.6234" lon="3.83343">
        <ele>73.2</ele>
        <time>2014-04-13T07:46:26Z</time>
      </trkpt>
      <trkpt lat="43.62334" lon="3.83333">
        <ele>72.72</ele>
        <time>2014-04-13T07:46:27Z</time>
      </trkpt>
      <trkpt lat="43.62326" lon="3.83324">
        <ele>72.72</ele>
        <time>2014-04-13T07:46:28Z</time>
      </trkpt>
      <trkpt lat="43.62319" lon="3.83315">
        <ele>72.72</ele>
        <time>2014-04-13T07:46:29Z</time>
      </trkpt>
      <trkpt lat="43.62312" lon="3.83304">
        <ele>72.24</ele>
        <time>2014-04-13T07:46:30Z</time>
      </trkpt>
      <trkpt lat="43.62308" lon="3.83291">
        <ele>71.76</ele>
        <time>2014-04-13T07:46:31Z</time>
      </trkpt>
      <trkpt lat="43.62306" lon="3.83277">
        <ele>71.27</ele>
        <time>2014-04-13T07:46:32Z</time>
      </trkpt>
      <trkpt lat="43.62305" lon="3.83261">
        <ele>70.79</ele>
        <time>2014-04-13T07:46:33Z</time>
      </trkpt>
      <trkpt lat="43.62305" lon="3.83244">
        <ele>70.31</ele>
        <time>2014-04-13T07:46:34Z</time>
      </trkpt>
      <trkpt lat="43.62305" lon="3.83226">
        <ele>69.83</ele>
        <time>2014-04-13T07:46:35Z</time>
      </trkpt>
      <trkpt lat="43.62307" lon="3.83207">
        <ele>68.87</ele>
        <time>2014-04-13T07:46:36Z</time>
      </trkpt>
      <trkpt lat="43.62309" lon="3.83188">
        <ele>68.87</ele>
        <time>2014-04-13T07:46:37Z</time>
      </trkpt>
      <trkpt lat="43.62313" lon="3.83168">
        <ele>68.39</ele>
        <time>2014-04-13T07:46:38Z</time>
      </trkpt>
      <trkpt lat="43.62318" lon="3.83148">
        <ele>67.91</ele>
        <time>2014-04-13T07:46:39Z</time>
      </trkpt>
      <trkpt lat="43.62324" lon="3.83128">
        <ele>67.43</ele>
        <time>2014-04-13T07:46:40Z</time>
      </trkpt>
      <trkpt lat="43.62421" lon="3.82853">
        <ele>64.07</ele>
        <time>2014-04-13T07:46:54Z</time>
      </trkpt>
      <trkpt lat="43.62475" lon="3.82737">
        <ele>62.14</ele>
        <time>2014-04-13T07:47:01Z</time>
      </trkpt>
      <trkpt lat="43.62477" lon="3.82723">
        <ele>62.14</ele>
        <time>2014-04-13T07:47:02Z</time>
      </trkpt>
      <trkpt lat="43.62479" lon="3.82709">
        <ele>61.66</ele>
        <time>2014-04-13T07:47:03Z</time>
      </trkpt>
      <trkpt lat="43.62479" lon="3.82696">
        <ele>61.18</ele>
        <time>2014-04-13T07:47:04Z</time>
      </trkpt>
      <trkpt lat="43.62479" lon="3.82683">
        <ele>61.18</ele>
        <time>2014-04-13T07:47:05Z</time>
      </trkpt>
      <trkpt lat="43.6248" lon="3.82672">
        <ele>61.18</ele>
        <time>2014-04-13T07:47:06Z</time>
      </trkpt>
      <trkpt lat="43.62481" lon="3.8266">
        <ele>60.7</ele>
        <time>2014-04-13T07:47:07Z</time>
      </trkpt>
      <trkpt lat="43.62482" lon="3.82648">
        <ele>60.22</ele>
        <time>2014-04-13T07:47:08Z</time>
      </trkpt>
      <trkpt lat="43.62479" lon="3.82638">
        <ele>59.74</ele>
        <time>2014-04-13T07:47:09Z</time>
      </trkpt>
      <trkpt lat="43.62472" lon="3.82629">
        <ele>59.26</ele>
        <time>2014-04-13T07:47:10Z</time>
      </trkpt>
      <trkpt lat="43.62465" lon="3.82619">
        <ele>59.26</ele>
        <time>2014-04-13T07:47:11Z</time>
      </trkpt>
      <trkpt lat="43.62459" lon="3.82608">
        <ele>58.78</ele>
        <time>2014-04-13T07:47:12Z</time>
      </trkpt>
      <trkpt lat="43.62453" lon="3.82594">
        <ele>58.78</ele>
        <time>2014-04-13T07:47:13Z</time>
      </trkpt>
      <trkpt lat="43.62392" lon="3.82474">
        <ele>57.82</ele>
        <time>2014-04-13T07:47:21Z</time>
      </trkpt>
      <trkpt lat="43.62258" lon="3.82292">
        <ele>52.05</ele>
        <time>2014-04-13T07:47:34Z</time>
      </trkpt>
      <trkpt lat="43.62249" lon="3.82284">
        <ele>51.57</ele>
        <time>2014-04-13T07:47:35Z</time>
      </trkpt>
      <trkpt lat="43.62223" lon="3.82266">
        <ele>52.05</ele>
        <time>2014-04-13T07:47:38Z</time>
      </trkpt>
      <trkpt lat="43.62206" lon="3.82252">
        <ele>51.09</ele>
        <time>2014-04-13T07:47:40Z</time>
      </trkpt>
      <trkpt lat="43.62197" lon="3.82254">
        <ele>50.61</ele>
        <time>2014-04-13T07:47:41Z</time>
      </trkpt>
      <trkpt lat="43.62187" lon="3.82259">
        <ele>50.61</ele>
        <time>2014-04-13T07:47:42Z</time>
      </trkpt>
      <trkpt lat="43.62177" lon="3.82264">
        <ele>50.13</ele>
        <time>2014-04-13T07:47:43Z</time>
      </trkpt>
      <trkpt lat="43.62163" lon="3.82267">
        <ele>50.61</ele>
        <time>2014-04-13T07:47:44Z</time>
      </trkpt>
      <trkpt lat="43.6215" lon="3.82267">
        <ele>50.61</ele>
        <time>2014-04-13T07:47:45Z</time>
      </trkpt>
      <trkpt lat="43.62135" lon="3.82265">
        <ele>51.09</ele>
        <time>2014-04-13T07:47:46Z</time>
      </trkpt>
      <trkpt lat="43.6212" lon="3.82263">
        <ele>51.57</ele>
        <time>2014-04-13T07:47:47Z</time>
      </trkpt>
      <trkpt lat="43.61988" lon="3.82216">
        <ele>52.05</ele>
        <time>2014-04-13T07:47:56Z</time>
      </trkpt>
      <trkpt lat="43.61833" lon="3.821">
        <ele>48.2</ele>
        <time>2014-04-13T07:48:06Z</time>
      </trkpt>
      <trkpt lat="43.61718" lon="3.82016">
        <ele>49.65</ele>
        <time>2014-04-13T07:48:13Z</time>
      </trkpt>
      <trkpt lat="43.617" lon="3.8201">
        <ele>49.65</ele>
        <time>2014-04-13T07:48:14Z</time>
      </trkpt>
      <trkpt lat="43.61681" lon="3.82007">
        <ele>50.13</ele>
        <time>2014-04-13T07:48:15Z</time>
      </trkpt>
      <trkpt lat="43.61662" lon="3.82008">
        <ele>50.13</ele>
        <time>2014-04-13T07:48:16Z</time>
      </trkpt>
      <trkpt lat="43.61644" lon="3.82013">
        <ele>50.61</ele>
        <time>2014-04-13T07:48:17Z</time>
      </trkpt>
      <trkpt lat="43.61625" lon="3.82021">
        <ele>50.13</ele>
        <time>2014-04-13T07:48:18Z</time>
      </trkpt>
      <trkpt lat="43.61608" lon="3.82031">
        <ele>50.13</ele>
        <time>2014-04-13T07:48:19Z</time>
      </trkpt>
      <trkpt lat="43.6159" lon="3.82043">
        <ele>50.61</ele>
        <time>2014-04-13T07:48:20Z</time>
      </trkpt>
      <trkpt lat="43.61339" lon="3.82225">
        <ele>45.8</ele>
        <time>2014-04-13T07:48:35Z</time>
      </trkpt>
      <trkpt lat="43.61259" lon="3.82277">
        <ele>44.84</ele>
        <time>2014-04-13T07:48:41Z</time>
      </trkpt>
      <trkpt lat="43.61243" lon="3.8228">
        <ele>43.88</ele>
        <time>2014-04-13T07:48:42Z</time>
      </trkpt>
      <trkpt lat="43.61227" lon="3.82279">
        <ele>41.95</ele>
        <time>2014-04-13T07:48:43Z</time>
      </trkpt>
      <trkpt lat="43.6121" lon="3.82276">
        <ele>40.99</ele>
        <time>2014-04-13T07:48:44Z</time>
      </trkpt>
      <trkpt lat="43.61192" lon="3.82271">
        <ele>40.51</ele>
        <time>2014-04-13T07:48:45Z</time>
      </trkpt>
      <trkpt lat="43.61011" lon="3.82238">
        <ele>40.51</ele>
        <time>2014-04-13T07:48:55Z</time>
      </trkpt>
      <trkpt lat="43.6095" lon="3.82209">
        <ele>40.99</ele>
        <time>2014-04-13T07:48:59Z</time>
      </trkpt>
      <trkpt lat="43.60939" lon="3.82199">
        <ele>40.51</ele>
        <time>2014-04-13T07:49:00Z</time>
      </trkpt>
      <trkpt lat="43.60928" lon="3.82185">
        <ele>40.99</ele>
        <time>2014-04-13T07:49:01Z</time>
      </trkpt>
      <trkpt lat="43.60922" lon="3.82166">
        <ele>40.51</ele>
        <time>2014-04-13T07:49:02Z</time>
      </trkpt>
      <trkpt lat="43.60917" lon="3.82146">
        <ele>40.51</ele>
        <time>2014-04-13T07:49:03Z</time>
      </trkpt>
      <trkpt lat="43.60913" lon="3.82123">
        <ele>40.03</ele>
        <time>2014-04-13T07:49:04Z</time>
      </trkpt>
      <trkpt lat="43.60909" lon="3.82102">
        <ele>39.55</ele>
        <time>2014-04-13T07:49:05Z</time>
      </trkpt>
      <trkpt lat="43.60903" lon="3.82083">
        <ele>39.07</ele>
        <time>2014-04-13T07:49:06Z</time>
      </trkpt>
      <trkpt lat="43.60895" lon="3.82065">
        <ele>38.11</ele>
        <time>2014-04-13T07:49:07Z</time>
      </trkpt>
      <trkpt lat="43.60883" lon="3.82051">
        <ele>37.15</ele>
        <time>2014-04-13T07:49:08Z</time>
      </trkpt>
      <trkpt lat="43.60869" lon="3.82042">
        <ele>36.19</ele>
        <time>2014-04-13T07:49:09Z</time>
      </trkpt>
      <trkpt lat="43.60852" lon="3.8204">
        <ele>35.23</ele>
        <time>2014-04-13T07:49:10Z</time>
      </trkpt>
      <trkpt lat="43.60836" lon="3.82045">
        <ele>34.74</ele>
        <time>2014-04-13T07:49:11Z</time>
      </trkpt>
      <trkpt lat="43.6082" lon="3.82054">
        <ele>34.26</ele>
        <time>2014-04-13T07:49:12Z</time>
      </trkpt>
      <trkpt lat="43.60803" lon="3.82064">
        <ele>33.78</ele>
        <time>2014-04-13T07:49:13Z</time>
      </trkpt>
      <trkpt lat="43.60787" lon="3.82074">
        <ele>33.3</ele>
        <time>2014-04-13T07:49:14Z</time>
      </trkpt>
      <trkpt lat="43.6077" lon="3.82086">
        <ele>31.38</ele>
        <time>2014-04-13T07:49:15Z</time>
      </trkpt>
      <trkpt lat="43.60735" lon="3.82101">
        <ele>30.9</ele>
        <time>2014-04-13T07:49:17Z</time>
      </trkpt>
      <trkpt lat="43.60717" lon="3.82102">
        <ele>30.9</ele>
        <time>2014-04-13T07:49:18Z</time>
      </trkpt>
      <trkpt lat="43.60698" lon="3.82099">
        <ele>30.9</ele>
        <time>2014-04-13T07:49:19Z</time>
      </trkpt>
      <trkpt lat="43.6068" lon="3.8209">
        <ele>31.38</ele>
        <time>2014-04-13T07:49:20Z</time>
      </trkpt>
      <trkpt lat="43.60662" lon="3.82076">
        <ele>31.38</ele>
        <time>2014-04-13T07:49:21Z</time>
      </trkpt>
      <trkpt lat="43.60644" lon="3.82061">
        <ele>31.38</ele>
        <time>2014-04-13T07:49:22Z</time>
      </trkpt>
      <trkpt lat="43.60626" lon="3.82046">
        <ele>31.86</ele>
        <time>2014-04-13T07:49:23Z</time>
      </trkpt>
      <trkpt lat="43.60493" lon="3.81973">
        <ele>32.82</ele>
        <time>2014-04-13T07:49:30Z</time>
      </trkpt>
      <trkpt lat="43.60279" lon="3.8196">
        <ele>33.3</ele>
        <time>2014-04-13T07:49:40Z</time>
      </trkpt>
      <trkpt lat="43.60033" lon="3.8198">
        <ele>32.34</ele>
        <time>2014-04-13T07:49:51Z</time>
      </trkpt>
      <trkpt lat="43.59698" lon="3.81999">
        <ele>32.34</ele>
        <time>2014-04-13T07:50:06Z</time>
      </trkpt>
      <trkpt lat="43.59498" lon="3.82015">
        <ele>32.34</ele>
        <time>2014-04-13T07:50:15Z</time>
      </trkpt>
      <trkpt lat="43.5939" lon="3.82056">
        <ele>33.3</ele>
        <time>2014-04-13T07:50:21Z</time>
      </trkpt>
      <trkpt lat="43.59315" lon="3.82067">
        <ele>30.9</ele>
        <time>2014-04-13T07:50:27Z</time>
      </trkpt>
      <trkpt lat="43.59307" lon="3.82061">
        <ele>30.42</ele>
        <time>2014-04-13T07:50:28Z</time>
      </trkpt>
      <trkpt lat="43.59299" lon="3.82051">
        <ele>30.42</ele>
        <time>2014-04-13T07:50:29Z</time>
      </trkpt>
      <trkpt lat="43.5929" lon="3.82041">
        <ele>30.42</ele>
        <time>2014-04-13T07:50:30Z</time>
      </trkpt>
      <trkpt lat="43.5928" lon="3.82031">
        <ele>30.42</ele>
        <time>2014-04-13T07:50:31Z</time>
      </trkpt>
      <trkpt lat="43.5927" lon="3.82022">
        <ele>29.46</ele>
        <time>2014-04-13T07:50:32Z</time>
      </trkpt>
      <trkpt lat="43.5926" lon="3.82012">
        <ele>29.46</ele>
        <time>2014-04-13T07:50:33Z</time>
      </trkpt>
      <trkpt lat="43.59254" lon="3.81995">
        <ele>28.98</ele>
        <time>2014-04-13T07:50:34Z</time>
      </trkpt>
      <trkpt lat="43.59249" lon="3.81974">
        <ele>28.5</ele>
        <time>2014-04-13T07:50:35Z</time>
      </trkpt>
      <trkpt lat="43.59246" lon="3.81952">
        <ele>28.5</ele>
        <time>2014-04-13T07:50:36Z</time>
      </trkpt>
      <trkpt lat="43.59242" lon="3.81928">
        <ele>28.98</ele>
        <time>2014-04-13T07:50:37Z</time>
      </trkpt>
      <trkpt lat="43.59187" lon="3.81713">
        <ele>29.94</ele>
        <time>2014-04-13T07:50:46Z</time>
      </trkpt>
      <trkpt lat="43.59084" lon="3.81363">
        <ele>29.46</ele>
        <time>2014-04-13T07:50:59Z</time>
      </trkpt>
      <trkpt lat="43.58997" lon="3.81232">
        <ele>29.46</ele>
        <time>2014-04-13T07:51:05Z</time>
      </trkpt>
      <trkpt lat="43.58869" lon="3.81116">
        <ele>30.42</ele>
        <time>2014-04-13T07:51:13Z</time>
      </trkpt>
      <trkpt lat="43.58815" lon="3.81055">
        <ele>31.38</ele>
        <time>2014-04-13T07:51:18Z</time>
      </trkpt>
      <trkpt lat="43.58809" lon="3.81042">
        <ele>31.38</ele>
        <time>2014-04-13T07:51:19Z</time>
      </trkpt>
      <trkpt lat="43.58805" lon="3.81028">
        <ele>31.38</ele>
        <time>2014-04-13T07:51:20Z</time>
      </trkpt>
      <trkpt lat="43.58802" lon="3.81012">
        <ele>31.38</ele>
        <time>2014-04-13T07:51:21Z</time>
      </trkpt>
      <trkpt lat="43.58796" lon="3.80997">
        <ele>31.38</ele>
        <time>2014-04-13T07:51:22Z</time>
      </trkpt>
      <trkpt lat="43.5879" lon="3.80983">
        <ele>31.38</ele>
        <time>2014-04-13T07:51:23Z</time>
      </trkpt>
      <trkpt lat="43.58788" lon="3.80967">
        <ele>31.86</ele>
        <time>2014-04-13T07:51:24Z</time>
      </trkpt>
      <trkpt lat="43.58789" lon="3.8095">
        <ele>31.86</ele>
        <time>2014-04-13T07:51:25Z</time>
      </trkpt>
      <trkpt lat="43.58793" lon="3.80932">
        <ele>31.86</ele>
        <time>2014-04-13T07:51:26Z</time>
      </trkpt>
      <trkpt lat="43.58799" lon="3.80912">
        <ele>31.86</ele>
        <time>2014-04-13T07:51:27Z</time>
      </trkpt>
      <trkpt lat="43.58808" lon="3.80892">
        <ele>31.38</ele>
        <time>2014-04-13T07:51:28Z</time>
      </trkpt>
      <trkpt lat="43.58819" lon="3.80873">
        <ele>31.86</ele>
        <time>2014-04-13T07:51:29Z</time>
      </trkpt>
      <trkpt lat="43.58832" lon="3.80853">
        <ele>32.34</ele>
        <time>2014-04-13T07:51:30Z</time>
      </trkpt>
      <trkpt lat="43.58845" lon="3.80834">
        <ele>32.82</ele>
        <time>2014-04-13T07:51:31Z</time>
      </trkpt>
      <trkpt lat="43.59053" lon="3.80538">
        <ele>41.47</ele>
        <time>2014-04-13T07:51:47Z</time>
      </trkpt>
      <trkpt lat="43.59081" lon="3.80468">
        <ele>43.4</ele>
        <time>2014-04-13T07:51:50Z</time>
      </trkpt>
      <trkpt lat="43.59087" lon="3.80443">
        <ele>44.36</ele>
        <time>2014-04-13T07:51:51Z</time>
      </trkpt>
      <trkpt lat="43.59091" lon="3.80416">
        <ele>45.32</ele>
        <time>2014-04-13T07:51:52Z</time>
      </trkpt>
      <trkpt lat="43.59094" lon="3.80389">
        <ele>45.8</ele>
        <time>2014-04-13T07:51:53Z</time>
      </trkpt>
      <trkpt lat="43.59095" lon="3.80362">
        <ele>46.76</ele>
        <time>2014-04-13T07:51:54Z</time>
      </trkpt>
      <trkpt lat="43.59094" lon="3.80336">
        <ele>47.24</ele>
        <time>2014-04-13T07:51:55Z</time>
      </trkpt>
      <trkpt lat="43.59091" lon="3.8031">
        <ele>47.72</ele>
        <time>2014-04-13T07:51:56Z</time>
      </trkpt>
      <trkpt lat="43.59088" lon="3.80285">
        <ele>48.2</ele>
        <time>2014-04-13T07:51:57Z</time>
      </trkpt>
      <trkpt lat="43.59082" lon="3.8026">
        <ele>48.68</ele>
        <time>2014-04-13T07:51:58Z</time>
      </trkpt>
      <trkpt lat="43.59075" lon="3.80237">
        <ele>48.68</ele>
        <time>2014-04-13T07:51:59Z</time>
      </trkpt>
      <trkpt lat="43.59068" lon="3.80216">
        <ele>48.68</ele>
        <time>2014-04-13T07:52:00Z</time>
      </trkpt>
      <trkpt lat="43.5906" lon="3.80197">
        <ele>48.68</ele>
        <time>2014-04-13T07:52:01Z</time>
      </trkpt>
      <trkpt lat="43.59024" lon="3.80122">
        <ele>48.2</ele>
        <time>2014-04-13T07:52:07Z</time>
      </trkpt>
      <trkpt lat="43.59019" lon="3.80113">
        <ele>49.16</ele>
        <time>2014-04-13T07:52:13Z</time>
      </trkpt>
      <trkpt lat="43.58998" lon="3.8008">
        <ele>48.2</ele>
        <time>2014-04-13T07:52:32Z</time>
      </trkpt>
      <trkpt lat="43.58933" lon="3.7995">
        <ele>45.32</ele>
        <time>2014-04-13T07:52:39Z</time>
      </trkpt>
      <trkpt lat="43.58779" lon="3.79633">
        <ele>42.44</ele>
        <time>2014-04-13T07:52:53Z</time>
      </trkpt>
      <trkpt lat="43.58625" lon="3.79286">
        <ele>40.03</ele>
        <time>2014-04-13T07:53:07Z</time>
      </trkpt>
      <trkpt lat="43.5859" lon="3.79071">
        <ele>38.11</ele>
        <time>2014-04-13T07:53:15Z</time>
      </trkpt>
      <trkpt lat="43.5857" lon="3.78691">
        <ele>41.95</ele>
        <time>2014-04-13T07:53:29Z</time>
      </trkpt>
      <trkpt lat="43.58506" lon="3.78401">
        <ele>47.24</ele>
        <time>2014-04-13T07:53:39Z</time>
      </trkpt>
      <trkpt lat="43.58479" lon="3.7815">
        <ele>45.8</ele>
        <time>2014-04-13T07:53:47Z</time>
      </trkpt>
      <trkpt lat="43.58464" lon="3.77816">
        <ele>42.92</ele>
        <time>2014-04-13T07:53:58Z</time>
      </trkpt>
      <trkpt lat="43.58412" lon="3.77649">
        <ele>41.95</ele>
        <time>2014-04-13T07:54:04Z</time>
      </trkpt>
      <trkpt lat="43.58211" lon="3.7725">
        <ele>39.55</ele>
        <time>2014-04-13T07:54:19Z</time>
      </trkpt>
      <trkpt lat="43.5806" lon="3.76949">
        <ele>40.03</ele>
        <time>2014-04-13T07:54:31Z</time>
      </trkpt>
      <trkpt lat="43.5801" lon="3.76844">
        <ele>40.51</ele>
        <time>2014-04-13T07:54:37Z</time>
      </trkpt>
      <trkpt lat="43.58006" lon="3.76829">
        <ele>40.51</ele>
        <time>2014-04-13T07:54:38Z</time>
      </trkpt>
      <trkpt lat="43.58004" lon="3.76815">
        <ele>40.51</ele>
        <time>2014-04-13T07:54:39Z</time>
      </trkpt>
      <trkpt lat="43.58004" lon="3.768">
        <ele>40.51</ele>
        <time>2014-04-13T07:54:40Z</time>
      </trkpt>
      <trkpt lat="43.58005" lon="3.76785">
        <ele>40.51</ele>
        <time>2014-04-13T07:54:41Z</time>
      </trkpt>
      <trkpt lat="43.58002" lon="3.76772">
        <ele>40.51</ele>
        <time>2014-04-13T07:54:42Z</time>
      </trkpt>
      <trkpt lat="43.57997" lon="3.76762">
        <ele>40.51</ele>
        <time>2014-04-13T07:54:43Z</time>
      </trkpt>
      <trkpt lat="43.57986" lon="3.76758">
        <ele>40.03</ele>
        <time>2014-04-13T07:54:44Z</time>
      </trkpt>
      <trkpt lat="43.57974" lon="3.76754">
        <ele>40.03</ele>
        <time>2014-04-13T07:54:45Z</time>
      </trkpt>
      <trkpt lat="43.57961" lon="3.76747">
        <ele>40.03</ele>
        <time>2014-04-13T07:54:46Z</time>
      </trkpt>
      <trkpt lat="43.5795" lon="3.76733">
        <ele>40.03</ele>
        <time>2014-04-13T07:54:47Z</time>
      </trkpt>
      <trkpt lat="43.5794" lon="3.76714">
        <ele>39.55</ele>
        <time>2014-04-13T07:54:48Z</time>
      </trkpt>
      <trkpt lat="43.57928" lon="3.76691">
        <ele>39.55</ele>
        <time>2014-04-13T07:54:49Z</time>
      </trkpt>
      <trkpt lat="43.57916" lon="3.76666">
        <ele>39.55</ele>
        <time>2014-04-13T07:54:50Z</time>
      </trkpt>
      <trkpt lat="43.57818" lon="3.7641">
        <ele>40.03</ele>
        <time>2014-04-13T07:55:00Z</time>
      </trkpt>
      <trkpt lat="43.57796" lon="3.76178">
        <ele>40.99</ele>
        <time>2014-04-13T07:55:08Z</time>
      </trkpt>
      <trkpt lat="43.5782" lon="3.75908">
        <ele>44.84</ele>
        <time>2014-04-13T07:55:17Z</time>
      </trkpt>
      <trkpt lat="43.57843" lon="3.75704">
        <ele>47.72</ele>
        <time>2014-04-13T07:55:25Z</time>
      </trkpt>
      <trkpt lat="43.57846" lon="3.75654">
        <ele>48.2</ele>
        <time>2014-04-13T07:55:30Z</time>
      </trkpt>
      <trkpt lat="43.57849" lon="3.75645">
        <ele>48.2</ele>
        <time>2014-04-13T07:55:31Z</time>
      </trkpt>
      <trkpt lat="43.57853" lon="3.75636">
        <ele>48.68</ele>
        <time>2014-04-13T07:55:32Z</time>
      </trkpt>
      <trkpt lat="43.57856" lon="3.75626">
        <ele>48.68</ele>
        <time>2014-04-13T07:55:33Z</time>
      </trkpt>
      <trkpt lat="43.57856" lon="3.75618">
        <ele>48.68</ele>
        <time>2014-04-13T07:55:34Z</time>
      </trkpt>
      <trkpt lat="43.57852" lon="3.75609">
        <ele>48.2</ele>
        <time>2014-04-13T07:55:35Z</time>
      </trkpt>
      <trkpt lat="43.57845" lon="3.756">
        <ele>48.2</ele>
        <time>2014-04-13T07:55:36Z</time>
      </trkpt>
      <trkpt lat="43.57838" lon="3.75589">
        <ele>48.2</ele>
        <time>2014-04-13T07:55:37Z</time>
      </trkpt>
      <trkpt lat="43.57832" lon="3.75574">
        <ele>47.72</ele>
        <time>2014-04-13T07:55:38Z</time>
      </trkpt>
      <trkpt lat="43.57828" lon="3.75555">
        <ele>47.72</ele>
        <time>2014-04-13T07:55:39Z</time>
      </trkpt>
      <trkpt lat="43.57824" lon="3.75534">
        <ele>47.24</ele>
        <time>2014-04-13T07:55:40Z</time>
      </trkpt>
      <trkpt lat="43.57775" lon="3.75388">
        <ele>46.28</ele>
        <time>2014-04-13T07:55:46Z</time>
      </trkpt>
      <trkpt lat="43.57645" lon="3.751">
        <ele>46.28</ele>
        <time>2014-04-13T07:55:58Z</time>
      </trkpt>
      <trkpt lat="43.57554" lon="3.74833">
        <ele>49.65</ele>
        <time>2014-04-13T07:56:08Z</time>
      </trkpt>
      <trkpt lat="43.57472" lon="3.74626">
        <ele>51.57</ele>
        <time>2014-04-13T07:56:17Z</time>
      </trkpt>
      <trkpt lat="43.57369" lon="3.74419">
        <ele>52.53</ele>
        <time>2014-04-13T07:56:27Z</time>
      </trkpt>
      <trkpt lat="43.5731" lon="3.74189">
        <ele>53.01</ele>
        <time>2014-04-13T07:56:37Z</time>
      </trkpt>
      <trkpt lat="43.57222" lon="3.74058">
        <ele>52.53</ele>
        <time>2014-04-13T07:56:44Z</time>
      </trkpt>
      <trkpt lat="43.57086" lon="3.73905">
        <ele>52.53</ele>
        <time>2014-04-13T07:56:52Z</time>
      </trkpt>
      <trkpt lat="43.5697" lon="3.73738">
        <ele>52.53</ele>
        <time>2014-04-13T07:56:59Z</time>
      </trkpt>
      <trkpt lat="43.56745" lon="3.73403">
        <ele>54.93</ele>
        <time>2014-04-13T07:57:14Z</time>
      </trkpt>
      <trkpt lat="43.56593" lon="3.7322">
        <ele>54.93</ele>
        <time>2014-04-13T07:57:24Z</time>
      </trkpt>
      <trkpt lat="43.56461" lon="3.73057">
        <ele>54.45</ele>
        <time>2014-04-13T07:57:33Z</time>
      </trkpt>
      <trkpt lat="43.56326" lon="3.72965">
        <ele>51.57</ele>
        <time>2014-04-13T07:57:40Z</time>
      </trkpt>
      <trkpt lat="43.56245" lon="3.72938">
        <ele>47.24</ele>
        <time>2014-04-13T07:57:44Z</time>
      </trkpt>
      <trkpt lat="43.56224" lon="3.72938">
        <ele>46.76</ele>
        <time>2014-04-13T07:57:45Z</time>
      </trkpt>
      <trkpt lat="43.56097" lon="3.72916">
        <ele>44.36</ele>
        <time>2014-04-13T07:57:52Z</time>
      </trkpt>
      <trkpt lat="43.56001" lon="3.72869">
        <ele>46.76</ele>
        <time>2014-04-13T07:58:00Z</time>
      </trkpt>
      <trkpt lat="43.55881" lon="3.72867">
        <ele>49.16</ele>
        <time>2014-04-13T07:58:08Z</time>
      </trkpt>
      <trkpt lat="43.55766" lon="3.72869">
        <ele>50.13</ele>
        <time>2014-04-13T07:58:17Z</time>
      </trkpt>
      <trkpt lat="43.5576" lon="3.72867">
        <ele>50.61</ele>
        <time>2014-04-13T07:58:18Z</time>
      </trkpt>
      <trkpt lat="43.55756" lon="3.72863">
        <ele>50.61</ele>
        <time>2014-04-13T07:58:19Z</time>
      </trkpt>
      <trkpt lat="43.55753" lon="3.72859">
        <ele>50.61</ele>
        <time>2014-04-13T07:58:20Z</time>
      </trkpt>
      <trkpt lat="43.5575" lon="3.72853">
        <ele>50.61</ele>
        <time>2014-04-13T07:58:21Z</time>
      </trkpt>
      <trkpt lat="43.55751" lon="3.72842">
        <ele>51.09</ele>
        <time>2014-04-13T07:58:22Z</time>
      </trkpt>
      <trkpt lat="43.55752" lon="3.72832">
        <ele>50.61</ele>
        <time>2014-04-13T07:58:23Z</time>
      </trkpt>
      <trkpt lat="43.55752" lon="3.72823">
        <ele>51.09</ele>
        <time>2014-04-13T07:58:24Z</time>
      </trkpt>
      <trkpt lat="43.55754" lon="3.7281">
        <ele>50.61</ele>
        <time>2014-04-13T07:58:26Z</time>
      </trkpt>
      <trkpt lat="43.55755" lon="3.72805">
        <ele>51.09</ele>
        <time>2014-04-13T07:58:27Z</time>
      </trkpt>
      <trkpt lat="43.55755" lon="3.72802">
        <ele>51.09</ele>
        <time>2014-04-13T07:58:28Z</time>
      </trkpt>
      <trkpt lat="43.55754" lon="3.72801">
        <ele>50.61</ele>
        <time>2014-04-13T07:58:42Z</time>
      </trkpt>
      <trkpt lat="43.55754" lon="3.72804">
        <ele>49.65</ele>
        <time>2014-04-13T07:59:10Z</time>
      </trkpt>
      <trkpt lat="43.55753" lon="3.72804">
        <ele>49.65</ele>
        <time>2014-04-13T07:59:25Z</time>
      </trkpt>
      <trkpt lat="43.55752" lon="3.72805">
        <ele>49.65</ele>
        <time>2014-04-13T07:59:26Z</time>
      </trkpt>
      <trkpt lat="43.5575" lon="3.72808">
        <ele>49.65</ele>
        <time>2014-04-13T07:59:27Z</time>
      </trkpt>
      <trkpt lat="43.5575" lon="3.72814">
        <ele>49.65</ele>
        <time>2014-04-13T07:59:28Z</time>
      </trkpt>
      <trkpt lat="43.55751" lon="3.72821">
        <ele>50.13</ele>
        <time>2014-04-13T07:59:29Z</time>
      </trkpt>
      <trkpt lat="43.55748" lon="3.72855">
        <ele>50.13</ele>
        <time>2014-04-13T07:59:39Z</time>
      </trkpt>
      <trkpt lat="43.55743" lon="3.72867">
        <ele>50.61</ele>
        <time>2014-04-13T07:59:47Z</time>
      </trkpt>
      <trkpt lat="43.55742" lon="3.72868">
        <ele>50.61</ele>
        <time>2014-04-13T07:59:48Z</time>
      </trkpt>
      <trkpt lat="43.55735" lon="3.72869">
        <ele>50.61</ele>
        <time>2014-04-13T07:59:49Z</time>
      </trkpt>
      <trkpt lat="43.55726" lon="3.72867">
        <ele>50.61</ele>
        <time>2014-04-13T07:59:50Z</time>
      </trkpt>
      <trkpt lat="43.55653" lon="3.72849">
        <ele>50.61</ele>
        <time>2014-04-13T07:59:56Z</time>
      </trkpt>
      <trkpt lat="43.55535" lon="3.72797">
        <ele>50.61</ele>
        <time>2014-04-13T08:00:06Z</time>
      </trkpt>
      <trkpt lat="43.55424" lon="3.72723">
        <ele>50.61</ele>
        <time>2014-04-13T08:00:17Z</time>
      </trkpt>
      <trkpt lat="43.55335" lon="3.72645">
        <ele>51.09</ele>
        <time>2014-04-13T08:00:27Z</time>
      </trkpt>
      <trkpt lat="43.55324" lon="3.72633">
        <ele>51.09</ele>
        <time>2014-04-13T08:00:29Z</time>
      </trkpt>
      <trkpt lat="43.5532" lon="3.72627">
        <ele>51.09</ele>
        <time>2014-04-13T08:00:30Z</time>
      </trkpt>
      <trkpt lat="43.55316" lon="3.72618">
        <ele>51.09</ele>
        <time>2014-04-13T08:00:31Z</time>
      </trkpt>
      <trkpt lat="43.55307" lon="3.72601">
        <ele>51.57</ele>
        <time>2014-04-13T08:00:33Z</time>
      </trkpt>
      <trkpt lat="43.55301" lon="3.72596">
        <ele>51.57</ele>
        <time>2014-04-13T08:00:34Z</time>
      </trkpt>
      <trkpt lat="43.55294" lon="3.72592">
        <ele>51.09</ele>
        <time>2014-04-13T08:00:35Z</time>
      </trkpt>
      <trkpt lat="43.55287" lon="3.72588">
        <ele>51.09</ele>
        <time>2014-04-13T08:00:36Z</time>
      </trkpt>
      <trkpt lat="43.5528" lon="3.72581">
        <ele>51.09</ele>
        <time>2014-04-13T08:00:37Z</time>
      </trkpt>
      <trkpt lat="43.55273" lon="3.72572">
        <ele>51.09</ele>
        <time>2014-04-13T08:00:38Z</time>
      </trkpt>
      <trkpt lat="43.55267" lon="3.72562">
        <ele>51.09</ele>
        <time>2014-04-13T08:00:39Z</time>
      </trkpt>
      <trkpt lat="43.55262" lon="3.7255">
        <ele>51.09</ele>
        <time>2014-04-13T08:00:40Z</time>
      </trkpt>
      <trkpt lat="43.55257" lon="3.72538">
        <ele>51.09</ele>
        <time>2014-04-13T08:00:41Z</time>
      </trkpt>
      <trkpt lat="43.55196" lon="3.72409">
        <ele>51.57</ele>
        <time>2014-04-13T08:00:50Z</time>
      </trkpt>
      <trkpt lat="43.55134" lon="3.7222">
        <ele>52.53</ele>
        <time>2014-04-13T08:01:02Z</time>
      </trkpt>
      <trkpt lat="43.55101" lon="3.72062">
        <ele>53.97</ele>
        <time>2014-04-13T08:01:12Z</time>
      </trkpt>
      <trkpt lat="43.55068" lon="3.71885">
        <ele>54.45</ele>
        <time>2014-04-13T08:01:20Z</time>
      </trkpt>
      <trkpt lat="43.55044" lon="3.71746">
        <ele>56.37</ele>
        <time>2014-04-13T08:01:28Z</time>
      </trkpt>
      <trkpt lat="43.55032" lon="3.71675">
        <ele>56.86</ele>
        <time>2014-04-13T08:01:35Z</time>
      </trkpt>
      <trkpt lat="43.55033" lon="3.7167">
        <ele>56.86</ele>
        <time>2014-04-13T08:01:36Z</time>
      </trkpt>
      <trkpt lat="43.55036" lon="3.71658">
        <ele>56.86</ele>
        <time>2014-04-13T08:01:40Z</time>
      </trkpt>
      <trkpt lat="43.55038" lon="3.71652">
        <ele>56.86</ele>
        <time>2014-04-13T08:01:41Z</time>
      </trkpt>
      <trkpt lat="43.55042" lon="3.71644">
        <ele>56.86</ele>
        <time>2014-04-13T08:01:42Z</time>
      </trkpt>
      <trkpt lat="43.55045" lon="3.71634">
        <ele>56.86</ele>
        <time>2014-04-13T08:01:43Z</time>
      </trkpt>
      <trkpt lat="43.55045" lon="3.71623">
        <ele>56.86</ele>
        <time>2014-04-13T08:01:44Z</time>
      </trkpt>
      <trkpt lat="43.55044" lon="3.71611">
        <ele>56.86</ele>
        <time>2014-04-13T08:01:45Z</time>
      </trkpt>
      <trkpt lat="43.55046" lon="3.716">
        <ele>56.37</ele>
        <time>2014-04-13T08:01:46Z</time>
      </trkpt>
      <trkpt lat="43.55049" lon="3.7159">
        <ele>56.37</ele>
        <time>2014-04-13T08:01:47Z</time>
      </trkpt>
      <trkpt lat="43.55052" lon="3.71581">
        <ele>56.37</ele>
        <time>2014-04-13T08:01:48Z</time>
      </trkpt>
      <trkpt lat="43.55054" lon="3.71572">
        <ele>56.37</ele>
        <time>2014-04-13T08:01:49Z</time>
      </trkpt>
      <trkpt lat="43.55054" lon="3.71564">
        <ele>56.37</ele>
        <time>2014-04-13T08:01:50Z</time>
      </trkpt>
      <trkpt lat="43.55053" lon="3.71558">
        <ele>56.86</ele>
        <time>2014-04-13T08:01:51Z</time>
      </trkpt>
      <trkpt lat="43.55051" lon="3.71552">
        <ele>56.86</ele>
        <time>2014-04-13T08:01:52Z</time>
      </trkpt>
      <trkpt lat="43.5505" lon="3.71546">
        <ele>56.86</ele>
        <time>2014-04-13T08:01:53Z</time>
      </trkpt>
      <trkpt lat="43.55048" lon="3.7154">
        <ele>56.86</ele>
        <time>2014-04-13T08:01:54Z</time>
      </trkpt>
      <trkpt lat="43.55043" lon="3.71521">
        <ele>56.86</ele>
        <time>2014-04-13T08:01:57Z</time>
      </trkpt>
      <trkpt lat="43.55043" lon="3.71515">
        <ele>56.86</ele>
        <time>2014-04-13T08:01:58Z</time>
      </trkpt>
      <trkpt lat="43.55043" lon="3.71511">
        <ele>56.86</ele>
        <time>2014-04-13T08:01:59Z</time>
      </trkpt>
      <trkpt lat="43.55043" lon="3.71507">
        <ele>56.86</ele>
        <time>2014-04-13T08:02:00Z</time>
      </trkpt>
      <trkpt lat="43.55044" lon="3.71504">
        <ele>57.34</ele>
        <time>2014-04-13T08:02:01Z</time>
      </trkpt>
      <trkpt lat="43.55044" lon="3.71502">
        <ele>57.34</ele>
        <time>2014-04-13T08:02:02Z</time>
      </trkpt>
      <trkpt lat="43.55045" lon="3.71492">
        <ele>57.34</ele>
        <time>2014-04-13T08:02:06Z</time>
      </trkpt>
      <trkpt lat="43.55043" lon="3.71489">
        <ele>56.86</ele>
        <time>2014-04-13T08:02:07Z</time>
      </trkpt>
      <trkpt lat="43.55041" lon="3.71487">
        <ele>56.86</ele>
        <time>2014-04-13T08:02:08Z</time>
      </trkpt>
      <trkpt lat="43.55038" lon="3.71485">
        <ele>56.37</ele>
        <time>2014-04-13T08:02:09Z</time>
      </trkpt>
      <trkpt lat="43.55035" lon="3.71483">
        <ele>56.86</ele>
        <time>2014-04-13T08:02:10Z</time>
      </trkpt>
      <trkpt lat="43.55018" lon="3.71476">
        <ele>56.37</ele>
        <time>2014-04-13T08:02:16Z</time>
      </trkpt>
      <trkpt lat="43.55015" lon="3.71478">
        <ele>56.37</ele>
        <time>2014-04-13T08:02:17Z</time>
      </trkpt>
      <trkpt lat="43.55013" lon="3.71482">
        <ele>56.37</ele>
        <time>2014-04-13T08:02:18Z</time>
      </trkpt>
      <trkpt lat="43.55013" lon="3.71487">
        <ele>56.37</ele>
        <time>2014-04-13T08:02:19Z</time>
      </trkpt>
      <trkpt lat="43.55015" lon="3.71491">
        <ele>56.37</ele>
        <time>2014-04-13T08:02:20Z</time>
      </trkpt>
      <trkpt lat="43.55017" lon="3.71495">
        <ele>56.37</ele>
        <time>2014-04-13T08:02:21Z</time>
      </trkpt>
      <trkpt lat="43.5502" lon="3.71498">
        <ele>56.37</ele>
        <time>2014-04-13T08:02:22Z</time>
      </trkpt>
      <trkpt lat="43.55022" lon="3.715">
        <ele>56.37</ele>
        <time>2014-04-13T08:02:23Z</time>
      </trkpt>
      <trkpt lat="43.55025" lon="3.71501">
        <ele>56.37</ele>
        <time>2014-04-13T08:02:24Z</time>
      </trkpt>
      <trkpt lat="43.55027" lon="3.71502">
        <ele>55.89</ele>
        <time>2014-04-13T08:02:35Z</time>
      </trkpt>
      <trkpt lat="43.55027" lon="3.71501">
        <ele>53.49</ele>
        <time>2014-04-13T08:07:52Z</time>
      </trkpt>
      <trkpt lat="43.55027" lon="3.71501">
        <ele>53.49</ele>
        <time>2014-04-13T08:07:55Z</time>
      </trkpt>
      <trkpt lat="43.55026" lon="3.71501">
        <ele>54.45</ele>
        <time>2014-04-13T08:10:23Z</time>
      </trkpt>
      <trkpt lat="43.55028" lon="3.71502">
        <ele>57.34</ele>
        <time>2014-04-13T08:11:48Z</time>
      </trkpt>
      <trkpt lat="43.55036" lon="3.71505">
        <ele>56.86</ele>
        <time>2014-04-13T08:11:56Z</time>
      </trkpt>
      <trkpt lat="43.55038" lon="3.71508">
        <ele>56.86</ele>
        <time>2014-04-13T08:12:16Z</time>
      </trkpt>
      <trkpt lat="43.55041" lon="3.71518">
        <ele>56.37</ele>
        <time>2014-04-13T08:12:50Z</time>
      </trkpt>
      <trkpt lat="43.55044" lon="3.71531">
        <ele>55.89</ele>
        <time>2014-04-13T08:12:52Z</time>
      </trkpt>
      <trkpt lat="43.55051" lon="3.71561">
        <ele>55.41</ele>
        <time>2014-04-13T08:12:56Z</time>
      </trkpt>
      <trkpt lat="43.55052" lon="3.71569">
        <ele>55.41</ele>
        <time>2014-04-13T08:12:57Z</time>
      </trkpt>
      <trkpt lat="43.55052" lon="3.71577">
        <ele>55.41</ele>
        <time>2014-04-13T08:12:58Z</time>
      </trkpt>
      <trkpt lat="43.55051" lon="3.71585">
        <ele>54.93</ele>
        <time>2014-04-13T08:12:59Z</time>
      </trkpt>
      <trkpt lat="43.55049" lon="3.7159">
        <ele>54.93</ele>
        <time>2014-04-13T08:13:00Z</time>
      </trkpt>
      <trkpt lat="43.55046" lon="3.71593">
        <ele>54.93</ele>
        <time>2014-04-13T08:13:01Z</time>
      </trkpt>
      <trkpt lat="43.55043" lon="3.71595">
        <ele>54.93</ele>
        <time>2014-04-13T08:13:02Z</time>
      </trkpt>
      <trkpt lat="43.5504" lon="3.71597">
        <ele>54.93</ele>
        <time>2014-04-13T08:13:03Z</time>
      </trkpt>
      <trkpt lat="43.55037" lon="3.71597">
        <ele>54.93</ele>
        <time>2014-04-13T08:13:04Z</time>
      </trkpt>
      <trkpt lat="43.55033" lon="3.71597">
        <ele>54.93</ele>
        <time>2014-04-13T08:13:05Z</time>
      </trkpt>
      <trkpt lat="43.55026" lon="3.71594">
        <ele>54.93</ele>
        <time>2014-04-13T08:13:06Z</time>
      </trkpt>
      <trkpt lat="43.55018" lon="3.71584">
        <ele>54.93</ele>
        <time>2014-04-13T08:13:07Z</time>
      </trkpt>
      <trkpt lat="43.55012" lon="3.71571">
        <ele>54.93</ele>
        <time>2014-04-13T08:13:08Z</time>
      </trkpt>
      <trkpt lat="43.55008" lon="3.71556">
        <ele>54.93</ele>
        <time>2014-04-13T08:13:09Z</time>
      </trkpt>
      <trkpt lat="43.55005" lon="3.7154">
        <ele>54.93</ele>
        <time>2014-04-13T08:13:10Z</time>
      </trkpt>
      <trkpt lat="43.55003" lon="3.71525">
        <ele>54.93</ele>
        <time>2014-04-13T08:13:11Z</time>
      </trkpt>
      <trkpt lat="43.54983" lon="3.71412">
        <ele>55.89</ele>
        <time>2014-04-13T08:13:21Z</time>
      </trkpt>
      <trkpt lat="43.54979" lon="3.71394">
        <ele>56.37</ele>
        <time>2014-04-13T08:13:29Z</time>
      </trkpt>
      <trkpt lat="43.54971" lon="3.71361">
        <ele>56.86</ele>
        <time>2014-04-13T08:13:40Z</time>
      </trkpt>
      <trkpt lat="43.54946" lon="3.71226">
        <ele>56.86</ele>
        <time>2014-04-13T08:13:46Z</time>
      </trkpt>
      <trkpt lat="43.54895" lon="3.71006">
        <ele>56.37</ele>
        <time>2014-04-13T08:13:55Z</time>
      </trkpt>
      <trkpt lat="43.54884" lon="3.7096">
        <ele>56.37</ele>
        <time>2014-04-13T08:13:58Z</time>
      </trkpt>
      <trkpt lat="43.54885" lon="3.70947">
        <ele>56.37</ele>
        <time>2014-04-13T08:13:59Z</time>
      </trkpt>
      <trkpt lat="43.54888" lon="3.70934">
        <ele>56.37</ele>
        <time>2014-04-13T08:14:00Z</time>
      </trkpt>
      <trkpt lat="43.54891" lon="3.7092">
        <ele>55.89</ele>
        <time>2014-04-13T08:14:01Z</time>
      </trkpt>
      <trkpt lat="43.54892" lon="3.70905">
        <ele>56.37</ele>
        <time>2014-04-13T08:14:02Z</time>
      </trkpt>
      <trkpt lat="43.54888" lon="3.70893">
        <ele>55.89</ele>
        <time>2014-04-13T08:14:03Z</time>
      </trkpt>
      <trkpt lat="43.5488" lon="3.70883">
        <ele>55.89</ele>
        <time>2014-04-13T08:14:04Z</time>
      </trkpt>
      <trkpt lat="43.54869" lon="3.70878">
        <ele>55.41</ele>
        <time>2014-04-13T08:14:05Z</time>
      </trkpt>
      <trkpt lat="43.54858" lon="3.70875">
        <ele>54.93</ele>
        <time>2014-04-13T08:14:06Z</time>
      </trkpt>
      <trkpt lat="43.54847" lon="3.70872">
        <ele>54.45</ele>
        <time>2014-04-13T08:14:07Z</time>
      </trkpt>
      <trkpt lat="43.54836" lon="3.70865">
        <ele>54.45</ele>
        <time>2014-04-13T08:14:08Z</time>
      </trkpt>
      <trkpt lat="43.54826" lon="3.70853">
        <ele>53.97</ele>
        <time>2014-04-13T08:14:09Z</time>
      </trkpt>
      <trkpt lat="43.54815" lon="3.70839">
        <ele>53.97</ele>
        <time>2014-04-13T08:14:10Z</time>
      </trkpt>
      <trkpt lat="43.54804" lon="3.70825">
        <ele>53.97</ele>
        <time>2014-04-13T08:14:11Z</time>
      </trkpt>
      <trkpt lat="43.54695" lon="3.70704">
        <ele>53.49</ele>
        <time>2014-04-13T08:14:19Z</time>
      </trkpt>
      <trkpt lat="43.54535" lon="3.70536">
        <ele>55.41</ele>
        <time>2014-04-13T08:14:31Z</time>
      </trkpt>
      <trkpt lat="43.5453" lon="3.70525">
        <ele>55.41</ele>
        <time>2014-04-13T08:14:32Z</time>
      </trkpt>
      <trkpt lat="43.54529" lon="3.70512">
        <ele>55.41</ele>
        <time>2014-04-13T08:14:33Z</time>
      </trkpt>
      <trkpt lat="43.54529" lon="3.70499">
        <ele>55.41</ele>
        <time>2014-04-13T08:14:34Z</time>
      </trkpt>
      <trkpt lat="43.54529" lon="3.70487">
        <ele>55.41</ele>
        <time>2014-04-13T08:14:35Z</time>
      </trkpt>
      <trkpt lat="43.54524" lon="3.70478">
        <ele>55.41</ele>
        <time>2014-04-13T08:14:36Z</time>
      </trkpt>
      <trkpt lat="43.54516" lon="3.70473">
        <ele>55.89</ele>
        <time>2014-04-13T08:14:37Z</time>
      </trkpt>
      <trkpt lat="43.54506" lon="3.70473">
        <ele>55.89</ele>
        <time>2014-04-13T08:14:38Z</time>
      </trkpt>
      <trkpt lat="43.54496" lon="3.70472">
        <ele>55.89</ele>
        <time>2014-04-13T08:14:39Z</time>
      </trkpt>
      <trkpt lat="43.54487" lon="3.70468">
        <ele>55.89</ele>
        <time>2014-04-13T08:14:40Z</time>
      </trkpt>
      <trkpt lat="43.54479" lon="3.70458">
        <ele>55.89</ele>
        <time>2014-04-13T08:14:41Z</time>
      </trkpt>
      <trkpt lat="43.54472" lon="3.70445">
        <ele>56.37</ele>
        <time>2014-04-13T08:14:42Z</time>
      </trkpt>
      <trkpt lat="43.54464" lon="3.70431">
        <ele>56.37</ele>
        <time>2014-04-13T08:14:43Z</time>
      </trkpt>
      <trkpt lat="43.54454" lon="3.70418">
        <ele>56.37</ele>
        <time>2014-04-13T08:14:44Z</time>
      </trkpt>
      <trkpt lat="43.54443" lon="3.70406">
        <ele>56.37</ele>
        <time>2014-04-13T08:14:45Z</time>
      </trkpt>
      <trkpt lat="43.5443" lon="3.70396">
        <ele>56.37</ele>
        <time>2014-04-13T08:14:46Z</time>
      </trkpt>
      <trkpt lat="43.54312" lon="3.70278">
        <ele>55.89</ele>
        <time>2014-04-13T08:14:55Z</time>
      </trkpt>
      <trkpt lat="43.5409" lon="3.70014">
        <ele>53.97</ele>
        <time>2014-04-13T08:15:08Z</time>
      </trkpt>
      <trkpt lat="43.54055" lon="3.6998">
        <ele>53.49</ele>
        <time>2014-04-13T08:15:10Z</time>
      </trkpt>
      <trkpt lat="43.54035" lon="3.69966">
        <ele>53.49</ele>
        <time>2014-04-13T08:15:11Z</time>
      </trkpt>
      <trkpt lat="43.54014" lon="3.69954">
        <ele>53.49</ele>
        <time>2014-04-13T08:15:12Z</time>
      </trkpt>
      <trkpt lat="43.53992" lon="3.69943">
        <ele>53.49</ele>
        <time>2014-04-13T08:15:13Z</time>
      </trkpt>
      <trkpt lat="43.5397" lon="3.69934">
        <ele>53.49</ele>
        <time>2014-04-13T08:15:14Z</time>
      </trkpt>
      <trkpt lat="43.53692" lon="3.69821">
        <ele>53.97</ele>
        <time>2014-04-13T08:15:26Z</time>
      </trkpt>
      <trkpt lat="43.53244" lon="3.69639">
        <ele>43.4</ele>
        <time>2014-04-13T08:15:45Z</time>
      </trkpt>
      <trkpt lat="43.52988" lon="3.69525">
        <ele>51.57</ele>
        <time>2014-04-13T08:15:56Z</time>
      </trkpt>
      <trkpt lat="43.5297" lon="3.69505">
        <ele>52.53</ele>
        <time>2014-04-13T08:15:57Z</time>
      </trkpt>
      <trkpt lat="43.52954" lon="3.69482">
        <ele>53.01</ele>
        <time>2014-04-13T08:15:58Z</time>
      </trkpt>
      <trkpt lat="43.52938" lon="3.69458">
        <ele>53.49</ele>
        <time>2014-04-13T08:15:59Z</time>
      </trkpt>
      <trkpt lat="43.52923" lon="3.69434">
        <ele>53.97</ele>
        <time>2014-04-13T08:16:00Z</time>
      </trkpt>
      <trkpt lat="43.5288" lon="3.69376">
        <ele>54.93</ele>
        <time>2014-04-13T08:16:03Z</time>
      </trkpt>
      <trkpt lat="43.52863" lon="3.69367">
        <ele>54.93</ele>
        <time>2014-04-13T08:16:04Z</time>
      </trkpt>
      <trkpt lat="43.52843" lon="3.69362">
        <ele>53.97</ele>
        <time>2014-04-13T08:16:05Z</time>
      </trkpt>
      <trkpt lat="43.52821" lon="3.69358">
        <ele>53.01</ele>
        <time>2014-04-13T08:16:06Z</time>
      </trkpt>
      <trkpt lat="43.528" lon="3.69354">
        <ele>52.05</ele>
        <time>2014-04-13T08:16:07Z</time>
      </trkpt>
      <trkpt lat="43.52516" lon="3.69283">
        <ele>39.55</ele>
        <time>2014-04-13T08:16:20Z</time>
      </trkpt>
      <trkpt lat="43.52473" lon="3.69262">
        <ele>37.63</ele>
        <time>2014-04-13T08:16:22Z</time>
      </trkpt>
      <trkpt lat="43.52453" lon="3.69248">
        <ele>37.15</ele>
        <time>2014-04-13T08:16:23Z</time>
      </trkpt>
      <trkpt lat="43.52311" lon="3.6914">
        <ele>32.82</ele>
        <time>2014-04-13T08:16:31Z</time>
      </trkpt>
      <trkpt lat="43.52179" lon="3.69094">
        <ele>33.3</ele>
        <time>2014-04-13T08:16:38Z</time>
      </trkpt>
      <trkpt lat="43.5216" lon="3.69092">
        <ele>33.3</ele>
        <time>2014-04-13T08:16:39Z</time>
      </trkpt>
      <trkpt lat="43.52141" lon="3.69092">
        <ele>33.3</ele>
        <time>2014-04-13T08:16:40Z</time>
      </trkpt>
      <trkpt lat="43.52123" lon="3.69095">
        <ele>33.3</ele>
        <time>2014-04-13T08:16:41Z</time>
      </trkpt>
      <trkpt lat="43.52104" lon="3.69102">
        <ele>33.3</ele>
        <time>2014-04-13T08:16:42Z</time>
      </trkpt>
      <trkpt lat="43.52085" lon="3.69113">
        <ele>33.3</ele>
        <time>2014-04-13T08:16:43Z</time>
      </trkpt>
      <trkpt lat="43.52066" lon="3.69124">
        <ele>33.3</ele>
        <time>2014-04-13T08:16:44Z</time>
      </trkpt>
      <trkpt lat="43.51891" lon="3.692">
        <ele>31.38</ele>
        <time>2014-04-13T08:16:53Z</time>
      </trkpt>
      <trkpt lat="43.51783" lon="3.69214">
        <ele>30.9</ele>
        <time>2014-04-13T08:17:00Z</time>
      </trkpt>
      <trkpt lat="43.51639" lon="3.69232">
        <ele>30.9</ele>
        <time>2014-04-13T08:17:11Z</time>
      </trkpt>
      <trkpt lat="43.51573" lon="3.69241">
        <ele>30.42</ele>
        <time>2014-04-13T08:17:19Z</time>
      </trkpt>
      <trkpt lat="43.51558" lon="3.69237">
        <ele>30.9</ele>
        <time>2014-04-13T08:17:26Z</time>
      </trkpt>
      <trkpt lat="43.51558" lon="3.69233">
        <ele>30.9</ele>
        <time>2014-04-13T08:17:27Z</time>
      </trkpt>
      <trkpt lat="43.51558" lon="3.69224">
        <ele>30.9</ele>
        <time>2014-04-13T08:17:28Z</time>
      </trkpt>
      <trkpt lat="43.51562" lon="3.6912">
        <ele>30.42</ele>
        <time>2014-04-13T08:17:35Z</time>
      </trkpt>
      <trkpt lat="43.51562" lon="3.69008">
        <ele>32.34</ele>
        <time>2014-04-13T08:17:43Z</time>
      </trkpt>
      <trkpt lat="43.51559" lon="3.68856">
        <ele>35.71</ele>
        <time>2014-04-13T08:17:51Z</time>
      </trkpt>
      <trkpt lat="43.51551" lon="3.68631">
        <ele>41.47</ele>
        <time>2014-04-13T08:18:02Z</time>
      </trkpt>
      <trkpt lat="43.51548" lon="3.6848">
        <ele>47.24</ele>
        <time>2014-04-13T08:18:09Z</time>
      </trkpt>
      <trkpt lat="43.51546" lon="3.68456">
        <ele>48.2</ele>
        <time>2014-04-13T08:18:10Z</time>
      </trkpt>
      <trkpt lat="43.51517" lon="3.68227">
        <ele>49.16</ele>
        <time>2014-04-13T08:18:18Z</time>
      </trkpt>
      <trkpt lat="43.51464" lon="3.6797">
        <ele>50.13</ele>
        <time>2014-04-13T08:18:27Z</time>
      </trkpt>
      <trkpt lat="43.51429" lon="3.67876">
        <ele>51.57</ele>
        <time>2014-04-13T08:18:31Z</time>
      </trkpt>
      <trkpt lat="43.51419" lon="3.67858">
        <ele>51.57</ele>
        <time>2014-04-13T08:18:32Z</time>
      </trkpt>
      <trkpt lat="43.51364" lon="3.67782">
        <ele>50.61</ele>
        <time>2014-04-13T08:18:37Z</time>
      </trkpt>
      <trkpt lat="43.51354" lon="3.67773">
        <ele>50.13</ele>
        <time>2014-04-13T08:18:38Z</time>
      </trkpt>
      <trkpt lat="43.51334" lon="3.67759">
        <ele>49.65</ele>
        <time>2014-04-13T08:18:43Z</time>
      </trkpt>
      <trkpt lat="43.51332" lon="3.6775">
        <ele>50.13</ele>
        <time>2014-04-13T08:18:47Z</time>
      </trkpt>
      <trkpt lat="43.51334" lon="3.6774">
        <ele>50.13</ele>
        <time>2014-04-13T08:18:48Z</time>
      </trkpt>
      <trkpt lat="43.51344" lon="3.67626">
        <ele>51.09</ele>
        <time>2014-04-13T08:18:54Z</time>
      </trkpt>
      <trkpt lat="43.51366" lon="3.67399">
        <ele>53.49</ele>
        <time>2014-04-13T08:19:02Z</time>
      </trkpt>
      <trkpt lat="43.51379" lon="3.67084">
        <ele>56.86</ele>
        <time>2014-04-13T08:19:12Z</time>
      </trkpt>
      <trkpt lat="43.51328" lon="3.66905">
        <ele>58.78</ele>
        <time>2014-04-13T08:19:18Z</time>
      </trkpt>
      <trkpt lat="43.51321" lon="3.66876">
        <ele>59.26</ele>
        <time>2014-04-13T08:19:19Z</time>
      </trkpt>
      <trkpt lat="43.51316" lon="3.66845">
        <ele>59.74</ele>
        <time>2014-04-13T08:19:20Z</time>
      </trkpt>
      <trkpt lat="43.51313" lon="3.66815">
        <ele>60.7</ele>
        <time>2014-04-13T08:19:21Z</time>
      </trkpt>
      <trkpt lat="43.51312" lon="3.66786">
        <ele>61.18</ele>
        <time>2014-04-13T08:19:22Z</time>
      </trkpt>
      <trkpt lat="43.51311" lon="3.66757">
        <ele>61.66</ele>
        <time>2014-04-13T08:19:23Z</time>
      </trkpt>
      <trkpt lat="43.51307" lon="3.667">
        <ele>63.1</ele>
        <time>2014-04-13T08:19:25Z</time>
      </trkpt>
      <trkpt lat="43.51302" lon="3.66672">
        <ele>64.07</ele>
        <time>2014-04-13T08:19:26Z</time>
      </trkpt>
      <trkpt lat="43.51295" lon="3.66646">
        <ele>65.03</ele>
        <time>2014-04-13T08:19:27Z</time>
      </trkpt>
      <trkpt lat="43.51285" lon="3.6662">
        <ele>65.99</ele>
        <time>2014-04-13T08:19:28Z</time>
      </trkpt>
      <trkpt lat="43.51274" lon="3.66596">
        <ele>67.43</ele>
        <time>2014-04-13T08:19:29Z</time>
      </trkpt>
      <trkpt lat="43.51263" lon="3.66572">
        <ele>68.39</ele>
        <time>2014-04-13T08:19:30Z</time>
      </trkpt>
      <trkpt lat="43.51245" lon="3.66523">
        <ele>70.31</ele>
        <time>2014-04-13T08:19:32Z</time>
      </trkpt>
      <trkpt lat="43.51239" lon="3.66498">
        <ele>71.27</ele>
        <time>2014-04-13T08:19:33Z</time>
      </trkpt>
      <trkpt lat="43.51237" lon="3.66472">
        <ele>72.72</ele>
        <time>2014-04-13T08:19:34Z</time>
      </trkpt>
      <trkpt lat="43.51238" lon="3.66447">
        <ele>73.68</ele>
        <time>2014-04-13T08:19:35Z</time>
      </trkpt>
      <trkpt lat="43.51241" lon="3.66422">
        <ele>74.64</ele>
        <time>2014-04-13T08:19:36Z</time>
      </trkpt>
      <trkpt lat="43.51247" lon="3.66397">
        <ele>75.6</ele>
        <time>2014-04-13T08:19:37Z</time>
      </trkpt>
      <trkpt lat="43.51255" lon="3.66375">
        <ele>76.56</ele>
        <time>2014-04-13T08:19:38Z</time>
      </trkpt>
      <trkpt lat="43.51265" lon="3.66353">
        <ele>77.52</ele>
        <time>2014-04-13T08:19:39Z</time>
      </trkpt>
      <trkpt lat="43.51276" lon="3.66333">
        <ele>78.48</ele>
        <time>2014-04-13T08:19:40Z</time>
      </trkpt>
      <trkpt lat="43.51288" lon="3.66313">
        <ele>79.45</ele>
        <time>2014-04-13T08:19:41Z</time>
      </trkpt>
      <trkpt lat="43.51309" lon="3.6627">
        <ele>81.85</ele>
        <time>2014-04-13T08:19:43Z</time>
      </trkpt>
      <trkpt lat="43.51316" lon="3.66246">
        <ele>82.81</ele>
        <time>2014-04-13T08:19:44Z</time>
      </trkpt>
      <trkpt lat="43.51321" lon="3.6622">
        <ele>84.25</ele>
        <time>2014-04-13T08:19:45Z</time>
      </trkpt>
      <trkpt lat="43.51323" lon="3.66193">
        <ele>85.21</ele>
        <time>2014-04-13T08:19:46Z</time>
      </trkpt>
      <trkpt lat="43.51323" lon="3.66166">
        <ele>86.18</ele>
        <time>2014-04-13T08:19:47Z</time>
      </trkpt>
      <trkpt lat="43.5132" lon="3.66139">
        <ele>87.62</ele>
        <time>2014-04-13T08:19:48Z</time>
      </trkpt>
      <trkpt lat="43.51312" lon="3.66114">
        <ele>88.58</ele>
        <time>2014-04-13T08:19:49Z</time>
      </trkpt>
      <trkpt lat="43.51303" lon="3.66091">
        <ele>90.02</ele>
        <time>2014-04-13T08:19:50Z</time>
      </trkpt>
      <trkpt lat="43.51292" lon="3.6607">
        <ele>90.98</ele>
        <time>2014-04-13T08:19:51Z</time>
      </trkpt>
      <trkpt lat="43.51282" lon="3.66048">
        <ele>91.46</ele>
        <time>2014-04-13T08:19:52Z</time>
      </trkpt>
      <trkpt lat="43.51174" lon="3.65789">
        <ele>85.69</ele>
        <time>2014-04-13T08:20:03Z</time>
      </trkpt>
      <trkpt lat="43.5113" lon="3.65571">
        <ele>86.18</ele>
        <time>2014-04-13T08:20:11Z</time>
      </trkpt>
      <trkpt lat="43.51124" lon="3.65544">
        <ele>86.66</ele>
        <time>2014-04-13T08:20:12Z</time>
      </trkpt>
      <trkpt lat="43.51115" lon="3.65518">
        <ele>87.14</ele>
        <time>2014-04-13T08:20:13Z</time>
      </trkpt>
      <trkpt lat="43.51104" lon="3.65494">
        <ele>87.14</ele>
        <time>2014-04-13T08:20:14Z</time>
      </trkpt>
      <trkpt lat="43.51093" lon="3.6547">
        <ele>87.14</ele>
        <time>2014-04-13T08:20:15Z</time>
      </trkpt>
      <trkpt lat="43.51084" lon="3.65444">
        <ele>87.14</ele>
        <time>2014-04-13T08:20:16Z</time>
      </trkpt>
      <trkpt lat="43.5108" lon="3.65416">
        <ele>87.14</ele>
        <time>2014-04-13T08:20:17Z</time>
      </trkpt>
      <trkpt lat="43.51078" lon="3.65388">
        <ele>87.14</ele>
        <time>2014-04-13T08:20:18Z</time>
      </trkpt>
      <trkpt lat="43.51079" lon="3.65361">
        <ele>87.14</ele>
        <time>2014-04-13T08:20:19Z</time>
      </trkpt>
      <trkpt lat="43.51081" lon="3.65334">
        <ele>87.14</ele>
        <time>2014-04-13T08:20:20Z</time>
      </trkpt>
      <trkpt lat="43.5108" lon="3.65255">
        <ele>87.62</ele>
        <time>2014-04-13T08:20:23Z</time>
      </trkpt>
      <trkpt lat="43.51076" lon="3.65229">
        <ele>88.1</ele>
        <time>2014-04-13T08:20:24Z</time>
      </trkpt>
      <trkpt lat="43.51069" lon="3.65203">
        <ele>88.58</ele>
        <time>2014-04-13T08:20:25Z</time>
      </trkpt>
      <trkpt lat="43.5106" lon="3.65179">
        <ele>89.06</ele>
        <time>2014-04-13T08:20:26Z</time>
      </trkpt>
      <trkpt lat="43.5105" lon="3.65155">
        <ele>90.02</ele>
        <time>2014-04-13T08:20:27Z</time>
      </trkpt>
      <trkpt lat="43.51037" lon="3.65133">
        <ele>90.02</ele>
        <time>2014-04-13T08:20:28Z</time>
      </trkpt>
      <trkpt lat="43.51004" lon="3.65064">
        <ele>91.46</ele>
        <time>2014-04-13T08:20:31Z</time>
      </trkpt>
      <trkpt lat="43.50996" lon="3.65039">
        <ele>91.94</ele>
        <time>2014-04-13T08:20:32Z</time>
      </trkpt>
      <trkpt lat="43.5099" lon="3.65012">
        <ele>91.94</ele>
        <time>2014-04-13T08:20:33Z</time>
      </trkpt>
      <trkpt lat="43.50987" lon="3.64985">
        <ele>92.42</ele>
        <time>2014-04-13T08:20:34Z</time>
      </trkpt>
      <trkpt lat="43.50986" lon="3.64958">
        <ele>92.9</ele>
        <time>2014-04-13T08:20:35Z</time>
      </trkpt>
      <trkpt lat="43.50988" lon="3.64931">
        <ele>92.9</ele>
        <time>2014-04-13T08:20:36Z</time>
      </trkpt>
      <trkpt lat="43.50991" lon="3.64904">
        <ele>93.39</ele>
        <time>2014-04-13T08:20:37Z</time>
      </trkpt>
      <trkpt lat="43.50997" lon="3.64878">
        <ele>93.87</ele>
        <time>2014-04-13T08:20:38Z</time>
      </trkpt>
      <trkpt lat="43.51004" lon="3.64852">
        <ele>94.83</ele>
        <time>2014-04-13T08:20:39Z</time>
      </trkpt>
      <trkpt lat="43.51013" lon="3.64828">
        <ele>95.79</ele>
        <time>2014-04-13T08:20:40Z</time>
      </trkpt>
      <trkpt lat="43.51023" lon="3.64804">
        <ele>96.75</ele>
        <time>2014-04-13T08:20:41Z</time>
      </trkpt>
      <trkpt lat="43.51038" lon="3.64752">
        <ele>98.67</ele>
        <time>2014-04-13T08:20:43Z</time>
      </trkpt>
      <trkpt lat="43.51042" lon="3.64725">
        <ele>99.63</ele>
        <time>2014-04-13T08:20:44Z</time>
      </trkpt>
      <trkpt lat="43.51045" lon="3.64697">
        <ele>101.08</ele>
        <time>2014-04-13T08:20:45Z</time>
      </trkpt>
      <trkpt lat="43.51046" lon="3.64669">
        <ele>102.52</ele>
        <time>2014-04-13T08:20:46Z</time>
      </trkpt>
      <trkpt lat="43.51046" lon="3.64641">
        <ele>103.48</ele>
        <time>2014-04-13T08:20:47Z</time>
      </trkpt>
      <trkpt lat="43.51022" lon="3.64395">
        <ele>109.73</ele>
        <time>2014-04-13T08:20:56Z</time>
      </trkpt>
      <trkpt lat="43.51011" lon="3.64327">
        <ele>110.69</ele>
        <time>2014-04-13T08:20:58Z</time>
      </trkpt>
      <trkpt lat="43.5101" lon="3.64286">
        <ele>111.17</ele>
        <time>2014-04-13T08:20:59Z</time>
      </trkpt>
      <trkpt lat="43.51012" lon="3.64243">
        <ele>112.13</ele>
        <time>2014-04-13T08:21:00Z</time>
      </trkpt>
      <trkpt lat="43.51029" lon="3.63952">
        <ele>117.9</ele>
        <time>2014-04-13T08:21:07Z</time>
      </trkpt>
      <trkpt lat="43.51039" lon="3.6368">
        <ele>121.74</ele>
        <time>2014-04-13T08:21:15Z</time>
      </trkpt>
      <trkpt lat="43.51037" lon="3.63653">
        <ele>121.26</ele>
        <time>2014-04-13T08:21:16Z</time>
      </trkpt>
      <trkpt lat="43.51029" lon="3.63628">
        <ele>120.78</ele>
        <time>2014-04-13T08:21:17Z</time>
      </trkpt>
      <trkpt lat="43.51018" lon="3.63603">
        <ele>119.82</ele>
        <time>2014-04-13T08:21:18Z</time>
      </trkpt>
      <trkpt lat="43.51004" lon="3.63579">
        <ele>118.86</ele>
        <time>2014-04-13T08:21:19Z</time>
      </trkpt>
      <trkpt lat="43.50988" lon="3.6356">
        <ele>116.94</ele>
        <time>2014-04-13T08:21:20Z</time>
      </trkpt>
      <trkpt lat="43.50969" lon="3.63542">
        <ele>115.01</ele>
        <time>2014-04-13T08:21:21Z</time>
      </trkpt>
      <trkpt lat="43.50948" lon="3.6353">
        <ele>113.09</ele>
        <time>2014-04-13T08:21:22Z</time>
      </trkpt>
      <trkpt lat="43.50926" lon="3.63521">
        <ele>110.69</ele>
        <time>2014-04-13T08:21:23Z</time>
      </trkpt>
      <trkpt lat="43.50901" lon="3.63516">
        <ele>108.77</ele>
        <time>2014-04-13T08:21:24Z</time>
      </trkpt>
      <trkpt lat="43.50877" lon="3.63513">
        <ele>107.32</ele>
        <time>2014-04-13T08:21:25Z</time>
      </trkpt>
      <trkpt lat="43.50852" lon="3.6351">
        <ele>104.44</ele>
        <time>2014-04-13T08:21:26Z</time>
      </trkpt>
      <trkpt lat="43.50806" lon="3.63498">
        <ele>100.11</ele>
        <time>2014-04-13T08:21:28Z</time>
      </trkpt>
      <trkpt lat="43.50784" lon="3.63485">
        <ele>98.19</ele>
        <time>2014-04-13T08:21:29Z</time>
      </trkpt>
      <trkpt lat="43.50763" lon="3.63467">
        <ele>96.27</ele>
        <time>2014-04-13T08:21:30Z</time>
      </trkpt>
      <trkpt lat="43.50743" lon="3.63445">
        <ele>94.35</ele>
        <time>2014-04-13T08:21:31Z</time>
      </trkpt>
      <trkpt lat="43.50723" lon="3.63422">
        <ele>92.9</ele>
        <time>2014-04-13T08:21:32Z</time>
      </trkpt>
      <trkpt lat="43.50704" lon="3.63398">
        <ele>91.46</ele>
        <time>2014-04-13T08:21:33Z</time>
      </trkpt>
      <trkpt lat="43.50404" lon="3.63009">
        <ele>80.41</ele>
        <time>2014-04-13T08:21:49Z</time>
      </trkpt>
      <trkpt lat="43.50186" lon="3.62706">
        <ele>72.72</ele>
        <time>2014-04-13T08:22:01Z</time>
      </trkpt>
      <trkpt lat="43.50178" lon="3.62675">
        <ele>71.27</ele>
        <time>2014-04-13T08:22:02Z</time>
      </trkpt>
      <trkpt lat="43.50172" lon="3.62641">
        <ele>69.83</ele>
        <time>2014-04-13T08:22:03Z</time>
      </trkpt>
      <trkpt lat="43.50168" lon="3.62606">
        <ele>68.39</ele>
        <time>2014-04-13T08:22:04Z</time>
      </trkpt>
      <trkpt lat="43.50166" lon="3.6257">
        <ele>66.47</ele>
        <time>2014-04-13T08:22:05Z</time>
      </trkpt>
      <trkpt lat="43.50165" lon="3.62535">
        <ele>64.55</ele>
        <time>2014-04-13T08:22:06Z</time>
      </trkpt>
      <trkpt lat="43.50139" lon="3.62271">
        <ele>56.86</ele>
        <time>2014-04-13T08:22:14Z</time>
      </trkpt>
      <trkpt lat="43.50128" lon="3.62207">
        <ele>54.45</ele>
        <time>2014-04-13T08:22:16Z</time>
      </trkpt>
      <trkpt lat="43.50127" lon="3.62174">
        <ele>53.49</ele>
        <time>2014-04-13T08:22:17Z</time>
      </trkpt>
      <trkpt lat="43.50127" lon="3.62141">
        <ele>52.53</ele>
        <time>2014-04-13T08:22:18Z</time>
      </trkpt>
      <trkpt lat="43.50161" lon="3.61847">
        <ele>43.88</ele>
        <time>2014-04-13T08:22:27Z</time>
      </trkpt>
      <trkpt lat="43.50164" lon="3.61676">
        <ele>42.44</ele>
        <time>2014-04-13T08:22:33Z</time>
      </trkpt>
      <trkpt lat="43.50146" lon="3.6154">
        <ele>41.95</ele>
        <time>2014-04-13T08:22:39Z</time>
      </trkpt>
      <trkpt lat="43.50146" lon="3.61524">
        <ele>42.44</ele>
        <time>2014-04-13T08:22:40Z</time>
      </trkpt>
      <trkpt lat="43.50147" lon="3.61511">
        <ele>42.92</ele>
        <time>2014-04-13T08:22:41Z</time>
      </trkpt>
      <trkpt lat="43.50149" lon="3.615">
        <ele>42.92</ele>
        <time>2014-04-13T08:22:42Z</time>
      </trkpt>
      <trkpt lat="43.50153" lon="3.61481">
        <ele>42.92</ele>
        <time>2014-04-13T08:22:44Z</time>
      </trkpt>
      <trkpt lat="43.50153" lon="3.61471">
        <ele>42.92</ele>
        <time>2014-04-13T08:22:45Z</time>
      </trkpt>
      <trkpt lat="43.50147" lon="3.61464">
        <ele>42.92</ele>
        <time>2014-04-13T08:22:46Z</time>
      </trkpt>
      <trkpt lat="43.5014" lon="3.6146">
        <ele>42.44</ele>
        <time>2014-04-13T08:22:47Z</time>
      </trkpt>
      <trkpt lat="43.50131" lon="3.61457">
        <ele>42.44</ele>
        <time>2014-04-13T08:22:48Z</time>
      </trkpt>
      <trkpt lat="43.50122" lon="3.61453">
        <ele>42.44</ele>
        <time>2014-04-13T08:22:49Z</time>
      </trkpt>
      <trkpt lat="43.50113" lon="3.61444">
        <ele>41.95</ele>
        <time>2014-04-13T08:22:50Z</time>
      </trkpt>
      <trkpt lat="43.50104" lon="3.61432">
        <ele>41.95</ele>
        <time>2014-04-13T08:22:51Z</time>
      </trkpt>
      <trkpt lat="43.50096" lon="3.61418">
        <ele>41.47</ele>
        <time>2014-04-13T08:22:52Z</time>
      </trkpt>
      <trkpt lat="43.50087" lon="3.61402">
        <ele>41.95</ele>
        <time>2014-04-13T08:22:53Z</time>
      </trkpt>
      <trkpt lat="43.5008" lon="3.61384">
        <ele>41.95</ele>
        <time>2014-04-13T08:22:54Z</time>
      </trkpt>
      <trkpt lat="43.50073" lon="3.61366">
        <ele>42.44</ele>
        <time>2014-04-13T08:22:55Z</time>
      </trkpt>
      <trkpt lat="43.50067" lon="3.61347">
        <ele>42.44</ele>
        <time>2014-04-13T08:22:56Z</time>
      </trkpt>
      <trkpt lat="43.50034" lon="3.61242">
        <ele>43.4</ele>
        <time>2014-04-13T08:23:02Z</time>
      </trkpt>
      <trkpt lat="43.49957" lon="3.61035">
        <ele>47.72</ele>
        <time>2014-04-13T08:23:14Z</time>
      </trkpt>
      <trkpt lat="43.499" lon="3.60805">
        <ele>55.41</ele>
        <time>2014-04-13T08:23:27Z</time>
      </trkpt>
      <trkpt lat="43.49899" lon="3.60774">
        <ele>56.86</ele>
        <time>2014-04-13T08:23:29Z</time>
      </trkpt>
      <trkpt lat="43.499" lon="3.60759">
        <ele>57.34</ele>
        <time>2014-04-13T08:23:30Z</time>
      </trkpt>
      <trkpt lat="43.49918" lon="3.60623">
        <ele>65.03</ele>
        <time>2014-04-13T08:23:41Z</time>
      </trkpt>
      <trkpt lat="43.49927" lon="3.60595">
        <ele>65.03</ele>
        <time>2014-04-13T08:23:44Z</time>
      </trkpt>
      <trkpt lat="43.4993" lon="3.60586">
        <ele>65.51</ele>
        <time>2014-04-13T08:23:45Z</time>
      </trkpt>
      <trkpt lat="43.49935" lon="3.60577">
        <ele>65.99</ele>
        <time>2014-04-13T08:23:46Z</time>
      </trkpt>
      <trkpt lat="43.4994" lon="3.60571">
        <ele>65.99</ele>
        <time>2014-04-13T08:23:47Z</time>
      </trkpt>
      <trkpt lat="43.49946" lon="3.60565">
        <ele>65.99</ele>
        <time>2014-04-13T08:23:48Z</time>
      </trkpt>
      <trkpt lat="43.50017" lon="3.60485">
        <ele>61.18</ele>
        <time>2014-04-13T08:23:59Z</time>
      </trkpt>
      <trkpt lat="43.50042" lon="3.60457">
        <ele>55.89</ele>
        <time>2014-04-13T08:24:07Z</time>
      </trkpt>
      <trkpt lat="43.50042" lon="3.60455">
        <ele>55.41</ele>
        <time>2014-04-13T08:24:08Z</time>
      </trkpt>
      <trkpt lat="43.50042" lon="3.60451">
        <ele>54.93</ele>
        <time>2014-04-13T08:24:09Z</time>
      </trkpt>
      <trkpt lat="43.50039" lon="3.60447">
        <ele>54.45</ele>
        <time>2014-04-13T08:24:10Z</time>
      </trkpt>
      <trkpt lat="43.50037" lon="3.60442">
        <ele>53.97</ele>
        <time>2014-04-13T08:24:11Z</time>
      </trkpt>
      <trkpt lat="43.50034" lon="3.60436">
        <ele>53.97</ele>
        <time>2014-04-13T08:24:12Z</time>
      </trkpt>
      <trkpt lat="43.50031" lon="3.60428">
        <ele>53.49</ele>
        <time>2014-04-13T08:24:13Z</time>
      </trkpt>
      <trkpt lat="43.50014" lon="3.60368">
        <ele>53.49</ele>
        <time>2014-04-13T08:24:22Z</time>
      </trkpt>
      <trkpt lat="43.50013" lon="3.60362">
        <ele>53.49</ele>
        <time>2014-04-13T08:24:23Z</time>
      </trkpt>
      <trkpt lat="43.50012" lon="3.60357">
        <ele>53.01</ele>
        <time>2014-04-13T08:24:24Z</time>
      </trkpt>
      <trkpt lat="43.50011" lon="3.60354">
        <ele>53.01</ele>
        <time>2014-04-13T08:24:25Z</time>
      </trkpt>
      <trkpt lat="43.50009" lon="3.60358">
        <ele>53.97</ele>
        <time>2014-04-13T08:24:38Z</time>
      </trkpt>
      <trkpt lat="43.50001" lon="3.60328">
        <ele>54.93</ele>
        <time>2014-04-13T08:24:54Z</time>
      </trkpt>
      <trkpt lat="43.49999" lon="3.60317">
        <ele>53.97</ele>
        <time>2014-04-13T08:24:55Z</time>
      </trkpt>
      <trkpt lat="43.49997" lon="3.60305">
        <ele>53.49</ele>
        <time>2014-04-13T08:24:56Z</time>
      </trkpt>
      <trkpt lat="43.49997" lon="3.60292">
        <ele>53.01</ele>
        <time>2014-04-13T08:24:57Z</time>
      </trkpt>
      <trkpt lat="43.49997" lon="3.60277">
        <ele>52.53</ele>
        <time>2014-04-13T08:24:58Z</time>
      </trkpt>
      <trkpt lat="43.49998" lon="3.60261">
        <ele>51.57</ele>
        <time>2014-04-13T08:24:59Z</time>
      </trkpt>
      <trkpt lat="43.50001" lon="3.60246">
        <ele>51.09</ele>
        <time>2014-04-13T08:25:00Z</time>
      </trkpt>
      <trkpt lat="43.50003" lon="3.6023">
        <ele>50.13</ele>
        <time>2014-04-13T08:25:01Z</time>
      </trkpt>
      <trkpt lat="43.50008" lon="3.60166">
        <ele>49.16</ele>
        <time>2014-04-13T08:25:05Z</time>
      </trkpt>
      <trkpt lat="43.50007" lon="3.60149">
        <ele>49.16</ele>
        <time>2014-04-13T08:25:06Z</time>
      </trkpt>
      <trkpt lat="43.50005" lon="3.60133">
        <ele>48.68</ele>
        <time>2014-04-13T08:25:07Z</time>
      </trkpt>
      <trkpt lat="43.49989" lon="3.60048">
        <ele>48.68</ele>
        <time>2014-04-13T08:25:14Z</time>
      </trkpt>
      <trkpt lat="43.49975" lon="3.59955">
        <ele>48.2</ele>
        <time>2014-04-13T08:25:22Z</time>
      </trkpt>
      <trkpt lat="43.49952" lon="3.59835">
        <ele>46.28</ele>
        <time>2014-04-13T08:25:31Z</time>
      </trkpt>
      <trkpt lat="43.49924" lon="3.59714">
        <ele>44.84</ele>
        <time>2014-04-13T08:25:40Z</time>
      </trkpt>
      <trkpt lat="43.49883" lon="3.59508">
        <ele>46.76</ele>
        <time>2014-04-13T08:25:52Z</time>
      </trkpt>
      <trkpt lat="43.49845" lon="3.59301">
        <ele>52.05</ele>
        <time>2014-04-13T08:26:02Z</time>
      </trkpt>
      <trkpt lat="43.49847" lon="3.59148">
        <ele>57.82</ele>
        <time>2014-04-13T08:26:10Z</time>
      </trkpt>
      <trkpt lat="43.49848" lon="3.59135">
        <ele>58.3</ele>
        <time>2014-04-13T08:26:11Z</time>
      </trkpt>
      <trkpt lat="43.4985" lon="3.59122">
        <ele>58.78</ele>
        <time>2014-04-13T08:26:12Z</time>
      </trkpt>
      <trkpt lat="43.49854" lon="3.59109">
        <ele>58.78</ele>
        <time>2014-04-13T08:26:13Z</time>
      </trkpt>
      <trkpt lat="43.49856" lon="3.59096">
        <ele>59.26</ele>
        <time>2014-04-13T08:26:14Z</time>
      </trkpt>
      <trkpt lat="43.49856" lon="3.59084">
        <ele>59.26</ele>
        <time>2014-04-13T08:26:15Z</time>
      </trkpt>
      <trkpt lat="43.49852" lon="3.59072">
        <ele>59.26</ele>
        <time>2014-04-13T08:26:16Z</time>
      </trkpt>
      <trkpt lat="43.49843" lon="3.59064">
        <ele>59.26</ele>
        <time>2014-04-13T08:26:17Z</time>
      </trkpt>
      <trkpt lat="43.49833" lon="3.59057">
        <ele>58.78</ele>
        <time>2014-04-13T08:26:18Z</time>
      </trkpt>
      <trkpt lat="43.49823" lon="3.59046">
        <ele>58.78</ele>
        <time>2014-04-13T08:26:19Z</time>
      </trkpt>
      <trkpt lat="43.49815" lon="3.59031">
        <ele>58.78</ele>
        <time>2014-04-13T08:26:20Z</time>
      </trkpt>
      <trkpt lat="43.49808" lon="3.59014">
        <ele>58.78</ele>
        <time>2014-04-13T08:26:21Z</time>
      </trkpt>
      <trkpt lat="43.49801" lon="3.58995">
        <ele>58.78</ele>
        <time>2014-04-13T08:26:22Z</time>
      </trkpt>
      <trkpt lat="43.49756" lon="3.58811">
        <ele>58.78</ele>
        <time>2014-04-13T08:26:30Z</time>
      </trkpt>
      <trkpt lat="43.49727" lon="3.58662">
        <ele>56.86</ele>
        <time>2014-04-13T08:26:35Z</time>
      </trkpt>
      <trkpt lat="43.49718" lon="3.58634">
        <ele>56.86</ele>
        <time>2014-04-13T08:26:36Z</time>
      </trkpt>
      <trkpt lat="43.49706" lon="3.58607">
        <ele>56.86</ele>
        <time>2014-04-13T08:26:37Z</time>
      </trkpt>
      <trkpt lat="43.49583" lon="3.58408">
        <ele>59.26</ele>
        <time>2014-04-13T08:26:45Z</time>
      </trkpt>
      <trkpt lat="43.49521" lon="3.5832">
        <ele>56.37</ele>
        <time>2014-04-13T08:26:49Z</time>
      </trkpt>
      <trkpt lat="43.4947" lon="3.58262">
        <ele>53.49</ele>
        <time>2014-04-13T08:26:52Z</time>
      </trkpt>
      <trkpt lat="43.49455" lon="3.58239">
        <ele>52.53</ele>
        <time>2014-04-13T08:26:53Z</time>
      </trkpt>
      <trkpt lat="43.49442" lon="3.58213">
        <ele>51.57</ele>
        <time>2014-04-13T08:26:54Z</time>
      </trkpt>
      <trkpt lat="43.49334" lon="3.57998">
        <ele>47.72</ele>
        <time>2014-04-13T08:27:02Z</time>
      </trkpt>
      <trkpt lat="43.49218" lon="3.57746">
        <ele>55.41</ele>
        <time>2014-04-13T08:27:11Z</time>
      </trkpt>
      <trkpt lat="43.49099" lon="3.5746">
        <ele>59.74</ele>
        <time>2014-04-13T08:27:21Z</time>
      </trkpt>
      <trkpt lat="43.48957" lon="3.57124">
        <ele>62.62</ele>
        <time>2014-04-13T08:27:34Z</time>
      </trkpt>
      <trkpt lat="43.48817" lon="3.56841">
        <ele>63.58</ele>
        <time>2014-04-13T08:27:45Z</time>
      </trkpt>
      <trkpt lat="43.48667" lon="3.56532">
        <ele>71.27</ele>
        <time>2014-04-13T08:27:57Z</time>
      </trkpt>
      <trkpt lat="43.48577" lon="3.56327">
        <ele>74.16</ele>
        <time>2014-04-13T08:28:08Z</time>
      </trkpt>
      <trkpt lat="43.4857" lon="3.56306">
        <ele>74.64</ele>
        <time>2014-04-13T08:28:09Z</time>
      </trkpt>
      <trkpt lat="43.48564" lon="3.56282">
        <ele>74.64</ele>
        <time>2014-04-13T08:28:10Z</time>
      </trkpt>
      <trkpt lat="43.4856" lon="3.56256">
        <ele>74.16</ele>
        <time>2014-04-13T08:28:11Z</time>
      </trkpt>
      <trkpt lat="43.48558" lon="3.56228">
        <ele>74.16</ele>
        <time>2014-04-13T08:28:12Z</time>
      </trkpt>
      <trkpt lat="43.48559" lon="3.56198">
        <ele>74.16</ele>
        <time>2014-04-13T08:28:13Z</time>
      </trkpt>
      <trkpt lat="43.48563" lon="3.56167">
        <ele>74.64</ele>
        <time>2014-04-13T08:28:14Z</time>
      </trkpt>
      <trkpt lat="43.48568" lon="3.56136">
        <ele>75.12</ele>
        <time>2014-04-13T08:28:15Z</time>
      </trkpt>
      <trkpt lat="43.48596" lon="3.55952">
        <ele>81.37</ele>
        <time>2014-04-13T08:28:22Z</time>
      </trkpt>
      <trkpt lat="43.48597" lon="3.55886">
        <ele>83.77</ele>
        <time>2014-04-13T08:28:25Z</time>
      </trkpt>
      <trkpt lat="43.48594" lon="3.55866">
        <ele>84.73</ele>
        <time>2014-04-13T08:28:26Z</time>
      </trkpt>
      <trkpt lat="43.4859" lon="3.55846">
        <ele>85.69</ele>
        <time>2014-04-13T08:28:27Z</time>
      </trkpt>
      <trkpt lat="43.48583" lon="3.55827">
        <ele>86.18</ele>
        <time>2014-04-13T08:28:28Z</time>
      </trkpt>
      <trkpt lat="43.48576" lon="3.55809">
        <ele>86.66</ele>
        <time>2014-04-13T08:28:29Z</time>
      </trkpt>
      <trkpt lat="43.48566" lon="3.55791">
        <ele>86.66</ele>
        <time>2014-04-13T08:28:30Z</time>
      </trkpt>
      <trkpt lat="43.48554" lon="3.55775">
        <ele>86.18</ele>
        <time>2014-04-13T08:28:31Z</time>
      </trkpt>
      <trkpt lat="43.4854" lon="3.55759">
        <ele>85.69</ele>
        <time>2014-04-13T08:28:32Z</time>
      </trkpt>
      <trkpt lat="43.48471" lon="3.55665">
        <ele>85.21</ele>
        <time>2014-04-13T08:28:37Z</time>
      </trkpt>
      <trkpt lat="43.48459" lon="3.5564">
        <ele>85.69</ele>
        <time>2014-04-13T08:28:38Z</time>
      </trkpt>
      <trkpt lat="43.48449" lon="3.55613">
        <ele>85.69</ele>
        <time>2014-04-13T08:28:39Z</time>
      </trkpt>
      <trkpt lat="43.4844" lon="3.55583">
        <ele>85.69</ele>
        <time>2014-04-13T08:28:40Z</time>
      </trkpt>
      <trkpt lat="43.48432" lon="3.5555">
        <ele>86.18</ele>
        <time>2014-04-13T08:28:41Z</time>
      </trkpt>
      <trkpt lat="43.48387" lon="3.55365">
        <ele>90.98</ele>
        <time>2014-04-13T08:28:47Z</time>
      </trkpt>
      <trkpt lat="43.48378" lon="3.55311">
        <ele>93.87</ele>
        <time>2014-04-13T08:28:49Z</time>
      </trkpt>
      <trkpt lat="43.48377" lon="3.55284">
        <ele>95.31</ele>
        <time>2014-04-13T08:28:50Z</time>
      </trkpt>
      <trkpt lat="43.48378" lon="3.55257">
        <ele>97.23</ele>
        <time>2014-04-13T08:28:51Z</time>
      </trkpt>
      <trkpt lat="43.48378" lon="3.55144">
        <ele>103.96</ele>
        <time>2014-04-13T08:28:55Z</time>
      </trkpt>
      <trkpt lat="43.48374" lon="3.55115">
        <ele>105.4</ele>
        <time>2014-04-13T08:28:56Z</time>
      </trkpt>
      <trkpt lat="43.48367" lon="3.55087">
        <ele>106.84</ele>
        <time>2014-04-13T08:28:57Z</time>
      </trkpt>
      <trkpt lat="43.483" lon="3.54876">
        <ele>119.82</ele>
        <time>2014-04-13T08:29:05Z</time>
      </trkpt>
      <trkpt lat="43.48295" lon="3.54847">
        <ele>121.26</ele>
        <time>2014-04-13T08:29:06Z</time>
      </trkpt>
      <trkpt lat="43.48294" lon="3.54817">
        <ele>122.71</ele>
        <time>2014-04-13T08:29:07Z</time>
      </trkpt>
      <trkpt lat="43.48294" lon="3.54787">
        <ele>123.67</ele>
        <time>2014-04-13T08:29:08Z</time>
      </trkpt>
      <trkpt lat="43.48297" lon="3.54757">
        <ele>124.63</ele>
        <time>2014-04-13T08:29:09Z</time>
      </trkpt>
      <trkpt lat="43.48302" lon="3.54727">
        <ele>125.11</ele>
        <time>2014-04-13T08:29:10Z</time>
      </trkpt>
      <trkpt lat="43.4831" lon="3.54698">
        <ele>125.59</ele>
        <time>2014-04-13T08:29:11Z</time>
      </trkpt>
      <trkpt lat="43.48319" lon="3.5467">
        <ele>124.63</ele>
        <time>2014-04-13T08:29:12Z</time>
      </trkpt>
      <trkpt lat="43.48329" lon="3.54643">
        <ele>124.15</ele>
        <time>2014-04-13T08:29:13Z</time>
      </trkpt>
      <trkpt lat="43.4837" lon="3.54505">
        <ele>121.74</ele>
        <time>2014-04-13T08:29:18Z</time>
      </trkpt>
      <trkpt lat="43.48373" lon="3.54476">
        <ele>122.22</ele>
        <time>2014-04-13T08:29:19Z</time>
      </trkpt>
      <trkpt lat="43.48375" lon="3.54447">
        <ele>122.71</ele>
        <time>2014-04-13T08:29:20Z</time>
      </trkpt>
      <trkpt lat="43.48376" lon="3.54417">
        <ele>123.67</ele>
        <time>2014-04-13T08:29:21Z</time>
      </trkpt>
      <trkpt lat="43.48374" lon="3.54387">
        <ele>125.11</ele>
        <time>2014-04-13T08:29:22Z</time>
      </trkpt>
      <trkpt lat="43.48369" lon="3.54357">
        <ele>126.07</ele>
        <time>2014-04-13T08:29:23Z</time>
      </trkpt>
      <trkpt lat="43.48362" lon="3.54327">
        <ele>127.03</ele>
        <time>2014-04-13T08:29:24Z</time>
      </trkpt>
      <trkpt lat="43.48354" lon="3.54297">
        <ele>127.03</ele>
        <time>2014-04-13T08:29:25Z</time>
      </trkpt>
      <trkpt lat="43.4824" lon="3.53885">
        <ele>131.84</ele>
        <time>2014-04-13T08:29:39Z</time>
      </trkpt>
      <trkpt lat="43.4822" lon="3.53697">
        <ele>130.4</ele>
        <time>2014-04-13T08:29:45Z</time>
      </trkpt>
      <trkpt lat="43.48233" lon="3.53391">
        <ele>133.28</ele>
        <time>2014-04-13T08:29:55Z</time>
      </trkpt>
      <trkpt lat="43.48302" lon="3.53077">
        <ele>138.09</ele>
        <time>2014-04-13T08:30:05Z</time>
      </trkpt>
      <trkpt lat="43.48311" lon="3.53047">
        <ele>138.09</ele>
        <time>2014-04-13T08:30:06Z</time>
      </trkpt>
      <trkpt lat="43.48323" lon="3.53017">
        <ele>138.09</ele>
        <time>2014-04-13T08:30:07Z</time>
      </trkpt>
      <trkpt lat="43.48506" lon="3.5261">
        <ele>127.99</ele>
        <time>2014-04-13T08:30:21Z</time>
      </trkpt>
      <trkpt lat="43.48632" lon="3.52354">
        <ele>125.11</ele>
        <time>2014-04-13T08:30:30Z</time>
      </trkpt>
      <trkpt lat="43.48739" lon="3.51992">
        <ele>112.13</ele>
        <time>2014-04-13T08:30:41Z</time>
      </trkpt>
      <trkpt lat="43.48779" lon="3.51807">
        <ele>109.25</ele>
        <time>2014-04-13T08:30:47Z</time>
      </trkpt>
      <trkpt lat="43.48778" lon="3.51573">
        <ele>108.29</ele>
        <time>2014-04-13T08:30:54Z</time>
      </trkpt>
      <trkpt lat="43.48731" lon="3.51255">
        <ele>101.56</ele>
        <time>2014-04-13T08:31:04Z</time>
      </trkpt>
      <trkpt lat="43.48734" lon="3.51034">
        <ele>101.08</ele>
        <time>2014-04-13T08:31:11Z</time>
      </trkpt>
      <trkpt lat="43.48742" lon="3.50911">
        <ele>100.6</ele>
        <time>2014-04-13T08:31:15Z</time>
      </trkpt>
      <trkpt lat="43.48739" lon="3.50881">
        <ele>100.11</ele>
        <time>2014-04-13T08:31:16Z</time>
      </trkpt>
      <trkpt lat="43.48716" lon="3.50667">
        <ele>95.31</ele>
        <time>2014-04-13T08:31:23Z</time>
      </trkpt>
      <trkpt lat="43.48717" lon="3.50635">
        <ele>95.31</ele>
        <time>2014-04-13T08:31:24Z</time>
      </trkpt>
      <trkpt lat="43.48764" lon="3.50226">
        <ele>90.98</ele>
        <time>2014-04-13T08:31:36Z</time>
      </trkpt>
      <trkpt lat="43.4879" lon="3.49921">
        <ele>83.77</ele>
        <time>2014-04-13T08:31:45Z</time>
      </trkpt>
      <trkpt lat="43.48795" lon="3.49822">
        <ele>81.37</ele>
        <time>2014-04-13T08:31:48Z</time>
      </trkpt>
      <trkpt lat="43.48793" lon="3.4979">
        <ele>80.41</ele>
        <time>2014-04-13T08:31:49Z</time>
      </trkpt>
      <trkpt lat="43.48779" lon="3.49541">
        <ele>71.27</ele>
        <time>2014-04-13T08:31:57Z</time>
      </trkpt>
      <trkpt lat="43.48783" lon="3.49512">
        <ele>69.83</ele>
        <time>2014-04-13T08:31:58Z</time>
      </trkpt>
      <trkpt lat="43.48791" lon="3.49486">
        <ele>68.87</ele>
        <time>2014-04-13T08:31:59Z</time>
      </trkpt>
      <trkpt lat="43.488" lon="3.49463">
        <ele>68.39</ele>
        <time>2014-04-13T08:32:00Z</time>
      </trkpt>
      <trkpt lat="43.48809" lon="3.49441">
        <ele>67.43</ele>
        <time>2014-04-13T08:32:01Z</time>
      </trkpt>
      <trkpt lat="43.48819" lon="3.4942">
        <ele>66.95</ele>
        <time>2014-04-13T08:32:02Z</time>
      </trkpt>
      <trkpt lat="43.48835" lon="3.49379">
        <ele>65.51</ele>
        <time>2014-04-13T08:32:04Z</time>
      </trkpt>
      <trkpt lat="43.48837" lon="3.49357">
        <ele>64.55</ele>
        <time>2014-04-13T08:32:05Z</time>
      </trkpt>
      <trkpt lat="43.48835" lon="3.49335">
        <ele>63.58</ele>
        <time>2014-04-13T08:32:06Z</time>
      </trkpt>
      <trkpt lat="43.48829" lon="3.49311">
        <ele>63.1</ele>
        <time>2014-04-13T08:32:07Z</time>
      </trkpt>
      <trkpt lat="43.48818" lon="3.49285">
        <ele>62.14</ele>
        <time>2014-04-13T08:32:08Z</time>
      </trkpt>
      <trkpt lat="43.48807" lon="3.49258">
        <ele>61.18</ele>
        <time>2014-04-13T08:32:09Z</time>
      </trkpt>
      <trkpt lat="43.48795" lon="3.4923">
        <ele>59.74</ele>
        <time>2014-04-13T08:32:10Z</time>
      </trkpt>
      <trkpt lat="43.48654" lon="3.48926">
        <ele>53.01</ele>
        <time>2014-04-13T08:32:21Z</time>
      </trkpt>
      <trkpt lat="43.48568" lon="3.48816">
        <ele>52.05</ele>
        <time>2014-04-13T08:32:27Z</time>
      </trkpt>
      <trkpt lat="43.48487" lon="3.48694">
        <ele>50.61</ele>
        <time>2014-04-13T08:32:36Z</time>
      </trkpt>
      <trkpt lat="43.48414" lon="3.48585">
        <ele>48.68</ele>
        <time>2014-04-13T08:32:46Z</time>
      </trkpt>
      <trkpt lat="43.48318" lon="3.48485">
        <ele>49.16</ele>
        <time>2014-04-13T08:32:57Z</time>
      </trkpt>
      <trkpt lat="43.48246" lon="3.48417">
        <ele>49.65</ele>
        <time>2014-04-13T08:33:07Z</time>
      </trkpt>
      <trkpt lat="43.48155" lon="3.48376">
        <ele>47.72</ele>
        <time>2014-04-13T08:33:18Z</time>
      </trkpt>
      <trkpt lat="43.48087" lon="3.48355">
        <ele>43.88</ele>
        <time>2014-04-13T08:33:29Z</time>
      </trkpt>
      <trkpt lat="43.48082" lon="3.48351">
        <ele>43.4</ele>
        <time>2014-04-13T08:33:30Z</time>
      </trkpt>
      <trkpt lat="43.48077" lon="3.48347">
        <ele>43.4</ele>
        <time>2014-04-13T08:33:31Z</time>
      </trkpt>
      <trkpt lat="43.48066" lon="3.48334">
        <ele>42.92</ele>
        <time>2014-04-13T08:33:33Z</time>
      </trkpt>
      <trkpt lat="43.48063" lon="3.48325">
        <ele>42.92</ele>
        <time>2014-04-13T08:33:34Z</time>
      </trkpt>
      <trkpt lat="43.48064" lon="3.48314">
        <ele>42.92</ele>
        <time>2014-04-13T08:33:35Z</time>
      </trkpt>
      <trkpt lat="43.48065" lon="3.48303">
        <ele>41.95</ele>
        <time>2014-04-13T08:33:36Z</time>
      </trkpt>
      <trkpt lat="43.48068" lon="3.48292">
        <ele>41.95</ele>
        <time>2014-04-13T08:33:37Z</time>
      </trkpt>
      <trkpt lat="43.48073" lon="3.48281">
        <ele>42.44</ele>
        <time>2014-04-13T08:33:38Z</time>
      </trkpt>
      <trkpt lat="43.48077" lon="3.48271">
        <ele>41.95</ele>
        <time>2014-04-13T08:33:39Z</time>
      </trkpt>
      <trkpt lat="43.48112" lon="3.48176">
        <ele>42.92</ele>
        <time>2014-04-13T08:33:49Z</time>
      </trkpt>
      <trkpt lat="43.48134" lon="3.48116">
        <ele>41.95</ele>
        <time>2014-04-13T08:33:57Z</time>
      </trkpt>
      <trkpt lat="43.48135" lon="3.48116">
        <ele>42.92</ele>
        <time>2014-04-13T08:34:08Z</time>
      </trkpt>
      <trkpt lat="43.48148" lon="3.48082">
        <ele>43.88</ele>
        <time>2014-04-13T08:34:39Z</time>
      </trkpt>
      <trkpt lat="43.4815" lon="3.48071">
        <ele>43.4</ele>
        <time>2014-04-13T08:34:40Z</time>
      </trkpt>
      <trkpt lat="43.48151" lon="3.48058">
        <ele>42.92</ele>
        <time>2014-04-13T08:34:41Z</time>
      </trkpt>
      <trkpt lat="43.48151" lon="3.48043">
        <ele>42.44</ele>
        <time>2014-04-13T08:34:42Z</time>
      </trkpt>
      <trkpt lat="43.48149" lon="3.48026">
        <ele>42.44</ele>
        <time>2014-04-13T08:34:43Z</time>
      </trkpt>
      <trkpt lat="43.48147" lon="3.48008">
        <ele>42.92</ele>
        <time>2014-04-13T08:34:44Z</time>
      </trkpt>
      <trkpt lat="43.48123" lon="3.47813">
        <ele>40.03</ele>
        <time>2014-04-13T08:34:53Z</time>
      </trkpt>
      <trkpt lat="43.48086" lon="3.47511">
        <ele>28.98</ele>
        <time>2014-04-13T08:35:06Z</time>
      </trkpt>
      <trkpt lat="43.4806" lon="3.47278">
        <ele>22.25</ele>
        <time>2014-04-13T08:35:14Z</time>
      </trkpt>
      <trkpt lat="43.48012" lon="3.46977">
        <ele>17.44</ele>
        <time>2014-04-13T08:35:24Z</time>
      </trkpt>
      <trkpt lat="43.4795" lon="3.46687">
        <ele>15.04</ele>
        <time>2014-04-13T08:35:34Z</time>
      </trkpt>
      <trkpt lat="43.47885" lon="3.46398">
        <ele>15.04</ele>
        <time>2014-04-13T08:35:44Z</time>
      </trkpt>
      <trkpt lat="43.4786" lon="3.46144">
        <ele>15.04</ele>
        <time>2014-04-13T08:35:52Z</time>
      </trkpt>
      <trkpt lat="43.47823" lon="3.45837">
        <ele>14.56</ele>
        <time>2014-04-13T08:36:02Z</time>
      </trkpt>
      <trkpt lat="43.47799" lon="3.45781">
        <ele>13.6</ele>
        <time>2014-04-13T08:36:04Z</time>
      </trkpt>
      <trkpt lat="43.47782" lon="3.45756">
        <ele>13.12</ele>
        <time>2014-04-13T08:36:05Z</time>
      </trkpt>
      <trkpt lat="43.47764" lon="3.45733">
        <ele>14.08</ele>
        <time>2014-04-13T08:36:06Z</time>
      </trkpt>
      <trkpt lat="43.47556" lon="3.45473">
        <ele>16.96</ele>
        <time>2014-04-13T08:36:18Z</time>
      </trkpt>
      <trkpt lat="43.47383" lon="3.45245">
        <ele>17.92</ele>
        <time>2014-04-13T08:36:29Z</time>
      </trkpt>
      <trkpt lat="43.47374" lon="3.4522">
        <ele>17.92</ele>
        <time>2014-04-13T08:36:30Z</time>
      </trkpt>
      <trkpt lat="43.47366" lon="3.45193">
        <ele>17.92</ele>
        <time>2014-04-13T08:36:31Z</time>
      </trkpt>
      <trkpt lat="43.47362" lon="3.45164">
        <ele>18.4</ele>
        <time>2014-04-13T08:36:32Z</time>
      </trkpt>
      <trkpt lat="43.47362" lon="3.45134">
        <ele>18.4</ele>
        <time>2014-04-13T08:36:33Z</time>
      </trkpt>
      <trkpt lat="43.47369" lon="3.45101">
        <ele>18.4</ele>
        <time>2014-04-13T08:36:34Z</time>
      </trkpt>
      <trkpt lat="43.47376" lon="3.4507">
        <ele>18.4</ele>
        <time>2014-04-13T08:36:35Z</time>
      </trkpt>
      <trkpt lat="43.47382" lon="3.45039">
        <ele>18.4</ele>
        <time>2014-04-13T08:36:36Z</time>
      </trkpt>
      <trkpt lat="43.47432" lon="3.44788">
        <ele>19.36</ele>
        <time>2014-04-13T08:36:45Z</time>
      </trkpt>
      <trkpt lat="43.47496" lon="3.44462">
        <ele>23.21</ele>
        <time>2014-04-13T08:36:58Z</time>
      </trkpt>
      <trkpt lat="43.47565" lon="3.44067">
        <ele>21.29</ele>
        <time>2014-04-13T08:37:14Z</time>
      </trkpt>
      <trkpt lat="43.47598" lon="3.4389">
        <ele>21.29</ele>
        <time>2014-04-13T08:37:23Z</time>
      </trkpt>
      <trkpt lat="43.47604" lon="3.43868">
        <ele>21.29</ele>
        <time>2014-04-13T08:37:25Z</time>
      </trkpt>
      <trkpt lat="43.47609" lon="3.43859">
        <ele>20.81</ele>
        <time>2014-04-13T08:37:26Z</time>
      </trkpt>
      <trkpt lat="43.47616" lon="3.43852">
        <ele>20.32</ele>
        <time>2014-04-13T08:37:27Z</time>
      </trkpt>
      <trkpt lat="43.4763" lon="3.43838">
        <ele>20.81</ele>
        <time>2014-04-13T08:37:29Z</time>
      </trkpt>
      <trkpt lat="43.47633" lon="3.43828">
        <ele>20.81</ele>
        <time>2014-04-13T08:37:30Z</time>
      </trkpt>
      <trkpt lat="43.47633" lon="3.43817">
        <ele>20.81</ele>
        <time>2014-04-13T08:37:31Z</time>
      </trkpt>
      <trkpt lat="43.4763" lon="3.43804">
        <ele>20.81</ele>
        <time>2014-04-13T08:37:32Z</time>
      </trkpt>
      <trkpt lat="43.47625" lon="3.43791">
        <ele>19.84</ele>
        <time>2014-04-13T08:37:33Z</time>
      </trkpt>
      <trkpt lat="43.47622" lon="3.43775">
        <ele>19.84</ele>
        <time>2014-04-13T08:37:34Z</time>
      </trkpt>
      <trkpt lat="43.47622" lon="3.43757">
        <ele>19.36</ele>
        <time>2014-04-13T08:37:35Z</time>
      </trkpt>
      <trkpt lat="43.47625" lon="3.43737">
        <ele>19.36</ele>
        <time>2014-04-13T08:37:36Z</time>
      </trkpt>
      <trkpt lat="43.4764" lon="3.43658">
        <ele>17.92</ele>
        <time>2014-04-13T08:37:42Z</time>
      </trkpt>
      <trkpt lat="43.47644" lon="3.4365">
        <ele>19.36</ele>
        <time>2014-04-13T08:37:51Z</time>
      </trkpt>
      <trkpt lat="43.47647" lon="3.43645">
        <ele>19.84</ele>
        <time>2014-04-13T08:37:53Z</time>
      </trkpt>
      <trkpt lat="43.47651" lon="3.43641">
        <ele>19.84</ele>
        <time>2014-04-13T08:37:54Z</time>
      </trkpt>
      <trkpt lat="43.47663" lon="3.43627">
        <ele>20.32</ele>
        <time>2014-04-13T08:37:56Z</time>
      </trkpt>
      <trkpt lat="43.47667" lon="3.43617">
        <ele>20.32</ele>
        <time>2014-04-13T08:37:57Z</time>
      </trkpt>
      <trkpt lat="43.47668" lon="3.43604">
        <ele>20.32</ele>
        <time>2014-04-13T08:37:58Z</time>
      </trkpt>
      <trkpt lat="43.47665" lon="3.43592">
        <ele>20.81</ele>
        <time>2014-04-13T08:37:59Z</time>
      </trkpt>
      <trkpt lat="43.47658" lon="3.43581">
        <ele>20.81</ele>
        <time>2014-04-13T08:38:00Z</time>
      </trkpt>
      <trkpt lat="43.4765" lon="3.43571">
        <ele>20.32</ele>
        <time>2014-04-13T08:38:01Z</time>
      </trkpt>
      <trkpt lat="43.47641" lon="3.43555">
        <ele>20.81</ele>
        <time>2014-04-13T08:38:02Z</time>
      </trkpt>
      <trkpt lat="43.47633" lon="3.43532">
        <ele>20.32</ele>
        <time>2014-04-13T08:38:03Z</time>
      </trkpt>
      <trkpt lat="43.47614" lon="3.4348">
        <ele>20.32</ele>
        <time>2014-04-13T08:38:05Z</time>
      </trkpt>
      <trkpt lat="43.47601" lon="3.43452">
        <ele>20.32</ele>
        <time>2014-04-13T08:38:06Z</time>
      </trkpt>
      <trkpt lat="43.47584" lon="3.43425">
        <ele>20.81</ele>
        <time>2014-04-13T08:38:07Z</time>
      </trkpt>
      <trkpt lat="43.47459" lon="3.43236">
        <ele>21.29</ele>
        <time>2014-04-13T08:38:15Z</time>
      </trkpt>
      <trkpt lat="43.47357" lon="3.43099">
        <ele>21.77</ele>
        <time>2014-04-13T08:38:23Z</time>
      </trkpt>
      <trkpt lat="43.4734" lon="3.43084">
        <ele>21.29</ele>
        <time>2014-04-13T08:38:24Z</time>
      </trkpt>
      <trkpt lat="43.47322" lon="3.43073">
        <ele>20.81</ele>
        <time>2014-04-13T08:38:25Z</time>
      </trkpt>
      <trkpt lat="43.47302" lon="3.43066">
        <ele>20.81</ele>
        <time>2014-04-13T08:38:26Z</time>
      </trkpt>
      <trkpt lat="43.47281" lon="3.43064">
        <ele>20.32</ele>
        <time>2014-04-13T08:38:27Z</time>
      </trkpt>
      <trkpt lat="43.47258" lon="3.43066">
        <ele>19.84</ele>
        <time>2014-04-13T08:38:28Z</time>
      </trkpt>
      <trkpt lat="43.47234" lon="3.43079">
        <ele>19.36</ele>
        <time>2014-04-13T08:38:29Z</time>
      </trkpt>
      <trkpt lat="43.47211" lon="3.43094">
        <ele>19.36</ele>
        <time>2014-04-13T08:38:30Z</time>
      </trkpt>
      <trkpt lat="43.47187" lon="3.4311">
        <ele>18.88</ele>
        <time>2014-04-13T08:38:31Z</time>
      </trkpt>
      <trkpt lat="43.47072" lon="3.43175">
        <ele>17.92</ele>
        <time>2014-04-13T08:38:36Z</time>
      </trkpt>
      <trkpt lat="43.47051" lon="3.4318">
        <ele>17.92</ele>
        <time>2014-04-13T08:38:37Z</time>
      </trkpt>
      <trkpt lat="43.47031" lon="3.43181">
        <ele>17.44</ele>
        <time>2014-04-13T08:38:38Z</time>
      </trkpt>
      <trkpt lat="43.4701" lon="3.43179">
        <ele>17.44</ele>
        <time>2014-04-13T08:38:39Z</time>
      </trkpt>
      <trkpt lat="43.4699" lon="3.43174">
        <ele>17.44</ele>
        <time>2014-04-13T08:38:40Z</time>
      </trkpt>
      <trkpt lat="43.4697" lon="3.43166">
        <ele>17.44</ele>
        <time>2014-04-13T08:38:41Z</time>
      </trkpt>
      <trkpt lat="43.46951" lon="3.43155">
        <ele>17.44</ele>
        <time>2014-04-13T08:38:42Z</time>
      </trkpt>
      <trkpt lat="43.46933" lon="3.43144">
        <ele>17.92</ele>
        <time>2014-04-13T08:38:43Z</time>
      </trkpt>
      <trkpt lat="43.46917" lon="3.43132">
        <ele>17.92</ele>
        <time>2014-04-13T08:38:44Z</time>
      </trkpt>
      <trkpt lat="43.46799" lon="3.43037">
        <ele>19.36</ele>
        <time>2014-04-13T08:38:53Z</time>
      </trkpt>
      <trkpt lat="43.46606" lon="3.42883">
        <ele>19.84</ele>
        <time>2014-04-13T08:39:07Z</time>
      </trkpt>
      <trkpt lat="43.46472" lon="3.42779">
        <ele>19.36</ele>
        <time>2014-04-13T08:39:17Z</time>
      </trkpt>
      <trkpt lat="43.46374" lon="3.42703">
        <ele>17.92</ele>
        <time>2014-04-13T08:39:27Z</time>
      </trkpt>
      <trkpt lat="43.46304" lon="3.42615">
        <ele>16.96</ele>
        <time>2014-04-13T08:39:37Z</time>
      </trkpt>
      <trkpt lat="43.46239" lon="3.42462">
        <ele>20.81</ele>
        <time>2014-04-13T08:39:50Z</time>
      </trkpt>
      <trkpt lat="43.46221" lon="3.42426">
        <ele>20.32</ele>
        <time>2014-04-13T08:39:54Z</time>
      </trkpt>
      <trkpt lat="43.46215" lon="3.42421">
        <ele>20.32</ele>
        <time>2014-04-13T08:39:55Z</time>
      </trkpt>
      <trkpt lat="43.4621" lon="3.42417">
        <ele>20.32</ele>
        <time>2014-04-13T08:39:56Z</time>
      </trkpt>
      <trkpt lat="43.46204" lon="3.42415">
        <ele>19.84</ele>
        <time>2014-04-13T08:39:57Z</time>
      </trkpt>
      <trkpt lat="43.46197" lon="3.42414">
        <ele>19.84</ele>
        <time>2014-04-13T08:39:58Z</time>
      </trkpt>
      <trkpt lat="43.46191" lon="3.42415">
        <ele>19.84</ele>
        <time>2014-04-13T08:39:59Z</time>
      </trkpt>
      <trkpt lat="43.46185" lon="3.42417">
        <ele>19.84</ele>
        <time>2014-04-13T08:40:00Z</time>
      </trkpt>
      <trkpt lat="43.4618" lon="3.42421">
        <ele>20.32</ele>
        <time>2014-04-13T08:40:01Z</time>
      </trkpt>
      <trkpt lat="43.46177" lon="3.42425">
        <ele>21.29</ele>
        <time>2014-04-13T08:40:02Z</time>
      </trkpt>
      <trkpt lat="43.46173" lon="3.42429">
        <ele>21.77</ele>
        <time>2014-04-13T08:40:03Z</time>
      </trkpt>
      <trkpt lat="43.46169" lon="3.42433">
        <ele>21.77</ele>
        <time>2014-04-13T08:40:04Z</time>
      </trkpt>
      <trkpt lat="43.46161" lon="3.4244">
        <ele>21.29</ele>
        <time>2014-04-13T08:40:06Z</time>
      </trkpt>
      <trkpt lat="43.46156" lon="3.42446">
        <ele>21.29</ele>
        <time>2014-04-13T08:40:07Z</time>
      </trkpt>
      <trkpt lat="43.46151" lon="3.42452">
        <ele>20.81</ele>
        <time>2014-04-13T08:40:08Z</time>
      </trkpt>
      <trkpt lat="43.46118" lon="3.42495">
        <ele>19.84</ele>
        <time>2014-04-13T08:40:18Z</time>
      </trkpt>
      <trkpt lat="43.4611" lon="3.42506">
        <ele>18.88</ele>
        <time>2014-04-13T08:40:30Z</time>
      </trkpt>
      <trkpt lat="43.46104" lon="3.42512">
        <ele>17.92</ele>
        <time>2014-04-13T08:40:32Z</time>
      </trkpt>
      <trkpt lat="43.461" lon="3.42516">
        <ele>17.92</ele>
        <time>2014-04-13T08:40:33Z</time>
      </trkpt>
      <trkpt lat="43.46091" lon="3.42528">
        <ele>17.92</ele>
        <time>2014-04-13T08:40:40Z</time>
      </trkpt>
      <trkpt lat="43.46085" lon="3.42533">
        <ele>17.44</ele>
        <time>2014-04-13T08:40:50Z</time>
      </trkpt>
      <trkpt lat="43.46078" lon="3.42533">
        <ele>17.44</ele>
        <time>2014-04-13T08:41:01Z</time>
      </trkpt>
      <trkpt lat="43.46078" lon="3.42535">
        <ele>17.44</ele>
        <time>2014-04-13T08:41:02Z</time>
      </trkpt>
      <trkpt lat="43.46078" lon="3.42536">
        <ele>17.44</ele>
        <time>2014-04-13T08:41:03Z</time>
      </trkpt>
      <trkpt lat="43.46079" lon="3.42539">
        <ele>18.4</ele>
        <time>2014-04-13T08:41:20Z</time>
      </trkpt>
      <trkpt lat="43.46078" lon="3.42541">
        <ele>15.52</ele>
        <time>2014-04-13T08:42:13Z</time>
      </trkpt>
      <trkpt lat="43.46078" lon="3.42541">
        <ele>13.6</ele>
        <time>2014-04-13T09:24:31Z</time>
      </trkpt>
      <trkpt lat="43.46075" lon="3.42547">
        <ele>14.56</ele>
        <time>2014-04-13T09:25:53Z</time>
      </trkpt>
      <trkpt lat="43.46069" lon="3.4255">
        <ele>13.6</ele>
        <time>2014-04-13T09:26:02Z</time>
      </trkpt>
      <trkpt lat="43.46066" lon="3.4256">
        <ele>14.08</ele>
        <time>2014-04-13T09:26:33Z</time>
      </trkpt>
      <trkpt lat="43.46041" lon="3.4259">
        <ele>18.4</ele>
        <time>2014-04-13T09:26:43Z</time>
      </trkpt>
      <trkpt lat="43.46032" lon="3.426">
        <ele>20.81</ele>
        <time>2014-04-13T09:26:59Z</time>
      </trkpt>
      <trkpt lat="43.4602" lon="3.42615">
        <ele>23.69</ele>
        <time>2014-04-13T09:27:07Z</time>
      </trkpt>
      <trkpt lat="43.46001" lon="3.4264">
        <ele>26.57</ele>
        <time>2014-04-13T09:27:16Z</time>
      </trkpt>
      <trkpt lat="43.45944" lon="3.42708">
        <ele>22.25</ele>
        <time>2014-04-13T09:27:29Z</time>
      </trkpt>
      <trkpt lat="43.45926" lon="3.42709">
        <ele>18.88</ele>
        <time>2014-04-13T09:27:37Z</time>
      </trkpt>
      <trkpt lat="43.45918" lon="3.42703">
        <ele>18.88</ele>
        <time>2014-04-13T09:27:39Z</time>
      </trkpt>
      <trkpt lat="43.45915" lon="3.42699">
        <ele>18.4</ele>
        <time>2014-04-13T09:27:40Z</time>
      </trkpt>
      <trkpt lat="43.45909" lon="3.42691">
        <ele>17.92</ele>
        <time>2014-04-13T09:27:42Z</time>
      </trkpt>
      <trkpt lat="43.45885" lon="3.4266">
        <ele>17.92</ele>
        <time>2014-04-13T09:27:49Z</time>
      </trkpt>
      <trkpt lat="43.45852" lon="3.42623">
        <ele>16.48</ele>
        <time>2014-04-13T09:27:59Z</time>
      </trkpt>
      <trkpt lat="43.45831" lon="3.4261">
        <ele>16.48</ele>
        <time>2014-04-13T09:28:08Z</time>
      </trkpt>
      <trkpt lat="43.45774" lon="3.42573">
        <ele>15.52</ele>
        <time>2014-04-13T09:28:19Z</time>
      </trkpt>
      <trkpt lat="43.45695" lon="3.42513">
        <ele>16</ele>
        <time>2014-04-13T09:28:32Z</time>
      </trkpt>
      <trkpt lat="43.45655" lon="3.42451">
        <ele>15.52</ele>
        <time>2014-04-13T09:28:42Z</time>
      </trkpt>
      <trkpt lat="43.45657" lon="3.42452">
        <ele>15.52</ele>
        <time>2014-04-13T09:28:58Z</time>
      </trkpt>
      <trkpt lat="43.45657" lon="3.42452">
        <ele>16.48</ele>
        <time>2014-04-13T09:29:20Z</time>
      </trkpt>
      <trkpt lat="43.45651" lon="3.42444">
        <ele>16.96</ele>
        <time>2014-04-13T09:29:34Z</time>
      </trkpt>
      <trkpt lat="43.45646" lon="3.42438">
        <ele>16.96</ele>
        <time>2014-04-13T09:29:35Z</time>
      </trkpt>
      <trkpt lat="43.45577" lon="3.42345">
        <ele>16.96</ele>
        <time>2014-04-13T09:29:46Z</time>
      </trkpt>
      <trkpt lat="43.45456" lon="3.4218">
        <ele>17.44</ele>
        <time>2014-04-13T09:30:01Z</time>
      </trkpt>
      <trkpt lat="43.45356" lon="3.42042">
        <ele>15.52</ele>
        <time>2014-04-13T09:30:13Z</time>
      </trkpt>
      <trkpt lat="43.45232" lon="3.41876">
        <ele>14.56</ele>
        <time>2014-04-13T09:30:26Z</time>
      </trkpt>
      <trkpt lat="43.45142" lon="3.41753">
        <ele>13.6</ele>
        <time>2014-04-13T09:30:36Z</time>
      </trkpt>
      <trkpt lat="43.45095" lon="3.41685">
        <ele>13.12</ele>
        <time>2014-04-13T09:30:43Z</time>
      </trkpt>
      <trkpt lat="43.45093" lon="3.41677">
        <ele>13.12</ele>
        <time>2014-04-13T09:30:44Z</time>
      </trkpt>
      <trkpt lat="43.45092" lon="3.41668">
        <ele>13.12</ele>
        <time>2014-04-13T09:30:45Z</time>
      </trkpt>
      <trkpt lat="43.45094" lon="3.41657">
        <ele>13.12</ele>
        <time>2014-04-13T09:30:46Z</time>
      </trkpt>
      <trkpt lat="43.45098" lon="3.41646">
        <ele>13.12</ele>
        <time>2014-04-13T09:30:47Z</time>
      </trkpt>
      <trkpt lat="43.45104" lon="3.41635">
        <ele>13.12</ele>
        <time>2014-04-13T09:30:48Z</time>
      </trkpt>
      <trkpt lat="43.45113" lon="3.41625">
        <ele>13.6</ele>
        <time>2014-04-13T09:30:49Z</time>
      </trkpt>
      <trkpt lat="43.45123" lon="3.41615">
        <ele>14.08</ele>
        <time>2014-04-13T09:30:50Z</time>
      </trkpt>
      <trkpt lat="43.45267" lon="3.41481">
        <ele>16.48</ele>
        <time>2014-04-13T09:31:02Z</time>
      </trkpt>
      <trkpt lat="43.45348" lon="3.41362">
        <ele>21.29</ele>
        <time>2014-04-13T09:31:09Z</time>
      </trkpt>
      <trkpt lat="43.45395" lon="3.41175">
        <ele>26.57</ele>
        <time>2014-04-13T09:31:17Z</time>
      </trkpt>
      <trkpt lat="43.45449" lon="3.41006">
        <ele>25.61</ele>
        <time>2014-04-13T09:31:26Z</time>
      </trkpt>
      <trkpt lat="43.45455" lon="3.40996">
        <ele>25.13</ele>
        <time>2014-04-13T09:31:27Z</time>
      </trkpt>
      <trkpt lat="43.4546" lon="3.4099">
        <ele>25.13</ele>
        <time>2014-04-13T09:31:28Z</time>
      </trkpt>
      <trkpt lat="43.45462" lon="3.40987">
        <ele>24.65</ele>
        <time>2014-04-13T09:31:29Z</time>
      </trkpt>
      <trkpt lat="43.45467" lon="3.40984">
        <ele>24.17</ele>
        <time>2014-04-13T09:31:33Z</time>
      </trkpt>
      <trkpt lat="43.45473" lon="3.40981">
        <ele>24.17</ele>
        <time>2014-04-13T09:31:34Z</time>
      </trkpt>
      <trkpt lat="43.4548" lon="3.40977">
        <ele>24.17</ele>
        <time>2014-04-13T09:31:35Z</time>
      </trkpt>
      <trkpt lat="43.45486" lon="3.4097">
        <ele>24.17</ele>
        <time>2014-04-13T09:31:36Z</time>
      </trkpt>
      <trkpt lat="43.4549" lon="3.40959">
        <ele>24.17</ele>
        <time>2014-04-13T09:31:37Z</time>
      </trkpt>
      <trkpt lat="43.45495" lon="3.40947">
        <ele>24.17</ele>
        <time>2014-04-13T09:31:38Z</time>
      </trkpt>
      <trkpt lat="43.45503" lon="3.40934">
        <ele>24.17</ele>
        <time>2014-04-13T09:31:39Z</time>
      </trkpt>
      <trkpt lat="43.45512" lon="3.40923">
        <ele>24.17</ele>
        <time>2014-04-13T09:31:40Z</time>
      </trkpt>
      <trkpt lat="43.45524" lon="3.40912">
        <ele>24.65</ele>
        <time>2014-04-13T09:31:41Z</time>
      </trkpt>
      <trkpt lat="43.45537" lon="3.40902">
        <ele>25.13</ele>
        <time>2014-04-13T09:31:42Z</time>
      </trkpt>
      <trkpt lat="43.45549" lon="3.40893">
        <ele>25.61</ele>
        <time>2014-04-13T09:31:43Z</time>
      </trkpt>
      <trkpt lat="43.45671" lon="3.40853">
        <ele>27.53</ele>
        <time>2014-04-13T09:31:51Z</time>
      </trkpt>
      <trkpt lat="43.45788" lon="3.40889">
        <ele>28.98</ele>
        <time>2014-04-13T09:31:58Z</time>
      </trkpt>
      <trkpt lat="43.45958" lon="3.41018">
        <ele>31.38</ele>
        <time>2014-04-13T09:32:09Z</time>
      </trkpt>
      <trkpt lat="43.46016" lon="3.41058">
        <ele>31.86</ele>
        <time>2014-04-13T09:32:14Z</time>
      </trkpt>
      <trkpt lat="43.46024" lon="3.41066">
        <ele>31.86</ele>
        <time>2014-04-13T09:32:15Z</time>
      </trkpt>
      <trkpt lat="43.4603" lon="3.41077">
        <ele>31.38</ele>
        <time>2014-04-13T09:32:16Z</time>
      </trkpt>
      <trkpt lat="43.46043" lon="3.411">
        <ele>30.9</ele>
        <time>2014-04-13T09:32:18Z</time>
      </trkpt>
      <trkpt lat="43.46051" lon="3.41107">
        <ele>30.42</ele>
        <time>2014-04-13T09:32:19Z</time>
      </trkpt>
      <trkpt lat="43.46061" lon="3.41104">
        <ele>30.42</ele>
        <time>2014-04-13T09:32:20Z</time>
      </trkpt>
      <trkpt lat="43.46071" lon="3.411">
        <ele>29.94</ele>
        <time>2014-04-13T09:32:21Z</time>
      </trkpt>
      <trkpt lat="43.46081" lon="3.41093">
        <ele>29.94</ele>
        <time>2014-04-13T09:32:22Z</time>
      </trkpt>
      <trkpt lat="43.46093" lon="3.41088">
        <ele>29.94</ele>
        <time>2014-04-13T09:32:23Z</time>
      </trkpt>
      <trkpt lat="43.46107" lon="3.41084">
        <ele>30.42</ele>
        <time>2014-04-13T09:32:24Z</time>
      </trkpt>
      <trkpt lat="43.46122" lon="3.41081">
        <ele>30.42</ele>
        <time>2014-04-13T09:32:25Z</time>
      </trkpt>
      <trkpt lat="43.4626" lon="3.41034">
        <ele>26.09</ele>
        <time>2014-04-13T09:32:34Z</time>
      </trkpt>
      <trkpt lat="43.46371" lon="3.4098">
        <ele>21.29</ele>
        <time>2014-04-13T09:32:41Z</time>
      </trkpt>
      <trkpt lat="43.46385" lon="3.40966">
        <ele>20.81</ele>
        <time>2014-04-13T09:32:42Z</time>
      </trkpt>
      <trkpt lat="43.46398" lon="3.4095">
        <ele>20.81</ele>
        <time>2014-04-13T09:32:43Z</time>
      </trkpt>
      <trkpt lat="43.46409" lon="3.40932">
        <ele>20.81</ele>
        <time>2014-04-13T09:32:44Z</time>
      </trkpt>
      <trkpt lat="43.46419" lon="3.40912">
        <ele>21.29</ele>
        <time>2014-04-13T09:32:45Z</time>
      </trkpt>
      <trkpt lat="43.46427" lon="3.4089">
        <ele>21.29</ele>
        <time>2014-04-13T09:32:46Z</time>
      </trkpt>
      <trkpt lat="43.46434" lon="3.40867">
        <ele>21.29</ele>
        <time>2014-04-13T09:32:47Z</time>
      </trkpt>
      <trkpt lat="43.4644" lon="3.40843">
        <ele>20.81</ele>
        <time>2014-04-13T09:32:48Z</time>
      </trkpt>
      <trkpt lat="43.46446" lon="3.40817">
        <ele>21.29</ele>
        <time>2014-04-13T09:32:49Z</time>
      </trkpt>
      <trkpt lat="43.46481" lon="3.40563">
        <ele>20.81</ele>
        <time>2014-04-13T09:32:58Z</time>
      </trkpt>
      <trkpt lat="43.46507" lon="3.40319">
        <ele>25.13</ele>
        <time>2014-04-13T09:33:06Z</time>
      </trkpt>
      <trkpt lat="43.46501" lon="3.40287">
        <ele>24.65</ele>
        <time>2014-04-13T09:33:07Z</time>
      </trkpt>
      <trkpt lat="43.46495" lon="3.40255">
        <ele>24.65</ele>
        <time>2014-04-13T09:33:08Z</time>
      </trkpt>
      <trkpt lat="43.46478" lon="3.40128">
        <ele>25.13</ele>
        <time>2014-04-13T09:33:12Z</time>
      </trkpt>
      <trkpt lat="43.46479" lon="3.40096">
        <ele>25.13</ele>
        <time>2014-04-13T09:33:13Z</time>
      </trkpt>
      <trkpt lat="43.46481" lon="3.40065">
        <ele>25.61</ele>
        <time>2014-04-13T09:33:14Z</time>
      </trkpt>
      <trkpt lat="43.46486" lon="3.40035">
        <ele>26.09</ele>
        <time>2014-04-13T09:33:15Z</time>
      </trkpt>
      <trkpt lat="43.46491" lon="3.40007">
        <ele>26.09</ele>
        <time>2014-04-13T09:33:16Z</time>
      </trkpt>
      <trkpt lat="43.46516" lon="3.39896">
        <ele>27.53</ele>
        <time>2014-04-13T09:33:20Z</time>
      </trkpt>
      <trkpt lat="43.46525" lon="3.39869">
        <ele>27.53</ele>
        <time>2014-04-13T09:33:21Z</time>
      </trkpt>
      <trkpt lat="43.46537" lon="3.39844">
        <ele>27.53</ele>
        <time>2014-04-13T09:33:22Z</time>
      </trkpt>
      <trkpt lat="43.46551" lon="3.39819">
        <ele>27.53</ele>
        <time>2014-04-13T09:33:23Z</time>
      </trkpt>
      <trkpt lat="43.46566" lon="3.39795">
        <ele>27.53</ele>
        <time>2014-04-13T09:33:24Z</time>
      </trkpt>
      <trkpt lat="43.46666" lon="3.39629">
        <ele>27.53</ele>
        <time>2014-04-13T09:33:31Z</time>
      </trkpt>
      <trkpt lat="43.46674" lon="3.39605">
        <ele>28.02</ele>
        <time>2014-04-13T09:33:32Z</time>
      </trkpt>
      <trkpt lat="43.46681" lon="3.3958">
        <ele>28.02</ele>
        <time>2014-04-13T09:33:33Z</time>
      </trkpt>
      <trkpt lat="43.46686" lon="3.39555">
        <ele>27.53</ele>
        <time>2014-04-13T09:33:34Z</time>
      </trkpt>
      <trkpt lat="43.4669" lon="3.39529">
        <ele>27.53</ele>
        <time>2014-04-13T09:33:35Z</time>
      </trkpt>
      <trkpt lat="43.46693" lon="3.39504">
        <ele>27.53</ele>
        <time>2014-04-13T09:33:36Z</time>
      </trkpt>
      <trkpt lat="43.46743" lon="3.39162">
        <ele>29.94</ele>
        <time>2014-04-13T09:33:50Z</time>
      </trkpt>
      <trkpt lat="43.46836" lon="3.38829">
        <ele>32.34</ele>
        <time>2014-04-13T09:34:04Z</time>
      </trkpt>
      <trkpt lat="43.46866" lon="3.38565">
        <ele>31.86</ele>
        <time>2014-04-13T09:34:14Z</time>
      </trkpt>
      <trkpt lat="43.46869" lon="3.38298">
        <ele>34.26</ele>
        <time>2014-04-13T09:34:25Z</time>
      </trkpt>
      <trkpt lat="43.46872" lon="3.37999">
        <ele>38.11</ele>
        <time>2014-04-13T09:34:38Z</time>
      </trkpt>
      <trkpt lat="43.46876" lon="3.37932">
        <ele>40.03</ele>
        <time>2014-04-13T09:34:41Z</time>
      </trkpt>
      <trkpt lat="43.46881" lon="3.3791">
        <ele>40.51</ele>
        <time>2014-04-13T09:34:42Z</time>
      </trkpt>
      <trkpt lat="43.46888" lon="3.3789">
        <ele>40.99</ele>
        <time>2014-04-13T09:34:43Z</time>
      </trkpt>
      <trkpt lat="43.46898" lon="3.37869">
        <ele>41.47</ele>
        <time>2014-04-13T09:34:44Z</time>
      </trkpt>
      <trkpt lat="43.46911" lon="3.37849">
        <ele>41.95</ele>
        <time>2014-04-13T09:34:45Z</time>
      </trkpt>
      <trkpt lat="43.46925" lon="3.37832">
        <ele>41.95</ele>
        <time>2014-04-13T09:34:46Z</time>
      </trkpt>
      <trkpt lat="43.46939" lon="3.37816">
        <ele>41.95</ele>
        <time>2014-04-13T09:34:47Z</time>
      </trkpt>
      <trkpt lat="43.47128" lon="3.37595">
        <ele>37.63</ele>
        <time>2014-04-13T09:35:01Z</time>
      </trkpt>
      <trkpt lat="43.47273" lon="3.37419">
        <ele>37.63</ele>
        <time>2014-04-13T09:35:11Z</time>
      </trkpt>
      <trkpt lat="43.47408" lon="3.37254">
        <ele>39.07</ele>
        <time>2014-04-13T09:35:18Z</time>
      </trkpt>
      <trkpt lat="43.47596" lon="3.3703">
        <ele>40.03</ele>
        <time>2014-04-13T09:35:28Z</time>
      </trkpt>
      <trkpt lat="43.47797" lon="3.36788">
        <ele>41.95</ele>
        <time>2014-04-13T09:35:40Z</time>
      </trkpt>
      <trkpt lat="43.48102" lon="3.3642">
        <ele>45.8</ele>
        <time>2014-04-13T09:35:58Z</time>
      </trkpt>
      <trkpt lat="43.48297" lon="3.36173">
        <ele>47.72</ele>
        <time>2014-04-13T09:36:10Z</time>
      </trkpt>
      <trkpt lat="43.4841" lon="3.35939">
        <ele>47.72</ele>
        <time>2014-04-13T09:36:19Z</time>
      </trkpt>
      <trkpt lat="43.4853" lon="3.35715">
        <ele>47.24</ele>
        <time>2014-04-13T09:36:28Z</time>
      </trkpt>
      <trkpt lat="43.48674" lon="3.3557">
        <ele>49.16</ele>
        <time>2014-04-13T09:36:36Z</time>
      </trkpt>
      <trkpt lat="43.48771" lon="3.35401">
        <ele>50.61</ele>
        <time>2014-04-13T09:36:42Z</time>
      </trkpt>
      <trkpt lat="43.48879" lon="3.352">
        <ele>53.49</ele>
        <time>2014-04-13T09:36:49Z</time>
      </trkpt>
      <trkpt lat="43.49017" lon="3.3483">
        <ele>60.7</ele>
        <time>2014-04-13T09:37:01Z</time>
      </trkpt>
      <trkpt lat="43.49188" lon="3.34377">
        <ele>69.35</ele>
        <time>2014-04-13T09:37:16Z</time>
      </trkpt>
      <trkpt lat="43.49396" lon="3.33826">
        <ele>72.72</ele>
        <time>2014-04-13T09:37:35Z</time>
      </trkpt>
      <trkpt lat="43.49626" lon="3.33215">
        <ele>74.16</ele>
        <time>2014-04-13T09:37:56Z</time>
      </trkpt>
      <trkpt lat="43.49775" lon="3.32822">
        <ele>75.6</ele>
        <time>2014-04-13T09:38:10Z</time>
      </trkpt>
      <trkpt lat="43.49816" lon="3.32712">
        <ele>77.52</ele>
        <time>2014-04-13T09:38:17Z</time>
      </trkpt>
      <trkpt lat="43.4989" lon="3.32518">
        <ele>79.45</ele>
        <time>2014-04-13T09:38:31Z</time>
      </trkpt>
      <trkpt lat="43.49959" lon="3.32336">
        <ele>81.85</ele>
        <time>2014-04-13T09:38:43Z</time>
      </trkpt>
      <trkpt lat="43.50014" lon="3.32192">
        <ele>83.29</ele>
        <time>2014-04-13T09:38:52Z</time>
      </trkpt>
      <trkpt lat="43.50076" lon="3.32035">
        <ele>84.25</ele>
        <time>2014-04-13T09:39:05Z</time>
      </trkpt>
      <trkpt lat="43.50085" lon="3.32021">
        <ele>84.25</ele>
        <time>2014-04-13T09:39:07Z</time>
      </trkpt>
      <trkpt lat="43.50088" lon="3.32011">
        <ele>84.25</ele>
        <time>2014-04-13T09:39:08Z</time>
      </trkpt>
      <trkpt lat="43.5009" lon="3.31999">
        <ele>84.25</ele>
        <time>2014-04-13T09:39:09Z</time>
      </trkpt>
      <trkpt lat="43.50093" lon="3.31985">
        <ele>84.25</ele>
        <time>2014-04-13T09:39:10Z</time>
      </trkpt>
      <trkpt lat="43.50098" lon="3.3197">
        <ele>84.25</ele>
        <time>2014-04-13T09:39:11Z</time>
      </trkpt>
      <trkpt lat="43.50104" lon="3.31955">
        <ele>84.73</ele>
        <time>2014-04-13T09:39:12Z</time>
      </trkpt>
      <trkpt lat="43.50145" lon="3.31857">
        <ele>85.69</ele>
        <time>2014-04-13T09:39:19Z</time>
      </trkpt>
      <trkpt lat="43.50152" lon="3.31849">
        <ele>86.18</ele>
        <time>2014-04-13T09:39:20Z</time>
      </trkpt>
      <trkpt lat="43.50158" lon="3.31841">
        <ele>86.18</ele>
        <time>2014-04-13T09:39:21Z</time>
      </trkpt>
      <trkpt lat="43.50162" lon="3.31832">
        <ele>86.66</ele>
        <time>2014-04-13T09:39:22Z</time>
      </trkpt>
      <trkpt lat="43.50164" lon="3.31819">
        <ele>86.66</ele>
        <time>2014-04-13T09:39:23Z</time>
      </trkpt>
      <trkpt lat="43.50166" lon="3.31805">
        <ele>86.66</ele>
        <time>2014-04-13T09:39:24Z</time>
      </trkpt>
      <trkpt lat="43.5017" lon="3.3179">
        <ele>87.14</ele>
        <time>2014-04-13T09:39:25Z</time>
      </trkpt>
      <trkpt lat="43.50175" lon="3.31773">
        <ele>87.62</ele>
        <time>2014-04-13T09:39:26Z</time>
      </trkpt>
      <trkpt lat="43.50254" lon="3.31558">
        <ele>92.42</ele>
        <time>2014-04-13T09:39:40Z</time>
      </trkpt>
      <trkpt lat="43.50304" lon="3.31425">
        <ele>101.08</ele>
        <time>2014-04-13T09:39:51Z</time>
      </trkpt>
      <trkpt lat="43.50343" lon="3.31325">
        <ele>103.48</ele>
        <time>2014-04-13T09:40:00Z</time>
      </trkpt>
      <trkpt lat="43.50395" lon="3.31191">
        <ele>114.05</ele>
        <time>2014-04-13T09:40:12Z</time>
      </trkpt>
      <trkpt lat="43.50444" lon="3.31089">
        <ele>120.78</ele>
        <time>2014-04-13T09:40:21Z</time>
      </trkpt>
      <trkpt lat="43.50504" lon="3.31018">
        <ele>125.59</ele>
        <time>2014-04-13T09:40:31Z</time>
      </trkpt>
      <trkpt lat="43.50529" lon="3.30963">
        <ele>125.11</ele>
        <time>2014-04-13T09:40:37Z</time>
      </trkpt>
      <trkpt lat="43.50531" lon="3.30951">
        <ele>125.11</ele>
        <time>2014-04-13T09:40:38Z</time>
      </trkpt>
      <trkpt lat="43.50555" lon="3.30848">
        <ele>126.55</ele>
        <time>2014-04-13T09:40:47Z</time>
      </trkpt>
      <trkpt lat="43.50561" lon="3.30838">
        <ele>128.47</ele>
        <time>2014-04-13T09:40:48Z</time>
      </trkpt>
      <trkpt lat="43.50567" lon="3.30828">
        <ele>129.92</ele>
        <time>2014-04-13T09:40:49Z</time>
      </trkpt>
      <trkpt lat="43.5061" lon="3.3077">
        <ele>133.76</ele>
        <time>2014-04-13T09:40:56Z</time>
      </trkpt>
      <trkpt lat="43.50624" lon="3.30758">
        <ele>132.8</ele>
        <time>2014-04-13T09:40:58Z</time>
      </trkpt>
      <trkpt lat="43.50632" lon="3.30754">
        <ele>132.8</ele>
        <time>2014-04-13T09:40:59Z</time>
      </trkpt>
      <trkpt lat="43.50641" lon="3.3075">
        <ele>133.28</ele>
        <time>2014-04-13T09:41:00Z</time>
      </trkpt>
      <trkpt lat="43.50723" lon="3.3072">
        <ele>135.2</ele>
        <time>2014-04-13T09:41:08Z</time>
      </trkpt>
      <trkpt lat="43.50733" lon="3.30713">
        <ele>135.2</ele>
        <time>2014-04-13T09:41:09Z</time>
      </trkpt>
      <trkpt lat="43.50743" lon="3.30704">
        <ele>135.2</ele>
        <time>2014-04-13T09:41:10Z</time>
      </trkpt>
      <trkpt lat="43.50752" lon="3.30694">
        <ele>135.2</ele>
        <time>2014-04-13T09:41:11Z</time>
      </trkpt>
      <trkpt lat="43.50761" lon="3.30682">
        <ele>135.2</ele>
        <time>2014-04-13T09:41:12Z</time>
      </trkpt>
      <trkpt lat="43.50769" lon="3.30669">
        <ele>135.68</ele>
        <time>2014-04-13T09:41:13Z</time>
      </trkpt>
      <trkpt lat="43.50777" lon="3.30656">
        <ele>135.68</ele>
        <time>2014-04-13T09:41:14Z</time>
      </trkpt>
      <trkpt lat="43.50783" lon="3.30641">
        <ele>135.68</ele>
        <time>2014-04-13T09:41:15Z</time>
      </trkpt>
      <trkpt lat="43.50789" lon="3.30626">
        <ele>135.68</ele>
        <time>2014-04-13T09:41:16Z</time>
      </trkpt>
      <trkpt lat="43.50794" lon="3.3061">
        <ele>135.68</ele>
        <time>2014-04-13T09:41:17Z</time>
      </trkpt>
      <trkpt lat="43.5084" lon="3.30483">
        <ele>137.13</ele>
        <time>2014-04-13T09:41:26Z</time>
      </trkpt>
      <trkpt lat="43.50846" lon="3.30475">
        <ele>137.13</ele>
        <time>2014-04-13T09:41:27Z</time>
      </trkpt>
      <trkpt lat="43.50858" lon="3.3046">
        <ele>137.13</ele>
        <time>2014-04-13T09:41:29Z</time>
      </trkpt>
      <trkpt lat="43.50859" lon="3.30449">
        <ele>137.13</ele>
        <time>2014-04-13T09:41:30Z</time>
      </trkpt>
      <trkpt lat="43.50871" lon="3.30335">
        <ele>136.64</ele>
        <time>2014-04-13T09:41:37Z</time>
      </trkpt>
      <trkpt lat="43.50898" lon="3.30172">
        <ele>134.72</ele>
        <time>2014-04-13T09:41:44Z</time>
      </trkpt>
      <trkpt lat="43.50939" lon="3.29924">
        <ele>135.2</ele>
        <time>2014-04-13T09:41:52Z</time>
      </trkpt>
      <trkpt lat="43.50988" lon="3.29608">
        <ele>139.05</ele>
        <time>2014-04-13T09:42:01Z</time>
      </trkpt>
      <trkpt lat="43.50987" lon="3.29573">
        <ele>139.53</ele>
        <time>2014-04-13T09:42:02Z</time>
      </trkpt>
      <trkpt lat="43.50974" lon="3.29235">
        <ele>142.89</ele>
        <time>2014-04-13T09:42:12Z</time>
      </trkpt>
      <trkpt lat="43.50968" lon="3.28818">
        <ele>141.93</ele>
        <time>2014-04-13T09:42:26Z</time>
      </trkpt>
      <trkpt lat="43.50971" lon="3.287">
        <ele>138.57</ele>
        <time>2014-04-13T09:42:30Z</time>
      </trkpt>
      <trkpt lat="43.50967" lon="3.28668">
        <ele>138.57</ele>
        <time>2014-04-13T09:42:31Z</time>
      </trkpt>
      <trkpt lat="43.50961" lon="3.28635">
        <ele>137.61</ele>
        <time>2014-04-13T09:42:32Z</time>
      </trkpt>
      <trkpt lat="43.50952" lon="3.28601">
        <ele>136.64</ele>
        <time>2014-04-13T09:42:33Z</time>
      </trkpt>
      <trkpt lat="43.50943" lon="3.28567">
        <ele>135.68</ele>
        <time>2014-04-13T09:42:34Z</time>
      </trkpt>
      <trkpt lat="43.5088" lon="3.2834">
        <ele>127.03</ele>
        <time>2014-04-13T09:42:41Z</time>
      </trkpt>
      <trkpt lat="43.50875" lon="3.28307">
        <ele>126.07</ele>
        <time>2014-04-13T09:42:42Z</time>
      </trkpt>
      <trkpt lat="43.50873" lon="3.28272">
        <ele>124.15</ele>
        <time>2014-04-13T09:42:43Z</time>
      </trkpt>
      <trkpt lat="43.50874" lon="3.28235">
        <ele>123.19</ele>
        <time>2014-04-13T09:42:44Z</time>
      </trkpt>
      <trkpt lat="43.50878" lon="3.28199">
        <ele>121.74</ele>
        <time>2014-04-13T09:42:45Z</time>
      </trkpt>
      <trkpt lat="43.50885" lon="3.28162">
        <ele>120.3</ele>
        <time>2014-04-13T09:42:46Z</time>
      </trkpt>
      <trkpt lat="43.50895" lon="3.28126">
        <ele>118.38</ele>
        <time>2014-04-13T09:42:47Z</time>
      </trkpt>
      <trkpt lat="43.50907" lon="3.28091">
        <ele>116.94</ele>
        <time>2014-04-13T09:42:48Z</time>
      </trkpt>
      <trkpt lat="43.5092" lon="3.28057">
        <ele>115.5</ele>
        <time>2014-04-13T09:42:49Z</time>
      </trkpt>
      <trkpt lat="43.50986" lon="3.27843">
        <ele>105.88</ele>
        <time>2014-04-13T09:42:56Z</time>
      </trkpt>
      <trkpt lat="43.51017" lon="3.27625">
        <ele>97.23</ele>
        <time>2014-04-13T09:43:04Z</time>
      </trkpt>
      <trkpt lat="43.51028" lon="3.27565">
        <ele>96.75</ele>
        <time>2014-04-13T09:43:07Z</time>
      </trkpt>
      <trkpt lat="43.51034" lon="3.27551">
        <ele>95.31</ele>
        <time>2014-04-13T09:43:08Z</time>
      </trkpt>
      <trkpt lat="43.51041" lon="3.2754">
        <ele>94.35</ele>
        <time>2014-04-13T09:43:09Z</time>
      </trkpt>
      <trkpt lat="43.51047" lon="3.27532">
        <ele>93.39</ele>
        <time>2014-04-13T09:43:10Z</time>
      </trkpt>
      <trkpt lat="43.51051" lon="3.27528">
        <ele>92.9</ele>
        <time>2014-04-13T09:43:11Z</time>
      </trkpt>
      <trkpt lat="43.51081" lon="3.27493">
        <ele>92.9</ele>
        <time>2014-04-13T09:43:17Z</time>
      </trkpt>
      <trkpt lat="43.51187" lon="3.2736">
        <ele>97.71</ele>
        <time>2014-04-13T09:43:30Z</time>
      </trkpt>
      <trkpt lat="43.51276" lon="3.27252">
        <ele>104.92</ele>
        <time>2014-04-13T09:43:42Z</time>
      </trkpt>
      <trkpt lat="43.51286" lon="3.27238">
        <ele>105.4</ele>
        <time>2014-04-13T09:43:44Z</time>
      </trkpt>
      <trkpt lat="43.5129" lon="3.27233">
        <ele>105.4</ele>
        <time>2014-04-13T09:43:45Z</time>
      </trkpt>
      <trkpt lat="43.51299" lon="3.27225">
        <ele>104.92</ele>
        <time>2014-04-13T09:43:47Z</time>
      </trkpt>
      <trkpt lat="43.51304" lon="3.27222">
        <ele>104.92</ele>
        <time>2014-04-13T09:43:48Z</time>
      </trkpt>
      <trkpt lat="43.5131" lon="3.27222">
        <ele>105.4</ele>
        <time>2014-04-13T09:43:49Z</time>
      </trkpt>
      <trkpt lat="43.51376" lon="3.27215">
        <ele>108.77</ele>
        <time>2014-04-13T09:43:59Z</time>
      </trkpt>
      <trkpt lat="43.51379" lon="3.27215">
        <ele>109.73</ele>
        <time>2014-04-13T09:44:00Z</time>
      </trkpt>
      <trkpt lat="43.51387" lon="3.27206">
        <ele>115.5</ele>
        <time>2014-04-13T09:44:07Z</time>
      </trkpt>
      <trkpt lat="43.51392" lon="3.27202">
        <ele>124.15</ele>
        <time>2014-04-13T09:44:17Z</time>
      </trkpt>
      <trkpt lat="43.51426" lon="3.27198">
        <ele>121.74</ele>
        <time>2014-04-13T09:44:23Z</time>
      </trkpt>
      <trkpt lat="43.51487" lon="3.27212">
        <ele>112.61</ele>
        <time>2014-04-13T09:44:30Z</time>
      </trkpt>
      <trkpt lat="43.51495" lon="3.27216">
        <ele>111.65</ele>
        <time>2014-04-13T09:44:31Z</time>
      </trkpt>
      <trkpt lat="43.51503" lon="3.27222">
        <ele>111.65</ele>
        <time>2014-04-13T09:44:32Z</time>
      </trkpt>
      <trkpt lat="43.5159" lon="3.27277">
        <ele>106.84</ele>
        <time>2014-04-13T09:44:43Z</time>
      </trkpt>
      <trkpt lat="43.51663" lon="3.27322">
        <ele>107.32</ele>
        <time>2014-04-13T09:44:52Z</time>
      </trkpt>
      <trkpt lat="43.51803" lon="3.27407">
        <ele>112.61</ele>
        <time>2014-04-13T09:45:05Z</time>
      </trkpt>
      <trkpt lat="43.51851" lon="3.27439">
        <ele>114.53</ele>
        <time>2014-04-13T09:45:10Z</time>
      </trkpt>
      <trkpt lat="43.51859" lon="3.27448">
        <ele>114.53</ele>
        <time>2014-04-13T09:45:11Z</time>
      </trkpt>
      <trkpt lat="43.51864" lon="3.2746">
        <ele>115.01</ele>
        <time>2014-04-13T09:45:12Z</time>
      </trkpt>
      <trkpt lat="43.51868" lon="3.27474">
        <ele>114.53</ele>
        <time>2014-04-13T09:45:13Z</time>
      </trkpt>
      <trkpt lat="43.5187" lon="3.27491">
        <ele>113.57</ele>
        <time>2014-04-13T09:45:14Z</time>
      </trkpt>
      <trkpt lat="43.51872" lon="3.27508">
        <ele>113.09</ele>
        <time>2014-04-13T09:45:15Z</time>
      </trkpt>
      <trkpt lat="43.51883" lon="3.27562">
        <ele>111.17</ele>
        <time>2014-04-13T09:45:18Z</time>
      </trkpt>
      <trkpt lat="43.51889" lon="3.27579">
        <ele>110.69</ele>
        <time>2014-04-13T09:45:19Z</time>
      </trkpt>
      <trkpt lat="43.51897" lon="3.27594">
        <ele>110.21</ele>
        <time>2014-04-13T09:45:20Z</time>
      </trkpt>
      <trkpt lat="43.51995" lon="3.27772">
        <ele>108.77</ele>
        <time>2014-04-13T09:45:30Z</time>
      </trkpt>
      <trkpt lat="43.52008" lon="3.27789">
        <ele>108.77</ele>
        <time>2014-04-13T09:45:31Z</time>
      </trkpt>
      <trkpt lat="43.52059" lon="3.27846">
        <ele>110.69</ele>
        <time>2014-04-13T09:45:36Z</time>
      </trkpt>
      <trkpt lat="43.52066" lon="3.27849">
        <ele>110.69</ele>
        <time>2014-04-13T09:45:37Z</time>
      </trkpt>
      <trkpt lat="43.52073" lon="3.27849">
        <ele>110.69</ele>
        <time>2014-04-13T09:45:38Z</time>
      </trkpt>
      <trkpt lat="43.52081" lon="3.27846">
        <ele>111.17</ele>
        <time>2014-04-13T09:45:39Z</time>
      </trkpt>
      <trkpt lat="43.5209" lon="3.27843">
        <ele>111.17</ele>
        <time>2014-04-13T09:45:40Z</time>
      </trkpt>
      <trkpt lat="43.52104" lon="3.27839">
        <ele>111.17</ele>
        <time>2014-04-13T09:45:41Z</time>
      </trkpt>
      <trkpt lat="43.52165" lon="3.27832">
        <ele>113.57</ele>
        <time>2014-04-13T09:45:45Z</time>
      </trkpt>
      <trkpt lat="43.52181" lon="3.27836">
        <ele>114.05</ele>
        <time>2014-04-13T09:45:46Z</time>
      </trkpt>
      <trkpt lat="43.52197" lon="3.27842">
        <ele>115.01</ele>
        <time>2014-04-13T09:45:47Z</time>
      </trkpt>
      <trkpt lat="43.5237" lon="3.27919">
        <ele>118.38</ele>
        <time>2014-04-13T09:45:57Z</time>
      </trkpt>
      <trkpt lat="43.52494" lon="3.27958">
        <ele>115.01</ele>
        <time>2014-04-13T09:46:04Z</time>
      </trkpt>
      <trkpt lat="43.52511" lon="3.27954">
        <ele>115.01</ele>
        <time>2014-04-13T09:46:05Z</time>
      </trkpt>
      <trkpt lat="43.52527" lon="3.27946">
        <ele>114.05</ele>
        <time>2014-04-13T09:46:06Z</time>
      </trkpt>
      <trkpt lat="43.52546" lon="3.27937">
        <ele>113.57</ele>
        <time>2014-04-13T09:46:07Z</time>
      </trkpt>
      <trkpt lat="43.52565" lon="3.27926">
        <ele>113.09</ele>
        <time>2014-04-13T09:46:08Z</time>
      </trkpt>
      <trkpt lat="43.52584" lon="3.27912">
        <ele>112.61</ele>
        <time>2014-04-13T09:46:09Z</time>
      </trkpt>
      <trkpt lat="43.52694" lon="3.27821">
        <ele>116.94</ele>
        <time>2014-04-13T09:46:15Z</time>
      </trkpt>
      <trkpt lat="43.52712" lon="3.27812">
        <ele>116.94</ele>
        <time>2014-04-13T09:46:16Z</time>
      </trkpt>
      <trkpt lat="43.5273" lon="3.27807">
        <ele>116.94</ele>
        <time>2014-04-13T09:46:17Z</time>
      </trkpt>
      <trkpt lat="43.52747" lon="3.27802">
        <ele>117.42</ele>
        <time>2014-04-13T09:46:18Z</time>
      </trkpt>
      <trkpt lat="43.52761" lon="3.27795">
        <ele>117.9</ele>
        <time>2014-04-13T09:46:19Z</time>
      </trkpt>
      <trkpt lat="43.52774" lon="3.27788">
        <ele>118.38</ele>
        <time>2014-04-13T09:46:20Z</time>
      </trkpt>
      <trkpt lat="43.52785" lon="3.27784">
        <ele>118.38</ele>
        <time>2014-04-13T09:46:21Z</time>
      </trkpt>
      <trkpt lat="43.52795" lon="3.27786">
        <ele>118.86</ele>
        <time>2014-04-13T09:46:22Z</time>
      </trkpt>
      <trkpt lat="43.52805" lon="3.27795">
        <ele>119.34</ele>
        <time>2014-04-13T09:46:23Z</time>
      </trkpt>
      <trkpt lat="43.52815" lon="3.27806">
        <ele>119.34</ele>
        <time>2014-04-13T09:46:24Z</time>
      </trkpt>
      <trkpt lat="43.52824" lon="3.27816">
        <ele>119.34</ele>
        <time>2014-04-13T09:46:25Z</time>
      </trkpt>
      <trkpt lat="43.52834" lon="3.27821">
        <ele>119.34</ele>
        <time>2014-04-13T09:46:26Z</time>
      </trkpt>
      <trkpt lat="43.52845" lon="3.27818">
        <ele>118.38</ele>
        <time>2014-04-13T09:46:27Z</time>
      </trkpt>
      <trkpt lat="43.52857" lon="3.27809">
        <ele>117.9</ele>
        <time>2014-04-13T09:46:28Z</time>
      </trkpt>
      <trkpt lat="43.52871" lon="3.27795">
        <ele>118.38</ele>
        <time>2014-04-13T09:46:29Z</time>
      </trkpt>
      <trkpt lat="43.52887" lon="3.27779">
        <ele>117.9</ele>
        <time>2014-04-13T09:46:30Z</time>
      </trkpt>
      <trkpt lat="43.52904" lon="3.27763">
        <ele>118.86</ele>
        <time>2014-04-13T09:46:31Z</time>
      </trkpt>
      <trkpt lat="43.52957" lon="3.27719">
        <ele>119.82</ele>
        <time>2014-04-13T09:46:34Z</time>
      </trkpt>
      <trkpt lat="43.52976" lon="3.27709">
        <ele>119.82</ele>
        <time>2014-04-13T09:46:35Z</time>
      </trkpt>
      <trkpt lat="43.53195" lon="3.27595">
        <ele>125.11</ele>
        <time>2014-04-13T09:46:46Z</time>
      </trkpt>
      <trkpt lat="43.53333" lon="3.27495">
        <ele>126.55</ele>
        <time>2014-04-13T09:46:54Z</time>
      </trkpt>
      <trkpt lat="43.53347" lon="3.27492">
        <ele>127.03</ele>
        <time>2014-04-13T09:46:55Z</time>
      </trkpt>
      <trkpt lat="43.53361" lon="3.27495">
        <ele>127.51</ele>
        <time>2014-04-13T09:46:56Z</time>
      </trkpt>
      <trkpt lat="43.53376" lon="3.27501">
        <ele>127.99</ele>
        <time>2014-04-13T09:46:57Z</time>
      </trkpt>
      <trkpt lat="43.53391" lon="3.27505">
        <ele>128.47</ele>
        <time>2014-04-13T09:46:58Z</time>
      </trkpt>
      <trkpt lat="43.53408" lon="3.27503">
        <ele>129.43</ele>
        <time>2014-04-13T09:46:59Z</time>
      </trkpt>
      <trkpt lat="43.53425" lon="3.27497">
        <ele>129.92</ele>
        <time>2014-04-13T09:47:00Z</time>
      </trkpt>
      <trkpt lat="43.53442" lon="3.27488">
        <ele>130.4</ele>
        <time>2014-04-13T09:47:01Z</time>
      </trkpt>
      <trkpt lat="43.53458" lon="3.27479">
        <ele>130.88</ele>
        <time>2014-04-13T09:47:02Z</time>
      </trkpt>
      <trkpt lat="43.5362" lon="3.27384">
        <ele>134.72</ele>
        <time>2014-04-13T09:47:12Z</time>
      </trkpt>
      <trkpt lat="43.53635" lon="3.27377">
        <ele>134.72</ele>
        <time>2014-04-13T09:47:13Z</time>
      </trkpt>
      <trkpt lat="43.53649" lon="3.27374">
        <ele>135.2</ele>
        <time>2014-04-13T09:47:14Z</time>
      </trkpt>
      <trkpt lat="43.53665" lon="3.27374">
        <ele>135.68</ele>
        <time>2014-04-13T09:47:15Z</time>
      </trkpt>
      <trkpt lat="43.53682" lon="3.27377">
        <ele>135.68</ele>
        <time>2014-04-13T09:47:16Z</time>
      </trkpt>
      <trkpt lat="43.537" lon="3.2738">
        <ele>135.68</ele>
        <time>2014-04-13T09:47:17Z</time>
      </trkpt>
      <trkpt lat="43.53874" lon="3.2742">
        <ele>140.01</ele>
        <time>2014-04-13T09:47:26Z</time>
      </trkpt>
      <trkpt lat="43.53894" lon="3.27418">
        <ele>140.49</ele>
        <time>2014-04-13T09:47:27Z</time>
      </trkpt>
      <trkpt lat="43.54023" lon="3.27372">
        <ele>138.09</ele>
        <time>2014-04-13T09:47:34Z</time>
      </trkpt>
      <trkpt lat="43.54039" lon="3.27358">
        <ele>139.05</ele>
        <time>2014-04-13T09:47:35Z</time>
      </trkpt>
      <trkpt lat="43.54054" lon="3.27343">
        <ele>140.01</ele>
        <time>2014-04-13T09:47:36Z</time>
      </trkpt>
      <trkpt lat="43.54137" lon="3.27257">
        <ele>141.45</ele>
        <time>2014-04-13T09:47:42Z</time>
      </trkpt>
      <trkpt lat="43.54152" lon="3.27249">
        <ele>141.45</ele>
        <time>2014-04-13T09:47:43Z</time>
      </trkpt>
      <trkpt lat="43.54168" lon="3.27243">
        <ele>141.93</ele>
        <time>2014-04-13T09:47:44Z</time>
      </trkpt>
      <trkpt lat="43.54232" lon="3.27227">
        <ele>143.85</ele>
        <time>2014-04-13T09:47:48Z</time>
      </trkpt>
      <trkpt lat="43.54246" lon="3.27227">
        <ele>144.34</ele>
        <time>2014-04-13T09:47:49Z</time>
      </trkpt>
      <trkpt lat="43.5426" lon="3.27232">
        <ele>144.34</ele>
        <time>2014-04-13T09:47:50Z</time>
      </trkpt>
      <trkpt lat="43.54274" lon="3.27241">
        <ele>144.34</ele>
        <time>2014-04-13T09:47:51Z</time>
      </trkpt>
      <trkpt lat="43.54288" lon="3.27251">
        <ele>144.34</ele>
        <time>2014-04-13T09:47:52Z</time>
      </trkpt>
      <trkpt lat="43.54304" lon="3.27258">
        <ele>144.34</ele>
        <time>2014-04-13T09:47:53Z</time>
      </trkpt>
      <trkpt lat="43.54322" lon="3.27263">
        <ele>144.34</ele>
        <time>2014-04-13T09:47:54Z</time>
      </trkpt>
      <trkpt lat="43.54342" lon="3.27265">
        <ele>144.82</ele>
        <time>2014-04-13T09:47:55Z</time>
      </trkpt>
      <trkpt lat="43.54362" lon="3.27266">
        <ele>145.3</ele>
        <time>2014-04-13T09:47:56Z</time>
      </trkpt>
      <trkpt lat="43.54587" lon="3.2727">
        <ele>150.1</ele>
        <time>2014-04-13T09:48:07Z</time>
      </trkpt>
      <trkpt lat="43.54736" lon="3.27285">
        <ele>156.35</ele>
        <time>2014-04-13T09:48:14Z</time>
      </trkpt>
      <trkpt lat="43.54793" lon="3.27274">
        <ele>159.72</ele>
        <time>2014-04-13T09:48:17Z</time>
      </trkpt>
      <trkpt lat="43.5481" lon="3.27266">
        <ele>160.68</ele>
        <time>2014-04-13T09:48:18Z</time>
      </trkpt>
      <trkpt lat="43.54851" lon="3.27243">
        <ele>164.52</ele>
        <time>2014-04-13T09:48:21Z</time>
      </trkpt>
      <trkpt lat="43.54863" lon="3.27241">
        <ele>165.48</ele>
        <time>2014-04-13T09:48:22Z</time>
      </trkpt>
      <trkpt lat="43.54874" lon="3.27243">
        <ele>166.45</ele>
        <time>2014-04-13T09:48:23Z</time>
      </trkpt>
      <trkpt lat="43.54884" lon="3.2725">
        <ele>166.93</ele>
        <time>2014-04-13T09:48:24Z</time>
      </trkpt>
      <trkpt lat="43.54892" lon="3.27258">
        <ele>168.37</ele>
        <time>2014-04-13T09:48:25Z</time>
      </trkpt>
      <trkpt lat="43.54898" lon="3.27266">
        <ele>168.85</ele>
        <time>2014-04-13T09:48:26Z</time>
      </trkpt>
      <trkpt lat="43.549" lon="3.27274">
        <ele>169.81</ele>
        <time>2014-04-13T09:48:27Z</time>
      </trkpt>
      <trkpt lat="43.549" lon="3.27283">
        <ele>169.81</ele>
        <time>2014-04-13T09:48:28Z</time>
      </trkpt>
      <trkpt lat="43.54899" lon="3.2729">
        <ele>168.85</ele>
        <time>2014-04-13T09:48:29Z</time>
      </trkpt>
      <trkpt lat="43.54898" lon="3.27296">
        <ele>167.89</ele>
        <time>2014-04-13T09:48:30Z</time>
      </trkpt>
      <trkpt lat="43.54897" lon="3.27298">
        <ele>167.41</ele>
        <time>2014-04-13T09:48:31Z</time>
      </trkpt>
      <trkpt lat="43.54897" lon="3.27294">
        <ele>167.41</ele>
        <time>2014-04-13T09:48:44Z</time>
      </trkpt>
      <trkpt lat="43.54897" lon="3.2729">
        <ele>166.45</ele>
        <time>2014-04-13T09:48:55Z</time>
      </trkpt>
      <trkpt lat="43.54897" lon="3.27287">
        <ele>166.45</ele>
        <time>2014-04-13T09:48:56Z</time>
      </trkpt>
      <trkpt lat="43.54896" lon="3.27283">
        <ele>166.45</ele>
        <time>2014-04-13T09:48:57Z</time>
      </trkpt>
      <trkpt lat="43.54895" lon="3.27279">
        <ele>166.45</ele>
        <time>2014-04-13T09:48:58Z</time>
      </trkpt>
      <trkpt lat="43.54894" lon="3.27274">
        <ele>166.45</ele>
        <time>2014-04-13T09:48:59Z</time>
      </trkpt>
      <trkpt lat="43.54894" lon="3.27271">
        <ele>166.45</ele>
        <time>2014-04-13T09:49:00Z</time>
      </trkpt>
      <trkpt lat="43.54895" lon="3.27268">
        <ele>166.93</ele>
        <time>2014-04-13T09:49:01Z</time>
      </trkpt>
      <trkpt lat="43.54896" lon="3.27266">
        <ele>166.93</ele>
        <time>2014-04-13T09:49:02Z</time>
      </trkpt>
      <trkpt lat="43.54898" lon="3.27265">
        <ele>167.41</ele>
        <time>2014-04-13T09:49:03Z</time>
      </trkpt>
      <trkpt lat="43.54901" lon="3.27266">
        <ele>167.41</ele>
        <time>2014-04-13T09:49:04Z</time>
      </trkpt>
      <trkpt lat="43.54906" lon="3.27269">
        <ele>167.41</ele>
        <time>2014-04-13T09:49:05Z</time>
      </trkpt>
      <trkpt lat="43.54913" lon="3.27272">
        <ele>167.89</ele>
        <time>2014-04-13T09:49:06Z</time>
      </trkpt>
      <trkpt lat="43.54922" lon="3.27272">
        <ele>168.37</ele>
        <time>2014-04-13T09:49:07Z</time>
      </trkpt>
      <trkpt lat="43.54932" lon="3.2727">
        <ele>168.85</ele>
        <time>2014-04-13T09:49:08Z</time>
      </trkpt>
      <trkpt lat="43.54953" lon="3.27266">
        <ele>169.81</ele>
        <time>2014-04-13T09:49:10Z</time>
      </trkpt>
      <trkpt lat="43.54963" lon="3.27266">
        <ele>169.81</ele>
        <time>2014-04-13T09:49:11Z</time>
      </trkpt>
      <trkpt lat="43.54972" lon="3.2727">
        <ele>170.29</ele>
        <time>2014-04-13T09:49:12Z</time>
      </trkpt>
      <trkpt lat="43.54981" lon="3.27277">
        <ele>170.29</ele>
        <time>2014-04-13T09:49:13Z</time>
      </trkpt>
      <trkpt lat="43.54989" lon="3.27288">
        <ele>170.77</ele>
        <time>2014-04-13T09:49:14Z</time>
      </trkpt>
      <trkpt lat="43.54995" lon="3.27302">
        <ele>171.73</ele>
        <time>2014-04-13T09:49:15Z</time>
      </trkpt>
      <trkpt lat="43.54999" lon="3.27318">
        <ele>172.21</ele>
        <time>2014-04-13T09:49:16Z</time>
      </trkpt>
      <trkpt lat="43.55002" lon="3.27336">
        <ele>173.17</ele>
        <time>2014-04-13T09:49:17Z</time>
      </trkpt>
      <trkpt lat="43.55005" lon="3.27353">
        <ele>174.14</ele>
        <time>2014-04-13T09:49:18Z</time>
      </trkpt>
      <trkpt lat="43.55007" lon="3.27388">
        <ele>175.58</ele>
        <time>2014-04-13T09:49:20Z</time>
      </trkpt>
      <trkpt lat="43.55005" lon="3.27403">
        <ele>176.54</ele>
        <time>2014-04-13T09:49:21Z</time>
      </trkpt>
      <trkpt lat="43.55001" lon="3.27414">
        <ele>177.02</ele>
        <time>2014-04-13T09:49:22Z</time>
      </trkpt>
      <trkpt lat="43.54997" lon="3.27424">
        <ele>177.98</ele>
        <time>2014-04-13T09:49:23Z</time>
      </trkpt>
      <trkpt lat="43.54996" lon="3.27432">
        <ele>178.46</ele>
        <time>2014-04-13T09:49:24Z</time>
      </trkpt>
      <trkpt lat="43.54998" lon="3.27438">
        <ele>178.94</ele>
        <time>2014-04-13T09:49:25Z</time>
      </trkpt>
      <trkpt lat="43.55003" lon="3.27437">
        <ele>179.42</ele>
        <time>2014-04-13T09:49:26Z</time>
      </trkpt>
      <trkpt lat="43.55011" lon="3.27429">
        <ele>179.9</ele>
        <time>2014-04-13T09:49:27Z</time>
      </trkpt>
      <trkpt lat="43.55019" lon="3.27416">
        <ele>180.38</ele>
        <time>2014-04-13T09:49:28Z</time>
      </trkpt>
      <trkpt lat="43.55026" lon="3.27401">
        <ele>180.87</ele>
        <time>2014-04-13T09:49:29Z</time>
      </trkpt>
      <trkpt lat="43.55031" lon="3.27385">
        <ele>181.83</ele>
        <time>2014-04-13T09:49:30Z</time>
      </trkpt>
      <trkpt lat="43.55034" lon="3.27369">
        <ele>182.31</ele>
        <time>2014-04-13T09:49:31Z</time>
      </trkpt>
      <trkpt lat="43.55034" lon="3.27356">
        <ele>183.27</ele>
        <time>2014-04-13T09:49:32Z</time>
      </trkpt>
      <trkpt lat="43.55033" lon="3.27346">
        <ele>183.75</ele>
        <time>2014-04-13T09:49:33Z</time>
      </trkpt>
      <trkpt lat="43.55034" lon="3.27338">
        <ele>184.23</ele>
        <time>2014-04-13T09:49:34Z</time>
      </trkpt>
      <trkpt lat="43.55038" lon="3.27335">
        <ele>184.71</ele>
        <time>2014-04-13T09:49:35Z</time>
      </trkpt>
      <trkpt lat="43.55042" lon="3.27337">
        <ele>185.19</ele>
        <time>2014-04-13T09:49:36Z</time>
      </trkpt>
      <trkpt lat="43.55045" lon="3.27343">
        <ele>185.67</ele>
        <time>2014-04-13T09:49:37Z</time>
      </trkpt>
      <trkpt lat="43.55046" lon="3.27352">
        <ele>186.15</ele>
        <time>2014-04-13T09:49:38Z</time>
      </trkpt>
      <trkpt lat="43.55045" lon="3.27365">
        <ele>186.63</ele>
        <time>2014-04-13T09:49:39Z</time>
      </trkpt>
      <trkpt lat="43.55044" lon="3.27378">
        <ele>187.11</ele>
        <time>2014-04-13T09:49:40Z</time>
      </trkpt>
      <trkpt lat="43.55041" lon="3.27416">
        <ele>189.04</ele>
        <time>2014-04-13T09:49:43Z</time>
      </trkpt>
      <trkpt lat="43.55038" lon="3.27426">
        <ele>190</ele>
        <time>2014-04-13T09:49:44Z</time>
      </trkpt>
      <trkpt lat="43.55033" lon="3.27445">
        <ele>190.48</ele>
        <time>2014-04-13T09:49:46Z</time>
      </trkpt>
      <trkpt lat="43.55032" lon="3.27453">
        <ele>191.44</ele>
        <time>2014-04-13T09:49:47Z</time>
      </trkpt>
      <trkpt lat="43.55034" lon="3.2746">
        <ele>191.44</ele>
        <time>2014-04-13T09:49:48Z</time>
      </trkpt>
      <trkpt lat="43.55038" lon="3.27463">
        <ele>191.92</ele>
        <time>2014-04-13T09:49:49Z</time>
      </trkpt>
      <trkpt lat="43.55045" lon="3.27457">
        <ele>191.92</ele>
        <time>2014-04-13T09:49:50Z</time>
      </trkpt>
      <trkpt lat="43.55051" lon="3.27446">
        <ele>191.92</ele>
        <time>2014-04-13T09:49:51Z</time>
      </trkpt>
      <trkpt lat="43.55054" lon="3.27431">
        <ele>191.92</ele>
        <time>2014-04-13T09:49:52Z</time>
      </trkpt>
      <trkpt lat="43.55058" lon="3.27414">
        <ele>192.4</ele>
        <time>2014-04-13T09:49:53Z</time>
      </trkpt>
      <trkpt lat="43.55061" lon="3.27393">
        <ele>194.8</ele>
        <time>2014-04-13T09:49:54Z</time>
      </trkpt>
      <trkpt lat="43.55074" lon="3.27338">
        <ele>198.65</ele>
        <time>2014-04-13T09:49:57Z</time>
      </trkpt>
      <trkpt lat="43.55082" lon="3.27325">
        <ele>199.61</ele>
        <time>2014-04-13T09:49:58Z</time>
      </trkpt>
      <trkpt lat="43.55092" lon="3.27317">
        <ele>200.57</ele>
        <time>2014-04-13T09:49:59Z</time>
      </trkpt>
      <trkpt lat="43.55106" lon="3.27309">
        <ele>202.01</ele>
        <time>2014-04-13T09:50:00Z</time>
      </trkpt>
      <trkpt lat="43.55121" lon="3.27303">
        <ele>203.46</ele>
        <time>2014-04-13T09:50:01Z</time>
      </trkpt>
      <trkpt lat="43.55137" lon="3.27298">
        <ele>204.9</ele>
        <time>2014-04-13T09:50:02Z</time>
      </trkpt>
      <trkpt lat="43.55155" lon="3.27294">
        <ele>206.34</ele>
        <time>2014-04-13T09:50:03Z</time>
      </trkpt>
      <trkpt lat="43.55172" lon="3.27292">
        <ele>207.78</ele>
        <time>2014-04-13T09:50:04Z</time>
      </trkpt>
      <trkpt lat="43.55234" lon="3.27286">
        <ele>213.07</ele>
        <time>2014-04-13T09:50:08Z</time>
      </trkpt>
      <trkpt lat="43.55248" lon="3.27289">
        <ele>214.51</ele>
        <time>2014-04-13T09:50:09Z</time>
      </trkpt>
      <trkpt lat="43.55262" lon="3.27297">
        <ele>215.47</ele>
        <time>2014-04-13T09:50:10Z</time>
      </trkpt>
      <trkpt lat="43.55275" lon="3.27308">
        <ele>215.95</ele>
        <time>2014-04-13T09:50:11Z</time>
      </trkpt>
      <trkpt lat="43.55287" lon="3.27321">
        <ele>216.43</ele>
        <time>2014-04-13T09:50:12Z</time>
      </trkpt>
      <trkpt lat="43.55296" lon="3.27337">
        <ele>216.91</ele>
        <time>2014-04-13T09:50:13Z</time>
      </trkpt>
      <trkpt lat="43.55304" lon="3.27353">
        <ele>216.91</ele>
        <time>2014-04-13T09:50:14Z</time>
      </trkpt>
      <trkpt lat="43.55314" lon="3.27366">
        <ele>217.88</ele>
        <time>2014-04-13T09:50:15Z</time>
      </trkpt>
      <trkpt lat="43.55326" lon="3.27377">
        <ele>218.84</ele>
        <time>2014-04-13T09:50:16Z</time>
      </trkpt>
      <trkpt lat="43.5534" lon="3.27382">
        <ele>220.28</ele>
        <time>2014-04-13T09:50:17Z</time>
      </trkpt>
      <trkpt lat="43.55357" lon="3.27384">
        <ele>220.76</ele>
        <time>2014-04-13T09:50:18Z</time>
      </trkpt>
      <trkpt lat="43.55374" lon="3.27386">
        <ele>221.24</ele>
        <time>2014-04-13T09:50:19Z</time>
      </trkpt>
      <trkpt lat="43.55409" lon="3.27393">
        <ele>222.2</ele>
        <time>2014-04-13T09:50:21Z</time>
      </trkpt>
      <trkpt lat="43.55426" lon="3.27401">
        <ele>222.68</ele>
        <time>2014-04-13T09:50:22Z</time>
      </trkpt>
      <trkpt lat="43.55456" lon="3.27418">
        <ele>223.64</ele>
        <time>2014-04-13T09:50:24Z</time>
      </trkpt>
      <trkpt lat="43.5547" lon="3.27418">
        <ele>224.12</ele>
        <time>2014-04-13T09:50:25Z</time>
      </trkpt>
      <trkpt lat="43.55485" lon="3.27415">
        <ele>224.61</ele>
        <time>2014-04-13T09:50:26Z</time>
      </trkpt>
      <trkpt lat="43.55522" lon="3.27402">
        <ele>226.53</ele>
        <time>2014-04-13T09:50:29Z</time>
      </trkpt>
      <trkpt lat="43.55529" lon="3.27392">
        <ele>226.53</ele>
        <time>2014-04-13T09:50:30Z</time>
      </trkpt>
      <trkpt lat="43.55532" lon="3.27376">
        <ele>226.53</ele>
        <time>2014-04-13T09:50:31Z</time>
      </trkpt>
      <trkpt lat="43.55529" lon="3.27356">
        <ele>227.49</ele>
        <time>2014-04-13T09:50:32Z</time>
      </trkpt>
      <trkpt lat="43.55523" lon="3.27334">
        <ele>228.45</ele>
        <time>2014-04-13T09:50:33Z</time>
      </trkpt>
      <trkpt lat="43.55515" lon="3.27311">
        <ele>229.41</ele>
        <time>2014-04-13T09:50:34Z</time>
      </trkpt>
      <trkpt lat="43.55504" lon="3.27287">
        <ele>231.81</ele>
        <time>2014-04-13T09:50:35Z</time>
      </trkpt>
      <trkpt lat="43.55493" lon="3.27263">
        <ele>233.26</ele>
        <time>2014-04-13T09:50:36Z</time>
      </trkpt>
      <trkpt lat="43.55473" lon="3.27213">
        <ele>236.62</ele>
        <time>2014-04-13T09:50:38Z</time>
      </trkpt>
      <trkpt lat="43.55467" lon="3.2719">
        <ele>237.58</ele>
        <time>2014-04-13T09:50:39Z</time>
      </trkpt>
      <trkpt lat="43.55459" lon="3.27148">
        <ele>240.95</ele>
        <time>2014-04-13T09:50:42Z</time>
      </trkpt>
      <trkpt lat="43.5546" lon="3.27141">
        <ele>241.43</ele>
        <time>2014-04-13T09:50:43Z</time>
      </trkpt>
      <trkpt lat="43.55464" lon="3.27139">
        <ele>242.39</ele>
        <time>2014-04-13T09:50:44Z</time>
      </trkpt>
      <trkpt lat="43.55468" lon="3.2714">
        <ele>242.87</ele>
        <time>2014-04-13T09:50:45Z</time>
      </trkpt>
      <trkpt lat="43.55472" lon="3.27147">
        <ele>243.35</ele>
        <time>2014-04-13T09:50:46Z</time>
      </trkpt>
      <trkpt lat="43.55476" lon="3.27159">
        <ele>243.83</ele>
        <time>2014-04-13T09:50:47Z</time>
      </trkpt>
      <trkpt lat="43.5548" lon="3.27174">
        <ele>243.83</ele>
        <time>2014-04-13T09:50:48Z</time>
      </trkpt>
      <trkpt lat="43.55488" lon="3.2719">
        <ele>243.83</ele>
        <time>2014-04-13T09:50:49Z</time>
      </trkpt>
      <trkpt lat="43.55499" lon="3.27205">
        <ele>244.31</ele>
        <time>2014-04-13T09:50:50Z</time>
      </trkpt>
      <trkpt lat="43.55511" lon="3.27219">
        <ele>245.27</ele>
        <time>2014-04-13T09:50:51Z</time>
      </trkpt>
      <trkpt lat="43.55525" lon="3.27232">
        <ele>246.72</ele>
        <time>2014-04-13T09:50:52Z</time>
      </trkpt>
      <trkpt lat="43.55541" lon="3.27244">
        <ele>247.68</ele>
        <time>2014-04-13T09:50:53Z</time>
      </trkpt>
      <trkpt lat="43.55556" lon="3.27254">
        <ele>248.64</ele>
        <time>2014-04-13T09:50:54Z</time>
      </trkpt>
      <trkpt lat="43.5557" lon="3.27261">
        <ele>250.08</ele>
        <time>2014-04-13T09:50:55Z</time>
      </trkpt>
      <trkpt lat="43.55585" lon="3.27267">
        <ele>251.04</ele>
        <time>2014-04-13T09:50:56Z</time>
      </trkpt>
      <trkpt lat="43.556" lon="3.2727">
        <ele>252</ele>
        <time>2014-04-13T09:50:57Z</time>
      </trkpt>
      <trkpt lat="43.55615" lon="3.27269">
        <ele>253.44</ele>
        <time>2014-04-13T09:50:58Z</time>
      </trkpt>
      <trkpt lat="43.55632" lon="3.27265">
        <ele>254.41</ele>
        <time>2014-04-13T09:50:59Z</time>
      </trkpt>
      <trkpt lat="43.55649" lon="3.27261">
        <ele>255.85</ele>
        <time>2014-04-13T09:51:00Z</time>
      </trkpt>
      <trkpt lat="43.55705" lon="3.27254">
        <ele>259.21</ele>
        <time>2014-04-13T09:51:04Z</time>
      </trkpt>
      <trkpt lat="43.55712" lon="3.2726">
        <ele>260.17</ele>
        <time>2014-04-13T09:51:05Z</time>
      </trkpt>
      <trkpt lat="43.55717" lon="3.27274">
        <ele>259.69</ele>
        <time>2014-04-13T09:51:06Z</time>
      </trkpt>
      <trkpt lat="43.55719" lon="3.27291">
        <ele>260.17</ele>
        <time>2014-04-13T09:51:07Z</time>
      </trkpt>
      <trkpt lat="43.55722" lon="3.27312">
        <ele>261.14</ele>
        <time>2014-04-13T09:51:08Z</time>
      </trkpt>
      <trkpt lat="43.55725" lon="3.27331">
        <ele>262.1</ele>
        <time>2014-04-13T09:51:09Z</time>
      </trkpt>
      <trkpt lat="43.55729" lon="3.27348">
        <ele>262.58</ele>
        <time>2014-04-13T09:51:10Z</time>
      </trkpt>
      <trkpt lat="43.55736" lon="3.27364">
        <ele>263.06</ele>
        <time>2014-04-13T09:51:11Z</time>
      </trkpt>
      <trkpt lat="43.55747" lon="3.27375">
        <ele>263.54</ele>
        <time>2014-04-13T09:51:12Z</time>
      </trkpt>
      <trkpt lat="43.5576" lon="3.27381">
        <ele>264.02</ele>
        <time>2014-04-13T09:51:13Z</time>
      </trkpt>
      <trkpt lat="43.55774" lon="3.27384">
        <ele>264.5</ele>
        <time>2014-04-13T09:51:14Z</time>
      </trkpt>
      <trkpt lat="43.55789" lon="3.27386">
        <ele>264.5</ele>
        <time>2014-04-13T09:51:15Z</time>
      </trkpt>
      <trkpt lat="43.55803" lon="3.27389">
        <ele>264.5</ele>
        <time>2014-04-13T09:51:16Z</time>
      </trkpt>
      <trkpt lat="43.55815" lon="3.27396">
        <ele>264.98</ele>
        <time>2014-04-13T09:51:17Z</time>
      </trkpt>
      <trkpt lat="43.55825" lon="3.27408">
        <ele>264.98</ele>
        <time>2014-04-13T09:51:18Z</time>
      </trkpt>
      <trkpt lat="43.55832" lon="3.27426">
        <ele>264.5</ele>
        <time>2014-04-13T09:51:19Z</time>
      </trkpt>
      <trkpt lat="43.55838" lon="3.27447">
        <ele>264.02</ele>
        <time>2014-04-13T09:51:20Z</time>
      </trkpt>
      <trkpt lat="43.55842" lon="3.27468">
        <ele>263.06</ele>
        <time>2014-04-13T09:51:21Z</time>
      </trkpt>
      <trkpt lat="43.55846" lon="3.27488">
        <ele>262.58</ele>
        <time>2014-04-13T09:51:22Z</time>
      </trkpt>
      <trkpt lat="43.5585" lon="3.27504">
        <ele>262.1</ele>
        <time>2014-04-13T09:51:23Z</time>
      </trkpt>
      <trkpt lat="43.55857" lon="3.27513">
        <ele>261.62</ele>
        <time>2014-04-13T09:51:24Z</time>
      </trkpt>
      <trkpt lat="43.55867" lon="3.27517">
        <ele>261.14</ele>
        <time>2014-04-13T09:51:25Z</time>
      </trkpt>
      <trkpt lat="43.55879" lon="3.27514">
        <ele>260.17</ele>
        <time>2014-04-13T09:51:26Z</time>
      </trkpt>
      <trkpt lat="43.55893" lon="3.27505">
        <ele>260.17</ele>
        <time>2014-04-13T09:51:27Z</time>
      </trkpt>
      <trkpt lat="43.55908" lon="3.27495">
        <ele>260.17</ele>
        <time>2014-04-13T09:51:28Z</time>
      </trkpt>
      <trkpt lat="43.55923" lon="3.27484">
        <ele>259.69</ele>
        <time>2014-04-13T09:51:29Z</time>
      </trkpt>
      <trkpt lat="43.55937" lon="3.27474">
        <ele>259.21</ele>
        <time>2014-04-13T09:51:30Z</time>
      </trkpt>
      <trkpt lat="43.5595" lon="3.27468">
        <ele>257.77</ele>
        <time>2014-04-13T09:51:31Z</time>
      </trkpt>
      <trkpt lat="43.55964" lon="3.27466">
        <ele>257.29</ele>
        <time>2014-04-13T09:51:32Z</time>
      </trkpt>
      <trkpt lat="43.55979" lon="3.2747">
        <ele>257.29</ele>
        <time>2014-04-13T09:51:33Z</time>
      </trkpt>
      <trkpt lat="43.55996" lon="3.27476">
        <ele>256.33</ele>
        <time>2014-04-13T09:51:34Z</time>
      </trkpt>
      <trkpt lat="43.56011" lon="3.27482">
        <ele>255.85</ele>
        <time>2014-04-13T09:51:35Z</time>
      </trkpt>
      <trkpt lat="43.56025" lon="3.2749">
        <ele>255.37</ele>
        <time>2014-04-13T09:51:36Z</time>
      </trkpt>
      <trkpt lat="43.56038" lon="3.27499">
        <ele>255.37</ele>
        <time>2014-04-13T09:51:37Z</time>
      </trkpt>
      <trkpt lat="43.56047" lon="3.27515">
        <ele>254.89</ele>
        <time>2014-04-13T09:51:38Z</time>
      </trkpt>
      <trkpt lat="43.56055" lon="3.27533">
        <ele>253.44</ele>
        <time>2014-04-13T09:51:39Z</time>
      </trkpt>
      <trkpt lat="43.56061" lon="3.27554">
        <ele>253.44</ele>
        <time>2014-04-13T09:51:40Z</time>
      </trkpt>
      <trkpt lat="43.56068" lon="3.27574">
        <ele>252.96</ele>
        <time>2014-04-13T09:51:41Z</time>
      </trkpt>
      <trkpt lat="43.56075" lon="3.27591">
        <ele>252.96</ele>
        <time>2014-04-13T09:51:42Z</time>
      </trkpt>
      <trkpt lat="43.56084" lon="3.27606">
        <ele>252.48</ele>
        <time>2014-04-13T09:51:43Z</time>
      </trkpt>
      <trkpt lat="43.56095" lon="3.27618">
        <ele>252</ele>
        <time>2014-04-13T09:51:44Z</time>
      </trkpt>
      <trkpt lat="43.56106" lon="3.27629">
        <ele>252.48</ele>
        <time>2014-04-13T09:51:45Z</time>
      </trkpt>
      <trkpt lat="43.56119" lon="3.27638">
        <ele>252.96</ele>
        <time>2014-04-13T09:51:46Z</time>
      </trkpt>
      <trkpt lat="43.56155" lon="3.27661">
        <ele>253.44</ele>
        <time>2014-04-13T09:51:49Z</time>
      </trkpt>
      <trkpt lat="43.56167" lon="3.27665">
        <ele>252.96</ele>
        <time>2014-04-13T09:51:50Z</time>
      </trkpt>
      <trkpt lat="43.56179" lon="3.27668">
        <ele>252.96</ele>
        <time>2014-04-13T09:51:51Z</time>
      </trkpt>
      <trkpt lat="43.56225" lon="3.27671">
        <ele>253.93</ele>
        <time>2014-04-13T09:51:55Z</time>
      </trkpt>
      <trkpt lat="43.56237" lon="3.2767">
        <ele>254.41</ele>
        <time>2014-04-13T09:51:56Z</time>
      </trkpt>
      <trkpt lat="43.56287" lon="3.27656">
        <ele>256.33</ele>
        <time>2014-04-13T09:52:01Z</time>
      </trkpt>
      <trkpt lat="43.56292" lon="3.27648">
        <ele>256.81</ele>
        <time>2014-04-13T09:52:02Z</time>
      </trkpt>
      <trkpt lat="43.56292" lon="3.27637">
        <ele>256.81</ele>
        <time>2014-04-13T09:52:03Z</time>
      </trkpt>
      <trkpt lat="43.56289" lon="3.27628">
        <ele>257.29</ele>
        <time>2014-04-13T09:52:04Z</time>
      </trkpt>
      <trkpt lat="43.56281" lon="3.27618">
        <ele>259.21</ele>
        <time>2014-04-13T09:52:05Z</time>
      </trkpt>
      <trkpt lat="43.56272" lon="3.2761">
        <ele>260.17</ele>
        <time>2014-04-13T09:52:06Z</time>
      </trkpt>
      <trkpt lat="43.56265" lon="3.27603">
        <ele>261.14</ele>
        <time>2014-04-13T09:52:07Z</time>
      </trkpt>
      <trkpt lat="43.56258" lon="3.27595">
        <ele>261.62</ele>
        <time>2014-04-13T09:52:08Z</time>
      </trkpt>
      <trkpt lat="43.56252" lon="3.27587">
        <ele>262.58</ele>
        <time>2014-04-13T09:52:09Z</time>
      </trkpt>
      <trkpt lat="43.56249" lon="3.27579">
        <ele>263.06</ele>
        <time>2014-04-13T09:52:10Z</time>
      </trkpt>
      <trkpt lat="43.56248" lon="3.27571">
        <ele>263.06</ele>
        <time>2014-04-13T09:52:11Z</time>
      </trkpt>
      <trkpt lat="43.56252" lon="3.27566">
        <ele>263.54</ele>
        <time>2014-04-13T09:52:12Z</time>
      </trkpt>
      <trkpt lat="43.56259" lon="3.27566">
        <ele>264.02</ele>
        <time>2014-04-13T09:52:13Z</time>
      </trkpt>
      <trkpt lat="43.56267" lon="3.27569">
        <ele>264.98</ele>
        <time>2014-04-13T09:52:14Z</time>
      </trkpt>
      <trkpt lat="43.56276" lon="3.27575">
        <ele>265.46</ele>
        <time>2014-04-13T09:52:15Z</time>
      </trkpt>
      <trkpt lat="43.56286" lon="3.27581">
        <ele>266.42</ele>
        <time>2014-04-13T09:52:16Z</time>
      </trkpt>
      <trkpt lat="43.56355" lon="3.27629">
        <ele>271.23</ele>
        <time>2014-04-13T09:52:22Z</time>
      </trkpt>
      <trkpt lat="43.56362" lon="3.27641">
        <ele>272.19</ele>
        <time>2014-04-13T09:52:23Z</time>
      </trkpt>
      <trkpt lat="43.56366" lon="3.27656">
        <ele>272.67</ele>
        <time>2014-04-13T09:52:24Z</time>
      </trkpt>
      <trkpt lat="43.56368" lon="3.27673">
        <ele>273.15</ele>
        <time>2014-04-13T09:52:25Z</time>
      </trkpt>
      <trkpt lat="43.56368" lon="3.27691">
        <ele>273.63</ele>
        <time>2014-04-13T09:52:26Z</time>
      </trkpt>
      <trkpt lat="43.56367" lon="3.27708">
        <ele>274.59</ele>
        <time>2014-04-13T09:52:27Z</time>
      </trkpt>
      <trkpt lat="43.56361" lon="3.27723">
        <ele>275.07</ele>
        <time>2014-04-13T09:52:28Z</time>
      </trkpt>
      <trkpt lat="43.56352" lon="3.27734">
        <ele>274.59</ele>
        <time>2014-04-13T09:52:29Z</time>
      </trkpt>
      <trkpt lat="43.56343" lon="3.27742">
        <ele>275.07</ele>
        <time>2014-04-13T09:52:30Z</time>
      </trkpt>
      <trkpt lat="43.56333" lon="3.27753">
        <ele>275.07</ele>
        <time>2014-04-13T09:52:31Z</time>
      </trkpt>
      <trkpt lat="43.56324" lon="3.27767">
        <ele>275.56</ele>
        <time>2014-04-13T09:52:32Z</time>
      </trkpt>
      <trkpt lat="43.56321" lon="3.27785">
        <ele>275.56</ele>
        <time>2014-04-13T09:52:33Z</time>
      </trkpt>
      <trkpt lat="43.56322" lon="3.27804">
        <ele>276.52</ele>
        <time>2014-04-13T09:52:34Z</time>
      </trkpt>
      <trkpt lat="43.56326" lon="3.27824">
        <ele>277.48</ele>
        <time>2014-04-13T09:52:35Z</time>
      </trkpt>
      <trkpt lat="43.56332" lon="3.27842">
        <ele>278.92</ele>
        <time>2014-04-13T09:52:36Z</time>
      </trkpt>
      <trkpt lat="43.56353" lon="3.27904">
        <ele>282.77</ele>
        <time>2014-04-13T09:52:41Z</time>
      </trkpt>
      <trkpt lat="43.56357" lon="3.27907">
        <ele>283.25</ele>
        <time>2014-04-13T09:52:42Z</time>
      </trkpt>
      <trkpt lat="43.56361" lon="3.27907">
        <ele>283.73</ele>
        <time>2014-04-13T09:52:43Z</time>
      </trkpt>
      <trkpt lat="43.56364" lon="3.27906">
        <ele>283.73</ele>
        <time>2014-04-13T09:52:44Z</time>
      </trkpt>
      <trkpt lat="43.56365" lon="3.27906">
        <ele>284.21</ele>
        <time>2014-04-13T09:52:45Z</time>
      </trkpt>
      <trkpt lat="43.56367" lon="3.27908">
        <ele>285.65</ele>
        <time>2014-04-13T09:52:56Z</time>
      </trkpt>
      <trkpt lat="43.56369" lon="3.2791">
        <ele>285.17</ele>
        <time>2014-04-13T09:52:57Z</time>
      </trkpt>
      <trkpt lat="43.56373" lon="3.27912">
        <ele>285.17</ele>
        <time>2014-04-13T09:52:58Z</time>
      </trkpt>
      <trkpt lat="43.56381" lon="3.27914">
        <ele>285.17</ele>
        <time>2014-04-13T09:52:59Z</time>
      </trkpt>
      <trkpt lat="43.5639" lon="3.27915">
        <ele>284.69</ele>
        <time>2014-04-13T09:53:00Z</time>
      </trkpt>
      <trkpt lat="43.564" lon="3.27914">
        <ele>284.69</ele>
        <time>2014-04-13T09:53:01Z</time>
      </trkpt>
      <trkpt lat="43.5641" lon="3.27912">
        <ele>284.21</ele>
        <time>2014-04-13T09:53:02Z</time>
      </trkpt>
      <trkpt lat="43.56421" lon="3.2791">
        <ele>283.73</ele>
        <time>2014-04-13T09:53:03Z</time>
      </trkpt>
      <trkpt lat="43.56469" lon="3.27893">
        <ele>282.28</ele>
        <time>2014-04-13T09:53:07Z</time>
      </trkpt>
      <trkpt lat="43.56483" lon="3.2788">
        <ele>281.8</ele>
        <time>2014-04-13T09:53:08Z</time>
      </trkpt>
      <trkpt lat="43.56495" lon="3.27866">
        <ele>280.84</ele>
        <time>2014-04-13T09:53:09Z</time>
      </trkpt>
      <trkpt lat="43.56508" lon="3.27852">
        <ele>279.88</ele>
        <time>2014-04-13T09:53:10Z</time>
      </trkpt>
      <trkpt lat="43.5652" lon="3.27839">
        <ele>278.92</ele>
        <time>2014-04-13T09:53:11Z</time>
      </trkpt>
      <trkpt lat="43.56597" lon="3.27759">
        <ele>276.52</ele>
        <time>2014-04-13T09:53:18Z</time>
      </trkpt>
      <trkpt lat="43.56608" lon="3.27753">
        <ele>276.52</ele>
        <time>2014-04-13T09:53:19Z</time>
      </trkpt>
      <trkpt lat="43.56619" lon="3.27747">
        <ele>276.04</ele>
        <time>2014-04-13T09:53:20Z</time>
      </trkpt>
      <trkpt lat="43.56719" lon="3.27707">
        <ele>273.15</ele>
        <time>2014-04-13T09:53:28Z</time>
      </trkpt>
      <trkpt lat="43.5673" lon="3.277">
        <ele>272.19</ele>
        <time>2014-04-13T09:53:29Z</time>
      </trkpt>
      <trkpt lat="43.56739" lon="3.27693">
        <ele>271.71</ele>
        <time>2014-04-13T09:53:30Z</time>
      </trkpt>
      <trkpt lat="43.56746" lon="3.27686">
        <ele>271.23</ele>
        <time>2014-04-13T09:53:31Z</time>
      </trkpt>
      <trkpt lat="43.56754" lon="3.27679">
        <ele>270.75</ele>
        <time>2014-04-13T09:53:32Z</time>
      </trkpt>
      <trkpt lat="43.56761" lon="3.27674">
        <ele>270.27</ele>
        <time>2014-04-13T09:53:33Z</time>
      </trkpt>
      <trkpt lat="43.56768" lon="3.27672">
        <ele>269.79</ele>
        <time>2014-04-13T09:53:34Z</time>
      </trkpt>
      <trkpt lat="43.56773" lon="3.27672">
        <ele>269.31</ele>
        <time>2014-04-13T09:53:35Z</time>
      </trkpt>
      <trkpt lat="43.56778" lon="3.27672">
        <ele>269.31</ele>
        <time>2014-04-13T09:53:36Z</time>
      </trkpt>
      <trkpt lat="43.56782" lon="3.27671">
        <ele>269.31</ele>
        <time>2014-04-13T09:53:37Z</time>
      </trkpt>
      <trkpt lat="43.56786" lon="3.27668">
        <ele>269.31</ele>
        <time>2014-04-13T09:53:38Z</time>
      </trkpt>
      <trkpt lat="43.56791" lon="3.27665">
        <ele>269.79</ele>
        <time>2014-04-13T09:53:39Z</time>
      </trkpt>
      <trkpt lat="43.56797" lon="3.27664">
        <ele>269.31</ele>
        <time>2014-04-13T09:53:40Z</time>
      </trkpt>
      <trkpt lat="43.56804" lon="3.27664">
        <ele>269.31</ele>
        <time>2014-04-13T09:53:41Z</time>
      </trkpt>
      <trkpt lat="43.56812" lon="3.27664">
        <ele>268.83</ele>
        <time>2014-04-13T09:53:42Z</time>
      </trkpt>
      <trkpt lat="43.5682" lon="3.27663">
        <ele>267.86</ele>
        <time>2014-04-13T09:53:43Z</time>
      </trkpt>
      <trkpt lat="43.56827" lon="3.27661">
        <ele>267.38</ele>
        <time>2014-04-13T09:53:44Z</time>
      </trkpt>
      <trkpt lat="43.56834" lon="3.27658">
        <ele>266.9</ele>
        <time>2014-04-13T09:53:45Z</time>
      </trkpt>
      <trkpt lat="43.5684" lon="3.27655">
        <ele>266.42</ele>
        <time>2014-04-13T09:53:46Z</time>
      </trkpt>
      <trkpt lat="43.56845" lon="3.27654">
        <ele>266.42</ele>
        <time>2014-04-13T09:53:47Z</time>
      </trkpt>
      <trkpt lat="43.5685" lon="3.27655">
        <ele>265.94</ele>
        <time>2014-04-13T09:53:48Z</time>
      </trkpt>
      <trkpt lat="43.56854" lon="3.27658">
        <ele>265.94</ele>
        <time>2014-04-13T09:53:49Z</time>
      </trkpt>
      <trkpt lat="43.56855" lon="3.27664">
        <ele>266.42</ele>
        <time>2014-04-13T09:53:50Z</time>
      </trkpt>
      <trkpt lat="43.56854" lon="3.27672">
        <ele>266.9</ele>
        <time>2014-04-13T09:53:51Z</time>
      </trkpt>
      <trkpt lat="43.56851" lon="3.27682">
        <ele>267.38</ele>
        <time>2014-04-13T09:53:52Z</time>
      </trkpt>
      <trkpt lat="43.56845" lon="3.27694">
        <ele>267.86</ele>
        <time>2014-04-13T09:53:53Z</time>
      </trkpt>
      <trkpt lat="43.56839" lon="3.27708">
        <ele>268.35</ele>
        <time>2014-04-13T09:53:54Z</time>
      </trkpt>
      <trkpt lat="43.56833" lon="3.27723">
        <ele>268.83</ele>
        <time>2014-04-13T09:53:55Z</time>
      </trkpt>
      <trkpt lat="43.56827" lon="3.27739">
        <ele>268.35</ele>
        <time>2014-04-13T09:53:56Z</time>
      </trkpt>
      <trkpt lat="43.56805" lon="3.27809">
        <ele>267.38</ele>
        <time>2014-04-13T09:54:00Z</time>
      </trkpt>
      <trkpt lat="43.56803" lon="3.27825">
        <ele>266.42</ele>
        <time>2014-04-13T09:54:01Z</time>
      </trkpt>
      <trkpt lat="43.56802" lon="3.2784">
        <ele>265.94</ele>
        <time>2014-04-13T09:54:02Z</time>
      </trkpt>
      <trkpt lat="43.56803" lon="3.27855">
        <ele>265.46</ele>
        <time>2014-04-13T09:54:03Z</time>
      </trkpt>
      <trkpt lat="43.56806" lon="3.27867">
        <ele>264.98</ele>
        <time>2014-04-13T09:54:04Z</time>
      </trkpt>
      <trkpt lat="43.56811" lon="3.27878">
        <ele>264.98</ele>
        <time>2014-04-13T09:54:05Z</time>
      </trkpt>
      <trkpt lat="43.56818" lon="3.27888">
        <ele>264.02</ele>
        <time>2014-04-13T09:54:06Z</time>
      </trkpt>
      <trkpt lat="43.56825" lon="3.27898">
        <ele>264.02</ele>
        <time>2014-04-13T09:54:07Z</time>
      </trkpt>
      <trkpt lat="43.5683" lon="3.27907">
        <ele>264.02</ele>
        <time>2014-04-13T09:54:08Z</time>
      </trkpt>
      <trkpt lat="43.56832" lon="3.27917">
        <ele>263.54</ele>
        <time>2014-04-13T09:54:09Z</time>
      </trkpt>
      <trkpt lat="43.56831" lon="3.27925">
        <ele>263.54</ele>
        <time>2014-04-13T09:54:10Z</time>
      </trkpt>
      <trkpt lat="43.56827" lon="3.27933">
        <ele>264.02</ele>
        <time>2014-04-13T09:54:11Z</time>
      </trkpt>
      <trkpt lat="43.56821" lon="3.27939">
        <ele>264.02</ele>
        <time>2014-04-13T09:54:12Z</time>
      </trkpt>
      <trkpt lat="43.56813" lon="3.27943">
        <ele>264.02</ele>
        <time>2014-04-13T09:54:13Z</time>
      </trkpt>
      <trkpt lat="43.56803" lon="3.27945">
        <ele>263.54</ele>
        <time>2014-04-13T09:54:14Z</time>
      </trkpt>
      <trkpt lat="43.56794" lon="3.27949">
        <ele>263.06</ele>
        <time>2014-04-13T09:54:15Z</time>
      </trkpt>
      <trkpt lat="43.56784" lon="3.27955">
        <ele>263.06</ele>
        <time>2014-04-13T09:54:16Z</time>
      </trkpt>
      <trkpt lat="43.56775" lon="3.27965">
        <ele>263.06</ele>
        <time>2014-04-13T09:54:17Z</time>
      </trkpt>
      <trkpt lat="43.56768" lon="3.27978">
        <ele>263.06</ele>
        <time>2014-04-13T09:54:18Z</time>
      </trkpt>
      <trkpt lat="43.56762" lon="3.27992">
        <ele>263.06</ele>
        <time>2014-04-13T09:54:19Z</time>
      </trkpt>
      <trkpt lat="43.56758" lon="3.28006">
        <ele>263.54</ele>
        <time>2014-04-13T09:54:20Z</time>
      </trkpt>
      <trkpt lat="43.56756" lon="3.28019">
        <ele>263.06</ele>
        <time>2014-04-13T09:54:21Z</time>
      </trkpt>
      <trkpt lat="43.56756" lon="3.28032">
        <ele>262.58</ele>
        <time>2014-04-13T09:54:22Z</time>
      </trkpt>
      <trkpt lat="43.5676" lon="3.28043">
        <ele>262.1</ele>
        <time>2014-04-13T09:54:23Z</time>
      </trkpt>
      <trkpt lat="43.56766" lon="3.28054">
        <ele>262.1</ele>
        <time>2014-04-13T09:54:24Z</time>
      </trkpt>
      <trkpt lat="43.56771" lon="3.28066">
        <ele>261.62</ele>
        <time>2014-04-13T09:54:25Z</time>
      </trkpt>
      <trkpt lat="43.56774" lon="3.28079">
        <ele>260.65</ele>
        <time>2014-04-13T09:54:26Z</time>
      </trkpt>
      <trkpt lat="43.56775" lon="3.28093">
        <ele>260.65</ele>
        <time>2014-04-13T09:54:27Z</time>
      </trkpt>
      <trkpt lat="43.56775" lon="3.28106">
        <ele>260.65</ele>
        <time>2014-04-13T09:54:28Z</time>
      </trkpt>
      <trkpt lat="43.56772" lon="3.28119">
        <ele>260.17</ele>
        <time>2014-04-13T09:54:29Z</time>
      </trkpt>
      <trkpt lat="43.56767" lon="3.28129">
        <ele>260.17</ele>
        <time>2014-04-13T09:54:30Z</time>
      </trkpt>
      <trkpt lat="43.56759" lon="3.28137">
        <ele>259.69</ele>
        <time>2014-04-13T09:54:31Z</time>
      </trkpt>
      <trkpt lat="43.5675" lon="3.28146">
        <ele>259.69</ele>
        <time>2014-04-13T09:54:32Z</time>
      </trkpt>
      <trkpt lat="43.56743" lon="3.28157">
        <ele>259.69</ele>
        <time>2014-04-13T09:54:33Z</time>
      </trkpt>
      <trkpt lat="43.56723" lon="3.28197">
        <ele>259.69</ele>
        <time>2014-04-13T09:54:36Z</time>
      </trkpt>
      <trkpt lat="43.56718" lon="3.28214">
        <ele>260.17</ele>
        <time>2014-04-13T09:54:37Z</time>
      </trkpt>
      <trkpt lat="43.56699" lon="3.28319">
        <ele>259.21</ele>
        <time>2014-04-13T09:54:43Z</time>
      </trkpt>
      <trkpt lat="43.56701" lon="3.28335">
        <ele>259.21</ele>
        <time>2014-04-13T09:54:44Z</time>
      </trkpt>
      <trkpt lat="43.56704" lon="3.2835">
        <ele>259.21</ele>
        <time>2014-04-13T09:54:45Z</time>
      </trkpt>
      <trkpt lat="43.56707" lon="3.28363">
        <ele>258.73</ele>
        <time>2014-04-13T09:54:46Z</time>
      </trkpt>
      <trkpt lat="43.56712" lon="3.28373">
        <ele>258.73</ele>
        <time>2014-04-13T09:54:47Z</time>
      </trkpt>
      <trkpt lat="43.56717" lon="3.28379">
        <ele>258.73</ele>
        <time>2014-04-13T09:54:48Z</time>
      </trkpt>
      <trkpt lat="43.56721" lon="3.28383">
        <ele>258.73</ele>
        <time>2014-04-13T09:54:49Z</time>
      </trkpt>
      <trkpt lat="43.56726" lon="3.28386">
        <ele>258.73</ele>
        <time>2014-04-13T09:54:50Z</time>
      </trkpt>
      <trkpt lat="43.56731" lon="3.28388">
        <ele>258.73</ele>
        <time>2014-04-13T09:54:51Z</time>
      </trkpt>
      <trkpt lat="43.56736" lon="3.28387">
        <ele>259.21</ele>
        <time>2014-04-13T09:54:52Z</time>
      </trkpt>
      <trkpt lat="43.56743" lon="3.28385">
        <ele>258.25</ele>
        <time>2014-04-13T09:54:53Z</time>
      </trkpt>
      <trkpt lat="43.56749" lon="3.2838">
        <ele>257.77</ele>
        <time>2014-04-13T09:54:54Z</time>
      </trkpt>
      <trkpt lat="43.56756" lon="3.28374">
        <ele>257.77</ele>
        <time>2014-04-13T09:54:55Z</time>
      </trkpt>
      <trkpt lat="43.56764" lon="3.28366">
        <ele>257.77</ele>
        <time>2014-04-13T09:54:56Z</time>
      </trkpt>
      <trkpt lat="43.56801" lon="3.28327">
        <ele>256.81</ele>
        <time>2014-04-13T09:55:01Z</time>
      </trkpt>
      <trkpt lat="43.56809" lon="3.28324">
        <ele>256.81</ele>
        <time>2014-04-13T09:55:02Z</time>
      </trkpt>
      <trkpt lat="43.56817" lon="3.28322">
        <ele>256.33</ele>
        <time>2014-04-13T09:55:03Z</time>
      </trkpt>
      <trkpt lat="43.56826" lon="3.28319">
        <ele>255.85</ele>
        <time>2014-04-13T09:55:04Z</time>
      </trkpt>
      <trkpt lat="43.56836" lon="3.28315">
        <ele>255.37</ele>
        <time>2014-04-13T09:55:05Z</time>
      </trkpt>
      <trkpt lat="43.56845" lon="3.28308">
        <ele>254.41</ele>
        <time>2014-04-13T09:55:06Z</time>
      </trkpt>
      <trkpt lat="43.56854" lon="3.28301">
        <ele>254.41</ele>
        <time>2014-04-13T09:55:07Z</time>
      </trkpt>
      <trkpt lat="43.56863" lon="3.28292">
        <ele>254.41</ele>
        <time>2014-04-13T09:55:08Z</time>
      </trkpt>
      <trkpt lat="43.56887" lon="3.28266">
        <ele>253.93</ele>
        <time>2014-04-13T09:55:11Z</time>
      </trkpt>
      <trkpt lat="43.56896" lon="3.28261">
        <ele>253.93</ele>
        <time>2014-04-13T09:55:12Z</time>
      </trkpt>
      <trkpt lat="43.56907" lon="3.28258">
        <ele>252.48</ele>
        <time>2014-04-13T09:55:13Z</time>
      </trkpt>
      <trkpt lat="43.56919" lon="3.28257">
        <ele>252</ele>
        <time>2014-04-13T09:55:14Z</time>
      </trkpt>
      <trkpt lat="43.56931" lon="3.28255">
        <ele>251.52</ele>
        <time>2014-04-13T09:55:15Z</time>
      </trkpt>
      <trkpt lat="43.56942" lon="3.28251">
        <ele>251.52</ele>
        <time>2014-04-13T09:55:16Z</time>
      </trkpt>
      <trkpt lat="43.56954" lon="3.28244">
        <ele>250.56</ele>
        <time>2014-04-13T09:55:17Z</time>
      </trkpt>
      <trkpt lat="43.56964" lon="3.28236">
        <ele>249.6</ele>
        <time>2014-04-13T09:55:18Z</time>
      </trkpt>
      <trkpt lat="43.56974" lon="3.28226">
        <ele>249.12</ele>
        <time>2014-04-13T09:55:19Z</time>
      </trkpt>
      <trkpt lat="43.56982" lon="3.28215">
        <ele>248.16</ele>
        <time>2014-04-13T09:55:20Z</time>
      </trkpt>
      <trkpt lat="43.56988" lon="3.28203">
        <ele>247.2</ele>
        <time>2014-04-13T09:55:21Z</time>
      </trkpt>
      <trkpt lat="43.56991" lon="3.28192">
        <ele>246.23</ele>
        <time>2014-04-13T09:55:22Z</time>
      </trkpt>
      <trkpt lat="43.56993" lon="3.28182">
        <ele>245.75</ele>
        <time>2014-04-13T09:55:23Z</time>
      </trkpt>
      <trkpt lat="43.56995" lon="3.28174">
        <ele>244.79</ele>
        <time>2014-04-13T09:55:24Z</time>
      </trkpt>
      <trkpt lat="43.56998" lon="3.2817">
        <ele>243.35</ele>
        <time>2014-04-13T09:55:25Z</time>
      </trkpt>
      <trkpt lat="43.57003" lon="3.28167">
        <ele>241.91</ele>
        <time>2014-04-13T09:55:26Z</time>
      </trkpt>
      <trkpt lat="43.57011" lon="3.28166">
        <ele>240.95</ele>
        <time>2014-04-13T09:55:27Z</time>
      </trkpt>
      <trkpt lat="43.5702" lon="3.28164">
        <ele>241.43</ele>
        <time>2014-04-13T09:55:28Z</time>
      </trkpt>
      <trkpt lat="43.57028" lon="3.28161">
        <ele>240.47</ele>
        <time>2014-04-13T09:55:29Z</time>
      </trkpt>
      <trkpt lat="43.57043" lon="3.28154">
        <ele>238.54</ele>
        <time>2014-04-13T09:55:31Z</time>
      </trkpt>
      <trkpt lat="43.57051" lon="3.28153">
        <ele>238.06</ele>
        <time>2014-04-13T09:55:32Z</time>
      </trkpt>
      <trkpt lat="43.57059" lon="3.28155">
        <ele>236.62</ele>
        <time>2014-04-13T09:55:33Z</time>
      </trkpt>
      <trkpt lat="43.57068" lon="3.28162">
        <ele>234.7</ele>
        <time>2014-04-13T09:55:34Z</time>
      </trkpt>
      <trkpt lat="43.57077" lon="3.28169">
        <ele>233.26</ele>
        <time>2014-04-13T09:55:35Z</time>
      </trkpt>
      <trkpt lat="43.57137" lon="3.28221">
        <ele>228.93</ele>
        <time>2014-04-13T09:55:41Z</time>
      </trkpt>
      <trkpt lat="43.57147" lon="3.28225">
        <ele>228.45</ele>
        <time>2014-04-13T09:55:42Z</time>
      </trkpt>
      <trkpt lat="43.57156" lon="3.28226">
        <ele>227.49</ele>
        <time>2014-04-13T09:55:43Z</time>
      </trkpt>
      <trkpt lat="43.57166" lon="3.28225">
        <ele>226.53</ele>
        <time>2014-04-13T09:55:44Z</time>
      </trkpt>
      <trkpt lat="43.57174" lon="3.28222">
        <ele>225.09</ele>
        <time>2014-04-13T09:55:45Z</time>
      </trkpt>
      <trkpt lat="43.5718" lon="3.28215">
        <ele>224.12</ele>
        <time>2014-04-13T09:55:46Z</time>
      </trkpt>
      <trkpt lat="43.57185" lon="3.28205">
        <ele>223.16</ele>
        <time>2014-04-13T09:55:47Z</time>
      </trkpt>
      <trkpt lat="43.57186" lon="3.28191">
        <ele>221.72</ele>
        <time>2014-04-13T09:55:48Z</time>
      </trkpt>
      <trkpt lat="43.57186" lon="3.28177">
        <ele>220.28</ele>
        <time>2014-04-13T09:55:49Z</time>
      </trkpt>
      <trkpt lat="43.57184" lon="3.28162">
        <ele>219.8</ele>
        <time>2014-04-13T09:55:50Z</time>
      </trkpt>
      <trkpt lat="43.57183" lon="3.28147">
        <ele>218.84</ele>
        <time>2014-04-13T09:55:51Z</time>
      </trkpt>
      <trkpt lat="43.57182" lon="3.28132">
        <ele>217.88</ele>
        <time>2014-04-13T09:55:52Z</time>
      </trkpt>
      <trkpt lat="43.57184" lon="3.28119">
        <ele>216.91</ele>
        <time>2014-04-13T09:55:53Z</time>
      </trkpt>
      <trkpt lat="43.57187" lon="3.28107">
        <ele>216.43</ele>
        <time>2014-04-13T09:55:54Z</time>
      </trkpt>
      <trkpt lat="43.57191" lon="3.28098">
        <ele>215.95</ele>
        <time>2014-04-13T09:55:55Z</time>
      </trkpt>
      <trkpt lat="43.57194" lon="3.2809">
        <ele>215.95</ele>
        <time>2014-04-13T09:55:56Z</time>
      </trkpt>
      <trkpt lat="43.57197" lon="3.28073">
        <ele>215.47</ele>
        <time>2014-04-13T09:56:03Z</time>
      </trkpt>
      <trkpt lat="43.57199" lon="3.28066">
        <ele>216.43</ele>
        <time>2014-04-13T09:56:15Z</time>
      </trkpt>
      <trkpt lat="43.57198" lon="3.28064">
        <ele>222.2</ele>
        <time>2014-04-13T09:56:51Z</time>
      </trkpt>
      <trkpt lat="43.572" lon="3.28063">
        <ele>222.68</ele>
        <time>2014-04-13T09:58:14Z</time>
      </trkpt>
      <trkpt lat="43.57202" lon="3.28061">
        <ele>223.16</ele>
        <time>2014-04-13T09:58:38Z</time>
      </trkpt>
      <trkpt lat="43.572" lon="3.28058">
        <ele>220.28</ele>
        <time>2014-04-13T09:58:54Z</time>
      </trkpt>
      <trkpt lat="43.572" lon="3.28059">
        <ele>220.76</ele>
        <time>2014-04-13T09:59:11Z</time>
      </trkpt>
      <trkpt lat="43.57195" lon="3.28073">
        <ele>222.68</ele>
        <time>2014-04-13T09:59:20Z</time>
      </trkpt>
      <trkpt lat="43.57198" lon="3.28076">
        <ele>223.64</ele>
        <time>2014-04-13T09:59:54Z</time>
      </trkpt>
      <trkpt lat="43.57195" lon="3.28079">
        <ele>224.61</ele>
        <time>2014-04-13T10:00:23Z</time>
      </trkpt>
      <trkpt lat="43.57199" lon="3.28076">
        <ele>230.37</ele>
        <time>2014-04-13T10:04:54Z</time>
      </trkpt>
      <trkpt lat="43.572" lon="3.28078">
        <ele>226.05</ele>
        <time>2014-04-13T10:06:57Z</time>
      </trkpt>
      <trkpt lat="43.57195" lon="3.28099">
        <ele>225.09</ele>
        <time>2014-04-13T10:07:03Z</time>
      </trkpt>
      <trkpt lat="43.57193" lon="3.28103">
        <ele>225.09</ele>
        <time>2014-04-13T10:07:08Z</time>
      </trkpt>
      <trkpt lat="43.57189" lon="3.28107">
        <ele>225.09</ele>
        <time>2014-04-13T10:07:24Z</time>
      </trkpt>
      <trkpt lat="43.57188" lon="3.28108">
        <ele>224.61</ele>
        <time>2014-04-13T10:07:37Z</time>
      </trkpt>
      <trkpt lat="43.57182" lon="3.28128">
        <ele>225.09</ele>
        <time>2014-04-13T10:07:43Z</time>
      </trkpt>
      <trkpt lat="43.57181" lon="3.28136">
        <ele>224.12</ele>
        <time>2014-04-13T10:07:44Z</time>
      </trkpt>
      <trkpt lat="43.57181" lon="3.28145">
        <ele>224.12</ele>
        <time>2014-04-13T10:07:45Z</time>
      </trkpt>
      <trkpt lat="43.57182" lon="3.28155">
        <ele>224.12</ele>
        <time>2014-04-13T10:07:46Z</time>
      </trkpt>
      <trkpt lat="43.57183" lon="3.28166">
        <ele>225.09</ele>
        <time>2014-04-13T10:07:47Z</time>
      </trkpt>
      <trkpt lat="43.57183" lon="3.28187">
        <ele>227.01</ele>
        <time>2014-04-13T10:07:49Z</time>
      </trkpt>
      <trkpt lat="43.57182" lon="3.28197">
        <ele>227.49</ele>
        <time>2014-04-13T10:07:50Z</time>
      </trkpt>
      <trkpt lat="43.57179" lon="3.28207">
        <ele>227.97</ele>
        <time>2014-04-13T10:07:51Z</time>
      </trkpt>
      <trkpt lat="43.57175" lon="3.28217">
        <ele>227.97</ele>
        <time>2014-04-13T10:07:52Z</time>
      </trkpt>
      <trkpt lat="43.5717" lon="3.28224">
        <ele>228.45</ele>
        <time>2014-04-13T10:07:53Z</time>
      </trkpt>
      <trkpt lat="43.57165" lon="3.28228">
        <ele>228.93</ele>
        <time>2014-04-13T10:07:54Z</time>
      </trkpt>
      <trkpt lat="43.57158" lon="3.28229">
        <ele>229.89</ele>
        <time>2014-04-13T10:07:55Z</time>
      </trkpt>
      <trkpt lat="43.57153" lon="3.2823">
        <ele>229.89</ele>
        <time>2014-04-13T10:07:56Z</time>
      </trkpt>
      <trkpt lat="43.57148" lon="3.28231">
        <ele>230.37</ele>
        <time>2014-04-13T10:07:57Z</time>
      </trkpt>
      <trkpt lat="43.57144" lon="3.2823">
        <ele>233.26</ele>
        <time>2014-04-13T10:08:05Z</time>
      </trkpt>
      <trkpt lat="43.57135" lon="3.28226">
        <ele>234.22</ele>
        <time>2014-04-13T10:08:15Z</time>
      </trkpt>
      <trkpt lat="43.57131" lon="3.28223">
        <ele>234.7</ele>
        <time>2014-04-13T10:08:16Z</time>
      </trkpt>
      <trkpt lat="43.57114" lon="3.2821">
        <ele>234.22</ele>
        <time>2014-04-13T10:08:20Z</time>
      </trkpt>
      <trkpt lat="43.57056" lon="3.28164">
        <ele>241.43</ele>
        <time>2014-04-13T10:08:33Z</time>
      </trkpt>
      <trkpt lat="43.57044" lon="3.28159">
        <ele>242.39</ele>
        <time>2014-04-13T10:08:35Z</time>
      </trkpt>
      <trkpt lat="43.57038" lon="3.2816">
        <ele>242.87</ele>
        <time>2014-04-13T10:08:36Z</time>
      </trkpt>
      <trkpt lat="43.57032" lon="3.28162">
        <ele>243.35</ele>
        <time>2014-04-13T10:08:37Z</time>
      </trkpt>
      <trkpt lat="43.5702" lon="3.28169">
        <ele>244.31</ele>
        <time>2014-04-13T10:08:39Z</time>
      </trkpt>
      <trkpt lat="43.57013" lon="3.2817">
        <ele>244.79</ele>
        <time>2014-04-13T10:08:40Z</time>
      </trkpt>
      <trkpt lat="43.57007" lon="3.2817">
        <ele>245.75</ele>
        <time>2014-04-13T10:08:41Z</time>
      </trkpt>
      <trkpt lat="43.57" lon="3.28171">
        <ele>246.23</ele>
        <time>2014-04-13T10:08:42Z</time>
      </trkpt>
      <trkpt lat="43.56993" lon="3.28172">
        <ele>247.2</ele>
        <time>2014-04-13T10:08:43Z</time>
      </trkpt>
      <trkpt lat="43.56987" lon="3.28175">
        <ele>247.68</ele>
        <time>2014-04-13T10:08:44Z</time>
      </trkpt>
      <trkpt lat="43.56985" lon="3.28182">
        <ele>247.2</ele>
        <time>2014-04-13T10:08:45Z</time>
      </trkpt>
      <trkpt lat="43.56983" lon="3.28191">
        <ele>247.68</ele>
        <time>2014-04-13T10:08:46Z</time>
      </trkpt>
      <trkpt lat="43.56981" lon="3.28201">
        <ele>248.16</ele>
        <time>2014-04-13T10:08:47Z</time>
      </trkpt>
      <trkpt lat="43.56977" lon="3.28211">
        <ele>248.16</ele>
        <time>2014-04-13T10:08:48Z</time>
      </trkpt>
      <trkpt lat="43.56972" lon="3.28221">
        <ele>248.16</ele>
        <time>2014-04-13T10:08:49Z</time>
      </trkpt>
      <trkpt lat="43.56966" lon="3.28229">
        <ele>248.16</ele>
        <time>2014-04-13T10:08:50Z</time>
      </trkpt>
      <trkpt lat="43.56959" lon="3.28236">
        <ele>248.64</ele>
        <time>2014-04-13T10:08:51Z</time>
      </trkpt>
      <trkpt lat="43.56951" lon="3.28243">
        <ele>249.12</ele>
        <time>2014-04-13T10:08:52Z</time>
      </trkpt>
      <trkpt lat="43.56943" lon="3.28248">
        <ele>249.6</ele>
        <time>2014-04-13T10:08:53Z</time>
      </trkpt>
      <trkpt lat="43.56934" lon="3.28253">
        <ele>250.08</ele>
        <time>2014-04-13T10:08:54Z</time>
      </trkpt>
      <trkpt lat="43.56926" lon="3.28256">
        <ele>250.08</ele>
        <time>2014-04-13T10:08:55Z</time>
      </trkpt>
      <trkpt lat="43.56916" lon="3.28258">
        <ele>250.56</ele>
        <time>2014-04-13T10:08:56Z</time>
      </trkpt>
      <trkpt lat="43.56889" lon="3.28262">
        <ele>251.52</ele>
        <time>2014-04-13T10:08:59Z</time>
      </trkpt>
      <trkpt lat="43.5688" lon="3.28266">
        <ele>252.48</ele>
        <time>2014-04-13T10:09:00Z</time>
      </trkpt>
      <trkpt lat="43.56872" lon="3.28273">
        <ele>252.96</ele>
        <time>2014-04-13T10:09:01Z</time>
      </trkpt>
      <trkpt lat="43.56865" lon="3.28281">
        <ele>253.93</ele>
        <time>2014-04-13T10:09:02Z</time>
      </trkpt>
      <trkpt lat="43.56857" lon="3.2829">
        <ele>254.41</ele>
        <time>2014-04-13T10:09:03Z</time>
      </trkpt>
      <trkpt lat="43.56834" lon="3.28311">
        <ele>255.85</ele>
        <time>2014-04-13T10:09:06Z</time>
      </trkpt>
      <trkpt lat="43.56826" lon="3.28316">
        <ele>256.33</ele>
        <time>2014-04-13T10:09:07Z</time>
      </trkpt>
      <trkpt lat="43.56817" lon="3.2832">
        <ele>257.29</ele>
        <time>2014-04-13T10:09:08Z</time>
      </trkpt>
      <trkpt lat="43.56808" lon="3.28321">
        <ele>257.77</ele>
        <time>2014-04-13T10:09:09Z</time>
      </trkpt>
      <trkpt lat="43.56799" lon="3.28324">
        <ele>258.25</ele>
        <time>2014-04-13T10:09:10Z</time>
      </trkpt>
      <trkpt lat="43.5679" lon="3.28331">
        <ele>258.73</ele>
        <time>2014-04-13T10:09:11Z</time>
      </trkpt>
      <trkpt lat="43.56782" lon="3.28339">
        <ele>259.69</ele>
        <time>2014-04-13T10:09:12Z</time>
      </trkpt>
      <trkpt lat="43.56774" lon="3.28349">
        <ele>260.17</ele>
        <time>2014-04-13T10:09:13Z</time>
      </trkpt>
      <trkpt lat="43.56748" lon="3.28375">
        <ele>262.1</ele>
        <time>2014-04-13T10:09:16Z</time>
      </trkpt>
      <trkpt lat="43.5674" lon="3.2838">
        <ele>262.58</ele>
        <time>2014-04-13T10:09:17Z</time>
      </trkpt>
      <trkpt lat="43.56732" lon="3.28383">
        <ele>263.06</ele>
        <time>2014-04-13T10:09:18Z</time>
      </trkpt>
      <trkpt lat="43.56725" lon="3.28383">
        <ele>263.06</ele>
        <time>2014-04-13T10:09:19Z</time>
      </trkpt>
      <trkpt lat="43.56719" lon="3.2838">
        <ele>263.06</ele>
        <time>2014-04-13T10:09:20Z</time>
      </trkpt>
      <trkpt lat="43.56714" lon="3.28375">
        <ele>262.58</ele>
        <time>2014-04-13T10:09:21Z</time>
      </trkpt>
      <trkpt lat="43.5671" lon="3.28369">
        <ele>262.58</ele>
        <time>2014-04-13T10:09:22Z</time>
      </trkpt>
      <trkpt lat="43.56707" lon="3.28361">
        <ele>262.1</ele>
        <time>2014-04-13T10:09:23Z</time>
      </trkpt>
      <trkpt lat="43.56704" lon="3.28351">
        <ele>261.62</ele>
        <time>2014-04-13T10:09:24Z</time>
      </trkpt>
      <trkpt lat="43.56701" lon="3.28339">
        <ele>261.62</ele>
        <time>2014-04-13T10:09:25Z</time>
      </trkpt>
      <trkpt lat="43.56698" lon="3.28327">
        <ele>261.14</ele>
        <time>2014-04-13T10:09:26Z</time>
      </trkpt>
      <trkpt lat="43.56697" lon="3.28313">
        <ele>260.65</ele>
        <time>2014-04-13T10:09:27Z</time>
      </trkpt>
      <trkpt lat="43.56698" lon="3.28299">
        <ele>260.65</ele>
        <time>2014-04-13T10:09:28Z</time>
      </trkpt>
      <trkpt lat="43.567" lon="3.28285">
        <ele>260.65</ele>
        <time>2014-04-13T10:09:29Z</time>
      </trkpt>
      <trkpt lat="43.56702" lon="3.28271">
        <ele>260.65</ele>
        <time>2014-04-13T10:09:30Z</time>
      </trkpt>
      <trkpt lat="43.56723" lon="3.2819">
        <ele>260.65</ele>
        <time>2014-04-13T10:09:36Z</time>
      </trkpt>
      <trkpt lat="43.56728" lon="3.28178">
        <ele>260.65</ele>
        <time>2014-04-13T10:09:37Z</time>
      </trkpt>
      <trkpt lat="43.56751" lon="3.28135">
        <ele>260.65</ele>
        <time>2014-04-13T10:09:41Z</time>
      </trkpt>
      <trkpt lat="43.56758" lon="3.28127">
        <ele>261.14</ele>
        <time>2014-04-13T10:09:42Z</time>
      </trkpt>
      <trkpt lat="43.56765" lon="3.28121">
        <ele>261.14</ele>
        <time>2014-04-13T10:09:43Z</time>
      </trkpt>
      <trkpt lat="43.56772" lon="3.28114">
        <ele>261.14</ele>
        <time>2014-04-13T10:09:44Z</time>
      </trkpt>
      <trkpt lat="43.56778" lon="3.28105">
        <ele>261.14</ele>
        <time>2014-04-13T10:09:45Z</time>
      </trkpt>
      <trkpt lat="43.5678" lon="3.28093">
        <ele>261.14</ele>
        <time>2014-04-13T10:09:46Z</time>
      </trkpt>
      <trkpt lat="43.5678" lon="3.2808">
        <ele>261.62</ele>
        <time>2014-04-13T10:09:47Z</time>
      </trkpt>
      <trkpt lat="43.56779" lon="3.28067">
        <ele>261.14</ele>
        <time>2014-04-13T10:09:48Z</time>
      </trkpt>
      <trkpt lat="43.56776" lon="3.28054">
        <ele>261.14</ele>
        <time>2014-04-13T10:09:49Z</time>
      </trkpt>
      <trkpt lat="43.56772" lon="3.28043">
        <ele>261.62</ele>
        <time>2014-04-13T10:09:50Z</time>
      </trkpt>
      <trkpt lat="43.56767" lon="3.28033">
        <ele>261.62</ele>
        <time>2014-04-13T10:09:51Z</time>
      </trkpt>
      <trkpt lat="43.56763" lon="3.28023">
        <ele>261.62</ele>
        <time>2014-04-13T10:09:52Z</time>
      </trkpt>
      <trkpt lat="43.5676" lon="3.28012">
        <ele>262.1</ele>
        <time>2014-04-13T10:09:53Z</time>
      </trkpt>
      <trkpt lat="43.56761" lon="3.28">
        <ele>262.1</ele>
        <time>2014-04-13T10:09:54Z</time>
      </trkpt>
      <trkpt lat="43.56764" lon="3.27989">
        <ele>262.58</ele>
        <time>2014-04-13T10:09:55Z</time>
      </trkpt>
      <trkpt lat="43.56768" lon="3.27978">
        <ele>263.06</ele>
        <time>2014-04-13T10:09:56Z</time>
      </trkpt>
      <trkpt lat="43.56774" lon="3.27967">
        <ele>263.06</ele>
        <time>2014-04-13T10:09:57Z</time>
      </trkpt>
      <trkpt lat="43.5678" lon="3.27957">
        <ele>263.54</ele>
        <time>2014-04-13T10:09:58Z</time>
      </trkpt>
      <trkpt lat="43.56787" lon="3.27947">
        <ele>263.06</ele>
        <time>2014-04-13T10:09:59Z</time>
      </trkpt>
      <trkpt lat="43.56795" lon="3.27941">
        <ele>263.54</ele>
        <time>2014-04-13T10:10:00Z</time>
      </trkpt>
      <trkpt lat="43.56803" lon="3.27937">
        <ele>264.02</ele>
        <time>2014-04-13T10:10:01Z</time>
      </trkpt>
      <trkpt lat="43.56811" lon="3.27935">
        <ele>264.5</ele>
        <time>2014-04-13T10:10:02Z</time>
      </trkpt>
      <trkpt lat="43.56819" lon="3.27932">
        <ele>264.5</ele>
        <time>2014-04-13T10:10:03Z</time>
      </trkpt>
      <trkpt lat="43.56826" lon="3.27926">
        <ele>264.98</ele>
        <time>2014-04-13T10:10:04Z</time>
      </trkpt>
      <trkpt lat="43.56832" lon="3.27918">
        <ele>264.98</ele>
        <time>2014-04-13T10:10:05Z</time>
      </trkpt>
      <trkpt lat="43.56835" lon="3.27909">
        <ele>264.98</ele>
        <time>2014-04-13T10:10:06Z</time>
      </trkpt>
      <trkpt lat="43.56835" lon="3.27901">
        <ele>264.98</ele>
        <time>2014-04-13T10:10:07Z</time>
      </trkpt>
      <trkpt lat="43.56831" lon="3.27893">
        <ele>264.98</ele>
        <time>2014-04-13T10:10:08Z</time>
      </trkpt>
      <trkpt lat="43.56825" lon="3.27884">
        <ele>265.46</ele>
        <time>2014-04-13T10:10:09Z</time>
      </trkpt>
      <trkpt lat="43.56818" lon="3.27875">
        <ele>265.94</ele>
        <time>2014-04-13T10:10:10Z</time>
      </trkpt>
      <trkpt lat="43.56811" lon="3.27866">
        <ele>265.94</ele>
        <time>2014-04-13T10:10:11Z</time>
      </trkpt>
      <trkpt lat="43.56806" lon="3.27857">
        <ele>265.94</ele>
        <time>2014-04-13T10:10:12Z</time>
      </trkpt>
      <trkpt lat="43.56803" lon="3.27846">
        <ele>265.94</ele>
        <time>2014-04-13T10:10:13Z</time>
      </trkpt>
      <trkpt lat="43.56802" lon="3.27834">
        <ele>265.94</ele>
        <time>2014-04-13T10:10:14Z</time>
      </trkpt>
      <trkpt lat="43.56802" lon="3.27822">
        <ele>266.42</ele>
        <time>2014-04-13T10:10:15Z</time>
      </trkpt>
      <trkpt lat="43.56803" lon="3.2781">
        <ele>266.42</ele>
        <time>2014-04-13T10:10:16Z</time>
      </trkpt>
      <trkpt lat="43.56806" lon="3.27797">
        <ele>266.42</ele>
        <time>2014-04-13T10:10:17Z</time>
      </trkpt>
      <trkpt lat="43.5681" lon="3.27784">
        <ele>266.9</ele>
        <time>2014-04-13T10:10:18Z</time>
      </trkpt>
      <trkpt lat="43.56854" lon="3.27666">
        <ele>268.35</ele>
        <time>2014-04-13T10:10:28Z</time>
      </trkpt>
      <trkpt lat="43.56854" lon="3.27659">
        <ele>268.35</ele>
        <time>2014-04-13T10:10:29Z</time>
      </trkpt>
      <trkpt lat="43.56852" lon="3.27653">
        <ele>268.35</ele>
        <time>2014-04-13T10:10:30Z</time>
      </trkpt>
      <trkpt lat="43.56848" lon="3.27649">
        <ele>267.86</ele>
        <time>2014-04-13T10:10:31Z</time>
      </trkpt>
      <trkpt lat="43.56842" lon="3.2765">
        <ele>267.38</ele>
        <time>2014-04-13T10:10:32Z</time>
      </trkpt>
      <trkpt lat="43.56836" lon="3.27652">
        <ele>267.38</ele>
        <time>2014-04-13T10:10:33Z</time>
      </trkpt>
      <trkpt lat="43.56828" lon="3.27657">
        <ele>267.86</ele>
        <time>2014-04-13T10:10:34Z</time>
      </trkpt>
      <trkpt lat="43.56821" lon="3.2766">
        <ele>268.35</ele>
        <time>2014-04-13T10:10:35Z</time>
      </trkpt>
      <trkpt lat="43.56814" lon="3.27663">
        <ele>268.83</ele>
        <time>2014-04-13T10:10:36Z</time>
      </trkpt>
      <trkpt lat="43.56807" lon="3.27664">
        <ele>269.31</ele>
        <time>2014-04-13T10:10:37Z</time>
      </trkpt>
      <trkpt lat="43.56784" lon="3.27667">
        <ele>270.75</ele>
        <time>2014-04-13T10:10:41Z</time>
      </trkpt>
      <trkpt lat="43.56779" lon="3.27669">
        <ele>270.75</ele>
        <time>2014-04-13T10:10:42Z</time>
      </trkpt>
      <trkpt lat="43.5677" lon="3.27675">
        <ele>271.23</ele>
        <time>2014-04-13T10:10:44Z</time>
      </trkpt>
      <trkpt lat="43.56765" lon="3.27676">
        <ele>271.23</ele>
        <time>2014-04-13T10:10:45Z</time>
      </trkpt>
      <trkpt lat="43.56753" lon="3.27678">
        <ele>271.71</ele>
        <time>2014-04-13T10:10:47Z</time>
      </trkpt>
      <trkpt lat="43.56747" lon="3.27683">
        <ele>272.19</ele>
        <time>2014-04-13T10:10:48Z</time>
      </trkpt>
      <trkpt lat="43.56741" lon="3.27689">
        <ele>272.67</ele>
        <time>2014-04-13T10:10:49Z</time>
      </trkpt>
      <trkpt lat="43.56665" lon="3.27734">
        <ele>275.56</ele>
        <time>2014-04-13T10:10:59Z</time>
      </trkpt>
      <trkpt lat="43.56557" lon="3.27795">
        <ele>279.4</ele>
        <time>2014-04-13T10:11:11Z</time>
      </trkpt>
      <trkpt lat="43.5647" lon="3.2789">
        <ele>284.21</ele>
        <time>2014-04-13T10:11:21Z</time>
      </trkpt>
      <trkpt lat="43.56461" lon="3.27897">
        <ele>284.69</ele>
        <time>2014-04-13T10:11:22Z</time>
      </trkpt>
      <trkpt lat="43.5645" lon="3.27902">
        <ele>285.17</ele>
        <time>2014-04-13T10:11:23Z</time>
      </trkpt>
      <trkpt lat="43.56438" lon="3.27905">
        <ele>285.65</ele>
        <time>2014-04-13T10:11:24Z</time>
      </trkpt>
      <trkpt lat="43.56426" lon="3.27909">
        <ele>285.65</ele>
        <time>2014-04-13T10:11:25Z</time>
      </trkpt>
      <trkpt lat="43.5638" lon="3.27914">
        <ele>288.53</ele>
        <time>2014-04-13T10:11:29Z</time>
      </trkpt>
      <trkpt lat="43.5637" lon="3.27912">
        <ele>288.53</ele>
        <time>2014-04-13T10:11:30Z</time>
      </trkpt>
      <trkpt lat="43.56362" lon="3.27909">
        <ele>288.53</ele>
        <time>2014-04-13T10:11:31Z</time>
      </trkpt>
      <trkpt lat="43.56355" lon="3.27903">
        <ele>288.53</ele>
        <time>2014-04-13T10:11:32Z</time>
      </trkpt>
      <trkpt lat="43.56349" lon="3.27895">
        <ele>288.05</ele>
        <time>2014-04-13T10:11:33Z</time>
      </trkpt>
      <trkpt lat="43.56345" lon="3.27886">
        <ele>287.57</ele>
        <time>2014-04-13T10:11:34Z</time>
      </trkpt>
      <trkpt lat="43.56341" lon="3.27874">
        <ele>286.61</ele>
        <time>2014-04-13T10:11:35Z</time>
      </trkpt>
      <trkpt lat="43.56337" lon="3.27862">
        <ele>285.65</ele>
        <time>2014-04-13T10:11:36Z</time>
      </trkpt>
      <trkpt lat="43.56334" lon="3.27849">
        <ele>285.17</ele>
        <time>2014-04-13T10:11:37Z</time>
      </trkpt>
      <trkpt lat="43.5632" lon="3.27787">
        <ele>281.8</ele>
        <time>2014-04-13T10:11:42Z</time>
      </trkpt>
      <trkpt lat="43.5632" lon="3.27775">
        <ele>281.32</ele>
        <time>2014-04-13T10:11:43Z</time>
      </trkpt>
      <trkpt lat="43.56322" lon="3.27763">
        <ele>280.84</ele>
        <time>2014-04-13T10:11:44Z</time>
      </trkpt>
      <trkpt lat="43.56325" lon="3.27753">
        <ele>280.36</ele>
        <time>2014-04-13T10:11:45Z</time>
      </trkpt>
      <trkpt lat="43.56329" lon="3.27745">
        <ele>279.88</ele>
        <time>2014-04-13T10:11:46Z</time>
      </trkpt>
      <trkpt lat="43.56335" lon="3.27738">
        <ele>279.4</ele>
        <time>2014-04-13T10:11:47Z</time>
      </trkpt>
      <trkpt lat="43.56342" lon="3.27732">
        <ele>279.4</ele>
        <time>2014-04-13T10:11:48Z</time>
      </trkpt>
      <trkpt lat="43.5635" lon="3.27726">
        <ele>278.44</ele>
        <time>2014-04-13T10:11:49Z</time>
      </trkpt>
      <trkpt lat="43.56356" lon="3.27718">
        <ele>277.96</ele>
        <time>2014-04-13T10:11:50Z</time>
      </trkpt>
      <trkpt lat="43.56361" lon="3.27708">
        <ele>277.48</ele>
        <time>2014-04-13T10:11:51Z</time>
      </trkpt>
      <trkpt lat="43.56363" lon="3.27696">
        <ele>277.48</ele>
        <time>2014-04-13T10:11:52Z</time>
      </trkpt>
      <trkpt lat="43.56363" lon="3.27683">
        <ele>277</ele>
        <time>2014-04-13T10:11:53Z</time>
      </trkpt>
      <trkpt lat="43.56363" lon="3.2767">
        <ele>276.52</ele>
        <time>2014-04-13T10:11:54Z</time>
      </trkpt>
      <trkpt lat="43.56362" lon="3.27656">
        <ele>276.04</ele>
        <time>2014-04-13T10:11:55Z</time>
      </trkpt>
      <trkpt lat="43.56359" lon="3.27642">
        <ele>275.56</ele>
        <time>2014-04-13T10:11:56Z</time>
      </trkpt>
      <trkpt lat="43.56354" lon="3.27629">
        <ele>275.07</ele>
        <time>2014-04-13T10:11:57Z</time>
      </trkpt>
      <trkpt lat="43.56347" lon="3.27619">
        <ele>274.59</ele>
        <time>2014-04-13T10:11:58Z</time>
      </trkpt>
      <trkpt lat="43.56338" lon="3.27611">
        <ele>274.11</ele>
        <time>2014-04-13T10:11:59Z</time>
      </trkpt>
      <trkpt lat="43.56328" lon="3.27604">
        <ele>273.15</ele>
        <time>2014-04-13T10:12:00Z</time>
      </trkpt>
      <trkpt lat="43.56318" lon="3.27598">
        <ele>272.67</ele>
        <time>2014-04-13T10:12:01Z</time>
      </trkpt>
      <trkpt lat="43.56255" lon="3.27561">
        <ele>268.35</ele>
        <time>2014-04-13T10:12:08Z</time>
      </trkpt>
      <trkpt lat="43.56249" lon="3.27566">
        <ele>267.86</ele>
        <time>2014-04-13T10:12:09Z</time>
      </trkpt>
      <trkpt lat="43.56247" lon="3.27573">
        <ele>266.9</ele>
        <time>2014-04-13T10:12:10Z</time>
      </trkpt>
      <trkpt lat="43.56247" lon="3.27582">
        <ele>266.42</ele>
        <time>2014-04-13T10:12:11Z</time>
      </trkpt>
      <trkpt lat="43.56252" lon="3.27592">
        <ele>265.46</ele>
        <time>2014-04-13T10:12:12Z</time>
      </trkpt>
      <trkpt lat="43.56259" lon="3.27601">
        <ele>265.46</ele>
        <time>2014-04-13T10:12:13Z</time>
      </trkpt>
      <trkpt lat="43.56268" lon="3.27609">
        <ele>265.46</ele>
        <time>2014-04-13T10:12:14Z</time>
      </trkpt>
      <trkpt lat="43.56275" lon="3.27616">
        <ele>264.98</ele>
        <time>2014-04-13T10:12:15Z</time>
      </trkpt>
      <trkpt lat="43.56287" lon="3.2763">
        <ele>264.02</ele>
        <time>2014-04-13T10:12:17Z</time>
      </trkpt>
      <trkpt lat="43.56289" lon="3.27639">
        <ele>263.54</ele>
        <time>2014-04-13T10:12:18Z</time>
      </trkpt>
      <trkpt lat="43.56288" lon="3.27647">
        <ele>263.06</ele>
        <time>2014-04-13T10:12:19Z</time>
      </trkpt>
      <trkpt lat="43.56281" lon="3.27653">
        <ele>262.58</ele>
        <time>2014-04-13T10:12:20Z</time>
      </trkpt>
      <trkpt lat="43.56272" lon="3.27656">
        <ele>261.62</ele>
        <time>2014-04-13T10:12:21Z</time>
      </trkpt>
      <trkpt lat="43.56261" lon="3.27659">
        <ele>261.14</ele>
        <time>2014-04-13T10:12:22Z</time>
      </trkpt>
      <trkpt lat="43.56249" lon="3.27661">
        <ele>260.17</ele>
        <time>2014-04-13T10:12:23Z</time>
      </trkpt>
      <trkpt lat="43.56154" lon="3.27659">
        <ele>256.33</ele>
        <time>2014-04-13T10:12:32Z</time>
      </trkpt>
      <trkpt lat="43.56144" lon="3.27654">
        <ele>256.33</ele>
        <time>2014-04-13T10:12:33Z</time>
      </trkpt>
      <trkpt lat="43.56133" lon="3.27646">
        <ele>256.33</ele>
        <time>2014-04-13T10:12:34Z</time>
      </trkpt>
      <trkpt lat="43.56079" lon="3.27602">
        <ele>255.37</ele>
        <time>2014-04-13T10:12:39Z</time>
      </trkpt>
      <trkpt lat="43.5607" lon="3.2759">
        <ele>254.89</ele>
        <time>2014-04-13T10:12:40Z</time>
      </trkpt>
      <trkpt lat="43.56063" lon="3.27576">
        <ele>254.89</ele>
        <time>2014-04-13T10:12:41Z</time>
      </trkpt>
      <trkpt lat="43.56057" lon="3.27561">
        <ele>254.89</ele>
        <time>2014-04-13T10:12:42Z</time>
      </trkpt>
      <trkpt lat="43.56052" lon="3.27545">
        <ele>255.37</ele>
        <time>2014-04-13T10:12:43Z</time>
      </trkpt>
      <trkpt lat="43.5604" lon="3.27515">
        <ele>255.85</ele>
        <time>2014-04-13T10:12:45Z</time>
      </trkpt>
      <trkpt lat="43.56034" lon="3.27502">
        <ele>255.85</ele>
        <time>2014-04-13T10:12:46Z</time>
      </trkpt>
      <trkpt lat="43.56026" lon="3.27491">
        <ele>256.33</ele>
        <time>2014-04-13T10:12:47Z</time>
      </trkpt>
      <trkpt lat="43.56018" lon="3.27484">
        <ele>256.33</ele>
        <time>2014-04-13T10:12:48Z</time>
      </trkpt>
      <trkpt lat="43.56009" lon="3.27479">
        <ele>256.81</ele>
        <time>2014-04-13T10:12:49Z</time>
      </trkpt>
      <trkpt lat="43.55998" lon="3.27475">
        <ele>257.29</ele>
        <time>2014-04-13T10:12:50Z</time>
      </trkpt>
      <trkpt lat="43.55954" lon="3.27463">
        <ele>258.73</ele>
        <time>2014-04-13T10:12:54Z</time>
      </trkpt>
      <trkpt lat="43.55945" lon="3.27464">
        <ele>259.21</ele>
        <time>2014-04-13T10:12:55Z</time>
      </trkpt>
      <trkpt lat="43.55935" lon="3.27469">
        <ele>259.69</ele>
        <time>2014-04-13T10:12:56Z</time>
      </trkpt>
      <trkpt lat="43.55873" lon="3.27511">
        <ele>261.62</ele>
        <time>2014-04-13T10:13:02Z</time>
      </trkpt>
      <trkpt lat="43.55863" lon="3.27513">
        <ele>262.1</ele>
        <time>2014-04-13T10:13:03Z</time>
      </trkpt>
      <trkpt lat="43.55853" lon="3.27509">
        <ele>262.58</ele>
        <time>2014-04-13T10:13:04Z</time>
      </trkpt>
      <trkpt lat="43.55846" lon="3.27499">
        <ele>263.06</ele>
        <time>2014-04-13T10:13:05Z</time>
      </trkpt>
      <trkpt lat="43.5584" lon="3.27486">
        <ele>263.06</ele>
        <time>2014-04-13T10:13:06Z</time>
      </trkpt>
      <trkpt lat="43.55836" lon="3.2747">
        <ele>263.54</ele>
        <time>2014-04-13T10:13:07Z</time>
      </trkpt>
      <trkpt lat="43.55833" lon="3.27452">
        <ele>264.5</ele>
        <time>2014-04-13T10:13:08Z</time>
      </trkpt>
      <trkpt lat="43.5583" lon="3.27434">
        <ele>264.98</ele>
        <time>2014-04-13T10:13:09Z</time>
      </trkpt>
      <trkpt lat="43.5582" lon="3.27401">
        <ele>265.94</ele>
        <time>2014-04-13T10:13:11Z</time>
      </trkpt>
      <trkpt lat="43.55813" lon="3.27389">
        <ele>266.42</ele>
        <time>2014-04-13T10:13:12Z</time>
      </trkpt>
      <trkpt lat="43.55803" lon="3.27381">
        <ele>266.9</ele>
        <time>2014-04-13T10:13:13Z</time>
      </trkpt>
      <trkpt lat="43.55793" lon="3.27377">
        <ele>267.86</ele>
        <time>2014-04-13T10:13:14Z</time>
      </trkpt>
      <trkpt lat="43.55781" lon="3.27376">
        <ele>267.86</ele>
        <time>2014-04-13T10:13:15Z</time>
      </trkpt>
      <trkpt lat="43.55768" lon="3.27376">
        <ele>267.86</ele>
        <time>2014-04-13T10:13:16Z</time>
      </trkpt>
      <trkpt lat="43.55755" lon="3.27374">
        <ele>267.86</ele>
        <time>2014-04-13T10:13:17Z</time>
      </trkpt>
      <trkpt lat="43.55743" lon="3.27369">
        <ele>267.38</ele>
        <time>2014-04-13T10:13:18Z</time>
      </trkpt>
      <trkpt lat="43.55732" lon="3.27359">
        <ele>266.9</ele>
        <time>2014-04-13T10:13:19Z</time>
      </trkpt>
      <trkpt lat="43.55725" lon="3.27346">
        <ele>265.94</ele>
        <time>2014-04-13T10:13:20Z</time>
      </trkpt>
      <trkpt lat="43.55719" lon="3.2733">
        <ele>265.46</ele>
        <time>2014-04-13T10:13:21Z</time>
      </trkpt>
      <trkpt lat="43.55717" lon="3.27312">
        <ele>264.5</ele>
        <time>2014-04-13T10:13:22Z</time>
      </trkpt>
      <trkpt lat="43.55714" lon="3.27294">
        <ele>263.54</ele>
        <time>2014-04-13T10:13:23Z</time>
      </trkpt>
      <trkpt lat="43.55708" lon="3.27263">
        <ele>262.1</ele>
        <time>2014-04-13T10:13:25Z</time>
      </trkpt>
      <trkpt lat="43.55702" lon="3.27254">
        <ele>261.14</ele>
        <time>2014-04-13T10:13:26Z</time>
      </trkpt>
      <trkpt lat="43.55693" lon="3.27249">
        <ele>260.17</ele>
        <time>2014-04-13T10:13:27Z</time>
      </trkpt>
      <trkpt lat="43.55681" lon="3.27249">
        <ele>259.21</ele>
        <time>2014-04-13T10:13:28Z</time>
      </trkpt>
      <trkpt lat="43.55668" lon="3.2725">
        <ele>258.25</ele>
        <time>2014-04-13T10:13:29Z</time>
      </trkpt>
      <trkpt lat="43.55654" lon="3.27252">
        <ele>257.29</ele>
        <time>2014-04-13T10:13:30Z</time>
      </trkpt>
      <trkpt lat="43.55598" lon="3.27265">
        <ele>253.93</ele>
        <time>2014-04-13T10:13:34Z</time>
      </trkpt>
      <trkpt lat="43.55584" lon="3.27265">
        <ele>252.96</ele>
        <time>2014-04-13T10:13:35Z</time>
      </trkpt>
      <trkpt lat="43.55571" lon="3.27261">
        <ele>251.52</ele>
        <time>2014-04-13T10:13:36Z</time>
      </trkpt>
      <trkpt lat="43.55558" lon="3.27254">
        <ele>250.56</ele>
        <time>2014-04-13T10:13:37Z</time>
      </trkpt>
      <trkpt lat="43.55545" lon="3.27246">
        <ele>249.6</ele>
        <time>2014-04-13T10:13:38Z</time>
      </trkpt>
      <trkpt lat="43.55488" lon="3.27197">
        <ele>244.31</ele>
        <time>2014-04-13T10:13:43Z</time>
      </trkpt>
      <trkpt lat="43.5548" lon="3.27185">
        <ele>243.35</ele>
        <time>2014-04-13T10:13:44Z</time>
      </trkpt>
      <trkpt lat="43.55474" lon="3.27173">
        <ele>242.39</ele>
        <time>2014-04-13T10:13:45Z</time>
      </trkpt>
      <trkpt lat="43.5547" lon="3.27161">
        <ele>241.91</ele>
        <time>2014-04-13T10:13:46Z</time>
      </trkpt>
      <trkpt lat="43.55467" lon="3.27151">
        <ele>241.43</ele>
        <time>2014-04-13T10:13:47Z</time>
      </trkpt>
      <trkpt lat="43.55465" lon="3.27143">
        <ele>240.95</ele>
        <time>2014-04-13T10:13:48Z</time>
      </trkpt>
      <trkpt lat="43.55461" lon="3.27138">
        <ele>240.47</ele>
        <time>2014-04-13T10:13:49Z</time>
      </trkpt>
      <trkpt lat="43.55456" lon="3.27146">
        <ele>239.99</ele>
        <time>2014-04-13T10:13:51Z</time>
      </trkpt>
      <trkpt lat="43.55456" lon="3.27154">
        <ele>239.51</ele>
        <time>2014-04-13T10:13:52Z</time>
      </trkpt>
      <trkpt lat="43.55458" lon="3.27167">
        <ele>239.02</ele>
        <time>2014-04-13T10:13:53Z</time>
      </trkpt>
      <trkpt lat="43.55462" lon="3.27182">
        <ele>238.54</ele>
        <time>2014-04-13T10:13:54Z</time>
      </trkpt>
      <trkpt lat="43.55475" lon="3.2724">
        <ele>236.14</ele>
        <time>2014-04-13T10:13:57Z</time>
      </trkpt>
      <trkpt lat="43.55483" lon="3.27258">
        <ele>235.18</ele>
        <time>2014-04-13T10:13:58Z</time>
      </trkpt>
      <trkpt lat="43.55521" lon="3.27341">
        <ele>231.33</ele>
        <time>2014-04-13T10:14:03Z</time>
      </trkpt>
      <trkpt lat="43.55526" lon="3.27357">
        <ele>230.37</ele>
        <time>2014-04-13T10:14:04Z</time>
      </trkpt>
      <trkpt lat="43.55528" lon="3.27373">
        <ele>229.41</ele>
        <time>2014-04-13T10:14:05Z</time>
      </trkpt>
      <trkpt lat="43.55527" lon="3.27388">
        <ele>228.93</ele>
        <time>2014-04-13T10:14:06Z</time>
      </trkpt>
      <trkpt lat="43.55523" lon="3.274">
        <ele>227.97</ele>
        <time>2014-04-13T10:14:07Z</time>
      </trkpt>
      <trkpt lat="43.55515" lon="3.27407">
        <ele>227.01</ele>
        <time>2014-04-13T10:14:08Z</time>
      </trkpt>
      <trkpt lat="43.55504" lon="3.27411">
        <ele>226.05</ele>
        <time>2014-04-13T10:14:09Z</time>
      </trkpt>
      <trkpt lat="43.5549" lon="3.27415">
        <ele>225.09</ele>
        <time>2014-04-13T10:14:10Z</time>
      </trkpt>
      <trkpt lat="43.55476" lon="3.27418">
        <ele>224.61</ele>
        <time>2014-04-13T10:14:11Z</time>
      </trkpt>
      <trkpt lat="43.55462" lon="3.2742">
        <ele>224.61</ele>
        <time>2014-04-13T10:14:12Z</time>
      </trkpt>
      <trkpt lat="43.55449" lon="3.27416">
        <ele>224.12</ele>
        <time>2014-04-13T10:14:13Z</time>
      </trkpt>
      <trkpt lat="43.55435" lon="3.27409">
        <ele>223.64</ele>
        <time>2014-04-13T10:14:14Z</time>
      </trkpt>
      <trkpt lat="43.5539" lon="3.27386">
        <ele>223.16</ele>
        <time>2014-04-13T10:14:17Z</time>
      </trkpt>
      <trkpt lat="43.55373" lon="3.27382">
        <ele>222.68</ele>
        <time>2014-04-13T10:14:18Z</time>
      </trkpt>
      <trkpt lat="43.55314" lon="3.27371">
        <ele>220.76</ele>
        <time>2014-04-13T10:14:22Z</time>
      </trkpt>
      <trkpt lat="43.55303" lon="3.27363">
        <ele>219.8</ele>
        <time>2014-04-13T10:14:23Z</time>
      </trkpt>
      <trkpt lat="43.55293" lon="3.2735">
        <ele>219.32</ele>
        <time>2014-04-13T10:14:24Z</time>
      </trkpt>
      <trkpt lat="43.55286" lon="3.27335">
        <ele>218.84</ele>
        <time>2014-04-13T10:14:25Z</time>
      </trkpt>
      <trkpt lat="43.55277" lon="3.2732">
        <ele>218.36</ele>
        <time>2014-04-13T10:14:26Z</time>
      </trkpt>
      <trkpt lat="43.55268" lon="3.27307">
        <ele>217.4</ele>
        <time>2014-04-13T10:14:27Z</time>
      </trkpt>
      <trkpt lat="43.55257" lon="3.27298">
        <ele>216.91</ele>
        <time>2014-04-13T10:14:28Z</time>
      </trkpt>
      <trkpt lat="43.55245" lon="3.2729">
        <ele>215.47</ele>
        <time>2014-04-13T10:14:29Z</time>
      </trkpt>
      <trkpt lat="43.55231" lon="3.27285">
        <ele>214.03</ele>
        <time>2014-04-13T10:14:30Z</time>
      </trkpt>
      <trkpt lat="43.55216" lon="3.27283">
        <ele>213.07</ele>
        <time>2014-04-13T10:14:31Z</time>
      </trkpt>
      <trkpt lat="43.552" lon="3.27284">
        <ele>211.63</ele>
        <time>2014-04-13T10:14:32Z</time>
      </trkpt>
      <trkpt lat="43.55184" lon="3.27287">
        <ele>210.67</ele>
        <time>2014-04-13T10:14:33Z</time>
      </trkpt>
      <trkpt lat="43.55077" lon="3.27323">
        <ele>201.53</ele>
        <time>2014-04-13T10:14:41Z</time>
      </trkpt>
      <trkpt lat="43.55071" lon="3.27331">
        <ele>200.57</ele>
        <time>2014-04-13T10:14:42Z</time>
      </trkpt>
      <trkpt lat="43.55067" lon="3.27343">
        <ele>199.61</ele>
        <time>2014-04-13T10:14:43Z</time>
      </trkpt>
      <trkpt lat="43.55064" lon="3.27357">
        <ele>198.65</ele>
        <time>2014-04-13T10:14:44Z</time>
      </trkpt>
      <trkpt lat="43.55062" lon="3.27374">
        <ele>197.69</ele>
        <time>2014-04-13T10:14:45Z</time>
      </trkpt>
      <trkpt lat="43.55048" lon="3.27449">
        <ele>193.84</ele>
        <time>2014-04-13T10:14:51Z</time>
      </trkpt>
      <trkpt lat="43.55045" lon="3.27456">
        <ele>193.36</ele>
        <time>2014-04-13T10:14:52Z</time>
      </trkpt>
      <trkpt lat="43.55041" lon="3.27459">
        <ele>192.88</ele>
        <time>2014-04-13T10:14:53Z</time>
      </trkpt>
      <trkpt lat="43.55037" lon="3.27458">
        <ele>192.4</ele>
        <time>2014-04-13T10:14:54Z</time>
      </trkpt>
      <trkpt lat="43.55034" lon="3.27452">
        <ele>190.96</ele>
        <time>2014-04-13T10:14:55Z</time>
      </trkpt>
      <trkpt lat="43.55034" lon="3.27444">
        <ele>190.48</ele>
        <time>2014-04-13T10:14:56Z</time>
      </trkpt>
      <trkpt lat="43.55036" lon="3.27433">
        <ele>190</ele>
        <time>2014-04-13T10:14:57Z</time>
      </trkpt>
      <trkpt lat="43.55039" lon="3.27422">
        <ele>189.04</ele>
        <time>2014-04-13T10:14:58Z</time>
      </trkpt>
      <trkpt lat="43.55044" lon="3.27398">
        <ele>188.08</ele>
        <time>2014-04-13T10:15:00Z</time>
      </trkpt>
      <trkpt lat="43.55045" lon="3.27386">
        <ele>187.59</ele>
        <time>2014-04-13T10:15:01Z</time>
      </trkpt>
      <trkpt lat="43.55044" lon="3.27344">
        <ele>186.15</ele>
        <time>2014-04-13T10:15:05Z</time>
      </trkpt>
      <trkpt lat="43.55042" lon="3.27337">
        <ele>185.67</ele>
        <time>2014-04-13T10:15:06Z</time>
      </trkpt>
      <trkpt lat="43.55037" lon="3.27335">
        <ele>185.19</ele>
        <time>2014-04-13T10:15:07Z</time>
      </trkpt>
      <trkpt lat="43.55032" lon="3.27339">
        <ele>184.71</ele>
        <time>2014-04-13T10:15:08Z</time>
      </trkpt>
      <trkpt lat="43.55029" lon="3.27348">
        <ele>184.23</ele>
        <time>2014-04-13T10:15:09Z</time>
      </trkpt>
      <trkpt lat="43.55028" lon="3.2736">
        <ele>183.27</ele>
        <time>2014-04-13T10:15:10Z</time>
      </trkpt>
      <trkpt lat="43.55028" lon="3.27375">
        <ele>182.79</ele>
        <time>2014-04-13T10:15:11Z</time>
      </trkpt>
      <trkpt lat="43.55026" lon="3.27388">
        <ele>182.31</ele>
        <time>2014-04-13T10:15:12Z</time>
      </trkpt>
      <trkpt lat="43.55022" lon="3.274">
        <ele>181.83</ele>
        <time>2014-04-13T10:15:13Z</time>
      </trkpt>
      <trkpt lat="43.55018" lon="3.27411">
        <ele>181.35</ele>
        <time>2014-04-13T10:15:14Z</time>
      </trkpt>
      <trkpt lat="43.55006" lon="3.27435">
        <ele>179.9</ele>
        <time>2014-04-13T10:15:17Z</time>
      </trkpt>
      <trkpt lat="43.55002" lon="3.27437">
        <ele>179.42</ele>
        <time>2014-04-13T10:15:18Z</time>
      </trkpt>
      <trkpt lat="43.54998" lon="3.27433">
        <ele>178.94</ele>
        <time>2014-04-13T10:15:19Z</time>
      </trkpt>
      <trkpt lat="43.54997" lon="3.27426">
        <ele>178.46</ele>
        <time>2014-04-13T10:15:20Z</time>
      </trkpt>
      <trkpt lat="43.54998" lon="3.27417">
        <ele>178.46</ele>
        <time>2014-04-13T10:15:21Z</time>
      </trkpt>
      <trkpt lat="43.55002" lon="3.27407">
        <ele>177.5</ele>
        <time>2014-04-13T10:15:22Z</time>
      </trkpt>
      <trkpt lat="43.55006" lon="3.27395">
        <ele>177.02</ele>
        <time>2014-04-13T10:15:23Z</time>
      </trkpt>
      <trkpt lat="43.55008" lon="3.27383">
        <ele>176.54</ele>
        <time>2014-04-13T10:15:24Z</time>
      </trkpt>
      <trkpt lat="43.55008" lon="3.2737">
        <ele>176.54</ele>
        <time>2014-04-13T10:15:25Z</time>
      </trkpt>
      <trkpt lat="43.55006" lon="3.27358">
        <ele>176.06</ele>
        <time>2014-04-13T10:15:26Z</time>
      </trkpt>
      <trkpt lat="43.55004" lon="3.27346">
        <ele>175.58</ele>
        <time>2014-04-13T10:15:27Z</time>
      </trkpt>
      <trkpt lat="43.54994" lon="3.27298">
        <ele>173.66</ele>
        <time>2014-04-13T10:15:31Z</time>
      </trkpt>
      <trkpt lat="43.54989" lon="3.27286">
        <ele>173.17</ele>
        <time>2014-04-13T10:15:32Z</time>
      </trkpt>
      <trkpt lat="43.54983" lon="3.27275">
        <ele>172.69</ele>
        <time>2014-04-13T10:15:33Z</time>
      </trkpt>
      <trkpt lat="43.54976" lon="3.27266">
        <ele>171.73</ele>
        <time>2014-04-13T10:15:34Z</time>
      </trkpt>
      <trkpt lat="43.54967" lon="3.27261">
        <ele>171.25</ele>
        <time>2014-04-13T10:15:35Z</time>
      </trkpt>
      <trkpt lat="43.54957" lon="3.2726">
        <ele>170.77</ele>
        <time>2014-04-13T10:15:36Z</time>
      </trkpt>
      <trkpt lat="43.54946" lon="3.27261">
        <ele>170.29</ele>
        <time>2014-04-13T10:15:37Z</time>
      </trkpt>
      <trkpt lat="43.54936" lon="3.27264">
        <ele>169.81</ele>
        <time>2014-04-13T10:15:38Z</time>
      </trkpt>
      <trkpt lat="43.54916" lon="3.27267">
        <ele>168.85</ele>
        <time>2014-04-13T10:15:40Z</time>
      </trkpt>
      <trkpt lat="43.54907" lon="3.27266">
        <ele>168.37</ele>
        <time>2014-04-13T10:15:41Z</time>
      </trkpt>
      <trkpt lat="43.54901" lon="3.27264">
        <ele>167.89</ele>
        <time>2014-04-13T10:15:42Z</time>
      </trkpt>
      <trkpt lat="43.54891" lon="3.27276">
        <ele>166.45</ele>
        <time>2014-04-13T10:15:46Z</time>
      </trkpt>
      <trkpt lat="43.54891" lon="3.27285">
        <ele>165.96</ele>
        <time>2014-04-13T10:15:47Z</time>
      </trkpt>
      <trkpt lat="43.54891" lon="3.27294">
        <ele>165.96</ele>
        <time>2014-04-13T10:15:48Z</time>
      </trkpt>
      <trkpt lat="43.54891" lon="3.27302">
        <ele>165.48</ele>
        <time>2014-04-13T10:15:49Z</time>
      </trkpt>
      <trkpt lat="43.54889" lon="3.27323">
        <ele>165</ele>
        <time>2014-04-13T10:15:57Z</time>
      </trkpt>
      <trkpt lat="43.5489" lon="3.27361">
        <ele>165.96</ele>
        <time>2014-04-13T10:17:14Z</time>
      </trkpt>
      <trkpt lat="43.5489" lon="3.27418">
        <ele>165.48</ele>
        <time>2014-04-13T10:17:18Z</time>
      </trkpt>
      <trkpt lat="43.54888" lon="3.27436">
        <ele>165</ele>
        <time>2014-04-13T10:17:19Z</time>
      </trkpt>
      <trkpt lat="43.54865" lon="3.27651">
        <ele>162.12</ele>
        <time>2014-04-13T10:17:30Z</time>
      </trkpt>
      <trkpt lat="43.54873" lon="3.27874">
        <ele>163.56</ele>
        <time>2014-04-13T10:17:40Z</time>
      </trkpt>
      <trkpt lat="43.54853" lon="3.28057">
        <ele>162.12</ele>
        <time>2014-04-13T10:17:48Z</time>
      </trkpt>
      <trkpt lat="43.54832" lon="3.28151">
        <ele>164.52</ele>
        <time>2014-04-13T10:17:53Z</time>
      </trkpt>
      <trkpt lat="43.54832" lon="3.28165">
        <ele>164.52</ele>
        <time>2014-04-13T10:17:54Z</time>
      </trkpt>
      <trkpt lat="43.54835" lon="3.28178">
        <ele>164.52</ele>
        <time>2014-04-13T10:17:55Z</time>
      </trkpt>
      <trkpt lat="43.54841" lon="3.28191">
        <ele>164.52</ele>
        <time>2014-04-13T10:17:56Z</time>
      </trkpt>
      <trkpt lat="43.54846" lon="3.28205">
        <ele>164.52</ele>
        <time>2014-04-13T10:17:57Z</time>
      </trkpt>
      <trkpt lat="43.54848" lon="3.28219">
        <ele>164.52</ele>
        <time>2014-04-13T10:17:58Z</time>
      </trkpt>
      <trkpt lat="43.54846" lon="3.28234">
        <ele>164.52</ele>
        <time>2014-04-13T10:17:59Z</time>
      </trkpt>
      <trkpt lat="43.54842" lon="3.28252">
        <ele>165</ele>
        <time>2014-04-13T10:18:00Z</time>
      </trkpt>
      <trkpt lat="43.54835" lon="3.2827">
        <ele>165.48</ele>
        <time>2014-04-13T10:18:01Z</time>
      </trkpt>
      <trkpt lat="43.54828" lon="3.28288">
        <ele>165.96</ele>
        <time>2014-04-13T10:18:02Z</time>
      </trkpt>
      <trkpt lat="43.5482" lon="3.28306">
        <ele>166.93</ele>
        <time>2014-04-13T10:18:03Z</time>
      </trkpt>
      <trkpt lat="43.54813" lon="3.28325">
        <ele>167.89</ele>
        <time>2014-04-13T10:18:04Z</time>
      </trkpt>
      <trkpt lat="43.54807" lon="3.28344">
        <ele>168.85</ele>
        <time>2014-04-13T10:18:05Z</time>
      </trkpt>
      <trkpt lat="43.54755" lon="3.28494">
        <ele>173.66</ele>
        <time>2014-04-13T10:18:13Z</time>
      </trkpt>
      <trkpt lat="43.54751" lon="3.28512">
        <ele>173.66</ele>
        <time>2014-04-13T10:18:14Z</time>
      </trkpt>
      <trkpt lat="43.54737" lon="3.2859">
        <ele>171.25</ele>
        <time>2014-04-13T10:18:18Z</time>
      </trkpt>
      <trkpt lat="43.5473" lon="3.28617">
        <ele>169.81</ele>
        <time>2014-04-13T10:18:20Z</time>
      </trkpt>
      <trkpt lat="43.54729" lon="3.2863">
        <ele>169.33</ele>
        <time>2014-04-13T10:18:21Z</time>
      </trkpt>
      <trkpt lat="43.54731" lon="3.28641">
        <ele>168.37</ele>
        <time>2014-04-13T10:18:22Z</time>
      </trkpt>
      <trkpt lat="43.54738" lon="3.28652">
        <ele>167.41</ele>
        <time>2014-04-13T10:18:23Z</time>
      </trkpt>
      <trkpt lat="43.54743" lon="3.28664">
        <ele>166.45</ele>
        <time>2014-04-13T10:18:24Z</time>
      </trkpt>
      <trkpt lat="43.54746" lon="3.28677">
        <ele>166.45</ele>
        <time>2014-04-13T10:18:25Z</time>
      </trkpt>
      <trkpt lat="43.54745" lon="3.28692">
        <ele>166.45</ele>
        <time>2014-04-13T10:18:26Z</time>
      </trkpt>
      <trkpt lat="43.54742" lon="3.28707">
        <ele>166.45</ele>
        <time>2014-04-13T10:18:27Z</time>
      </trkpt>
      <trkpt lat="43.54738" lon="3.28722">
        <ele>166.93</ele>
        <time>2014-04-13T10:18:28Z</time>
      </trkpt>
      <trkpt lat="43.54734" lon="3.28739">
        <ele>166.93</ele>
        <time>2014-04-13T10:18:29Z</time>
      </trkpt>
      <trkpt lat="43.54732" lon="3.28757">
        <ele>166.93</ele>
        <time>2014-04-13T10:18:30Z</time>
      </trkpt>
      <trkpt lat="43.54731" lon="3.28776">
        <ele>166.45</ele>
        <time>2014-04-13T10:18:31Z</time>
      </trkpt>
      <trkpt lat="43.54732" lon="3.28795">
        <ele>165.48</ele>
        <time>2014-04-13T10:18:32Z</time>
      </trkpt>
      <trkpt lat="43.5473" lon="3.28831">
        <ele>163.56</ele>
        <time>2014-04-13T10:18:34Z</time>
      </trkpt>
      <trkpt lat="43.54726" lon="3.28847">
        <ele>163.08</ele>
        <time>2014-04-13T10:18:35Z</time>
      </trkpt>
      <trkpt lat="43.5472" lon="3.28861">
        <ele>162.12</ele>
        <time>2014-04-13T10:18:36Z</time>
      </trkpt>
      <trkpt lat="43.54706" lon="3.28887">
        <ele>161.16</ele>
        <time>2014-04-13T10:18:38Z</time>
      </trkpt>
      <trkpt lat="43.54702" lon="3.28903">
        <ele>160.2</ele>
        <time>2014-04-13T10:18:39Z</time>
      </trkpt>
      <trkpt lat="43.547" lon="3.28921">
        <ele>159.72</ele>
        <time>2014-04-13T10:18:40Z</time>
      </trkpt>
      <trkpt lat="43.547" lon="3.28939">
        <ele>159.72</ele>
        <time>2014-04-13T10:18:41Z</time>
      </trkpt>
      <trkpt lat="43.54701" lon="3.28958">
        <ele>160.2</ele>
        <time>2014-04-13T10:18:42Z</time>
      </trkpt>
      <trkpt lat="43.54702" lon="3.28976">
        <ele>159.72</ele>
        <time>2014-04-13T10:18:43Z</time>
      </trkpt>
      <trkpt lat="43.54702" lon="3.28993">
        <ele>159.72</ele>
        <time>2014-04-13T10:18:44Z</time>
      </trkpt>
      <trkpt lat="43.54701" lon="3.29009">
        <ele>159.72</ele>
        <time>2014-04-13T10:18:45Z</time>
      </trkpt>
      <trkpt lat="43.54699" lon="3.29024">
        <ele>159.24</ele>
        <time>2014-04-13T10:18:46Z</time>
      </trkpt>
      <trkpt lat="43.54695" lon="3.29039">
        <ele>158.27</ele>
        <time>2014-04-13T10:18:47Z</time>
      </trkpt>
      <trkpt lat="43.54689" lon="3.29055">
        <ele>157.79</ele>
        <time>2014-04-13T10:18:48Z</time>
      </trkpt>
      <trkpt lat="43.54675" lon="3.29085">
        <ele>155.39</ele>
        <time>2014-04-13T10:18:50Z</time>
      </trkpt>
      <trkpt lat="43.5467" lon="3.29101">
        <ele>154.43</ele>
        <time>2014-04-13T10:18:51Z</time>
      </trkpt>
      <trkpt lat="43.54664" lon="3.29118">
        <ele>153.47</ele>
        <time>2014-04-13T10:18:52Z</time>
      </trkpt>
      <trkpt lat="43.54658" lon="3.29132">
        <ele>152.51</ele>
        <time>2014-04-13T10:18:53Z</time>
      </trkpt>
      <trkpt lat="43.5465" lon="3.29144">
        <ele>151.54</ele>
        <time>2014-04-13T10:18:54Z</time>
      </trkpt>
      <trkpt lat="43.54641" lon="3.29151">
        <ele>151.06</ele>
        <time>2014-04-13T10:18:55Z</time>
      </trkpt>
      <trkpt lat="43.54631" lon="3.29159">
        <ele>151.06</ele>
        <time>2014-04-13T10:18:56Z</time>
      </trkpt>
      <trkpt lat="43.54622" lon="3.29168">
        <ele>151.06</ele>
        <time>2014-04-13T10:18:57Z</time>
      </trkpt>
      <trkpt lat="43.54612" lon="3.2918">
        <ele>151.54</ele>
        <time>2014-04-13T10:18:58Z</time>
      </trkpt>
      <trkpt lat="43.54537" lon="3.29318">
        <ele>147.7</ele>
        <time>2014-04-13T10:19:07Z</time>
      </trkpt>
      <trkpt lat="43.54533" lon="3.29335">
        <ele>147.7</ele>
        <time>2014-04-13T10:19:08Z</time>
      </trkpt>
      <trkpt lat="43.54525" lon="3.29421">
        <ele>147.22</ele>
        <time>2014-04-13T10:19:13Z</time>
      </trkpt>
      <trkpt lat="43.54526" lon="3.29433">
        <ele>147.22</ele>
        <time>2014-04-13T10:19:14Z</time>
      </trkpt>
      <trkpt lat="43.54531" lon="3.29444">
        <ele>147.22</ele>
        <time>2014-04-13T10:19:15Z</time>
      </trkpt>
      <trkpt lat="43.54537" lon="3.29453">
        <ele>146.74</ele>
        <time>2014-04-13T10:19:16Z</time>
      </trkpt>
      <trkpt lat="43.54545" lon="3.29461">
        <ele>145.78</ele>
        <time>2014-04-13T10:19:17Z</time>
      </trkpt>
      <trkpt lat="43.54556" lon="3.29468">
        <ele>145.3</ele>
        <time>2014-04-13T10:19:18Z</time>
      </trkpt>
      <trkpt lat="43.54567" lon="3.29475">
        <ele>143.85</ele>
        <time>2014-04-13T10:19:19Z</time>
      </trkpt>
      <trkpt lat="43.54671" lon="3.29533">
        <ele>133.28</ele>
        <time>2014-04-13T10:19:27Z</time>
      </trkpt>
      <trkpt lat="43.54685" lon="3.29537">
        <ele>131.84</ele>
        <time>2014-04-13T10:19:28Z</time>
      </trkpt>
      <trkpt lat="43.54775" lon="3.29546">
        <ele>124.63</ele>
        <time>2014-04-13T10:19:35Z</time>
      </trkpt>
      <trkpt lat="43.54787" lon="3.2955">
        <ele>123.19</ele>
        <time>2014-04-13T10:19:36Z</time>
      </trkpt>
      <trkpt lat="43.548" lon="3.29556">
        <ele>122.71</ele>
        <time>2014-04-13T10:19:37Z</time>
      </trkpt>
      <trkpt lat="43.54897" lon="3.29606">
        <ele>122.22</ele>
        <time>2014-04-13T10:19:45Z</time>
      </trkpt>
      <trkpt lat="43.54906" lon="3.29614">
        <ele>122.22</ele>
        <time>2014-04-13T10:19:46Z</time>
      </trkpt>
      <trkpt lat="43.54915" lon="3.29626">
        <ele>122.22</ele>
        <time>2014-04-13T10:19:47Z</time>
      </trkpt>
      <trkpt lat="43.54973" lon="3.29709">
        <ele>124.15</ele>
        <time>2014-04-13T10:19:54Z</time>
      </trkpt>
      <trkpt lat="43.54977" lon="3.29717">
        <ele>124.15</ele>
        <time>2014-04-13T10:19:55Z</time>
      </trkpt>
      <trkpt lat="43.54979" lon="3.29724">
        <ele>124.63</ele>
        <time>2014-04-13T10:19:56Z</time>
      </trkpt>
      <trkpt lat="43.5498" lon="3.2973">
        <ele>125.11</ele>
        <time>2014-04-13T10:19:57Z</time>
      </trkpt>
      <trkpt lat="43.5498" lon="3.29734">
        <ele>125.59</ele>
        <time>2014-04-13T10:19:58Z</time>
      </trkpt>
      <trkpt lat="43.54983" lon="3.29746">
        <ele>127.03</ele>
        <time>2014-04-13T10:20:01Z</time>
      </trkpt>
      <trkpt lat="43.54986" lon="3.29753">
        <ele>127.03</ele>
        <time>2014-04-13T10:20:02Z</time>
      </trkpt>
      <trkpt lat="43.55022" lon="3.29835">
        <ele>130.88</ele>
        <time>2014-04-13T10:20:09Z</time>
      </trkpt>
      <trkpt lat="43.55031" lon="3.29856">
        <ele>131.84</ele>
        <time>2014-04-13T10:20:11Z</time>
      </trkpt>
      <trkpt lat="43.55037" lon="3.29864">
        <ele>131.84</ele>
        <time>2014-04-13T10:20:12Z</time>
      </trkpt>
      <trkpt lat="43.55043" lon="3.29871">
        <ele>132.32</ele>
        <time>2014-04-13T10:20:13Z</time>
      </trkpt>
      <trkpt lat="43.55051" lon="3.29874">
        <ele>131.84</ele>
        <time>2014-04-13T10:20:14Z</time>
      </trkpt>
      <trkpt lat="43.5506" lon="3.29874">
        <ele>131.84</ele>
        <time>2014-04-13T10:20:15Z</time>
      </trkpt>
      <trkpt lat="43.5507" lon="3.29872">
        <ele>131.84</ele>
        <time>2014-04-13T10:20:16Z</time>
      </trkpt>
      <trkpt lat="43.55082" lon="3.29868">
        <ele>132.32</ele>
        <time>2014-04-13T10:20:17Z</time>
      </trkpt>
      <trkpt lat="43.55096" lon="3.29862">
        <ele>132.8</ele>
        <time>2014-04-13T10:20:18Z</time>
      </trkpt>
      <trkpt lat="43.5511" lon="3.29852">
        <ele>132.8</ele>
        <time>2014-04-13T10:20:19Z</time>
      </trkpt>
      <trkpt lat="43.55125" lon="3.2984">
        <ele>132.8</ele>
        <time>2014-04-13T10:20:20Z</time>
      </trkpt>
      <trkpt lat="43.55142" lon="3.29827">
        <ele>133.76</ele>
        <time>2014-04-13T10:20:21Z</time>
      </trkpt>
      <trkpt lat="43.55274" lon="3.29751">
        <ele>135.68</ele>
        <time>2014-04-13T10:20:29Z</time>
      </trkpt>
      <trkpt lat="43.55291" lon="3.29749">
        <ele>135.68</ele>
        <time>2014-04-13T10:20:30Z</time>
      </trkpt>
      <trkpt lat="43.55373" lon="3.29749">
        <ele>136.16</ele>
        <time>2014-04-13T10:20:35Z</time>
      </trkpt>
      <trkpt lat="43.55387" lon="3.29753">
        <ele>136.64</ele>
        <time>2014-04-13T10:20:36Z</time>
      </trkpt>
      <trkpt lat="43.55464" lon="3.29779">
        <ele>137.13</ele>
        <time>2014-04-13T10:20:42Z</time>
      </trkpt>
      <trkpt lat="43.55476" lon="3.2978">
        <ele>137.61</ele>
        <time>2014-04-13T10:20:43Z</time>
      </trkpt>
      <trkpt lat="43.55551" lon="3.29798">
        <ele>141.93</ele>
        <time>2014-04-13T10:20:50Z</time>
      </trkpt>
      <trkpt lat="43.55562" lon="3.29804">
        <ele>143.37</ele>
        <time>2014-04-13T10:20:52Z</time>
      </trkpt>
      <trkpt lat="43.55565" lon="3.29802">
        <ele>143.85</ele>
        <time>2014-04-13T10:20:53Z</time>
      </trkpt>
      <trkpt lat="43.55566" lon="3.29798">
        <ele>143.85</ele>
        <time>2014-04-13T10:20:54Z</time>
      </trkpt>
      <trkpt lat="43.55579" lon="3.29776">
        <ele>143.37</ele>
        <time>2014-04-13T10:21:03Z</time>
      </trkpt>
      <trkpt lat="43.55579" lon="3.29774">
        <ele>143.37</ele>
        <time>2014-04-13T10:21:04Z</time>
      </trkpt>
      <trkpt lat="43.5557" lon="3.2977">
        <ele>142.89</ele>
        <time>2014-04-13T10:21:11Z</time>
      </trkpt>
      <trkpt lat="43.5557" lon="3.29771">
        <ele>141.45</ele>
        <time>2014-04-13T10:21:38Z</time>
      </trkpt>
      <trkpt lat="43.5557" lon="3.29771">
        <ele>140.49</ele>
        <time>2014-04-13T10:21:55Z</time>
      </trkpt>
      <trkpt lat="43.5557" lon="3.29771">
        <ele>141.93</ele>
        <time>2014-04-13T10:32:49Z</time>
      </trkpt>
      <trkpt lat="43.55569" lon="3.2977">
        <ele>142.89</ele>
        <time>2014-04-13T10:33:06Z</time>
      </trkpt>
      <trkpt lat="43.55555" lon="3.29795">
        <ele>142.41</ele>
        <time>2014-04-13T10:33:18Z</time>
      </trkpt>
      <trkpt lat="43.55555" lon="3.29797">
        <ele>141.93</ele>
        <time>2014-04-13T10:33:33Z</time>
      </trkpt>
      <trkpt lat="43.55562" lon="3.29806">
        <ele>143.37</ele>
        <time>2014-04-13T10:33:36Z</time>
      </trkpt>
      <trkpt lat="43.55583" lon="3.29818">
        <ele>146.74</ele>
        <time>2014-04-13T10:33:39Z</time>
      </trkpt>
      <trkpt lat="43.55593" lon="3.29821">
        <ele>148.18</ele>
        <time>2014-04-13T10:33:40Z</time>
      </trkpt>
      <trkpt lat="43.55603" lon="3.29823">
        <ele>150.1</ele>
        <time>2014-04-13T10:33:41Z</time>
      </trkpt>
      <trkpt lat="43.55614" lon="3.29823">
        <ele>151.54</ele>
        <time>2014-04-13T10:33:42Z</time>
      </trkpt>
      <trkpt lat="43.55626" lon="3.29822">
        <ele>152.99</ele>
        <time>2014-04-13T10:33:43Z</time>
      </trkpt>
      <trkpt lat="43.5564" lon="3.29818">
        <ele>154.43</ele>
        <time>2014-04-13T10:33:44Z</time>
      </trkpt>
      <trkpt lat="43.55723" lon="3.29798">
        <ele>163.56</ele>
        <time>2014-04-13T10:33:50Z</time>
      </trkpt>
      <trkpt lat="43.55736" lon="3.29799">
        <ele>165</ele>
        <time>2014-04-13T10:33:51Z</time>
      </trkpt>
      <trkpt lat="43.55749" lon="3.29803">
        <ele>166.45</ele>
        <time>2014-04-13T10:33:52Z</time>
      </trkpt>
      <trkpt lat="43.55761" lon="3.29809">
        <ele>167.41</ele>
        <time>2014-04-13T10:33:53Z</time>
      </trkpt>
      <trkpt lat="43.55772" lon="3.29817">
        <ele>168.37</ele>
        <time>2014-04-13T10:33:54Z</time>
      </trkpt>
      <trkpt lat="43.55777" lon="3.29828">
        <ele>169.33</ele>
        <time>2014-04-13T10:33:55Z</time>
      </trkpt>
      <trkpt lat="43.55782" lon="3.29837">
        <ele>169.81</ele>
        <time>2014-04-13T10:33:56Z</time>
      </trkpt>
      <trkpt lat="43.55787" lon="3.29848">
        <ele>170.29</ele>
        <time>2014-04-13T10:33:57Z</time>
      </trkpt>
      <trkpt lat="43.55793" lon="3.2986">
        <ele>170.77</ele>
        <time>2014-04-13T10:33:58Z</time>
      </trkpt>
      <trkpt lat="43.55864" lon="3.3">
        <ele>177.5</ele>
        <time>2014-04-13T10:34:07Z</time>
      </trkpt>
      <trkpt lat="43.55957" lon="3.30163">
        <ele>181.35</ele>
        <time>2014-04-13T10:34:18Z</time>
      </trkpt>
      <trkpt lat="43.55979" lon="3.30202">
        <ele>181.35</ele>
        <time>2014-04-13T10:34:21Z</time>
      </trkpt>
      <trkpt lat="43.55984" lon="3.30219">
        <ele>181.35</ele>
        <time>2014-04-13T10:34:22Z</time>
      </trkpt>
      <trkpt lat="43.55987" lon="3.30236">
        <ele>181.35</ele>
        <time>2014-04-13T10:34:23Z</time>
      </trkpt>
      <trkpt lat="43.55987" lon="3.30254">
        <ele>181.35</ele>
        <time>2014-04-13T10:34:24Z</time>
      </trkpt>
      <trkpt lat="43.55987" lon="3.30271">
        <ele>180.87</ele>
        <time>2014-04-13T10:34:25Z</time>
      </trkpt>
      <trkpt lat="43.55986" lon="3.30288">
        <ele>180.38</ele>
        <time>2014-04-13T10:34:26Z</time>
      </trkpt>
      <trkpt lat="43.55987" lon="3.30303">
        <ele>180.38</ele>
        <time>2014-04-13T10:34:27Z</time>
      </trkpt>
      <trkpt lat="43.5599" lon="3.30316">
        <ele>180.38</ele>
        <time>2014-04-13T10:34:28Z</time>
      </trkpt>
      <trkpt lat="43.55996" lon="3.30325">
        <ele>180.38</ele>
        <time>2014-04-13T10:34:29Z</time>
      </trkpt>
      <trkpt lat="43.56005" lon="3.3033">
        <ele>180.38</ele>
        <time>2014-04-13T10:34:30Z</time>
      </trkpt>
      <trkpt lat="43.56015" lon="3.3033">
        <ele>180.38</ele>
        <time>2014-04-13T10:34:31Z</time>
      </trkpt>
      <trkpt lat="43.56026" lon="3.30324">
        <ele>180.38</ele>
        <time>2014-04-13T10:34:32Z</time>
      </trkpt>
      <trkpt lat="43.56035" lon="3.30316">
        <ele>180.38</ele>
        <time>2014-04-13T10:34:33Z</time>
      </trkpt>
      <trkpt lat="43.56045" lon="3.30302">
        <ele>180.38</ele>
        <time>2014-04-13T10:34:34Z</time>
      </trkpt>
      <trkpt lat="43.56054" lon="3.30287">
        <ele>179.9</ele>
        <time>2014-04-13T10:34:35Z</time>
      </trkpt>
      <trkpt lat="43.56063" lon="3.30273">
        <ele>180.38</ele>
        <time>2014-04-13T10:34:36Z</time>
      </trkpt>
      <trkpt lat="43.56072" lon="3.30262">
        <ele>180.38</ele>
        <time>2014-04-13T10:34:37Z</time>
      </trkpt>
      <trkpt lat="43.56081" lon="3.30254">
        <ele>180.87</ele>
        <time>2014-04-13T10:34:38Z</time>
      </trkpt>
      <trkpt lat="43.56092" lon="3.30251">
        <ele>180.38</ele>
        <time>2014-04-13T10:34:39Z</time>
      </trkpt>
      <trkpt lat="43.56103" lon="3.30254">
        <ele>180.38</ele>
        <time>2014-04-13T10:34:40Z</time>
      </trkpt>
      <trkpt lat="43.56114" lon="3.30261">
        <ele>180.38</ele>
        <time>2014-04-13T10:34:41Z</time>
      </trkpt>
      <trkpt lat="43.56124" lon="3.30269">
        <ele>180.38</ele>
        <time>2014-04-13T10:34:42Z</time>
      </trkpt>
      <trkpt lat="43.56135" lon="3.30278">
        <ele>180.38</ele>
        <time>2014-04-13T10:34:43Z</time>
      </trkpt>
      <trkpt lat="43.56146" lon="3.30285">
        <ele>180.38</ele>
        <time>2014-04-13T10:34:44Z</time>
      </trkpt>
      <trkpt lat="43.56157" lon="3.3029">
        <ele>180.38</ele>
        <time>2014-04-13T10:34:45Z</time>
      </trkpt>
      <trkpt lat="43.56169" lon="3.30289">
        <ele>180.38</ele>
        <time>2014-04-13T10:34:46Z</time>
      </trkpt>
      <trkpt lat="43.5618" lon="3.30283">
        <ele>179.9</ele>
        <time>2014-04-13T10:34:47Z</time>
      </trkpt>
      <trkpt lat="43.5619" lon="3.30274">
        <ele>179.42</ele>
        <time>2014-04-13T10:34:48Z</time>
      </trkpt>
      <trkpt lat="43.56201" lon="3.30266">
        <ele>179.42</ele>
        <time>2014-04-13T10:34:49Z</time>
      </trkpt>
      <trkpt lat="43.56213" lon="3.30262">
        <ele>179.42</ele>
        <time>2014-04-13T10:34:50Z</time>
      </trkpt>
      <trkpt lat="43.56226" lon="3.30264">
        <ele>179.42</ele>
        <time>2014-04-13T10:34:51Z</time>
      </trkpt>
      <trkpt lat="43.5624" lon="3.30269">
        <ele>179.42</ele>
        <time>2014-04-13T10:34:52Z</time>
      </trkpt>
      <trkpt lat="43.56256" lon="3.30277">
        <ele>179.42</ele>
        <time>2014-04-13T10:34:53Z</time>
      </trkpt>
      <trkpt lat="43.56322" lon="3.30317">
        <ele>179.9</ele>
        <time>2014-04-13T10:34:57Z</time>
      </trkpt>
      <trkpt lat="43.56337" lon="3.30333">
        <ele>179.9</ele>
        <time>2014-04-13T10:34:58Z</time>
      </trkpt>
      <trkpt lat="43.56351" lon="3.30352">
        <ele>179.9</ele>
        <time>2014-04-13T10:34:59Z</time>
      </trkpt>
      <trkpt lat="43.56362" lon="3.30374">
        <ele>179.9</ele>
        <time>2014-04-13T10:35:00Z</time>
      </trkpt>
      <trkpt lat="43.56372" lon="3.30397">
        <ele>179.9</ele>
        <time>2014-04-13T10:35:01Z</time>
      </trkpt>
      <trkpt lat="43.56381" lon="3.3042">
        <ele>179.9</ele>
        <time>2014-04-13T10:35:02Z</time>
      </trkpt>
      <trkpt lat="43.56403" lon="3.30484">
        <ele>178.94</ele>
        <time>2014-04-13T10:35:05Z</time>
      </trkpt>
      <trkpt lat="43.56406" lon="3.30503">
        <ele>178.94</ele>
        <time>2014-04-13T10:35:06Z</time>
      </trkpt>
      <trkpt lat="43.56407" lon="3.30522">
        <ele>178.94</ele>
        <time>2014-04-13T10:35:07Z</time>
      </trkpt>
      <trkpt lat="43.56409" lon="3.30541">
        <ele>178.94</ele>
        <time>2014-04-13T10:35:08Z</time>
      </trkpt>
      <trkpt lat="43.56412" lon="3.30559">
        <ele>178.94</ele>
        <time>2014-04-13T10:35:09Z</time>
      </trkpt>
      <trkpt lat="43.56418" lon="3.30576">
        <ele>178.94</ele>
        <time>2014-04-13T10:35:10Z</time>
      </trkpt>
      <trkpt lat="43.56427" lon="3.30594">
        <ele>178.46</ele>
        <time>2014-04-13T10:35:11Z</time>
      </trkpt>
      <trkpt lat="43.56436" lon="3.30611">
        <ele>178.46</ele>
        <time>2014-04-13T10:35:12Z</time>
      </trkpt>
      <trkpt lat="43.5646" lon="3.30651">
        <ele>177.98</ele>
        <time>2014-04-13T10:35:15Z</time>
      </trkpt>
      <trkpt lat="43.56468" lon="3.30659">
        <ele>177.98</ele>
        <time>2014-04-13T10:35:16Z</time>
      </trkpt>
      <trkpt lat="43.56476" lon="3.30664">
        <ele>177.5</ele>
        <time>2014-04-13T10:35:17Z</time>
      </trkpt>
      <trkpt lat="43.56489" lon="3.30671">
        <ele>177.02</ele>
        <time>2014-04-13T10:35:20Z</time>
      </trkpt>
      <trkpt lat="43.56491" lon="3.30669">
        <ele>177.02</ele>
        <time>2014-04-13T10:35:21Z</time>
      </trkpt>
      <trkpt lat="43.5649" lon="3.30664">
        <ele>175.58</ele>
        <time>2014-04-13T10:35:31Z</time>
      </trkpt>
      <trkpt lat="43.56488" lon="3.30663">
        <ele>174.62</ele>
        <time>2014-04-13T10:40:08Z</time>
      </trkpt>
      <trkpt lat="43.56487" lon="3.30662">
        <ele>174.62</ele>
        <time>2014-04-13T10:42:44Z</time>
      </trkpt>
      <trkpt lat="43.56487" lon="3.30661">
        <ele>174.62</ele>
        <time>2014-04-13T10:42:45Z</time>
      </trkpt>
      <trkpt lat="43.56477" lon="3.30655">
        <ele>175.1</ele>
        <time>2014-04-13T10:42:49Z</time>
      </trkpt>
      <trkpt lat="43.56471" lon="3.30653">
        <ele>175.1</ele>
        <time>2014-04-13T10:42:50Z</time>
      </trkpt>
      <trkpt lat="43.56465" lon="3.3065">
        <ele>175.58</ele>
        <time>2014-04-13T10:42:51Z</time>
      </trkpt>
      <trkpt lat="43.56459" lon="3.30645">
        <ele>175.58</ele>
        <time>2014-04-13T10:42:52Z</time>
      </trkpt>
      <trkpt lat="43.56454" lon="3.30639">
        <ele>175.58</ele>
        <time>2014-04-13T10:42:53Z</time>
      </trkpt>
      <trkpt lat="43.5645" lon="3.30633">
        <ele>175.58</ele>
        <time>2014-04-13T10:42:54Z</time>
      </trkpt>
      <trkpt lat="43.56446" lon="3.30626">
        <ele>175.58</ele>
        <time>2014-04-13T10:42:55Z</time>
      </trkpt>
      <trkpt lat="43.56443" lon="3.3062">
        <ele>176.06</ele>
        <time>2014-04-13T10:42:56Z</time>
      </trkpt>
      <trkpt lat="43.56436" lon="3.30603">
        <ele>176.06</ele>
        <time>2014-04-13T10:43:03Z</time>
      </trkpt>
      <trkpt lat="43.56434" lon="3.30602">
        <ele>175.58</ele>
        <time>2014-04-13T10:43:53Z</time>
      </trkpt>
      <trkpt lat="43.56432" lon="3.30599">
        <ele>176.54</ele>
        <time>2014-04-13T10:44:12Z</time>
      </trkpt>
      <trkpt lat="43.56431" lon="3.30598">
        <ele>178.94</ele>
        <time>2014-04-13T10:44:44Z</time>
      </trkpt>
      <trkpt lat="43.56414" lon="3.3057">
        <ele>179.9</ele>
        <time>2014-04-13T10:44:55Z</time>
      </trkpt>
      <trkpt lat="43.56404" lon="3.30546">
        <ele>179.9</ele>
        <time>2014-04-13T10:44:57Z</time>
      </trkpt>
      <trkpt lat="43.564" lon="3.30531">
        <ele>179.9</ele>
        <time>2014-04-13T10:44:58Z</time>
      </trkpt>
      <trkpt lat="43.56399" lon="3.30515">
        <ele>180.38</ele>
        <time>2014-04-13T10:44:59Z</time>
      </trkpt>
      <trkpt lat="43.56397" lon="3.3048">
        <ele>180.87</ele>
        <time>2014-04-13T10:45:01Z</time>
      </trkpt>
      <trkpt lat="43.56392" lon="3.30462">
        <ele>181.35</ele>
        <time>2014-04-13T10:45:02Z</time>
      </trkpt>
      <trkpt lat="43.56386" lon="3.30445">
        <ele>181.83</ele>
        <time>2014-04-13T10:45:03Z</time>
      </trkpt>
      <trkpt lat="43.56346" lon="3.30352">
        <ele>183.27</ele>
        <time>2014-04-13T10:45:08Z</time>
      </trkpt>
      <trkpt lat="43.56336" lon="3.30335">
        <ele>183.27</ele>
        <time>2014-04-13T10:45:09Z</time>
      </trkpt>
      <trkpt lat="43.56324" lon="3.30321">
        <ele>183.27</ele>
        <time>2014-04-13T10:45:10Z</time>
      </trkpt>
      <trkpt lat="43.56312" lon="3.30309">
        <ele>183.27</ele>
        <time>2014-04-13T10:45:11Z</time>
      </trkpt>
      <trkpt lat="43.56299" lon="3.30299">
        <ele>183.27</ele>
        <time>2014-04-13T10:45:12Z</time>
      </trkpt>
      <trkpt lat="43.56286" lon="3.3029">
        <ele>183.27</ele>
        <time>2014-04-13T10:45:13Z</time>
      </trkpt>
      <trkpt lat="43.56271" lon="3.30282">
        <ele>183.27</ele>
        <time>2014-04-13T10:45:14Z</time>
      </trkpt>
      <trkpt lat="43.56214" lon="3.30257">
        <ele>182.31</ele>
        <time>2014-04-13T10:45:18Z</time>
      </trkpt>
      <trkpt lat="43.562" lon="3.3026">
        <ele>181.83</ele>
        <time>2014-04-13T10:45:19Z</time>
      </trkpt>
      <trkpt lat="43.56187" lon="3.30268">
        <ele>181.35</ele>
        <time>2014-04-13T10:45:20Z</time>
      </trkpt>
      <trkpt lat="43.56176" lon="3.30278">
        <ele>180.87</ele>
        <time>2014-04-13T10:45:21Z</time>
      </trkpt>
      <trkpt lat="43.56164" lon="3.30285">
        <ele>180.38</ele>
        <time>2014-04-13T10:45:22Z</time>
      </trkpt>
      <trkpt lat="43.56151" lon="3.30286">
        <ele>180.38</ele>
        <time>2014-04-13T10:45:23Z</time>
      </trkpt>
      <trkpt lat="43.56138" lon="3.30282">
        <ele>179.9</ele>
        <time>2014-04-13T10:45:24Z</time>
      </trkpt>
      <trkpt lat="43.56124" lon="3.30271">
        <ele>179.9</ele>
        <time>2014-04-13T10:45:25Z</time>
      </trkpt>
      <trkpt lat="43.56112" lon="3.30261">
        <ele>179.9</ele>
        <time>2014-04-13T10:45:26Z</time>
      </trkpt>
      <trkpt lat="43.56098" lon="3.30253">
        <ele>179.42</ele>
        <time>2014-04-13T10:45:27Z</time>
      </trkpt>
      <trkpt lat="43.56085" lon="3.3025">
        <ele>178.94</ele>
        <time>2014-04-13T10:45:28Z</time>
      </trkpt>
      <trkpt lat="43.56072" lon="3.30255">
        <ele>178.46</ele>
        <time>2014-04-13T10:45:29Z</time>
      </trkpt>
      <trkpt lat="43.56061" lon="3.30265">
        <ele>177.98</ele>
        <time>2014-04-13T10:45:30Z</time>
      </trkpt>
      <trkpt lat="43.5605" lon="3.30279">
        <ele>177.98</ele>
        <time>2014-04-13T10:45:31Z</time>
      </trkpt>
      <trkpt lat="43.56041" lon="3.30294">
        <ele>177.98</ele>
        <time>2014-04-13T10:45:32Z</time>
      </trkpt>
      <trkpt lat="43.56032" lon="3.30308">
        <ele>177.98</ele>
        <time>2014-04-13T10:45:33Z</time>
      </trkpt>
      <trkpt lat="43.56023" lon="3.3032">
        <ele>177.98</ele>
        <time>2014-04-13T10:45:34Z</time>
      </trkpt>
      <trkpt lat="43.56015" lon="3.30327">
        <ele>177.5</ele>
        <time>2014-04-13T10:45:35Z</time>
      </trkpt>
      <trkpt lat="43.56006" lon="3.30328">
        <ele>177.5</ele>
        <time>2014-04-13T10:45:36Z</time>
      </trkpt>
      <trkpt lat="43.55997" lon="3.30324">
        <ele>177.98</ele>
        <time>2014-04-13T10:45:37Z</time>
      </trkpt>
      <trkpt lat="43.5599" lon="3.30314">
        <ele>177.98</ele>
        <time>2014-04-13T10:45:38Z</time>
      </trkpt>
      <trkpt lat="43.55984" lon="3.303">
        <ele>177.98</ele>
        <time>2014-04-13T10:45:39Z</time>
      </trkpt>
      <trkpt lat="43.55981" lon="3.30283">
        <ele>177.02</ele>
        <time>2014-04-13T10:45:40Z</time>
      </trkpt>
      <trkpt lat="43.55981" lon="3.30264">
        <ele>177.02</ele>
        <time>2014-04-13T10:45:41Z</time>
      </trkpt>
      <trkpt lat="43.55983" lon="3.30244">
        <ele>177.02</ele>
        <time>2014-04-13T10:45:42Z</time>
      </trkpt>
      <trkpt lat="43.55982" lon="3.30224">
        <ele>177.02</ele>
        <time>2014-04-13T10:45:43Z</time>
      </trkpt>
      <trkpt lat="43.5598" lon="3.30204">
        <ele>177.02</ele>
        <time>2014-04-13T10:45:44Z</time>
      </trkpt>
      <trkpt lat="43.55973" lon="3.30185">
        <ele>177.02</ele>
        <time>2014-04-13T10:45:45Z</time>
      </trkpt>
      <trkpt lat="43.55964" lon="3.30167">
        <ele>177.02</ele>
        <time>2014-04-13T10:45:46Z</time>
      </trkpt>
      <trkpt lat="43.55952" lon="3.3015">
        <ele>177.02</ele>
        <time>2014-04-13T10:45:47Z</time>
      </trkpt>
      <trkpt lat="43.5594" lon="3.30133">
        <ele>176.54</ele>
        <time>2014-04-13T10:45:48Z</time>
      </trkpt>
      <trkpt lat="43.55853" lon="3.29978">
        <ele>173.66</ele>
        <time>2014-04-13T10:45:56Z</time>
      </trkpt>
      <trkpt lat="43.55782" lon="3.29842">
        <ele>168.85</ele>
        <time>2014-04-13T10:46:04Z</time>
      </trkpt>
      <trkpt lat="43.55773" lon="3.29832">
        <ele>168.37</ele>
        <time>2014-04-13T10:46:05Z</time>
      </trkpt>
      <trkpt lat="43.55763" lon="3.29824">
        <ele>167.41</ele>
        <time>2014-04-13T10:46:06Z</time>
      </trkpt>
      <trkpt lat="43.55751" lon="3.29819">
        <ele>166.45</ele>
        <time>2014-04-13T10:46:07Z</time>
      </trkpt>
      <trkpt lat="43.55739" lon="3.29818">
        <ele>165</ele>
        <time>2014-04-13T10:46:08Z</time>
      </trkpt>
      <trkpt lat="43.55724" lon="3.29825">
        <ele>164.04</ele>
        <time>2014-04-13T10:46:09Z</time>
      </trkpt>
      <trkpt lat="43.55708" lon="3.29832">
        <ele>163.56</ele>
        <time>2014-04-13T10:46:10Z</time>
      </trkpt>
      <trkpt lat="43.55692" lon="3.29839">
        <ele>162.6</ele>
        <time>2014-04-13T10:46:11Z</time>
      </trkpt>
      <trkpt lat="43.55517" lon="3.29911">
        <ele>164.04</ele>
        <time>2014-04-13T10:46:22Z</time>
      </trkpt>
      <trkpt lat="43.55507" lon="3.29921">
        <ele>164.52</ele>
        <time>2014-04-13T10:46:23Z</time>
      </trkpt>
      <trkpt lat="43.55497" lon="3.29933">
        <ele>164.52</ele>
        <time>2014-04-13T10:46:24Z</time>
      </trkpt>
      <trkpt lat="43.5549" lon="3.29947">
        <ele>164.52</ele>
        <time>2014-04-13T10:46:25Z</time>
      </trkpt>
      <trkpt lat="43.55483" lon="3.29963">
        <ele>164.52</ele>
        <time>2014-04-13T10:46:26Z</time>
      </trkpt>
      <trkpt lat="43.55477" lon="3.29979">
        <ele>164.04</ele>
        <time>2014-04-13T10:46:27Z</time>
      </trkpt>
      <trkpt lat="43.5547" lon="3.29994">
        <ele>164.04</ele>
        <time>2014-04-13T10:46:28Z</time>
      </trkpt>
      <trkpt lat="43.55461" lon="3.30006">
        <ele>163.56</ele>
        <time>2014-04-13T10:46:29Z</time>
      </trkpt>
      <trkpt lat="43.55451" lon="3.30016">
        <ele>163.08</ele>
        <time>2014-04-13T10:46:30Z</time>
      </trkpt>
      <trkpt lat="43.55442" lon="3.30024">
        <ele>162.6</ele>
        <time>2014-04-13T10:46:31Z</time>
      </trkpt>
      <trkpt lat="43.55434" lon="3.30028">
        <ele>162.6</ele>
        <time>2014-04-13T10:46:32Z</time>
      </trkpt>
      <trkpt lat="43.55427" lon="3.30031">
        <ele>162.12</ele>
        <time>2014-04-13T10:46:33Z</time>
      </trkpt>
      <trkpt lat="43.55421" lon="3.30034">
        <ele>162.12</ele>
        <time>2014-04-13T10:46:34Z</time>
      </trkpt>
      <trkpt lat="43.55417" lon="3.30039">
        <ele>162.12</ele>
        <time>2014-04-13T10:46:35Z</time>
      </trkpt>
      <trkpt lat="43.55413" lon="3.30047">
        <ele>162.12</ele>
        <time>2014-04-13T10:46:36Z</time>
      </trkpt>
      <trkpt lat="43.55412" lon="3.30058">
        <ele>162.12</ele>
        <time>2014-04-13T10:46:37Z</time>
      </trkpt>
      <trkpt lat="43.55412" lon="3.3007">
        <ele>162.12</ele>
        <time>2014-04-13T10:46:38Z</time>
      </trkpt>
      <trkpt lat="43.55415" lon="3.30083">
        <ele>162.12</ele>
        <time>2014-04-13T10:46:39Z</time>
      </trkpt>
      <trkpt lat="43.55419" lon="3.30094">
        <ele>162.12</ele>
        <time>2014-04-13T10:46:40Z</time>
      </trkpt>
      <trkpt lat="43.55426" lon="3.30102">
        <ele>163.08</ele>
        <time>2014-04-13T10:46:41Z</time>
      </trkpt>
      <trkpt lat="43.55432" lon="3.30111">
        <ele>163.56</ele>
        <time>2014-04-13T10:46:42Z</time>
      </trkpt>
      <trkpt lat="43.55437" lon="3.30121">
        <ele>164.04</ele>
        <time>2014-04-13T10:46:43Z</time>
      </trkpt>
      <trkpt lat="43.55439" lon="3.30132">
        <ele>165</ele>
        <time>2014-04-13T10:46:44Z</time>
      </trkpt>
      <trkpt lat="43.55438" lon="3.30143">
        <ele>165.48</ele>
        <time>2014-04-13T10:46:45Z</time>
      </trkpt>
      <trkpt lat="43.55435" lon="3.30153">
        <ele>165.96</ele>
        <time>2014-04-13T10:46:46Z</time>
      </trkpt>
      <trkpt lat="43.5543" lon="3.30161">
        <ele>166.45</ele>
        <time>2014-04-13T10:46:47Z</time>
      </trkpt>
      <trkpt lat="43.55422" lon="3.30168">
        <ele>166.93</ele>
        <time>2014-04-13T10:46:48Z</time>
      </trkpt>
      <trkpt lat="43.55413" lon="3.3017">
        <ele>167.89</ele>
        <time>2014-04-13T10:46:49Z</time>
      </trkpt>
      <trkpt lat="43.55403" lon="3.30171">
        <ele>168.85</ele>
        <time>2014-04-13T10:46:50Z</time>
      </trkpt>
      <trkpt lat="43.55392" lon="3.30172">
        <ele>169.33</ele>
        <time>2014-04-13T10:46:51Z</time>
      </trkpt>
      <trkpt lat="43.55352" lon="3.30179">
        <ele>173.17</ele>
        <time>2014-04-13T10:46:55Z</time>
      </trkpt>
      <trkpt lat="43.55343" lon="3.30184">
        <ele>173.66</ele>
        <time>2014-04-13T10:46:56Z</time>
      </trkpt>
      <trkpt lat="43.55336" lon="3.30192">
        <ele>174.62</ele>
        <time>2014-04-13T10:46:57Z</time>
      </trkpt>
      <trkpt lat="43.55332" lon="3.30202">
        <ele>174.62</ele>
        <time>2014-04-13T10:46:58Z</time>
      </trkpt>
      <trkpt lat="43.5533" lon="3.30214">
        <ele>175.1</ele>
        <time>2014-04-13T10:46:59Z</time>
      </trkpt>
      <trkpt lat="43.55331" lon="3.30226">
        <ele>175.1</ele>
        <time>2014-04-13T10:47:00Z</time>
      </trkpt>
      <trkpt lat="43.55333" lon="3.3024">
        <ele>175.58</ele>
        <time>2014-04-13T10:47:01Z</time>
      </trkpt>
      <trkpt lat="43.55336" lon="3.30277">
        <ele>177.02</ele>
        <time>2014-04-13T10:47:04Z</time>
      </trkpt>
      <trkpt lat="43.55333" lon="3.30286">
        <ele>177.5</ele>
        <time>2014-04-13T10:47:05Z</time>
      </trkpt>
      <trkpt lat="43.55327" lon="3.30292">
        <ele>177.98</ele>
        <time>2014-04-13T10:47:06Z</time>
      </trkpt>
      <trkpt lat="43.5532" lon="3.30291">
        <ele>178.46</ele>
        <time>2014-04-13T10:47:07Z</time>
      </trkpt>
      <trkpt lat="43.55313" lon="3.30287">
        <ele>178.94</ele>
        <time>2014-04-13T10:47:08Z</time>
      </trkpt>
      <trkpt lat="43.55306" lon="3.30282">
        <ele>178.94</ele>
        <time>2014-04-13T10:47:09Z</time>
      </trkpt>
      <trkpt lat="43.55298" lon="3.30278">
        <ele>178.94</ele>
        <time>2014-04-13T10:47:10Z</time>
      </trkpt>
      <trkpt lat="43.55289" lon="3.30277">
        <ele>178.94</ele>
        <time>2014-04-13T10:47:11Z</time>
      </trkpt>
      <trkpt lat="43.55281" lon="3.30279">
        <ele>178.94</ele>
        <time>2014-04-13T10:47:12Z</time>
      </trkpt>
      <trkpt lat="43.55273" lon="3.30282">
        <ele>179.42</ele>
        <time>2014-04-13T10:47:13Z</time>
      </trkpt>
      <trkpt lat="43.55266" lon="3.30285">
        <ele>179.9</ele>
        <time>2014-04-13T10:47:14Z</time>
      </trkpt>
      <trkpt lat="43.55261" lon="3.30287">
        <ele>180.38</ele>
        <time>2014-04-13T10:47:15Z</time>
      </trkpt>
      <trkpt lat="43.55257" lon="3.30288">
        <ele>180.87</ele>
        <time>2014-04-13T10:47:16Z</time>
      </trkpt>
      <trkpt lat="43.55254" lon="3.30288">
        <ele>180.87</ele>
        <time>2014-04-13T10:47:17Z</time>
      </trkpt>
      <trkpt lat="43.55251" lon="3.30289">
        <ele>180.87</ele>
        <time>2014-04-13T10:47:18Z</time>
      </trkpt>
      <trkpt lat="43.55251" lon="3.30289">
        <ele>181.83</ele>
        <time>2014-04-13T10:47:30Z</time>
      </trkpt>
      <trkpt lat="43.55252" lon="3.3029">
        <ele>183.27</ele>
        <time>2014-04-13T10:47:39Z</time>
      </trkpt>
      <trkpt lat="43.55236" lon="3.30328">
        <ele>185.67</ele>
        <time>2014-04-13T10:47:46Z</time>
      </trkpt>
      <trkpt lat="43.55223" lon="3.3036">
        <ele>188.56</ele>
        <time>2014-04-13T10:47:51Z</time>
      </trkpt>
      <trkpt lat="43.55221" lon="3.30367">
        <ele>189.04</ele>
        <time>2014-04-13T10:47:52Z</time>
      </trkpt>
      <trkpt lat="43.5522" lon="3.30371">
        <ele>190.48</ele>
        <time>2014-04-13T10:47:58Z</time>
      </trkpt>
      <trkpt lat="43.55217" lon="3.30366">
        <ele>189.52</ele>
        <time>2014-04-13T10:48:10Z</time>
      </trkpt>
      <trkpt lat="43.55217" lon="3.30366">
        <ele>189.52</ele>
        <time>2014-04-13T10:48:15Z</time>
      </trkpt>
      <trkpt lat="43.55216" lon="3.30367">
        <ele>190</ele>
        <time>2014-04-13T10:48:16Z</time>
      </trkpt>
      <trkpt lat="43.55213" lon="3.30369">
        <ele>190</ele>
        <time>2014-04-13T10:48:17Z</time>
      </trkpt>
      <trkpt lat="43.55211" lon="3.30372">
        <ele>190</ele>
        <time>2014-04-13T10:48:18Z</time>
      </trkpt>
      <trkpt lat="43.55208" lon="3.30378">
        <ele>190</ele>
        <time>2014-04-13T10:48:19Z</time>
      </trkpt>
      <trkpt lat="43.55205" lon="3.30384">
        <ele>190.48</ele>
        <time>2014-04-13T10:48:20Z</time>
      </trkpt>
      <trkpt lat="43.55177" lon="3.30442">
        <ele>188.56</ele>
        <time>2014-04-13T10:48:30Z</time>
      </trkpt>
      <trkpt lat="43.55169" lon="3.3046">
        <ele>187.11</ele>
        <time>2014-04-13T10:48:32Z</time>
      </trkpt>
      <trkpt lat="43.55166" lon="3.30469">
        <ele>186.63</ele>
        <time>2014-04-13T10:48:33Z</time>
      </trkpt>
      <trkpt lat="43.55164" lon="3.30479">
        <ele>185.67</ele>
        <time>2014-04-13T10:48:34Z</time>
      </trkpt>
      <trkpt lat="43.55162" lon="3.30489">
        <ele>185.19</ele>
        <time>2014-04-13T10:48:35Z</time>
      </trkpt>
      <trkpt lat="43.55159" lon="3.30499">
        <ele>184.71</ele>
        <time>2014-04-13T10:48:36Z</time>
      </trkpt>
      <trkpt lat="43.55155" lon="3.30509">
        <ele>184.23</ele>
        <time>2014-04-13T10:48:37Z</time>
      </trkpt>
      <trkpt lat="43.55151" lon="3.30516">
        <ele>183.75</ele>
        <time>2014-04-13T10:48:38Z</time>
      </trkpt>
      <trkpt lat="43.55145" lon="3.30521">
        <ele>183.75</ele>
        <time>2014-04-13T10:48:39Z</time>
      </trkpt>
      <trkpt lat="43.55139" lon="3.30523">
        <ele>182.79</ele>
        <time>2014-04-13T10:48:40Z</time>
      </trkpt>
      <trkpt lat="43.55132" lon="3.30522">
        <ele>182.79</ele>
        <time>2014-04-13T10:48:41Z</time>
      </trkpt>
      <trkpt lat="43.55126" lon="3.30518">
        <ele>182.31</ele>
        <time>2014-04-13T10:48:42Z</time>
      </trkpt>
      <trkpt lat="43.55124" lon="3.30509">
        <ele>181.83</ele>
        <time>2014-04-13T10:48:43Z</time>
      </trkpt>
      <trkpt lat="43.55121" lon="3.30499">
        <ele>180.87</ele>
        <time>2014-04-13T10:48:44Z</time>
      </trkpt>
      <trkpt lat="43.55109" lon="3.30475">
        <ele>179.9</ele>
        <time>2014-04-13T10:48:46Z</time>
      </trkpt>
      <trkpt lat="43.55099" lon="3.30464">
        <ele>179.9</ele>
        <time>2014-04-13T10:48:47Z</time>
      </trkpt>
      <trkpt lat="43.55012" lon="3.30376">
        <ele>185.19</ele>
        <time>2014-04-13T10:48:56Z</time>
      </trkpt>
      <trkpt lat="43.55002" lon="3.30368">
        <ele>185.67</ele>
        <time>2014-04-13T10:48:57Z</time>
      </trkpt>
      <trkpt lat="43.5499" lon="3.30363">
        <ele>186.15</ele>
        <time>2014-04-13T10:48:58Z</time>
      </trkpt>
      <trkpt lat="43.54951" lon="3.30347">
        <ele>187.11</ele>
        <time>2014-04-13T10:49:02Z</time>
      </trkpt>
      <trkpt lat="43.54944" lon="3.30347">
        <ele>187.11</ele>
        <time>2014-04-13T10:49:03Z</time>
      </trkpt>
      <trkpt lat="43.54939" lon="3.30355">
        <ele>187.11</ele>
        <time>2014-04-13T10:49:04Z</time>
      </trkpt>
      <trkpt lat="43.54935" lon="3.30365">
        <ele>187.11</ele>
        <time>2014-04-13T10:49:05Z</time>
      </trkpt>
      <trkpt lat="43.54931" lon="3.30379">
        <ele>187.11</ele>
        <time>2014-04-13T10:49:06Z</time>
      </trkpt>
      <trkpt lat="43.54927" lon="3.30394">
        <ele>186.63</ele>
        <time>2014-04-13T10:49:07Z</time>
      </trkpt>
      <trkpt lat="43.54922" lon="3.30409">
        <ele>186.63</ele>
        <time>2014-04-13T10:49:08Z</time>
      </trkpt>
      <trkpt lat="43.54903" lon="3.30461">
        <ele>183.75</ele>
        <time>2014-04-13T10:49:12Z</time>
      </trkpt>
      <trkpt lat="43.54902" lon="3.30473">
        <ele>183.27</ele>
        <time>2014-04-13T10:49:13Z</time>
      </trkpt>
      <trkpt lat="43.54905" lon="3.30485">
        <ele>182.79</ele>
        <time>2014-04-13T10:49:14Z</time>
      </trkpt>
      <trkpt lat="43.54911" lon="3.30498">
        <ele>181.83</ele>
        <time>2014-04-13T10:49:15Z</time>
      </trkpt>
      <trkpt lat="43.54917" lon="3.30512">
        <ele>181.35</ele>
        <time>2014-04-13T10:49:16Z</time>
      </trkpt>
      <trkpt lat="43.54928" lon="3.30542">
        <ele>180.38</ele>
        <time>2014-04-13T10:49:18Z</time>
      </trkpt>
      <trkpt lat="43.54931" lon="3.30558">
        <ele>179.9</ele>
        <time>2014-04-13T10:49:19Z</time>
      </trkpt>
      <trkpt lat="43.54933" lon="3.30576">
        <ele>179.42</ele>
        <time>2014-04-13T10:49:20Z</time>
      </trkpt>
      <trkpt lat="43.54937" lon="3.30704">
        <ele>180.38</ele>
        <time>2014-04-13T10:49:27Z</time>
      </trkpt>
      <trkpt lat="43.54945" lon="3.3077">
        <ele>180.38</ele>
        <time>2014-04-13T10:49:31Z</time>
      </trkpt>
      <trkpt lat="43.54949" lon="3.30782">
        <ele>180.38</ele>
        <time>2014-04-13T10:49:32Z</time>
      </trkpt>
      <trkpt lat="43.54955" lon="3.30793">
        <ele>180.87</ele>
        <time>2014-04-13T10:49:33Z</time>
      </trkpt>
      <trkpt lat="43.54964" lon="3.30801">
        <ele>180.87</ele>
        <time>2014-04-13T10:49:34Z</time>
      </trkpt>
      <trkpt lat="43.54973" lon="3.30811">
        <ele>180.87</ele>
        <time>2014-04-13T10:49:35Z</time>
      </trkpt>
      <trkpt lat="43.54982" lon="3.30822">
        <ele>181.35</ele>
        <time>2014-04-13T10:49:36Z</time>
      </trkpt>
      <trkpt lat="43.54989" lon="3.30835">
        <ele>181.83</ele>
        <time>2014-04-13T10:49:37Z</time>
      </trkpt>
      <trkpt lat="43.54996" lon="3.30848">
        <ele>182.31</ele>
        <time>2014-04-13T10:49:38Z</time>
      </trkpt>
      <trkpt lat="43.55003" lon="3.30859">
        <ele>183.27</ele>
        <time>2014-04-13T10:49:39Z</time>
      </trkpt>
      <trkpt lat="43.55011" lon="3.30868">
        <ele>183.75</ele>
        <time>2014-04-13T10:49:40Z</time>
      </trkpt>
      <trkpt lat="43.55021" lon="3.30873">
        <ele>184.23</ele>
        <time>2014-04-13T10:49:41Z</time>
      </trkpt>
      <trkpt lat="43.55052" lon="3.30886">
        <ele>186.15</ele>
        <time>2014-04-13T10:49:44Z</time>
      </trkpt>
      <trkpt lat="43.55069" lon="3.30892">
        <ele>187.11</ele>
        <time>2014-04-13T10:49:46Z</time>
      </trkpt>
      <trkpt lat="43.55076" lon="3.30898">
        <ele>187.11</ele>
        <time>2014-04-13T10:49:47Z</time>
      </trkpt>
      <trkpt lat="43.5508" lon="3.30906">
        <ele>187.59</ele>
        <time>2014-04-13T10:49:48Z</time>
      </trkpt>
      <trkpt lat="43.5508" lon="3.30915">
        <ele>188.08</ele>
        <time>2014-04-13T10:49:49Z</time>
      </trkpt>
      <trkpt lat="43.55077" lon="3.30925">
        <ele>188.56</ele>
        <time>2014-04-13T10:49:50Z</time>
      </trkpt>
      <trkpt lat="43.55073" lon="3.30938">
        <ele>188.56</ele>
        <time>2014-04-13T10:49:51Z</time>
      </trkpt>
      <trkpt lat="43.55062" lon="3.30978">
        <ele>189.52</ele>
        <time>2014-04-13T10:49:54Z</time>
      </trkpt>
      <trkpt lat="43.55062" lon="3.3099">
        <ele>190</ele>
        <time>2014-04-13T10:49:55Z</time>
      </trkpt>
      <trkpt lat="43.55064" lon="3.30999">
        <ele>190.48</ele>
        <time>2014-04-13T10:49:56Z</time>
      </trkpt>
      <trkpt lat="43.55073" lon="3.31003">
        <ele>190.96</ele>
        <time>2014-04-13T10:49:57Z</time>
      </trkpt>
      <trkpt lat="43.55082" lon="3.31007">
        <ele>191.44</ele>
        <time>2014-04-13T10:49:58Z</time>
      </trkpt>
      <trkpt lat="43.55093" lon="3.31011">
        <ele>191.92</ele>
        <time>2014-04-13T10:49:59Z</time>
      </trkpt>
      <trkpt lat="43.55115" lon="3.31016">
        <ele>193.36</ele>
        <time>2014-04-13T10:50:01Z</time>
      </trkpt>
      <trkpt lat="43.55125" lon="3.31015">
        <ele>193.84</ele>
        <time>2014-04-13T10:50:02Z</time>
      </trkpt>
      <trkpt lat="43.55134" lon="3.31015">
        <ele>193.84</ele>
        <time>2014-04-13T10:50:03Z</time>
      </trkpt>
      <trkpt lat="43.55142" lon="3.31017">
        <ele>194.32</ele>
        <time>2014-04-13T10:50:04Z</time>
      </trkpt>
      <trkpt lat="43.55148" lon="3.31023">
        <ele>194.8</ele>
        <time>2014-04-13T10:50:05Z</time>
      </trkpt>
      <trkpt lat="43.55153" lon="3.31034">
        <ele>195.28</ele>
        <time>2014-04-13T10:50:06Z</time>
      </trkpt>
      <trkpt lat="43.55157" lon="3.31047">
        <ele>195.77</ele>
        <time>2014-04-13T10:50:07Z</time>
      </trkpt>
      <trkpt lat="43.55163" lon="3.31059">
        <ele>196.73</ele>
        <time>2014-04-13T10:50:08Z</time>
      </trkpt>
      <trkpt lat="43.55169" lon="3.31068">
        <ele>197.21</ele>
        <time>2014-04-13T10:50:09Z</time>
      </trkpt>
      <trkpt lat="43.55176" lon="3.31074">
        <ele>198.17</ele>
        <time>2014-04-13T10:50:10Z</time>
      </trkpt>
      <trkpt lat="43.55184" lon="3.31076">
        <ele>198.17</ele>
        <time>2014-04-13T10:50:11Z</time>
      </trkpt>
      <trkpt lat="43.55191" lon="3.31078">
        <ele>199.13</ele>
        <time>2014-04-13T10:50:12Z</time>
      </trkpt>
      <trkpt lat="43.55197" lon="3.31083">
        <ele>199.61</ele>
        <time>2014-04-13T10:50:13Z</time>
      </trkpt>
      <trkpt lat="43.55202" lon="3.3109">
        <ele>200.09</ele>
        <time>2014-04-13T10:50:14Z</time>
      </trkpt>
      <trkpt lat="43.55208" lon="3.31101">
        <ele>200.57</ele>
        <time>2014-04-13T10:50:15Z</time>
      </trkpt>
      <trkpt lat="43.55229" lon="3.31137">
        <ele>201.53</ele>
        <time>2014-04-13T10:50:18Z</time>
      </trkpt>
      <trkpt lat="43.55234" lon="3.31148">
        <ele>202.01</ele>
        <time>2014-04-13T10:50:19Z</time>
      </trkpt>
      <trkpt lat="43.55233" lon="3.31161">
        <ele>202.49</ele>
        <time>2014-04-13T10:50:20Z</time>
      </trkpt>
      <trkpt lat="43.5523" lon="3.31174">
        <ele>202.49</ele>
        <time>2014-04-13T10:50:21Z</time>
      </trkpt>
      <trkpt lat="43.55227" lon="3.31187">
        <ele>202.98</ele>
        <time>2014-04-13T10:50:22Z</time>
      </trkpt>
      <trkpt lat="43.55225" lon="3.31201">
        <ele>203.46</ele>
        <time>2014-04-13T10:50:23Z</time>
      </trkpt>
      <trkpt lat="43.55226" lon="3.31214">
        <ele>203.94</ele>
        <time>2014-04-13T10:50:24Z</time>
      </trkpt>
      <trkpt lat="43.55227" lon="3.31241">
        <ele>204.9</ele>
        <time>2014-04-13T10:50:26Z</time>
      </trkpt>
      <trkpt lat="43.55225" lon="3.31254">
        <ele>205.38</ele>
        <time>2014-04-13T10:50:27Z</time>
      </trkpt>
      <trkpt lat="43.55219" lon="3.31266">
        <ele>205.86</ele>
        <time>2014-04-13T10:50:28Z</time>
      </trkpt>
      <trkpt lat="43.5521" lon="3.31279">
        <ele>206.34</ele>
        <time>2014-04-13T10:50:29Z</time>
      </trkpt>
      <trkpt lat="43.55201" lon="3.31292">
        <ele>206.82</ele>
        <time>2014-04-13T10:50:30Z</time>
      </trkpt>
      <trkpt lat="43.55161" lon="3.31349">
        <ele>207.3</ele>
        <time>2014-04-13T10:50:34Z</time>
      </trkpt>
      <trkpt lat="43.5515" lon="3.31359">
        <ele>207.3</ele>
        <time>2014-04-13T10:50:35Z</time>
      </trkpt>
      <trkpt lat="43.55137" lon="3.31367">
        <ele>207.3</ele>
        <time>2014-04-13T10:50:36Z</time>
      </trkpt>
      <trkpt lat="43.55123" lon="3.31373">
        <ele>207.3</ele>
        <time>2014-04-13T10:50:37Z</time>
      </trkpt>
      <trkpt lat="43.55109" lon="3.31378">
        <ele>207.3</ele>
        <time>2014-04-13T10:50:38Z</time>
      </trkpt>
      <trkpt lat="43.55094" lon="3.31382">
        <ele>207.3</ele>
        <time>2014-04-13T10:50:39Z</time>
      </trkpt>
      <trkpt lat="43.5508" lon="3.31385">
        <ele>207.3</ele>
        <time>2014-04-13T10:50:40Z</time>
      </trkpt>
      <trkpt lat="43.55058" lon="3.31392">
        <ele>207.78</ele>
        <time>2014-04-13T10:50:42Z</time>
      </trkpt>
      <trkpt lat="43.5505" lon="3.314">
        <ele>207.78</ele>
        <time>2014-04-13T10:50:43Z</time>
      </trkpt>
      <trkpt lat="43.55043" lon="3.31411">
        <ele>207.78</ele>
        <time>2014-04-13T10:50:44Z</time>
      </trkpt>
      <trkpt lat="43.55037" lon="3.31425">
        <ele>207.78</ele>
        <time>2014-04-13T10:50:45Z</time>
      </trkpt>
      <trkpt lat="43.5503" lon="3.31441">
        <ele>208.26</ele>
        <time>2014-04-13T10:50:46Z</time>
      </trkpt>
      <trkpt lat="43.55021" lon="3.31457">
        <ele>208.26</ele>
        <time>2014-04-13T10:50:47Z</time>
      </trkpt>
      <trkpt lat="43.55009" lon="3.3147">
        <ele>208.26</ele>
        <time>2014-04-13T10:50:48Z</time>
      </trkpt>
      <trkpt lat="43.54997" lon="3.31482">
        <ele>207.78</ele>
        <time>2014-04-13T10:50:49Z</time>
      </trkpt>
      <trkpt lat="43.54983" lon="3.31494">
        <ele>207.3</ele>
        <time>2014-04-13T10:50:50Z</time>
      </trkpt>
      <trkpt lat="43.54969" lon="3.31505">
        <ele>206.34</ele>
        <time>2014-04-13T10:50:51Z</time>
      </trkpt>
      <trkpt lat="43.54788" lon="3.31612">
        <ele>213.07</ele>
        <time>2014-04-13T10:51:03Z</time>
      </trkpt>
      <trkpt lat="43.54695" lon="3.31658">
        <ele>215.95</ele>
        <time>2014-04-13T10:51:10Z</time>
      </trkpt>
      <trkpt lat="43.54685" lon="3.31669">
        <ele>215.95</ele>
        <time>2014-04-13T10:51:11Z</time>
      </trkpt>
      <trkpt lat="43.54678" lon="3.31684">
        <ele>216.43</ele>
        <time>2014-04-13T10:51:12Z</time>
      </trkpt>
      <trkpt lat="43.54671" lon="3.31702">
        <ele>216.43</ele>
        <time>2014-04-13T10:51:13Z</time>
      </trkpt>
      <trkpt lat="43.54665" lon="3.31722">
        <ele>216.43</ele>
        <time>2014-04-13T10:51:14Z</time>
      </trkpt>
      <trkpt lat="43.54632" lon="3.31876">
        <ele>215.95</ele>
        <time>2014-04-13T10:51:21Z</time>
      </trkpt>
      <trkpt lat="43.54625" lon="3.31896">
        <ele>215.95</ele>
        <time>2014-04-13T10:51:22Z</time>
      </trkpt>
      <trkpt lat="43.54538" lon="3.32086">
        <ele>210.67</ele>
        <time>2014-04-13T10:51:31Z</time>
      </trkpt>
      <trkpt lat="43.54483" lon="3.32243">
        <ele>208.26</ele>
        <time>2014-04-13T10:51:38Z</time>
      </trkpt>
      <trkpt lat="43.54411" lon="3.32508">
        <ele>211.15</ele>
        <time>2014-04-13T10:51:49Z</time>
      </trkpt>
      <trkpt lat="43.54406" lon="3.32528">
        <ele>212.59</ele>
        <time>2014-04-13T10:51:51Z</time>
      </trkpt>
      <trkpt lat="43.54407" lon="3.32535">
        <ele>213.07</ele>
        <time>2014-04-13T10:51:52Z</time>
      </trkpt>
      <trkpt lat="43.54412" lon="3.32541">
        <ele>213.55</ele>
        <time>2014-04-13T10:51:53Z</time>
      </trkpt>
      <trkpt lat="43.54421" lon="3.32543">
        <ele>214.03</ele>
        <time>2014-04-13T10:51:54Z</time>
      </trkpt>
      <trkpt lat="43.54431" lon="3.32547">
        <ele>214.51</ele>
        <time>2014-04-13T10:51:55Z</time>
      </trkpt>
      <trkpt lat="43.54441" lon="3.32553">
        <ele>215.47</ele>
        <time>2014-04-13T10:51:56Z</time>
      </trkpt>
      <trkpt lat="43.54451" lon="3.32563">
        <ele>215.95</ele>
        <time>2014-04-13T10:51:57Z</time>
      </trkpt>
      <trkpt lat="43.54459" lon="3.32575">
        <ele>216.91</ele>
        <time>2014-04-13T10:51:58Z</time>
      </trkpt>
      <trkpt lat="43.54465" lon="3.32589">
        <ele>217.4</ele>
        <time>2014-04-13T10:51:59Z</time>
      </trkpt>
      <trkpt lat="43.5447" lon="3.32604">
        <ele>217.4</ele>
        <time>2014-04-13T10:52:00Z</time>
      </trkpt>
      <trkpt lat="43.54474" lon="3.3262">
        <ele>216.91</ele>
        <time>2014-04-13T10:52:01Z</time>
      </trkpt>
      <trkpt lat="43.5448" lon="3.3265">
        <ele>216.43</ele>
        <time>2014-04-13T10:52:03Z</time>
      </trkpt>
      <trkpt lat="43.54479" lon="3.32667">
        <ele>216.43</ele>
        <time>2014-04-13T10:52:04Z</time>
      </trkpt>
      <trkpt lat="43.54475" lon="3.32683">
        <ele>216.43</ele>
        <time>2014-04-13T10:52:05Z</time>
      </trkpt>
      <trkpt lat="43.54469" lon="3.32699">
        <ele>216.43</ele>
        <time>2014-04-13T10:52:06Z</time>
      </trkpt>
      <trkpt lat="43.54464" lon="3.32714">
        <ele>215.95</ele>
        <time>2014-04-13T10:52:07Z</time>
      </trkpt>
      <trkpt lat="43.54458" lon="3.32728">
        <ele>215.95</ele>
        <time>2014-04-13T10:52:08Z</time>
      </trkpt>
      <trkpt lat="43.54453" lon="3.32741">
        <ele>215.95</ele>
        <time>2014-04-13T10:52:09Z</time>
      </trkpt>
      <trkpt lat="43.54449" lon="3.32755">
        <ele>215.95</ele>
        <time>2014-04-13T10:52:10Z</time>
      </trkpt>
      <trkpt lat="43.54449" lon="3.32769">
        <ele>215.95</ele>
        <time>2014-04-13T10:52:11Z</time>
      </trkpt>
      <trkpt lat="43.5445" lon="3.32785">
        <ele>215.47</ele>
        <time>2014-04-13T10:52:12Z</time>
      </trkpt>
      <trkpt lat="43.54451" lon="3.3282">
        <ele>215.47</ele>
        <time>2014-04-13T10:52:14Z</time>
      </trkpt>
      <trkpt lat="43.54449" lon="3.32837">
        <ele>214.99</ele>
        <time>2014-04-13T10:52:15Z</time>
      </trkpt>
      <trkpt lat="43.54444" lon="3.32853">
        <ele>214.99</ele>
        <time>2014-04-13T10:52:16Z</time>
      </trkpt>
      <trkpt lat="43.54437" lon="3.32868">
        <ele>214.51</ele>
        <time>2014-04-13T10:52:17Z</time>
      </trkpt>
      <trkpt lat="43.54429" lon="3.32882">
        <ele>214.03</ele>
        <time>2014-04-13T10:52:18Z</time>
      </trkpt>
      <trkpt lat="43.54422" lon="3.32895">
        <ele>213.55</ele>
        <time>2014-04-13T10:52:19Z</time>
      </trkpt>
      <trkpt lat="43.54418" lon="3.32909">
        <ele>213.07</ele>
        <time>2014-04-13T10:52:20Z</time>
      </trkpt>
      <trkpt lat="43.54417" lon="3.32925">
        <ele>212.11</ele>
        <time>2014-04-13T10:52:21Z</time>
      </trkpt>
      <trkpt lat="43.54418" lon="3.32944">
        <ele>210.67</ele>
        <time>2014-04-13T10:52:22Z</time>
      </trkpt>
      <trkpt lat="43.54421" lon="3.32966">
        <ele>209.7</ele>
        <time>2014-04-13T10:52:23Z</time>
      </trkpt>
      <trkpt lat="43.54437" lon="3.331">
        <ele>203.46</ele>
        <time>2014-04-13T10:52:29Z</time>
      </trkpt>
      <trkpt lat="43.54436" lon="3.33121">
        <ele>202.49</ele>
        <time>2014-04-13T10:52:30Z</time>
      </trkpt>
      <trkpt lat="43.54433" lon="3.33142">
        <ele>201.05</ele>
        <time>2014-04-13T10:52:31Z</time>
      </trkpt>
      <trkpt lat="43.54429" lon="3.33163">
        <ele>200.09</ele>
        <time>2014-04-13T10:52:32Z</time>
      </trkpt>
      <trkpt lat="43.54423" lon="3.33184">
        <ele>199.13</ele>
        <time>2014-04-13T10:52:33Z</time>
      </trkpt>
      <trkpt lat="43.54408" lon="3.33259">
        <ele>195.77</ele>
        <time>2014-04-13T10:52:37Z</time>
      </trkpt>
      <trkpt lat="43.54402" lon="3.33275">
        <ele>194.8</ele>
        <time>2014-04-13T10:52:38Z</time>
      </trkpt>
      <trkpt lat="43.54396" lon="3.33293">
        <ele>194.32</ele>
        <time>2014-04-13T10:52:39Z</time>
      </trkpt>
      <trkpt lat="43.54383" lon="3.33328">
        <ele>192.88</ele>
        <time>2014-04-13T10:52:41Z</time>
      </trkpt>
      <trkpt lat="43.54374" lon="3.33345">
        <ele>192.4</ele>
        <time>2014-04-13T10:52:42Z</time>
      </trkpt>
      <trkpt lat="43.54336" lon="3.33408">
        <ele>190.48</ele>
        <time>2014-04-13T10:52:46Z</time>
      </trkpt>
      <trkpt lat="43.54331" lon="3.33421">
        <ele>190</ele>
        <time>2014-04-13T10:52:47Z</time>
      </trkpt>
      <trkpt lat="43.54328" lon="3.33431">
        <ele>190</ele>
        <time>2014-04-13T10:52:48Z</time>
      </trkpt>
      <trkpt lat="43.54326" lon="3.33441">
        <ele>190</ele>
        <time>2014-04-13T10:52:49Z</time>
      </trkpt>
      <trkpt lat="43.54325" lon="3.3345">
        <ele>190</ele>
        <time>2014-04-13T10:52:50Z</time>
      </trkpt>
      <trkpt lat="43.54319" lon="3.33515">
        <ele>192.4</ele>
        <time>2014-04-13T10:52:55Z</time>
      </trkpt>
      <trkpt lat="43.5432" lon="3.33529">
        <ele>192.88</ele>
        <time>2014-04-13T10:52:56Z</time>
      </trkpt>
      <trkpt lat="43.54338" lon="3.33631">
        <ele>197.21</ele>
        <time>2014-04-13T10:53:03Z</time>
      </trkpt>
      <trkpt lat="43.54344" lon="3.33647">
        <ele>197.69</ele>
        <time>2014-04-13T10:53:04Z</time>
      </trkpt>
      <trkpt lat="43.54351" lon="3.33663">
        <ele>198.65</ele>
        <time>2014-04-13T10:53:05Z</time>
      </trkpt>
      <trkpt lat="43.5436" lon="3.33677">
        <ele>199.61</ele>
        <time>2014-04-13T10:53:06Z</time>
      </trkpt>
      <trkpt lat="43.54369" lon="3.3369">
        <ele>200.57</ele>
        <time>2014-04-13T10:53:07Z</time>
      </trkpt>
      <trkpt lat="43.54378" lon="3.33702">
        <ele>201.05</ele>
        <time>2014-04-13T10:53:08Z</time>
      </trkpt>
      <trkpt lat="43.54386" lon="3.33715">
        <ele>202.01</ele>
        <time>2014-04-13T10:53:09Z</time>
      </trkpt>
      <trkpt lat="43.54389" lon="3.33733">
        <ele>202.98</ele>
        <time>2014-04-13T10:53:10Z</time>
      </trkpt>
      <trkpt lat="43.5439" lon="3.33751">
        <ele>203.94</ele>
        <time>2014-04-13T10:53:11Z</time>
      </trkpt>
      <trkpt lat="43.54391" lon="3.33769">
        <ele>204.42</ele>
        <time>2014-04-13T10:53:12Z</time>
      </trkpt>
      <trkpt lat="43.54395" lon="3.33784">
        <ele>205.38</ele>
        <time>2014-04-13T10:53:13Z</time>
      </trkpt>
      <trkpt lat="43.544" lon="3.33798">
        <ele>205.86</ele>
        <time>2014-04-13T10:53:14Z</time>
      </trkpt>
      <trkpt lat="43.54403" lon="3.3381">
        <ele>206.34</ele>
        <time>2014-04-13T10:53:15Z</time>
      </trkpt>
      <trkpt lat="43.54401" lon="3.3382">
        <ele>207.3</ele>
        <time>2014-04-13T10:53:16Z</time>
      </trkpt>
      <trkpt lat="43.54396" lon="3.33829">
        <ele>208.26</ele>
        <time>2014-04-13T10:53:17Z</time>
      </trkpt>
      <trkpt lat="43.54387" lon="3.33836">
        <ele>208.74</ele>
        <time>2014-04-13T10:53:18Z</time>
      </trkpt>
      <trkpt lat="43.54378" lon="3.33843">
        <ele>209.22</ele>
        <time>2014-04-13T10:53:19Z</time>
      </trkpt>
      <trkpt lat="43.54369" lon="3.3385">
        <ele>209.7</ele>
        <time>2014-04-13T10:53:20Z</time>
      </trkpt>
      <trkpt lat="43.54363" lon="3.3386">
        <ele>210.19</ele>
        <time>2014-04-13T10:53:21Z</time>
      </trkpt>
      <trkpt lat="43.54361" lon="3.33873">
        <ele>210.67</ele>
        <time>2014-04-13T10:53:22Z</time>
      </trkpt>
      <trkpt lat="43.54364" lon="3.33887">
        <ele>211.15</ele>
        <time>2014-04-13T10:53:23Z</time>
      </trkpt>
      <trkpt lat="43.54367" lon="3.339">
        <ele>211.15</ele>
        <time>2014-04-13T10:53:24Z</time>
      </trkpt>
      <trkpt lat="43.54373" lon="3.33909">
        <ele>211.15</ele>
        <time>2014-04-13T10:53:25Z</time>
      </trkpt>
      <trkpt lat="43.54385" lon="3.33911">
        <ele>212.11</ele>
        <time>2014-04-13T10:53:26Z</time>
      </trkpt>
      <trkpt lat="43.54407" lon="3.33904">
        <ele>214.03</ele>
        <time>2014-04-13T10:53:27Z</time>
      </trkpt>
      <trkpt lat="43.54425" lon="3.33901">
        <ele>214.99</ele>
        <time>2014-04-13T10:53:28Z</time>
      </trkpt>
      <trkpt lat="43.54443" lon="3.33896">
        <ele>215.95</ele>
        <time>2014-04-13T10:53:29Z</time>
      </trkpt>
      <trkpt lat="43.54461" lon="3.33891">
        <ele>217.4</ele>
        <time>2014-04-13T10:53:30Z</time>
      </trkpt>
      <trkpt lat="43.54512" lon="3.3388">
        <ele>221.24</ele>
        <time>2014-04-13T10:53:34Z</time>
      </trkpt>
      <trkpt lat="43.54519" lon="3.33884">
        <ele>221.24</ele>
        <time>2014-04-13T10:53:35Z</time>
      </trkpt>
      <trkpt lat="43.54523" lon="3.33894">
        <ele>221.72</ele>
        <time>2014-04-13T10:53:36Z</time>
      </trkpt>
      <trkpt lat="43.54522" lon="3.33906">
        <ele>222.68</ele>
        <time>2014-04-13T10:53:37Z</time>
      </trkpt>
      <trkpt lat="43.54518" lon="3.3392">
        <ele>223.64</ele>
        <time>2014-04-13T10:53:38Z</time>
      </trkpt>
      <trkpt lat="43.54515" lon="3.33935">
        <ele>224.12</ele>
        <time>2014-04-13T10:53:39Z</time>
      </trkpt>
      <trkpt lat="43.54515" lon="3.33952">
        <ele>224.61</ele>
        <time>2014-04-13T10:53:40Z</time>
      </trkpt>
      <trkpt lat="43.54518" lon="3.33969">
        <ele>225.09</ele>
        <time>2014-04-13T10:53:41Z</time>
      </trkpt>
      <trkpt lat="43.54525" lon="3.33982">
        <ele>225.57</ele>
        <time>2014-04-13T10:53:42Z</time>
      </trkpt>
      <trkpt lat="43.54534" lon="3.33993">
        <ele>226.05</ele>
        <time>2014-04-13T10:53:43Z</time>
      </trkpt>
      <trkpt lat="43.54551" lon="3.33999">
        <ele>227.01</ele>
        <time>2014-04-13T10:53:44Z</time>
      </trkpt>
      <trkpt lat="43.54566" lon="3.34004">
        <ele>227.97</ele>
        <time>2014-04-13T10:53:45Z</time>
      </trkpt>
      <trkpt lat="43.5459" lon="3.34015">
        <ele>228.93</ele>
        <time>2014-04-13T10:53:47Z</time>
      </trkpt>
      <trkpt lat="43.54598" lon="3.34024">
        <ele>229.41</ele>
        <time>2014-04-13T10:53:48Z</time>
      </trkpt>
      <trkpt lat="43.54601" lon="3.34037">
        <ele>230.37</ele>
        <time>2014-04-13T10:53:49Z</time>
      </trkpt>
      <trkpt lat="43.54599" lon="3.34051">
        <ele>230.85</ele>
        <time>2014-04-13T10:53:50Z</time>
      </trkpt>
      <trkpt lat="43.54598" lon="3.34064">
        <ele>231.33</ele>
        <time>2014-04-13T10:53:51Z</time>
      </trkpt>
      <trkpt lat="43.546" lon="3.34077">
        <ele>231.81</ele>
        <time>2014-04-13T10:53:52Z</time>
      </trkpt>
      <trkpt lat="43.54606" lon="3.34088">
        <ele>232.3</ele>
        <time>2014-04-13T10:53:53Z</time>
      </trkpt>
      <trkpt lat="43.54621" lon="3.34097">
        <ele>233.26</ele>
        <time>2014-04-13T10:53:54Z</time>
      </trkpt>
      <trkpt lat="43.54637" lon="3.34105">
        <ele>234.22</ele>
        <time>2014-04-13T10:53:55Z</time>
      </trkpt>
      <trkpt lat="43.54654" lon="3.34111">
        <ele>235.18</ele>
        <time>2014-04-13T10:53:56Z</time>
      </trkpt>
      <trkpt lat="43.5467" lon="3.34115">
        <ele>235.66</ele>
        <time>2014-04-13T10:53:57Z</time>
      </trkpt>
      <trkpt lat="43.54684" lon="3.34117">
        <ele>236.14</ele>
        <time>2014-04-13T10:53:58Z</time>
      </trkpt>
      <trkpt lat="43.5471" lon="3.34125">
        <ele>236.62</ele>
        <time>2014-04-13T10:54:00Z</time>
      </trkpt>
      <trkpt lat="43.54721" lon="3.34136">
        <ele>237.1</ele>
        <time>2014-04-13T10:54:01Z</time>
      </trkpt>
      <trkpt lat="43.54729" lon="3.34154">
        <ele>237.1</ele>
        <time>2014-04-13T10:54:02Z</time>
      </trkpt>
      <trkpt lat="43.54734" lon="3.34177">
        <ele>237.58</ele>
        <time>2014-04-13T10:54:03Z</time>
      </trkpt>
      <trkpt lat="43.54738" lon="3.34201">
        <ele>238.06</ele>
        <time>2014-04-13T10:54:04Z</time>
      </trkpt>
      <trkpt lat="43.54741" lon="3.34227">
        <ele>238.06</ele>
        <time>2014-04-13T10:54:05Z</time>
      </trkpt>
      <trkpt lat="43.54745" lon="3.34252">
        <ele>238.54</ele>
        <time>2014-04-13T10:54:06Z</time>
      </trkpt>
      <trkpt lat="43.54753" lon="3.34293">
        <ele>238.54</ele>
        <time>2014-04-13T10:54:08Z</time>
      </trkpt>
      <trkpt lat="43.5476" lon="3.34309">
        <ele>238.54</ele>
        <time>2014-04-13T10:54:09Z</time>
      </trkpt>
      <trkpt lat="43.54775" lon="3.34323">
        <ele>238.54</ele>
        <time>2014-04-13T10:54:10Z</time>
      </trkpt>
      <trkpt lat="43.54791" lon="3.34336">
        <ele>238.54</ele>
        <time>2014-04-13T10:54:11Z</time>
      </trkpt>
      <trkpt lat="43.54809" lon="3.34349">
        <ele>239.02</ele>
        <time>2014-04-13T10:54:12Z</time>
      </trkpt>
      <trkpt lat="43.54826" lon="3.34361">
        <ele>239.51</ele>
        <time>2014-04-13T10:54:13Z</time>
      </trkpt>
      <trkpt lat="43.54882" lon="3.344">
        <ele>240.47</ele>
        <time>2014-04-13T10:54:17Z</time>
      </trkpt>
      <trkpt lat="43.54898" lon="3.34401">
        <ele>240.95</ele>
        <time>2014-04-13T10:54:18Z</time>
      </trkpt>
      <trkpt lat="43.54914" lon="3.34401">
        <ele>240.95</ele>
        <time>2014-04-13T10:54:19Z</time>
      </trkpt>
      <trkpt lat="43.54972" lon="3.34397">
        <ele>242.39</ele>
        <time>2014-04-13T10:54:23Z</time>
      </trkpt>
      <trkpt lat="43.54985" lon="3.34388">
        <ele>242.39</ele>
        <time>2014-04-13T10:54:24Z</time>
      </trkpt>
      <trkpt lat="43.54997" lon="3.34377">
        <ele>242.87</ele>
        <time>2014-04-13T10:54:25Z</time>
      </trkpt>
      <trkpt lat="43.5502" lon="3.34359">
        <ele>243.35</ele>
        <time>2014-04-13T10:54:27Z</time>
      </trkpt>
      <trkpt lat="43.55029" lon="3.34356">
        <ele>243.35</ele>
        <time>2014-04-13T10:54:28Z</time>
      </trkpt>
      <trkpt lat="43.55038" lon="3.3436">
        <ele>243.35</ele>
        <time>2014-04-13T10:54:29Z</time>
      </trkpt>
      <trkpt lat="43.55043" lon="3.3437">
        <ele>243.35</ele>
        <time>2014-04-13T10:54:30Z</time>
      </trkpt>
      <trkpt lat="43.55044" lon="3.34385">
        <ele>243.83</ele>
        <time>2014-04-13T10:54:31Z</time>
      </trkpt>
      <trkpt lat="43.55043" lon="3.34405">
        <ele>243.83</ele>
        <time>2014-04-13T10:54:32Z</time>
      </trkpt>
      <trkpt lat="43.55042" lon="3.34425">
        <ele>244.31</ele>
        <time>2014-04-13T10:54:33Z</time>
      </trkpt>
      <trkpt lat="43.55043" lon="3.34446">
        <ele>244.31</ele>
        <time>2014-04-13T10:54:34Z</time>
      </trkpt>
      <trkpt lat="43.55047" lon="3.34469">
        <ele>243.83</ele>
        <time>2014-04-13T10:54:35Z</time>
      </trkpt>
      <trkpt lat="43.55053" lon="3.34491">
        <ele>244.31</ele>
        <time>2014-04-13T10:54:36Z</time>
      </trkpt>
      <trkpt lat="43.5506" lon="3.34512">
        <ele>244.31</ele>
        <time>2014-04-13T10:54:37Z</time>
      </trkpt>
      <trkpt lat="43.55064" lon="3.34532">
        <ele>244.79</ele>
        <time>2014-04-13T10:54:38Z</time>
      </trkpt>
      <trkpt lat="43.55063" lon="3.34551">
        <ele>244.79</ele>
        <time>2014-04-13T10:54:39Z</time>
      </trkpt>
      <trkpt lat="43.55055" lon="3.34569">
        <ele>244.79</ele>
        <time>2014-04-13T10:54:40Z</time>
      </trkpt>
      <trkpt lat="43.55043" lon="3.3458">
        <ele>245.75</ele>
        <time>2014-04-13T10:54:41Z</time>
      </trkpt>
      <trkpt lat="43.55029" lon="3.34589">
        <ele>246.23</ele>
        <time>2014-04-13T10:54:42Z</time>
      </trkpt>
      <trkpt lat="43.55016" lon="3.34598">
        <ele>247.2</ele>
        <time>2014-04-13T10:54:43Z</time>
      </trkpt>
      <trkpt lat="43.55005" lon="3.3461">
        <ele>247.68</ele>
        <time>2014-04-13T10:54:44Z</time>
      </trkpt>
      <trkpt lat="43.55" lon="3.34625">
        <ele>247.68</ele>
        <time>2014-04-13T10:54:45Z</time>
      </trkpt>
      <trkpt lat="43.55" lon="3.34644">
        <ele>248.64</ele>
        <time>2014-04-13T10:54:46Z</time>
      </trkpt>
      <trkpt lat="43.55005" lon="3.34667">
        <ele>248.64</ele>
        <time>2014-04-13T10:54:47Z</time>
      </trkpt>
      <trkpt lat="43.55012" lon="3.34691">
        <ele>249.12</ele>
        <time>2014-04-13T10:54:48Z</time>
      </trkpt>
      <trkpt lat="43.5502" lon="3.34717">
        <ele>249.6</ele>
        <time>2014-04-13T10:54:49Z</time>
      </trkpt>
      <trkpt lat="43.55044" lon="3.34818">
        <ele>250.56</ele>
        <time>2014-04-13T10:54:53Z</time>
      </trkpt>
      <trkpt lat="43.55045" lon="3.34844">
        <ele>250.56</ele>
        <time>2014-04-13T10:54:54Z</time>
      </trkpt>
      <trkpt lat="43.55048" lon="3.34888">
        <ele>251.04</ele>
        <time>2014-04-13T10:54:56Z</time>
      </trkpt>
      <trkpt lat="43.55052" lon="3.34904">
        <ele>251.04</ele>
        <time>2014-04-13T10:54:57Z</time>
      </trkpt>
      <trkpt lat="43.55059" lon="3.34918">
        <ele>250.56</ele>
        <time>2014-04-13T10:54:58Z</time>
      </trkpt>
      <trkpt lat="43.55074" lon="3.34926">
        <ele>251.04</ele>
        <time>2014-04-13T10:54:59Z</time>
      </trkpt>
      <trkpt lat="43.55094" lon="3.34931">
        <ele>251.04</ele>
        <time>2014-04-13T10:55:00Z</time>
      </trkpt>
      <trkpt lat="43.55111" lon="3.34934">
        <ele>251.52</ele>
        <time>2014-04-13T10:55:01Z</time>
      </trkpt>
      <trkpt lat="43.55129" lon="3.3493">
        <ele>252</ele>
        <time>2014-04-13T10:55:02Z</time>
      </trkpt>
      <trkpt lat="43.55145" lon="3.34922">
        <ele>252</ele>
        <time>2014-04-13T10:55:03Z</time>
      </trkpt>
      <trkpt lat="43.5516" lon="3.34912">
        <ele>252.48</ele>
        <time>2014-04-13T10:55:04Z</time>
      </trkpt>
      <trkpt lat="43.55174" lon="3.34901">
        <ele>252.48</ele>
        <time>2014-04-13T10:55:05Z</time>
      </trkpt>
      <trkpt lat="43.55199" lon="3.34883">
        <ele>252</ele>
        <time>2014-04-13T10:55:07Z</time>
      </trkpt>
      <trkpt lat="43.55211" lon="3.3488">
        <ele>252</ele>
        <time>2014-04-13T10:55:08Z</time>
      </trkpt>
      <trkpt lat="43.55222" lon="3.34885">
        <ele>251.52</ele>
        <time>2014-04-13T10:55:09Z</time>
      </trkpt>
      <trkpt lat="43.55232" lon="3.34899">
        <ele>251.04</ele>
        <time>2014-04-13T10:55:10Z</time>
      </trkpt>
      <trkpt lat="43.55241" lon="3.34919">
        <ele>250.56</ele>
        <time>2014-04-13T10:55:11Z</time>
      </trkpt>
      <trkpt lat="43.5525" lon="3.34942">
        <ele>250.56</ele>
        <time>2014-04-13T10:55:12Z</time>
      </trkpt>
      <trkpt lat="43.55258" lon="3.34968">
        <ele>250.56</ele>
        <time>2014-04-13T10:55:13Z</time>
      </trkpt>
      <trkpt lat="43.55265" lon="3.34994">
        <ele>250.56</ele>
        <time>2014-04-13T10:55:14Z</time>
      </trkpt>
      <trkpt lat="43.5528" lon="3.35059">
        <ele>250.08</ele>
        <time>2014-04-13T10:55:17Z</time>
      </trkpt>
      <trkpt lat="43.55276" lon="3.35078">
        <ele>249.6</ele>
        <time>2014-04-13T10:55:18Z</time>
      </trkpt>
      <trkpt lat="43.55267" lon="3.35098">
        <ele>249.6</ele>
        <time>2014-04-13T10:55:19Z</time>
      </trkpt>
      <trkpt lat="43.55256" lon="3.35117">
        <ele>249.6</ele>
        <time>2014-04-13T10:55:20Z</time>
      </trkpt>
      <trkpt lat="43.55243" lon="3.35135">
        <ele>249.6</ele>
        <time>2014-04-13T10:55:21Z</time>
      </trkpt>
      <trkpt lat="43.55228" lon="3.35149">
        <ele>249.6</ele>
        <time>2014-04-13T10:55:22Z</time>
      </trkpt>
      <trkpt lat="43.55213" lon="3.35162">
        <ele>249.6</ele>
        <time>2014-04-13T10:55:23Z</time>
      </trkpt>
      <trkpt lat="43.55199" lon="3.35176">
        <ele>249.12</ele>
        <time>2014-04-13T10:55:24Z</time>
      </trkpt>
      <trkpt lat="43.55186" lon="3.35192">
        <ele>249.12</ele>
        <time>2014-04-13T10:55:25Z</time>
      </trkpt>
      <trkpt lat="43.55176" lon="3.35211">
        <ele>248.64</ele>
        <time>2014-04-13T10:55:26Z</time>
      </trkpt>
      <trkpt lat="43.5517" lon="3.35233">
        <ele>248.64</ele>
        <time>2014-04-13T10:55:27Z</time>
      </trkpt>
      <trkpt lat="43.55169" lon="3.35256">
        <ele>248.64</ele>
        <time>2014-04-13T10:55:28Z</time>
      </trkpt>
      <trkpt lat="43.55172" lon="3.35279">
        <ele>248.16</ele>
        <time>2014-04-13T10:55:29Z</time>
      </trkpt>
      <trkpt lat="43.55178" lon="3.353">
        <ele>248.16</ele>
        <time>2014-04-13T10:55:30Z</time>
      </trkpt>
      <trkpt lat="43.55188" lon="3.35317">
        <ele>247.68</ele>
        <time>2014-04-13T10:55:31Z</time>
      </trkpt>
      <trkpt lat="43.55197" lon="3.35332">
        <ele>247.2</ele>
        <time>2014-04-13T10:55:32Z</time>
      </trkpt>
      <trkpt lat="43.55221" lon="3.3534">
        <ele>248.16</ele>
        <time>2014-04-13T10:55:33Z</time>
      </trkpt>
      <trkpt lat="43.55241" lon="3.35349">
        <ele>248.16</ele>
        <time>2014-04-13T10:55:34Z</time>
      </trkpt>
      <trkpt lat="43.5526" lon="3.35358">
        <ele>247.68</ele>
        <time>2014-04-13T10:55:35Z</time>
      </trkpt>
      <trkpt lat="43.55276" lon="3.35364">
        <ele>247.68</ele>
        <time>2014-04-13T10:55:36Z</time>
      </trkpt>
      <trkpt lat="43.55292" lon="3.35363">
        <ele>246.72</ele>
        <time>2014-04-13T10:55:37Z</time>
      </trkpt>
      <trkpt lat="43.55307" lon="3.35357">
        <ele>246.23</ele>
        <time>2014-04-13T10:55:38Z</time>
      </trkpt>
      <trkpt lat="43.55323" lon="3.35348">
        <ele>245.75</ele>
        <time>2014-04-13T10:55:39Z</time>
      </trkpt>
      <trkpt lat="43.55339" lon="3.35338">
        <ele>245.27</ele>
        <time>2014-04-13T10:55:40Z</time>
      </trkpt>
      <trkpt lat="43.55354" lon="3.35331">
        <ele>244.79</ele>
        <time>2014-04-13T10:55:41Z</time>
      </trkpt>
      <trkpt lat="43.55369" lon="3.3533">
        <ele>244.31</ele>
        <time>2014-04-13T10:55:42Z</time>
      </trkpt>
      <trkpt lat="43.55383" lon="3.35337">
        <ele>243.35</ele>
        <time>2014-04-13T10:55:43Z</time>
      </trkpt>
      <trkpt lat="43.55397" lon="3.35351">
        <ele>242.39</ele>
        <time>2014-04-13T10:55:44Z</time>
      </trkpt>
      <trkpt lat="43.55411" lon="3.35369">
        <ele>241.43</ele>
        <time>2014-04-13T10:55:45Z</time>
      </trkpt>
      <trkpt lat="43.55426" lon="3.35387">
        <ele>240.47</ele>
        <time>2014-04-13T10:55:46Z</time>
      </trkpt>
      <trkpt lat="43.55455" lon="3.35424">
        <ele>238.06</ele>
        <time>2014-04-13T10:55:48Z</time>
      </trkpt>
      <trkpt lat="43.55466" lon="3.35448">
        <ele>236.62</ele>
        <time>2014-04-13T10:55:49Z</time>
      </trkpt>
      <trkpt lat="43.55474" lon="3.35476">
        <ele>235.66</ele>
        <time>2014-04-13T10:55:50Z</time>
      </trkpt>
      <trkpt lat="43.5548" lon="3.35504">
        <ele>234.22</ele>
        <time>2014-04-13T10:55:51Z</time>
      </trkpt>
      <trkpt lat="43.55485" lon="3.35531">
        <ele>232.78</ele>
        <time>2014-04-13T10:55:52Z</time>
      </trkpt>
      <trkpt lat="43.55488" lon="3.35557">
        <ele>231.81</ele>
        <time>2014-04-13T10:55:53Z</time>
      </trkpt>
      <trkpt lat="43.55488" lon="3.35581">
        <ele>230.37</ele>
        <time>2014-04-13T10:55:54Z</time>
      </trkpt>
      <trkpt lat="43.55486" lon="3.356">
        <ele>229.41</ele>
        <time>2014-04-13T10:55:55Z</time>
      </trkpt>
      <trkpt lat="43.55483" lon="3.35613">
        <ele>228.93</ele>
        <time>2014-04-13T10:55:56Z</time>
      </trkpt>
      <trkpt lat="43.55484" lon="3.35622">
        <ele>227.97</ele>
        <time>2014-04-13T10:55:57Z</time>
      </trkpt>
      <trkpt lat="43.55489" lon="3.35627">
        <ele>227.01</ele>
        <time>2014-04-13T10:55:58Z</time>
      </trkpt>
      <trkpt lat="43.55494" lon="3.35628">
        <ele>226.05</ele>
        <time>2014-04-13T10:55:59Z</time>
      </trkpt>
      <trkpt lat="43.55499" lon="3.35624">
        <ele>225.09</ele>
        <time>2014-04-13T10:56:00Z</time>
      </trkpt>
      <trkpt lat="43.55505" lon="3.35612">
        <ele>224.12</ele>
        <time>2014-04-13T10:56:01Z</time>
      </trkpt>
      <trkpt lat="43.55506" lon="3.35592">
        <ele>225.09</ele>
        <time>2014-04-13T10:56:02Z</time>
      </trkpt>
      <trkpt lat="43.55507" lon="3.35571">
        <ele>225.57</ele>
        <time>2014-04-13T10:56:03Z</time>
      </trkpt>
      <trkpt lat="43.5551" lon="3.35549">
        <ele>226.05</ele>
        <time>2014-04-13T10:56:04Z</time>
      </trkpt>
      <trkpt lat="43.55516" lon="3.35525">
        <ele>226.05</ele>
        <time>2014-04-13T10:56:05Z</time>
      </trkpt>
      <trkpt lat="43.55522" lon="3.355">
        <ele>226.05</ele>
        <time>2014-04-13T10:56:06Z</time>
      </trkpt>
      <trkpt lat="43.55538" lon="3.35427">
        <ele>225.57</ele>
        <time>2014-04-13T10:56:09Z</time>
      </trkpt>
      <trkpt lat="43.5554" lon="3.35402">
        <ele>225.09</ele>
        <time>2014-04-13T10:56:10Z</time>
      </trkpt>
      <trkpt lat="43.55541" lon="3.35378">
        <ele>225.09</ele>
        <time>2014-04-13T10:56:11Z</time>
      </trkpt>
      <trkpt lat="43.5554" lon="3.35354">
        <ele>224.61</ele>
        <time>2014-04-13T10:56:12Z</time>
      </trkpt>
      <trkpt lat="43.55538" lon="3.3533">
        <ele>224.12</ele>
        <time>2014-04-13T10:56:13Z</time>
      </trkpt>
      <trkpt lat="43.55534" lon="3.35307">
        <ele>223.64</ele>
        <time>2014-04-13T10:56:14Z</time>
      </trkpt>
      <trkpt lat="43.5553" lon="3.35285">
        <ele>222.68</ele>
        <time>2014-04-13T10:56:15Z</time>
      </trkpt>
      <trkpt lat="43.55523" lon="3.35244">
        <ele>221.24</ele>
        <time>2014-04-13T10:56:17Z</time>
      </trkpt>
      <trkpt lat="43.55521" lon="3.35225">
        <ele>220.76</ele>
        <time>2014-04-13T10:56:18Z</time>
      </trkpt>
      <trkpt lat="43.55522" lon="3.35206">
        <ele>220.28</ele>
        <time>2014-04-13T10:56:19Z</time>
      </trkpt>
      <trkpt lat="43.55523" lon="3.35188">
        <ele>219.32</ele>
        <time>2014-04-13T10:56:20Z</time>
      </trkpt>
      <trkpt lat="43.55525" lon="3.35169">
        <ele>218.36</ele>
        <time>2014-04-13T10:56:21Z</time>
      </trkpt>
      <trkpt lat="43.5557" lon="3.35018">
        <ele>213.07</ele>
        <time>2014-04-13T10:56:29Z</time>
      </trkpt>
      <trkpt lat="43.55627" lon="3.34907">
        <ele>207.78</ele>
        <time>2014-04-13T10:56:35Z</time>
      </trkpt>
      <trkpt lat="43.55638" lon="3.34893">
        <ele>207.3</ele>
        <time>2014-04-13T10:56:36Z</time>
      </trkpt>
      <trkpt lat="43.55656" lon="3.34869">
        <ele>205.86</ele>
        <time>2014-04-13T10:56:38Z</time>
      </trkpt>
      <trkpt lat="43.55662" lon="3.34858">
        <ele>205.38</ele>
        <time>2014-04-13T10:56:39Z</time>
      </trkpt>
      <trkpt lat="43.55668" lon="3.34849">
        <ele>204.9</ele>
        <time>2014-04-13T10:56:40Z</time>
      </trkpt>
      <trkpt lat="43.55675" lon="3.34849">
        <ele>203.94</ele>
        <time>2014-04-13T10:56:41Z</time>
      </trkpt>
      <trkpt lat="43.55683" lon="3.34854">
        <ele>202.98</ele>
        <time>2014-04-13T10:56:42Z</time>
      </trkpt>
      <trkpt lat="43.55687" lon="3.34864">
        <ele>202.49</ele>
        <time>2014-04-13T10:56:43Z</time>
      </trkpt>
      <trkpt lat="43.55686" lon="3.34877">
        <ele>201.53</ele>
        <time>2014-04-13T10:56:44Z</time>
      </trkpt>
      <trkpt lat="43.55681" lon="3.34891">
        <ele>201.05</ele>
        <time>2014-04-13T10:56:45Z</time>
      </trkpt>
      <trkpt lat="43.55674" lon="3.3491">
        <ele>200.57</ele>
        <time>2014-04-13T10:56:46Z</time>
      </trkpt>
      <trkpt lat="43.55667" lon="3.3493">
        <ele>199.13</ele>
        <time>2014-04-13T10:56:47Z</time>
      </trkpt>
      <trkpt lat="43.55659" lon="3.34954">
        <ele>197.69</ele>
        <time>2014-04-13T10:56:48Z</time>
      </trkpt>
      <trkpt lat="43.55651" lon="3.34979">
        <ele>196.25</ele>
        <time>2014-04-13T10:56:49Z</time>
      </trkpt>
      <trkpt lat="43.55645" lon="3.35003">
        <ele>195.28</ele>
        <time>2014-04-13T10:56:50Z</time>
      </trkpt>
      <trkpt lat="43.55642" lon="3.35027">
        <ele>193.84</ele>
        <time>2014-04-13T10:56:51Z</time>
      </trkpt>
      <trkpt lat="43.55641" lon="3.35052">
        <ele>192.4</ele>
        <time>2014-04-13T10:56:52Z</time>
      </trkpt>
      <trkpt lat="43.55644" lon="3.35075">
        <ele>191.92</ele>
        <time>2014-04-13T10:56:53Z</time>
      </trkpt>
      <trkpt lat="43.5565" lon="3.35096">
        <ele>190.48</ele>
        <time>2014-04-13T10:56:54Z</time>
      </trkpt>
      <trkpt lat="43.55662" lon="3.35116">
        <ele>189.52</ele>
        <time>2014-04-13T10:56:55Z</time>
      </trkpt>
      <trkpt lat="43.55676" lon="3.35134">
        <ele>188.56</ele>
        <time>2014-04-13T10:56:56Z</time>
      </trkpt>
      <trkpt lat="43.55689" lon="3.35156">
        <ele>187.59</ele>
        <time>2014-04-13T10:56:57Z</time>
      </trkpt>
      <trkpt lat="43.557" lon="3.35184">
        <ele>186.63</ele>
        <time>2014-04-13T10:56:58Z</time>
      </trkpt>
      <trkpt lat="43.5571" lon="3.35216">
        <ele>185.19</ele>
        <time>2014-04-13T10:56:59Z</time>
      </trkpt>
      <trkpt lat="43.5572" lon="3.35249">
        <ele>183.75</ele>
        <time>2014-04-13T10:57:00Z</time>
      </trkpt>
      <trkpt lat="43.55795" lon="3.355">
        <ele>174.62</ele>
        <time>2014-04-13T10:57:08Z</time>
      </trkpt>
      <trkpt lat="43.55857" lon="3.35663">
        <ele>168.37</ele>
        <time>2014-04-13T10:57:15Z</time>
      </trkpt>
      <trkpt lat="43.55862" lon="3.35688">
        <ele>167.41</ele>
        <time>2014-04-13T10:57:16Z</time>
      </trkpt>
      <trkpt lat="43.55864" lon="3.35717">
        <ele>166.45</ele>
        <time>2014-04-13T10:57:17Z</time>
      </trkpt>
      <trkpt lat="43.55881" lon="3.36009">
        <ele>156.35</ele>
        <time>2014-04-13T10:57:27Z</time>
      </trkpt>
      <trkpt lat="43.5589" lon="3.36054">
        <ele>154.43</ele>
        <time>2014-04-13T10:57:29Z</time>
      </trkpt>
      <trkpt lat="43.55888" lon="3.36072">
        <ele>153.47</ele>
        <time>2014-04-13T10:57:30Z</time>
      </trkpt>
      <trkpt lat="43.55883" lon="3.36092">
        <ele>152.99</ele>
        <time>2014-04-13T10:57:31Z</time>
      </trkpt>
      <trkpt lat="43.55877" lon="3.36115">
        <ele>151.54</ele>
        <time>2014-04-13T10:57:32Z</time>
      </trkpt>
      <trkpt lat="43.55871" lon="3.36138">
        <ele>150.1</ele>
        <time>2014-04-13T10:57:33Z</time>
      </trkpt>
      <trkpt lat="43.55862" lon="3.36186">
        <ele>148.18</ele>
        <time>2014-04-13T10:57:35Z</time>
      </trkpt>
      <trkpt lat="43.5586" lon="3.36208">
        <ele>147.22</ele>
        <time>2014-04-13T10:57:36Z</time>
      </trkpt>
      <trkpt lat="43.55855" lon="3.36277">
        <ele>143.85</ele>
        <time>2014-04-13T10:57:41Z</time>
      </trkpt>
      <trkpt lat="43.55855" lon="3.36285">
        <ele>142.41</ele>
        <time>2014-04-13T10:57:42Z</time>
      </trkpt>
      <trkpt lat="43.55857" lon="3.36288">
        <ele>140.97</ele>
        <time>2014-04-13T10:57:43Z</time>
      </trkpt>
      <trkpt lat="43.55859" lon="3.36287">
        <ele>139.53</ele>
        <time>2014-04-13T10:57:44Z</time>
      </trkpt>
      <trkpt lat="43.55863" lon="3.3628">
        <ele>138.57</ele>
        <time>2014-04-13T10:57:45Z</time>
      </trkpt>
      <trkpt lat="43.55877" lon="3.36267">
        <ele>140.01</ele>
        <time>2014-04-13T10:57:46Z</time>
      </trkpt>
      <trkpt lat="43.5588" lon="3.36255">
        <ele>139.53</ele>
        <time>2014-04-13T10:57:47Z</time>
      </trkpt>
      <trkpt lat="43.5588" lon="3.36241">
        <ele>140.01</ele>
        <time>2014-04-13T10:57:48Z</time>
      </trkpt>
      <trkpt lat="43.55886" lon="3.36168">
        <ele>140.01</ele>
        <time>2014-04-13T10:57:54Z</time>
      </trkpt>
      <trkpt lat="43.5589" lon="3.36162">
        <ele>139.53</ele>
        <time>2014-04-13T10:57:55Z</time>
      </trkpt>
      <trkpt lat="43.55895" lon="3.36163">
        <ele>139.05</ele>
        <time>2014-04-13T10:57:56Z</time>
      </trkpt>
      <trkpt lat="43.559" lon="3.3617">
        <ele>138.57</ele>
        <time>2014-04-13T10:57:57Z</time>
      </trkpt>
      <trkpt lat="43.55902" lon="3.36181">
        <ele>138.57</ele>
        <time>2014-04-13T10:57:58Z</time>
      </trkpt>
      <trkpt lat="43.55902" lon="3.36194">
        <ele>138.09</ele>
        <time>2014-04-13T10:57:59Z</time>
      </trkpt>
      <trkpt lat="43.55902" lon="3.36211">
        <ele>137.61</ele>
        <time>2014-04-13T10:58:00Z</time>
      </trkpt>
      <trkpt lat="43.55902" lon="3.36228">
        <ele>137.13</ele>
        <time>2014-04-13T10:58:01Z</time>
      </trkpt>
      <trkpt lat="43.55904" lon="3.36281">
        <ele>135.2</ele>
        <time>2014-04-13T10:58:04Z</time>
      </trkpt>
      <trkpt lat="43.55907" lon="3.36298">
        <ele>134.72</ele>
        <time>2014-04-13T10:58:05Z</time>
      </trkpt>
      <trkpt lat="43.55912" lon="3.36316">
        <ele>133.76</ele>
        <time>2014-04-13T10:58:06Z</time>
      </trkpt>
      <trkpt lat="43.55956" lon="3.36456">
        <ele>128.95</ele>
        <time>2014-04-13T10:58:12Z</time>
      </trkpt>
      <trkpt lat="43.55993" lon="3.36557">
        <ele>125.11</ele>
        <time>2014-04-13T10:58:16Z</time>
      </trkpt>
      <trkpt lat="43.55998" lon="3.36582">
        <ele>123.67</ele>
        <time>2014-04-13T10:58:17Z</time>
      </trkpt>
      <trkpt lat="43.56004" lon="3.36606">
        <ele>122.71</ele>
        <time>2014-04-13T10:58:18Z</time>
      </trkpt>
      <trkpt lat="43.56011" lon="3.36628">
        <ele>122.22</ele>
        <time>2014-04-13T10:58:19Z</time>
      </trkpt>
      <trkpt lat="43.56018" lon="3.3665">
        <ele>121.26</ele>
        <time>2014-04-13T10:58:20Z</time>
      </trkpt>
      <trkpt lat="43.56022" lon="3.36672">
        <ele>120.3</ele>
        <time>2014-04-13T10:58:21Z</time>
      </trkpt>
      <trkpt lat="43.56023" lon="3.36694">
        <ele>119.34</ele>
        <time>2014-04-13T10:58:22Z</time>
      </trkpt>
      <trkpt lat="43.56026" lon="3.36737">
        <ele>117.9</ele>
        <time>2014-04-13T10:58:24Z</time>
      </trkpt>
      <trkpt lat="43.56029" lon="3.36756">
        <ele>116.94</ele>
        <time>2014-04-13T10:58:25Z</time>
      </trkpt>
      <trkpt lat="43.56045" lon="3.36828">
        <ele>114.05</ele>
        <time>2014-04-13T10:58:29Z</time>
      </trkpt>
      <trkpt lat="43.56045" lon="3.36845">
        <ele>113.09</ele>
        <time>2014-04-13T10:58:30Z</time>
      </trkpt>
      <trkpt lat="43.56042" lon="3.36862">
        <ele>112.61</ele>
        <time>2014-04-13T10:58:31Z</time>
      </trkpt>
      <trkpt lat="43.56037" lon="3.36876">
        <ele>112.13</ele>
        <time>2014-04-13T10:58:32Z</time>
      </trkpt>
      <trkpt lat="43.56033" lon="3.36889">
        <ele>111.65</ele>
        <time>2014-04-13T10:58:33Z</time>
      </trkpt>
      <trkpt lat="43.56031" lon="3.369">
        <ele>110.69</ele>
        <time>2014-04-13T10:58:34Z</time>
      </trkpt>
      <trkpt lat="43.56032" lon="3.36907">
        <ele>110.21</ele>
        <time>2014-04-13T10:58:35Z</time>
      </trkpt>
      <trkpt lat="43.56034" lon="3.36912">
        <ele>109.73</ele>
        <time>2014-04-13T10:58:36Z</time>
      </trkpt>
      <trkpt lat="43.56038" lon="3.36911">
        <ele>108.77</ele>
        <time>2014-04-13T10:58:37Z</time>
      </trkpt>
      <trkpt lat="43.56049" lon="3.36905">
        <ele>108.77</ele>
        <time>2014-04-13T10:58:38Z</time>
      </trkpt>
      <trkpt lat="43.56055" lon="3.36894">
        <ele>108.77</ele>
        <time>2014-04-13T10:58:39Z</time>
      </trkpt>
      <trkpt lat="43.5606" lon="3.36881">
        <ele>108.29</ele>
        <time>2014-04-13T10:58:40Z</time>
      </trkpt>
      <trkpt lat="43.56066" lon="3.36869">
        <ele>108.29</ele>
        <time>2014-04-13T10:58:41Z</time>
      </trkpt>
      <trkpt lat="43.56072" lon="3.36859">
        <ele>107.81</ele>
        <time>2014-04-13T10:58:42Z</time>
      </trkpt>
      <trkpt lat="43.5608" lon="3.36849">
        <ele>107.32</ele>
        <time>2014-04-13T10:58:43Z</time>
      </trkpt>
      <trkpt lat="43.56088" lon="3.3684">
        <ele>106.84</ele>
        <time>2014-04-13T10:58:44Z</time>
      </trkpt>
      <trkpt lat="43.56158" lon="3.36768">
        <ele>105.4</ele>
        <time>2014-04-13T10:58:55Z</time>
      </trkpt>
      <trkpt lat="43.56158" lon="3.36768">
        <ele>105.4</ele>
        <time>2014-04-13T10:59:07Z</time>
      </trkpt>
      <trkpt lat="43.56164" lon="3.36757">
        <ele>105.88</ele>
        <time>2014-04-13T10:59:55Z</time>
      </trkpt>
      <trkpt lat="43.56169" lon="3.36753">
        <ele>105.88</ele>
        <time>2014-04-13T10:59:56Z</time>
      </trkpt>
      <trkpt lat="43.56222" lon="3.36705">
        <ele>106.36</ele>
        <time>2014-04-13T11:00:02Z</time>
      </trkpt>
      <trkpt lat="43.56337" lon="3.3662">
        <ele>105.4</ele>
        <time>2014-04-13T11:00:09Z</time>
      </trkpt>
      <trkpt lat="43.56562" lon="3.36457">
        <ele>103</ele>
        <time>2014-04-13T11:00:20Z</time>
      </trkpt>
      <trkpt lat="43.56642" lon="3.36402">
        <ele>102.52</ele>
        <time>2014-04-13T11:00:24Z</time>
      </trkpt>
      <trkpt lat="43.56663" lon="3.36395">
        <ele>102.52</ele>
        <time>2014-04-13T11:00:25Z</time>
      </trkpt>
      <trkpt lat="43.56684" lon="3.3639">
        <ele>102.52</ele>
        <time>2014-04-13T11:00:26Z</time>
      </trkpt>
      <trkpt lat="43.56704" lon="3.36389">
        <ele>102.52</ele>
        <time>2014-04-13T11:00:27Z</time>
      </trkpt>
      <trkpt lat="43.56724" lon="3.36389">
        <ele>102.52</ele>
        <time>2014-04-13T11:00:28Z</time>
      </trkpt>
      <trkpt lat="43.56744" lon="3.36389">
        <ele>102.52</ele>
        <time>2014-04-13T11:00:29Z</time>
      </trkpt>
      <trkpt lat="43.56765" lon="3.36383">
        <ele>102.52</ele>
        <time>2014-04-13T11:00:30Z</time>
      </trkpt>
      <trkpt lat="43.56786" lon="3.3637">
        <ele>102.52</ele>
        <time>2014-04-13T11:00:31Z</time>
      </trkpt>
      <trkpt lat="43.56807" lon="3.36354">
        <ele>102.52</ele>
        <time>2014-04-13T11:00:32Z</time>
      </trkpt>
      <trkpt lat="43.56826" lon="3.36337">
        <ele>102.52</ele>
        <time>2014-04-13T11:00:33Z</time>
      </trkpt>
      <trkpt lat="43.56846" lon="3.36322">
        <ele>102.52</ele>
        <time>2014-04-13T11:00:34Z</time>
      </trkpt>
      <trkpt lat="43.56867" lon="3.36312">
        <ele>102.52</ele>
        <time>2014-04-13T11:00:35Z</time>
      </trkpt>
      <trkpt lat="43.5689" lon="3.36306">
        <ele>102.52</ele>
        <time>2014-04-13T11:00:36Z</time>
      </trkpt>
      <trkpt lat="43.57028" lon="3.36285">
        <ele>103.96</ele>
        <time>2014-04-13T11:00:42Z</time>
      </trkpt>
      <trkpt lat="43.57049" lon="3.36287">
        <ele>103.96</ele>
        <time>2014-04-13T11:00:43Z</time>
      </trkpt>
      <trkpt lat="43.57067" lon="3.36291">
        <ele>103.96</ele>
        <time>2014-04-13T11:00:44Z</time>
      </trkpt>
      <trkpt lat="43.57132" lon="3.36309">
        <ele>104.92</ele>
        <time>2014-04-13T11:00:49Z</time>
      </trkpt>
      <trkpt lat="43.57217" lon="3.36331">
        <ele>105.88</ele>
        <time>2014-04-13T11:00:58Z</time>
      </trkpt>
      <trkpt lat="43.57375" lon="3.3637">
        <ele>106.84</ele>
        <time>2014-04-13T11:01:12Z</time>
      </trkpt>
      <trkpt lat="43.57386" lon="3.36368">
        <ele>106.84</ele>
        <time>2014-04-13T11:01:13Z</time>
      </trkpt>
      <trkpt lat="43.57398" lon="3.36364">
        <ele>106.84</ele>
        <time>2014-04-13T11:01:14Z</time>
      </trkpt>
      <trkpt lat="43.57435" lon="3.36353">
        <ele>106.84</ele>
        <time>2014-04-13T11:01:17Z</time>
      </trkpt>
      <trkpt lat="43.57447" lon="3.36352">
        <ele>106.84</ele>
        <time>2014-04-13T11:01:18Z</time>
      </trkpt>
      <trkpt lat="43.5746" lon="3.36353">
        <ele>106.84</ele>
        <time>2014-04-13T11:01:19Z</time>
      </trkpt>
      <trkpt lat="43.5757" lon="3.36372">
        <ele>108.77</ele>
        <time>2014-04-13T11:01:29Z</time>
      </trkpt>
      <trkpt lat="43.57628" lon="3.36379">
        <ele>109.73</ele>
        <time>2014-04-13T11:01:38Z</time>
      </trkpt>
      <trkpt lat="43.57708" lon="3.36396">
        <ele>116.46</ele>
        <time>2014-04-13T11:01:49Z</time>
      </trkpt>
      <trkpt lat="43.57793" lon="3.36397">
        <ele>116.46</ele>
        <time>2014-04-13T11:01:59Z</time>
      </trkpt>
      <trkpt lat="43.57887" lon="3.36375">
        <ele>114.05</ele>
        <time>2014-04-13T11:02:08Z</time>
      </trkpt>
      <trkpt lat="43.57999" lon="3.36351">
        <ele>114.53</ele>
        <time>2014-04-13T11:02:16Z</time>
      </trkpt>
      <trkpt lat="43.58034" lon="3.36343">
        <ele>114.53</ele>
        <time>2014-04-13T11:02:18Z</time>
      </trkpt>
      <trkpt lat="43.58052" lon="3.36335">
        <ele>115.5</ele>
        <time>2014-04-13T11:02:19Z</time>
      </trkpt>
      <trkpt lat="43.58233" lon="3.36235">
        <ele>118.86</ele>
        <time>2014-04-13T11:02:29Z</time>
      </trkpt>
      <trkpt lat="43.58263" lon="3.3622">
        <ele>119.34</ele>
        <time>2014-04-13T11:02:31Z</time>
      </trkpt>
      <trkpt lat="43.58278" lon="3.36219">
        <ele>119.82</ele>
        <time>2014-04-13T11:02:32Z</time>
      </trkpt>
      <trkpt lat="43.58293" lon="3.36225">
        <ele>119.82</ele>
        <time>2014-04-13T11:02:33Z</time>
      </trkpt>
      <trkpt lat="43.58307" lon="3.36238">
        <ele>119.34</ele>
        <time>2014-04-13T11:02:34Z</time>
      </trkpt>
      <trkpt lat="43.58322" lon="3.36253">
        <ele>119.82</ele>
        <time>2014-04-13T11:02:35Z</time>
      </trkpt>
      <trkpt lat="43.58336" lon="3.36269">
        <ele>120.3</ele>
        <time>2014-04-13T11:02:36Z</time>
      </trkpt>
      <trkpt lat="43.5835" lon="3.36282">
        <ele>120.3</ele>
        <time>2014-04-13T11:02:37Z</time>
      </trkpt>
      <trkpt lat="43.58364" lon="3.36291">
        <ele>120.3</ele>
        <time>2014-04-13T11:02:38Z</time>
      </trkpt>
      <trkpt lat="43.5838" lon="3.36296">
        <ele>120.3</ele>
        <time>2014-04-13T11:02:39Z</time>
      </trkpt>
      <trkpt lat="43.58401" lon="3.36295">
        <ele>120.3</ele>
        <time>2014-04-13T11:02:40Z</time>
      </trkpt>
      <trkpt lat="43.58424" lon="3.36291">
        <ele>120.3</ele>
        <time>2014-04-13T11:02:41Z</time>
      </trkpt>
      <trkpt lat="43.58447" lon="3.36289">
        <ele>120.78</ele>
        <time>2014-04-13T11:02:42Z</time>
      </trkpt>
      <trkpt lat="43.58535" lon="3.36285">
        <ele>122.71</ele>
        <time>2014-04-13T11:02:46Z</time>
      </trkpt>
      <trkpt lat="43.58557" lon="3.36292">
        <ele>123.67</ele>
        <time>2014-04-13T11:02:47Z</time>
      </trkpt>
      <trkpt lat="43.58787" lon="3.36371">
        <ele>127.51</ele>
        <time>2014-04-13T11:02:57Z</time>
      </trkpt>
      <trkpt lat="43.58982" lon="3.36486">
        <ele>130.4</ele>
        <time>2014-04-13T11:03:06Z</time>
      </trkpt>
      <trkpt lat="43.58999" lon="3.36507">
        <ele>130.88</ele>
        <time>2014-04-13T11:03:07Z</time>
      </trkpt>
      <trkpt lat="43.59167" lon="3.36717">
        <ele>137.61</ele>
        <time>2014-04-13T11:03:16Z</time>
      </trkpt>
      <trkpt lat="43.59427" lon="3.37041">
        <ele>150.58</ele>
        <time>2014-04-13T11:03:29Z</time>
      </trkpt>
      <trkpt lat="43.5953" lon="3.37161">
        <ele>156.35</ele>
        <time>2014-04-13T11:03:35Z</time>
      </trkpt>
      <trkpt lat="43.59705" lon="3.3734">
        <ele>162.12</ele>
        <time>2014-04-13T11:03:46Z</time>
      </trkpt>
      <trkpt lat="43.59784" lon="3.37436">
        <ele>163.56</ele>
        <time>2014-04-13T11:03:52Z</time>
      </trkpt>
      <trkpt lat="43.59792" lon="3.37461">
        <ele>163.56</ele>
        <time>2014-04-13T11:03:53Z</time>
      </trkpt>
      <trkpt lat="43.59801" lon="3.37488">
        <ele>163.56</ele>
        <time>2014-04-13T11:03:54Z</time>
      </trkpt>
      <trkpt lat="43.59864" lon="3.37686">
        <ele>169.33</ele>
        <time>2014-04-13T11:04:00Z</time>
      </trkpt>
      <trkpt lat="43.59957" lon="3.37991">
        <ele>173.17</ele>
        <time>2014-04-13T11:04:09Z</time>
      </trkpt>
      <trkpt lat="43.59963" lon="3.38028">
        <ele>173.17</ele>
        <time>2014-04-13T11:04:10Z</time>
      </trkpt>
      <trkpt lat="43.59988" lon="3.38219">
        <ele>176.54</ele>
        <time>2014-04-13T11:04:16Z</time>
      </trkpt>
      <trkpt lat="43.59996" lon="3.38247">
        <ele>177.02</ele>
        <time>2014-04-13T11:04:17Z</time>
      </trkpt>
      <trkpt lat="43.60007" lon="3.38275">
        <ele>177.5</ele>
        <time>2014-04-13T11:04:18Z</time>
      </trkpt>
      <trkpt lat="43.60021" lon="3.38303">
        <ele>177.98</ele>
        <time>2014-04-13T11:04:19Z</time>
      </trkpt>
      <trkpt lat="43.60213" lon="3.38676">
        <ele>182.31</ele>
        <time>2014-04-13T11:04:32Z</time>
      </trkpt>
      <trkpt lat="43.60259" lon="3.38751">
        <ele>181.35</ele>
        <time>2014-04-13T11:04:35Z</time>
      </trkpt>
      <trkpt lat="43.6027" lon="3.38777">
        <ele>180.87</ele>
        <time>2014-04-13T11:04:36Z</time>
      </trkpt>
      <trkpt lat="43.60276" lon="3.38804">
        <ele>180.38</ele>
        <time>2014-04-13T11:04:37Z</time>
      </trkpt>
      <trkpt lat="43.60276" lon="3.38833">
        <ele>179.9</ele>
        <time>2014-04-13T11:04:38Z</time>
      </trkpt>
      <trkpt lat="43.60275" lon="3.38862">
        <ele>179.42</ele>
        <time>2014-04-13T11:04:39Z</time>
      </trkpt>
      <trkpt lat="43.60273" lon="3.38892">
        <ele>178.94</ele>
        <time>2014-04-13T11:04:40Z</time>
      </trkpt>
      <trkpt lat="43.60273" lon="3.38924">
        <ele>178.46</ele>
        <time>2014-04-13T11:04:41Z</time>
      </trkpt>
      <trkpt lat="43.60279" lon="3.38957">
        <ele>177.5</ele>
        <time>2014-04-13T11:04:42Z</time>
      </trkpt>
      <trkpt lat="43.60286" lon="3.38992">
        <ele>176.54</ele>
        <time>2014-04-13T11:04:43Z</time>
      </trkpt>
      <trkpt lat="43.60336" lon="3.39259">
        <ele>172.21</ele>
        <time>2014-04-13T11:04:51Z</time>
      </trkpt>
      <trkpt lat="43.60345" lon="3.39296">
        <ele>171.73</ele>
        <time>2014-04-13T11:04:53Z</time>
      </trkpt>
      <trkpt lat="43.60351" lon="3.39311">
        <ele>171.73</ele>
        <time>2014-04-13T11:04:54Z</time>
      </trkpt>
      <trkpt lat="43.60359" lon="3.39322">
        <ele>170.77</ele>
        <time>2014-04-13T11:04:55Z</time>
      </trkpt>
      <trkpt lat="43.6038" lon="3.39324">
        <ele>171.25</ele>
        <time>2014-04-13T11:04:56Z</time>
      </trkpt>
      <trkpt lat="43.60397" lon="3.39324">
        <ele>172.21</ele>
        <time>2014-04-13T11:04:57Z</time>
      </trkpt>
      <trkpt lat="43.60415" lon="3.3932">
        <ele>172.69</ele>
        <time>2014-04-13T11:04:58Z</time>
      </trkpt>
      <trkpt lat="43.60433" lon="3.39314">
        <ele>172.69</ele>
        <time>2014-04-13T11:04:59Z</time>
      </trkpt>
      <trkpt lat="43.60449" lon="3.39304">
        <ele>172.21</ele>
        <time>2014-04-13T11:05:00Z</time>
      </trkpt>
      <trkpt lat="43.60462" lon="3.39292">
        <ele>171.73</ele>
        <time>2014-04-13T11:05:01Z</time>
      </trkpt>
      <trkpt lat="43.60473" lon="3.39279">
        <ele>170.77</ele>
        <time>2014-04-13T11:05:02Z</time>
      </trkpt>
      <trkpt lat="43.60483" lon="3.39267">
        <ele>170.29</ele>
        <time>2014-04-13T11:05:03Z</time>
      </trkpt>
      <trkpt lat="43.60492" lon="3.39261">
        <ele>169.81</ele>
        <time>2014-04-13T11:05:04Z</time>
      </trkpt>
      <trkpt lat="43.60502" lon="3.39263">
        <ele>168.85</ele>
        <time>2014-04-13T11:05:05Z</time>
      </trkpt>
      <trkpt lat="43.60512" lon="3.39271">
        <ele>167.89</ele>
        <time>2014-04-13T11:05:06Z</time>
      </trkpt>
      <trkpt lat="43.60518" lon="3.39285">
        <ele>167.41</ele>
        <time>2014-04-13T11:05:07Z</time>
      </trkpt>
      <trkpt lat="43.6052" lon="3.39304">
        <ele>166.93</ele>
        <time>2014-04-13T11:05:08Z</time>
      </trkpt>
      <trkpt lat="43.60518" lon="3.39324">
        <ele>166.45</ele>
        <time>2014-04-13T11:05:09Z</time>
      </trkpt>
      <trkpt lat="43.60515" lon="3.39343">
        <ele>165</ele>
        <time>2014-04-13T11:05:10Z</time>
      </trkpt>
      <trkpt lat="43.60511" lon="3.39364">
        <ele>164.04</ele>
        <time>2014-04-13T11:05:11Z</time>
      </trkpt>
      <trkpt lat="43.6051" lon="3.39387">
        <ele>164.04</ele>
        <time>2014-04-13T11:05:12Z</time>
      </trkpt>
      <trkpt lat="43.60513" lon="3.39411">
        <ele>163.08</ele>
        <time>2014-04-13T11:05:13Z</time>
      </trkpt>
      <trkpt lat="43.60521" lon="3.39434">
        <ele>161.64</ele>
        <time>2014-04-13T11:05:14Z</time>
      </trkpt>
      <trkpt lat="43.6053" lon="3.39455">
        <ele>160.68</ele>
        <time>2014-04-13T11:05:15Z</time>
      </trkpt>
      <trkpt lat="43.60539" lon="3.39474">
        <ele>159.24</ele>
        <time>2014-04-13T11:05:16Z</time>
      </trkpt>
      <trkpt lat="43.60551" lon="3.3949">
        <ele>158.27</ele>
        <time>2014-04-13T11:05:17Z</time>
      </trkpt>
      <trkpt lat="43.60567" lon="3.39504">
        <ele>157.31</ele>
        <time>2014-04-13T11:05:18Z</time>
      </trkpt>
      <trkpt lat="43.60585" lon="3.39516">
        <ele>156.35</ele>
        <time>2014-04-13T11:05:19Z</time>
      </trkpt>
      <trkpt lat="43.60604" lon="3.39527">
        <ele>155.39</ele>
        <time>2014-04-13T11:05:20Z</time>
      </trkpt>
      <trkpt lat="43.60691" lon="3.39577">
        <ele>150.58</ele>
        <time>2014-04-13T11:05:25Z</time>
      </trkpt>
      <trkpt lat="43.6071" lon="3.39579">
        <ele>149.62</ele>
        <time>2014-04-13T11:05:26Z</time>
      </trkpt>
      <trkpt lat="43.60728" lon="3.39579">
        <ele>148.66</ele>
        <time>2014-04-13T11:05:27Z</time>
      </trkpt>
      <trkpt lat="43.60795" lon="3.39585">
        <ele>145.3</ele>
        <time>2014-04-13T11:05:31Z</time>
      </trkpt>
      <trkpt lat="43.6081" lon="3.39593">
        <ele>144.34</ele>
        <time>2014-04-13T11:05:32Z</time>
      </trkpt>
      <trkpt lat="43.60825" lon="3.39605">
        <ele>143.37</ele>
        <time>2014-04-13T11:05:33Z</time>
      </trkpt>
      <trkpt lat="43.60837" lon="3.39617">
        <ele>142.41</ele>
        <time>2014-04-13T11:05:34Z</time>
      </trkpt>
      <trkpt lat="43.60849" lon="3.39629">
        <ele>141.93</ele>
        <time>2014-04-13T11:05:35Z</time>
      </trkpt>
      <trkpt lat="43.60893" lon="3.39669">
        <ele>138.57</ele>
        <time>2014-04-13T11:05:41Z</time>
      </trkpt>
      <trkpt lat="43.60892" lon="3.39671">
        <ele>139.53</ele>
        <time>2014-04-13T11:05:51Z</time>
      </trkpt>
      <trkpt lat="43.60891" lon="3.39678">
        <ele>140.01</ele>
        <time>2014-04-13T11:06:14Z</time>
      </trkpt>
      <trkpt lat="43.6089" lon="3.39685">
        <ele>140.01</ele>
        <time>2014-04-13T11:06:15Z</time>
      </trkpt>
      <trkpt lat="43.60881" lon="3.39764">
        <ele>139.53</ele>
        <time>2014-04-13T11:06:20Z</time>
      </trkpt>
      <trkpt lat="43.60872" lon="3.39856">
        <ele>138.09</ele>
        <time>2014-04-13T11:06:24Z</time>
      </trkpt>
      <trkpt lat="43.60874" lon="3.39882">
        <ele>137.13</ele>
        <time>2014-04-13T11:06:25Z</time>
      </trkpt>
      <trkpt lat="43.60879" lon="3.39908">
        <ele>136.64</ele>
        <time>2014-04-13T11:06:26Z</time>
      </trkpt>
      <trkpt lat="43.60884" lon="3.39933">
        <ele>136.16</ele>
        <time>2014-04-13T11:06:27Z</time>
      </trkpt>
      <trkpt lat="43.60891" lon="3.39957">
        <ele>135.68</ele>
        <time>2014-04-13T11:06:28Z</time>
      </trkpt>
      <trkpt lat="43.60906" lon="3.40022">
        <ele>134.24</ele>
        <time>2014-04-13T11:06:31Z</time>
      </trkpt>
      <trkpt lat="43.60907" lon="3.40043">
        <ele>134.24</ele>
        <time>2014-04-13T11:06:32Z</time>
      </trkpt>
      <trkpt lat="43.60904" lon="3.40063">
        <ele>133.76</ele>
        <time>2014-04-13T11:06:33Z</time>
      </trkpt>
      <trkpt lat="43.609" lon="3.40083">
        <ele>133.28</ele>
        <time>2014-04-13T11:06:34Z</time>
      </trkpt>
      <trkpt lat="43.60897" lon="3.40103">
        <ele>132.8</ele>
        <time>2014-04-13T11:06:35Z</time>
      </trkpt>
      <trkpt lat="43.60896" lon="3.40122">
        <ele>131.84</ele>
        <time>2014-04-13T11:06:36Z</time>
      </trkpt>
      <trkpt lat="43.60899" lon="3.4014">
        <ele>130.88</ele>
        <time>2014-04-13T11:06:37Z</time>
      </trkpt>
      <trkpt lat="43.60904" lon="3.40158">
        <ele>130.4</ele>
        <time>2014-04-13T11:06:38Z</time>
      </trkpt>
      <trkpt lat="43.60912" lon="3.40171">
        <ele>129.92</ele>
        <time>2014-04-13T11:06:39Z</time>
      </trkpt>
      <trkpt lat="43.60922" lon="3.40179">
        <ele>129.43</ele>
        <time>2014-04-13T11:06:40Z</time>
      </trkpt>
      <trkpt lat="43.60935" lon="3.40182">
        <ele>128.95</ele>
        <time>2014-04-13T11:06:41Z</time>
      </trkpt>
      <trkpt lat="43.60947" lon="3.40186">
        <ele>128.47</ele>
        <time>2014-04-13T11:06:42Z</time>
      </trkpt>
      <trkpt lat="43.60961" lon="3.40193">
        <ele>128.95</ele>
        <time>2014-04-13T11:06:43Z</time>
      </trkpt>
      <trkpt lat="43.60975" lon="3.40204">
        <ele>128.95</ele>
        <time>2014-04-13T11:06:44Z</time>
      </trkpt>
      <trkpt lat="43.60988" lon="3.4022">
        <ele>128.95</ele>
        <time>2014-04-13T11:06:45Z</time>
      </trkpt>
      <trkpt lat="43.61001" lon="3.40238">
        <ele>129.92</ele>
        <time>2014-04-13T11:06:46Z</time>
      </trkpt>
      <trkpt lat="43.61134" lon="3.40422">
        <ele>130.4</ele>
        <time>2014-04-13T11:06:55Z</time>
      </trkpt>
      <trkpt lat="43.61382" lon="3.40748">
        <ele>137.61</ele>
        <time>2014-04-13T11:07:09Z</time>
      </trkpt>
      <trkpt lat="43.61539" lon="3.40857">
        <ele>143.85</ele>
        <time>2014-04-13T11:07:16Z</time>
      </trkpt>
      <trkpt lat="43.61812" lon="3.41029">
        <ele>158.27</ele>
        <time>2014-04-13T11:07:29Z</time>
      </trkpt>
      <trkpt lat="43.62041" lon="3.41169">
        <ele>163.08</ele>
        <time>2014-04-13T11:07:42Z</time>
      </trkpt>
      <trkpt lat="43.62146" lon="3.41267">
        <ele>157.31</ele>
        <time>2014-04-13T11:07:49Z</time>
      </trkpt>
      <trkpt lat="43.62247" lon="3.41441">
        <ele>150.58</ele>
        <time>2014-04-13T11:07:58Z</time>
      </trkpt>
      <trkpt lat="43.62338" lon="3.41604">
        <ele>142.89</ele>
        <time>2014-04-13T11:08:08Z</time>
      </trkpt>
      <trkpt lat="43.6235" lon="3.41629">
        <ele>141.93</ele>
        <time>2014-04-13T11:08:10Z</time>
      </trkpt>
      <trkpt lat="43.62354" lon="3.41641">
        <ele>141.45</ele>
        <time>2014-04-13T11:08:11Z</time>
      </trkpt>
      <trkpt lat="43.62356" lon="3.41651">
        <ele>140.97</ele>
        <time>2014-04-13T11:08:12Z</time>
      </trkpt>
      <trkpt lat="43.6236" lon="3.41668">
        <ele>140.49</ele>
        <time>2014-04-13T11:08:14Z</time>
      </trkpt>
      <trkpt lat="43.62364" lon="3.4167">
        <ele>140.01</ele>
        <time>2014-04-13T11:08:15Z</time>
      </trkpt>
      <trkpt lat="43.62369" lon="3.41672">
        <ele>140.01</ele>
        <time>2014-04-13T11:08:16Z</time>
      </trkpt>
      <trkpt lat="43.62377" lon="3.41675">
        <ele>139.53</ele>
        <time>2014-04-13T11:08:17Z</time>
      </trkpt>
      <trkpt lat="43.62384" lon="3.41681">
        <ele>139.05</ele>
        <time>2014-04-13T11:08:18Z</time>
      </trkpt>
      <trkpt lat="43.62391" lon="3.41691">
        <ele>138.57</ele>
        <time>2014-04-13T11:08:19Z</time>
      </trkpt>
      <trkpt lat="43.62398" lon="3.41704">
        <ele>138.09</ele>
        <time>2014-04-13T11:08:20Z</time>
      </trkpt>
      <trkpt lat="43.62404" lon="3.41718">
        <ele>137.61</ele>
        <time>2014-04-13T11:08:21Z</time>
      </trkpt>
      <trkpt lat="43.62455" lon="3.41841">
        <ele>134.24</ele>
        <time>2014-04-13T11:08:29Z</time>
      </trkpt>
      <trkpt lat="43.62477" lon="3.42015">
        <ele>128.95</ele>
        <time>2014-04-13T11:08:37Z</time>
      </trkpt>
      <trkpt lat="43.62489" lon="3.42059">
        <ele>127.51</ele>
        <time>2014-04-13T11:08:39Z</time>
      </trkpt>
      <trkpt lat="43.62496" lon="3.42079">
        <ele>126.55</ele>
        <time>2014-04-13T11:08:40Z</time>
      </trkpt>
      <trkpt lat="43.62568" lon="3.42254">
        <ele>122.22</ele>
        <time>2014-04-13T11:08:49Z</time>
      </trkpt>
      <trkpt lat="43.62571" lon="3.42273">
        <ele>121.26</ele>
        <time>2014-04-13T11:08:50Z</time>
      </trkpt>
      <trkpt lat="43.62573" lon="3.42292">
        <ele>120.78</ele>
        <time>2014-04-13T11:08:51Z</time>
      </trkpt>
      <trkpt lat="43.62573" lon="3.42311">
        <ele>120.3</ele>
        <time>2014-04-13T11:08:52Z</time>
      </trkpt>
      <trkpt lat="43.62573" lon="3.42331">
        <ele>119.82</ele>
        <time>2014-04-13T11:08:53Z</time>
      </trkpt>
      <trkpt lat="43.62573" lon="3.42519">
        <ele>114.05</ele>
        <time>2014-04-13T11:09:04Z</time>
      </trkpt>
      <trkpt lat="43.62575" lon="3.42575">
        <ele>112.61</ele>
        <time>2014-04-13T11:09:10Z</time>
      </trkpt>
      <trkpt lat="43.62578" lon="3.42575">
        <ele>112.61</ele>
        <time>2014-04-13T11:09:11Z</time>
      </trkpt>
      <trkpt lat="43.62583" lon="3.42572">
        <ele>112.61</ele>
        <time>2014-04-13T11:09:12Z</time>
      </trkpt>
      <trkpt lat="43.62588" lon="3.42567">
        <ele>112.61</ele>
        <time>2014-04-13T11:09:13Z</time>
      </trkpt>
      <trkpt lat="43.62594" lon="3.42561">
        <ele>112.13</ele>
        <time>2014-04-13T11:09:14Z</time>
      </trkpt>
      <trkpt lat="43.62601" lon="3.42556">
        <ele>112.61</ele>
        <time>2014-04-13T11:09:15Z</time>
      </trkpt>
      <trkpt lat="43.62621" lon="3.42536">
        <ele>112.61</ele>
        <time>2014-04-13T11:09:18Z</time>
      </trkpt>
      <trkpt lat="43.62626" lon="3.42526">
        <ele>112.61</ele>
        <time>2014-04-13T11:09:19Z</time>
      </trkpt>
      <trkpt lat="43.62629" lon="3.42515">
        <ele>112.61</ele>
        <time>2014-04-13T11:09:20Z</time>
      </trkpt>
      <trkpt lat="43.62681" lon="3.42368">
        <ele>119.34</ele>
        <time>2014-04-13T11:09:30Z</time>
      </trkpt>
      <trkpt lat="43.6275" lon="3.42221">
        <ele>125.59</ele>
        <time>2014-04-13T11:09:40Z</time>
      </trkpt>
      <trkpt lat="43.62798" lon="3.42134">
        <ele>130.4</ele>
        <time>2014-04-13T11:09:48Z</time>
      </trkpt>
      <trkpt lat="43.62838" lon="3.42072">
        <ele>132.8</ele>
        <time>2014-04-13T11:09:56Z</time>
      </trkpt>
      <trkpt lat="43.62891" lon="3.41994">
        <ele>135.68</ele>
        <time>2014-04-13T11:10:04Z</time>
      </trkpt>
      <trkpt lat="43.62919" lon="3.4196">
        <ele>137.61</ele>
        <time>2014-04-13T11:10:09Z</time>
      </trkpt>
      <trkpt lat="43.62924" lon="3.41956">
        <ele>138.09</ele>
        <time>2014-04-13T11:10:10Z</time>
      </trkpt>
      <trkpt lat="43.6297" lon="3.41927">
        <ele>141.45</ele>
        <time>2014-04-13T11:10:17Z</time>
      </trkpt>
      <trkpt lat="43.63055" lon="3.41886">
        <ele>144.82</ele>
        <time>2014-04-13T11:10:25Z</time>
      </trkpt>
      <trkpt lat="43.63223" lon="3.41798">
        <ele>150.1</ele>
        <time>2014-04-13T11:10:40Z</time>
      </trkpt>
      <trkpt lat="43.63232" lon="3.41792">
        <ele>150.1</ele>
        <time>2014-04-13T11:10:41Z</time>
      </trkpt>
      <trkpt lat="43.6325" lon="3.4178">
        <ele>150.58</ele>
        <time>2014-04-13T11:10:44Z</time>
      </trkpt>
      <trkpt lat="43.63255" lon="3.41778">
        <ele>150.58</ele>
        <time>2014-04-13T11:10:45Z</time>
      </trkpt>
      <trkpt lat="43.63259" lon="3.41776">
        <ele>150.1</ele>
        <time>2014-04-13T11:10:46Z</time>
      </trkpt>
      <trkpt lat="43.63263" lon="3.41773">
        <ele>150.1</ele>
        <time>2014-04-13T11:10:47Z</time>
      </trkpt>
      <trkpt lat="43.63266" lon="3.41768">
        <ele>150.1</ele>
        <time>2014-04-13T11:10:48Z</time>
      </trkpt>
      <trkpt lat="43.63269" lon="3.41763">
        <ele>150.1</ele>
        <time>2014-04-13T11:10:49Z</time>
      </trkpt>
      <trkpt lat="43.63274" lon="3.41758">
        <ele>150.1</ele>
        <time>2014-04-13T11:10:50Z</time>
      </trkpt>
      <trkpt lat="43.63279" lon="3.41754">
        <ele>150.1</ele>
        <time>2014-04-13T11:10:51Z</time>
      </trkpt>
      <trkpt lat="43.63286" lon="3.41752">
        <ele>150.1</ele>
        <time>2014-04-13T11:10:52Z</time>
      </trkpt>
      <trkpt lat="43.63293" lon="3.41753">
        <ele>150.1</ele>
        <time>2014-04-13T11:10:53Z</time>
      </trkpt>
      <trkpt lat="43.633" lon="3.41757">
        <ele>150.58</ele>
        <time>2014-04-13T11:10:54Z</time>
      </trkpt>
      <trkpt lat="43.63306" lon="3.41762">
        <ele>150.58</ele>
        <time>2014-04-13T11:10:55Z</time>
      </trkpt>
      <trkpt lat="43.63313" lon="3.41767">
        <ele>150.58</ele>
        <time>2014-04-13T11:10:56Z</time>
      </trkpt>
      <trkpt lat="43.63332" lon="3.41785">
        <ele>151.06</ele>
        <time>2014-04-13T11:10:59Z</time>
      </trkpt>
      <trkpt lat="43.6334" lon="3.4179">
        <ele>151.54</ele>
        <time>2014-04-13T11:11:00Z</time>
      </trkpt>
      <trkpt lat="43.63348" lon="3.41793">
        <ele>151.54</ele>
        <time>2014-04-13T11:11:01Z</time>
      </trkpt>
      <trkpt lat="43.63356" lon="3.41795">
        <ele>152.03</ele>
        <time>2014-04-13T11:11:02Z</time>
      </trkpt>
      <trkpt lat="43.63364" lon="3.41796">
        <ele>152.03</ele>
        <time>2014-04-13T11:11:03Z</time>
      </trkpt>
      <trkpt lat="43.63424" lon="3.41802">
        <ele>153.95</ele>
        <time>2014-04-13T11:11:10Z</time>
      </trkpt>
      <trkpt lat="43.63433" lon="3.41806">
        <ele>154.43</ele>
        <time>2014-04-13T11:11:11Z</time>
      </trkpt>
      <trkpt lat="43.63441" lon="3.41812">
        <ele>154.43</ele>
        <time>2014-04-13T11:11:12Z</time>
      </trkpt>
      <trkpt lat="43.63448" lon="3.41818">
        <ele>154.91</ele>
        <time>2014-04-13T11:11:13Z</time>
      </trkpt>
      <trkpt lat="43.63456" lon="3.41822">
        <ele>155.39</ele>
        <time>2014-04-13T11:11:14Z</time>
      </trkpt>
      <trkpt lat="43.63464" lon="3.41824">
        <ele>155.39</ele>
        <time>2014-04-13T11:11:15Z</time>
      </trkpt>
      <trkpt lat="43.63472" lon="3.41825">
        <ele>155.87</ele>
        <time>2014-04-13T11:11:16Z</time>
      </trkpt>
      <trkpt lat="43.63481" lon="3.41826">
        <ele>156.35</ele>
        <time>2014-04-13T11:11:17Z</time>
      </trkpt>
      <trkpt lat="43.63563" lon="3.41836">
        <ele>158.75</ele>
        <time>2014-04-13T11:11:26Z</time>
      </trkpt>
      <trkpt lat="43.63569" lon="3.41842">
        <ele>158.75</ele>
        <time>2014-04-13T11:11:27Z</time>
      </trkpt>
      <trkpt lat="43.63574" lon="3.41848">
        <ele>158.75</ele>
        <time>2014-04-13T11:11:28Z</time>
      </trkpt>
      <trkpt lat="43.63578" lon="3.41854">
        <ele>158.75</ele>
        <time>2014-04-13T11:11:29Z</time>
      </trkpt>
      <trkpt lat="43.63583" lon="3.41859">
        <ele>158.75</ele>
        <time>2014-04-13T11:11:30Z</time>
      </trkpt>
      <trkpt lat="43.63588" lon="3.41859">
        <ele>159.24</ele>
        <time>2014-04-13T11:11:31Z</time>
      </trkpt>
      <trkpt lat="43.63592" lon="3.41856">
        <ele>159.24</ele>
        <time>2014-04-13T11:11:32Z</time>
      </trkpt>
      <trkpt lat="43.63597" lon="3.41851">
        <ele>159.24</ele>
        <time>2014-04-13T11:11:33Z</time>
      </trkpt>
      <trkpt lat="43.63602" lon="3.41846">
        <ele>159.24</ele>
        <time>2014-04-13T11:11:34Z</time>
      </trkpt>
      <trkpt lat="43.63608" lon="3.41842">
        <ele>159.72</ele>
        <time>2014-04-13T11:11:35Z</time>
      </trkpt>
      <trkpt lat="43.63615" lon="3.41839">
        <ele>160.2</ele>
        <time>2014-04-13T11:11:36Z</time>
      </trkpt>
      <trkpt lat="43.63624" lon="3.41838">
        <ele>160.2</ele>
        <time>2014-04-13T11:11:37Z</time>
      </trkpt>
      <trkpt lat="43.63634" lon="3.41837">
        <ele>160.68</ele>
        <time>2014-04-13T11:11:38Z</time>
      </trkpt>
      <trkpt lat="43.6365" lon="3.41836">
        <ele>161.16</ele>
        <time>2014-04-13T11:11:39Z</time>
      </trkpt>
      <trkpt lat="43.63765" lon="3.41849">
        <ele>165.96</ele>
        <time>2014-04-13T11:11:45Z</time>
      </trkpt>
      <trkpt lat="43.63969" lon="3.41862">
        <ele>179.9</ele>
        <time>2014-04-13T11:11:56Z</time>
      </trkpt>
      <trkpt lat="43.63985" lon="3.41854">
        <ele>181.35</ele>
        <time>2014-04-13T11:11:57Z</time>
      </trkpt>
      <trkpt lat="43.64" lon="3.41838">
        <ele>182.31</ele>
        <time>2014-04-13T11:11:58Z</time>
      </trkpt>
      <trkpt lat="43.64015" lon="3.41822">
        <ele>184.23</ele>
        <time>2014-04-13T11:11:59Z</time>
      </trkpt>
      <trkpt lat="43.64029" lon="3.41806">
        <ele>185.67</ele>
        <time>2014-04-13T11:12:00Z</time>
      </trkpt>
      <trkpt lat="43.64062" lon="3.41765">
        <ele>189.52</ele>
        <time>2014-04-13T11:12:03Z</time>
      </trkpt>
      <trkpt lat="43.64067" lon="3.41748">
        <ele>190.48</ele>
        <time>2014-04-13T11:12:04Z</time>
      </trkpt>
      <trkpt lat="43.64066" lon="3.41728">
        <ele>191.44</ele>
        <time>2014-04-13T11:12:05Z</time>
      </trkpt>
      <trkpt lat="43.64064" lon="3.41705">
        <ele>191.92</ele>
        <time>2014-04-13T11:12:06Z</time>
      </trkpt>
      <trkpt lat="43.64058" lon="3.4168">
        <ele>192.4</ele>
        <time>2014-04-13T11:12:07Z</time>
      </trkpt>
      <trkpt lat="43.64049" lon="3.41655">
        <ele>192.4</ele>
        <time>2014-04-13T11:12:08Z</time>
      </trkpt>
      <trkpt lat="43.6404" lon="3.4163">
        <ele>192.4</ele>
        <time>2014-04-13T11:12:09Z</time>
      </trkpt>
      <trkpt lat="43.64031" lon="3.41606">
        <ele>191.92</ele>
        <time>2014-04-13T11:12:10Z</time>
      </trkpt>
      <trkpt lat="43.64024" lon="3.41581">
        <ele>191.44</ele>
        <time>2014-04-13T11:12:11Z</time>
      </trkpt>
      <trkpt lat="43.64018" lon="3.41556">
        <ele>190.96</ele>
        <time>2014-04-13T11:12:12Z</time>
      </trkpt>
      <trkpt lat="43.64014" lon="3.4153">
        <ele>190.48</ele>
        <time>2014-04-13T11:12:13Z</time>
      </trkpt>
      <trkpt lat="43.64013" lon="3.41505">
        <ele>190.48</ele>
        <time>2014-04-13T11:12:14Z</time>
      </trkpt>
      <trkpt lat="43.64011" lon="3.4148">
        <ele>190</ele>
        <time>2014-04-13T11:12:15Z</time>
      </trkpt>
      <trkpt lat="43.63996" lon="3.4135">
        <ele>188.08</ele>
        <time>2014-04-13T11:12:21Z</time>
      </trkpt>
      <trkpt lat="43.64" lon="3.41339">
        <ele>186.63</ele>
        <time>2014-04-13T11:12:22Z</time>
      </trkpt>
      <trkpt lat="43.6401" lon="3.41331">
        <ele>185.67</ele>
        <time>2014-04-13T11:12:23Z</time>
      </trkpt>
      <trkpt lat="43.64018" lon="3.41321">
        <ele>185.67</ele>
        <time>2014-04-13T11:12:24Z</time>
      </trkpt>
      <trkpt lat="43.64029" lon="3.41311">
        <ele>186.15</ele>
        <time>2014-04-13T11:12:25Z</time>
      </trkpt>
      <trkpt lat="43.64038" lon="3.41298">
        <ele>187.59</ele>
        <time>2014-04-13T11:12:26Z</time>
      </trkpt>
      <trkpt lat="43.64046" lon="3.41282">
        <ele>188.56</ele>
        <time>2014-04-13T11:12:27Z</time>
      </trkpt>
      <trkpt lat="43.64052" lon="3.41265">
        <ele>189.04</ele>
        <time>2014-04-13T11:12:28Z</time>
      </trkpt>
      <trkpt lat="43.64057" lon="3.41252">
        <ele>189.04</ele>
        <time>2014-04-13T11:12:29Z</time>
      </trkpt>
      <trkpt lat="43.64058" lon="3.41243">
        <ele>189.52</ele>
        <time>2014-04-13T11:12:30Z</time>
      </trkpt>
      <trkpt lat="43.64057" lon="3.41235">
        <ele>189.52</ele>
        <time>2014-04-13T11:12:31Z</time>
      </trkpt>
      <trkpt lat="43.64055" lon="3.4123">
        <ele>190</ele>
        <time>2014-04-13T11:12:32Z</time>
      </trkpt>
      <trkpt lat="43.64053" lon="3.41228">
        <ele>190.48</ele>
        <time>2014-04-13T11:12:33Z</time>
      </trkpt>
      <trkpt lat="43.64052" lon="3.41229">
        <ele>190.96</ele>
        <time>2014-04-13T11:12:52Z</time>
      </trkpt>
      <trkpt lat="43.64047" lon="3.41198">
        <ele>191.92</ele>
        <time>2014-04-13T11:12:57Z</time>
      </trkpt>
      <trkpt lat="43.64047" lon="3.41194">
        <ele>192.4</ele>
        <time>2014-04-13T11:13:05Z</time>
      </trkpt>
      <trkpt lat="43.6404" lon="3.41151">
        <ele>192.88</ele>
        <time>2014-04-13T11:13:16Z</time>
      </trkpt>
      <trkpt lat="43.64018" lon="3.4101">
        <ele>197.21</ele>
        <time>2014-04-13T11:13:23Z</time>
      </trkpt>
      <trkpt lat="43.64006" lon="3.40946">
        <ele>199.61</ele>
        <time>2014-04-13T11:13:26Z</time>
      </trkpt>
      <trkpt lat="43.63999" lon="3.40927">
        <ele>200.09</ele>
        <time>2014-04-13T11:13:27Z</time>
      </trkpt>
      <trkpt lat="43.6399" lon="3.40909">
        <ele>200.57</ele>
        <time>2014-04-13T11:13:28Z</time>
      </trkpt>
      <trkpt lat="43.63978" lon="3.40891">
        <ele>201.53</ele>
        <time>2014-04-13T11:13:29Z</time>
      </trkpt>
      <trkpt lat="43.63966" lon="3.40873">
        <ele>202.49</ele>
        <time>2014-04-13T11:13:30Z</time>
      </trkpt>
      <trkpt lat="43.6378" lon="3.40597">
        <ele>212.11</ele>
        <time>2014-04-13T11:13:44Z</time>
      </trkpt>
      <trkpt lat="43.6371" lon="3.40459">
        <ele>214.99</ele>
        <time>2014-04-13T11:13:51Z</time>
      </trkpt>
      <trkpt lat="43.63644" lon="3.40327">
        <ele>217.88</ele>
        <time>2014-04-13T11:13:58Z</time>
      </trkpt>
      <trkpt lat="43.63618" lon="3.40264">
        <ele>216.91</ele>
        <time>2014-04-13T11:14:01Z</time>
      </trkpt>
      <trkpt lat="43.63613" lon="3.40241">
        <ele>217.4</ele>
        <time>2014-04-13T11:14:02Z</time>
      </trkpt>
      <trkpt lat="43.63565" lon="3.40046">
        <ele>211.63</ele>
        <time>2014-04-13T11:14:10Z</time>
      </trkpt>
      <trkpt lat="43.63466" lon="3.39806">
        <ele>202.01</ele>
        <time>2014-04-13T11:14:20Z</time>
      </trkpt>
      <trkpt lat="43.63309" lon="3.39521">
        <ele>205.86</ele>
        <time>2014-04-13T11:14:32Z</time>
      </trkpt>
      <trkpt lat="43.63286" lon="3.39463">
        <ele>207.3</ele>
        <time>2014-04-13T11:14:35Z</time>
      </trkpt>
      <trkpt lat="43.63287" lon="3.3944">
        <ele>209.7</ele>
        <time>2014-04-13T11:14:36Z</time>
      </trkpt>
      <trkpt lat="43.6329" lon="3.39412">
        <ele>211.15</ele>
        <time>2014-04-13T11:14:37Z</time>
      </trkpt>
      <trkpt lat="43.63293" lon="3.39385">
        <ele>213.55</ele>
        <time>2014-04-13T11:14:38Z</time>
      </trkpt>
      <trkpt lat="43.63297" lon="3.39359">
        <ele>214.99</ele>
        <time>2014-04-13T11:14:39Z</time>
      </trkpt>
      <trkpt lat="43.63301" lon="3.39335">
        <ele>215.95</ele>
        <time>2014-04-13T11:14:40Z</time>
      </trkpt>
      <trkpt lat="43.63303" lon="3.39312">
        <ele>216.91</ele>
        <time>2014-04-13T11:14:41Z</time>
      </trkpt>
      <trkpt lat="43.63303" lon="3.39289">
        <ele>217.88</ele>
        <time>2014-04-13T11:14:42Z</time>
      </trkpt>
      <trkpt lat="43.63297" lon="3.39268">
        <ele>218.84</ele>
        <time>2014-04-13T11:14:43Z</time>
      </trkpt>
      <trkpt lat="43.6329" lon="3.39244">
        <ele>219.8</ele>
        <time>2014-04-13T11:14:44Z</time>
      </trkpt>
      <trkpt lat="43.63279" lon="3.39218">
        <ele>221.24</ele>
        <time>2014-04-13T11:14:45Z</time>
      </trkpt>
      <trkpt lat="43.63269" lon="3.39193">
        <ele>223.16</ele>
        <time>2014-04-13T11:14:46Z</time>
      </trkpt>
      <trkpt lat="43.63232" lon="3.39051">
        <ele>231.81</ele>
        <time>2014-04-13T11:14:52Z</time>
      </trkpt>
      <trkpt lat="43.63235" lon="3.39033">
        <ele>232.78</ele>
        <time>2014-04-13T11:14:53Z</time>
      </trkpt>
      <trkpt lat="43.63245" lon="3.39014">
        <ele>234.22</ele>
        <time>2014-04-13T11:14:54Z</time>
      </trkpt>
      <trkpt lat="43.63253" lon="3.38995">
        <ele>235.66</ele>
        <time>2014-04-13T11:14:55Z</time>
      </trkpt>
      <trkpt lat="43.63261" lon="3.38974">
        <ele>236.14</ele>
        <time>2014-04-13T11:14:56Z</time>
      </trkpt>
      <trkpt lat="43.63267" lon="3.38952">
        <ele>237.1</ele>
        <time>2014-04-13T11:14:57Z</time>
      </trkpt>
      <trkpt lat="43.63271" lon="3.38928">
        <ele>237.58</ele>
        <time>2014-04-13T11:14:58Z</time>
      </trkpt>
      <trkpt lat="43.63272" lon="3.38903">
        <ele>238.54</ele>
        <time>2014-04-13T11:14:59Z</time>
      </trkpt>
      <trkpt lat="43.63271" lon="3.38877">
        <ele>239.02</ele>
        <time>2014-04-13T11:15:00Z</time>
      </trkpt>
      <trkpt lat="43.63269" lon="3.38851">
        <ele>239.02</ele>
        <time>2014-04-13T11:15:01Z</time>
      </trkpt>
      <trkpt lat="43.63248" lon="3.38512">
        <ele>228.45</ele>
        <time>2014-04-13T11:15:13Z</time>
      </trkpt>
      <trkpt lat="43.63249" lon="3.38342">
        <ele>221.24</ele>
        <time>2014-04-13T11:15:19Z</time>
      </trkpt>
      <trkpt lat="43.63254" lon="3.38318">
        <ele>219.8</ele>
        <time>2014-04-13T11:15:20Z</time>
      </trkpt>
      <trkpt lat="43.63263" lon="3.38298">
        <ele>218.36</ele>
        <time>2014-04-13T11:15:21Z</time>
      </trkpt>
      <trkpt lat="43.63275" lon="3.3828">
        <ele>216.91</ele>
        <time>2014-04-13T11:15:22Z</time>
      </trkpt>
      <trkpt lat="43.63289" lon="3.38264">
        <ele>215.95</ele>
        <time>2014-04-13T11:15:23Z</time>
      </trkpt>
      <trkpt lat="43.63302" lon="3.38247">
        <ele>215.47</ele>
        <time>2014-04-13T11:15:24Z</time>
      </trkpt>
      <trkpt lat="43.63335" lon="3.38199">
        <ele>212.59</ele>
        <time>2014-04-13T11:15:27Z</time>
      </trkpt>
      <trkpt lat="43.63342" lon="3.38181">
        <ele>212.11</ele>
        <time>2014-04-13T11:15:28Z</time>
      </trkpt>
      <trkpt lat="43.63346" lon="3.38161">
        <ele>211.63</ele>
        <time>2014-04-13T11:15:29Z</time>
      </trkpt>
      <trkpt lat="43.63389" lon="3.37917">
        <ele>206.82</ele>
        <time>2014-04-13T11:15:40Z</time>
      </trkpt>
      <trkpt lat="43.63397" lon="3.37898">
        <ele>206.82</ele>
        <time>2014-04-13T11:15:41Z</time>
      </trkpt>
      <trkpt lat="43.63457" lon="3.37752">
        <ele>207.78</ele>
        <time>2014-04-13T11:15:48Z</time>
      </trkpt>
      <trkpt lat="43.63496" lon="3.37663">
        <ele>210.67</ele>
        <time>2014-04-13T11:15:53Z</time>
      </trkpt>
      <trkpt lat="43.63501" lon="3.37643">
        <ele>211.15</ele>
        <time>2014-04-13T11:15:54Z</time>
      </trkpt>
      <trkpt lat="43.63522" lon="3.37511">
        <ele>215.95</ele>
        <time>2014-04-13T11:16:02Z</time>
      </trkpt>
      <trkpt lat="43.63522" lon="3.37495">
        <ele>216.43</ele>
        <time>2014-04-13T11:16:03Z</time>
      </trkpt>
      <trkpt lat="43.63503" lon="3.37383">
        <ele>220.76</ele>
        <time>2014-04-13T11:16:11Z</time>
      </trkpt>
      <trkpt lat="43.63493" lon="3.37351">
        <ele>221.24</ele>
        <time>2014-04-13T11:16:14Z</time>
      </trkpt>
      <trkpt lat="43.63492" lon="3.37339">
        <ele>221.24</ele>
        <time>2014-04-13T11:16:15Z</time>
      </trkpt>
      <trkpt lat="43.63493" lon="3.37327">
        <ele>221.24</ele>
        <time>2014-04-13T11:16:16Z</time>
      </trkpt>
      <trkpt lat="43.63496" lon="3.37315">
        <ele>221.24</ele>
        <time>2014-04-13T11:16:17Z</time>
      </trkpt>
      <trkpt lat="43.63499" lon="3.37303">
        <ele>221.24</ele>
        <time>2014-04-13T11:16:18Z</time>
      </trkpt>
      <trkpt lat="43.63511" lon="3.37262">
        <ele>221.24</ele>
        <time>2014-04-13T11:16:22Z</time>
      </trkpt>
      <trkpt lat="43.63513" lon="3.37252">
        <ele>221.24</ele>
        <time>2014-04-13T11:16:23Z</time>
      </trkpt>
      <trkpt lat="43.63513" lon="3.37241">
        <ele>221.24</ele>
        <time>2014-04-13T11:16:24Z</time>
      </trkpt>
      <trkpt lat="43.63512" lon="3.37231">
        <ele>221.24</ele>
        <time>2014-04-13T11:16:25Z</time>
      </trkpt>
      <trkpt lat="43.6351" lon="3.37221">
        <ele>221.24</ele>
        <time>2014-04-13T11:16:26Z</time>
      </trkpt>
      <trkpt lat="43.63507" lon="3.37202">
        <ele>221.24</ele>
        <time>2014-04-13T11:16:32Z</time>
      </trkpt>
      <trkpt lat="43.63507" lon="3.37181">
        <ele>219.8</ele>
        <time>2014-04-13T11:16:47Z</time>
      </trkpt>
      <trkpt lat="43.63509" lon="3.3717">
        <ele>220.28</ele>
        <time>2014-04-13T11:16:48Z</time>
      </trkpt>
      <trkpt lat="43.63512" lon="3.37159">
        <ele>220.76</ele>
        <time>2014-04-13T11:16:49Z</time>
      </trkpt>
      <trkpt lat="43.63549" lon="3.37038">
        <ele>228.45</ele>
        <time>2014-04-13T11:16:59Z</time>
      </trkpt>
      <trkpt lat="43.63556" lon="3.37012">
        <ele>229.89</ele>
        <time>2014-04-13T11:17:01Z</time>
      </trkpt>
      <trkpt lat="43.63586" lon="3.36881">
        <ele>225.57</ele>
        <time>2014-04-13T11:17:10Z</time>
      </trkpt>
      <trkpt lat="43.636" lon="3.36771">
        <ele>219.8</ele>
        <time>2014-04-13T11:17:16Z</time>
      </trkpt>
      <trkpt lat="43.63605" lon="3.36752">
        <ele>218.84</ele>
        <time>2014-04-13T11:17:17Z</time>
      </trkpt>
      <trkpt lat="43.63611" lon="3.36735">
        <ele>217.88</ele>
        <time>2014-04-13T11:17:18Z</time>
      </trkpt>
      <trkpt lat="43.63618" lon="3.36718">
        <ele>216.91</ele>
        <time>2014-04-13T11:17:19Z</time>
      </trkpt>
      <trkpt lat="43.63625" lon="3.36703">
        <ele>215.95</ele>
        <time>2014-04-13T11:17:20Z</time>
      </trkpt>
      <trkpt lat="43.63635" lon="3.36689">
        <ele>214.99</ele>
        <time>2014-04-13T11:17:21Z</time>
      </trkpt>
      <trkpt lat="43.63645" lon="3.36678">
        <ele>214.03</ele>
        <time>2014-04-13T11:17:22Z</time>
      </trkpt>
      <trkpt lat="43.63655" lon="3.36667">
        <ele>213.55</ele>
        <time>2014-04-13T11:17:23Z</time>
      </trkpt>
      <trkpt lat="43.63698" lon="3.36615">
        <ele>210.67</ele>
        <time>2014-04-13T11:17:27Z</time>
      </trkpt>
      <trkpt lat="43.63707" lon="3.36598">
        <ele>209.7</ele>
        <time>2014-04-13T11:17:28Z</time>
      </trkpt>
      <trkpt lat="43.63715" lon="3.36578">
        <ele>208.74</ele>
        <time>2014-04-13T11:17:29Z</time>
      </trkpt>
      <trkpt lat="43.63742" lon="3.36493">
        <ele>204.9</ele>
        <time>2014-04-13T11:17:33Z</time>
      </trkpt>
      <trkpt lat="43.63745" lon="3.3647">
        <ele>204.42</ele>
        <time>2014-04-13T11:17:34Z</time>
      </trkpt>
      <trkpt lat="43.63747" lon="3.36446">
        <ele>203.94</ele>
        <time>2014-04-13T11:17:35Z</time>
      </trkpt>
      <trkpt lat="43.6375" lon="3.364">
        <ele>202.98</ele>
        <time>2014-04-13T11:17:37Z</time>
      </trkpt>
      <trkpt lat="43.63754" lon="3.36378">
        <ele>202.49</ele>
        <time>2014-04-13T11:17:38Z</time>
      </trkpt>
      <trkpt lat="43.6376" lon="3.36357">
        <ele>202.01</ele>
        <time>2014-04-13T11:17:39Z</time>
      </trkpt>
      <trkpt lat="43.63769" lon="3.36338">
        <ele>201.53</ele>
        <time>2014-04-13T11:17:40Z</time>
      </trkpt>
      <trkpt lat="43.63779" lon="3.36319">
        <ele>201.05</ele>
        <time>2014-04-13T11:17:41Z</time>
      </trkpt>
      <trkpt lat="43.63789" lon="3.36302">
        <ele>200.57</ele>
        <time>2014-04-13T11:17:42Z</time>
      </trkpt>
      <trkpt lat="43.63854" lon="3.36147">
        <ele>195.77</ele>
        <time>2014-04-13T11:17:50Z</time>
      </trkpt>
      <trkpt lat="43.63921" lon="3.35946">
        <ele>188.08</ele>
        <time>2014-04-13T11:17:59Z</time>
      </trkpt>
      <trkpt lat="43.63925" lon="3.35922">
        <ele>187.59</ele>
        <time>2014-04-13T11:18:00Z</time>
      </trkpt>
      <trkpt lat="43.63934" lon="3.35849">
        <ele>185.19</ele>
        <time>2014-04-13T11:18:03Z</time>
      </trkpt>
      <trkpt lat="43.6394" lon="3.35828">
        <ele>184.23</ele>
        <time>2014-04-13T11:18:04Z</time>
      </trkpt>
      <trkpt lat="43.63947" lon="3.35809">
        <ele>183.75</ele>
        <time>2014-04-13T11:18:05Z</time>
      </trkpt>
      <trkpt lat="43.63957" lon="3.35793">
        <ele>183.27</ele>
        <time>2014-04-13T11:18:06Z</time>
      </trkpt>
      <trkpt lat="43.6397" lon="3.3578">
        <ele>182.31</ele>
        <time>2014-04-13T11:18:07Z</time>
      </trkpt>
      <trkpt lat="43.63985" lon="3.3577">
        <ele>181.35</ele>
        <time>2014-04-13T11:18:08Z</time>
      </trkpt>
      <trkpt lat="43.64001" lon="3.35762">
        <ele>180.38</ele>
        <time>2014-04-13T11:18:09Z</time>
      </trkpt>
      <trkpt lat="43.64016" lon="3.35754">
        <ele>179.42</ele>
        <time>2014-04-13T11:18:10Z</time>
      </trkpt>
      <trkpt lat="43.64029" lon="3.35744">
        <ele>178.94</ele>
        <time>2014-04-13T11:18:11Z</time>
      </trkpt>
      <trkpt lat="43.6404" lon="3.3573">
        <ele>177.98</ele>
        <time>2014-04-13T11:18:12Z</time>
      </trkpt>
      <trkpt lat="43.64048" lon="3.35711">
        <ele>177.02</ele>
        <time>2014-04-13T11:18:13Z</time>
      </trkpt>
      <trkpt lat="43.64054" lon="3.35693">
        <ele>176.06</ele>
        <time>2014-04-13T11:18:14Z</time>
      </trkpt>
      <trkpt lat="43.64062" lon="3.35676">
        <ele>175.58</ele>
        <time>2014-04-13T11:18:15Z</time>
      </trkpt>
      <trkpt lat="43.64072" lon="3.35661">
        <ele>175.1</ele>
        <time>2014-04-13T11:18:16Z</time>
      </trkpt>
      <trkpt lat="43.64085" lon="3.35648">
        <ele>174.14</ele>
        <time>2014-04-13T11:18:17Z</time>
      </trkpt>
      <trkpt lat="43.641" lon="3.35639">
        <ele>173.66</ele>
        <time>2014-04-13T11:18:18Z</time>
      </trkpt>
      <trkpt lat="43.64115" lon="3.35631">
        <ele>173.17</ele>
        <time>2014-04-13T11:18:19Z</time>
      </trkpt>
      <trkpt lat="43.6413" lon="3.35624">
        <ele>172.69</ele>
        <time>2014-04-13T11:18:20Z</time>
      </trkpt>
      <trkpt lat="43.64143" lon="3.35615">
        <ele>172.69</ele>
        <time>2014-04-13T11:18:21Z</time>
      </trkpt>
      <trkpt lat="43.64157" lon="3.35603">
        <ele>172.21</ele>
        <time>2014-04-13T11:18:22Z</time>
      </trkpt>
      <trkpt lat="43.64169" lon="3.35589">
        <ele>171.25</ele>
        <time>2014-04-13T11:18:23Z</time>
      </trkpt>
      <trkpt lat="43.64183" lon="3.35575">
        <ele>170.29</ele>
        <time>2014-04-13T11:18:24Z</time>
      </trkpt>
      <trkpt lat="43.64196" lon="3.35563">
        <ele>169.33</ele>
        <time>2014-04-13T11:18:25Z</time>
      </trkpt>
      <trkpt lat="43.64211" lon="3.35554">
        <ele>168.37</ele>
        <time>2014-04-13T11:18:26Z</time>
      </trkpt>
      <trkpt lat="43.64227" lon="3.35547">
        <ele>167.41</ele>
        <time>2014-04-13T11:18:27Z</time>
      </trkpt>
      <trkpt lat="43.64243" lon="3.35541">
        <ele>166.45</ele>
        <time>2014-04-13T11:18:28Z</time>
      </trkpt>
      <trkpt lat="43.64258" lon="3.35537">
        <ele>165.48</ele>
        <time>2014-04-13T11:18:29Z</time>
      </trkpt>
      <trkpt lat="43.64289" lon="3.35523">
        <ele>163.08</ele>
        <time>2014-04-13T11:18:31Z</time>
      </trkpt>
      <trkpt lat="43.64303" lon="3.35511">
        <ele>161.64</ele>
        <time>2014-04-13T11:18:32Z</time>
      </trkpt>
      <trkpt lat="43.64317" lon="3.35497">
        <ele>161.16</ele>
        <time>2014-04-13T11:18:33Z</time>
      </trkpt>
      <trkpt lat="43.64331" lon="3.35482">
        <ele>160.2</ele>
        <time>2014-04-13T11:18:34Z</time>
      </trkpt>
      <trkpt lat="43.64346" lon="3.35469">
        <ele>159.72</ele>
        <time>2014-04-13T11:18:35Z</time>
      </trkpt>
      <trkpt lat="43.64361" lon="3.35455">
        <ele>159.24</ele>
        <time>2014-04-13T11:18:36Z</time>
      </trkpt>
      <trkpt lat="43.64375" lon="3.35438">
        <ele>158.75</ele>
        <time>2014-04-13T11:18:37Z</time>
      </trkpt>
      <trkpt lat="43.64387" lon="3.3542">
        <ele>158.75</ele>
        <time>2014-04-13T11:18:38Z</time>
      </trkpt>
      <trkpt lat="43.64482" lon="3.35292">
        <ele>154.91</ele>
        <time>2014-04-13T11:18:46Z</time>
      </trkpt>
      <trkpt lat="43.64493" lon="3.35275">
        <ele>153.95</ele>
        <time>2014-04-13T11:18:47Z</time>
      </trkpt>
      <trkpt lat="43.64504" lon="3.35255">
        <ele>153.47</ele>
        <time>2014-04-13T11:18:48Z</time>
      </trkpt>
      <trkpt lat="43.64599" lon="3.35056">
        <ele>148.18</ele>
        <time>2014-04-13T11:18:57Z</time>
      </trkpt>
      <trkpt lat="43.64668" lon="3.34928">
        <ele>145.3</ele>
        <time>2014-04-13T11:19:03Z</time>
      </trkpt>
      <trkpt lat="43.64675" lon="3.34904">
        <ele>145.3</ele>
        <time>2014-04-13T11:19:04Z</time>
      </trkpt>
      <trkpt lat="43.64682" lon="3.34879">
        <ele>145.78</ele>
        <time>2014-04-13T11:19:05Z</time>
      </trkpt>
      <trkpt lat="43.64714" lon="3.34635">
        <ele>147.7</ele>
        <time>2014-04-13T11:19:14Z</time>
      </trkpt>
      <trkpt lat="43.64728" lon="3.34356">
        <ele>151.06</ele>
        <time>2014-04-13T11:19:25Z</time>
      </trkpt>
      <trkpt lat="43.64718" lon="3.34146">
        <ele>155.87</ele>
        <time>2014-04-13T11:19:34Z</time>
      </trkpt>
      <trkpt lat="43.64753" lon="3.33932">
        <ele>154.91</ele>
        <time>2014-04-13T11:19:43Z</time>
      </trkpt>
      <trkpt lat="43.64814" lon="3.33691">
        <ele>147.7</ele>
        <time>2014-04-13T11:19:53Z</time>
      </trkpt>
      <trkpt lat="43.64828" lon="3.33451">
        <ele>144.82</ele>
        <time>2014-04-13T11:20:02Z</time>
      </trkpt>
      <trkpt lat="43.64831" lon="3.33303">
        <ele>143.85</ele>
        <time>2014-04-13T11:20:09Z</time>
      </trkpt>
      <trkpt lat="43.64829" lon="3.33281">
        <ele>143.85</ele>
        <time>2014-04-13T11:20:11Z</time>
      </trkpt>
      <trkpt lat="43.64823" lon="3.33273">
        <ele>143.85</ele>
        <time>2014-04-13T11:20:12Z</time>
      </trkpt>
      <trkpt lat="43.64816" lon="3.33266">
        <ele>143.37</ele>
        <time>2014-04-13T11:20:13Z</time>
      </trkpt>
      <trkpt lat="43.64805" lon="3.33259">
        <ele>143.37</ele>
        <time>2014-04-13T11:20:14Z</time>
      </trkpt>
      <trkpt lat="43.64792" lon="3.3325">
        <ele>143.37</ele>
        <time>2014-04-13T11:20:15Z</time>
      </trkpt>
      <trkpt lat="43.64688" lon="3.33182">
        <ele>144.82</ele>
        <time>2014-04-13T11:20:21Z</time>
      </trkpt>
      <trkpt lat="43.64443" lon="3.33018">
        <ele>147.7</ele>
        <time>2014-04-13T11:20:34Z</time>
      </trkpt>
      <trkpt lat="43.64354" lon="3.32919">
        <ele>147.7</ele>
        <time>2014-04-13T11:20:40Z</time>
      </trkpt>
      <trkpt lat="43.64302" lon="3.3286">
        <ele>148.66</ele>
        <time>2014-04-13T11:20:44Z</time>
      </trkpt>
      <trkpt lat="43.64287" lon="3.32854">
        <ele>148.66</ele>
        <time>2014-04-13T11:20:45Z</time>
      </trkpt>
      <trkpt lat="43.64269" lon="3.3285">
        <ele>148.66</ele>
        <time>2014-04-13T11:20:46Z</time>
      </trkpt>
      <trkpt lat="43.64251" lon="3.32844">
        <ele>148.66</ele>
        <time>2014-04-13T11:20:47Z</time>
      </trkpt>
      <trkpt lat="43.64233" lon="3.32836">
        <ele>149.14</ele>
        <time>2014-04-13T11:20:48Z</time>
      </trkpt>
      <trkpt lat="43.64215" lon="3.32825">
        <ele>149.62</ele>
        <time>2014-04-13T11:20:49Z</time>
      </trkpt>
      <trkpt lat="43.64195" lon="3.32816">
        <ele>149.14</ele>
        <time>2014-04-13T11:20:50Z</time>
      </trkpt>
      <trkpt lat="43.64174" lon="3.32811">
        <ele>149.62</ele>
        <time>2014-04-13T11:20:51Z</time>
      </trkpt>
      <trkpt lat="43.64111" lon="3.32793">
        <ele>149.14</ele>
        <time>2014-04-13T11:20:54Z</time>
      </trkpt>
      <trkpt lat="43.64091" lon="3.32782">
        <ele>149.14</ele>
        <time>2014-04-13T11:20:55Z</time>
      </trkpt>
      <trkpt lat="43.64034" lon="3.32738">
        <ele>149.14</ele>
        <time>2014-04-13T11:20:58Z</time>
      </trkpt>
      <trkpt lat="43.6402" lon="3.32715">
        <ele>148.66</ele>
        <time>2014-04-13T11:20:59Z</time>
      </trkpt>
      <trkpt lat="43.64008" lon="3.32691">
        <ele>149.14</ele>
        <time>2014-04-13T11:21:00Z</time>
      </trkpt>
      <trkpt lat="43.63996" lon="3.32665">
        <ele>149.14</ele>
        <time>2014-04-13T11:21:01Z</time>
      </trkpt>
      <trkpt lat="43.63985" lon="3.32641">
        <ele>149.62</ele>
        <time>2014-04-13T11:21:02Z</time>
      </trkpt>
      <trkpt lat="43.63972" lon="3.32619">
        <ele>149.14</ele>
        <time>2014-04-13T11:21:03Z</time>
      </trkpt>
      <trkpt lat="43.63958" lon="3.326">
        <ele>149.62</ele>
        <time>2014-04-13T11:21:04Z</time>
      </trkpt>
      <trkpt lat="43.63942" lon="3.32584">
        <ele>149.62</ele>
        <time>2014-04-13T11:21:05Z</time>
      </trkpt>
      <trkpt lat="43.63923" lon="3.3257">
        <ele>149.62</ele>
        <time>2014-04-13T11:21:06Z</time>
      </trkpt>
      <trkpt lat="43.63904" lon="3.32558">
        <ele>149.62</ele>
        <time>2014-04-13T11:21:07Z</time>
      </trkpt>
      <trkpt lat="43.63768" lon="3.32464">
        <ele>152.99</ele>
        <time>2014-04-13T11:21:15Z</time>
      </trkpt>
      <trkpt lat="43.63732" lon="3.32446">
        <ele>153.95</ele>
        <time>2014-04-13T11:21:17Z</time>
      </trkpt>
      <trkpt lat="43.63715" lon="3.32433">
        <ele>154.91</ele>
        <time>2014-04-13T11:21:18Z</time>
      </trkpt>
      <trkpt lat="43.63701" lon="3.32416">
        <ele>155.39</ele>
        <time>2014-04-13T11:21:19Z</time>
      </trkpt>
      <trkpt lat="43.63687" lon="3.32395">
        <ele>155.87</ele>
        <time>2014-04-13T11:21:20Z</time>
      </trkpt>
      <trkpt lat="43.63673" lon="3.32373">
        <ele>156.35</ele>
        <time>2014-04-13T11:21:21Z</time>
      </trkpt>
      <trkpt lat="43.63598" lon="3.32287">
        <ele>158.27</ele>
        <time>2014-04-13T11:21:26Z</time>
      </trkpt>
      <trkpt lat="43.63581" lon="3.32277">
        <ele>157.79</ele>
        <time>2014-04-13T11:21:27Z</time>
      </trkpt>
      <trkpt lat="43.63563" lon="3.3227">
        <ele>157.79</ele>
        <time>2014-04-13T11:21:28Z</time>
      </trkpt>
      <trkpt lat="43.63543" lon="3.32267">
        <ele>157.79</ele>
        <time>2014-04-13T11:21:29Z</time>
      </trkpt>
      <trkpt lat="43.63523" lon="3.32266">
        <ele>157.79</ele>
        <time>2014-04-13T11:21:30Z</time>
      </trkpt>
      <trkpt lat="43.63371" lon="3.32258">
        <ele>159.24</ele>
        <time>2014-04-13T11:21:38Z</time>
      </trkpt>
      <trkpt lat="43.63357" lon="3.32252">
        <ele>159.24</ele>
        <time>2014-04-13T11:21:39Z</time>
      </trkpt>
      <trkpt lat="43.63344" lon="3.32242">
        <ele>159.72</ele>
        <time>2014-04-13T11:21:40Z</time>
      </trkpt>
      <trkpt lat="43.63331" lon="3.32229">
        <ele>160.2</ele>
        <time>2014-04-13T11:21:41Z</time>
      </trkpt>
      <trkpt lat="43.63318" lon="3.32213">
        <ele>160.2</ele>
        <time>2014-04-13T11:21:42Z</time>
      </trkpt>
      <trkpt lat="43.63169" lon="3.32036">
        <ele>161.64</ele>
        <time>2014-04-13T11:21:52Z</time>
      </trkpt>
      <trkpt lat="43.63153" lon="3.32022">
        <ele>162.12</ele>
        <time>2014-04-13T11:21:53Z</time>
      </trkpt>
      <trkpt lat="43.63135" lon="3.3201">
        <ele>162.12</ele>
        <time>2014-04-13T11:21:54Z</time>
      </trkpt>
      <trkpt lat="43.62956" lon="3.31908">
        <ele>163.56</ele>
        <time>2014-04-13T11:22:03Z</time>
      </trkpt>
      <trkpt lat="43.62794" lon="3.31838">
        <ele>167.89</ele>
        <time>2014-04-13T11:22:11Z</time>
      </trkpt>
      <trkpt lat="43.62639" lon="3.31803">
        <ele>171.73</ele>
        <time>2014-04-13T11:22:18Z</time>
      </trkpt>
      <trkpt lat="43.62322" lon="3.31705">
        <ele>180.87</ele>
        <time>2014-04-13T11:22:33Z</time>
      </trkpt>
      <trkpt lat="43.62211" lon="3.31668">
        <ele>183.75</ele>
        <time>2014-04-13T11:22:40Z</time>
      </trkpt>
      <trkpt lat="43.62197" lon="3.3166">
        <ele>184.23</ele>
        <time>2014-04-13T11:22:41Z</time>
      </trkpt>
      <trkpt lat="43.62101" lon="3.31581">
        <ele>188.56</ele>
        <time>2014-04-13T11:22:50Z</time>
      </trkpt>
      <trkpt lat="43.62079" lon="3.3156">
        <ele>190.48</ele>
        <time>2014-04-13T11:22:55Z</time>
      </trkpt>
      <trkpt lat="43.62081" lon="3.31557">
        <ele>190</ele>
        <time>2014-04-13T11:22:56Z</time>
      </trkpt>
      <trkpt lat="43.62084" lon="3.31555">
        <ele>189.52</ele>
        <time>2014-04-13T11:22:57Z</time>
      </trkpt>
      <trkpt lat="43.62087" lon="3.31554">
        <ele>190</ele>
        <time>2014-04-13T11:22:58Z</time>
      </trkpt>
      <trkpt lat="43.62091" lon="3.31553">
        <ele>190</ele>
        <time>2014-04-13T11:22:59Z</time>
      </trkpt>
      <trkpt lat="43.6215" lon="3.31544">
        <ele>186.63</ele>
        <time>2014-04-13T11:23:09Z</time>
      </trkpt>
      <trkpt lat="43.62263" lon="3.31554">
        <ele>179.9</ele>
        <time>2014-04-13T11:23:19Z</time>
      </trkpt>
      <trkpt lat="43.62413" lon="3.31581">
        <ele>175.1</ele>
        <time>2014-04-13T11:23:30Z</time>
      </trkpt>
      <trkpt lat="43.6248" lon="3.31584">
        <ele>172.21</ele>
        <time>2014-04-13T11:23:35Z</time>
      </trkpt>
      <trkpt lat="43.62496" lon="3.31579">
        <ele>171.73</ele>
        <time>2014-04-13T11:23:36Z</time>
      </trkpt>
      <trkpt lat="43.62513" lon="3.31573">
        <ele>171.25</ele>
        <time>2014-04-13T11:23:37Z</time>
      </trkpt>
      <trkpt lat="43.62531" lon="3.31565">
        <ele>170.77</ele>
        <time>2014-04-13T11:23:38Z</time>
      </trkpt>
      <trkpt lat="43.62549" lon="3.31556">
        <ele>170.77</ele>
        <time>2014-04-13T11:23:39Z</time>
      </trkpt>
      <trkpt lat="43.62837" lon="3.31403">
        <ele>167.41</ele>
        <time>2014-04-13T11:23:55Z</time>
      </trkpt>
      <trkpt lat="43.62991" lon="3.31318">
        <ele>159.24</ele>
        <time>2014-04-13T11:24:03Z</time>
      </trkpt>
      <trkpt lat="43.63007" lon="3.31305">
        <ele>157.79</ele>
        <time>2014-04-13T11:24:04Z</time>
      </trkpt>
      <trkpt lat="43.63019" lon="3.31292">
        <ele>156.35</ele>
        <time>2014-04-13T11:24:05Z</time>
      </trkpt>
      <trkpt lat="43.6303" lon="3.31279">
        <ele>155.39</ele>
        <time>2014-04-13T11:24:06Z</time>
      </trkpt>
      <trkpt lat="43.63039" lon="3.31267">
        <ele>154.43</ele>
        <time>2014-04-13T11:24:07Z</time>
      </trkpt>
      <trkpt lat="43.63128" lon="3.31171">
        <ele>151.54</ele>
        <time>2014-04-13T11:24:15Z</time>
      </trkpt>
      <trkpt lat="43.63141" lon="3.31163">
        <ele>151.54</ele>
        <time>2014-04-13T11:24:16Z</time>
      </trkpt>
      <trkpt lat="43.63156" lon="3.31159">
        <ele>151.06</ele>
        <time>2014-04-13T11:24:17Z</time>
      </trkpt>
      <trkpt lat="43.63173" lon="3.31157">
        <ele>150.58</ele>
        <time>2014-04-13T11:24:18Z</time>
      </trkpt>
      <trkpt lat="43.63329" lon="3.3114">
        <ele>150.58</ele>
        <time>2014-04-13T11:24:26Z</time>
      </trkpt>
      <trkpt lat="43.6341" lon="3.31119">
        <ele>150.1</ele>
        <time>2014-04-13T11:24:30Z</time>
      </trkpt>
      <trkpt lat="43.6361" lon="3.31001">
        <ele>153.95</ele>
        <time>2014-04-13T11:24:40Z</time>
      </trkpt>
      <trkpt lat="43.638" lon="3.30845">
        <ele>159.24</ele>
        <time>2014-04-13T11:24:50Z</time>
      </trkpt>
      <trkpt lat="43.63893" lon="3.30772">
        <ele>162.12</ele>
        <time>2014-04-13T11:24:57Z</time>
      </trkpt>
      <trkpt lat="43.63904" lon="3.30771">
        <ele>162.12</ele>
        <time>2014-04-13T11:24:58Z</time>
      </trkpt>
      <trkpt lat="43.63916" lon="3.30776">
        <ele>162.6</ele>
        <time>2014-04-13T11:24:59Z</time>
      </trkpt>
      <trkpt lat="43.63927" lon="3.30783">
        <ele>163.08</ele>
        <time>2014-04-13T11:25:00Z</time>
      </trkpt>
      <trkpt lat="43.6394" lon="3.30791">
        <ele>163.56</ele>
        <time>2014-04-13T11:25:01Z</time>
      </trkpt>
      <trkpt lat="43.63956" lon="3.30797">
        <ele>164.52</ele>
        <time>2014-04-13T11:25:02Z</time>
      </trkpt>
      <trkpt lat="43.63974" lon="3.30802">
        <ele>165.48</ele>
        <time>2014-04-13T11:25:03Z</time>
      </trkpt>
      <trkpt lat="43.63992" lon="3.30807">
        <ele>166.45</ele>
        <time>2014-04-13T11:25:04Z</time>
      </trkpt>
      <trkpt lat="43.64176" lon="3.30841">
        <ele>178.94</ele>
        <time>2014-04-13T11:25:14Z</time>
      </trkpt>
      <trkpt lat="43.6419" lon="3.30836">
        <ele>179.42</ele>
        <time>2014-04-13T11:25:15Z</time>
      </trkpt>
      <trkpt lat="43.64201" lon="3.30825">
        <ele>179.9</ele>
        <time>2014-04-13T11:25:16Z</time>
      </trkpt>
      <trkpt lat="43.64209" lon="3.30809">
        <ele>179.9</ele>
        <time>2014-04-13T11:25:17Z</time>
      </trkpt>
      <trkpt lat="43.64212" lon="3.30787">
        <ele>179.42</ele>
        <time>2014-04-13T11:25:18Z</time>
      </trkpt>
      <trkpt lat="43.64217" lon="3.30763">
        <ele>178.46</ele>
        <time>2014-04-13T11:25:19Z</time>
      </trkpt>
      <trkpt lat="43.64223" lon="3.30736">
        <ele>177.02</ele>
        <time>2014-04-13T11:25:20Z</time>
      </trkpt>
      <trkpt lat="43.64232" lon="3.30709">
        <ele>175.58</ele>
        <time>2014-04-13T11:25:21Z</time>
      </trkpt>
      <trkpt lat="43.64244" lon="3.30683">
        <ele>174.14</ele>
        <time>2014-04-13T11:25:22Z</time>
      </trkpt>
      <trkpt lat="43.64257" lon="3.30658">
        <ele>173.66</ele>
        <time>2014-04-13T11:25:23Z</time>
      </trkpt>
      <trkpt lat="43.64306" lon="3.30566">
        <ele>170.29</ele>
        <time>2014-04-13T11:25:28Z</time>
      </trkpt>
      <trkpt lat="43.64362" lon="3.3046">
        <ele>168.85</ele>
        <time>2014-04-13T11:25:37Z</time>
      </trkpt>
      <trkpt lat="43.64371" lon="3.3045">
        <ele>168.85</ele>
        <time>2014-04-13T11:25:38Z</time>
      </trkpt>
      <trkpt lat="43.64382" lon="3.30442">
        <ele>168.85</ele>
        <time>2014-04-13T11:25:39Z</time>
      </trkpt>
      <trkpt lat="43.64393" lon="3.30436">
        <ele>168.85</ele>
        <time>2014-04-13T11:25:40Z</time>
      </trkpt>
      <trkpt lat="43.64405" lon="3.30431">
        <ele>168.85</ele>
        <time>2014-04-13T11:25:41Z</time>
      </trkpt>
      <trkpt lat="43.64419" lon="3.30427">
        <ele>168.85</ele>
        <time>2014-04-13T11:25:42Z</time>
      </trkpt>
      <trkpt lat="43.64518" lon="3.30401">
        <ele>167.89</ele>
        <time>2014-04-13T11:25:47Z</time>
      </trkpt>
      <trkpt lat="43.6473" lon="3.30349">
        <ele>170.77</ele>
        <time>2014-04-13T11:25:58Z</time>
      </trkpt>
      <trkpt lat="43.64764" lon="3.30339">
        <ele>171.73</ele>
        <time>2014-04-13T11:26:00Z</time>
      </trkpt>
      <trkpt lat="43.64782" lon="3.30338">
        <ele>172.21</ele>
        <time>2014-04-13T11:26:01Z</time>
      </trkpt>
      <trkpt lat="43.648" lon="3.30339">
        <ele>173.17</ele>
        <time>2014-04-13T11:26:02Z</time>
      </trkpt>
      <trkpt lat="43.64961" lon="3.30333">
        <ele>177.5</ele>
        <time>2014-04-13T11:26:11Z</time>
      </trkpt>
      <trkpt lat="43.64978" lon="3.30326">
        <ele>177.98</ele>
        <time>2014-04-13T11:26:12Z</time>
      </trkpt>
      <trkpt lat="43.65085" lon="3.30294">
        <ele>181.83</ele>
        <time>2014-04-13T11:26:19Z</time>
      </trkpt>
      <trkpt lat="43.65097" lon="3.30296">
        <ele>182.31</ele>
        <time>2014-04-13T11:26:20Z</time>
      </trkpt>
      <trkpt lat="43.65108" lon="3.30302">
        <ele>182.79</ele>
        <time>2014-04-13T11:26:21Z</time>
      </trkpt>
      <trkpt lat="43.65117" lon="3.3031">
        <ele>182.79</ele>
        <time>2014-04-13T11:26:22Z</time>
      </trkpt>
      <trkpt lat="43.65124" lon="3.30318">
        <ele>183.27</ele>
        <time>2014-04-13T11:26:23Z</time>
      </trkpt>
      <trkpt lat="43.65129" lon="3.30326">
        <ele>183.27</ele>
        <time>2014-04-13T11:26:24Z</time>
      </trkpt>
      <trkpt lat="43.65131" lon="3.30333">
        <ele>183.27</ele>
        <time>2014-04-13T11:26:25Z</time>
      </trkpt>
      <trkpt lat="43.65132" lon="3.3034">
        <ele>183.75</ele>
        <time>2014-04-13T11:26:26Z</time>
      </trkpt>
      <trkpt lat="43.65131" lon="3.30349">
        <ele>183.27</ele>
        <time>2014-04-13T11:26:27Z</time>
      </trkpt>
      <trkpt lat="43.65128" lon="3.3036">
        <ele>183.27</ele>
        <time>2014-04-13T11:26:28Z</time>
      </trkpt>
      <trkpt lat="43.65124" lon="3.30373">
        <ele>182.79</ele>
        <time>2014-04-13T11:26:29Z</time>
      </trkpt>
      <trkpt lat="43.65108" lon="3.30424">
        <ele>180.87</ele>
        <time>2014-04-13T11:26:33Z</time>
      </trkpt>
      <trkpt lat="43.65108" lon="3.30436">
        <ele>180.87</ele>
        <time>2014-04-13T11:26:34Z</time>
      </trkpt>
      <trkpt lat="43.6511" lon="3.30448">
        <ele>180.87</ele>
        <time>2014-04-13T11:26:35Z</time>
      </trkpt>
      <trkpt lat="43.6514" lon="3.30567">
        <ele>181.35</ele>
        <time>2014-04-13T11:26:47Z</time>
      </trkpt>
      <trkpt lat="43.6515" lon="3.30583">
        <ele>182.79</ele>
        <time>2014-04-13T11:26:54Z</time>
      </trkpt>
      <trkpt lat="43.65153" lon="3.30582">
        <ele>182.79</ele>
        <time>2014-04-13T11:26:55Z</time>
      </trkpt>
      <trkpt lat="43.65158" lon="3.3058">
        <ele>183.27</ele>
        <time>2014-04-13T11:26:56Z</time>
      </trkpt>
      <trkpt lat="43.65165" lon="3.30572">
        <ele>184.23</ele>
        <time>2014-04-13T11:26:57Z</time>
      </trkpt>
      <trkpt lat="43.65175" lon="3.30567">
        <ele>184.23</ele>
        <time>2014-04-13T11:26:58Z</time>
      </trkpt>
      <trkpt lat="43.65201" lon="3.30555">
        <ele>184.23</ele>
        <time>2014-04-13T11:27:01Z</time>
      </trkpt>
      <trkpt lat="43.65208" lon="3.30555">
        <ele>183.75</ele>
        <time>2014-04-13T11:27:02Z</time>
      </trkpt>
      <trkpt lat="43.65213" lon="3.3056">
        <ele>183.27</ele>
        <time>2014-04-13T11:27:03Z</time>
      </trkpt>
      <trkpt lat="43.65216" lon="3.30567">
        <ele>182.79</ele>
        <time>2014-04-13T11:27:04Z</time>
      </trkpt>
      <trkpt lat="43.65215" lon="3.30578">
        <ele>182.31</ele>
        <time>2014-04-13T11:27:05Z</time>
      </trkpt>
      <trkpt lat="43.65213" lon="3.30592">
        <ele>182.31</ele>
        <time>2014-04-13T11:27:06Z</time>
      </trkpt>
      <trkpt lat="43.6521" lon="3.30608">
        <ele>182.31</ele>
        <time>2014-04-13T11:27:07Z</time>
      </trkpt>
      <trkpt lat="43.65205" lon="3.30627">
        <ele>181.83</ele>
        <time>2014-04-13T11:27:08Z</time>
      </trkpt>
      <trkpt lat="43.65199" lon="3.30648">
        <ele>181.35</ele>
        <time>2014-04-13T11:27:09Z</time>
      </trkpt>
      <trkpt lat="43.6519" lon="3.3067">
        <ele>179.9</ele>
        <time>2014-04-13T11:27:10Z</time>
      </trkpt>
      <trkpt lat="43.65178" lon="3.30695">
        <ele>178.46</ele>
        <time>2014-04-13T11:27:11Z</time>
      </trkpt>
      <trkpt lat="43.65167" lon="3.30719">
        <ele>177.5</ele>
        <time>2014-04-13T11:27:12Z</time>
      </trkpt>
      <trkpt lat="43.65109" lon="3.30846">
        <ele>172.69</ele>
        <time>2014-04-13T11:27:17Z</time>
      </trkpt>
      <trkpt lat="43.65102" lon="3.30874">
        <ele>172.21</ele>
        <time>2014-04-13T11:27:18Z</time>
      </trkpt>
      <trkpt lat="43.65096" lon="3.30904">
        <ele>171.73</ele>
        <time>2014-04-13T11:27:19Z</time>
      </trkpt>
      <trkpt lat="43.65052" lon="3.31108">
        <ele>165.96</ele>
        <time>2014-04-13T11:27:26Z</time>
      </trkpt>
      <trkpt lat="43.6503" lon="3.3119">
        <ele>164.52</ele>
        <time>2014-04-13T11:27:29Z</time>
      </trkpt>
      <trkpt lat="43.65014" lon="3.31352">
        <ele>162.6</ele>
        <time>2014-04-13T11:27:35Z</time>
      </trkpt>
      <trkpt lat="43.65016" lon="3.31377">
        <ele>162.6</ele>
        <time>2014-04-13T11:27:36Z</time>
      </trkpt>
      <trkpt lat="43.65021" lon="3.31402">
        <ele>161.64</ele>
        <time>2014-04-13T11:27:37Z</time>
      </trkpt>
      <trkpt lat="43.65028" lon="3.31426">
        <ele>161.16</ele>
        <time>2014-04-13T11:27:38Z</time>
      </trkpt>
      <trkpt lat="43.65041" lon="3.31447">
        <ele>160.2</ele>
        <time>2014-04-13T11:27:39Z</time>
      </trkpt>
      <trkpt lat="43.65056" lon="3.31468">
        <ele>159.72</ele>
        <time>2014-04-13T11:27:40Z</time>
      </trkpt>
      <trkpt lat="43.65071" lon="3.3149">
        <ele>159.72</ele>
        <time>2014-04-13T11:27:41Z</time>
      </trkpt>
      <trkpt lat="43.6513" lon="3.31616">
        <ele>157.31</ele>
        <time>2014-04-13T11:27:47Z</time>
      </trkpt>
      <trkpt lat="43.65141" lon="3.31634">
        <ele>156.83</ele>
        <time>2014-04-13T11:27:48Z</time>
      </trkpt>
      <trkpt lat="43.65155" lon="3.31651">
        <ele>155.87</ele>
        <time>2014-04-13T11:27:49Z</time>
      </trkpt>
      <trkpt lat="43.65171" lon="3.31669">
        <ele>155.39</ele>
        <time>2014-04-13T11:27:50Z</time>
      </trkpt>
      <trkpt lat="43.6519" lon="3.31687">
        <ele>154.43</ele>
        <time>2014-04-13T11:27:51Z</time>
      </trkpt>
      <trkpt lat="43.65318" lon="3.31801">
        <ele>152.51</ele>
        <time>2014-04-13T11:27:56Z</time>
      </trkpt>
      <trkpt lat="43.65417" lon="3.31896">
        <ele>152.03</ele>
        <time>2014-04-13T11:28:01Z</time>
      </trkpt>
      <trkpt lat="43.65432" lon="3.31914">
        <ele>152.03</ele>
        <time>2014-04-13T11:28:02Z</time>
      </trkpt>
      <trkpt lat="43.65445" lon="3.31934">
        <ele>152.03</ele>
        <time>2014-04-13T11:28:03Z</time>
      </trkpt>
      <trkpt lat="43.65456" lon="3.31956">
        <ele>152.03</ele>
        <time>2014-04-13T11:28:04Z</time>
      </trkpt>
      <trkpt lat="43.65466" lon="3.31979">
        <ele>152.51</ele>
        <time>2014-04-13T11:28:05Z</time>
      </trkpt>
      <trkpt lat="43.65473" lon="3.32005">
        <ele>152.51</ele>
        <time>2014-04-13T11:28:06Z</time>
      </trkpt>
      <trkpt lat="43.65477" lon="3.32036">
        <ele>152.51</ele>
        <time>2014-04-13T11:28:07Z</time>
      </trkpt>
      <trkpt lat="43.65479" lon="3.32072">
        <ele>152.99</ele>
        <time>2014-04-13T11:28:08Z</time>
      </trkpt>
      <trkpt lat="43.6548" lon="3.32111">
        <ele>153.47</ele>
        <time>2014-04-13T11:28:09Z</time>
      </trkpt>
      <trkpt lat="43.6548" lon="3.3215">
        <ele>153.47</ele>
        <time>2014-04-13T11:28:10Z</time>
      </trkpt>
      <trkpt lat="43.65484" lon="3.32399">
        <ele>154.91</ele>
        <time>2014-04-13T11:28:17Z</time>
      </trkpt>
      <trkpt lat="43.65484" lon="3.32709">
        <ele>155.87</ele>
        <time>2014-04-13T11:28:26Z</time>
      </trkpt>
      <trkpt lat="43.65482" lon="3.328">
        <ele>156.83</ele>
        <time>2014-04-13T11:28:29Z</time>
      </trkpt>
      <trkpt lat="43.65485" lon="3.32829">
        <ele>157.31</ele>
        <time>2014-04-13T11:28:30Z</time>
      </trkpt>
      <trkpt lat="43.65491" lon="3.32857">
        <ele>157.79</ele>
        <time>2014-04-13T11:28:31Z</time>
      </trkpt>
      <trkpt lat="43.655" lon="3.32885">
        <ele>157.79</ele>
        <time>2014-04-13T11:28:32Z</time>
      </trkpt>
      <trkpt lat="43.6551" lon="3.32911">
        <ele>158.27</ele>
        <time>2014-04-13T11:28:33Z</time>
      </trkpt>
      <trkpt lat="43.6552" lon="3.32936">
        <ele>158.75</ele>
        <time>2014-04-13T11:28:34Z</time>
      </trkpt>
      <trkpt lat="43.65591" lon="3.33084">
        <ele>161.64</ele>
        <time>2014-04-13T11:28:41Z</time>
      </trkpt>
      <trkpt lat="43.65695" lon="3.33188">
        <ele>165.96</ele>
        <time>2014-04-13T11:28:48Z</time>
      </trkpt>
      <trkpt lat="43.65801" lon="3.33305">
        <ele>168.37</ele>
        <time>2014-04-13T11:28:55Z</time>
      </trkpt>
      <trkpt lat="43.65818" lon="3.33318">
        <ele>168.85</ele>
        <time>2014-04-13T11:28:56Z</time>
      </trkpt>
      <trkpt lat="43.65836" lon="3.33329">
        <ele>169.33</ele>
        <time>2014-04-13T11:28:57Z</time>
      </trkpt>
      <trkpt lat="43.66016" lon="3.33424">
        <ele>170.29</ele>
        <time>2014-04-13T11:29:07Z</time>
      </trkpt>
      <trkpt lat="43.662" lon="3.33523">
        <ele>171.73</ele>
        <time>2014-04-13T11:29:19Z</time>
      </trkpt>
      <trkpt lat="43.66304" lon="3.33549">
        <ele>172.69</ele>
        <time>2014-04-13T11:29:26Z</time>
      </trkpt>
      <trkpt lat="43.6641" lon="3.33543">
        <ele>173.66</ele>
        <time>2014-04-13T11:29:34Z</time>
      </trkpt>
      <trkpt lat="43.66484" lon="3.33533">
        <ele>175.1</ele>
        <time>2014-04-13T11:29:43Z</time>
      </trkpt>
      <trkpt lat="43.66488" lon="3.33536">
        <ele>175.1</ele>
        <time>2014-04-13T11:29:44Z</time>
      </trkpt>
      <trkpt lat="43.66492" lon="3.3354">
        <ele>175.1</ele>
        <time>2014-04-13T11:29:45Z</time>
      </trkpt>
      <trkpt lat="43.66498" lon="3.3355">
        <ele>174.14</ele>
        <time>2014-04-13T11:29:47Z</time>
      </trkpt>
      <trkpt lat="43.66502" lon="3.33553">
        <ele>173.66</ele>
        <time>2014-04-13T11:29:48Z</time>
      </trkpt>
      <trkpt lat="43.66515" lon="3.3357">
        <ele>171.73</ele>
        <time>2014-04-13T11:29:54Z</time>
      </trkpt>
      <trkpt lat="43.66515" lon="3.33576">
        <ele>171.73</ele>
        <time>2014-04-13T11:29:55Z</time>
      </trkpt>
      <trkpt lat="43.66513" lon="3.33581">
        <ele>170.77</ele>
        <time>2014-04-13T11:29:56Z</time>
      </trkpt>
      <trkpt lat="43.66508" lon="3.33584">
        <ele>170.29</ele>
        <time>2014-04-13T11:29:57Z</time>
      </trkpt>
      <trkpt lat="43.66501" lon="3.33586">
        <ele>169.81</ele>
        <time>2014-04-13T11:29:58Z</time>
      </trkpt>
      <trkpt lat="43.66494" lon="3.33586">
        <ele>168.85</ele>
        <time>2014-04-13T11:29:59Z</time>
      </trkpt>
      <trkpt lat="43.66487" lon="3.33584">
        <ele>168.37</ele>
        <time>2014-04-13T11:30:00Z</time>
      </trkpt>
      <trkpt lat="43.66481" lon="3.33583">
        <ele>167.89</ele>
        <time>2014-04-13T11:30:01Z</time>
      </trkpt>
      <trkpt lat="43.66474" lon="3.33583">
        <ele>167.41</ele>
        <time>2014-04-13T11:30:02Z</time>
      </trkpt>
      <trkpt lat="43.66468" lon="3.33583">
        <ele>166.93</ele>
        <time>2014-04-13T11:30:03Z</time>
      </trkpt>
      <trkpt lat="43.66462" lon="3.33585">
        <ele>166.45</ele>
        <time>2014-04-13T11:30:04Z</time>
      </trkpt>
      <trkpt lat="43.66401" lon="3.33603">
        <ele>161.16</ele>
        <time>2014-04-13T11:30:15Z</time>
      </trkpt>
      <trkpt lat="43.66395" lon="3.33607">
        <ele>160.68</ele>
        <time>2014-04-13T11:30:16Z</time>
      </trkpt>
      <trkpt lat="43.6639" lon="3.33614">
        <ele>159.72</ele>
        <time>2014-04-13T11:30:17Z</time>
      </trkpt>
      <trkpt lat="43.66386" lon="3.33622">
        <ele>158.75</ele>
        <time>2014-04-13T11:30:18Z</time>
      </trkpt>
      <trkpt lat="43.66383" lon="3.33632">
        <ele>157.79</ele>
        <time>2014-04-13T11:30:19Z</time>
      </trkpt>
      <trkpt lat="43.66382" lon="3.33643">
        <ele>156.83</ele>
        <time>2014-04-13T11:30:20Z</time>
      </trkpt>
      <trkpt lat="43.66381" lon="3.33655">
        <ele>155.87</ele>
        <time>2014-04-13T11:30:21Z</time>
      </trkpt>
      <trkpt lat="43.66381" lon="3.33667">
        <ele>154.91</ele>
        <time>2014-04-13T11:30:22Z</time>
      </trkpt>
      <trkpt lat="43.66382" lon="3.33679">
        <ele>153.95</ele>
        <time>2014-04-13T11:30:23Z</time>
      </trkpt>
      <trkpt lat="43.66383" lon="3.33691">
        <ele>152.99</ele>
        <time>2014-04-13T11:30:24Z</time>
      </trkpt>
      <trkpt lat="43.66384" lon="3.33715">
        <ele>151.54</ele>
        <time>2014-04-13T11:30:26Z</time>
      </trkpt>
      <trkpt lat="43.66382" lon="3.33726">
        <ele>150.58</ele>
        <time>2014-04-13T11:30:27Z</time>
      </trkpt>
      <trkpt lat="43.66379" lon="3.33736">
        <ele>150.1</ele>
        <time>2014-04-13T11:30:28Z</time>
      </trkpt>
      <trkpt lat="43.66364" lon="3.3378">
        <ele>146.26</ele>
        <time>2014-04-13T11:30:33Z</time>
      </trkpt>
      <trkpt lat="43.66362" lon="3.3379">
        <ele>145.78</ele>
        <time>2014-04-13T11:30:34Z</time>
      </trkpt>
      <trkpt lat="43.66361" lon="3.338">
        <ele>144.82</ele>
        <time>2014-04-13T11:30:35Z</time>
      </trkpt>
      <trkpt lat="43.66358" lon="3.33821">
        <ele>143.85</ele>
        <time>2014-04-13T11:30:37Z</time>
      </trkpt>
      <trkpt lat="43.66353" lon="3.33828">
        <ele>143.37</ele>
        <time>2014-04-13T11:30:38Z</time>
      </trkpt>
      <trkpt lat="43.66346" lon="3.33832">
        <ele>142.89</ele>
        <time>2014-04-13T11:30:39Z</time>
      </trkpt>
      <trkpt lat="43.66331" lon="3.3384">
        <ele>142.41</ele>
        <time>2014-04-13T11:30:41Z</time>
      </trkpt>
      <trkpt lat="43.66324" lon="3.33848">
        <ele>141.93</ele>
        <time>2014-04-13T11:30:42Z</time>
      </trkpt>
      <trkpt lat="43.66318" lon="3.33858">
        <ele>141.93</ele>
        <time>2014-04-13T11:30:43Z</time>
      </trkpt>
      <trkpt lat="43.6631" lon="3.33866">
        <ele>141.93</ele>
        <time>2014-04-13T11:30:44Z</time>
      </trkpt>
      <trkpt lat="43.66303" lon="3.33871">
        <ele>141.93</ele>
        <time>2014-04-13T11:30:45Z</time>
      </trkpt>
      <trkpt lat="43.66296" lon="3.33875">
        <ele>141.93</ele>
        <time>2014-04-13T11:30:46Z</time>
      </trkpt>
      <trkpt lat="43.66291" lon="3.33878">
        <ele>142.41</ele>
        <time>2014-04-13T11:30:47Z</time>
      </trkpt>
      <trkpt lat="43.66287" lon="3.33881">
        <ele>142.41</ele>
        <time>2014-04-13T11:30:48Z</time>
      </trkpt>
      <trkpt lat="43.66285" lon="3.33885">
        <ele>142.89</ele>
        <time>2014-04-13T11:30:49Z</time>
      </trkpt>
      <trkpt lat="43.66282" lon="3.33889">
        <ele>142.89</ele>
        <time>2014-04-13T11:30:50Z</time>
      </trkpt>
      <trkpt lat="43.66281" lon="3.33894">
        <ele>142.89</ele>
        <time>2014-04-13T11:30:51Z</time>
      </trkpt>
      <trkpt lat="43.66279" lon="3.33899">
        <ele>142.89</ele>
        <time>2014-04-13T11:30:52Z</time>
      </trkpt>
      <trkpt lat="43.66278" lon="3.33905">
        <ele>142.89</ele>
        <time>2014-04-13T11:30:53Z</time>
      </trkpt>
      <trkpt lat="43.66265" lon="3.33953">
        <ele>141.45</ele>
        <time>2014-04-13T11:31:01Z</time>
      </trkpt>
      <trkpt lat="43.66262" lon="3.33959">
        <ele>140.97</ele>
        <time>2014-04-13T11:31:02Z</time>
      </trkpt>
      <trkpt lat="43.66257" lon="3.33963">
        <ele>140.97</ele>
        <time>2014-04-13T11:31:03Z</time>
      </trkpt>
      <trkpt lat="43.66251" lon="3.33965">
        <ele>140.49</ele>
        <time>2014-04-13T11:31:04Z</time>
      </trkpt>
      <trkpt lat="43.66246" lon="3.33964">
        <ele>140.49</ele>
        <time>2014-04-13T11:31:05Z</time>
      </trkpt>
      <trkpt lat="43.66241" lon="3.33962">
        <ele>140.49</ele>
        <time>2014-04-13T11:31:06Z</time>
      </trkpt>
      <trkpt lat="43.66237" lon="3.3396">
        <ele>140.01</ele>
        <time>2014-04-13T11:31:07Z</time>
      </trkpt>
      <trkpt lat="43.66205" lon="3.33944">
        <ele>139.53</ele>
        <time>2014-04-13T11:31:19Z</time>
      </trkpt>
      <trkpt lat="43.66185" lon="3.33961">
        <ele>139.53</ele>
        <time>2014-04-13T11:31:35Z</time>
      </trkpt>
      <trkpt lat="43.66147" lon="3.34007">
        <ele>140.97</ele>
        <time>2014-04-13T11:31:47Z</time>
      </trkpt>
      <trkpt lat="43.6614" lon="3.34026">
        <ele>140.97</ele>
        <time>2014-04-13T11:31:58Z</time>
      </trkpt>
      <trkpt lat="43.66142" lon="3.34027">
        <ele>140.49</ele>
        <time>2014-04-13T11:32:01Z</time>
      </trkpt>
      <trkpt lat="43.66143" lon="3.34027">
        <ele>140.49</ele>
        <time>2014-04-13T11:32:02Z</time>
      </trkpt>
      <trkpt lat="43.66145" lon="3.34027">
        <ele>140.97</ele>
        <time>2014-04-13T11:32:03Z</time>
      </trkpt>
      <trkpt lat="43.66148" lon="3.34028">
        <ele>142.89</ele>
        <time>2014-04-13T11:32:20Z</time>
      </trkpt>
      <trkpt lat="43.66148" lon="3.34026">
        <ele>142.89</ele>
        <time>2014-04-13T11:33:01Z</time>
      </trkpt>
      <trkpt lat="43.66149" lon="3.34024">
        <ele>140.01</ele>
        <time>2014-04-13T12:42:24Z</time>
      </trkpt>
      <trkpt lat="43.66147" lon="3.34026">
        <ele>140.01</ele>
        <time>2014-04-13T12:42:49Z</time>
      </trkpt>
      <trkpt lat="43.66146" lon="3.34026">
        <ele>140.49</ele>
        <time>2014-04-13T12:43:37Z</time>
      </trkpt>
      <trkpt lat="43.66146" lon="3.34026">
        <ele>140.01</ele>
        <time>2014-04-13T12:44:00Z</time>
      </trkpt>
      <trkpt lat="43.66148" lon="3.34024">
        <ele>139.05</ele>
        <time>2014-04-13T12:44:21Z</time>
      </trkpt>
      <trkpt lat="43.66145" lon="3.34021">
        <ele>140.01</ele>
        <time>2014-04-13T12:44:41Z</time>
      </trkpt>
      <trkpt lat="43.66142" lon="3.3402">
        <ele>140.01</ele>
        <time>2014-04-13T12:44:48Z</time>
      </trkpt>
      <trkpt lat="43.66158" lon="3.33998">
        <ele>139.53</ele>
        <time>2014-04-13T12:45:00Z</time>
      </trkpt>
      <trkpt lat="43.66181" lon="3.33966">
        <ele>138.57</ele>
        <time>2014-04-13T12:45:12Z</time>
      </trkpt>
      <trkpt lat="43.66191" lon="3.33957">
        <ele>138.09</ele>
        <time>2014-04-13T12:45:22Z</time>
      </trkpt>
      <trkpt lat="43.66189" lon="3.33957">
        <ele>139.05</ele>
        <time>2014-04-13T12:46:50Z</time>
      </trkpt>
      <trkpt lat="43.66189" lon="3.33958">
        <ele>139.53</ele>
        <time>2014-04-13T12:47:13Z</time>
      </trkpt>
      <trkpt lat="43.66188" lon="3.33956">
        <ele>140.97</ele>
        <time>2014-04-13T13:15:35Z</time>
      </trkpt>
      <trkpt lat="43.66189" lon="3.33958">
        <ele>138.57</ele>
        <time>2014-04-13T13:18:22Z</time>
      </trkpt>
      <trkpt lat="43.66208" lon="3.33946">
        <ele>139.53</ele>
        <time>2014-04-13T13:18:30Z</time>
      </trkpt>
      <trkpt lat="43.66212" lon="3.33947">
        <ele>139.53</ele>
        <time>2014-04-13T13:18:31Z</time>
      </trkpt>
      <trkpt lat="43.66217" lon="3.3395">
        <ele>140.01</ele>
        <time>2014-04-13T13:18:32Z</time>
      </trkpt>
      <trkpt lat="43.66249" lon="3.33965">
        <ele>140.49</ele>
        <time>2014-04-13T13:18:38Z</time>
      </trkpt>
      <trkpt lat="43.66255" lon="3.33965">
        <ele>140.49</ele>
        <time>2014-04-13T13:18:39Z</time>
      </trkpt>
      <trkpt lat="43.6626" lon="3.33961">
        <ele>140.97</ele>
        <time>2014-04-13T13:18:40Z</time>
      </trkpt>
      <trkpt lat="43.66264" lon="3.33954">
        <ele>140.97</ele>
        <time>2014-04-13T13:18:41Z</time>
      </trkpt>
      <trkpt lat="43.66267" lon="3.33946">
        <ele>141.45</ele>
        <time>2014-04-13T13:18:42Z</time>
      </trkpt>
      <trkpt lat="43.6627" lon="3.33937">
        <ele>141.45</ele>
        <time>2014-04-13T13:18:43Z</time>
      </trkpt>
      <trkpt lat="43.66284" lon="3.3389">
        <ele>142.41</ele>
        <time>2014-04-13T13:18:48Z</time>
      </trkpt>
      <trkpt lat="43.66289" lon="3.33882">
        <ele>142.41</ele>
        <time>2014-04-13T13:18:49Z</time>
      </trkpt>
      <trkpt lat="43.66295" lon="3.33877">
        <ele>142.41</ele>
        <time>2014-04-13T13:18:50Z</time>
      </trkpt>
      <trkpt lat="43.66302" lon="3.33873">
        <ele>142.41</ele>
        <time>2014-04-13T13:18:51Z</time>
      </trkpt>
      <trkpt lat="43.66309" lon="3.33868">
        <ele>142.41</ele>
        <time>2014-04-13T13:18:52Z</time>
      </trkpt>
      <trkpt lat="43.66316" lon="3.33861">
        <ele>142.41</ele>
        <time>2014-04-13T13:18:53Z</time>
      </trkpt>
      <trkpt lat="43.66321" lon="3.33852">
        <ele>142.41</ele>
        <time>2014-04-13T13:18:54Z</time>
      </trkpt>
      <trkpt lat="43.66327" lon="3.33844">
        <ele>142.41</ele>
        <time>2014-04-13T13:18:55Z</time>
      </trkpt>
      <trkpt lat="43.66333" lon="3.33837">
        <ele>142.89</ele>
        <time>2014-04-13T13:18:56Z</time>
      </trkpt>
      <trkpt lat="43.66341" lon="3.33833">
        <ele>142.89</ele>
        <time>2014-04-13T13:18:57Z</time>
      </trkpt>
      <trkpt lat="43.66348" lon="3.3383">
        <ele>142.89</ele>
        <time>2014-04-13T13:18:58Z</time>
      </trkpt>
      <trkpt lat="43.66354" lon="3.33826">
        <ele>142.89</ele>
        <time>2014-04-13T13:18:59Z</time>
      </trkpt>
      <trkpt lat="43.66358" lon="3.33818">
        <ele>142.89</ele>
        <time>2014-04-13T13:19:00Z</time>
      </trkpt>
      <trkpt lat="43.6636" lon="3.33809">
        <ele>143.85</ele>
        <time>2014-04-13T13:19:01Z</time>
      </trkpt>
      <trkpt lat="43.66361" lon="3.33797">
        <ele>144.34</ele>
        <time>2014-04-13T13:19:02Z</time>
      </trkpt>
      <trkpt lat="43.66365" lon="3.33774">
        <ele>146.26</ele>
        <time>2014-04-13T13:19:04Z</time>
      </trkpt>
      <trkpt lat="43.66369" lon="3.33762">
        <ele>147.22</ele>
        <time>2014-04-13T13:19:05Z</time>
      </trkpt>
      <trkpt lat="43.66384" lon="3.33718">
        <ele>150.58</ele>
        <time>2014-04-13T13:19:09Z</time>
      </trkpt>
      <trkpt lat="43.66385" lon="3.33706">
        <ele>151.54</ele>
        <time>2014-04-13T13:19:10Z</time>
      </trkpt>
      <trkpt lat="43.66384" lon="3.33694">
        <ele>152.51</ele>
        <time>2014-04-13T13:19:11Z</time>
      </trkpt>
      <trkpt lat="43.66382" lon="3.33671">
        <ele>154.43</ele>
        <time>2014-04-13T13:19:13Z</time>
      </trkpt>
      <trkpt lat="43.66382" lon="3.33636">
        <ele>157.79</ele>
        <time>2014-04-13T13:19:16Z</time>
      </trkpt>
      <trkpt lat="43.66384" lon="3.33625">
        <ele>159.24</ele>
        <time>2014-04-13T13:19:17Z</time>
      </trkpt>
      <trkpt lat="43.66388" lon="3.33616">
        <ele>160.2</ele>
        <time>2014-04-13T13:19:18Z</time>
      </trkpt>
      <trkpt lat="43.66392" lon="3.33609">
        <ele>161.16</ele>
        <time>2014-04-13T13:19:19Z</time>
      </trkpt>
      <trkpt lat="43.66398" lon="3.33603">
        <ele>161.64</ele>
        <time>2014-04-13T13:19:20Z</time>
      </trkpt>
      <trkpt lat="43.66405" lon="3.33599">
        <ele>162.6</ele>
        <time>2014-04-13T13:19:21Z</time>
      </trkpt>
      <trkpt lat="43.66413" lon="3.33596">
        <ele>163.56</ele>
        <time>2014-04-13T13:19:22Z</time>
      </trkpt>
      <trkpt lat="43.6642" lon="3.33594">
        <ele>164.52</ele>
        <time>2014-04-13T13:19:23Z</time>
      </trkpt>
      <trkpt lat="43.66469" lon="3.33581">
        <ele>170.29</ele>
        <time>2014-04-13T13:19:32Z</time>
      </trkpt>
      <trkpt lat="43.66475" lon="3.33581">
        <ele>170.77</ele>
        <time>2014-04-13T13:19:33Z</time>
      </trkpt>
      <trkpt lat="43.6648" lon="3.33581">
        <ele>171.25</ele>
        <time>2014-04-13T13:19:34Z</time>
      </trkpt>
      <trkpt lat="43.66497" lon="3.33584">
        <ele>172.69</ele>
        <time>2014-04-13T13:19:37Z</time>
      </trkpt>
      <trkpt lat="43.66503" lon="3.33584">
        <ele>173.17</ele>
        <time>2014-04-13T13:19:38Z</time>
      </trkpt>
      <trkpt lat="43.66507" lon="3.33581">
        <ele>173.66</ele>
        <time>2014-04-13T13:19:39Z</time>
      </trkpt>
      <trkpt lat="43.66511" lon="3.33577">
        <ele>174.62</ele>
        <time>2014-04-13T13:19:40Z</time>
      </trkpt>
      <trkpt lat="43.66512" lon="3.33571">
        <ele>175.1</ele>
        <time>2014-04-13T13:19:41Z</time>
      </trkpt>
      <trkpt lat="43.66511" lon="3.33566">
        <ele>175.58</ele>
        <time>2014-04-13T13:19:42Z</time>
      </trkpt>
      <trkpt lat="43.66508" lon="3.33561">
        <ele>176.06</ele>
        <time>2014-04-13T13:19:43Z</time>
      </trkpt>
      <trkpt lat="43.66504" lon="3.33557">
        <ele>176.54</ele>
        <time>2014-04-13T13:19:44Z</time>
      </trkpt>
      <trkpt lat="43.66499" lon="3.33553">
        <ele>177.02</ele>
        <time>2014-04-13T13:19:45Z</time>
      </trkpt>
      <trkpt lat="43.66483" lon="3.3353">
        <ele>179.9</ele>
        <time>2014-04-13T13:19:54Z</time>
      </trkpt>
      <trkpt lat="43.66483" lon="3.3353">
        <ele>179.9</ele>
        <time>2014-04-13T13:19:56Z</time>
      </trkpt>
      <trkpt lat="43.66487" lon="3.33525">
        <ele>179.9</ele>
        <time>2014-04-13T13:19:58Z</time>
      </trkpt>
      <trkpt lat="43.66492" lon="3.33522">
        <ele>179.9</ele>
        <time>2014-04-13T13:19:59Z</time>
      </trkpt>
      <trkpt lat="43.665" lon="3.3352">
        <ele>179.9</ele>
        <time>2014-04-13T13:20:00Z</time>
      </trkpt>
      <trkpt lat="43.66509" lon="3.33517">
        <ele>179.9</ele>
        <time>2014-04-13T13:20:01Z</time>
      </trkpt>
      <trkpt lat="43.66536" lon="3.33513">
        <ele>180.87</ele>
        <time>2014-04-13T13:20:04Z</time>
      </trkpt>
      <trkpt lat="43.66547" lon="3.33514">
        <ele>180.87</ele>
        <time>2014-04-13T13:20:05Z</time>
      </trkpt>
      <trkpt lat="43.66558" lon="3.33518">
        <ele>180.87</ele>
        <time>2014-04-13T13:20:06Z</time>
      </trkpt>
      <trkpt lat="43.66571" lon="3.33524">
        <ele>181.35</ele>
        <time>2014-04-13T13:20:07Z</time>
      </trkpt>
      <trkpt lat="43.66584" lon="3.33532">
        <ele>181.83</ele>
        <time>2014-04-13T13:20:08Z</time>
      </trkpt>
      <trkpt lat="43.66598" lon="3.33542">
        <ele>181.83</ele>
        <time>2014-04-13T13:20:09Z</time>
      </trkpt>
      <trkpt lat="43.66654" lon="3.33573">
        <ele>182.79</ele>
        <time>2014-04-13T13:20:13Z</time>
      </trkpt>
      <trkpt lat="43.66668" lon="3.33577">
        <ele>183.27</ele>
        <time>2014-04-13T13:20:14Z</time>
      </trkpt>
      <trkpt lat="43.66683" lon="3.33579">
        <ele>183.27</ele>
        <time>2014-04-13T13:20:15Z</time>
      </trkpt>
      <trkpt lat="43.66698" lon="3.3358">
        <ele>183.27</ele>
        <time>2014-04-13T13:20:16Z</time>
      </trkpt>
      <trkpt lat="43.66713" lon="3.33579">
        <ele>183.75</ele>
        <time>2014-04-13T13:20:17Z</time>
      </trkpt>
      <trkpt lat="43.66728" lon="3.33576">
        <ele>183.75</ele>
        <time>2014-04-13T13:20:18Z</time>
      </trkpt>
      <trkpt lat="43.66743" lon="3.33572">
        <ele>184.23</ele>
        <time>2014-04-13T13:20:19Z</time>
      </trkpt>
      <trkpt lat="43.66758" lon="3.33565">
        <ele>184.23</ele>
        <time>2014-04-13T13:20:20Z</time>
      </trkpt>
      <trkpt lat="43.66773" lon="3.33557">
        <ele>184.23</ele>
        <time>2014-04-13T13:20:21Z</time>
      </trkpt>
      <trkpt lat="43.66787" lon="3.33546">
        <ele>183.75</ele>
        <time>2014-04-13T13:20:22Z</time>
      </trkpt>
      <trkpt lat="43.66801" lon="3.33534">
        <ele>183.75</ele>
        <time>2014-04-13T13:20:23Z</time>
      </trkpt>
      <trkpt lat="43.66816" lon="3.33521">
        <ele>183.27</ele>
        <time>2014-04-13T13:20:24Z</time>
      </trkpt>
      <trkpt lat="43.66952" lon="3.33423">
        <ele>175.58</ele>
        <time>2014-04-13T13:20:33Z</time>
      </trkpt>
      <trkpt lat="43.67056" lon="3.33386">
        <ele>169.33</ele>
        <time>2014-04-13T13:20:40Z</time>
      </trkpt>
      <trkpt lat="43.67072" lon="3.33387">
        <ele>168.37</ele>
        <time>2014-04-13T13:20:41Z</time>
      </trkpt>
      <trkpt lat="43.67088" lon="3.33389">
        <ele>167.41</ele>
        <time>2014-04-13T13:20:42Z</time>
      </trkpt>
      <trkpt lat="43.67263" lon="3.33427">
        <ele>157.31</ele>
        <time>2014-04-13T13:20:53Z</time>
      </trkpt>
      <trkpt lat="43.67386" lon="3.33452">
        <ele>150.1</ele>
        <time>2014-04-13T13:20:58Z</time>
      </trkpt>
      <trkpt lat="43.67433" lon="3.3347">
        <ele>147.22</ele>
        <time>2014-04-13T13:21:00Z</time>
      </trkpt>
      <trkpt lat="43.67456" lon="3.33486">
        <ele>145.78</ele>
        <time>2014-04-13T13:21:01Z</time>
      </trkpt>
      <trkpt lat="43.67476" lon="3.33503">
        <ele>144.82</ele>
        <time>2014-04-13T13:21:02Z</time>
      </trkpt>
      <trkpt lat="43.67623" lon="3.33664">
        <ele>141.45</ele>
        <time>2014-04-13T13:21:10Z</time>
      </trkpt>
      <trkpt lat="43.67728" lon="3.33823">
        <ele>140.01</ele>
        <time>2014-04-13T13:21:17Z</time>
      </trkpt>
      <trkpt lat="43.67828" lon="3.34052">
        <ele>132.32</ele>
        <time>2014-04-13T13:21:25Z</time>
      </trkpt>
      <trkpt lat="43.67862" lon="3.34257">
        <ele>127.99</ele>
        <time>2014-04-13T13:21:31Z</time>
      </trkpt>
      <trkpt lat="43.67863" lon="3.34292">
        <ele>127.51</ele>
        <time>2014-04-13T13:21:32Z</time>
      </trkpt>
      <trkpt lat="43.67862" lon="3.34327">
        <ele>127.03</ele>
        <time>2014-04-13T13:21:33Z</time>
      </trkpt>
      <trkpt lat="43.67859" lon="3.34363">
        <ele>126.55</ele>
        <time>2014-04-13T13:21:34Z</time>
      </trkpt>
      <trkpt lat="43.67855" lon="3.34398">
        <ele>126.07</ele>
        <time>2014-04-13T13:21:35Z</time>
      </trkpt>
      <trkpt lat="43.67784" lon="3.349">
        <ele>129.43</ele>
        <time>2014-04-13T13:21:49Z</time>
      </trkpt>
      <trkpt lat="43.67757" lon="3.35137">
        <ele>129.43</ele>
        <time>2014-04-13T13:21:57Z</time>
      </trkpt>
      <trkpt lat="43.67756" lon="3.35186">
        <ele>129.92</ele>
        <time>2014-04-13T13:21:59Z</time>
      </trkpt>
      <trkpt lat="43.67758" lon="3.35208">
        <ele>129.92</ele>
        <time>2014-04-13T13:22:00Z</time>
      </trkpt>
      <trkpt lat="43.67765" lon="3.35227">
        <ele>129.92</ele>
        <time>2014-04-13T13:22:01Z</time>
      </trkpt>
      <trkpt lat="43.67775" lon="3.35244">
        <ele>129.43</ele>
        <time>2014-04-13T13:22:02Z</time>
      </trkpt>
      <trkpt lat="43.67787" lon="3.35261">
        <ele>128.95</ele>
        <time>2014-04-13T13:22:03Z</time>
      </trkpt>
      <trkpt lat="43.678" lon="3.35278">
        <ele>128.47</ele>
        <time>2014-04-13T13:22:04Z</time>
      </trkpt>
      <trkpt lat="43.6794" lon="3.35496">
        <ele>120.78</ele>
        <time>2014-04-13T13:22:16Z</time>
      </trkpt>
      <trkpt lat="43.68074" lon="3.3571">
        <ele>114.05</ele>
        <time>2014-04-13T13:22:27Z</time>
      </trkpt>
      <trkpt lat="43.68159" lon="3.35839">
        <ele>113.09</ele>
        <time>2014-04-13T13:22:34Z</time>
      </trkpt>
      <trkpt lat="43.68172" lon="3.35849">
        <ele>113.09</ele>
        <time>2014-04-13T13:22:35Z</time>
      </trkpt>
      <trkpt lat="43.68186" lon="3.35852">
        <ele>112.61</ele>
        <time>2014-04-13T13:22:36Z</time>
      </trkpt>
      <trkpt lat="43.682" lon="3.35853">
        <ele>112.61</ele>
        <time>2014-04-13T13:22:37Z</time>
      </trkpt>
      <trkpt lat="43.68213" lon="3.35851">
        <ele>112.61</ele>
        <time>2014-04-13T13:22:38Z</time>
      </trkpt>
      <trkpt lat="43.68227" lon="3.35848">
        <ele>113.09</ele>
        <time>2014-04-13T13:22:39Z</time>
      </trkpt>
      <trkpt lat="43.6824" lon="3.35844">
        <ele>113.09</ele>
        <time>2014-04-13T13:22:40Z</time>
      </trkpt>
      <trkpt lat="43.6835" lon="3.35821">
        <ele>113.57</ele>
        <time>2014-04-13T13:22:50Z</time>
      </trkpt>
      <trkpt lat="43.68449" lon="3.35793">
        <ele>116.94</ele>
        <time>2014-04-13T13:23:00Z</time>
      </trkpt>
      <trkpt lat="43.68465" lon="3.35784">
        <ele>117.42</ele>
        <time>2014-04-13T13:23:02Z</time>
      </trkpt>
      <trkpt lat="43.68473" lon="3.35775">
        <ele>117.42</ele>
        <time>2014-04-13T13:23:03Z</time>
      </trkpt>
      <trkpt lat="43.68477" lon="3.35762">
        <ele>117.9</ele>
        <time>2014-04-13T13:23:04Z</time>
      </trkpt>
      <trkpt lat="43.68523" lon="3.35682">
        <ele>119.34</ele>
        <time>2014-04-13T13:23:10Z</time>
      </trkpt>
      <trkpt lat="43.68533" lon="3.35673">
        <ele>119.34</ele>
        <time>2014-04-13T13:23:11Z</time>
      </trkpt>
      <trkpt lat="43.68545" lon="3.35664">
        <ele>119.34</ele>
        <time>2014-04-13T13:23:12Z</time>
      </trkpt>
      <trkpt lat="43.68558" lon="3.35657">
        <ele>119.34</ele>
        <time>2014-04-13T13:23:13Z</time>
      </trkpt>
      <trkpt lat="43.68572" lon="3.35649">
        <ele>118.86</ele>
        <time>2014-04-13T13:23:14Z</time>
      </trkpt>
      <trkpt lat="43.68677" lon="3.35569">
        <ele>117.9</ele>
        <time>2014-04-13T13:23:21Z</time>
      </trkpt>
      <trkpt lat="43.6879" lon="3.3541">
        <ele>116.94</ele>
        <time>2014-04-13T13:23:29Z</time>
      </trkpt>
      <trkpt lat="43.68999" lon="3.35084">
        <ele>117.42</ele>
        <time>2014-04-13T13:23:44Z</time>
      </trkpt>
      <trkpt lat="43.69157" lon="3.34832">
        <ele>118.86</ele>
        <time>2014-04-13T13:23:57Z</time>
      </trkpt>
      <trkpt lat="43.69206" lon="3.34684">
        <ele>120.78</ele>
        <time>2014-04-13T13:24:04Z</time>
      </trkpt>
      <trkpt lat="43.69237" lon="3.34547">
        <ele>122.71</ele>
        <time>2014-04-13T13:24:11Z</time>
      </trkpt>
      <trkpt lat="43.69237" lon="3.34527">
        <ele>122.71</ele>
        <time>2014-04-13T13:24:12Z</time>
      </trkpt>
      <trkpt lat="43.69236" lon="3.34509">
        <ele>123.19</ele>
        <time>2014-04-13T13:24:13Z</time>
      </trkpt>
      <trkpt lat="43.69234" lon="3.34491">
        <ele>123.67</ele>
        <time>2014-04-13T13:24:14Z</time>
      </trkpt>
      <trkpt lat="43.69232" lon="3.34475">
        <ele>124.15</ele>
        <time>2014-04-13T13:24:15Z</time>
      </trkpt>
      <trkpt lat="43.69229" lon="3.34459">
        <ele>124.63</ele>
        <time>2014-04-13T13:24:16Z</time>
      </trkpt>
      <trkpt lat="43.69214" lon="3.34391">
        <ele>127.51</ele>
        <time>2014-04-13T13:24:21Z</time>
      </trkpt>
      <trkpt lat="43.69213" lon="3.3438">
        <ele>127.51</ele>
        <time>2014-04-13T13:24:22Z</time>
      </trkpt>
      <trkpt lat="43.69214" lon="3.34369">
        <ele>127.99</ele>
        <time>2014-04-13T13:24:23Z</time>
      </trkpt>
      <trkpt lat="43.69217" lon="3.3436">
        <ele>128.47</ele>
        <time>2014-04-13T13:24:24Z</time>
      </trkpt>
      <trkpt lat="43.6922" lon="3.34351">
        <ele>128.95</ele>
        <time>2014-04-13T13:24:25Z</time>
      </trkpt>
      <trkpt lat="43.69225" lon="3.34345">
        <ele>128.95</ele>
        <time>2014-04-13T13:24:26Z</time>
      </trkpt>
      <trkpt lat="43.6923" lon="3.34341">
        <ele>129.43</ele>
        <time>2014-04-13T13:24:27Z</time>
      </trkpt>
      <trkpt lat="43.69235" lon="3.34338">
        <ele>129.43</ele>
        <time>2014-04-13T13:24:28Z</time>
      </trkpt>
      <trkpt lat="43.6924" lon="3.34338">
        <ele>129.92</ele>
        <time>2014-04-13T13:24:29Z</time>
      </trkpt>
      <trkpt lat="43.69246" lon="3.3434">
        <ele>130.4</ele>
        <time>2014-04-13T13:24:30Z</time>
      </trkpt>
      <trkpt lat="43.69252" lon="3.34342">
        <ele>130.4</ele>
        <time>2014-04-13T13:24:31Z</time>
      </trkpt>
      <trkpt lat="43.69267" lon="3.3435">
        <ele>131.36</ele>
        <time>2014-04-13T13:24:33Z</time>
      </trkpt>
      <trkpt lat="43.69275" lon="3.34356">
        <ele>131.84</ele>
        <time>2014-04-13T13:24:34Z</time>
      </trkpt>
      <trkpt lat="43.69281" lon="3.34364">
        <ele>132.32</ele>
        <time>2014-04-13T13:24:35Z</time>
      </trkpt>
      <trkpt lat="43.69286" lon="3.34374">
        <ele>132.32</ele>
        <time>2014-04-13T13:24:36Z</time>
      </trkpt>
      <trkpt lat="43.6929" lon="3.34385">
        <ele>132.8</ele>
        <time>2014-04-13T13:24:37Z</time>
      </trkpt>
      <trkpt lat="43.69323" lon="3.34471">
        <ele>132.32</ele>
        <time>2014-04-13T13:24:45Z</time>
      </trkpt>
      <trkpt lat="43.69325" lon="3.34482">
        <ele>132.32</ele>
        <time>2014-04-13T13:24:46Z</time>
      </trkpt>
      <trkpt lat="43.69326" lon="3.34494">
        <ele>131.84</ele>
        <time>2014-04-13T13:24:47Z</time>
      </trkpt>
      <trkpt lat="43.69324" lon="3.34506">
        <ele>131.84</ele>
        <time>2014-04-13T13:24:48Z</time>
      </trkpt>
      <trkpt lat="43.6932" lon="3.34518">
        <ele>131.36</ele>
        <time>2014-04-13T13:24:49Z</time>
      </trkpt>
      <trkpt lat="43.69314" lon="3.34532">
        <ele>130.88</ele>
        <time>2014-04-13T13:24:50Z</time>
      </trkpt>
      <trkpt lat="43.69307" lon="3.34546">
        <ele>130.4</ele>
        <time>2014-04-13T13:24:51Z</time>
      </trkpt>
      <trkpt lat="43.69244" lon="3.34712">
        <ele>129.92</ele>
        <time>2014-04-13T13:25:01Z</time>
      </trkpt>
      <trkpt lat="43.69185" lon="3.34917">
        <ele>124.15</ele>
        <time>2014-04-13T13:25:13Z</time>
      </trkpt>
      <trkpt lat="43.69175" lon="3.3494">
        <ele>123.19</ele>
        <time>2014-04-13T13:25:15Z</time>
      </trkpt>
      <trkpt lat="43.6917" lon="3.34949">
        <ele>123.19</ele>
        <time>2014-04-13T13:25:16Z</time>
      </trkpt>
      <trkpt lat="43.69165" lon="3.34955">
        <ele>123.19</ele>
        <time>2014-04-13T13:25:17Z</time>
      </trkpt>
      <trkpt lat="43.69159" lon="3.3496">
        <ele>122.71</ele>
        <time>2014-04-13T13:25:18Z</time>
      </trkpt>
      <trkpt lat="43.69152" lon="3.34963">
        <ele>122.71</ele>
        <time>2014-04-13T13:25:19Z</time>
      </trkpt>
      <trkpt lat="43.69146" lon="3.34966">
        <ele>122.22</ele>
        <time>2014-04-13T13:25:20Z</time>
      </trkpt>
      <trkpt lat="43.69141" lon="3.34971">
        <ele>122.22</ele>
        <time>2014-04-13T13:25:21Z</time>
      </trkpt>
      <trkpt lat="43.69137" lon="3.34979">
        <ele>121.74</ele>
        <time>2014-04-13T13:25:22Z</time>
      </trkpt>
      <trkpt lat="43.69136" lon="3.34988">
        <ele>121.74</ele>
        <time>2014-04-13T13:25:23Z</time>
      </trkpt>
      <trkpt lat="43.69137" lon="3.34997">
        <ele>121.74</ele>
        <time>2014-04-13T13:25:24Z</time>
      </trkpt>
      <trkpt lat="43.69138" lon="3.35005">
        <ele>121.26</ele>
        <time>2014-04-13T13:25:25Z</time>
      </trkpt>
      <trkpt lat="43.69138" lon="3.35013">
        <ele>121.26</ele>
        <time>2014-04-13T13:25:26Z</time>
      </trkpt>
      <trkpt lat="43.69137" lon="3.35019">
        <ele>121.26</ele>
        <time>2014-04-13T13:25:27Z</time>
      </trkpt>
      <trkpt lat="43.69134" lon="3.35023">
        <ele>121.26</ele>
        <time>2014-04-13T13:25:28Z</time>
      </trkpt>
      <trkpt lat="43.69131" lon="3.35025">
        <ele>120.78</ele>
        <time>2014-04-13T13:25:29Z</time>
      </trkpt>
      <trkpt lat="43.69128" lon="3.35026">
        <ele>120.78</ele>
        <time>2014-04-13T13:25:30Z</time>
      </trkpt>
      <trkpt lat="43.69125" lon="3.35026">
        <ele>120.78</ele>
        <time>2014-04-13T13:25:31Z</time>
      </trkpt>
      <trkpt lat="43.69122" lon="3.35026">
        <ele>120.3</ele>
        <time>2014-04-13T13:25:41Z</time>
      </trkpt>
      <trkpt lat="43.69113" lon="3.35025">
        <ele>121.26</ele>
        <time>2014-04-13T13:26:05Z</time>
      </trkpt>
      <trkpt lat="43.69106" lon="3.35026">
        <ele>121.26</ele>
        <time>2014-04-13T13:26:06Z</time>
      </trkpt>
      <trkpt lat="43.69097" lon="3.35032">
        <ele>121.26</ele>
        <time>2014-04-13T13:26:07Z</time>
      </trkpt>
      <trkpt lat="43.69088" lon="3.35042">
        <ele>121.26</ele>
        <time>2014-04-13T13:26:08Z</time>
      </trkpt>
      <trkpt lat="43.69079" lon="3.35056">
        <ele>121.26</ele>
        <time>2014-04-13T13:26:09Z</time>
      </trkpt>
      <trkpt lat="43.69069" lon="3.35076">
        <ele>120.78</ele>
        <time>2014-04-13T13:26:10Z</time>
      </trkpt>
      <trkpt lat="43.68989" lon="3.35201">
        <ele>120.3</ele>
        <time>2014-04-13T13:26:15Z</time>
      </trkpt>
      <trkpt lat="43.68926" lon="3.35298">
        <ele>120.78</ele>
        <time>2014-04-13T13:26:20Z</time>
      </trkpt>
      <trkpt lat="43.68914" lon="3.35317">
        <ele>121.26</ele>
        <time>2014-04-13T13:26:22Z</time>
      </trkpt>
      <trkpt lat="43.68914" lon="3.35323">
        <ele>120.78</ele>
        <time>2014-04-13T13:26:23Z</time>
      </trkpt>
      <trkpt lat="43.68916" lon="3.35329">
        <ele>120.3</ele>
        <time>2014-04-13T13:26:24Z</time>
      </trkpt>
      <trkpt lat="43.6892" lon="3.35335">
        <ele>120.3</ele>
        <time>2014-04-13T13:26:25Z</time>
      </trkpt>
      <trkpt lat="43.68925" lon="3.35342">
        <ele>120.3</ele>
        <time>2014-04-13T13:26:26Z</time>
      </trkpt>
      <trkpt lat="43.68929" lon="3.3535">
        <ele>120.78</ele>
        <time>2014-04-13T13:26:27Z</time>
      </trkpt>
      <trkpt lat="43.68931" lon="3.35358">
        <ele>120.78</ele>
        <time>2014-04-13T13:26:28Z</time>
      </trkpt>
      <trkpt lat="43.68931" lon="3.35366">
        <ele>120.78</ele>
        <time>2014-04-13T13:26:29Z</time>
      </trkpt>
      <trkpt lat="43.68929" lon="3.35372">
        <ele>120.78</ele>
        <time>2014-04-13T13:26:30Z</time>
      </trkpt>
      <trkpt lat="43.68928" lon="3.35376">
        <ele>120.78</ele>
        <time>2014-04-13T13:26:31Z</time>
      </trkpt>
      <trkpt lat="43.68927" lon="3.35378">
        <ele>121.26</ele>
        <time>2014-04-13T13:26:32Z</time>
      </trkpt>
      <trkpt lat="43.68927" lon="3.35381">
        <ele>121.26</ele>
        <time>2014-04-13T13:26:33Z</time>
      </trkpt>
      <trkpt lat="43.68926" lon="3.35383">
        <ele>120.78</ele>
        <time>2014-04-13T13:26:34Z</time>
      </trkpt>
      <trkpt lat="43.68924" lon="3.35387">
        <ele>115.01</ele>
        <time>2014-04-13T13:26:48Z</time>
      </trkpt>
      <trkpt lat="43.68927" lon="3.35388">
        <ele>106.84</ele>
        <time>2014-04-13T13:28:01Z</time>
      </trkpt>
      <trkpt lat="43.68923" lon="3.35391">
        <ele>124.15</ele>
        <time>2014-04-13T13:28:34Z</time>
      </trkpt>
      <trkpt lat="43.68918" lon="3.35393">
        <ele>121.74</ele>
        <time>2014-04-13T13:29:47Z</time>
      </trkpt>
      <trkpt lat="43.68915" lon="3.35396">
        <ele>123.19</ele>
        <time>2014-04-13T13:30:18Z</time>
      </trkpt>
      <trkpt lat="43.68905" lon="3.35408">
        <ele>122.71</ele>
        <time>2014-04-13T13:30:24Z</time>
      </trkpt>
      <trkpt lat="43.68898" lon="3.35414">
        <ele>122.22</ele>
        <time>2014-04-13T13:30:28Z</time>
      </trkpt>
      <trkpt lat="43.68895" lon="3.35408">
        <ele>121.74</ele>
        <time>2014-04-13T13:30:40Z</time>
      </trkpt>
      <trkpt lat="43.68885" lon="3.35392">
        <ele>122.22</ele>
        <time>2014-04-13T13:31:57Z</time>
      </trkpt>
      <trkpt lat="43.68885" lon="3.35364">
        <ele>121.26</ele>
        <time>2014-04-13T13:32:07Z</time>
      </trkpt>
      <trkpt lat="43.68912" lon="3.35324">
        <ele>120.78</ele>
        <time>2014-04-13T13:32:22Z</time>
      </trkpt>
      <trkpt lat="43.68924" lon="3.35308">
        <ele>120.78</ele>
        <time>2014-04-13T13:32:33Z</time>
      </trkpt>
      <trkpt lat="43.68982" lon="3.35217">
        <ele>120.3</ele>
        <time>2014-04-13T13:32:43Z</time>
      </trkpt>
      <trkpt lat="43.69067" lon="3.35081">
        <ele>120.78</ele>
        <time>2014-04-13T13:32:54Z</time>
      </trkpt>
      <trkpt lat="43.69098" lon="3.35035">
        <ele>120.3</ele>
        <time>2014-04-13T13:32:58Z</time>
      </trkpt>
      <trkpt lat="43.69108" lon="3.35029">
        <ele>120.78</ele>
        <time>2014-04-13T13:32:59Z</time>
      </trkpt>
      <trkpt lat="43.69118" lon="3.35027">
        <ele>120.3</ele>
        <time>2014-04-13T13:33:00Z</time>
      </trkpt>
      <trkpt lat="43.69128" lon="3.35027">
        <ele>120.78</ele>
        <time>2014-04-13T13:33:01Z</time>
      </trkpt>
      <trkpt lat="43.69136" lon="3.35026">
        <ele>121.26</ele>
        <time>2014-04-13T13:33:02Z</time>
      </trkpt>
      <trkpt lat="43.69143" lon="3.35024">
        <ele>121.26</ele>
        <time>2014-04-13T13:33:03Z</time>
      </trkpt>
      <trkpt lat="43.69148" lon="3.3502">
        <ele>121.26</ele>
        <time>2014-04-13T13:33:04Z</time>
      </trkpt>
      <trkpt lat="43.6915" lon="3.35015">
        <ele>121.26</ele>
        <time>2014-04-13T13:33:05Z</time>
      </trkpt>
      <trkpt lat="43.69153" lon="3.35011">
        <ele>121.74</ele>
        <time>2014-04-13T13:33:06Z</time>
      </trkpt>
      <trkpt lat="43.69156" lon="3.35007">
        <ele>121.74</ele>
        <time>2014-04-13T13:33:07Z</time>
      </trkpt>
      <trkpt lat="43.69162" lon="3.35007">
        <ele>121.74</ele>
        <time>2014-04-13T13:33:08Z</time>
      </trkpt>
      <trkpt lat="43.69169" lon="3.35011">
        <ele>122.22</ele>
        <time>2014-04-13T13:33:09Z</time>
      </trkpt>
      <trkpt lat="43.69177" lon="3.35018">
        <ele>122.71</ele>
        <time>2014-04-13T13:33:10Z</time>
      </trkpt>
      <trkpt lat="43.69185" lon="3.35025">
        <ele>122.71</ele>
        <time>2014-04-13T13:33:11Z</time>
      </trkpt>
      <trkpt lat="43.69202" lon="3.35038">
        <ele>123.67</ele>
        <time>2014-04-13T13:33:13Z</time>
      </trkpt>
      <trkpt lat="43.69212" lon="3.35043">
        <ele>124.15</ele>
        <time>2014-04-13T13:33:14Z</time>
      </trkpt>
      <trkpt lat="43.69222" lon="3.35047">
        <ele>124.63</ele>
        <time>2014-04-13T13:33:15Z</time>
      </trkpt>
      <trkpt lat="43.69331" lon="3.3507">
        <ele>132.8</ele>
        <time>2014-04-13T13:33:23Z</time>
      </trkpt>
      <trkpt lat="43.69426" lon="3.35135">
        <ele>140.97</ele>
        <time>2014-04-13T13:33:29Z</time>
      </trkpt>
      <trkpt lat="43.69609" lon="3.35348">
        <ele>155.39</ele>
        <time>2014-04-13T13:33:41Z</time>
      </trkpt>
      <trkpt lat="43.69681" lon="3.35518">
        <ele>161.64</ele>
        <time>2014-04-13T13:33:47Z</time>
      </trkpt>
      <trkpt lat="43.69715" lon="3.35729">
        <ele>162.12</ele>
        <time>2014-04-13T13:33:53Z</time>
      </trkpt>
      <trkpt lat="43.69744" lon="3.35992">
        <ele>153.47</ele>
        <time>2014-04-13T13:34:00Z</time>
      </trkpt>
      <trkpt lat="43.69781" lon="3.3617">
        <ele>146.26</ele>
        <time>2014-04-13T13:34:05Z</time>
      </trkpt>
      <trkpt lat="43.69781" lon="3.36207">
        <ele>145.3</ele>
        <time>2014-04-13T13:34:06Z</time>
      </trkpt>
      <trkpt lat="43.69779" lon="3.36244">
        <ele>144.34</ele>
        <time>2014-04-13T13:34:07Z</time>
      </trkpt>
      <trkpt lat="43.69774" lon="3.36415">
        <ele>140.97</ele>
        <time>2014-04-13T13:34:12Z</time>
      </trkpt>
      <trkpt lat="43.6978" lon="3.36448">
        <ele>140.01</ele>
        <time>2014-04-13T13:34:13Z</time>
      </trkpt>
      <trkpt lat="43.6979" lon="3.36481">
        <ele>140.01</ele>
        <time>2014-04-13T13:34:14Z</time>
      </trkpt>
      <trkpt lat="43.69879" lon="3.36725">
        <ele>145.3</ele>
        <time>2014-04-13T13:34:22Z</time>
      </trkpt>
      <trkpt lat="43.69962" lon="3.36955">
        <ele>154.91</ele>
        <time>2014-04-13T13:34:32Z</time>
      </trkpt>
      <trkpt lat="43.69991" lon="3.37031">
        <ele>158.75</ele>
        <time>2014-04-13T13:34:38Z</time>
      </trkpt>
      <trkpt lat="43.70014" lon="3.37087">
        <ele>156.83</ele>
        <time>2014-04-13T13:34:42Z</time>
      </trkpt>
      <trkpt lat="43.70022" lon="3.37099">
        <ele>156.35</ele>
        <time>2014-04-13T13:34:43Z</time>
      </trkpt>
      <trkpt lat="43.70032" lon="3.37108">
        <ele>155.39</ele>
        <time>2014-04-13T13:34:44Z</time>
      </trkpt>
      <trkpt lat="43.70044" lon="3.37116">
        <ele>154.43</ele>
        <time>2014-04-13T13:34:45Z</time>
      </trkpt>
      <trkpt lat="43.70057" lon="3.37126">
        <ele>153.47</ele>
        <time>2014-04-13T13:34:46Z</time>
      </trkpt>
      <trkpt lat="43.70111" lon="3.37161">
        <ele>150.58</ele>
        <time>2014-04-13T13:34:50Z</time>
      </trkpt>
      <trkpt lat="43.70127" lon="3.37161">
        <ele>150.1</ele>
        <time>2014-04-13T13:34:51Z</time>
      </trkpt>
      <trkpt lat="43.70144" lon="3.3716">
        <ele>150.1</ele>
        <time>2014-04-13T13:34:52Z</time>
      </trkpt>
      <trkpt lat="43.70162" lon="3.37158">
        <ele>150.58</ele>
        <time>2014-04-13T13:34:53Z</time>
      </trkpt>
      <trkpt lat="43.70179" lon="3.37157">
        <ele>151.54</ele>
        <time>2014-04-13T13:34:54Z</time>
      </trkpt>
      <trkpt lat="43.70268" lon="3.37156">
        <ele>157.31</ele>
        <time>2014-04-13T13:34:59Z</time>
      </trkpt>
      <trkpt lat="43.70284" lon="3.37161">
        <ele>158.75</ele>
        <time>2014-04-13T13:35:00Z</time>
      </trkpt>
      <trkpt lat="43.703" lon="3.37168">
        <ele>160.2</ele>
        <time>2014-04-13T13:35:01Z</time>
      </trkpt>
      <trkpt lat="43.70315" lon="3.37178">
        <ele>161.64</ele>
        <time>2014-04-13T13:35:02Z</time>
      </trkpt>
      <trkpt lat="43.70328" lon="3.37195">
        <ele>162.6</ele>
        <time>2014-04-13T13:35:03Z</time>
      </trkpt>
      <trkpt lat="43.7034" lon="3.37216">
        <ele>163.56</ele>
        <time>2014-04-13T13:35:04Z</time>
      </trkpt>
      <trkpt lat="43.70352" lon="3.37237">
        <ele>164.04</ele>
        <time>2014-04-13T13:35:05Z</time>
      </trkpt>
      <trkpt lat="43.70362" lon="3.3726">
        <ele>164.52</ele>
        <time>2014-04-13T13:35:06Z</time>
      </trkpt>
      <trkpt lat="43.70404" lon="3.37355">
        <ele>163.56</ele>
        <time>2014-04-13T13:35:11Z</time>
      </trkpt>
      <trkpt lat="43.70415" lon="3.37362">
        <ele>163.56</ele>
        <time>2014-04-13T13:35:12Z</time>
      </trkpt>
      <trkpt lat="43.70429" lon="3.37364">
        <ele>163.08</ele>
        <time>2014-04-13T13:35:13Z</time>
      </trkpt>
      <trkpt lat="43.70445" lon="3.37364">
        <ele>163.08</ele>
        <time>2014-04-13T13:35:14Z</time>
      </trkpt>
      <trkpt lat="43.70461" lon="3.37362">
        <ele>162.6</ele>
        <time>2014-04-13T13:35:15Z</time>
      </trkpt>
      <trkpt lat="43.70502" lon="3.37361">
        <ele>161.64</ele>
        <time>2014-04-13T13:35:18Z</time>
      </trkpt>
      <trkpt lat="43.70509" lon="3.37366">
        <ele>160.68</ele>
        <time>2014-04-13T13:35:19Z</time>
      </trkpt>
      <trkpt lat="43.70515" lon="3.37375">
        <ele>160.68</ele>
        <time>2014-04-13T13:35:20Z</time>
      </trkpt>
      <trkpt lat="43.70518" lon="3.37391">
        <ele>160.68</ele>
        <time>2014-04-13T13:35:21Z</time>
      </trkpt>
      <trkpt lat="43.70522" lon="3.37408">
        <ele>161.16</ele>
        <time>2014-04-13T13:35:22Z</time>
      </trkpt>
      <trkpt lat="43.70527" lon="3.37429">
        <ele>161.64</ele>
        <time>2014-04-13T13:35:23Z</time>
      </trkpt>
      <trkpt lat="43.70535" lon="3.37472">
        <ele>162.6</ele>
        <time>2014-04-13T13:35:25Z</time>
      </trkpt>
      <trkpt lat="43.70535" lon="3.37493">
        <ele>163.56</ele>
        <time>2014-04-13T13:35:26Z</time>
      </trkpt>
      <trkpt lat="43.7053" lon="3.37512">
        <ele>164.52</ele>
        <time>2014-04-13T13:35:27Z</time>
      </trkpt>
      <trkpt lat="43.70523" lon="3.3753">
        <ele>165.48</ele>
        <time>2014-04-13T13:35:28Z</time>
      </trkpt>
      <trkpt lat="43.70513" lon="3.3755">
        <ele>166.93</ele>
        <time>2014-04-13T13:35:29Z</time>
      </trkpt>
      <trkpt lat="43.70502" lon="3.3757">
        <ele>167.89</ele>
        <time>2014-04-13T13:35:30Z</time>
      </trkpt>
      <trkpt lat="43.70485" lon="3.37614">
        <ele>170.77</ele>
        <time>2014-04-13T13:35:32Z</time>
      </trkpt>
      <trkpt lat="43.70479" lon="3.37638">
        <ele>172.21</ele>
        <time>2014-04-13T13:35:33Z</time>
      </trkpt>
      <trkpt lat="43.70465" lon="3.37725">
        <ele>177.98</ele>
        <time>2014-04-13T13:35:37Z</time>
      </trkpt>
      <trkpt lat="43.70467" lon="3.37744">
        <ele>178.94</ele>
        <time>2014-04-13T13:35:38Z</time>
      </trkpt>
      <trkpt lat="43.70471" lon="3.37764">
        <ele>180.38</ele>
        <time>2014-04-13T13:35:39Z</time>
      </trkpt>
      <trkpt lat="43.70477" lon="3.37782">
        <ele>181.35</ele>
        <time>2014-04-13T13:35:40Z</time>
      </trkpt>
      <trkpt lat="43.70484" lon="3.378">
        <ele>181.83</ele>
        <time>2014-04-13T13:35:41Z</time>
      </trkpt>
      <trkpt lat="43.70493" lon="3.37816">
        <ele>182.31</ele>
        <time>2014-04-13T13:35:42Z</time>
      </trkpt>
      <trkpt lat="43.70505" lon="3.37829">
        <ele>182.31</ele>
        <time>2014-04-13T13:35:43Z</time>
      </trkpt>
      <trkpt lat="43.70517" lon="3.3784">
        <ele>182.31</ele>
        <time>2014-04-13T13:35:44Z</time>
      </trkpt>
      <trkpt lat="43.7053" lon="3.37849">
        <ele>181.83</ele>
        <time>2014-04-13T13:35:45Z</time>
      </trkpt>
      <trkpt lat="43.70541" lon="3.37857">
        <ele>181.35</ele>
        <time>2014-04-13T13:35:46Z</time>
      </trkpt>
      <trkpt lat="43.7055" lon="3.37867">
        <ele>180.87</ele>
        <time>2014-04-13T13:35:47Z</time>
      </trkpt>
      <trkpt lat="43.70555" lon="3.37879">
        <ele>179.9</ele>
        <time>2014-04-13T13:35:48Z</time>
      </trkpt>
      <trkpt lat="43.70553" lon="3.37895">
        <ele>178.46</ele>
        <time>2014-04-13T13:35:49Z</time>
      </trkpt>
      <trkpt lat="43.70549" lon="3.37919">
        <ele>177.98</ele>
        <time>2014-04-13T13:35:50Z</time>
      </trkpt>
      <trkpt lat="43.70545" lon="3.37943">
        <ele>177.5</ele>
        <time>2014-04-13T13:35:51Z</time>
      </trkpt>
      <trkpt lat="43.70539" lon="3.3797">
        <ele>177.02</ele>
        <time>2014-04-13T13:35:52Z</time>
      </trkpt>
      <trkpt lat="43.70533" lon="3.37996">
        <ele>176.54</ele>
        <time>2014-04-13T13:35:53Z</time>
      </trkpt>
      <trkpt lat="43.70522" lon="3.38066">
        <ele>174.62</ele>
        <time>2014-04-13T13:35:56Z</time>
      </trkpt>
      <trkpt lat="43.70523" lon="3.38087">
        <ele>174.14</ele>
        <time>2014-04-13T13:35:57Z</time>
      </trkpt>
      <trkpt lat="43.70529" lon="3.38107">
        <ele>173.17</ele>
        <time>2014-04-13T13:35:58Z</time>
      </trkpt>
      <trkpt lat="43.70537" lon="3.38128">
        <ele>172.21</ele>
        <time>2014-04-13T13:35:59Z</time>
      </trkpt>
      <trkpt lat="43.70546" lon="3.38151">
        <ele>170.77</ele>
        <time>2014-04-13T13:36:00Z</time>
      </trkpt>
      <trkpt lat="43.70602" lon="3.38303">
        <ele>170.29</ele>
        <time>2014-04-13T13:36:07Z</time>
      </trkpt>
      <trkpt lat="43.70605" lon="3.38324">
        <ele>170.29</ele>
        <time>2014-04-13T13:36:08Z</time>
      </trkpt>
      <trkpt lat="43.70607" lon="3.38344">
        <ele>170.29</ele>
        <time>2014-04-13T13:36:09Z</time>
      </trkpt>
      <trkpt lat="43.70615" lon="3.385">
        <ele>168.85</ele>
        <time>2014-04-13T13:36:17Z</time>
      </trkpt>
      <trkpt lat="43.7062" lon="3.38517">
        <ele>169.33</ele>
        <time>2014-04-13T13:36:18Z</time>
      </trkpt>
      <trkpt lat="43.70627" lon="3.38532">
        <ele>170.29</ele>
        <time>2014-04-13T13:36:19Z</time>
      </trkpt>
      <trkpt lat="43.70663" lon="3.38601">
        <ele>175.1</ele>
        <time>2014-04-13T13:36:24Z</time>
      </trkpt>
      <trkpt lat="43.70668" lon="3.38615">
        <ele>176.06</ele>
        <time>2014-04-13T13:36:25Z</time>
      </trkpt>
      <trkpt lat="43.70672" lon="3.38629">
        <ele>176.54</ele>
        <time>2014-04-13T13:36:26Z</time>
      </trkpt>
      <trkpt lat="43.70688" lon="3.38781">
        <ele>170.77</ele>
        <time>2014-04-13T13:36:35Z</time>
      </trkpt>
      <trkpt lat="43.70674" lon="3.38884">
        <ele>165.48</ele>
        <time>2014-04-13T13:36:40Z</time>
      </trkpt>
      <trkpt lat="43.70668" lon="3.38903">
        <ele>164.52</ele>
        <time>2014-04-13T13:36:41Z</time>
      </trkpt>
      <trkpt lat="43.70648" lon="3.38977">
        <ele>160.2</ele>
        <time>2014-04-13T13:36:45Z</time>
      </trkpt>
      <trkpt lat="43.70646" lon="3.38996">
        <ele>158.75</ele>
        <time>2014-04-13T13:36:46Z</time>
      </trkpt>
      <trkpt lat="43.70648" lon="3.39015">
        <ele>157.79</ele>
        <time>2014-04-13T13:36:47Z</time>
      </trkpt>
      <trkpt lat="43.70651" lon="3.39034">
        <ele>157.79</ele>
        <time>2014-04-13T13:36:48Z</time>
      </trkpt>
      <trkpt lat="43.70656" lon="3.39054">
        <ele>157.79</ele>
        <time>2014-04-13T13:36:49Z</time>
      </trkpt>
      <trkpt lat="43.70713" lon="3.39304">
        <ele>157.79</ele>
        <time>2014-04-13T13:37:02Z</time>
      </trkpt>
      <trkpt lat="43.70734" lon="3.39397">
        <ele>154.43</ele>
        <time>2014-04-13T13:37:09Z</time>
      </trkpt>
      <trkpt lat="43.70754" lon="3.39485">
        <ele>154.91</ele>
        <time>2014-04-13T13:37:19Z</time>
      </trkpt>
      <trkpt lat="43.70757" lon="3.39512">
        <ele>154.91</ele>
        <time>2014-04-13T13:37:28Z</time>
      </trkpt>
      <trkpt lat="43.70762" lon="3.39523">
        <ele>154.91</ele>
        <time>2014-04-13T13:37:30Z</time>
      </trkpt>
      <trkpt lat="43.70804" lon="3.39614">
        <ele>155.87</ele>
        <time>2014-04-13T13:37:37Z</time>
      </trkpt>
      <trkpt lat="43.70864" lon="3.39759">
        <ele>147.7</ele>
        <time>2014-04-13T13:37:46Z</time>
      </trkpt>
      <trkpt lat="43.70866" lon="3.39774">
        <ele>147.22</ele>
        <time>2014-04-13T13:37:47Z</time>
      </trkpt>
      <trkpt lat="43.70865" lon="3.39789">
        <ele>146.26</ele>
        <time>2014-04-13T13:37:48Z</time>
      </trkpt>
      <trkpt lat="43.70861" lon="3.39803">
        <ele>145.78</ele>
        <time>2014-04-13T13:37:49Z</time>
      </trkpt>
      <trkpt lat="43.70852" lon="3.39815">
        <ele>145.3</ele>
        <time>2014-04-13T13:37:50Z</time>
      </trkpt>
      <trkpt lat="43.70841" lon="3.39827">
        <ele>144.82</ele>
        <time>2014-04-13T13:37:51Z</time>
      </trkpt>
      <trkpt lat="43.70829" lon="3.39839">
        <ele>144.82</ele>
        <time>2014-04-13T13:37:52Z</time>
      </trkpt>
      <trkpt lat="43.70818" lon="3.3985">
        <ele>144.82</ele>
        <time>2014-04-13T13:37:53Z</time>
      </trkpt>
      <trkpt lat="43.70757" lon="3.39907">
        <ele>147.22</ele>
        <time>2014-04-13T13:37:59Z</time>
      </trkpt>
      <trkpt lat="43.70751" lon="3.3992">
        <ele>147.7</ele>
        <time>2014-04-13T13:38:00Z</time>
      </trkpt>
      <trkpt lat="43.70746" lon="3.39935">
        <ele>147.7</ele>
        <time>2014-04-13T13:38:01Z</time>
      </trkpt>
      <trkpt lat="43.70746" lon="3.39954">
        <ele>148.18</ele>
        <time>2014-04-13T13:38:02Z</time>
      </trkpt>
      <trkpt lat="43.70746" lon="3.39974">
        <ele>149.14</ele>
        <time>2014-04-13T13:38:03Z</time>
      </trkpt>
      <trkpt lat="43.70746" lon="3.39997">
        <ele>150.1</ele>
        <time>2014-04-13T13:38:04Z</time>
      </trkpt>
      <trkpt lat="43.7075" lon="3.40158">
        <ele>160.2</ele>
        <time>2014-04-13T13:38:11Z</time>
      </trkpt>
      <trkpt lat="43.70774" lon="3.40297">
        <ele>160.2</ele>
        <time>2014-04-13T13:38:16Z</time>
      </trkpt>
      <trkpt lat="43.7082" lon="3.40597">
        <ele>156.83</ele>
        <time>2014-04-13T13:38:25Z</time>
      </trkpt>
      <trkpt lat="43.70882" lon="3.4103">
        <ele>154.91</ele>
        <time>2014-04-13T13:38:38Z</time>
      </trkpt>
      <trkpt lat="43.70912" lon="3.41209">
        <ele>153.95</ele>
        <time>2014-04-13T13:38:44Z</time>
      </trkpt>
      <trkpt lat="43.7092" lon="3.41235">
        <ele>153.47</ele>
        <time>2014-04-13T13:38:45Z</time>
      </trkpt>
      <trkpt lat="43.71011" lon="3.41453">
        <ele>150.1</ele>
        <time>2014-04-13T13:38:53Z</time>
      </trkpt>
      <trkpt lat="43.71099" lon="3.41647">
        <ele>152.03</ele>
        <time>2014-04-13T13:39:01Z</time>
      </trkpt>
      <trkpt lat="43.71107" lon="3.41663">
        <ele>152.51</ele>
        <time>2014-04-13T13:39:02Z</time>
      </trkpt>
      <trkpt lat="43.71117" lon="3.41676">
        <ele>152.99</ele>
        <time>2014-04-13T13:39:03Z</time>
      </trkpt>
      <trkpt lat="43.71128" lon="3.41686">
        <ele>153.47</ele>
        <time>2014-04-13T13:39:04Z</time>
      </trkpt>
      <trkpt lat="43.71141" lon="3.41695">
        <ele>154.43</ele>
        <time>2014-04-13T13:39:05Z</time>
      </trkpt>
      <trkpt lat="43.71154" lon="3.41704">
        <ele>154.91</ele>
        <time>2014-04-13T13:39:06Z</time>
      </trkpt>
      <trkpt lat="43.71168" lon="3.41711">
        <ele>155.39</ele>
        <time>2014-04-13T13:39:07Z</time>
      </trkpt>
      <trkpt lat="43.71223" lon="3.41745">
        <ele>157.79</ele>
        <time>2014-04-13T13:39:11Z</time>
      </trkpt>
      <trkpt lat="43.71235" lon="3.41758">
        <ele>158.75</ele>
        <time>2014-04-13T13:39:12Z</time>
      </trkpt>
      <trkpt lat="43.71246" lon="3.41772">
        <ele>159.72</ele>
        <time>2014-04-13T13:39:13Z</time>
      </trkpt>
      <trkpt lat="43.71256" lon="3.41787">
        <ele>160.68</ele>
        <time>2014-04-13T13:39:14Z</time>
      </trkpt>
      <trkpt lat="43.71266" lon="3.41804">
        <ele>161.64</ele>
        <time>2014-04-13T13:39:15Z</time>
      </trkpt>
      <trkpt lat="43.71351" lon="3.41955">
        <ele>165.48</ele>
        <time>2014-04-13T13:39:25Z</time>
      </trkpt>
      <trkpt lat="43.71411" lon="3.4207">
        <ele>165.48</ele>
        <time>2014-04-13T13:39:35Z</time>
      </trkpt>
      <trkpt lat="43.71445" lon="3.42133">
        <ele>168.85</ele>
        <time>2014-04-13T13:39:40Z</time>
      </trkpt>
      <trkpt lat="43.71448" lon="3.42144">
        <ele>169.33</ele>
        <time>2014-04-13T13:39:41Z</time>
      </trkpt>
      <trkpt lat="43.71449" lon="3.42154">
        <ele>169.33</ele>
        <time>2014-04-13T13:39:42Z</time>
      </trkpt>
      <trkpt lat="43.71447" lon="3.42162">
        <ele>169.81</ele>
        <time>2014-04-13T13:39:43Z</time>
      </trkpt>
      <trkpt lat="43.71446" lon="3.4217">
        <ele>169.81</ele>
        <time>2014-04-13T13:39:44Z</time>
      </trkpt>
      <trkpt lat="43.71448" lon="3.42177">
        <ele>170.29</ele>
        <time>2014-04-13T13:39:45Z</time>
      </trkpt>
      <trkpt lat="43.71451" lon="3.42181">
        <ele>170.29</ele>
        <time>2014-04-13T13:39:46Z</time>
      </trkpt>
      <trkpt lat="43.71455" lon="3.42186">
        <ele>169.81</ele>
        <time>2014-04-13T13:39:47Z</time>
      </trkpt>
      <trkpt lat="43.71458" lon="3.42192">
        <ele>169.81</ele>
        <time>2014-04-13T13:39:48Z</time>
      </trkpt>
      <trkpt lat="43.7146" lon="3.422">
        <ele>169.81</ele>
        <time>2014-04-13T13:39:49Z</time>
      </trkpt>
      <trkpt lat="43.71461" lon="3.42208">
        <ele>169.81</ele>
        <time>2014-04-13T13:39:50Z</time>
      </trkpt>
      <trkpt lat="43.71462" lon="3.42216">
        <ele>169.81</ele>
        <time>2014-04-13T13:39:51Z</time>
      </trkpt>
      <trkpt lat="43.71473" lon="3.42319">
        <ele>166.45</ele>
        <time>2014-04-13T13:40:03Z</time>
      </trkpt>
      <trkpt lat="43.71473" lon="3.42327">
        <ele>165.48</ele>
        <time>2014-04-13T13:40:04Z</time>
      </trkpt>
      <trkpt lat="43.71471" lon="3.42377">
        <ele>160.68</ele>
        <time>2014-04-13T13:40:11Z</time>
      </trkpt>
      <trkpt lat="43.71471" lon="3.42384">
        <ele>160.2</ele>
        <time>2014-04-13T13:40:12Z</time>
      </trkpt>
      <trkpt lat="43.71471" lon="3.42419">
        <ele>157.31</ele>
        <time>2014-04-13T13:40:16Z</time>
      </trkpt>
      <trkpt lat="43.71471" lon="3.42428">
        <ele>156.83</ele>
        <time>2014-04-13T13:40:17Z</time>
      </trkpt>
      <trkpt lat="43.71474" lon="3.42508">
        <ele>153.47</ele>
        <time>2014-04-13T13:40:25Z</time>
      </trkpt>
      <trkpt lat="43.71477" lon="3.42511">
        <ele>152.51</ele>
        <time>2014-04-13T13:40:26Z</time>
      </trkpt>
      <trkpt lat="43.71482" lon="3.4251">
        <ele>152.51</ele>
        <time>2014-04-13T13:40:27Z</time>
      </trkpt>
      <trkpt lat="43.71501" lon="3.42515">
        <ele>152.99</ele>
        <time>2014-04-13T13:40:30Z</time>
      </trkpt>
      <trkpt lat="43.71517" lon="3.4252">
        <ele>152.51</ele>
        <time>2014-04-13T13:40:32Z</time>
      </trkpt>
      <trkpt lat="43.71556" lon="3.4252">
        <ele>152.99</ele>
        <time>2014-04-13T13:40:37Z</time>
      </trkpt>
      <trkpt lat="43.71585" lon="3.42528">
        <ele>153.47</ele>
        <time>2014-04-13T13:40:40Z</time>
      </trkpt>
      <trkpt lat="43.71598" lon="3.42527">
        <ele>154.43</ele>
        <time>2014-04-13T13:40:41Z</time>
      </trkpt>
      <trkpt lat="43.71652" lon="3.42523">
        <ele>155.87</ele>
        <time>2014-04-13T13:40:45Z</time>
      </trkpt>
      <trkpt lat="43.71666" lon="3.42528">
        <ele>156.83</ele>
        <time>2014-04-13T13:40:46Z</time>
      </trkpt>
      <trkpt lat="43.71679" lon="3.42536">
        <ele>157.79</ele>
        <time>2014-04-13T13:40:47Z</time>
      </trkpt>
      <trkpt lat="43.71693" lon="3.42548">
        <ele>158.75</ele>
        <time>2014-04-13T13:40:48Z</time>
      </trkpt>
      <trkpt lat="43.71706" lon="3.42561">
        <ele>159.72</ele>
        <time>2014-04-13T13:40:49Z</time>
      </trkpt>
      <trkpt lat="43.71789" lon="3.4263">
        <ele>164.52</ele>
        <time>2014-04-13T13:40:55Z</time>
      </trkpt>
      <trkpt lat="43.71804" lon="3.42635">
        <ele>165.48</ele>
        <time>2014-04-13T13:40:56Z</time>
      </trkpt>
      <trkpt lat="43.71831" lon="3.42645">
        <ele>167.89</ele>
        <time>2014-04-13T13:40:58Z</time>
      </trkpt>
      <trkpt lat="43.71843" lon="3.42654">
        <ele>169.33</ele>
        <time>2014-04-13T13:40:59Z</time>
      </trkpt>
      <trkpt lat="43.71855" lon="3.42665">
        <ele>170.29</ele>
        <time>2014-04-13T13:41:00Z</time>
      </trkpt>
      <trkpt lat="43.71888" lon="3.42696">
        <ele>173.17</ele>
        <time>2014-04-13T13:41:03Z</time>
      </trkpt>
      <trkpt lat="43.71899" lon="3.42699">
        <ele>174.14</ele>
        <time>2014-04-13T13:41:04Z</time>
      </trkpt>
      <trkpt lat="43.71909" lon="3.42696">
        <ele>175.1</ele>
        <time>2014-04-13T13:41:05Z</time>
      </trkpt>
      <trkpt lat="43.7192" lon="3.42692">
        <ele>176.06</ele>
        <time>2014-04-13T13:41:06Z</time>
      </trkpt>
      <trkpt lat="43.71932" lon="3.42685">
        <ele>176.54</ele>
        <time>2014-04-13T13:41:07Z</time>
      </trkpt>
      <trkpt lat="43.71943" lon="3.42677">
        <ele>177.5</ele>
        <time>2014-04-13T13:41:08Z</time>
      </trkpt>
      <trkpt lat="43.71955" lon="3.42669">
        <ele>178.46</ele>
        <time>2014-04-13T13:41:09Z</time>
      </trkpt>
      <trkpt lat="43.71994" lon="3.42639">
        <ele>181.35</ele>
        <time>2014-04-13T13:41:13Z</time>
      </trkpt>
      <trkpt lat="43.72005" lon="3.42636">
        <ele>182.31</ele>
        <time>2014-04-13T13:41:14Z</time>
      </trkpt>
      <trkpt lat="43.72019" lon="3.42635">
        <ele>183.27</ele>
        <time>2014-04-13T13:41:15Z</time>
      </trkpt>
      <trkpt lat="43.72126" lon="3.42635">
        <ele>191.92</ele>
        <time>2014-04-13T13:41:21Z</time>
      </trkpt>
      <trkpt lat="43.72143" lon="3.42635">
        <ele>193.36</ele>
        <time>2014-04-13T13:41:22Z</time>
      </trkpt>
      <trkpt lat="43.72162" lon="3.42633">
        <ele>194.8</ele>
        <time>2014-04-13T13:41:23Z</time>
      </trkpt>
      <trkpt lat="43.7223" lon="3.42627">
        <ele>199.61</ele>
        <time>2014-04-13T13:41:27Z</time>
      </trkpt>
      <trkpt lat="43.72247" lon="3.42631">
        <ele>200.57</ele>
        <time>2014-04-13T13:41:28Z</time>
      </trkpt>
      <trkpt lat="43.72264" lon="3.42636">
        <ele>202.01</ele>
        <time>2014-04-13T13:41:29Z</time>
      </trkpt>
      <trkpt lat="43.72389" lon="3.42708">
        <ele>212.59</ele>
        <time>2014-04-13T13:41:36Z</time>
      </trkpt>
      <trkpt lat="43.72475" lon="3.42766">
        <ele>221.72</ele>
        <time>2014-04-13T13:41:42Z</time>
      </trkpt>
      <trkpt lat="43.72479" lon="3.42784">
        <ele>222.68</ele>
        <time>2014-04-13T13:41:43Z</time>
      </trkpt>
      <trkpt lat="43.72482" lon="3.42802">
        <ele>224.61</ele>
        <time>2014-04-13T13:41:44Z</time>
      </trkpt>
      <trkpt lat="43.72482" lon="3.42822">
        <ele>226.05</ele>
        <time>2014-04-13T13:41:45Z</time>
      </trkpt>
      <trkpt lat="43.72484" lon="3.42839">
        <ele>226.53</ele>
        <time>2014-04-13T13:41:46Z</time>
      </trkpt>
      <trkpt lat="43.72487" lon="3.42852">
        <ele>227.49</ele>
        <time>2014-04-13T13:41:47Z</time>
      </trkpt>
      <trkpt lat="43.72494" lon="3.42862">
        <ele>228.45</ele>
        <time>2014-04-13T13:41:48Z</time>
      </trkpt>
      <trkpt lat="43.72504" lon="3.42866">
        <ele>228.45</ele>
        <time>2014-04-13T13:41:49Z</time>
      </trkpt>
      <trkpt lat="43.72518" lon="3.42867">
        <ele>229.41</ele>
        <time>2014-04-13T13:41:50Z</time>
      </trkpt>
      <trkpt lat="43.72532" lon="3.4287">
        <ele>230.37</ele>
        <time>2014-04-13T13:41:51Z</time>
      </trkpt>
      <trkpt lat="43.72545" lon="3.42876">
        <ele>231.33</ele>
        <time>2014-04-13T13:41:52Z</time>
      </trkpt>
      <trkpt lat="43.72556" lon="3.42889">
        <ele>232.3</ele>
        <time>2014-04-13T13:41:53Z</time>
      </trkpt>
      <trkpt lat="43.72562" lon="3.42904">
        <ele>232.78</ele>
        <time>2014-04-13T13:41:54Z</time>
      </trkpt>
      <trkpt lat="43.72567" lon="3.42922">
        <ele>233.26</ele>
        <time>2014-04-13T13:41:55Z</time>
      </trkpt>
      <trkpt lat="43.72566" lon="3.42942">
        <ele>234.22</ele>
        <time>2014-04-13T13:41:56Z</time>
      </trkpt>
      <trkpt lat="43.72563" lon="3.42962">
        <ele>235.18</ele>
        <time>2014-04-13T13:41:57Z</time>
      </trkpt>
      <trkpt lat="43.7256" lon="3.4298">
        <ele>236.62</ele>
        <time>2014-04-13T13:41:58Z</time>
      </trkpt>
      <trkpt lat="43.7256" lon="3.42997">
        <ele>237.58</ele>
        <time>2014-04-13T13:41:59Z</time>
      </trkpt>
      <trkpt lat="43.72563" lon="3.4301">
        <ele>238.54</ele>
        <time>2014-04-13T13:42:00Z</time>
      </trkpt>
      <trkpt lat="43.7257" lon="3.43019">
        <ele>239.02</ele>
        <time>2014-04-13T13:42:01Z</time>
      </trkpt>
      <trkpt lat="43.72582" lon="3.43025">
        <ele>240.47</ele>
        <time>2014-04-13T13:42:02Z</time>
      </trkpt>
      <trkpt lat="43.72598" lon="3.43031">
        <ele>241.43</ele>
        <time>2014-04-13T13:42:03Z</time>
      </trkpt>
      <trkpt lat="43.72615" lon="3.43037">
        <ele>242.39</ele>
        <time>2014-04-13T13:42:04Z</time>
      </trkpt>
      <trkpt lat="43.72718" lon="3.431">
        <ele>246.23</ele>
        <time>2014-04-13T13:42:10Z</time>
      </trkpt>
      <trkpt lat="43.72805" lon="3.43174">
        <ele>252.48</ele>
        <time>2014-04-13T13:42:17Z</time>
      </trkpt>
      <trkpt lat="43.7281" lon="3.43192">
        <ele>253.44</ele>
        <time>2014-04-13T13:42:18Z</time>
      </trkpt>
      <trkpt lat="43.72814" lon="3.43209">
        <ele>254.41</ele>
        <time>2014-04-13T13:42:19Z</time>
      </trkpt>
      <trkpt lat="43.7282" lon="3.43226">
        <ele>254.89</ele>
        <time>2014-04-13T13:42:20Z</time>
      </trkpt>
      <trkpt lat="43.72827" lon="3.4324">
        <ele>255.37</ele>
        <time>2014-04-13T13:42:21Z</time>
      </trkpt>
      <trkpt lat="43.72835" lon="3.43253">
        <ele>255.85</ele>
        <time>2014-04-13T13:42:22Z</time>
      </trkpt>
      <trkpt lat="43.72844" lon="3.43263">
        <ele>256.33</ele>
        <time>2014-04-13T13:42:23Z</time>
      </trkpt>
      <trkpt lat="43.72854" lon="3.43271">
        <ele>256.81</ele>
        <time>2014-04-13T13:42:24Z</time>
      </trkpt>
      <trkpt lat="43.72864" lon="3.43276">
        <ele>256.81</ele>
        <time>2014-04-13T13:42:25Z</time>
      </trkpt>
      <trkpt lat="43.72875" lon="3.43274">
        <ele>257.29</ele>
        <time>2014-04-13T13:42:26Z</time>
      </trkpt>
      <trkpt lat="43.72886" lon="3.43271">
        <ele>257.77</ele>
        <time>2014-04-13T13:42:27Z</time>
      </trkpt>
      <trkpt lat="43.72898" lon="3.43267">
        <ele>258.25</ele>
        <time>2014-04-13T13:42:28Z</time>
      </trkpt>
      <trkpt lat="43.72911" lon="3.43266">
        <ele>258.25</ele>
        <time>2014-04-13T13:42:29Z</time>
      </trkpt>
      <trkpt lat="43.72922" lon="3.43267">
        <ele>258.73</ele>
        <time>2014-04-13T13:42:30Z</time>
      </trkpt>
      <trkpt lat="43.72935" lon="3.43271">
        <ele>259.69</ele>
        <time>2014-04-13T13:42:31Z</time>
      </trkpt>
      <trkpt lat="43.72949" lon="3.4328">
        <ele>259.69</ele>
        <time>2014-04-13T13:42:32Z</time>
      </trkpt>
      <trkpt lat="43.72962" lon="3.43289">
        <ele>259.69</ele>
        <time>2014-04-13T13:42:33Z</time>
      </trkpt>
      <trkpt lat="43.72976" lon="3.43298">
        <ele>259.69</ele>
        <time>2014-04-13T13:42:34Z</time>
      </trkpt>
      <trkpt lat="43.73004" lon="3.4331">
        <ele>260.17</ele>
        <time>2014-04-13T13:42:36Z</time>
      </trkpt>
      <trkpt lat="43.73019" lon="3.43314">
        <ele>261.14</ele>
        <time>2014-04-13T13:42:37Z</time>
      </trkpt>
      <trkpt lat="43.73179" lon="3.43342">
        <ele>272.19</ele>
        <time>2014-04-13T13:42:47Z</time>
      </trkpt>
      <trkpt lat="43.73296" lon="3.43413">
        <ele>281.32</ele>
        <time>2014-04-13T13:42:55Z</time>
      </trkpt>
      <trkpt lat="43.73333" lon="3.43442">
        <ele>284.69</ele>
        <time>2014-04-13T13:42:59Z</time>
      </trkpt>
      <trkpt lat="43.73342" lon="3.43447">
        <ele>285.65</ele>
        <time>2014-04-13T13:43:00Z</time>
      </trkpt>
      <trkpt lat="43.73351" lon="3.43449">
        <ele>286.61</ele>
        <time>2014-04-13T13:43:01Z</time>
      </trkpt>
      <trkpt lat="43.7336" lon="3.43448">
        <ele>287.09</ele>
        <time>2014-04-13T13:43:02Z</time>
      </trkpt>
      <trkpt lat="43.73369" lon="3.43446">
        <ele>288.05</ele>
        <time>2014-04-13T13:43:03Z</time>
      </trkpt>
      <trkpt lat="43.73378" lon="3.43442">
        <ele>288.53</ele>
        <time>2014-04-13T13:43:04Z</time>
      </trkpt>
      <trkpt lat="43.73387" lon="3.4344">
        <ele>289.01</ele>
        <time>2014-04-13T13:43:05Z</time>
      </trkpt>
      <trkpt lat="43.73395" lon="3.4344">
        <ele>289.49</ele>
        <time>2014-04-13T13:43:06Z</time>
      </trkpt>
      <trkpt lat="43.73404" lon="3.43444">
        <ele>289.97</ele>
        <time>2014-04-13T13:43:07Z</time>
      </trkpt>
      <trkpt lat="43.73413" lon="3.4345">
        <ele>289.97</ele>
        <time>2014-04-13T13:43:08Z</time>
      </trkpt>
      <trkpt lat="43.73423" lon="3.43458">
        <ele>290.94</ele>
        <time>2014-04-13T13:43:09Z</time>
      </trkpt>
      <trkpt lat="43.73443" lon="3.43477">
        <ele>291.9</ele>
        <time>2014-04-13T13:43:11Z</time>
      </trkpt>
      <trkpt lat="43.73451" lon="3.43488">
        <ele>292.86</ele>
        <time>2014-04-13T13:43:12Z</time>
      </trkpt>
      <trkpt lat="43.73458" lon="3.43499">
        <ele>293.34</ele>
        <time>2014-04-13T13:43:13Z</time>
      </trkpt>
      <trkpt lat="43.73463" lon="3.43512">
        <ele>294.3</ele>
        <time>2014-04-13T13:43:14Z</time>
      </trkpt>
      <trkpt lat="43.73468" lon="3.43525">
        <ele>294.78</ele>
        <time>2014-04-13T13:43:15Z</time>
      </trkpt>
      <trkpt lat="43.73473" lon="3.43538">
        <ele>295.26</ele>
        <time>2014-04-13T13:43:16Z</time>
      </trkpt>
      <trkpt lat="43.73479" lon="3.4355">
        <ele>295.74</ele>
        <time>2014-04-13T13:43:17Z</time>
      </trkpt>
      <trkpt lat="43.73485" lon="3.4356">
        <ele>296.22</ele>
        <time>2014-04-13T13:43:18Z</time>
      </trkpt>
      <trkpt lat="43.73491" lon="3.43568">
        <ele>296.7</ele>
        <time>2014-04-13T13:43:19Z</time>
      </trkpt>
      <trkpt lat="43.73496" lon="3.43574">
        <ele>297.18</ele>
        <time>2014-04-13T13:43:20Z</time>
      </trkpt>
      <trkpt lat="43.73543" lon="3.43628">
        <ele>301.03</ele>
        <time>2014-04-13T13:43:29Z</time>
      </trkpt>
      <trkpt lat="43.73607" lon="3.43704">
        <ele>306.8</ele>
        <time>2014-04-13T13:43:39Z</time>
      </trkpt>
      <trkpt lat="43.73616" lon="3.43726">
        <ele>308.24</ele>
        <time>2014-04-13T13:43:41Z</time>
      </trkpt>
      <trkpt lat="43.73625" lon="3.4375">
        <ele>309.2</ele>
        <time>2014-04-13T13:43:43Z</time>
      </trkpt>
      <trkpt lat="43.73632" lon="3.4376">
        <ele>309.68</ele>
        <time>2014-04-13T13:43:44Z</time>
      </trkpt>
      <trkpt lat="43.73642" lon="3.43768">
        <ele>310.16</ele>
        <time>2014-04-13T13:43:45Z</time>
      </trkpt>
      <trkpt lat="43.73695" lon="3.43798">
        <ele>313.05</ele>
        <time>2014-04-13T13:43:52Z</time>
      </trkpt>
      <trkpt lat="43.73753" lon="3.43829">
        <ele>318.33</ele>
        <time>2014-04-13T13:43:59Z</time>
      </trkpt>
      <trkpt lat="43.73772" lon="3.43837">
        <ele>319.78</ele>
        <time>2014-04-13T13:44:01Z</time>
      </trkpt>
      <trkpt lat="43.73795" lon="3.43847">
        <ele>321.22</ele>
        <time>2014-04-13T13:44:03Z</time>
      </trkpt>
      <trkpt lat="43.73806" lon="3.43853">
        <ele>321.7</ele>
        <time>2014-04-13T13:44:04Z</time>
      </trkpt>
      <trkpt lat="43.73819" lon="3.43866">
        <ele>321.7</ele>
        <time>2014-04-13T13:44:05Z</time>
      </trkpt>
      <trkpt lat="43.73885" lon="3.43953">
        <ele>324.58</ele>
        <time>2014-04-13T13:44:12Z</time>
      </trkpt>
      <trkpt lat="43.73891" lon="3.43966">
        <ele>326.02</ele>
        <time>2014-04-13T13:44:13Z</time>
      </trkpt>
      <trkpt lat="43.73895" lon="3.43982">
        <ele>327.47</ele>
        <time>2014-04-13T13:44:14Z</time>
      </trkpt>
      <trkpt lat="43.73897" lon="3.43998">
        <ele>328.91</ele>
        <time>2014-04-13T13:44:15Z</time>
      </trkpt>
      <trkpt lat="43.73901" lon="3.44013">
        <ele>330.35</ele>
        <time>2014-04-13T13:44:16Z</time>
      </trkpt>
      <trkpt lat="43.73906" lon="3.44027">
        <ele>330.83</ele>
        <time>2014-04-13T13:44:17Z</time>
      </trkpt>
      <trkpt lat="43.73912" lon="3.44035">
        <ele>331.31</ele>
        <time>2014-04-13T13:44:18Z</time>
      </trkpt>
      <trkpt lat="43.73922" lon="3.4404">
        <ele>332.27</ele>
        <time>2014-04-13T13:44:19Z</time>
      </trkpt>
      <trkpt lat="43.73935" lon="3.4404">
        <ele>333.23</ele>
        <time>2014-04-13T13:44:20Z</time>
      </trkpt>
      <trkpt lat="43.73948" lon="3.44036">
        <ele>334.2</ele>
        <time>2014-04-13T13:44:21Z</time>
      </trkpt>
      <trkpt lat="43.73959" lon="3.44028">
        <ele>335.16</ele>
        <time>2014-04-13T13:44:22Z</time>
      </trkpt>
      <trkpt lat="43.73968" lon="3.44019">
        <ele>336.6</ele>
        <time>2014-04-13T13:44:23Z</time>
      </trkpt>
      <trkpt lat="43.73973" lon="3.44011">
        <ele>336.6</ele>
        <time>2014-04-13T13:44:24Z</time>
      </trkpt>
      <trkpt lat="43.73975" lon="3.44002">
        <ele>337.08</ele>
        <time>2014-04-13T13:44:25Z</time>
      </trkpt>
      <trkpt lat="43.73976" lon="3.43996">
        <ele>337.56</ele>
        <time>2014-04-13T13:44:26Z</time>
      </trkpt>
      <trkpt lat="43.73989" lon="3.43982">
        <ele>339.48</ele>
        <time>2014-04-13T13:44:33Z</time>
      </trkpt>
      <trkpt lat="43.73994" lon="3.43984">
        <ele>339.96</ele>
        <time>2014-04-13T13:44:34Z</time>
      </trkpt>
      <trkpt lat="43.74" lon="3.43989">
        <ele>339.96</ele>
        <time>2014-04-13T13:44:35Z</time>
      </trkpt>
      <trkpt lat="43.74007" lon="3.43996">
        <ele>340.44</ele>
        <time>2014-04-13T13:44:36Z</time>
      </trkpt>
      <trkpt lat="43.74015" lon="3.44004">
        <ele>340.44</ele>
        <time>2014-04-13T13:44:37Z</time>
      </trkpt>
      <trkpt lat="43.74032" lon="3.44027">
        <ele>341.41</ele>
        <time>2014-04-13T13:44:39Z</time>
      </trkpt>
      <trkpt lat="43.7404" lon="3.44048">
        <ele>341.89</ele>
        <time>2014-04-13T13:44:40Z</time>
      </trkpt>
      <trkpt lat="43.74045" lon="3.44069">
        <ele>342.85</ele>
        <time>2014-04-13T13:44:41Z</time>
      </trkpt>
      <trkpt lat="43.74055" lon="3.44109">
        <ele>344.77</ele>
        <time>2014-04-13T13:44:43Z</time>
      </trkpt>
      <trkpt lat="43.74062" lon="3.44127">
        <ele>345.25</ele>
        <time>2014-04-13T13:44:44Z</time>
      </trkpt>
      <trkpt lat="43.74071" lon="3.44142">
        <ele>346.21</ele>
        <time>2014-04-13T13:44:45Z</time>
      </trkpt>
      <trkpt lat="43.74124" lon="3.44207">
        <ele>351.02</ele>
        <time>2014-04-13T13:44:50Z</time>
      </trkpt>
      <trkpt lat="43.7413" lon="3.44222">
        <ele>351.5</ele>
        <time>2014-04-13T13:44:51Z</time>
      </trkpt>
      <trkpt lat="43.74128" lon="3.44238">
        <ele>351.98</ele>
        <time>2014-04-13T13:44:52Z</time>
      </trkpt>
      <trkpt lat="43.74126" lon="3.44254">
        <ele>352.46</ele>
        <time>2014-04-13T13:44:53Z</time>
      </trkpt>
      <trkpt lat="43.74124" lon="3.44272">
        <ele>352.94</ele>
        <time>2014-04-13T13:44:54Z</time>
      </trkpt>
      <trkpt lat="43.74124" lon="3.44291">
        <ele>353.42</ele>
        <time>2014-04-13T13:44:55Z</time>
      </trkpt>
      <trkpt lat="43.74124" lon="3.4431">
        <ele>353.9</ele>
        <time>2014-04-13T13:44:56Z</time>
      </trkpt>
      <trkpt lat="43.74127" lon="3.4433">
        <ele>354.38</ele>
        <time>2014-04-13T13:44:57Z</time>
      </trkpt>
      <trkpt lat="43.74131" lon="3.44353">
        <ele>355.34</ele>
        <time>2014-04-13T13:44:58Z</time>
      </trkpt>
      <trkpt lat="43.74134" lon="3.44376">
        <ele>356.79</ele>
        <time>2014-04-13T13:44:59Z</time>
      </trkpt>
      <trkpt lat="43.74135" lon="3.44399">
        <ele>358.23</ele>
        <time>2014-04-13T13:45:00Z</time>
      </trkpt>
      <trkpt lat="43.74136" lon="3.44422">
        <ele>359.19</ele>
        <time>2014-04-13T13:45:01Z</time>
      </trkpt>
      <trkpt lat="43.74149" lon="3.44555">
        <ele>363.52</ele>
        <time>2014-04-13T13:45:07Z</time>
      </trkpt>
      <trkpt lat="43.74155" lon="3.44573">
        <ele>363.52</ele>
        <time>2014-04-13T13:45:08Z</time>
      </trkpt>
      <trkpt lat="43.74163" lon="3.44591">
        <ele>364</ele>
        <time>2014-04-13T13:45:09Z</time>
      </trkpt>
      <trkpt lat="43.74183" lon="3.44628">
        <ele>365.44</ele>
        <time>2014-04-13T13:45:11Z</time>
      </trkpt>
      <trkpt lat="43.74191" lon="3.44648">
        <ele>365.92</ele>
        <time>2014-04-13T13:45:12Z</time>
      </trkpt>
      <trkpt lat="43.7421" lon="3.44714">
        <ele>370.73</ele>
        <time>2014-04-13T13:45:17Z</time>
      </trkpt>
      <trkpt lat="43.74207" lon="3.44718">
        <ele>372.65</ele>
        <time>2014-04-13T13:45:18Z</time>
      </trkpt>
      <trkpt lat="43.74202" lon="3.4472">
        <ele>373.61</ele>
        <time>2014-04-13T13:45:19Z</time>
      </trkpt>
      <trkpt lat="43.74183" lon="3.4471">
        <ele>376.01</ele>
        <time>2014-04-13T13:45:21Z</time>
      </trkpt>
      <trkpt lat="43.74177" lon="3.44698">
        <ele>376.97</ele>
        <time>2014-04-13T13:45:22Z</time>
      </trkpt>
      <trkpt lat="43.74169" lon="3.44687">
        <ele>376.97</ele>
        <time>2014-04-13T13:45:23Z</time>
      </trkpt>
      <trkpt lat="43.74158" lon="3.44676">
        <ele>377.45</ele>
        <time>2014-04-13T13:45:24Z</time>
      </trkpt>
      <trkpt lat="43.7414" lon="3.44665">
        <ele>378.9</ele>
        <time>2014-04-13T13:45:25Z</time>
      </trkpt>
      <trkpt lat="43.74124" lon="3.44658">
        <ele>379.86</ele>
        <time>2014-04-13T13:45:26Z</time>
      </trkpt>
      <trkpt lat="43.74107" lon="3.44659">
        <ele>380.34</ele>
        <time>2014-04-13T13:45:27Z</time>
      </trkpt>
      <trkpt lat="43.7409" lon="3.4466">
        <ele>381.3</ele>
        <time>2014-04-13T13:45:28Z</time>
      </trkpt>
      <trkpt lat="43.74074" lon="3.44661">
        <ele>381.3</ele>
        <time>2014-04-13T13:45:29Z</time>
      </trkpt>
      <trkpt lat="43.74058" lon="3.44656">
        <ele>382.26</ele>
        <time>2014-04-13T13:45:30Z</time>
      </trkpt>
      <trkpt lat="43.74042" lon="3.44647">
        <ele>383.7</ele>
        <time>2014-04-13T13:45:31Z</time>
      </trkpt>
      <trkpt lat="43.74028" lon="3.44637">
        <ele>384.66</ele>
        <time>2014-04-13T13:45:32Z</time>
      </trkpt>
      <trkpt lat="43.74013" lon="3.44629">
        <ele>385.15</ele>
        <time>2014-04-13T13:45:33Z</time>
      </trkpt>
      <trkpt lat="43.73994" lon="3.44626">
        <ele>386.11</ele>
        <time>2014-04-13T13:45:34Z</time>
      </trkpt>
      <trkpt lat="43.73974" lon="3.44621">
        <ele>387.07</ele>
        <time>2014-04-13T13:45:35Z</time>
      </trkpt>
      <trkpt lat="43.73836" lon="3.44587">
        <ele>392.36</ele>
        <time>2014-04-13T13:45:42Z</time>
      </trkpt>
      <trkpt lat="43.73818" lon="3.44588">
        <ele>393.32</ele>
        <time>2014-04-13T13:45:43Z</time>
      </trkpt>
      <trkpt lat="43.73801" lon="3.44594">
        <ele>394.28</ele>
        <time>2014-04-13T13:45:44Z</time>
      </trkpt>
      <trkpt lat="43.73786" lon="3.44604">
        <ele>395.72</ele>
        <time>2014-04-13T13:45:45Z</time>
      </trkpt>
      <trkpt lat="43.73772" lon="3.44615">
        <ele>396.68</ele>
        <time>2014-04-13T13:45:46Z</time>
      </trkpt>
      <trkpt lat="43.73757" lon="3.44627">
        <ele>397.64</ele>
        <time>2014-04-13T13:45:47Z</time>
      </trkpt>
      <trkpt lat="43.7374" lon="3.44636">
        <ele>398.6</ele>
        <time>2014-04-13T13:45:48Z</time>
      </trkpt>
      <trkpt lat="43.73723" lon="3.44642">
        <ele>400.05</ele>
        <time>2014-04-13T13:45:49Z</time>
      </trkpt>
      <trkpt lat="43.73659" lon="3.44679">
        <ele>404.37</ele>
        <time>2014-04-13T13:45:53Z</time>
      </trkpt>
      <trkpt lat="43.73645" lon="3.44693">
        <ele>406.29</ele>
        <time>2014-04-13T13:45:54Z</time>
      </trkpt>
      <trkpt lat="43.73633" lon="3.44708">
        <ele>407.26</ele>
        <time>2014-04-13T13:45:55Z</time>
      </trkpt>
      <trkpt lat="43.73621" lon="3.4472">
        <ele>408.7</ele>
        <time>2014-04-13T13:45:56Z</time>
      </trkpt>
      <trkpt lat="43.7361" lon="3.44729">
        <ele>409.66</ele>
        <time>2014-04-13T13:45:57Z</time>
      </trkpt>
      <trkpt lat="43.73595" lon="3.44729">
        <ele>411.1</ele>
        <time>2014-04-13T13:45:58Z</time>
      </trkpt>
      <trkpt lat="43.73581" lon="3.44728">
        <ele>413.02</ele>
        <time>2014-04-13T13:45:59Z</time>
      </trkpt>
      <trkpt lat="43.73567" lon="3.44727">
        <ele>414.47</ele>
        <time>2014-04-13T13:46:00Z</time>
      </trkpt>
      <trkpt lat="43.73556" lon="3.44728">
        <ele>416.39</ele>
        <time>2014-04-13T13:46:01Z</time>
      </trkpt>
      <trkpt lat="43.73545" lon="3.44732">
        <ele>417.83</ele>
        <time>2014-04-13T13:46:02Z</time>
      </trkpt>
      <trkpt lat="43.73534" lon="3.44744">
        <ele>418.79</ele>
        <time>2014-04-13T13:46:03Z</time>
      </trkpt>
      <trkpt lat="43.73523" lon="3.44756">
        <ele>420.71</ele>
        <time>2014-04-13T13:46:04Z</time>
      </trkpt>
      <trkpt lat="43.73512" lon="3.4477">
        <ele>422.64</ele>
        <time>2014-04-13T13:46:05Z</time>
      </trkpt>
      <trkpt lat="43.73502" lon="3.44786">
        <ele>423.6</ele>
        <time>2014-04-13T13:46:06Z</time>
      </trkpt>
      <trkpt lat="43.73493" lon="3.44799">
        <ele>424.56</ele>
        <time>2014-04-13T13:46:07Z</time>
      </trkpt>
      <trkpt lat="43.73481" lon="3.44809">
        <ele>426</ele>
        <time>2014-04-13T13:46:08Z</time>
      </trkpt>
      <trkpt lat="43.73468" lon="3.44815">
        <ele>426.48</ele>
        <time>2014-04-13T13:46:09Z</time>
      </trkpt>
      <trkpt lat="43.73451" lon="3.44818">
        <ele>427.44</ele>
        <time>2014-04-13T13:46:10Z</time>
      </trkpt>
      <trkpt lat="43.73434" lon="3.44823">
        <ele>428.89</ele>
        <time>2014-04-13T13:46:11Z</time>
      </trkpt>
      <trkpt lat="43.73416" lon="3.44827">
        <ele>429.85</ele>
        <time>2014-04-13T13:46:12Z</time>
      </trkpt>
      <trkpt lat="43.73381" lon="3.44837">
        <ele>430.81</ele>
        <time>2014-04-13T13:46:14Z</time>
      </trkpt>
      <trkpt lat="43.73364" lon="3.44846">
        <ele>431.77</ele>
        <time>2014-04-13T13:46:15Z</time>
      </trkpt>
      <trkpt lat="43.73346" lon="3.44858">
        <ele>432.73</ele>
        <time>2014-04-13T13:46:16Z</time>
      </trkpt>
      <trkpt lat="43.7327" lon="3.44891">
        <ele>435.13</ele>
        <time>2014-04-13T13:46:20Z</time>
      </trkpt>
      <trkpt lat="43.73251" lon="3.44891">
        <ele>436.1</ele>
        <time>2014-04-13T13:46:21Z</time>
      </trkpt>
      <trkpt lat="43.7323" lon="3.44886">
        <ele>437.54</ele>
        <time>2014-04-13T13:46:22Z</time>
      </trkpt>
      <trkpt lat="43.73212" lon="3.44882">
        <ele>438.5</ele>
        <time>2014-04-13T13:46:23Z</time>
      </trkpt>
      <trkpt lat="43.73196" lon="3.44875">
        <ele>439.46</ele>
        <time>2014-04-13T13:46:24Z</time>
      </trkpt>
      <trkpt lat="43.73182" lon="3.44869">
        <ele>439.94</ele>
        <time>2014-04-13T13:46:25Z</time>
      </trkpt>
      <trkpt lat="43.7317" lon="3.44863">
        <ele>440.42</ele>
        <time>2014-04-13T13:46:26Z</time>
      </trkpt>
      <trkpt lat="43.7316" lon="3.44861">
        <ele>441.86</ele>
        <time>2014-04-13T13:46:27Z</time>
      </trkpt>
      <trkpt lat="43.73153" lon="3.44863">
        <ele>442.34</ele>
        <time>2014-04-13T13:46:28Z</time>
      </trkpt>
      <trkpt lat="43.73151" lon="3.44869">
        <ele>442.82</ele>
        <time>2014-04-13T13:46:29Z</time>
      </trkpt>
      <trkpt lat="43.73154" lon="3.44875">
        <ele>443.31</ele>
        <time>2014-04-13T13:46:30Z</time>
      </trkpt>
      <trkpt lat="43.73156" lon="3.44882">
        <ele>442.82</ele>
        <time>2014-04-13T13:46:31Z</time>
      </trkpt>
      <trkpt lat="43.73162" lon="3.44888">
        <ele>443.31</ele>
        <time>2014-04-13T13:46:32Z</time>
      </trkpt>
      <trkpt lat="43.73171" lon="3.44894">
        <ele>444.27</ele>
        <time>2014-04-13T13:46:33Z</time>
      </trkpt>
      <trkpt lat="43.73184" lon="3.449">
        <ele>445.23</ele>
        <time>2014-04-13T13:46:34Z</time>
      </trkpt>
      <trkpt lat="43.732" lon="3.44907">
        <ele>446.19</ele>
        <time>2014-04-13T13:46:35Z</time>
      </trkpt>
      <trkpt lat="43.73266" lon="3.4493">
        <ele>449.55</ele>
        <time>2014-04-13T13:46:39Z</time>
      </trkpt>
      <trkpt lat="43.73283" lon="3.44931">
        <ele>450.52</ele>
        <time>2014-04-13T13:46:40Z</time>
      </trkpt>
      <trkpt lat="43.73345" lon="3.44927">
        <ele>455.32</ele>
        <time>2014-04-13T13:46:45Z</time>
      </trkpt>
      <trkpt lat="43.73352" lon="3.44931">
        <ele>455.8</ele>
        <time>2014-04-13T13:46:46Z</time>
      </trkpt>
      <trkpt lat="43.73356" lon="3.44938">
        <ele>456.76</ele>
        <time>2014-04-13T13:46:47Z</time>
      </trkpt>
      <trkpt lat="43.73358" lon="3.44949">
        <ele>457.24</ele>
        <time>2014-04-13T13:46:48Z</time>
      </trkpt>
      <trkpt lat="43.73354" lon="3.4496">
        <ele>457.72</ele>
        <time>2014-04-13T13:46:49Z</time>
      </trkpt>
      <trkpt lat="43.7335" lon="3.44972">
        <ele>458.21</ele>
        <time>2014-04-13T13:46:50Z</time>
      </trkpt>
      <trkpt lat="43.73342" lon="3.44985">
        <ele>458.69</ele>
        <time>2014-04-13T13:46:51Z</time>
      </trkpt>
      <trkpt lat="43.73335" lon="3.45">
        <ele>459.17</ele>
        <time>2014-04-13T13:46:52Z</time>
      </trkpt>
      <trkpt lat="43.73329" lon="3.45017">
        <ele>460.61</ele>
        <time>2014-04-13T13:46:53Z</time>
      </trkpt>
      <trkpt lat="43.73326" lon="3.45035">
        <ele>461.57</ele>
        <time>2014-04-13T13:46:54Z</time>
      </trkpt>
      <trkpt lat="43.73327" lon="3.45055">
        <ele>462.05</ele>
        <time>2014-04-13T13:46:55Z</time>
      </trkpt>
      <trkpt lat="43.73328" lon="3.45076">
        <ele>463.01</ele>
        <time>2014-04-13T13:46:56Z</time>
      </trkpt>
      <trkpt lat="43.73332" lon="3.451">
        <ele>464.45</ele>
        <time>2014-04-13T13:46:57Z</time>
      </trkpt>
      <trkpt lat="43.73337" lon="3.45126">
        <ele>465.9</ele>
        <time>2014-04-13T13:46:58Z</time>
      </trkpt>
      <trkpt lat="43.73348" lon="3.45285">
        <ele>475.99</ele>
        <time>2014-04-13T13:47:04Z</time>
      </trkpt>
      <trkpt lat="43.73348" lon="3.45395">
        <ele>482.72</ele>
        <time>2014-04-13T13:47:09Z</time>
      </trkpt>
      <trkpt lat="43.73351" lon="3.45416">
        <ele>483.68</ele>
        <time>2014-04-13T13:47:10Z</time>
      </trkpt>
      <trkpt lat="43.73358" lon="3.45437">
        <ele>484.64</ele>
        <time>2014-04-13T13:47:11Z</time>
      </trkpt>
      <trkpt lat="43.73367" lon="3.45456">
        <ele>485.6</ele>
        <time>2014-04-13T13:47:12Z</time>
      </trkpt>
      <trkpt lat="43.73377" lon="3.45474">
        <ele>486.56</ele>
        <time>2014-04-13T13:47:13Z</time>
      </trkpt>
      <trkpt lat="43.7339" lon="3.4549">
        <ele>488.01</ele>
        <time>2014-04-13T13:47:14Z</time>
      </trkpt>
      <trkpt lat="43.73404" lon="3.45503">
        <ele>489.45</ele>
        <time>2014-04-13T13:47:15Z</time>
      </trkpt>
      <trkpt lat="43.73419" lon="3.45516">
        <ele>491.37</ele>
        <time>2014-04-13T13:47:16Z</time>
      </trkpt>
      <trkpt lat="43.73465" lon="3.45559">
        <ele>497.62</ele>
        <time>2014-04-13T13:47:20Z</time>
      </trkpt>
      <trkpt lat="43.73467" lon="3.45571">
        <ele>498.1</ele>
        <time>2014-04-13T13:47:21Z</time>
      </trkpt>
      <trkpt lat="43.73466" lon="3.45587">
        <ele>499.06</ele>
        <time>2014-04-13T13:47:22Z</time>
      </trkpt>
      <trkpt lat="43.73464" lon="3.45626">
        <ele>500.98</ele>
        <time>2014-04-13T13:47:24Z</time>
      </trkpt>
      <trkpt lat="43.73466" lon="3.45648">
        <ele>501.95</ele>
        <time>2014-04-13T13:47:25Z</time>
      </trkpt>
      <trkpt lat="43.73479" lon="3.4573">
        <ele>506.75</ele>
        <time>2014-04-13T13:47:29Z</time>
      </trkpt>
      <trkpt lat="43.73485" lon="3.45748">
        <ele>508.19</ele>
        <time>2014-04-13T13:47:30Z</time>
      </trkpt>
      <trkpt lat="43.73503" lon="3.45796">
        <ele>510.6</ele>
        <time>2014-04-13T13:47:34Z</time>
      </trkpt>
      <trkpt lat="43.73507" lon="3.45802">
        <ele>511.08</ele>
        <time>2014-04-13T13:47:35Z</time>
      </trkpt>
      <trkpt lat="43.73512" lon="3.45806">
        <ele>511.56</ele>
        <time>2014-04-13T13:47:36Z</time>
      </trkpt>
      <trkpt lat="43.73517" lon="3.45808">
        <ele>511.56</ele>
        <time>2014-04-13T13:47:37Z</time>
      </trkpt>
      <trkpt lat="43.7352" lon="3.45807">
        <ele>511.56</ele>
        <time>2014-04-13T13:47:38Z</time>
      </trkpt>
      <trkpt lat="43.7352" lon="3.45804">
        <ele>512.52</ele>
        <time>2014-04-13T13:47:49Z</time>
      </trkpt>
      <trkpt lat="43.7352" lon="3.45803">
        <ele>513.48</ele>
        <time>2014-04-13T13:47:58Z</time>
      </trkpt>
      <trkpt lat="43.73521" lon="3.45792">
        <ele>513</ele>
        <time>2014-04-13T13:48:01Z</time>
      </trkpt>
      <trkpt lat="43.73518" lon="3.45785">
        <ele>513</ele>
        <time>2014-04-13T13:48:02Z</time>
      </trkpt>
      <trkpt lat="43.73513" lon="3.45777">
        <ele>513.48</ele>
        <time>2014-04-13T13:48:03Z</time>
      </trkpt>
      <trkpt lat="43.73508" lon="3.45767">
        <ele>513.96</ele>
        <time>2014-04-13T13:48:04Z</time>
      </trkpt>
      <trkpt lat="43.73503" lon="3.45755">
        <ele>514.44</ele>
        <time>2014-04-13T13:48:05Z</time>
      </trkpt>
      <trkpt lat="43.735" lon="3.45739">
        <ele>514.92</ele>
        <time>2014-04-13T13:48:06Z</time>
      </trkpt>
      <trkpt lat="43.73497" lon="3.45721">
        <ele>515.4</ele>
        <time>2014-04-13T13:48:07Z</time>
      </trkpt>
      <trkpt lat="43.73497" lon="3.457">
        <ele>516.37</ele>
        <time>2014-04-13T13:48:08Z</time>
      </trkpt>
      <trkpt lat="43.73498" lon="3.45678">
        <ele>517.33</ele>
        <time>2014-04-13T13:48:09Z</time>
      </trkpt>
      <trkpt lat="43.73501" lon="3.45656">
        <ele>517.81</ele>
        <time>2014-04-13T13:48:10Z</time>
      </trkpt>
      <trkpt lat="43.73506" lon="3.45635">
        <ele>518.77</ele>
        <time>2014-04-13T13:48:11Z</time>
      </trkpt>
      <trkpt lat="43.73512" lon="3.45615">
        <ele>519.25</ele>
        <time>2014-04-13T13:48:12Z</time>
      </trkpt>
      <trkpt lat="43.73519" lon="3.45596">
        <ele>520.21</ele>
        <time>2014-04-13T13:48:13Z</time>
      </trkpt>
      <trkpt lat="43.73527" lon="3.45579">
        <ele>521.17</ele>
        <time>2014-04-13T13:48:14Z</time>
      </trkpt>
      <trkpt lat="43.73538" lon="3.45539">
        <ele>522.61</ele>
        <time>2014-04-13T13:48:16Z</time>
      </trkpt>
      <trkpt lat="43.73537" lon="3.45519">
        <ele>523.58</ele>
        <time>2014-04-13T13:48:17Z</time>
      </trkpt>
      <trkpt lat="43.73531" lon="3.45498">
        <ele>524.06</ele>
        <time>2014-04-13T13:48:18Z</time>
      </trkpt>
      <trkpt lat="43.73522" lon="3.45476">
        <ele>525.02</ele>
        <time>2014-04-13T13:48:19Z</time>
      </trkpt>
      <trkpt lat="43.73508" lon="3.45454">
        <ele>526.94</ele>
        <time>2014-04-13T13:48:20Z</time>
      </trkpt>
      <trkpt lat="43.73498" lon="3.45432">
        <ele>527.42</ele>
        <time>2014-04-13T13:48:21Z</time>
      </trkpt>
      <trkpt lat="43.73471" lon="3.45379">
        <ele>530.3</ele>
        <time>2014-04-13T13:48:24Z</time>
      </trkpt>
      <trkpt lat="43.73466" lon="3.45364">
        <ele>531.27</ele>
        <time>2014-04-13T13:48:25Z</time>
      </trkpt>
      <trkpt lat="43.73467" lon="3.45347">
        <ele>531.75</ele>
        <time>2014-04-13T13:48:26Z</time>
      </trkpt>
      <trkpt lat="43.7347" lon="3.4533">
        <ele>533.19</ele>
        <time>2014-04-13T13:48:27Z</time>
      </trkpt>
      <trkpt lat="43.73477" lon="3.45312">
        <ele>534.15</ele>
        <time>2014-04-13T13:48:28Z</time>
      </trkpt>
      <trkpt lat="43.73485" lon="3.45296">
        <ele>535.11</ele>
        <time>2014-04-13T13:48:29Z</time>
      </trkpt>
      <trkpt lat="43.73496" lon="3.45282">
        <ele>536.55</ele>
        <time>2014-04-13T13:48:30Z</time>
      </trkpt>
      <trkpt lat="43.73507" lon="3.45269">
        <ele>537.51</ele>
        <time>2014-04-13T13:48:31Z</time>
      </trkpt>
      <trkpt lat="43.73522" lon="3.45259">
        <ele>538.48</ele>
        <time>2014-04-13T13:48:32Z</time>
      </trkpt>
      <trkpt lat="43.73538" lon="3.4525">
        <ele>539.92</ele>
        <time>2014-04-13T13:48:33Z</time>
      </trkpt>
      <trkpt lat="43.73557" lon="3.45245">
        <ele>541.36</ele>
        <time>2014-04-13T13:48:34Z</time>
      </trkpt>
      <trkpt lat="43.73576" lon="3.45239">
        <ele>542.32</ele>
        <time>2014-04-13T13:48:35Z</time>
      </trkpt>
      <trkpt lat="43.73594" lon="3.45235">
        <ele>543.76</ele>
        <time>2014-04-13T13:48:36Z</time>
      </trkpt>
      <trkpt lat="43.73651" lon="3.45232">
        <ele>548.09</ele>
        <time>2014-04-13T13:48:40Z</time>
      </trkpt>
      <trkpt lat="43.73659" lon="3.45234">
        <ele>549.05</ele>
        <time>2014-04-13T13:48:41Z</time>
      </trkpt>
      <trkpt lat="43.73662" lon="3.45243">
        <ele>549.53</ele>
        <time>2014-04-13T13:48:42Z</time>
      </trkpt>
      <trkpt lat="43.73662" lon="3.45254">
        <ele>549.53</ele>
        <time>2014-04-13T13:48:43Z</time>
      </trkpt>
      <trkpt lat="43.73658" lon="3.45265">
        <ele>550.49</ele>
        <time>2014-04-13T13:48:44Z</time>
      </trkpt>
      <trkpt lat="43.7365" lon="3.45275">
        <ele>550.97</ele>
        <time>2014-04-13T13:48:45Z</time>
      </trkpt>
      <trkpt lat="43.73639" lon="3.45281">
        <ele>550.97</ele>
        <time>2014-04-13T13:48:46Z</time>
      </trkpt>
      <trkpt lat="43.73621" lon="3.45283">
        <ele>551.93</ele>
        <time>2014-04-13T13:48:47Z</time>
      </trkpt>
      <trkpt lat="43.73604" lon="3.45285">
        <ele>552.9</ele>
        <time>2014-04-13T13:48:48Z</time>
      </trkpt>
      <trkpt lat="43.73586" lon="3.45286">
        <ele>553.86</ele>
        <time>2014-04-13T13:48:49Z</time>
      </trkpt>
      <trkpt lat="43.73569" lon="3.45289">
        <ele>554.82</ele>
        <time>2014-04-13T13:48:50Z</time>
      </trkpt>
      <trkpt lat="43.73553" lon="3.45296">
        <ele>555.78</ele>
        <time>2014-04-13T13:48:51Z</time>
      </trkpt>
      <trkpt lat="43.73539" lon="3.45305">
        <ele>556.74</ele>
        <time>2014-04-13T13:48:52Z</time>
      </trkpt>
      <trkpt lat="43.73527" lon="3.45315">
        <ele>557.22</ele>
        <time>2014-04-13T13:48:53Z</time>
      </trkpt>
      <trkpt lat="43.73521" lon="3.45328">
        <ele>558.18</ele>
        <time>2014-04-13T13:48:54Z</time>
      </trkpt>
      <trkpt lat="43.73518" lon="3.45341">
        <ele>558.18</ele>
        <time>2014-04-13T13:48:55Z</time>
      </trkpt>
      <trkpt lat="43.7352" lon="3.45356">
        <ele>558.66</ele>
        <time>2014-04-13T13:48:56Z</time>
      </trkpt>
      <trkpt lat="43.73527" lon="3.4537">
        <ele>559.14</ele>
        <time>2014-04-13T13:48:57Z</time>
      </trkpt>
      <trkpt lat="43.73536" lon="3.45385">
        <ele>559.62</ele>
        <time>2014-04-13T13:48:58Z</time>
      </trkpt>
      <trkpt lat="43.73549" lon="3.45403">
        <ele>560.59</ele>
        <time>2014-04-13T13:48:59Z</time>
      </trkpt>
      <trkpt lat="43.73562" lon="3.45423">
        <ele>562.03</ele>
        <time>2014-04-13T13:49:00Z</time>
      </trkpt>
      <trkpt lat="43.73576" lon="3.45443">
        <ele>563.95</ele>
        <time>2014-04-13T13:49:01Z</time>
      </trkpt>
      <trkpt lat="43.73645" lon="3.45532">
        <ele>569.24</ele>
        <time>2014-04-13T13:49:06Z</time>
      </trkpt>
      <trkpt lat="43.73655" lon="3.45552">
        <ele>570.68</ele>
        <time>2014-04-13T13:49:07Z</time>
      </trkpt>
      <trkpt lat="43.73662" lon="3.45574">
        <ele>571.64</ele>
        <time>2014-04-13T13:49:08Z</time>
      </trkpt>
      <trkpt lat="43.73662" lon="3.45597">
        <ele>572.6</ele>
        <time>2014-04-13T13:49:09Z</time>
      </trkpt>
      <trkpt lat="43.73661" lon="3.4562">
        <ele>573.56</ele>
        <time>2014-04-13T13:49:10Z</time>
      </trkpt>
      <trkpt lat="43.73693" lon="3.45767">
        <ele>579.33</ele>
        <time>2014-04-13T13:49:16Z</time>
      </trkpt>
      <trkpt lat="43.73718" lon="3.45836">
        <ele>584.14</ele>
        <time>2014-04-13T13:49:19Z</time>
      </trkpt>
      <trkpt lat="43.7372" lon="3.45863">
        <ele>586.06</ele>
        <time>2014-04-13T13:49:20Z</time>
      </trkpt>
      <trkpt lat="43.73721" lon="3.45891">
        <ele>587.5</ele>
        <time>2014-04-13T13:49:21Z</time>
      </trkpt>
      <trkpt lat="43.73727" lon="3.46001">
        <ele>591.83</ele>
        <time>2014-04-13T13:49:25Z</time>
      </trkpt>
      <trkpt lat="43.73725" lon="3.46029">
        <ele>593.27</ele>
        <time>2014-04-13T13:49:26Z</time>
      </trkpt>
      <trkpt lat="43.73717" lon="3.46106">
        <ele>597.6</ele>
        <time>2014-04-13T13:49:29Z</time>
      </trkpt>
      <trkpt lat="43.73711" lon="3.46131">
        <ele>599.04</ele>
        <time>2014-04-13T13:49:30Z</time>
      </trkpt>
      <trkpt lat="43.73669" lon="3.46282">
        <ele>607.21</ele>
        <time>2014-04-13T13:49:37Z</time>
      </trkpt>
      <trkpt lat="43.73663" lon="3.46297">
        <ele>608.17</ele>
        <time>2014-04-13T13:49:38Z</time>
      </trkpt>
      <trkpt lat="43.73657" lon="3.46309">
        <ele>609.13</ele>
        <time>2014-04-13T13:49:39Z</time>
      </trkpt>
      <trkpt lat="43.73652" lon="3.46319">
        <ele>610.09</ele>
        <time>2014-04-13T13:49:40Z</time>
      </trkpt>
      <trkpt lat="43.7365" lon="3.46328">
        <ele>610.57</ele>
        <time>2014-04-13T13:49:41Z</time>
      </trkpt>
      <trkpt lat="43.73652" lon="3.46334">
        <ele>611.54</ele>
        <time>2014-04-13T13:49:42Z</time>
      </trkpt>
      <trkpt lat="43.73658" lon="3.46339">
        <ele>612.02</ele>
        <time>2014-04-13T13:49:43Z</time>
      </trkpt>
      <trkpt lat="43.73664" lon="3.46341">
        <ele>612.5</ele>
        <time>2014-04-13T13:49:44Z</time>
      </trkpt>
      <trkpt lat="43.73672" lon="3.46329">
        <ele>612.5</ele>
        <time>2014-04-13T13:49:45Z</time>
      </trkpt>
      <trkpt lat="43.73677" lon="3.46315">
        <ele>612.98</ele>
        <time>2014-04-13T13:49:46Z</time>
      </trkpt>
      <trkpt lat="43.73682" lon="3.46296">
        <ele>613.46</ele>
        <time>2014-04-13T13:49:47Z</time>
      </trkpt>
      <trkpt lat="43.73687" lon="3.46276">
        <ele>614.42</ele>
        <time>2014-04-13T13:49:48Z</time>
      </trkpt>
      <trkpt lat="43.73693" lon="3.46255">
        <ele>615.38</ele>
        <time>2014-04-13T13:49:49Z</time>
      </trkpt>
      <trkpt lat="43.73756" lon="3.46106">
        <ele>623.07</ele>
        <time>2014-04-13T13:49:56Z</time>
      </trkpt>
      <trkpt lat="43.73763" lon="3.46082">
        <ele>624.51</ele>
        <time>2014-04-13T13:49:57Z</time>
      </trkpt>
      <trkpt lat="43.73769" lon="3.46056">
        <ele>625.47</ele>
        <time>2014-04-13T13:49:58Z</time>
      </trkpt>
      <trkpt lat="43.73785" lon="3.45982">
        <ele>629.32</ele>
        <time>2014-04-13T13:50:01Z</time>
      </trkpt>
      <trkpt lat="43.73788" lon="3.45933">
        <ele>631.72</ele>
        <time>2014-04-13T13:50:03Z</time>
      </trkpt>
      <trkpt lat="43.73805" lon="3.45792">
        <ele>638.45</ele>
        <time>2014-04-13T13:50:09Z</time>
      </trkpt>
      <trkpt lat="43.73805" lon="3.4577">
        <ele>639.41</ele>
        <time>2014-04-13T13:50:10Z</time>
      </trkpt>
      <trkpt lat="43.73802" lon="3.45747">
        <ele>640.86</ele>
        <time>2014-04-13T13:50:11Z</time>
      </trkpt>
      <trkpt lat="43.73797" lon="3.45722">
        <ele>641.82</ele>
        <time>2014-04-13T13:50:12Z</time>
      </trkpt>
      <trkpt lat="43.73796" lon="3.45696">
        <ele>643.26</ele>
        <time>2014-04-13T13:50:13Z</time>
      </trkpt>
      <trkpt lat="43.73797" lon="3.45671">
        <ele>644.22</ele>
        <time>2014-04-13T13:50:14Z</time>
      </trkpt>
      <trkpt lat="43.738" lon="3.45647">
        <ele>645.66</ele>
        <time>2014-04-13T13:50:15Z</time>
      </trkpt>
      <trkpt lat="43.73803" lon="3.45629">
        <ele>646.62</ele>
        <time>2014-04-13T13:50:16Z</time>
      </trkpt>
      <trkpt lat="43.73817" lon="3.45597">
        <ele>649.51</ele>
        <time>2014-04-13T13:50:19Z</time>
      </trkpt>
      <trkpt lat="43.73826" lon="3.45592">
        <ele>651.43</ele>
        <time>2014-04-13T13:50:20Z</time>
      </trkpt>
      <trkpt lat="43.73838" lon="3.45591">
        <ele>653.35</ele>
        <time>2014-04-13T13:50:21Z</time>
      </trkpt>
      <trkpt lat="43.73853" lon="3.45594">
        <ele>654.8</ele>
        <time>2014-04-13T13:50:22Z</time>
      </trkpt>
      <trkpt lat="43.73871" lon="3.45601">
        <ele>656.24</ele>
        <time>2014-04-13T13:50:23Z</time>
      </trkpt>
      <trkpt lat="43.73889" lon="3.45611">
        <ele>657.68</ele>
        <time>2014-04-13T13:50:24Z</time>
      </trkpt>
      <trkpt lat="43.73907" lon="3.45619">
        <ele>659.6</ele>
        <time>2014-04-13T13:50:25Z</time>
      </trkpt>
      <trkpt lat="43.73959" lon="3.45646">
        <ele>662.49</ele>
        <time>2014-04-13T13:50:28Z</time>
      </trkpt>
      <trkpt lat="43.73973" lon="3.45657">
        <ele>663.93</ele>
        <time>2014-04-13T13:50:29Z</time>
      </trkpt>
      <trkpt lat="43.74018" lon="3.45682">
        <ele>663.93</ele>
        <time>2014-04-13T13:50:32Z</time>
      </trkpt>
      <trkpt lat="43.74035" lon="3.45683">
        <ele>663.93</ele>
        <time>2014-04-13T13:50:33Z</time>
      </trkpt>
      <trkpt lat="43.74058" lon="3.45675">
        <ele>663.93</ele>
        <time>2014-04-13T13:50:34Z</time>
      </trkpt>
      <trkpt lat="43.7408" lon="3.45663">
        <ele>664.89</ele>
        <time>2014-04-13T13:50:35Z</time>
      </trkpt>
      <trkpt lat="43.741" lon="3.45656">
        <ele>666.33</ele>
        <time>2014-04-13T13:50:36Z</time>
      </trkpt>
      <trkpt lat="43.74217" lon="3.45649">
        <ele>673.06</ele>
        <time>2014-04-13T13:50:43Z</time>
      </trkpt>
      <trkpt lat="43.74228" lon="3.45652">
        <ele>676.91</ele>
        <time>2014-04-13T13:50:44Z</time>
      </trkpt>
      <trkpt lat="43.74244" lon="3.45662">
        <ele>676.91</ele>
        <time>2014-04-13T13:50:45Z</time>
      </trkpt>
      <trkpt lat="43.74257" lon="3.45679">
        <ele>677.39</ele>
        <time>2014-04-13T13:50:46Z</time>
      </trkpt>
      <trkpt lat="43.74268" lon="3.457">
        <ele>678.83</ele>
        <time>2014-04-13T13:50:47Z</time>
      </trkpt>
      <trkpt lat="43.74281" lon="3.45721">
        <ele>679.79</ele>
        <time>2014-04-13T13:50:48Z</time>
      </trkpt>
      <trkpt lat="43.74358" lon="3.45807">
        <ele>690.36</ele>
        <time>2014-04-13T13:50:54Z</time>
      </trkpt>
      <trkpt lat="43.74373" lon="3.45817">
        <ele>691.33</ele>
        <time>2014-04-13T13:50:55Z</time>
      </trkpt>
      <trkpt lat="43.74389" lon="3.4582">
        <ele>691.81</ele>
        <time>2014-04-13T13:50:56Z</time>
      </trkpt>
      <trkpt lat="43.74405" lon="3.45819">
        <ele>692.29</ele>
        <time>2014-04-13T13:50:57Z</time>
      </trkpt>
      <trkpt lat="43.74421" lon="3.45818">
        <ele>692.77</ele>
        <time>2014-04-13T13:50:58Z</time>
      </trkpt>
      <trkpt lat="43.74435" lon="3.45818">
        <ele>693.73</ele>
        <time>2014-04-13T13:50:59Z</time>
      </trkpt>
      <trkpt lat="43.74462" lon="3.45824">
        <ele>696.61</ele>
        <time>2014-04-13T13:51:01Z</time>
      </trkpt>
      <trkpt lat="43.74474" lon="3.45831">
        <ele>698.05</ele>
        <time>2014-04-13T13:51:02Z</time>
      </trkpt>
      <trkpt lat="43.74485" lon="3.45838">
        <ele>699.02</ele>
        <time>2014-04-13T13:51:03Z</time>
      </trkpt>
      <trkpt lat="43.74491" lon="3.4585">
        <ele>700.46</ele>
        <time>2014-04-13T13:51:04Z</time>
      </trkpt>
      <trkpt lat="43.74496" lon="3.45866">
        <ele>701.42</ele>
        <time>2014-04-13T13:51:05Z</time>
      </trkpt>
      <trkpt lat="43.745" lon="3.45882">
        <ele>702.86</ele>
        <time>2014-04-13T13:51:06Z</time>
      </trkpt>
      <trkpt lat="43.74504" lon="3.45898">
        <ele>703.82</ele>
        <time>2014-04-13T13:51:07Z</time>
      </trkpt>
      <trkpt lat="43.74518" lon="3.45979">
        <ele>705.75</ele>
        <time>2014-04-13T13:51:15Z</time>
      </trkpt>
      <trkpt lat="43.74523" lon="3.45989">
        <ele>705.75</ele>
        <time>2014-04-13T13:51:16Z</time>
      </trkpt>
      <trkpt lat="43.74559" lon="3.46061">
        <ele>706.23</ele>
        <time>2014-04-13T13:51:20Z</time>
      </trkpt>
      <trkpt lat="43.74647" lon="3.46204">
        <ele>704.78</ele>
        <time>2014-04-13T13:51:28Z</time>
      </trkpt>
      <trkpt lat="43.74662" lon="3.46212">
        <ele>704.3</ele>
        <time>2014-04-13T13:51:29Z</time>
      </trkpt>
      <trkpt lat="43.74678" lon="3.46223">
        <ele>704.3</ele>
        <time>2014-04-13T13:51:30Z</time>
      </trkpt>
      <trkpt lat="43.74697" lon="3.46229">
        <ele>704.3</ele>
        <time>2014-04-13T13:51:31Z</time>
      </trkpt>
      <trkpt lat="43.74717" lon="3.46235">
        <ele>703.82</ele>
        <time>2014-04-13T13:51:32Z</time>
      </trkpt>
      <trkpt lat="43.74737" lon="3.46238">
        <ele>703.82</ele>
        <time>2014-04-13T13:51:33Z</time>
      </trkpt>
      <trkpt lat="43.74774" lon="3.46245">
        <ele>703.34</ele>
        <time>2014-04-13T13:51:35Z</time>
      </trkpt>
      <trkpt lat="43.7479" lon="3.46243">
        <ele>702.86</ele>
        <time>2014-04-13T13:51:36Z</time>
      </trkpt>
      <trkpt lat="43.74807" lon="3.46245">
        <ele>702.86</ele>
        <time>2014-04-13T13:51:37Z</time>
      </trkpt>
      <trkpt lat="43.74822" lon="3.46248">
        <ele>701.9</ele>
        <time>2014-04-13T13:51:38Z</time>
      </trkpt>
      <trkpt lat="43.74837" lon="3.46257">
        <ele>701.42</ele>
        <time>2014-04-13T13:51:39Z</time>
      </trkpt>
      <trkpt lat="43.74851" lon="3.4627">
        <ele>700.46</ele>
        <time>2014-04-13T13:51:40Z</time>
      </trkpt>
      <trkpt lat="43.74865" lon="3.46284">
        <ele>699.98</ele>
        <time>2014-04-13T13:51:41Z</time>
      </trkpt>
      <trkpt lat="43.74877" lon="3.46296">
        <ele>699.02</ele>
        <time>2014-04-13T13:51:42Z</time>
      </trkpt>
      <trkpt lat="43.7489" lon="3.46303">
        <ele>698.53</ele>
        <time>2014-04-13T13:51:43Z</time>
      </trkpt>
      <trkpt lat="43.74905" lon="3.46307">
        <ele>698.53</ele>
        <time>2014-04-13T13:51:44Z</time>
      </trkpt>
      <trkpt lat="43.7492" lon="3.46312">
        <ele>698.05</ele>
        <time>2014-04-13T13:51:45Z</time>
      </trkpt>
      <trkpt lat="43.74936" lon="3.46322">
        <ele>697.57</ele>
        <time>2014-04-13T13:51:46Z</time>
      </trkpt>
      <trkpt lat="43.74952" lon="3.46335">
        <ele>697.57</ele>
        <time>2014-04-13T13:51:47Z</time>
      </trkpt>
      <trkpt lat="43.7497" lon="3.46348">
        <ele>697.57</ele>
        <time>2014-04-13T13:51:48Z</time>
      </trkpt>
      <trkpt lat="43.74989" lon="3.46358">
        <ele>698.05</ele>
        <time>2014-04-13T13:51:49Z</time>
      </trkpt>
      <trkpt lat="43.75006" lon="3.46366">
        <ele>698.53</ele>
        <time>2014-04-13T13:51:50Z</time>
      </trkpt>
      <trkpt lat="43.75044" lon="3.46376">
        <ele>698.05</ele>
        <time>2014-04-13T13:51:53Z</time>
      </trkpt>
      <trkpt lat="43.75054" lon="3.46367">
        <ele>698.05</ele>
        <time>2014-04-13T13:51:54Z</time>
      </trkpt>
      <trkpt lat="43.75063" lon="3.46356">
        <ele>698.53</ele>
        <time>2014-04-13T13:51:55Z</time>
      </trkpt>
      <trkpt lat="43.75073" lon="3.46348">
        <ele>698.53</ele>
        <time>2014-04-13T13:51:56Z</time>
      </trkpt>
      <trkpt lat="43.75078" lon="3.4634">
        <ele>697.57</ele>
        <time>2014-04-13T13:51:57Z</time>
      </trkpt>
      <trkpt lat="43.75092" lon="3.46346">
        <ele>698.05</ele>
        <time>2014-04-13T13:51:58Z</time>
      </trkpt>
      <trkpt lat="43.75108" lon="3.46353">
        <ele>698.05</ele>
        <time>2014-04-13T13:51:59Z</time>
      </trkpt>
      <trkpt lat="43.75124" lon="3.46366">
        <ele>697.57</ele>
        <time>2014-04-13T13:52:00Z</time>
      </trkpt>
      <trkpt lat="43.7514" lon="3.46378">
        <ele>697.57</ele>
        <time>2014-04-13T13:52:01Z</time>
      </trkpt>
      <trkpt lat="43.75158" lon="3.46386">
        <ele>697.09</ele>
        <time>2014-04-13T13:52:02Z</time>
      </trkpt>
      <trkpt lat="43.75178" lon="3.46393">
        <ele>697.09</ele>
        <time>2014-04-13T13:52:03Z</time>
      </trkpt>
      <trkpt lat="43.75198" lon="3.46399">
        <ele>697.09</ele>
        <time>2014-04-13T13:52:04Z</time>
      </trkpt>
      <trkpt lat="43.75393" lon="3.46466">
        <ele>693.73</ele>
        <time>2014-04-13T13:52:14Z</time>
      </trkpt>
      <trkpt lat="43.75599" lon="3.46541">
        <ele>688.92</ele>
        <time>2014-04-13T13:52:24Z</time>
      </trkpt>
      <trkpt lat="43.75717" lon="3.46602">
        <ele>687.96</ele>
        <time>2014-04-13T13:52:30Z</time>
      </trkpt>
      <trkpt lat="43.75737" lon="3.46612">
        <ele>687.48</ele>
        <time>2014-04-13T13:52:31Z</time>
      </trkpt>
      <trkpt lat="43.75758" lon="3.46618">
        <ele>687</ele>
        <time>2014-04-13T13:52:32Z</time>
      </trkpt>
      <trkpt lat="43.75781" lon="3.46622">
        <ele>686.52</ele>
        <time>2014-04-13T13:52:33Z</time>
      </trkpt>
      <trkpt lat="43.75803" lon="3.46625">
        <ele>686.52</ele>
        <time>2014-04-13T13:52:34Z</time>
      </trkpt>
      <trkpt lat="43.75965" lon="3.46677">
        <ele>688.44</ele>
        <time>2014-04-13T13:52:41Z</time>
      </trkpt>
      <trkpt lat="43.76224" lon="3.46777">
        <ele>696.13</ele>
        <time>2014-04-13T13:52:52Z</time>
      </trkpt>
      <trkpt lat="43.76245" lon="3.46778">
        <ele>695.65</ele>
        <time>2014-04-13T13:52:53Z</time>
      </trkpt>
      <trkpt lat="43.76267" lon="3.46772">
        <ele>695.65</ele>
        <time>2014-04-13T13:52:54Z</time>
      </trkpt>
      <trkpt lat="43.7646" lon="3.46717">
        <ele>697.09</ele>
        <time>2014-04-13T13:53:02Z</time>
      </trkpt>
      <trkpt lat="43.76639" lon="3.46658">
        <ele>702.86</ele>
        <time>2014-04-13T13:53:10Z</time>
      </trkpt>
      <trkpt lat="43.76663" lon="3.46656">
        <ele>702.86</ele>
        <time>2014-04-13T13:53:11Z</time>
      </trkpt>
      <trkpt lat="43.76734" lon="3.46648">
        <ele>701.42</ele>
        <time>2014-04-13T13:53:14Z</time>
      </trkpt>
      <trkpt lat="43.76756" lon="3.46639">
        <ele>699.5</ele>
        <time>2014-04-13T13:53:15Z</time>
      </trkpt>
      <trkpt lat="43.76812" lon="3.46613">
        <ele>697.57</ele>
        <time>2014-04-13T13:53:18Z</time>
      </trkpt>
      <trkpt lat="43.7683" lon="3.46612">
        <ele>696.61</ele>
        <time>2014-04-13T13:53:19Z</time>
      </trkpt>
      <trkpt lat="43.7685" lon="3.46616">
        <ele>696.13</ele>
        <time>2014-04-13T13:53:20Z</time>
      </trkpt>
      <trkpt lat="43.76872" lon="3.46623">
        <ele>694.69</ele>
        <time>2014-04-13T13:53:21Z</time>
      </trkpt>
      <trkpt lat="43.76895" lon="3.46631">
        <ele>693.73</ele>
        <time>2014-04-13T13:53:22Z</time>
      </trkpt>
      <trkpt lat="43.77101" lon="3.46709">
        <ele>685.08</ele>
        <time>2014-04-13T13:53:31Z</time>
      </trkpt>
      <trkpt lat="43.77196" lon="3.4673">
        <ele>680.27</ele>
        <time>2014-04-13T13:53:35Z</time>
      </trkpt>
      <trkpt lat="43.77219" lon="3.46739">
        <ele>679.79</ele>
        <time>2014-04-13T13:53:36Z</time>
      </trkpt>
      <trkpt lat="43.77371" lon="3.46799">
        <ele>676.91</ele>
        <time>2014-04-13T13:53:43Z</time>
      </trkpt>
      <trkpt lat="43.77441" lon="3.46824">
        <ele>675.94</ele>
        <time>2014-04-13T13:53:47Z</time>
      </trkpt>
      <trkpt lat="43.77457" lon="3.46828">
        <ele>674.98</ele>
        <time>2014-04-13T13:53:48Z</time>
      </trkpt>
      <trkpt lat="43.77472" lon="3.46828">
        <ele>674.02</ele>
        <time>2014-04-13T13:53:49Z</time>
      </trkpt>
      <trkpt lat="43.77488" lon="3.46826">
        <ele>673.06</ele>
        <time>2014-04-13T13:53:50Z</time>
      </trkpt>
      <trkpt lat="43.77505" lon="3.46821">
        <ele>673.06</ele>
        <time>2014-04-13T13:53:51Z</time>
      </trkpt>
      <trkpt lat="43.77522" lon="3.46814">
        <ele>672.58</ele>
        <time>2014-04-13T13:53:52Z</time>
      </trkpt>
      <trkpt lat="43.77711" lon="3.46741">
        <ele>675.46</ele>
        <time>2014-04-13T13:54:02Z</time>
      </trkpt>
      <trkpt lat="43.77841" lon="3.46693">
        <ele>685.08</ele>
        <time>2014-04-13T13:54:09Z</time>
      </trkpt>
      <trkpt lat="43.77857" lon="3.46678">
        <ele>686.52</ele>
        <time>2014-04-13T13:54:10Z</time>
      </trkpt>
      <trkpt lat="43.77873" lon="3.46658">
        <ele>687.96</ele>
        <time>2014-04-13T13:54:11Z</time>
      </trkpt>
      <trkpt lat="43.77888" lon="3.46636">
        <ele>689.4</ele>
        <time>2014-04-13T13:54:12Z</time>
      </trkpt>
      <trkpt lat="43.77902" lon="3.46612">
        <ele>690.84</ele>
        <time>2014-04-13T13:54:13Z</time>
      </trkpt>
      <trkpt lat="43.77995" lon="3.46467">
        <ele>695.17</ele>
        <time>2014-04-13T13:54:20Z</time>
      </trkpt>
      <trkpt lat="43.78058" lon="3.46406">
        <ele>689.4</ele>
        <time>2014-04-13T13:54:24Z</time>
      </trkpt>
      <trkpt lat="43.78073" lon="3.46394">
        <ele>687</ele>
        <time>2014-04-13T13:54:25Z</time>
      </trkpt>
      <trkpt lat="43.78115" lon="3.46353">
        <ele>682.67</ele>
        <time>2014-04-13T13:54:28Z</time>
      </trkpt>
      <trkpt lat="43.7813" lon="3.46344">
        <ele>681.71</ele>
        <time>2014-04-13T13:54:29Z</time>
      </trkpt>
      <trkpt lat="43.78145" lon="3.46336">
        <ele>680.27</ele>
        <time>2014-04-13T13:54:30Z</time>
      </trkpt>
      <trkpt lat="43.78163" lon="3.46332">
        <ele>679.31</ele>
        <time>2014-04-13T13:54:31Z</time>
      </trkpt>
      <trkpt lat="43.78181" lon="3.46331">
        <ele>678.35</ele>
        <time>2014-04-13T13:54:32Z</time>
      </trkpt>
      <trkpt lat="43.782" lon="3.46334">
        <ele>676.91</ele>
        <time>2014-04-13T13:54:33Z</time>
      </trkpt>
      <trkpt lat="43.78224" lon="3.46345">
        <ele>674.98</ele>
        <time>2014-04-13T13:54:34Z</time>
      </trkpt>
      <trkpt lat="43.78242" lon="3.46356">
        <ele>673.54</ele>
        <time>2014-04-13T13:54:35Z</time>
      </trkpt>
      <trkpt lat="43.78256" lon="3.46365">
        <ele>672.1</ele>
        <time>2014-04-13T13:54:36Z</time>
      </trkpt>
      <trkpt lat="43.78268" lon="3.46373">
        <ele>670.66</ele>
        <time>2014-04-13T13:54:37Z</time>
      </trkpt>
      <trkpt lat="43.78283" lon="3.46373">
        <ele>668.73</ele>
        <time>2014-04-13T13:54:38Z</time>
      </trkpt>
      <trkpt lat="43.78296" lon="3.46363">
        <ele>666.33</ele>
        <time>2014-04-13T13:54:39Z</time>
      </trkpt>
      <trkpt lat="43.78309" lon="3.46348">
        <ele>664.89</ele>
        <time>2014-04-13T13:54:40Z</time>
      </trkpt>
      <trkpt lat="43.78321" lon="3.46331">
        <ele>664.89</ele>
        <time>2014-04-13T13:54:41Z</time>
      </trkpt>
      <trkpt lat="43.78335" lon="3.46317">
        <ele>663.93</ele>
        <time>2014-04-13T13:54:42Z</time>
      </trkpt>
      <trkpt lat="43.78351" lon="3.46307">
        <ele>662.01</ele>
        <time>2014-04-13T13:54:43Z</time>
      </trkpt>
      <trkpt lat="43.7837" lon="3.46301">
        <ele>660.56</ele>
        <time>2014-04-13T13:54:44Z</time>
      </trkpt>
      <trkpt lat="43.78392" lon="3.463">
        <ele>658.64</ele>
        <time>2014-04-13T13:54:45Z</time>
      </trkpt>
      <trkpt lat="43.78414" lon="3.46305">
        <ele>657.68</ele>
        <time>2014-04-13T13:54:46Z</time>
      </trkpt>
      <trkpt lat="43.78435" lon="3.46313">
        <ele>657.2</ele>
        <time>2014-04-13T13:54:47Z</time>
      </trkpt>
      <trkpt lat="43.78455" lon="3.4632">
        <ele>654.8</ele>
        <time>2014-04-13T13:54:48Z</time>
      </trkpt>
      <trkpt lat="43.78474" lon="3.46324">
        <ele>653.83</ele>
        <time>2014-04-13T13:54:49Z</time>
      </trkpt>
      <trkpt lat="43.78493" lon="3.46322">
        <ele>652.39</ele>
        <time>2014-04-13T13:54:50Z</time>
      </trkpt>
      <trkpt lat="43.78511" lon="3.46314">
        <ele>650.95</ele>
        <time>2014-04-13T13:54:51Z</time>
      </trkpt>
      <trkpt lat="43.78526" lon="3.46301">
        <ele>649.99</ele>
        <time>2014-04-13T13:54:52Z</time>
      </trkpt>
      <trkpt lat="43.78544" lon="3.46287">
        <ele>649.03</ele>
        <time>2014-04-13T13:54:53Z</time>
      </trkpt>
      <trkpt lat="43.78564" lon="3.46274">
        <ele>648.07</ele>
        <time>2014-04-13T13:54:54Z</time>
      </trkpt>
      <trkpt lat="43.78705" lon="3.4623">
        <ele>638.93</ele>
        <time>2014-04-13T13:55:01Z</time>
      </trkpt>
      <trkpt lat="43.78753" lon="3.46219">
        <ele>635.57</ele>
        <time>2014-04-13T13:55:04Z</time>
      </trkpt>
      <trkpt lat="43.78766" lon="3.4621">
        <ele>634.13</ele>
        <time>2014-04-13T13:55:05Z</time>
      </trkpt>
      <trkpt lat="43.78776" lon="3.462">
        <ele>633.17</ele>
        <time>2014-04-13T13:55:06Z</time>
      </trkpt>
      <trkpt lat="43.78794" lon="3.46181">
        <ele>632.2</ele>
        <time>2014-04-13T13:55:08Z</time>
      </trkpt>
      <trkpt lat="43.788" lon="3.46171">
        <ele>632.2</ele>
        <time>2014-04-13T13:55:09Z</time>
      </trkpt>
      <trkpt lat="43.78829" lon="3.46128">
        <ele>629.32</ele>
        <time>2014-04-13T13:55:16Z</time>
      </trkpt>
      <trkpt lat="43.7886" lon="3.46078">
        <ele>628.84</ele>
        <time>2014-04-13T13:55:26Z</time>
      </trkpt>
      <trkpt lat="43.78867" lon="3.46066">
        <ele>629.8</ele>
        <time>2014-04-13T13:55:29Z</time>
      </trkpt>
      <trkpt lat="43.78873" lon="3.46055">
        <ele>629.8</ele>
        <time>2014-04-13T13:55:31Z</time>
      </trkpt>
      <trkpt lat="43.78892" lon="3.46029">
        <ele>629.8</ele>
        <time>2014-04-13T13:55:36Z</time>
      </trkpt>
      <trkpt lat="43.78896" lon="3.46029">
        <ele>630.28</ele>
        <time>2014-04-13T13:55:37Z</time>
      </trkpt>
      <trkpt lat="43.78917" lon="3.46014">
        <ele>632.2</ele>
        <time>2014-04-13T13:55:41Z</time>
      </trkpt>
      <trkpt lat="43.78923" lon="3.46011">
        <ele>633.17</ele>
        <time>2014-04-13T13:55:42Z</time>
      </trkpt>
      <trkpt lat="43.78928" lon="3.46007">
        <ele>634.13</ele>
        <time>2014-04-13T13:55:43Z</time>
      </trkpt>
      <trkpt lat="43.78946" lon="3.45989">
        <ele>633.65</ele>
        <time>2014-04-13T13:55:46Z</time>
      </trkpt>
      <trkpt lat="43.78952" lon="3.45982">
        <ele>633.65</ele>
        <time>2014-04-13T13:55:47Z</time>
      </trkpt>
      <trkpt lat="43.78959" lon="3.45976">
        <ele>633.17</ele>
        <time>2014-04-13T13:55:48Z</time>
      </trkpt>
      <trkpt lat="43.79017" lon="3.45924">
        <ele>629.32</ele>
        <time>2014-04-13T13:55:58Z</time>
      </trkpt>
      <trkpt lat="43.79021" lon="3.45925">
        <ele>629.32</ele>
        <time>2014-04-13T13:55:59Z</time>
      </trkpt>
      <trkpt lat="43.79023" lon="3.45927">
        <ele>628.84</ele>
        <time>2014-04-13T13:56:00Z</time>
      </trkpt>
      <trkpt lat="43.79025" lon="3.45932">
        <ele>628.84</ele>
        <time>2014-04-13T13:56:01Z</time>
      </trkpt>
      <trkpt lat="43.79025" lon="3.45937">
        <ele>629.32</ele>
        <time>2014-04-13T13:56:02Z</time>
      </trkpt>
      <trkpt lat="43.79023" lon="3.45943">
        <ele>629.32</ele>
        <time>2014-04-13T13:56:03Z</time>
      </trkpt>
      <trkpt lat="43.79021" lon="3.45951">
        <ele>628.84</ele>
        <time>2014-04-13T13:56:04Z</time>
      </trkpt>
      <trkpt lat="43.79019" lon="3.45959">
        <ele>629.32</ele>
        <time>2014-04-13T13:56:05Z</time>
      </trkpt>
      <trkpt lat="43.79016" lon="3.45967">
        <ele>629.32</ele>
        <time>2014-04-13T13:56:06Z</time>
      </trkpt>
      <trkpt lat="43.79007" lon="3.45994">
        <ele>628.36</ele>
        <time>2014-04-13T13:56:11Z</time>
      </trkpt>
      <trkpt lat="43.79009" lon="3.45996">
        <ele>629.32</ele>
        <time>2014-04-13T13:56:12Z</time>
      </trkpt>
      <trkpt lat="43.79012" lon="3.45997">
        <ele>630.28</ele>
        <time>2014-04-13T13:56:14Z</time>
      </trkpt>
      <trkpt lat="43.79015" lon="3.45995">
        <ele>630.28</ele>
        <time>2014-04-13T13:56:15Z</time>
      </trkpt>
      <trkpt lat="43.79023" lon="3.45991">
        <ele>630.76</ele>
        <time>2014-04-13T13:56:16Z</time>
      </trkpt>
      <trkpt lat="43.79076" lon="3.45942">
        <ele>630.28</ele>
        <time>2014-04-13T13:56:25Z</time>
      </trkpt>
      <trkpt lat="43.79084" lon="3.4594">
        <ele>629.32</ele>
        <time>2014-04-13T13:56:26Z</time>
      </trkpt>
      <trkpt lat="43.79091" lon="3.45938">
        <ele>629.32</ele>
        <time>2014-04-13T13:56:27Z</time>
      </trkpt>
      <trkpt lat="43.79111" lon="3.45928">
        <ele>627.88</ele>
        <time>2014-04-13T13:56:30Z</time>
      </trkpt>
      <trkpt lat="43.79193" lon="3.45863">
        <ele>624.99</ele>
        <time>2014-04-13T13:56:43Z</time>
      </trkpt>
      <trkpt lat="43.79218" lon="3.45855">
        <ele>624.51</ele>
        <time>2014-04-13T13:56:46Z</time>
      </trkpt>
      <trkpt lat="43.79228" lon="3.45855">
        <ele>624.03</ele>
        <time>2014-04-13T13:56:47Z</time>
      </trkpt>
      <trkpt lat="43.79269" lon="3.4586">
        <ele>623.07</ele>
        <time>2014-04-13T13:56:52Z</time>
      </trkpt>
      <trkpt lat="43.79274" lon="3.45859">
        <ele>622.59</ele>
        <time>2014-04-13T13:56:53Z</time>
      </trkpt>
      <trkpt lat="43.79277" lon="3.45858">
        <ele>622.59</ele>
        <time>2014-04-13T13:56:54Z</time>
      </trkpt>
      <trkpt lat="43.79279" lon="3.45856">
        <ele>622.59</ele>
        <time>2014-04-13T13:56:55Z</time>
      </trkpt>
      <trkpt lat="43.79279" lon="3.45855">
        <ele>622.11</ele>
        <time>2014-04-13T13:57:09Z</time>
      </trkpt>
      <trkpt lat="43.79278" lon="3.45857">
        <ele>621.63</ele>
        <time>2014-04-13T13:57:55Z</time>
      </trkpt>
      <trkpt lat="43.79277" lon="3.45855">
        <ele>621.15</ele>
        <time>2014-04-13T13:58:00Z</time>
      </trkpt>
      <trkpt lat="43.79275" lon="3.45854">
        <ele>621.15</ele>
        <time>2014-04-13T13:58:01Z</time>
      </trkpt>
      <trkpt lat="43.79273" lon="3.45854">
        <ele>621.15</ele>
        <time>2014-04-13T13:58:02Z</time>
      </trkpt>
      <trkpt lat="43.7927" lon="3.45856">
        <ele>621.15</ele>
        <time>2014-04-13T13:58:03Z</time>
      </trkpt>
      <trkpt lat="43.79261" lon="3.4586">
        <ele>621.15</ele>
        <time>2014-04-13T13:58:04Z</time>
      </trkpt>
      <trkpt lat="43.79247" lon="3.45859">
        <ele>621.63</ele>
        <time>2014-04-13T13:58:05Z</time>
      </trkpt>
      <trkpt lat="43.79232" lon="3.45858">
        <ele>622.11</ele>
        <time>2014-04-13T13:58:06Z</time>
      </trkpt>
      <trkpt lat="43.79217" lon="3.45857">
        <ele>622.59</ele>
        <time>2014-04-13T13:58:07Z</time>
      </trkpt>
      <trkpt lat="43.79202" lon="3.45859">
        <ele>623.07</ele>
        <time>2014-04-13T13:58:08Z</time>
      </trkpt>
      <trkpt lat="43.79187" lon="3.45864">
        <ele>623.07</ele>
        <time>2014-04-13T13:58:09Z</time>
      </trkpt>
      <trkpt lat="43.79173" lon="3.45871">
        <ele>623.55</ele>
        <time>2014-04-13T13:58:10Z</time>
      </trkpt>
      <trkpt lat="43.7916" lon="3.4588">
        <ele>623.55</ele>
        <time>2014-04-13T13:58:11Z</time>
      </trkpt>
      <trkpt lat="43.79148" lon="3.4589">
        <ele>624.03</ele>
        <time>2014-04-13T13:58:12Z</time>
      </trkpt>
      <trkpt lat="43.79139" lon="3.45901">
        <ele>624.03</ele>
        <time>2014-04-13T13:58:13Z</time>
      </trkpt>
      <trkpt lat="43.7913" lon="3.4591">
        <ele>624.99</ele>
        <time>2014-04-13T13:58:14Z</time>
      </trkpt>
      <trkpt lat="43.79036" lon="3.45981">
        <ele>626.92</ele>
        <time>2014-04-13T13:58:23Z</time>
      </trkpt>
      <trkpt lat="43.79021" lon="3.45997">
        <ele>628.84</ele>
        <time>2014-04-13T13:58:25Z</time>
      </trkpt>
      <trkpt lat="43.79007" lon="3.45997">
        <ele>630.76</ele>
        <time>2014-04-13T13:58:28Z</time>
      </trkpt>
      <trkpt lat="43.79004" lon="3.45995">
        <ele>632.2</ele>
        <time>2014-04-13T13:58:29Z</time>
      </trkpt>
      <trkpt lat="43.79013" lon="3.46002">
        <ele>637.97</ele>
        <time>2014-04-13T13:58:41Z</time>
      </trkpt>
      <trkpt lat="43.79012" lon="3.46001">
        <ele>638.93</ele>
        <time>2014-04-13T13:58:51Z</time>
      </trkpt>
      <trkpt lat="43.79011" lon="3.45998">
        <ele>638.45</ele>
        <time>2014-04-13T13:58:52Z</time>
      </trkpt>
      <trkpt lat="43.79012" lon="3.45994">
        <ele>637.97</ele>
        <time>2014-04-13T13:58:53Z</time>
      </trkpt>
      <trkpt lat="43.79015" lon="3.45985">
        <ele>637.49</ele>
        <time>2014-04-13T13:58:54Z</time>
      </trkpt>
      <trkpt lat="43.79019" lon="3.45972">
        <ele>637.01</ele>
        <time>2014-04-13T13:58:55Z</time>
      </trkpt>
      <trkpt lat="43.79027" lon="3.45928">
        <ele>633.65</ele>
        <time>2014-04-13T13:58:59Z</time>
      </trkpt>
      <trkpt lat="43.79026" lon="3.45924">
        <ele>632.68</ele>
        <time>2014-04-13T13:59:00Z</time>
      </trkpt>
      <trkpt lat="43.79025" lon="3.45922">
        <ele>632.2</ele>
        <time>2014-04-13T13:59:01Z</time>
      </trkpt>
      <trkpt lat="43.79025" lon="3.45924">
        <ele>629.8</ele>
        <time>2014-04-13T13:59:12Z</time>
      </trkpt>
      <trkpt lat="43.79025" lon="3.45921">
        <ele>629.8</ele>
        <time>2014-04-13T13:59:28Z</time>
      </trkpt>
      <trkpt lat="43.79023" lon="3.45918">
        <ele>629.8</ele>
        <time>2014-04-13T13:59:34Z</time>
      </trkpt>
      <trkpt lat="43.79024" lon="3.45915">
        <ele>629.8</ele>
        <time>2014-04-13T13:59:35Z</time>
      </trkpt>
      <trkpt lat="43.7903" lon="3.45903">
        <ele>629.32</ele>
        <time>2014-04-13T13:59:37Z</time>
      </trkpt>
      <trkpt lat="43.79033" lon="3.45895">
        <ele>628.84</ele>
        <time>2014-04-13T13:59:38Z</time>
      </trkpt>
      <trkpt lat="43.79065" lon="3.45788">
        <ele>626.44</ele>
        <time>2014-04-13T13:59:48Z</time>
      </trkpt>
      <trkpt lat="43.7908" lon="3.4574">
        <ele>624.99</ele>
        <time>2014-04-13T13:59:57Z</time>
      </trkpt>
      <trkpt lat="43.79086" lon="3.45726">
        <ele>624.51</ele>
        <time>2014-04-13T14:00:02Z</time>
      </trkpt>
      <trkpt lat="43.79084" lon="3.45726">
        <ele>626.92</ele>
        <time>2014-04-13T14:00:16Z</time>
      </trkpt>
      <trkpt lat="43.79082" lon="3.45728">
        <ele>627.4</ele>
        <time>2014-04-13T14:00:22Z</time>
      </trkpt>
      <trkpt lat="43.79081" lon="3.45731">
        <ele>627.88</ele>
        <time>2014-04-13T14:00:23Z</time>
      </trkpt>
      <trkpt lat="43.79079" lon="3.45736">
        <ele>627.88</ele>
        <time>2014-04-13T14:00:24Z</time>
      </trkpt>
      <trkpt lat="43.7906" lon="3.4581">
        <ele>629.32</ele>
        <time>2014-04-13T14:00:31Z</time>
      </trkpt>
      <trkpt lat="43.79029" lon="3.45909">
        <ele>629.8</ele>
        <time>2014-04-13T14:00:39Z</time>
      </trkpt>
      <trkpt lat="43.79023" lon="3.45919">
        <ele>629.8</ele>
        <time>2014-04-13T14:00:40Z</time>
      </trkpt>
      <trkpt lat="43.79016" lon="3.45928">
        <ele>629.8</ele>
        <time>2014-04-13T14:00:41Z</time>
      </trkpt>
      <trkpt lat="43.79007" lon="3.45937">
        <ele>629.8</ele>
        <time>2014-04-13T14:00:42Z</time>
      </trkpt>
      <trkpt lat="43.78998" lon="3.45945">
        <ele>629.8</ele>
        <time>2014-04-13T14:00:43Z</time>
      </trkpt>
      <trkpt lat="43.78936" lon="3.46009">
        <ele>635.09</ele>
        <time>2014-04-13T14:00:51Z</time>
      </trkpt>
      <trkpt lat="43.78926" lon="3.46016">
        <ele>635.57</ele>
        <time>2014-04-13T14:00:55Z</time>
      </trkpt>
      <trkpt lat="43.78927" lon="3.46013">
        <ele>636.05</ele>
        <time>2014-04-13T14:00:56Z</time>
      </trkpt>
      <trkpt lat="43.78929" lon="3.46009">
        <ele>636.53</ele>
        <time>2014-04-13T14:00:57Z</time>
      </trkpt>
      <trkpt lat="43.7895" lon="3.45988">
        <ele>640.86</ele>
        <time>2014-04-13T14:01:02Z</time>
      </trkpt>
      <trkpt lat="43.78956" lon="3.45984">
        <ele>641.34</ele>
        <time>2014-04-13T14:01:03Z</time>
      </trkpt>
      <trkpt lat="43.78968" lon="3.45982">
        <ele>641.34</ele>
        <time>2014-04-13T14:01:04Z</time>
      </trkpt>
      <trkpt lat="43.79015" lon="3.45982">
        <ele>639.41</ele>
        <time>2014-04-13T14:01:08Z</time>
      </trkpt>
      <trkpt lat="43.79023" lon="3.45977">
        <ele>638.45</ele>
        <time>2014-04-13T14:01:09Z</time>
      </trkpt>
      <trkpt lat="43.79085" lon="3.45935">
        <ele>635.09</ele>
        <time>2014-04-13T14:01:16Z</time>
      </trkpt>
      <trkpt lat="43.79095" lon="3.45931">
        <ele>635.09</ele>
        <time>2014-04-13T14:01:17Z</time>
      </trkpt>
      <trkpt lat="43.79105" lon="3.45926">
        <ele>634.61</ele>
        <time>2014-04-13T14:01:18Z</time>
      </trkpt>
      <trkpt lat="43.79115" lon="3.4592">
        <ele>634.13</ele>
        <time>2014-04-13T14:01:19Z</time>
      </trkpt>
      <trkpt lat="43.79124" lon="3.45914">
        <ele>633.65</ele>
        <time>2014-04-13T14:01:20Z</time>
      </trkpt>
      <trkpt lat="43.79177" lon="3.45871">
        <ele>629.8</ele>
        <time>2014-04-13T14:01:26Z</time>
      </trkpt>
      <trkpt lat="43.79187" lon="3.45865">
        <ele>629.8</ele>
        <time>2014-04-13T14:01:27Z</time>
      </trkpt>
      <trkpt lat="43.79198" lon="3.45861">
        <ele>629.32</ele>
        <time>2014-04-13T14:01:28Z</time>
      </trkpt>
      <trkpt lat="43.79209" lon="3.45858">
        <ele>628.84</ele>
        <time>2014-04-13T14:01:29Z</time>
      </trkpt>
      <trkpt lat="43.7922" lon="3.45857">
        <ele>628.36</ele>
        <time>2014-04-13T14:01:30Z</time>
      </trkpt>
      <trkpt lat="43.7923" lon="3.45856">
        <ele>627.88</ele>
        <time>2014-04-13T14:01:31Z</time>
      </trkpt>
      <trkpt lat="43.7924" lon="3.45857">
        <ele>627.4</ele>
        <time>2014-04-13T14:01:32Z</time>
      </trkpt>
      <trkpt lat="43.7925" lon="3.45858">
        <ele>626.92</ele>
        <time>2014-04-13T14:01:33Z</time>
      </trkpt>
      <trkpt lat="43.79273" lon="3.45861">
        <ele>626.44</ele>
        <time>2014-04-13T14:01:39Z</time>
      </trkpt>
      <trkpt lat="43.79272" lon="3.4586">
        <ele>624.51</ele>
        <time>2014-04-13T14:02:11Z</time>
      </trkpt>
      <trkpt lat="43.79268" lon="3.45861">
        <ele>624.51</ele>
        <time>2014-04-13T14:05:24Z</time>
      </trkpt>
      <trkpt lat="43.79266" lon="3.45859">
        <ele>624.51</ele>
        <time>2014-04-13T14:05:25Z</time>
      </trkpt>
      <trkpt lat="43.7926" lon="3.45859">
        <ele>624.51</ele>
        <time>2014-04-13T14:05:26Z</time>
      </trkpt>
      <trkpt lat="43.7925" lon="3.45858">
        <ele>624.51</ele>
        <time>2014-04-13T14:05:27Z</time>
      </trkpt>
      <trkpt lat="43.79237" lon="3.45857">
        <ele>624.51</ele>
        <time>2014-04-13T14:05:28Z</time>
      </trkpt>
      <trkpt lat="43.79211" lon="3.45857">
        <ele>624.51</ele>
        <time>2014-04-13T14:05:30Z</time>
      </trkpt>
      <trkpt lat="43.79197" lon="3.45861">
        <ele>624.51</ele>
        <time>2014-04-13T14:05:31Z</time>
      </trkpt>
      <trkpt lat="43.79184" lon="3.45866">
        <ele>624.51</ele>
        <time>2014-04-13T14:05:32Z</time>
      </trkpt>
      <trkpt lat="43.79172" lon="3.45873">
        <ele>624.51</ele>
        <time>2014-04-13T14:05:33Z</time>
      </trkpt>
      <trkpt lat="43.7916" lon="3.45882">
        <ele>624.51</ele>
        <time>2014-04-13T14:05:34Z</time>
      </trkpt>
      <trkpt lat="43.7915" lon="3.4589">
        <ele>624.51</ele>
        <time>2014-04-13T14:05:35Z</time>
      </trkpt>
      <trkpt lat="43.79092" lon="3.45938">
        <ele>626.44</ele>
        <time>2014-04-13T14:05:42Z</time>
      </trkpt>
      <trkpt lat="43.79013" lon="3.45995">
        <ele>631.24</ele>
        <time>2014-04-13T14:05:50Z</time>
      </trkpt>
      <trkpt lat="43.78982" lon="3.46013">
        <ele>635.57</ele>
        <time>2014-04-13T14:05:54Z</time>
      </trkpt>
      <trkpt lat="43.78945" lon="3.46025">
        <ele>637.01</ele>
        <time>2014-04-13T14:05:59Z</time>
      </trkpt>
      <trkpt lat="43.7893" lon="3.4602">
        <ele>637.49</ele>
        <time>2014-04-13T14:06:02Z</time>
      </trkpt>
      <trkpt lat="43.78875" lon="3.46063">
        <ele>633.65</ele>
        <time>2014-04-13T14:06:10Z</time>
      </trkpt>
      <trkpt lat="43.78868" lon="3.46074">
        <ele>633.17</ele>
        <time>2014-04-13T14:06:11Z</time>
      </trkpt>
      <trkpt lat="43.78861" lon="3.46087">
        <ele>632.2</ele>
        <time>2014-04-13T14:06:12Z</time>
      </trkpt>
      <trkpt lat="43.78838" lon="3.46119">
        <ele>633.17</ele>
        <time>2014-04-13T14:06:15Z</time>
      </trkpt>
      <trkpt lat="43.78805" lon="3.46149">
        <ele>634.13</ele>
        <time>2014-04-13T14:06:19Z</time>
      </trkpt>
      <trkpt lat="43.78748" lon="3.46213">
        <ele>636.05</ele>
        <time>2014-04-13T14:06:25Z</time>
      </trkpt>
      <trkpt lat="43.78701" lon="3.46233">
        <ele>638.93</ele>
        <time>2014-04-13T14:06:28Z</time>
      </trkpt>
      <trkpt lat="43.7868" lon="3.46237">
        <ele>640.38</ele>
        <time>2014-04-13T14:06:29Z</time>
      </trkpt>
      <trkpt lat="43.78661" lon="3.46241">
        <ele>641.34</ele>
        <time>2014-04-13T14:06:30Z</time>
      </trkpt>
      <trkpt lat="43.78515" lon="3.46299">
        <ele>651.43</ele>
        <time>2014-04-13T14:06:38Z</time>
      </trkpt>
      <trkpt lat="43.78483" lon="3.46322">
        <ele>653.35</ele>
        <time>2014-04-13T14:06:40Z</time>
      </trkpt>
      <trkpt lat="43.78468" lon="3.46325">
        <ele>654.31</ele>
        <time>2014-04-13T14:06:41Z</time>
      </trkpt>
      <trkpt lat="43.78452" lon="3.46321">
        <ele>655.28</ele>
        <time>2014-04-13T14:06:42Z</time>
      </trkpt>
      <trkpt lat="43.78435" lon="3.46315">
        <ele>656.72</ele>
        <time>2014-04-13T14:06:43Z</time>
      </trkpt>
      <trkpt lat="43.78416" lon="3.46308">
        <ele>657.68</ele>
        <time>2014-04-13T14:06:44Z</time>
      </trkpt>
      <trkpt lat="43.78396" lon="3.46304">
        <ele>659.12</ele>
        <time>2014-04-13T14:06:45Z</time>
      </trkpt>
      <trkpt lat="43.78376" lon="3.46303">
        <ele>660.56</ele>
        <time>2014-04-13T14:06:46Z</time>
      </trkpt>
      <trkpt lat="43.78356" lon="3.46305">
        <ele>661.52</ele>
        <time>2014-04-13T14:06:47Z</time>
      </trkpt>
      <trkpt lat="43.78337" lon="3.46311">
        <ele>662.49</ele>
        <time>2014-04-13T14:06:48Z</time>
      </trkpt>
      <trkpt lat="43.7832" lon="3.4632">
        <ele>663.93</ele>
        <time>2014-04-13T14:06:49Z</time>
      </trkpt>
      <trkpt lat="43.78307" lon="3.46333">
        <ele>664.89</ele>
        <time>2014-04-13T14:06:50Z</time>
      </trkpt>
      <trkpt lat="43.78294" lon="3.46348">
        <ele>665.85</ele>
        <time>2014-04-13T14:06:51Z</time>
      </trkpt>
      <trkpt lat="43.78282" lon="3.46363">
        <ele>666.81</ele>
        <time>2014-04-13T14:06:52Z</time>
      </trkpt>
      <trkpt lat="43.78258" lon="3.46373">
        <ele>668.25</ele>
        <time>2014-04-13T14:06:54Z</time>
      </trkpt>
      <trkpt lat="43.78245" lon="3.46368">
        <ele>669.22</ele>
        <time>2014-04-13T14:06:55Z</time>
      </trkpt>
      <trkpt lat="43.7823" lon="3.46357">
        <ele>670.66</ele>
        <time>2014-04-13T14:06:56Z</time>
      </trkpt>
      <trkpt lat="43.78215" lon="3.46349">
        <ele>672.1</ele>
        <time>2014-04-13T14:06:57Z</time>
      </trkpt>
      <trkpt lat="43.78198" lon="3.46342">
        <ele>673.06</ele>
        <time>2014-04-13T14:06:58Z</time>
      </trkpt>
      <trkpt lat="43.7818" lon="3.46341">
        <ele>674.5</ele>
        <time>2014-04-13T14:06:59Z</time>
      </trkpt>
      <trkpt lat="43.78161" lon="3.46342">
        <ele>675.46</ele>
        <time>2014-04-13T14:07:00Z</time>
      </trkpt>
      <trkpt lat="43.78143" lon="3.46345">
        <ele>676.91</ele>
        <time>2014-04-13T14:07:01Z</time>
      </trkpt>
      <trkpt lat="43.78126" lon="3.46349">
        <ele>677.87</ele>
        <time>2014-04-13T14:07:02Z</time>
      </trkpt>
      <trkpt lat="43.7811" lon="3.46355">
        <ele>678.83</ele>
        <time>2014-04-13T14:07:03Z</time>
      </trkpt>
      <trkpt lat="43.78094" lon="3.46364">
        <ele>680.27</ele>
        <time>2014-04-13T14:07:04Z</time>
      </trkpt>
      <trkpt lat="43.78079" lon="3.46381">
        <ele>681.23</ele>
        <time>2014-04-13T14:07:05Z</time>
      </trkpt>
      <trkpt lat="43.78064" lon="3.46399">
        <ele>682.67</ele>
        <time>2014-04-13T14:07:06Z</time>
      </trkpt>
      <trkpt lat="43.78049" lon="3.46417">
        <ele>684.12</ele>
        <time>2014-04-13T14:07:07Z</time>
      </trkpt>
      <trkpt lat="43.78032" lon="3.46431">
        <ele>685.56</ele>
        <time>2014-04-13T14:07:08Z</time>
      </trkpt>
      <trkpt lat="43.78017" lon="3.46445">
        <ele>686.52</ele>
        <time>2014-04-13T14:07:09Z</time>
      </trkpt>
      <trkpt lat="43.78001" lon="3.46462">
        <ele>687.48</ele>
        <time>2014-04-13T14:07:10Z</time>
      </trkpt>
      <trkpt lat="43.77985" lon="3.4648">
        <ele>688.92</ele>
        <time>2014-04-13T14:07:11Z</time>
      </trkpt>
      <trkpt lat="43.7791" lon="3.46587">
        <ele>695.17</ele>
        <time>2014-04-13T14:07:17Z</time>
      </trkpt>
      <trkpt lat="43.77841" lon="3.46696">
        <ele>690.84</ele>
        <time>2014-04-13T14:07:23Z</time>
      </trkpt>
      <trkpt lat="43.77825" lon="3.46706">
        <ele>688.44</ele>
        <time>2014-04-13T14:07:24Z</time>
      </trkpt>
      <trkpt lat="43.77806" lon="3.46711">
        <ele>686.04</ele>
        <time>2014-04-13T14:07:25Z</time>
      </trkpt>
      <trkpt lat="43.77654" lon="3.4676">
        <ele>674.5</ele>
        <time>2014-04-13T14:07:32Z</time>
      </trkpt>
      <trkpt lat="43.77519" lon="3.46806">
        <ele>670.18</ele>
        <time>2014-04-13T14:07:39Z</time>
      </trkpt>
      <trkpt lat="43.77473" lon="3.46821">
        <ele>670.66</ele>
        <time>2014-04-13T14:07:44Z</time>
      </trkpt>
      <trkpt lat="43.77451" lon="3.46824">
        <ele>672.58</ele>
        <time>2014-04-13T14:07:46Z</time>
      </trkpt>
      <trkpt lat="43.77437" lon="3.46823">
        <ele>673.54</ele>
        <time>2014-04-13T14:07:47Z</time>
      </trkpt>
      <trkpt lat="43.77423" lon="3.46819">
        <ele>674.02</ele>
        <time>2014-04-13T14:07:48Z</time>
      </trkpt>
      <trkpt lat="43.77409" lon="3.46813">
        <ele>674.5</ele>
        <time>2014-04-13T14:07:49Z</time>
      </trkpt>
      <trkpt lat="43.77395" lon="3.46806">
        <ele>674.98</ele>
        <time>2014-04-13T14:07:50Z</time>
      </trkpt>
      <trkpt lat="43.7738" lon="3.468">
        <ele>675.46</ele>
        <time>2014-04-13T14:07:51Z</time>
      </trkpt>
      <trkpt lat="43.77364" lon="3.46796">
        <ele>675.46</ele>
        <time>2014-04-13T14:07:52Z</time>
      </trkpt>
      <trkpt lat="43.77219" lon="3.46742">
        <ele>678.35</ele>
        <time>2014-04-13T14:08:00Z</time>
      </trkpt>
      <trkpt lat="43.77159" lon="3.46718">
        <ele>678.83</ele>
        <time>2014-04-13T14:08:03Z</time>
      </trkpt>
      <trkpt lat="43.7714" lon="3.46715">
        <ele>679.31</ele>
        <time>2014-04-13T14:08:04Z</time>
      </trkpt>
      <trkpt lat="43.77059" lon="3.46696">
        <ele>682.67</ele>
        <time>2014-04-13T14:08:10Z</time>
      </trkpt>
      <trkpt lat="43.77054" lon="3.46693">
        <ele>683.15</ele>
        <time>2014-04-13T14:08:11Z</time>
      </trkpt>
      <trkpt lat="43.77051" lon="3.4669">
        <ele>683.63</ele>
        <time>2014-04-13T14:08:12Z</time>
      </trkpt>
      <trkpt lat="43.7705" lon="3.46688">
        <ele>684.12</ele>
        <time>2014-04-13T14:08:13Z</time>
      </trkpt>
      <trkpt lat="43.77048" lon="3.46687">
        <ele>684.12</ele>
        <time>2014-04-13T14:08:14Z</time>
      </trkpt>
      <trkpt lat="43.77047" lon="3.46687">
        <ele>684.6</ele>
        <time>2014-04-13T14:08:15Z</time>
      </trkpt>
      <trkpt lat="43.77046" lon="3.46687">
        <ele>684.12</ele>
        <time>2014-04-13T14:08:16Z</time>
      </trkpt>
      <trkpt lat="43.77045" lon="3.46688">
        <ele>684.12</ele>
        <time>2014-04-13T14:08:17Z</time>
      </trkpt>
      <trkpt lat="43.77046" lon="3.46692">
        <ele>684.12</ele>
        <time>2014-04-13T14:08:19Z</time>
      </trkpt>
      <trkpt lat="43.77047" lon="3.46694">
        <ele>683.63</ele>
        <time>2014-04-13T14:08:20Z</time>
      </trkpt>
      <trkpt lat="43.77053" lon="3.46698">
        <ele>683.15</ele>
        <time>2014-04-13T14:08:21Z</time>
      </trkpt>
      <trkpt lat="43.77065" lon="3.46702">
        <ele>683.15</ele>
        <time>2014-04-13T14:08:22Z</time>
      </trkpt>
      <trkpt lat="43.77077" lon="3.46705">
        <ele>683.15</ele>
        <time>2014-04-13T14:08:23Z</time>
      </trkpt>
      <trkpt lat="43.77091" lon="3.46708">
        <ele>682.67</ele>
        <time>2014-04-13T14:08:24Z</time>
      </trkpt>
      <trkpt lat="43.77187" lon="3.46727">
        <ele>678.35</ele>
        <time>2014-04-13T14:08:29Z</time>
      </trkpt>
      <trkpt lat="43.7732" lon="3.46786">
        <ele>676.91</ele>
        <time>2014-04-13T14:08:35Z</time>
      </trkpt>
      <trkpt lat="43.77451" lon="3.46827">
        <ele>675.46</ele>
        <time>2014-04-13T14:08:41Z</time>
      </trkpt>
      <trkpt lat="43.77469" lon="3.46827">
        <ele>674.98</ele>
        <time>2014-04-13T14:08:42Z</time>
      </trkpt>
      <trkpt lat="43.77488" lon="3.46823">
        <ele>674.02</ele>
        <time>2014-04-13T14:08:43Z</time>
      </trkpt>
      <trkpt lat="43.77508" lon="3.46816">
        <ele>674.02</ele>
        <time>2014-04-13T14:08:44Z</time>
      </trkpt>
      <trkpt lat="43.7753" lon="3.46808">
        <ele>674.02</ele>
        <time>2014-04-13T14:08:45Z</time>
      </trkpt>
      <trkpt lat="43.77552" lon="3.46798">
        <ele>674.02</ele>
        <time>2014-04-13T14:08:46Z</time>
      </trkpt>
      <trkpt lat="43.77808" lon="3.46704">
        <ele>683.15</ele>
        <time>2014-04-13T14:08:57Z</time>
      </trkpt>
      <trkpt lat="43.77845" lon="3.46689">
        <ele>686.04</ele>
        <time>2014-04-13T14:08:59Z</time>
      </trkpt>
      <trkpt lat="43.77861" lon="3.46675">
        <ele>687.48</ele>
        <time>2014-04-13T14:09:00Z</time>
      </trkpt>
      <trkpt lat="43.77875" lon="3.46656">
        <ele>688.92</ele>
        <time>2014-04-13T14:09:01Z</time>
      </trkpt>
      <trkpt lat="43.77889" lon="3.46635">
        <ele>690.84</ele>
        <time>2014-04-13T14:09:02Z</time>
      </trkpt>
      <trkpt lat="43.77902" lon="3.46612">
        <ele>692.29</ele>
        <time>2014-04-13T14:09:03Z</time>
      </trkpt>
      <trkpt lat="43.78034" lon="3.46425">
        <ele>695.65</ele>
        <time>2014-04-13T14:09:12Z</time>
      </trkpt>
      <trkpt lat="43.78052" lon="3.4641">
        <ele>693.73</ele>
        <time>2014-04-13T14:09:13Z</time>
      </trkpt>
      <trkpt lat="43.78132" lon="3.46346">
        <ele>684.6</ele>
        <time>2014-04-13T14:09:18Z</time>
      </trkpt>
      <trkpt lat="43.7815" lon="3.4634">
        <ele>683.15</ele>
        <time>2014-04-13T14:09:19Z</time>
      </trkpt>
      <trkpt lat="43.78168" lon="3.46338">
        <ele>682.19</ele>
        <time>2014-04-13T14:09:20Z</time>
      </trkpt>
      <trkpt lat="43.78186" lon="3.46338">
        <ele>680.75</ele>
        <time>2014-04-13T14:09:21Z</time>
      </trkpt>
      <trkpt lat="43.78205" lon="3.46342">
        <ele>679.79</ele>
        <time>2014-04-13T14:09:22Z</time>
      </trkpt>
      <trkpt lat="43.78223" lon="3.46348">
        <ele>678.35</ele>
        <time>2014-04-13T14:09:23Z</time>
      </trkpt>
      <trkpt lat="43.7824" lon="3.46357">
        <ele>676.91</ele>
        <time>2014-04-13T14:09:24Z</time>
      </trkpt>
      <trkpt lat="43.78255" lon="3.4637">
        <ele>674.98</ele>
        <time>2014-04-13T14:09:25Z</time>
      </trkpt>
      <trkpt lat="43.78268" lon="3.46375">
        <ele>673.06</ele>
        <time>2014-04-13T14:09:26Z</time>
      </trkpt>
      <trkpt lat="43.78282" lon="3.46374">
        <ele>671.14</ele>
        <time>2014-04-13T14:09:27Z</time>
      </trkpt>
      <trkpt lat="43.78295" lon="3.46365">
        <ele>668.73</ele>
        <time>2014-04-13T14:09:28Z</time>
      </trkpt>
      <trkpt lat="43.78307" lon="3.46354">
        <ele>666.81</ele>
        <time>2014-04-13T14:09:29Z</time>
      </trkpt>
      <trkpt lat="43.78317" lon="3.46336">
        <ele>666.81</ele>
        <time>2014-04-13T14:09:30Z</time>
      </trkpt>
      <trkpt lat="43.78331" lon="3.46322">
        <ele>665.37</ele>
        <time>2014-04-13T14:09:31Z</time>
      </trkpt>
      <trkpt lat="43.78347" lon="3.46312">
        <ele>664.41</ele>
        <time>2014-04-13T14:09:32Z</time>
      </trkpt>
      <trkpt lat="43.78365" lon="3.46306">
        <ele>663.45</ele>
        <time>2014-04-13T14:09:33Z</time>
      </trkpt>
      <trkpt lat="43.78384" lon="3.46304">
        <ele>662.49</ele>
        <time>2014-04-13T14:09:34Z</time>
      </trkpt>
      <trkpt lat="43.78404" lon="3.46304">
        <ele>661.04</ele>
        <time>2014-04-13T14:09:35Z</time>
      </trkpt>
      <trkpt lat="43.78423" lon="3.46307">
        <ele>659.6</ele>
        <time>2014-04-13T14:09:36Z</time>
      </trkpt>
      <trkpt lat="43.78441" lon="3.46312">
        <ele>658.64</ele>
        <time>2014-04-13T14:09:37Z</time>
      </trkpt>
      <trkpt lat="43.78456" lon="3.46318">
        <ele>657.68</ele>
        <time>2014-04-13T14:09:38Z</time>
      </trkpt>
      <trkpt lat="43.78471" lon="3.46323">
        <ele>656.72</ele>
        <time>2014-04-13T14:09:39Z</time>
      </trkpt>
      <trkpt lat="43.78483" lon="3.46325">
        <ele>655.28</ele>
        <time>2014-04-13T14:09:40Z</time>
      </trkpt>
      <trkpt lat="43.78495" lon="3.46322">
        <ele>654.31</ele>
        <time>2014-04-13T14:09:41Z</time>
      </trkpt>
      <trkpt lat="43.78506" lon="3.46314">
        <ele>653.83</ele>
        <time>2014-04-13T14:09:42Z</time>
      </trkpt>
      <trkpt lat="43.78517" lon="3.46304">
        <ele>653.35</ele>
        <time>2014-04-13T14:09:43Z</time>
      </trkpt>
      <trkpt lat="43.78529" lon="3.46294">
        <ele>652.39</ele>
        <time>2014-04-13T14:09:44Z</time>
      </trkpt>
      <trkpt lat="43.78637" lon="3.46242">
        <ele>645.66</ele>
        <time>2014-04-13T14:09:53Z</time>
      </trkpt>
      <trkpt lat="43.78751" lon="3.46218">
        <ele>637.97</ele>
        <time>2014-04-13T14:10:03Z</time>
      </trkpt>
      <trkpt lat="43.78759" lon="3.46209">
        <ele>637.01</ele>
        <time>2014-04-13T14:10:04Z</time>
      </trkpt>
      <trkpt lat="43.78766" lon="3.46201">
        <ele>636.05</ele>
        <time>2014-04-13T14:10:05Z</time>
      </trkpt>
      <trkpt lat="43.78813" lon="3.46147">
        <ele>633.17</ele>
        <time>2014-04-13T14:10:14Z</time>
      </trkpt>
      <trkpt lat="43.78851" lon="3.46099">
        <ele>632.68</ele>
        <time>2014-04-13T14:10:22Z</time>
      </trkpt>
      <trkpt lat="43.78855" lon="3.46094">
        <ele>632.68</ele>
        <time>2014-04-13T14:10:23Z</time>
      </trkpt>
      <trkpt lat="43.78857" lon="3.46089">
        <ele>632.2</ele>
        <time>2014-04-13T14:10:24Z</time>
      </trkpt>
      <trkpt lat="43.7886" lon="3.46084">
        <ele>632.68</ele>
        <time>2014-04-13T14:10:25Z</time>
      </trkpt>
      <trkpt lat="43.78863" lon="3.4608">
        <ele>632.68</ele>
        <time>2014-04-13T14:10:26Z</time>
      </trkpt>
      <trkpt lat="43.78866" lon="3.46075">
        <ele>632.68</ele>
        <time>2014-04-13T14:10:27Z</time>
      </trkpt>
      <trkpt lat="43.78879" lon="3.46053">
        <ele>632.2</ele>
        <time>2014-04-13T14:10:31Z</time>
      </trkpt>
      <trkpt lat="43.78896" lon="3.46045">
        <ele>632.2</ele>
        <time>2014-04-13T14:10:34Z</time>
      </trkpt>
      <trkpt lat="43.78906" lon="3.46048">
        <ele>633.65</ele>
        <time>2014-04-13T14:10:35Z</time>
      </trkpt>
      <trkpt lat="43.78916" lon="3.46044">
        <ele>633.17</ele>
        <time>2014-04-13T14:10:36Z</time>
      </trkpt>
      <trkpt lat="43.79" lon="3.46021">
        <ele>635.09</ele>
        <time>2014-04-13T14:10:46Z</time>
      </trkpt>
      <trkpt lat="43.79002" lon="3.46018">
        <ele>634.13</ele>
        <time>2014-04-13T14:10:47Z</time>
      </trkpt>
      <trkpt lat="43.79003" lon="3.46015">
        <ele>633.65</ele>
        <time>2014-04-13T14:10:48Z</time>
      </trkpt>
      <trkpt lat="43.79004" lon="3.46012">
        <ele>633.17</ele>
        <time>2014-04-13T14:10:49Z</time>
      </trkpt>
      <trkpt lat="43.79006" lon="3.46009">
        <ele>633.17</ele>
        <time>2014-04-13T14:10:50Z</time>
      </trkpt>
      <trkpt lat="43.7901" lon="3.46005">
        <ele>633.65</ele>
        <time>2014-04-13T14:10:51Z</time>
      </trkpt>
      <trkpt lat="43.79056" lon="3.45959">
        <ele>631.72</ele>
        <time>2014-04-13T14:10:57Z</time>
      </trkpt>
      <trkpt lat="43.79092" lon="3.45929">
        <ele>630.28</ele>
        <time>2014-04-13T14:11:01Z</time>
      </trkpt>
      <trkpt lat="43.79102" lon="3.45925">
        <ele>629.8</ele>
        <time>2014-04-13T14:11:02Z</time>
      </trkpt>
      <trkpt lat="43.79112" lon="3.4592">
        <ele>629.8</ele>
        <time>2014-04-13T14:11:03Z</time>
      </trkpt>
      <trkpt lat="43.79176" lon="3.45871">
        <ele>626.92</ele>
        <time>2014-04-13T14:11:10Z</time>
      </trkpt>
      <trkpt lat="43.79187" lon="3.45864">
        <ele>626.92</ele>
        <time>2014-04-13T14:11:11Z</time>
      </trkpt>
      <trkpt lat="43.79201" lon="3.45859">
        <ele>626.44</ele>
        <time>2014-04-13T14:11:12Z</time>
      </trkpt>
      <trkpt lat="43.79214" lon="3.45857">
        <ele>625.96</ele>
        <time>2014-04-13T14:11:13Z</time>
      </trkpt>
      <trkpt lat="43.79227" lon="3.45856">
        <ele>624.99</ele>
        <time>2014-04-13T14:11:14Z</time>
      </trkpt>
      <trkpt lat="43.79239" lon="3.45856">
        <ele>624.51</ele>
        <time>2014-04-13T14:11:15Z</time>
      </trkpt>
      <trkpt lat="43.79276" lon="3.45855">
        <ele>623.07</ele>
        <time>2014-04-13T14:11:21Z</time>
      </trkpt>
      <trkpt lat="43.79273" lon="3.45857">
        <ele>624.51</ele>
        <time>2014-04-13T14:11:52Z</time>
      </trkpt>
      <trkpt lat="43.79275" lon="3.45856">
        <ele>624.99</ele>
        <time>2014-04-13T14:12:40Z</time>
      </trkpt>
      <trkpt lat="43.79311" lon="3.45828">
        <ele>624.03</ele>
        <time>2014-04-13T14:12:46Z</time>
      </trkpt>
      <trkpt lat="43.79411" lon="3.45771">
        <ele>621.15</ele>
        <time>2014-04-13T14:12:53Z</time>
      </trkpt>
      <trkpt lat="43.79582" lon="3.45688">
        <ele>615.38</ele>
        <time>2014-04-13T14:13:02Z</time>
      </trkpt>
      <trkpt lat="43.79599" lon="3.45674">
        <ele>614.9</ele>
        <time>2014-04-13T14:13:03Z</time>
      </trkpt>
      <trkpt lat="43.79616" lon="3.45658">
        <ele>614.42</ele>
        <time>2014-04-13T14:13:04Z</time>
      </trkpt>
      <trkpt lat="43.79757" lon="3.45534">
        <ele>610.09</ele>
        <time>2014-04-13T14:13:12Z</time>
      </trkpt>
      <trkpt lat="43.79984" lon="3.45374">
        <ele>603.36</ele>
        <time>2014-04-13T14:13:24Z</time>
      </trkpt>
      <trkpt lat="43.80035" lon="3.45339">
        <ele>601.44</ele>
        <time>2014-04-13T14:13:29Z</time>
      </trkpt>
      <trkpt lat="43.80038" lon="3.45338">
        <ele>601.44</ele>
        <time>2014-04-13T14:13:35Z</time>
      </trkpt>
      <trkpt lat="43.80039" lon="3.45339">
        <ele>601.44</ele>
        <time>2014-04-13T14:13:39Z</time>
      </trkpt>
      <trkpt lat="43.80041" lon="3.45341">
        <ele>600.96</ele>
        <time>2014-04-13T14:13:40Z</time>
      </trkpt>
      <trkpt lat="43.80045" lon="3.45349">
        <ele>600.96</ele>
        <time>2014-04-13T14:13:41Z</time>
      </trkpt>
      <trkpt lat="43.80051" lon="3.45358">
        <ele>600.48</ele>
        <time>2014-04-13T14:13:42Z</time>
      </trkpt>
      <trkpt lat="43.80059" lon="3.4537">
        <ele>600.48</ele>
        <time>2014-04-13T14:13:43Z</time>
      </trkpt>
      <trkpt lat="43.8012" lon="3.45452">
        <ele>598.08</ele>
        <time>2014-04-13T14:13:48Z</time>
      </trkpt>
      <trkpt lat="43.80256" lon="3.45634">
        <ele>594.71</ele>
        <time>2014-04-13T14:13:56Z</time>
      </trkpt>
      <trkpt lat="43.80541" lon="3.46014">
        <ele>588.95</ele>
        <time>2014-04-13T14:14:11Z</time>
      </trkpt>
      <trkpt lat="43.80861" lon="3.46443">
        <ele>585.1</ele>
        <time>2014-04-13T14:14:27Z</time>
      </trkpt>
      <trkpt lat="43.81339" lon="3.47083">
        <ele>576.93</ele>
        <time>2014-04-13T14:14:50Z</time>
      </trkpt>
      <trkpt lat="43.81515" lon="3.47317">
        <ele>575.97</ele>
        <time>2014-04-13T14:14:59Z</time>
      </trkpt>
      <trkpt lat="43.81711" lon="3.47585">
        <ele>575.49</ele>
        <time>2014-04-13T14:15:09Z</time>
      </trkpt>
      <trkpt lat="43.82034" lon="3.48015">
        <ele>578.37</ele>
        <time>2014-04-13T14:15:25Z</time>
      </trkpt>
      <trkpt lat="43.82304" lon="3.4838">
        <ele>577.41</ele>
        <time>2014-04-13T14:15:38Z</time>
      </trkpt>
      <trkpt lat="43.82666" lon="3.48866">
        <ele>570.2</ele>
        <time>2014-04-13T14:15:55Z</time>
      </trkpt>
      <trkpt lat="43.83059" lon="3.49394">
        <ele>566.83</ele>
        <time>2014-04-13T14:16:14Z</time>
      </trkpt>
      <trkpt lat="43.83074" lon="3.4942">
        <ele>567.32</ele>
        <time>2014-04-13T14:16:15Z</time>
      </trkpt>
      <trkpt lat="43.83087" lon="3.4945">
        <ele>567.32</ele>
        <time>2014-04-13T14:16:16Z</time>
      </trkpt>
      <trkpt lat="43.83098" lon="3.49484">
        <ele>567.32</ele>
        <time>2014-04-13T14:16:17Z</time>
      </trkpt>
      <trkpt lat="43.8321" lon="3.49855">
        <ele>567.8</ele>
        <time>2014-04-13T14:16:27Z</time>
      </trkpt>
      <trkpt lat="43.83378" lon="3.50405">
        <ele>576.93</ele>
        <time>2014-04-13T14:16:42Z</time>
      </trkpt>
      <trkpt lat="43.83406" lon="3.50468">
        <ele>577.89</ele>
        <time>2014-04-13T14:16:44Z</time>
      </trkpt>
      <trkpt lat="43.83423" lon="3.50497">
        <ele>578.37</ele>
        <time>2014-04-13T14:16:45Z</time>
      </trkpt>
      <trkpt lat="43.83443" lon="3.50525">
        <ele>578.85</ele>
        <time>2014-04-13T14:16:46Z</time>
      </trkpt>
      <trkpt lat="43.83797" lon="3.50965">
        <ele>585.58</ele>
        <time>2014-04-13T14:17:02Z</time>
      </trkpt>
      <trkpt lat="43.84055" lon="3.51283">
        <ele>586.06</ele>
        <time>2014-04-13T14:17:14Z</time>
      </trkpt>
      <trkpt lat="43.84293" lon="3.51577">
        <ele>577.89</ele>
        <time>2014-04-13T14:17:26Z</time>
      </trkpt>
      <trkpt lat="43.84408" lon="3.5172">
        <ele>574.53</ele>
        <time>2014-04-13T14:17:34Z</time>
      </trkpt>
      <trkpt lat="43.84504" lon="3.51838">
        <ele>578.37</ele>
        <time>2014-04-13T14:17:43Z</time>
      </trkpt>
      <trkpt lat="43.84557" lon="3.5188">
        <ele>579.81</ele>
        <time>2014-04-13T14:17:51Z</time>
      </trkpt>
      <trkpt lat="43.84567" lon="3.51883">
        <ele>580.29</ele>
        <time>2014-04-13T14:17:53Z</time>
      </trkpt>
      <trkpt lat="43.84573" lon="3.51883">
        <ele>580.77</ele>
        <time>2014-04-13T14:17:54Z</time>
      </trkpt>
      <trkpt lat="43.8458" lon="3.51883">
        <ele>581.25</ele>
        <time>2014-04-13T14:17:55Z</time>
      </trkpt>
      <trkpt lat="43.84594" lon="3.51881">
        <ele>581.73</ele>
        <time>2014-04-13T14:17:57Z</time>
      </trkpt>
      <trkpt lat="43.84672" lon="3.51862">
        <ele>583.66</ele>
        <time>2014-04-13T14:18:07Z</time>
      </trkpt>
      <trkpt lat="43.8468" lon="3.51863">
        <ele>583.18</ele>
        <time>2014-04-13T14:18:08Z</time>
      </trkpt>
      <trkpt lat="43.84689" lon="3.51866">
        <ele>583.18</ele>
        <time>2014-04-13T14:18:09Z</time>
      </trkpt>
      <trkpt lat="43.84746" lon="3.51911">
        <ele>584.62</ele>
        <time>2014-04-13T14:18:18Z</time>
      </trkpt>
      <trkpt lat="43.84768" lon="3.5195">
        <ele>586.54</ele>
        <time>2014-04-13T14:18:26Z</time>
      </trkpt>
      <trkpt lat="43.84784" lon="3.51992">
        <ele>587.02</ele>
        <time>2014-04-13T14:18:31Z</time>
      </trkpt>
      <trkpt lat="43.84787" lon="3.52006">
        <ele>587.02</ele>
        <time>2014-04-13T14:18:32Z</time>
      </trkpt>
      <trkpt lat="43.84789" lon="3.52021">
        <ele>587.02</ele>
        <time>2014-04-13T14:18:33Z</time>
      </trkpt>
      <trkpt lat="43.84789" lon="3.52037">
        <ele>587.02</ele>
        <time>2014-04-13T14:18:34Z</time>
      </trkpt>
      <trkpt lat="43.84788" lon="3.52053">
        <ele>587.02</ele>
        <time>2014-04-13T14:18:35Z</time>
      </trkpt>
      <trkpt lat="43.84787" lon="3.52069">
        <ele>587.02</ele>
        <time>2014-04-13T14:18:36Z</time>
      </trkpt>
      <trkpt lat="43.84773" lon="3.52192">
        <ele>585.1</ele>
        <time>2014-04-13T14:18:43Z</time>
      </trkpt>
      <trkpt lat="43.84774" lon="3.52211">
        <ele>584.62</ele>
        <time>2014-04-13T14:18:44Z</time>
      </trkpt>
      <trkpt lat="43.84778" lon="3.52231">
        <ele>584.14</ele>
        <time>2014-04-13T14:18:45Z</time>
      </trkpt>
      <trkpt lat="43.84784" lon="3.5225">
        <ele>583.18</ele>
        <time>2014-04-13T14:18:46Z</time>
      </trkpt>
      <trkpt lat="43.84793" lon="3.52267">
        <ele>582.7</ele>
        <time>2014-04-13T14:18:47Z</time>
      </trkpt>
      <trkpt lat="43.84803" lon="3.52283">
        <ele>581.73</ele>
        <time>2014-04-13T14:18:48Z</time>
      </trkpt>
      <trkpt lat="43.84845" lon="3.52345">
        <ele>580.77</ele>
        <time>2014-04-13T14:18:52Z</time>
      </trkpt>
      <trkpt lat="43.84856" lon="3.52357">
        <ele>580.77</ele>
        <time>2014-04-13T14:18:53Z</time>
      </trkpt>
      <trkpt lat="43.84868" lon="3.52365">
        <ele>580.77</ele>
        <time>2014-04-13T14:18:54Z</time>
      </trkpt>
      <trkpt lat="43.8488" lon="3.52371">
        <ele>580.29</ele>
        <time>2014-04-13T14:18:55Z</time>
      </trkpt>
      <trkpt lat="43.84892" lon="3.52376">
        <ele>579.81</ele>
        <time>2014-04-13T14:18:56Z</time>
      </trkpt>
      <trkpt lat="43.84903" lon="3.52381">
        <ele>579.81</ele>
        <time>2014-04-13T14:18:57Z</time>
      </trkpt>
      <trkpt lat="43.84913" lon="3.5239">
        <ele>579.33</ele>
        <time>2014-04-13T14:18:58Z</time>
      </trkpt>
      <trkpt lat="43.84918" lon="3.52403">
        <ele>578.85</ele>
        <time>2014-04-13T14:18:59Z</time>
      </trkpt>
      <trkpt lat="43.8492" lon="3.52419">
        <ele>578.37</ele>
        <time>2014-04-13T14:19:00Z</time>
      </trkpt>
      <trkpt lat="43.84919" lon="3.52434">
        <ele>577.89</ele>
        <time>2014-04-13T14:19:01Z</time>
      </trkpt>
      <trkpt lat="43.84918" lon="3.52451">
        <ele>577.41</ele>
        <time>2014-04-13T14:19:02Z</time>
      </trkpt>
      <trkpt lat="43.84918" lon="3.52502">
        <ele>575.01</ele>
        <time>2014-04-13T14:19:05Z</time>
      </trkpt>
      <trkpt lat="43.84921" lon="3.52518">
        <ele>574.53</ele>
        <time>2014-04-13T14:19:06Z</time>
      </trkpt>
      <trkpt lat="43.84927" lon="3.52533">
        <ele>573.08</ele>
        <time>2014-04-13T14:19:07Z</time>
      </trkpt>
      <trkpt lat="43.84936" lon="3.52545">
        <ele>572.6</ele>
        <time>2014-04-13T14:19:08Z</time>
      </trkpt>
      <trkpt lat="43.84948" lon="3.52555">
        <ele>571.64</ele>
        <time>2014-04-13T14:19:09Z</time>
      </trkpt>
      <trkpt lat="43.84961" lon="3.52564">
        <ele>570.2</ele>
        <time>2014-04-13T14:19:10Z</time>
      </trkpt>
      <trkpt lat="43.84973" lon="3.52573">
        <ele>568.76</ele>
        <time>2014-04-13T14:19:11Z</time>
      </trkpt>
      <trkpt lat="43.84983" lon="3.52584">
        <ele>567.8</ele>
        <time>2014-04-13T14:19:12Z</time>
      </trkpt>
      <trkpt lat="43.84991" lon="3.52597">
        <ele>567.32</ele>
        <time>2014-04-13T14:19:13Z</time>
      </trkpt>
      <trkpt lat="43.84996" lon="3.52614">
        <ele>566.35</ele>
        <time>2014-04-13T14:19:14Z</time>
      </trkpt>
      <trkpt lat="43.84998" lon="3.52631">
        <ele>565.39</ele>
        <time>2014-04-13T14:19:15Z</time>
      </trkpt>
      <trkpt lat="43.84997" lon="3.52649">
        <ele>564.91</ele>
        <time>2014-04-13T14:19:16Z</time>
      </trkpt>
      <trkpt lat="43.84992" lon="3.52666">
        <ele>564.43</ele>
        <time>2014-04-13T14:19:17Z</time>
      </trkpt>
      <trkpt lat="43.84984" lon="3.52682">
        <ele>563.95</ele>
        <time>2014-04-13T14:19:18Z</time>
      </trkpt>
      <trkpt lat="43.84974" lon="3.52696">
        <ele>563.47</ele>
        <time>2014-04-13T14:19:19Z</time>
      </trkpt>
      <trkpt lat="43.84963" lon="3.52709">
        <ele>563.47</ele>
        <time>2014-04-13T14:19:20Z</time>
      </trkpt>
      <trkpt lat="43.8495" lon="3.52721">
        <ele>562.99</ele>
        <time>2014-04-13T14:19:21Z</time>
      </trkpt>
      <trkpt lat="43.84937" lon="3.52732">
        <ele>562.51</ele>
        <time>2014-04-13T14:19:22Z</time>
      </trkpt>
      <trkpt lat="43.84922" lon="3.52743">
        <ele>562.03</ele>
        <time>2014-04-13T14:19:23Z</time>
      </trkpt>
      <trkpt lat="43.84906" lon="3.52754">
        <ele>561.55</ele>
        <time>2014-04-13T14:19:24Z</time>
      </trkpt>
      <trkpt lat="43.84834" lon="3.52806">
        <ele>558.66</ele>
        <time>2014-04-13T14:19:28Z</time>
      </trkpt>
      <trkpt lat="43.84815" lon="3.52813">
        <ele>557.7</ele>
        <time>2014-04-13T14:19:29Z</time>
      </trkpt>
      <trkpt lat="43.84797" lon="3.52818">
        <ele>556.74</ele>
        <time>2014-04-13T14:19:30Z</time>
      </trkpt>
      <trkpt lat="43.84763" lon="3.52829">
        <ele>554.82</ele>
        <time>2014-04-13T14:19:32Z</time>
      </trkpt>
      <trkpt lat="43.84747" lon="3.52837">
        <ele>554.34</ele>
        <time>2014-04-13T14:19:33Z</time>
      </trkpt>
      <trkpt lat="43.84707" lon="3.52861">
        <ele>551.45</ele>
        <time>2014-04-13T14:19:36Z</time>
      </trkpt>
      <trkpt lat="43.84699" lon="3.52873">
        <ele>550.49</ele>
        <time>2014-04-13T14:19:37Z</time>
      </trkpt>
      <trkpt lat="43.84695" lon="3.52891">
        <ele>549.53</ele>
        <time>2014-04-13T14:19:38Z</time>
      </trkpt>
      <trkpt lat="43.84695" lon="3.52912">
        <ele>549.05</ele>
        <time>2014-04-13T14:19:39Z</time>
      </trkpt>
      <trkpt lat="43.84698" lon="3.52928">
        <ele>548.09</ele>
        <time>2014-04-13T14:19:40Z</time>
      </trkpt>
      <trkpt lat="43.84704" lon="3.5294">
        <ele>547.13</ele>
        <time>2014-04-13T14:19:41Z</time>
      </trkpt>
      <trkpt lat="43.84712" lon="3.52949">
        <ele>547.13</ele>
        <time>2014-04-13T14:19:42Z</time>
      </trkpt>
      <trkpt lat="43.84726" lon="3.52951">
        <ele>546.65</ele>
        <time>2014-04-13T14:19:43Z</time>
      </trkpt>
      <trkpt lat="43.8474" lon="3.52956">
        <ele>546.65</ele>
        <time>2014-04-13T14:19:44Z</time>
      </trkpt>
      <trkpt lat="43.84755" lon="3.52967">
        <ele>546.17</ele>
        <time>2014-04-13T14:19:45Z</time>
      </trkpt>
      <trkpt lat="43.84769" lon="3.52981">
        <ele>545.2</ele>
        <time>2014-04-13T14:19:46Z</time>
      </trkpt>
      <trkpt lat="43.84782" lon="3.52997">
        <ele>544.24</ele>
        <time>2014-04-13T14:19:47Z</time>
      </trkpt>
      <trkpt lat="43.84793" lon="3.53014">
        <ele>543.28</ele>
        <time>2014-04-13T14:19:48Z</time>
      </trkpt>
      <trkpt lat="43.84803" lon="3.53033">
        <ele>542.8</ele>
        <time>2014-04-13T14:19:49Z</time>
      </trkpt>
      <trkpt lat="43.84812" lon="3.53053">
        <ele>541.84</ele>
        <time>2014-04-13T14:19:50Z</time>
      </trkpt>
      <trkpt lat="43.84819" lon="3.53074">
        <ele>540.88</ele>
        <time>2014-04-13T14:19:51Z</time>
      </trkpt>
      <trkpt lat="43.84824" lon="3.53098">
        <ele>539.92</ele>
        <time>2014-04-13T14:19:52Z</time>
      </trkpt>
      <trkpt lat="43.84826" lon="3.53122">
        <ele>538.96</ele>
        <time>2014-04-13T14:19:53Z</time>
      </trkpt>
      <trkpt lat="43.84829" lon="3.53145">
        <ele>537.99</ele>
        <time>2014-04-13T14:19:54Z</time>
      </trkpt>
      <trkpt lat="43.84833" lon="3.53167">
        <ele>537.03</ele>
        <time>2014-04-13T14:19:55Z</time>
      </trkpt>
      <trkpt lat="43.84839" lon="3.53189">
        <ele>535.59</ele>
        <time>2014-04-13T14:19:56Z</time>
      </trkpt>
      <trkpt lat="43.84848" lon="3.53209">
        <ele>534.15</ele>
        <time>2014-04-13T14:19:57Z</time>
      </trkpt>
      <trkpt lat="43.84858" lon="3.53227">
        <ele>533.19</ele>
        <time>2014-04-13T14:19:58Z</time>
      </trkpt>
      <trkpt lat="43.84869" lon="3.53241">
        <ele>532.23</ele>
        <time>2014-04-13T14:19:59Z</time>
      </trkpt>
      <trkpt lat="43.84878" lon="3.5325">
        <ele>531.27</ele>
        <time>2014-04-13T14:20:00Z</time>
      </trkpt>
      <trkpt lat="43.84888" lon="3.53255">
        <ele>529.82</ele>
        <time>2014-04-13T14:20:01Z</time>
      </trkpt>
      <trkpt lat="43.84901" lon="3.53256">
        <ele>528.38</ele>
        <time>2014-04-13T14:20:02Z</time>
      </trkpt>
      <trkpt lat="43.84915" lon="3.53251">
        <ele>527.42</ele>
        <time>2014-04-13T14:20:03Z</time>
      </trkpt>
      <trkpt lat="43.84928" lon="3.53243">
        <ele>526.46</ele>
        <time>2014-04-13T14:20:04Z</time>
      </trkpt>
      <trkpt lat="43.84938" lon="3.53236">
        <ele>525.98</ele>
        <time>2014-04-13T14:20:05Z</time>
      </trkpt>
      <trkpt lat="43.84946" lon="3.53231">
        <ele>525.98</ele>
        <time>2014-04-13T14:20:06Z</time>
      </trkpt>
      <trkpt lat="43.84952" lon="3.53232">
        <ele>525.5</ele>
        <time>2014-04-13T14:20:07Z</time>
      </trkpt>
      <trkpt lat="43.84955" lon="3.53237">
        <ele>524.54</ele>
        <time>2014-04-13T14:20:08Z</time>
      </trkpt>
      <trkpt lat="43.84955" lon="3.53244">
        <ele>523.09</ele>
        <time>2014-04-13T14:20:09Z</time>
      </trkpt>
      <trkpt lat="43.8495" lon="3.53252">
        <ele>523.09</ele>
        <time>2014-04-13T14:20:10Z</time>
      </trkpt>
      <trkpt lat="43.84939" lon="3.53257">
        <ele>522.61</ele>
        <time>2014-04-13T14:20:11Z</time>
      </trkpt>
      <trkpt lat="43.84926" lon="3.53263">
        <ele>522.13</ele>
        <time>2014-04-13T14:20:12Z</time>
      </trkpt>
      <trkpt lat="43.84911" lon="3.53269">
        <ele>521.65</ele>
        <time>2014-04-13T14:20:13Z</time>
      </trkpt>
      <trkpt lat="43.84898" lon="3.53275">
        <ele>521.65</ele>
        <time>2014-04-13T14:20:14Z</time>
      </trkpt>
      <trkpt lat="43.84884" lon="3.53277">
        <ele>520.69</ele>
        <time>2014-04-13T14:20:15Z</time>
      </trkpt>
      <trkpt lat="43.84872" lon="3.53274">
        <ele>520.21</ele>
        <time>2014-04-13T14:20:16Z</time>
      </trkpt>
      <trkpt lat="43.84863" lon="3.53266">
        <ele>519.73</ele>
        <time>2014-04-13T14:20:17Z</time>
      </trkpt>
      <trkpt lat="43.84853" lon="3.53254">
        <ele>519.25</ele>
        <time>2014-04-13T14:20:18Z</time>
      </trkpt>
      <trkpt lat="43.84842" lon="3.53241">
        <ele>518.29</ele>
        <time>2014-04-13T14:20:19Z</time>
      </trkpt>
      <trkpt lat="43.84831" lon="3.53226">
        <ele>517.33</ele>
        <time>2014-04-13T14:20:20Z</time>
      </trkpt>
      <trkpt lat="43.84812" lon="3.53195">
        <ele>514.92</ele>
        <time>2014-04-13T14:20:22Z</time>
      </trkpt>
      <trkpt lat="43.84805" lon="3.53177">
        <ele>514.44</ele>
        <time>2014-04-13T14:20:23Z</time>
      </trkpt>
      <trkpt lat="43.84799" lon="3.53157">
        <ele>513</ele>
        <time>2014-04-13T14:20:24Z</time>
      </trkpt>
      <trkpt lat="43.84784" lon="3.531">
        <ele>509.64</ele>
        <time>2014-04-13T14:20:27Z</time>
      </trkpt>
      <trkpt lat="43.84777" lon="3.53084">
        <ele>508.67</ele>
        <time>2014-04-13T14:20:28Z</time>
      </trkpt>
      <trkpt lat="43.84769" lon="3.53068">
        <ele>507.71</ele>
        <time>2014-04-13T14:20:29Z</time>
      </trkpt>
      <trkpt lat="43.8476" lon="3.53054">
        <ele>506.75</ele>
        <time>2014-04-13T14:20:30Z</time>
      </trkpt>
      <trkpt lat="43.8475" lon="3.53041">
        <ele>505.79</ele>
        <time>2014-04-13T14:20:31Z</time>
      </trkpt>
      <trkpt lat="43.8474" lon="3.53031">
        <ele>504.83</ele>
        <time>2014-04-13T14:20:32Z</time>
      </trkpt>
      <trkpt lat="43.8473" lon="3.53024">
        <ele>503.87</ele>
        <time>2014-04-13T14:20:33Z</time>
      </trkpt>
      <trkpt lat="43.84723" lon="3.53018">
        <ele>503.39</ele>
        <time>2014-04-13T14:20:34Z</time>
      </trkpt>
      <trkpt lat="43.84708" lon="3.53008">
        <ele>501.95</ele>
        <time>2014-04-13T14:20:37Z</time>
      </trkpt>
      <trkpt lat="43.84698" lon="3.53004">
        <ele>500.98</ele>
        <time>2014-04-13T14:20:39Z</time>
      </trkpt>
      <trkpt lat="43.84694" lon="3.53004">
        <ele>500.5</ele>
        <time>2014-04-13T14:20:40Z</time>
      </trkpt>
      <trkpt lat="43.84691" lon="3.53007">
        <ele>499.54</ele>
        <time>2014-04-13T14:20:41Z</time>
      </trkpt>
      <trkpt lat="43.8469" lon="3.53012">
        <ele>499.06</ele>
        <time>2014-04-13T14:20:42Z</time>
      </trkpt>
      <trkpt lat="43.84692" lon="3.53018">
        <ele>498.58</ele>
        <time>2014-04-13T14:20:43Z</time>
      </trkpt>
      <trkpt lat="43.84695" lon="3.53023">
        <ele>498.58</ele>
        <time>2014-04-13T14:20:44Z</time>
      </trkpt>
      <trkpt lat="43.84701" lon="3.53027">
        <ele>498.58</ele>
        <time>2014-04-13T14:20:45Z</time>
      </trkpt>
      <trkpt lat="43.8471" lon="3.5303">
        <ele>498.1</ele>
        <time>2014-04-13T14:20:46Z</time>
      </trkpt>
      <trkpt lat="43.84719" lon="3.53034">
        <ele>497.62</ele>
        <time>2014-04-13T14:20:47Z</time>
      </trkpt>
      <trkpt lat="43.84728" lon="3.5304">
        <ele>497.14</ele>
        <time>2014-04-13T14:20:48Z</time>
      </trkpt>
      <trkpt lat="43.84738" lon="3.53049">
        <ele>496.66</ele>
        <time>2014-04-13T14:20:49Z</time>
      </trkpt>
      <trkpt lat="43.84747" lon="3.53062">
        <ele>496.66</ele>
        <time>2014-04-13T14:20:50Z</time>
      </trkpt>
      <trkpt lat="43.84756" lon="3.53079">
        <ele>496.66</ele>
        <time>2014-04-13T14:20:51Z</time>
      </trkpt>
      <trkpt lat="43.84763" lon="3.53098">
        <ele>496.66</ele>
        <time>2014-04-13T14:20:52Z</time>
      </trkpt>
      <trkpt lat="43.84769" lon="3.53119">
        <ele>496.66</ele>
        <time>2014-04-13T14:20:53Z</time>
      </trkpt>
      <trkpt lat="43.84773" lon="3.53142">
        <ele>496.66</ele>
        <time>2014-04-13T14:20:54Z</time>
      </trkpt>
      <trkpt lat="43.84776" lon="3.53166">
        <ele>495.22</ele>
        <time>2014-04-13T14:20:55Z</time>
      </trkpt>
      <trkpt lat="43.84778" lon="3.5319">
        <ele>493.77</ele>
        <time>2014-04-13T14:20:56Z</time>
      </trkpt>
      <trkpt lat="43.84788" lon="3.53234">
        <ele>491.37</ele>
        <time>2014-04-13T14:20:58Z</time>
      </trkpt>
      <trkpt lat="43.84797" lon="3.53255">
        <ele>490.41</ele>
        <time>2014-04-13T14:20:59Z</time>
      </trkpt>
      <trkpt lat="43.84809" lon="3.53275">
        <ele>489.45</ele>
        <time>2014-04-13T14:21:00Z</time>
      </trkpt>
      <trkpt lat="43.84821" lon="3.53295">
        <ele>488.01</ele>
        <time>2014-04-13T14:21:01Z</time>
      </trkpt>
      <trkpt lat="43.84832" lon="3.53316">
        <ele>486.08</ele>
        <time>2014-04-13T14:21:02Z</time>
      </trkpt>
      <trkpt lat="43.8488" lon="3.53397">
        <ele>481.76</ele>
        <time>2014-04-13T14:21:06Z</time>
      </trkpt>
      <trkpt lat="43.84893" lon="3.53409">
        <ele>480.8</ele>
        <time>2014-04-13T14:21:07Z</time>
      </trkpt>
      <trkpt lat="43.84906" lon="3.53416">
        <ele>479.35</ele>
        <time>2014-04-13T14:21:08Z</time>
      </trkpt>
      <trkpt lat="43.8492" lon="3.53425">
        <ele>477.91</ele>
        <time>2014-04-13T14:21:09Z</time>
      </trkpt>
      <trkpt lat="43.84933" lon="3.53437">
        <ele>476.47</ele>
        <time>2014-04-13T14:21:10Z</time>
      </trkpt>
      <trkpt lat="43.84945" lon="3.53453">
        <ele>475.03</ele>
        <time>2014-04-13T14:21:11Z</time>
      </trkpt>
      <trkpt lat="43.84958" lon="3.53472">
        <ele>473.59</ele>
        <time>2014-04-13T14:21:12Z</time>
      </trkpt>
      <trkpt lat="43.84973" lon="3.5349">
        <ele>472.14</ele>
        <time>2014-04-13T14:21:13Z</time>
      </trkpt>
      <trkpt lat="43.85059" lon="3.53616">
        <ele>460.13</ele>
        <time>2014-04-13T14:21:20Z</time>
      </trkpt>
      <trkpt lat="43.85079" lon="3.5364">
        <ele>457.72</ele>
        <time>2014-04-13T14:21:22Z</time>
      </trkpt>
      <trkpt lat="43.85088" lon="3.53647">
        <ele>456.28</ele>
        <time>2014-04-13T14:21:23Z</time>
      </trkpt>
      <trkpt lat="43.85094" lon="3.53652">
        <ele>455.8</ele>
        <time>2014-04-13T14:21:24Z</time>
      </trkpt>
      <trkpt lat="43.85097" lon="3.53657">
        <ele>454.36</ele>
        <time>2014-04-13T14:21:25Z</time>
      </trkpt>
      <trkpt lat="43.85098" lon="3.53661">
        <ele>453.4</ele>
        <time>2014-04-13T14:21:26Z</time>
      </trkpt>
      <trkpt lat="43.85094" lon="3.53663">
        <ele>451.96</ele>
        <time>2014-04-13T14:21:27Z</time>
      </trkpt>
      <trkpt lat="43.85088" lon="3.53661">
        <ele>451</ele>
        <time>2014-04-13T14:21:28Z</time>
      </trkpt>
      <trkpt lat="43.85078" lon="3.53653">
        <ele>449.55</ele>
        <time>2014-04-13T14:21:29Z</time>
      </trkpt>
      <trkpt lat="43.85067" lon="3.53642">
        <ele>448.59</ele>
        <time>2014-04-13T14:21:30Z</time>
      </trkpt>
      <trkpt lat="43.85055" lon="3.5363">
        <ele>447.15</ele>
        <time>2014-04-13T14:21:31Z</time>
      </trkpt>
      <trkpt lat="43.85043" lon="3.53616">
        <ele>446.19</ele>
        <time>2014-04-13T14:21:32Z</time>
      </trkpt>
      <trkpt lat="43.84972" lon="3.53535">
        <ele>439.46</ele>
        <time>2014-04-13T14:21:37Z</time>
      </trkpt>
      <trkpt lat="43.84956" lon="3.53522">
        <ele>438.02</ele>
        <time>2014-04-13T14:21:38Z</time>
      </trkpt>
      <trkpt lat="43.84895" lon="3.53473">
        <ele>432.73</ele>
        <time>2014-04-13T14:21:42Z</time>
      </trkpt>
      <trkpt lat="43.8488" lon="3.53464">
        <ele>431.29</ele>
        <time>2014-04-13T14:21:43Z</time>
      </trkpt>
      <trkpt lat="43.84823" lon="3.53431">
        <ele>426.48</ele>
        <time>2014-04-13T14:21:47Z</time>
      </trkpt>
      <trkpt lat="43.84813" lon="3.53418">
        <ele>425.52</ele>
        <time>2014-04-13T14:21:48Z</time>
      </trkpt>
      <trkpt lat="43.8479" lon="3.5339">
        <ele>423.6</ele>
        <time>2014-04-13T14:21:50Z</time>
      </trkpt>
      <trkpt lat="43.84704" lon="3.53283">
        <ele>414.95</ele>
        <time>2014-04-13T14:21:57Z</time>
      </trkpt>
      <trkpt lat="43.84698" lon="3.53267">
        <ele>413.5</ele>
        <time>2014-04-13T14:21:58Z</time>
      </trkpt>
      <trkpt lat="43.84693" lon="3.53249">
        <ele>412.54</ele>
        <time>2014-04-13T14:21:59Z</time>
      </trkpt>
      <trkpt lat="43.84691" lon="3.53232">
        <ele>411.1</ele>
        <time>2014-04-13T14:22:00Z</time>
      </trkpt>
      <trkpt lat="43.84689" lon="3.53217">
        <ele>409.66</ele>
        <time>2014-04-13T14:22:01Z</time>
      </trkpt>
      <trkpt lat="43.84685" lon="3.53203">
        <ele>406.77</ele>
        <time>2014-04-13T14:22:04Z</time>
      </trkpt>
      <trkpt lat="43.84681" lon="3.53211">
        <ele>405.33</ele>
        <time>2014-04-13T14:22:05Z</time>
      </trkpt>
      <trkpt lat="43.84681" lon="3.53223">
        <ele>404.37</ele>
        <time>2014-04-13T14:22:06Z</time>
      </trkpt>
      <trkpt lat="43.84684" lon="3.53236">
        <ele>402.93</ele>
        <time>2014-04-13T14:22:07Z</time>
      </trkpt>
      <trkpt lat="43.84688" lon="3.53255">
        <ele>402.45</ele>
        <time>2014-04-13T14:22:08Z</time>
      </trkpt>
      <trkpt lat="43.84697" lon="3.53294">
        <ele>400.53</ele>
        <time>2014-04-13T14:22:10Z</time>
      </trkpt>
      <trkpt lat="43.84704" lon="3.53313">
        <ele>399.08</ele>
        <time>2014-04-13T14:22:11Z</time>
      </trkpt>
      <trkpt lat="43.84713" lon="3.53333">
        <ele>398.12</ele>
        <time>2014-04-13T14:22:12Z</time>
      </trkpt>
      <trkpt lat="43.84745" lon="3.53394">
        <ele>395.24</ele>
        <time>2014-04-13T14:22:15Z</time>
      </trkpt>
      <trkpt lat="43.84757" lon="3.5341">
        <ele>394.28</ele>
        <time>2014-04-13T14:22:16Z</time>
      </trkpt>
      <trkpt lat="43.84783" lon="3.53443">
        <ele>392.84</ele>
        <time>2014-04-13T14:22:18Z</time>
      </trkpt>
      <trkpt lat="43.84793" lon="3.53462">
        <ele>391.87</ele>
        <time>2014-04-13T14:22:19Z</time>
      </trkpt>
      <trkpt lat="43.84804" lon="3.5348">
        <ele>391.39</ele>
        <time>2014-04-13T14:22:20Z</time>
      </trkpt>
      <trkpt lat="43.84815" lon="3.53495">
        <ele>389.95</ele>
        <time>2014-04-13T14:22:21Z</time>
      </trkpt>
      <trkpt lat="43.84829" lon="3.53508">
        <ele>388.99</ele>
        <time>2014-04-13T14:22:22Z</time>
      </trkpt>
      <trkpt lat="43.84846" lon="3.53519">
        <ele>387.55</ele>
        <time>2014-04-13T14:22:23Z</time>
      </trkpt>
      <trkpt lat="43.84861" lon="3.53532">
        <ele>386.59</ele>
        <time>2014-04-13T14:22:24Z</time>
      </trkpt>
      <trkpt lat="43.84874" lon="3.53547">
        <ele>385.63</ele>
        <time>2014-04-13T14:22:25Z</time>
      </trkpt>
      <trkpt lat="43.84886" lon="3.53563">
        <ele>384.18</ele>
        <time>2014-04-13T14:22:26Z</time>
      </trkpt>
      <trkpt lat="43.84899" lon="3.53577">
        <ele>383.22</ele>
        <time>2014-04-13T14:22:27Z</time>
      </trkpt>
      <trkpt lat="43.84913" lon="3.53588">
        <ele>381.78</ele>
        <time>2014-04-13T14:22:28Z</time>
      </trkpt>
      <trkpt lat="43.84925" lon="3.53599">
        <ele>380.34</ele>
        <time>2014-04-13T14:22:29Z</time>
      </trkpt>
      <trkpt lat="43.84935" lon="3.53612">
        <ele>379.38</ele>
        <time>2014-04-13T14:22:30Z</time>
      </trkpt>
      <trkpt lat="43.84943" lon="3.53628">
        <ele>377.94</ele>
        <time>2014-04-13T14:22:31Z</time>
      </trkpt>
      <trkpt lat="43.84952" lon="3.53649">
        <ele>376.49</ele>
        <time>2014-04-13T14:22:32Z</time>
      </trkpt>
      <trkpt lat="43.8496" lon="3.53669">
        <ele>375.05</ele>
        <time>2014-04-13T14:22:33Z</time>
      </trkpt>
      <trkpt lat="43.84967" lon="3.53691">
        <ele>373.61</ele>
        <time>2014-04-13T14:22:34Z</time>
      </trkpt>
      <trkpt lat="43.84974" lon="3.53711">
        <ele>372.17</ele>
        <time>2014-04-13T14:22:35Z</time>
      </trkpt>
      <trkpt lat="43.84991" lon="3.5374">
        <ele>369.76</ele>
        <time>2014-04-13T14:22:37Z</time>
      </trkpt>
      <trkpt lat="43.85005" lon="3.53748">
        <ele>368.8</ele>
        <time>2014-04-13T14:22:38Z</time>
      </trkpt>
      <trkpt lat="43.8502" lon="3.5376">
        <ele>367.36</ele>
        <time>2014-04-13T14:22:39Z</time>
      </trkpt>
      <trkpt lat="43.85033" lon="3.53774">
        <ele>366.4</ele>
        <time>2014-04-13T14:22:40Z</time>
      </trkpt>
      <trkpt lat="43.85045" lon="3.53789">
        <ele>365.44</ele>
        <time>2014-04-13T14:22:41Z</time>
      </trkpt>
      <trkpt lat="43.85054" lon="3.53807">
        <ele>364.48</ele>
        <time>2014-04-13T14:22:42Z</time>
      </trkpt>
      <trkpt lat="43.85061" lon="3.53827">
        <ele>362.55</ele>
        <time>2014-04-13T14:22:43Z</time>
      </trkpt>
      <trkpt lat="43.85069" lon="3.53846">
        <ele>361.59</ele>
        <time>2014-04-13T14:22:44Z</time>
      </trkpt>
      <trkpt lat="43.85077" lon="3.53865">
        <ele>360.63</ele>
        <time>2014-04-13T14:22:45Z</time>
      </trkpt>
      <trkpt lat="43.85082" lon="3.53883">
        <ele>359.67</ele>
        <time>2014-04-13T14:22:46Z</time>
      </trkpt>
      <trkpt lat="43.85087" lon="3.53903">
        <ele>359.19</ele>
        <time>2014-04-13T14:22:47Z</time>
      </trkpt>
      <trkpt lat="43.85094" lon="3.53922">
        <ele>357.75</ele>
        <time>2014-04-13T14:22:48Z</time>
      </trkpt>
      <trkpt lat="43.85105" lon="3.53941">
        <ele>356.79</ele>
        <time>2014-04-13T14:22:49Z</time>
      </trkpt>
      <trkpt lat="43.85171" lon="3.5404">
        <ele>351.02</ele>
        <time>2014-04-13T14:22:56Z</time>
      </trkpt>
      <trkpt lat="43.85174" lon="3.54047">
        <ele>350.06</ele>
        <time>2014-04-13T14:22:57Z</time>
      </trkpt>
      <trkpt lat="43.85163" lon="3.54051">
        <ele>347.65</ele>
        <time>2014-04-13T14:23:00Z</time>
      </trkpt>
      <trkpt lat="43.85156" lon="3.54044">
        <ele>347.17</ele>
        <time>2014-04-13T14:23:01Z</time>
      </trkpt>
      <trkpt lat="43.85148" lon="3.54031">
        <ele>346.21</ele>
        <time>2014-04-13T14:23:02Z</time>
      </trkpt>
      <trkpt lat="43.85138" lon="3.54016">
        <ele>345.25</ele>
        <time>2014-04-13T14:23:03Z</time>
      </trkpt>
      <trkpt lat="43.85126" lon="3.54001">
        <ele>344.29</ele>
        <time>2014-04-13T14:23:04Z</time>
      </trkpt>
      <trkpt lat="43.85112" lon="3.53986">
        <ele>342.37</ele>
        <time>2014-04-13T14:23:05Z</time>
      </trkpt>
      <trkpt lat="43.85059" lon="3.53929">
        <ele>337.56</ele>
        <time>2014-04-13T14:23:09Z</time>
      </trkpt>
      <trkpt lat="43.85049" lon="3.53913">
        <ele>336.12</ele>
        <time>2014-04-13T14:23:10Z</time>
      </trkpt>
      <trkpt lat="43.8504" lon="3.53894">
        <ele>335.16</ele>
        <time>2014-04-13T14:23:11Z</time>
      </trkpt>
      <trkpt lat="43.85016" lon="3.53845">
        <ele>332.27</ele>
        <time>2014-04-13T14:23:14Z</time>
      </trkpt>
      <trkpt lat="43.85007" lon="3.53832">
        <ele>331.31</ele>
        <time>2014-04-13T14:23:15Z</time>
      </trkpt>
      <trkpt lat="43.84998" lon="3.53823">
        <ele>330.35</ele>
        <time>2014-04-13T14:23:16Z</time>
      </trkpt>
      <trkpt lat="43.8499" lon="3.5382">
        <ele>329.39</ele>
        <time>2014-04-13T14:23:17Z</time>
      </trkpt>
      <trkpt lat="43.84982" lon="3.53824">
        <ele>328.43</ele>
        <time>2014-04-13T14:23:18Z</time>
      </trkpt>
      <trkpt lat="43.84977" lon="3.53833">
        <ele>327.47</ele>
        <time>2014-04-13T14:23:19Z</time>
      </trkpt>
      <trkpt lat="43.84973" lon="3.53844">
        <ele>326.5</ele>
        <time>2014-04-13T14:23:20Z</time>
      </trkpt>
      <trkpt lat="43.84972" lon="3.53858">
        <ele>325.54</ele>
        <time>2014-04-13T14:23:21Z</time>
      </trkpt>
      <trkpt lat="43.84974" lon="3.5387">
        <ele>324.58</ele>
        <time>2014-04-13T14:23:22Z</time>
      </trkpt>
      <trkpt lat="43.84976" lon="3.53882">
        <ele>323.14</ele>
        <time>2014-04-13T14:23:23Z</time>
      </trkpt>
      <trkpt lat="43.84978" lon="3.53891">
        <ele>322.18</ele>
        <time>2014-04-13T14:23:24Z</time>
      </trkpt>
      <trkpt lat="43.84974" lon="3.53904">
        <ele>320.74</ele>
        <time>2014-04-13T14:23:25Z</time>
      </trkpt>
      <trkpt lat="43.84968" lon="3.53916">
        <ele>320.26</ele>
        <time>2014-04-13T14:23:26Z</time>
      </trkpt>
      <trkpt lat="43.84963" lon="3.53929">
        <ele>319.78</ele>
        <time>2014-04-13T14:23:27Z</time>
      </trkpt>
      <trkpt lat="43.8496" lon="3.53944">
        <ele>319.78</ele>
        <time>2014-04-13T14:23:28Z</time>
      </trkpt>
      <trkpt lat="43.84965" lon="3.5396">
        <ele>317.85</ele>
        <time>2014-04-13T14:23:29Z</time>
      </trkpt>
      <trkpt lat="43.84973" lon="3.53979">
        <ele>316.41</ele>
        <time>2014-04-13T14:23:30Z</time>
      </trkpt>
      <trkpt lat="43.84981" lon="3.54">
        <ele>314.49</ele>
        <time>2014-04-13T14:23:31Z</time>
      </trkpt>
      <trkpt lat="43.85008" lon="3.54058">
        <ele>311.12</ele>
        <time>2014-04-13T14:23:34Z</time>
      </trkpt>
      <trkpt lat="43.85018" lon="3.54074">
        <ele>310.16</ele>
        <time>2014-04-13T14:23:35Z</time>
      </trkpt>
      <trkpt lat="43.85047" lon="3.54137">
        <ele>306.32</ele>
        <time>2014-04-13T14:23:39Z</time>
      </trkpt>
      <trkpt lat="43.85062" lon="3.5418">
        <ele>302.47</ele>
        <time>2014-04-13T14:23:42Z</time>
      </trkpt>
      <trkpt lat="43.85068" lon="3.54191">
        <ele>301.51</ele>
        <time>2014-04-13T14:23:43Z</time>
      </trkpt>
      <trkpt lat="43.85092" lon="3.54232">
        <ele>299.59</ele>
        <time>2014-04-13T14:23:46Z</time>
      </trkpt>
      <trkpt lat="43.85101" lon="3.54242">
        <ele>298.63</ele>
        <time>2014-04-13T14:23:47Z</time>
      </trkpt>
      <trkpt lat="43.85112" lon="3.54255">
        <ele>297.67</ele>
        <time>2014-04-13T14:23:48Z</time>
      </trkpt>
      <trkpt lat="43.85122" lon="3.5427">
        <ele>296.7</ele>
        <time>2014-04-13T14:23:49Z</time>
      </trkpt>
      <trkpt lat="43.8513" lon="3.54288">
        <ele>295.74</ele>
        <time>2014-04-13T14:23:50Z</time>
      </trkpt>
      <trkpt lat="43.85137" lon="3.54308">
        <ele>295.26</ele>
        <time>2014-04-13T14:23:51Z</time>
      </trkpt>
      <trkpt lat="43.85142" lon="3.54329">
        <ele>294.78</ele>
        <time>2014-04-13T14:23:52Z</time>
      </trkpt>
      <trkpt lat="43.85142" lon="3.54351">
        <ele>293.82</ele>
        <time>2014-04-13T14:23:53Z</time>
      </trkpt>
      <trkpt lat="43.85138" lon="3.54373">
        <ele>292.38</ele>
        <time>2014-04-13T14:23:54Z</time>
      </trkpt>
      <trkpt lat="43.85135" lon="3.54392">
        <ele>291.9</ele>
        <time>2014-04-13T14:23:55Z</time>
      </trkpt>
      <trkpt lat="43.85133" lon="3.5441">
        <ele>290.94</ele>
        <time>2014-04-13T14:23:56Z</time>
      </trkpt>
      <trkpt lat="43.85133" lon="3.54428">
        <ele>290.46</ele>
        <time>2014-04-13T14:23:57Z</time>
      </trkpt>
      <trkpt lat="43.85137" lon="3.54447">
        <ele>289.49</ele>
        <time>2014-04-13T14:23:58Z</time>
      </trkpt>
      <trkpt lat="43.85143" lon="3.54466">
        <ele>289.01</ele>
        <time>2014-04-13T14:23:59Z</time>
      </trkpt>
      <trkpt lat="43.85148" lon="3.54485">
        <ele>288.05</ele>
        <time>2014-04-13T14:24:00Z</time>
      </trkpt>
      <trkpt lat="43.85155" lon="3.54523">
        <ele>286.13</ele>
        <time>2014-04-13T14:24:02Z</time>
      </trkpt>
      <trkpt lat="43.85162" lon="3.54568">
        <ele>285.17</ele>
        <time>2014-04-13T14:24:05Z</time>
      </trkpt>
      <trkpt lat="43.85159" lon="3.54582">
        <ele>284.21</ele>
        <time>2014-04-13T14:24:06Z</time>
      </trkpt>
      <trkpt lat="43.85154" lon="3.54597">
        <ele>283.25</ele>
        <time>2014-04-13T14:24:07Z</time>
      </trkpt>
      <trkpt lat="43.85137" lon="3.54657">
        <ele>282.77</ele>
        <time>2014-04-13T14:24:11Z</time>
      </trkpt>
      <trkpt lat="43.85124" lon="3.54686">
        <ele>281.8</ele>
        <time>2014-04-13T14:24:13Z</time>
      </trkpt>
      <trkpt lat="43.85117" lon="3.54703">
        <ele>281.32</ele>
        <time>2014-04-13T14:24:14Z</time>
      </trkpt>
      <trkpt lat="43.85108" lon="3.54719">
        <ele>279.88</ele>
        <time>2014-04-13T14:24:15Z</time>
      </trkpt>
      <trkpt lat="43.85098" lon="3.54736">
        <ele>278.44</ele>
        <time>2014-04-13T14:24:16Z</time>
      </trkpt>
      <trkpt lat="43.85086" lon="3.54748">
        <ele>278.44</ele>
        <time>2014-04-13T14:24:17Z</time>
      </trkpt>
      <trkpt lat="43.85074" lon="3.54761">
        <ele>278.44</ele>
        <time>2014-04-13T14:24:18Z</time>
      </trkpt>
      <trkpt lat="43.85067" lon="3.54779">
        <ele>277.48</ele>
        <time>2014-04-13T14:24:19Z</time>
      </trkpt>
      <trkpt lat="43.85063" lon="3.54803">
        <ele>276.52</ele>
        <time>2014-04-13T14:24:20Z</time>
      </trkpt>
      <trkpt lat="43.85061" lon="3.54828">
        <ele>276.04</ele>
        <time>2014-04-13T14:24:21Z</time>
      </trkpt>
      <trkpt lat="43.85061" lon="3.54855">
        <ele>275.56</ele>
        <time>2014-04-13T14:24:22Z</time>
      </trkpt>
      <trkpt lat="43.8506" lon="3.54883">
        <ele>274.59</ele>
        <time>2014-04-13T14:24:23Z</time>
      </trkpt>
      <trkpt lat="43.85062" lon="3.54941">
        <ele>272.67</ele>
        <time>2014-04-13T14:24:25Z</time>
      </trkpt>
      <trkpt lat="43.85073" lon="3.55109">
        <ele>266.42</ele>
        <time>2014-04-13T14:24:31Z</time>
      </trkpt>
      <trkpt lat="43.85073" lon="3.55132">
        <ele>265.46</ele>
        <time>2014-04-13T14:24:32Z</time>
      </trkpt>
      <trkpt lat="43.8507" lon="3.55156">
        <ele>263.54</ele>
        <time>2014-04-13T14:24:33Z</time>
      </trkpt>
      <trkpt lat="43.85065" lon="3.5518">
        <ele>263.54</ele>
        <time>2014-04-13T14:24:34Z</time>
      </trkpt>
      <trkpt lat="43.85062" lon="3.55205">
        <ele>262.58</ele>
        <time>2014-04-13T14:24:35Z</time>
      </trkpt>
      <trkpt lat="43.85061" lon="3.55229">
        <ele>262.1</ele>
        <time>2014-04-13T14:24:36Z</time>
      </trkpt>
      <trkpt lat="43.85059" lon="3.55252">
        <ele>261.62</ele>
        <time>2014-04-13T14:24:37Z</time>
      </trkpt>
      <trkpt lat="43.85056" lon="3.55273">
        <ele>260.65</ele>
        <time>2014-04-13T14:24:38Z</time>
      </trkpt>
      <trkpt lat="43.85066" lon="3.55382">
        <ele>258.25</ele>
        <time>2014-04-13T14:24:43Z</time>
      </trkpt>
      <trkpt lat="43.85076" lon="3.55401">
        <ele>257.77</ele>
        <time>2014-04-13T14:24:44Z</time>
      </trkpt>
      <trkpt lat="43.85087" lon="3.55421">
        <ele>258.25</ele>
        <time>2014-04-13T14:24:45Z</time>
      </trkpt>
      <trkpt lat="43.85102" lon="3.5544">
        <ele>259.69</ele>
        <time>2014-04-13T14:24:46Z</time>
      </trkpt>
      <trkpt lat="43.85114" lon="3.55457">
        <ele>259.69</ele>
        <time>2014-04-13T14:24:47Z</time>
      </trkpt>
      <trkpt lat="43.85143" lon="3.55494">
        <ele>257.29</ele>
        <time>2014-04-13T14:24:50Z</time>
      </trkpt>
      <trkpt lat="43.85155" lon="3.555">
        <ele>257.29</ele>
        <time>2014-04-13T14:24:51Z</time>
      </trkpt>
      <trkpt lat="43.85275" lon="3.55563">
        <ele>257.29</ele>
        <time>2014-04-13T14:24:56Z</time>
      </trkpt>
      <trkpt lat="43.85419" lon="3.55589">
        <ele>256.81</ele>
        <time>2014-04-13T14:25:03Z</time>
      </trkpt>
      <trkpt lat="43.85539" lon="3.55576">
        <ele>255.37</ele>
        <time>2014-04-13T14:25:09Z</time>
      </trkpt>
      <trkpt lat="43.85553" lon="3.5558">
        <ele>255.37</ele>
        <time>2014-04-13T14:25:10Z</time>
      </trkpt>
      <trkpt lat="43.85567" lon="3.55589">
        <ele>252.96</ele>
        <time>2014-04-13T14:25:11Z</time>
      </trkpt>
      <trkpt lat="43.85579" lon="3.55604">
        <ele>250.56</ele>
        <time>2014-04-13T14:25:12Z</time>
      </trkpt>
      <trkpt lat="43.8559" lon="3.55635">
        <ele>247.68</ele>
        <time>2014-04-13T14:25:13Z</time>
      </trkpt>
      <trkpt lat="43.85598" lon="3.55667">
        <ele>246.23</ele>
        <time>2014-04-13T14:25:14Z</time>
      </trkpt>
      <trkpt lat="43.85605" lon="3.55692">
        <ele>243.83</ele>
        <time>2014-04-13T14:25:15Z</time>
      </trkpt>
      <trkpt lat="43.85612" lon="3.5572">
        <ele>243.35</ele>
        <time>2014-04-13T14:25:16Z</time>
      </trkpt>
      <trkpt lat="43.85622" lon="3.55772">
        <ele>240.95</ele>
        <time>2014-04-13T14:25:19Z</time>
      </trkpt>
      <trkpt lat="43.85622" lon="3.55788">
        <ele>239.99</ele>
        <time>2014-04-13T14:25:20Z</time>
      </trkpt>
      <trkpt lat="43.85619" lon="3.55807">
        <ele>238.54</ele>
        <time>2014-04-13T14:25:21Z</time>
      </trkpt>
      <trkpt lat="43.85616" lon="3.55829">
        <ele>236.14</ele>
        <time>2014-04-13T14:25:22Z</time>
      </trkpt>
      <trkpt lat="43.85612" lon="3.55856">
        <ele>236.14</ele>
        <time>2014-04-13T14:25:23Z</time>
      </trkpt>
      <trkpt lat="43.85608" lon="3.55881">
        <ele>236.62</ele>
        <time>2014-04-13T14:25:24Z</time>
      </trkpt>
      <trkpt lat="43.8559" lon="3.55953">
        <ele>235.18</ele>
        <time>2014-04-13T14:25:27Z</time>
      </trkpt>
      <trkpt lat="43.85579" lon="3.55975">
        <ele>235.18</ele>
        <time>2014-04-13T14:25:28Z</time>
      </trkpt>
      <trkpt lat="43.8555" lon="3.56039">
        <ele>235.18</ele>
        <time>2014-04-13T14:25:31Z</time>
      </trkpt>
      <trkpt lat="43.85537" lon="3.56059">
        <ele>234.22</ele>
        <time>2014-04-13T14:25:32Z</time>
      </trkpt>
      <trkpt lat="43.85503" lon="3.56121">
        <ele>233.74</ele>
        <time>2014-04-13T14:25:35Z</time>
      </trkpt>
      <trkpt lat="43.85477" lon="3.5617">
        <ele>235.66</ele>
        <time>2014-04-13T14:25:38Z</time>
      </trkpt>
      <trkpt lat="43.85464" lon="3.56184">
        <ele>237.1</ele>
        <time>2014-04-13T14:25:39Z</time>
      </trkpt>
      <trkpt lat="43.85363" lon="3.56272">
        <ele>239.99</ele>
        <time>2014-04-13T14:25:46Z</time>
      </trkpt>
      <trkpt lat="43.8534" lon="3.56296">
        <ele>240.47</ele>
        <time>2014-04-13T14:25:49Z</time>
      </trkpt>
      <trkpt lat="43.8534" lon="3.56303">
        <ele>239.02</ele>
        <time>2014-04-13T14:25:50Z</time>
      </trkpt>
      <trkpt lat="43.85349" lon="3.56308">
        <ele>239.51</ele>
        <time>2014-04-13T14:25:51Z</time>
      </trkpt>
      <trkpt lat="43.85352" lon="3.56315">
        <ele>240.95</ele>
        <time>2014-04-13T14:25:52Z</time>
      </trkpt>
      <trkpt lat="43.85354" lon="3.56319">
        <ele>241.43</ele>
        <time>2014-04-13T14:25:53Z</time>
      </trkpt>
      <trkpt lat="43.85358" lon="3.56323">
        <ele>242.39</ele>
        <time>2014-04-13T14:25:54Z</time>
      </trkpt>
      <trkpt lat="43.8536" lon="3.56327">
        <ele>243.83</ele>
        <time>2014-04-13T14:25:55Z</time>
      </trkpt>
      <trkpt lat="43.85363" lon="3.5633">
        <ele>245.75</ele>
        <time>2014-04-13T14:25:56Z</time>
      </trkpt>
      <trkpt lat="43.85365" lon="3.56333">
        <ele>247.68</ele>
        <time>2014-04-13T14:25:57Z</time>
      </trkpt>
      <trkpt lat="43.85366" lon="3.56335">
        <ele>248.16</ele>
        <time>2014-04-13T14:25:58Z</time>
      </trkpt>
      <trkpt lat="43.85368" lon="3.56338">
        <ele>250.08</ele>
        <time>2014-04-13T14:25:59Z</time>
      </trkpt>
      <trkpt lat="43.85368" lon="3.56338">
        <ele>250.56</ele>
        <time>2014-04-13T14:26:00Z</time>
      </trkpt>
      <trkpt lat="43.8537" lon="3.56339">
        <ele>263.06</ele>
        <time>2014-04-13T14:26:20Z</time>
      </trkpt>
      <trkpt lat="43.85386" lon="3.56362">
        <ele>257.29</ele>
        <time>2014-04-13T14:26:29Z</time>
      </trkpt>
      <trkpt lat="43.85428" lon="3.56433">
        <ele>251.52</ele>
        <time>2014-04-13T14:26:38Z</time>
      </trkpt>
      <trkpt lat="43.85432" lon="3.56444">
        <ele>251.04</ele>
        <time>2014-04-13T14:26:39Z</time>
      </trkpt>
      <trkpt lat="43.85435" lon="3.56454">
        <ele>250.56</ele>
        <time>2014-04-13T14:26:40Z</time>
      </trkpt>
      <trkpt lat="43.85435" lon="3.56465">
        <ele>249.6</ele>
        <time>2014-04-13T14:26:41Z</time>
      </trkpt>
      <trkpt lat="43.85434" lon="3.56478">
        <ele>248.64</ele>
        <time>2014-04-13T14:26:42Z</time>
      </trkpt>
      <trkpt lat="43.85432" lon="3.56491">
        <ele>248.16</ele>
        <time>2014-04-13T14:26:43Z</time>
      </trkpt>
      <trkpt lat="43.85418" lon="3.56637">
        <ele>242.39</ele>
        <time>2014-04-13T14:26:51Z</time>
      </trkpt>
      <trkpt lat="43.85412" lon="3.56657">
        <ele>241.43</ele>
        <time>2014-04-13T14:26:52Z</time>
      </trkpt>
      <trkpt lat="43.85403" lon="3.56677">
        <ele>240.95</ele>
        <time>2014-04-13T14:26:53Z</time>
      </trkpt>
      <trkpt lat="43.85385" lon="3.56716">
        <ele>239.51</ele>
        <time>2014-04-13T14:26:55Z</time>
      </trkpt>
      <trkpt lat="43.85378" lon="3.56738">
        <ele>239.02</ele>
        <time>2014-04-13T14:26:56Z</time>
      </trkpt>
      <trkpt lat="43.85373" lon="3.56763">
        <ele>238.54</ele>
        <time>2014-04-13T14:26:57Z</time>
      </trkpt>
      <trkpt lat="43.85369" lon="3.5679">
        <ele>238.06</ele>
        <time>2014-04-13T14:26:58Z</time>
      </trkpt>
      <trkpt lat="43.85366" lon="3.56818">
        <ele>237.58</ele>
        <time>2014-04-13T14:26:59Z</time>
      </trkpt>
      <trkpt lat="43.85346" lon="3.57006">
        <ele>237.1</ele>
        <time>2014-04-13T14:27:06Z</time>
      </trkpt>
      <trkpt lat="43.85353" lon="3.57023">
        <ele>235.66</ele>
        <time>2014-04-13T14:27:07Z</time>
      </trkpt>
      <trkpt lat="43.85363" lon="3.57045">
        <ele>235.18</ele>
        <time>2014-04-13T14:27:08Z</time>
      </trkpt>
      <trkpt lat="43.85377" lon="3.57064">
        <ele>235.66</ele>
        <time>2014-04-13T14:27:09Z</time>
      </trkpt>
      <trkpt lat="43.85396" lon="3.5708">
        <ele>235.18</ele>
        <time>2014-04-13T14:27:10Z</time>
      </trkpt>
      <trkpt lat="43.85413" lon="3.57099">
        <ele>235.66</ele>
        <time>2014-04-13T14:27:11Z</time>
      </trkpt>
      <trkpt lat="43.85504" lon="3.57249">
        <ele>234.22</ele>
        <time>2014-04-13T14:27:17Z</time>
      </trkpt>
      <trkpt lat="43.85676" lon="3.5752">
        <ele>229.89</ele>
        <time>2014-04-13T14:27:27Z</time>
      </trkpt>
      <trkpt lat="43.8585" lon="3.57802">
        <ele>227.01</ele>
        <time>2014-04-13T14:27:37Z</time>
      </trkpt>
      <trkpt lat="43.85888" lon="3.57923">
        <ele>225.57</ele>
        <time>2014-04-13T14:27:41Z</time>
      </trkpt>
      <trkpt lat="43.85892" lon="3.57958">
        <ele>225.09</ele>
        <time>2014-04-13T14:27:42Z</time>
      </trkpt>
      <trkpt lat="43.85911" lon="3.58236">
        <ele>222.2</ele>
        <time>2014-04-13T14:27:50Z</time>
      </trkpt>
      <trkpt lat="43.85916" lon="3.58295">
        <ele>221.24</ele>
        <time>2014-04-13T14:27:52Z</time>
      </trkpt>
      <trkpt lat="43.85921" lon="3.58325">
        <ele>221.24</ele>
        <time>2014-04-13T14:27:53Z</time>
      </trkpt>
      <trkpt lat="43.85929" lon="3.58353">
        <ele>220.76</ele>
        <time>2014-04-13T14:27:54Z</time>
      </trkpt>
      <trkpt lat="43.85941" lon="3.58382">
        <ele>220.76</ele>
        <time>2014-04-13T14:27:55Z</time>
      </trkpt>
      <trkpt lat="43.85954" lon="3.58412">
        <ele>220.76</ele>
        <time>2014-04-13T14:27:56Z</time>
      </trkpt>
      <trkpt lat="43.86049" lon="3.58559">
        <ele>219.8</ele>
        <time>2014-04-13T14:28:02Z</time>
      </trkpt>
      <trkpt lat="43.86075" lon="3.58575">
        <ele>220.28</ele>
        <time>2014-04-13T14:28:03Z</time>
      </trkpt>
      <trkpt lat="43.86101" lon="3.58589">
        <ele>221.24</ele>
        <time>2014-04-13T14:28:04Z</time>
      </trkpt>
      <trkpt lat="43.8613" lon="3.58598">
        <ele>221.24</ele>
        <time>2014-04-13T14:28:05Z</time>
      </trkpt>
      <trkpt lat="43.86158" lon="3.58605">
        <ele>221.72</ele>
        <time>2014-04-13T14:28:06Z</time>
      </trkpt>
      <trkpt lat="43.86186" lon="3.58611">
        <ele>221.24</ele>
        <time>2014-04-13T14:28:07Z</time>
      </trkpt>
      <trkpt lat="43.86355" lon="3.58637">
        <ele>218.36</ele>
        <time>2014-04-13T14:28:14Z</time>
      </trkpt>
      <trkpt lat="43.86403" lon="3.58631">
        <ele>216.43</ele>
        <time>2014-04-13T14:28:18Z</time>
      </trkpt>
      <trkpt lat="43.86472" lon="3.58638">
        <ele>216.43</ele>
        <time>2014-04-13T14:28:24Z</time>
      </trkpt>
      <trkpt lat="43.86481" lon="3.58644">
        <ele>216.43</ele>
        <time>2014-04-13T14:28:25Z</time>
      </trkpt>
      <trkpt lat="43.86491" lon="3.58651">
        <ele>216.91</ele>
        <time>2014-04-13T14:28:26Z</time>
      </trkpt>
      <trkpt lat="43.865" lon="3.5866">
        <ele>217.4</ele>
        <time>2014-04-13T14:28:27Z</time>
      </trkpt>
      <trkpt lat="43.86511" lon="3.5867">
        <ele>216.91</ele>
        <time>2014-04-13T14:28:28Z</time>
      </trkpt>
      <trkpt lat="43.86573" lon="3.58738">
        <ele>217.4</ele>
        <time>2014-04-13T14:28:33Z</time>
      </trkpt>
      <trkpt lat="43.86585" lon="3.58756">
        <ele>216.91</ele>
        <time>2014-04-13T14:28:34Z</time>
      </trkpt>
      <trkpt lat="43.86669" lon="3.58916">
        <ele>216.43</ele>
        <time>2014-04-13T14:28:41Z</time>
      </trkpt>
      <trkpt lat="43.86698" lon="3.58994">
        <ele>217.4</ele>
        <time>2014-04-13T14:28:44Z</time>
      </trkpt>
      <trkpt lat="43.86702" lon="3.59024">
        <ele>217.4</ele>
        <time>2014-04-13T14:28:45Z</time>
      </trkpt>
      <trkpt lat="43.86705" lon="3.59053">
        <ele>217.4</ele>
        <time>2014-04-13T14:28:46Z</time>
      </trkpt>
      <trkpt lat="43.86706" lon="3.59082">
        <ele>217.88</ele>
        <time>2014-04-13T14:28:47Z</time>
      </trkpt>
      <trkpt lat="43.86705" lon="3.59111">
        <ele>217.88</ele>
        <time>2014-04-13T14:28:48Z</time>
      </trkpt>
      <trkpt lat="43.86703" lon="3.5914">
        <ele>216.91</ele>
        <time>2014-04-13T14:28:49Z</time>
      </trkpt>
      <trkpt lat="43.86702" lon="3.59169">
        <ele>216.91</ele>
        <time>2014-04-13T14:28:50Z</time>
      </trkpt>
      <trkpt lat="43.86715" lon="3.59315">
        <ele>214.51</ele>
        <time>2014-04-13T14:28:55Z</time>
      </trkpt>
      <trkpt lat="43.86723" lon="3.59344">
        <ele>214.51</ele>
        <time>2014-04-13T14:28:56Z</time>
      </trkpt>
      <trkpt lat="43.86733" lon="3.59371">
        <ele>214.99</ele>
        <time>2014-04-13T14:28:57Z</time>
      </trkpt>
      <trkpt lat="43.8677" lon="3.59501">
        <ele>214.51</ele>
        <time>2014-04-13T14:29:02Z</time>
      </trkpt>
      <trkpt lat="43.86807" lon="3.59752">
        <ele>213.07</ele>
        <time>2014-04-13T14:29:10Z</time>
      </trkpt>
      <trkpt lat="43.86871" lon="3.60025">
        <ele>210.19</ele>
        <time>2014-04-13T14:29:19Z</time>
      </trkpt>
      <trkpt lat="43.86909" lon="3.60106">
        <ele>209.7</ele>
        <time>2014-04-13T14:29:23Z</time>
      </trkpt>
      <trkpt lat="43.86952" lon="3.60164">
        <ele>211.15</ele>
        <time>2014-04-13T14:29:26Z</time>
      </trkpt>
      <trkpt lat="43.86969" lon="3.60181">
        <ele>212.59</ele>
        <time>2014-04-13T14:29:27Z</time>
      </trkpt>
      <trkpt lat="43.86987" lon="3.60195">
        <ele>213.55</ele>
        <time>2014-04-13T14:29:28Z</time>
      </trkpt>
      <trkpt lat="43.87005" lon="3.60208">
        <ele>214.99</ele>
        <time>2014-04-13T14:29:29Z</time>
      </trkpt>
      <trkpt lat="43.87022" lon="3.60221">
        <ele>215.47</ele>
        <time>2014-04-13T14:29:30Z</time>
      </trkpt>
      <trkpt lat="43.87087" lon="3.60269">
        <ele>217.88</ele>
        <time>2014-04-13T14:29:36Z</time>
      </trkpt>
      <trkpt lat="43.8715" lon="3.60317">
        <ele>215.47</ele>
        <time>2014-04-13T14:29:42Z</time>
      </trkpt>
      <trkpt lat="43.87226" lon="3.60377">
        <ele>214.99</ele>
        <time>2014-04-13T14:29:50Z</time>
      </trkpt>
      <trkpt lat="43.87319" lon="3.60443">
        <ele>213.07</ele>
        <time>2014-04-13T14:29:57Z</time>
      </trkpt>
      <trkpt lat="43.87389" lon="3.60499">
        <ele>212.59</ele>
        <time>2014-04-13T14:30:03Z</time>
      </trkpt>
      <trkpt lat="43.87428" lon="3.60554">
        <ele>213.07</ele>
        <time>2014-04-13T14:30:06Z</time>
      </trkpt>
      <trkpt lat="43.87538" lon="3.60732">
        <ele>214.03</ele>
        <time>2014-04-13T14:30:15Z</time>
      </trkpt>
      <trkpt lat="43.87552" lon="3.60744">
        <ele>214.03</ele>
        <time>2014-04-13T14:30:16Z</time>
      </trkpt>
      <trkpt lat="43.87568" lon="3.60755">
        <ele>214.51</ele>
        <time>2014-04-13T14:30:17Z</time>
      </trkpt>
      <trkpt lat="43.87586" lon="3.60764">
        <ele>214.99</ele>
        <time>2014-04-13T14:30:18Z</time>
      </trkpt>
      <trkpt lat="43.87607" lon="3.6077">
        <ele>215.47</ele>
        <time>2014-04-13T14:30:19Z</time>
      </trkpt>
      <trkpt lat="43.87628" lon="3.60777">
        <ele>215.95</ele>
        <time>2014-04-13T14:30:20Z</time>
      </trkpt>
      <trkpt lat="43.8782" lon="3.60865">
        <ele>216.91</ele>
        <time>2014-04-13T14:30:29Z</time>
      </trkpt>
      <trkpt lat="43.88028" lon="3.6105">
        <ele>214.51</ele>
        <time>2014-04-13T14:30:39Z</time>
      </trkpt>
      <trkpt lat="43.88236" lon="3.61282">
        <ele>210.19</ele>
        <time>2014-04-13T14:30:50Z</time>
      </trkpt>
      <trkpt lat="43.88404" lon="3.61465">
        <ele>209.22</ele>
        <time>2014-04-13T14:31:00Z</time>
      </trkpt>
      <trkpt lat="43.8842" lon="3.61473">
        <ele>209.22</ele>
        <time>2014-04-13T14:31:01Z</time>
      </trkpt>
      <trkpt lat="43.8844" lon="3.61475">
        <ele>209.22</ele>
        <time>2014-04-13T14:31:02Z</time>
      </trkpt>
      <trkpt lat="43.8846" lon="3.61479">
        <ele>209.7</ele>
        <time>2014-04-13T14:31:03Z</time>
      </trkpt>
      <trkpt lat="43.8848" lon="3.61482">
        <ele>210.67</ele>
        <time>2014-04-13T14:31:04Z</time>
      </trkpt>
      <trkpt lat="43.88539" lon="3.61503">
        <ele>211.63</ele>
        <time>2014-04-13T14:31:07Z</time>
      </trkpt>
      <trkpt lat="43.88558" lon="3.61517">
        <ele>212.11</ele>
        <time>2014-04-13T14:31:08Z</time>
      </trkpt>
      <trkpt lat="43.8868" lon="3.61617">
        <ele>214.51</ele>
        <time>2014-04-13T14:31:14Z</time>
      </trkpt>
      <trkpt lat="43.88695" lon="3.61637">
        <ele>214.99</ele>
        <time>2014-04-13T14:31:15Z</time>
      </trkpt>
      <trkpt lat="43.88708" lon="3.61661">
        <ele>214.99</ele>
        <time>2014-04-13T14:31:16Z</time>
      </trkpt>
      <trkpt lat="43.8872" lon="3.61687">
        <ele>214.51</ele>
        <time>2014-04-13T14:31:17Z</time>
      </trkpt>
      <trkpt lat="43.8873" lon="3.61715">
        <ele>216.43</ele>
        <time>2014-04-13T14:31:18Z</time>
      </trkpt>
      <trkpt lat="43.8874" lon="3.61742">
        <ele>216.43</ele>
        <time>2014-04-13T14:31:19Z</time>
      </trkpt>
      <trkpt lat="43.8878" lon="3.61869">
        <ele>215.47</ele>
        <time>2014-04-13T14:31:24Z</time>
      </trkpt>
      <trkpt lat="43.88803" lon="3.62004">
        <ele>212.59</ele>
        <time>2014-04-13T14:31:29Z</time>
      </trkpt>
      <trkpt lat="43.88824" lon="3.62126">
        <ele>208.74</ele>
        <time>2014-04-13T14:31:34Z</time>
      </trkpt>
      <trkpt lat="43.88826" lon="3.62147">
        <ele>208.26</ele>
        <time>2014-04-13T14:31:35Z</time>
      </trkpt>
      <trkpt lat="43.88825" lon="3.62169">
        <ele>207.78</ele>
        <time>2014-04-13T14:31:36Z</time>
      </trkpt>
      <trkpt lat="43.88822" lon="3.6219">
        <ele>207.3</ele>
        <time>2014-04-13T14:31:37Z</time>
      </trkpt>
      <trkpt lat="43.8882" lon="3.6221">
        <ele>206.82</ele>
        <time>2014-04-13T14:31:38Z</time>
      </trkpt>
      <trkpt lat="43.88817" lon="3.62248">
        <ele>205.38</ele>
        <time>2014-04-13T14:31:40Z</time>
      </trkpt>
      <trkpt lat="43.88817" lon="3.62267">
        <ele>204.42</ele>
        <time>2014-04-13T14:31:41Z</time>
      </trkpt>
      <trkpt lat="43.88826" lon="3.62392">
        <ele>200.09</ele>
        <time>2014-04-13T14:31:49Z</time>
      </trkpt>
      <trkpt lat="43.88829" lon="3.62404">
        <ele>200.09</ele>
        <time>2014-04-13T14:31:50Z</time>
      </trkpt>
      <trkpt lat="43.88834" lon="3.62416">
        <ele>199.61</ele>
        <time>2014-04-13T14:31:51Z</time>
      </trkpt>
      <trkpt lat="43.8884" lon="3.62425">
        <ele>199.13</ele>
        <time>2014-04-13T14:31:52Z</time>
      </trkpt>
      <trkpt lat="43.88848" lon="3.62431">
        <ele>198.65</ele>
        <time>2014-04-13T14:31:53Z</time>
      </trkpt>
      <trkpt lat="43.88861" lon="3.62428">
        <ele>199.61</ele>
        <time>2014-04-13T14:31:54Z</time>
      </trkpt>
      <trkpt lat="43.88873" lon="3.62431">
        <ele>200.09</ele>
        <time>2014-04-13T14:31:55Z</time>
      </trkpt>
      <trkpt lat="43.88884" lon="3.62438">
        <ele>200.57</ele>
        <time>2014-04-13T14:31:56Z</time>
      </trkpt>
      <trkpt lat="43.89009" lon="3.62506">
        <ele>199.13</ele>
        <time>2014-04-13T14:32:05Z</time>
      </trkpt>
      <trkpt lat="43.89034" lon="3.62522">
        <ele>198.65</ele>
        <time>2014-04-13T14:32:07Z</time>
      </trkpt>
      <trkpt lat="43.89044" lon="3.62535">
        <ele>197.69</ele>
        <time>2014-04-13T14:32:08Z</time>
      </trkpt>
      <trkpt lat="43.89051" lon="3.62552">
        <ele>197.69</ele>
        <time>2014-04-13T14:32:09Z</time>
      </trkpt>
      <trkpt lat="43.89055" lon="3.62568">
        <ele>197.69</ele>
        <time>2014-04-13T14:32:10Z</time>
      </trkpt>
      <trkpt lat="43.89054" lon="3.62584">
        <ele>197.69</ele>
        <time>2014-04-13T14:32:11Z</time>
      </trkpt>
      <trkpt lat="43.89051" lon="3.62601">
        <ele>197.69</ele>
        <time>2014-04-13T14:32:12Z</time>
      </trkpt>
      <trkpt lat="43.89048" lon="3.62616">
        <ele>197.69</ele>
        <time>2014-04-13T14:32:13Z</time>
      </trkpt>
      <trkpt lat="43.89046" lon="3.62631">
        <ele>197.21</ele>
        <time>2014-04-13T14:32:14Z</time>
      </trkpt>
      <trkpt lat="43.89047" lon="3.62644">
        <ele>197.21</ele>
        <time>2014-04-13T14:32:15Z</time>
      </trkpt>
      <trkpt lat="43.89052" lon="3.62656">
        <ele>197.21</ele>
        <time>2014-04-13T14:32:16Z</time>
      </trkpt>
      <trkpt lat="43.8906" lon="3.62666">
        <ele>197.21</ele>
        <time>2014-04-13T14:32:17Z</time>
      </trkpt>
      <trkpt lat="43.89071" lon="3.62677">
        <ele>196.73</ele>
        <time>2014-04-13T14:32:18Z</time>
      </trkpt>
      <trkpt lat="43.89085" lon="3.62691">
        <ele>196.25</ele>
        <time>2014-04-13T14:32:19Z</time>
      </trkpt>
      <trkpt lat="43.89203" lon="3.62821">
        <ele>194.8</ele>
        <time>2014-04-13T14:32:27Z</time>
      </trkpt>
      <trkpt lat="43.89217" lon="3.62856">
        <ele>193.84</ele>
        <time>2014-04-13T14:32:29Z</time>
      </trkpt>
      <trkpt lat="43.8922" lon="3.62878">
        <ele>193.84</ele>
        <time>2014-04-13T14:32:30Z</time>
      </trkpt>
      <trkpt lat="43.89216" lon="3.62906">
        <ele>192.88</ele>
        <time>2014-04-13T14:32:31Z</time>
      </trkpt>
      <trkpt lat="43.8921" lon="3.62933">
        <ele>192.88</ele>
        <time>2014-04-13T14:32:32Z</time>
      </trkpt>
      <trkpt lat="43.89203" lon="3.62959">
        <ele>192.4</ele>
        <time>2014-04-13T14:32:33Z</time>
      </trkpt>
      <trkpt lat="43.89192" lon="3.62981">
        <ele>191.92</ele>
        <time>2014-04-13T14:32:34Z</time>
      </trkpt>
      <trkpt lat="43.89177" lon="3.63001">
        <ele>191.44</ele>
        <time>2014-04-13T14:32:35Z</time>
      </trkpt>
      <trkpt lat="43.8916" lon="3.63022">
        <ele>191.44</ele>
        <time>2014-04-13T14:32:36Z</time>
      </trkpt>
      <trkpt lat="43.8914" lon="3.6304">
        <ele>191.44</ele>
        <time>2014-04-13T14:32:37Z</time>
      </trkpt>
      <trkpt lat="43.89118" lon="3.63057">
        <ele>191.44</ele>
        <time>2014-04-13T14:32:38Z</time>
      </trkpt>
      <trkpt lat="43.89095" lon="3.63074">
        <ele>191.44</ele>
        <time>2014-04-13T14:32:39Z</time>
      </trkpt>
      <trkpt lat="43.88971" lon="3.63201">
        <ele>191.44</ele>
        <time>2014-04-13T14:32:46Z</time>
      </trkpt>
      <trkpt lat="43.88968" lon="3.63233">
        <ele>191.44</ele>
        <time>2014-04-13T14:32:47Z</time>
      </trkpt>
      <trkpt lat="43.88966" lon="3.63264">
        <ele>191.44</ele>
        <time>2014-04-13T14:32:48Z</time>
      </trkpt>
      <trkpt lat="43.88967" lon="3.63297">
        <ele>190.96</ele>
        <time>2014-04-13T14:32:49Z</time>
      </trkpt>
      <trkpt lat="43.88971" lon="3.63331">
        <ele>191.44</ele>
        <time>2014-04-13T14:32:50Z</time>
      </trkpt>
      <trkpt lat="43.88978" lon="3.63365">
        <ele>190.96</ele>
        <time>2014-04-13T14:32:51Z</time>
      </trkpt>
      <trkpt lat="43.88986" lon="3.63399">
        <ele>191.44</ele>
        <time>2014-04-13T14:32:52Z</time>
      </trkpt>
      <trkpt lat="43.88998" lon="3.63432">
        <ele>191.44</ele>
        <time>2014-04-13T14:32:53Z</time>
      </trkpt>
      <trkpt lat="43.89014" lon="3.63465">
        <ele>192.4</ele>
        <time>2014-04-13T14:32:54Z</time>
      </trkpt>
      <trkpt lat="43.89028" lon="3.63497">
        <ele>192.4</ele>
        <time>2014-04-13T14:32:55Z</time>
      </trkpt>
      <trkpt lat="43.89123" lon="3.63668">
        <ele>192.4</ele>
        <time>2014-04-13T14:33:01Z</time>
      </trkpt>
      <trkpt lat="43.89175" lon="3.63762">
        <ele>190</ele>
        <time>2014-04-13T14:33:05Z</time>
      </trkpt>
      <trkpt lat="43.89179" lon="3.63791">
        <ele>190.48</ele>
        <time>2014-04-13T14:33:06Z</time>
      </trkpt>
      <trkpt lat="43.89171" lon="3.63818">
        <ele>189.04</ele>
        <time>2014-04-13T14:33:07Z</time>
      </trkpt>
      <trkpt lat="43.89162" lon="3.63845">
        <ele>187.59</ele>
        <time>2014-04-13T14:33:08Z</time>
      </trkpt>
      <trkpt lat="43.89151" lon="3.63873">
        <ele>186.63</ele>
        <time>2014-04-13T14:33:09Z</time>
      </trkpt>
      <trkpt lat="43.89139" lon="3.63903">
        <ele>186.15</ele>
        <time>2014-04-13T14:33:10Z</time>
      </trkpt>
      <trkpt lat="43.89126" lon="3.63934">
        <ele>185.67</ele>
        <time>2014-04-13T14:33:11Z</time>
      </trkpt>
      <trkpt lat="43.89115" lon="3.63963">
        <ele>185.19</ele>
        <time>2014-04-13T14:33:12Z</time>
      </trkpt>
      <trkpt lat="43.89086" lon="3.64078">
        <ele>184.23</ele>
        <time>2014-04-13T14:33:16Z</time>
      </trkpt>
      <trkpt lat="43.89086" lon="3.64107">
        <ele>184.71</ele>
        <time>2014-04-13T14:33:17Z</time>
      </trkpt>
      <trkpt lat="43.8909" lon="3.64134">
        <ele>185.19</ele>
        <time>2014-04-13T14:33:18Z</time>
      </trkpt>
      <trkpt lat="43.89101" lon="3.64155">
        <ele>184.71</ele>
        <time>2014-04-13T14:33:19Z</time>
      </trkpt>
      <trkpt lat="43.89119" lon="3.64175">
        <ele>184.23</ele>
        <time>2014-04-13T14:33:20Z</time>
      </trkpt>
      <trkpt lat="43.8914" lon="3.64189">
        <ele>184.71</ele>
        <time>2014-04-13T14:33:21Z</time>
      </trkpt>
      <trkpt lat="43.89163" lon="3.64205">
        <ele>184.71</ele>
        <time>2014-04-13T14:33:22Z</time>
      </trkpt>
      <trkpt lat="43.89278" lon="3.64302">
        <ele>185.67</ele>
        <time>2014-04-13T14:33:28Z</time>
      </trkpt>
      <trkpt lat="43.89289" lon="3.64327">
        <ele>185.19</ele>
        <time>2014-04-13T14:33:29Z</time>
      </trkpt>
      <trkpt lat="43.89297" lon="3.64359">
        <ele>186.15</ele>
        <time>2014-04-13T14:33:30Z</time>
      </trkpt>
      <trkpt lat="43.89303" lon="3.64392">
        <ele>186.63</ele>
        <time>2014-04-13T14:33:31Z</time>
      </trkpt>
      <trkpt lat="43.8931" lon="3.64426">
        <ele>187.59</ele>
        <time>2014-04-13T14:33:32Z</time>
      </trkpt>
      <trkpt lat="43.89316" lon="3.6446">
        <ele>189.04</ele>
        <time>2014-04-13T14:33:33Z</time>
      </trkpt>
      <trkpt lat="43.89371" lon="3.64628">
        <ele>194.32</ele>
        <time>2014-04-13T14:33:39Z</time>
      </trkpt>
      <trkpt lat="43.89387" lon="3.64648">
        <ele>195.28</ele>
        <time>2014-04-13T14:33:40Z</time>
      </trkpt>
      <trkpt lat="43.89403" lon="3.64668">
        <ele>196.25</ele>
        <time>2014-04-13T14:33:41Z</time>
      </trkpt>
      <trkpt lat="43.8942" lon="3.6469">
        <ele>196.73</ele>
        <time>2014-04-13T14:33:42Z</time>
      </trkpt>
      <trkpt lat="43.89436" lon="3.64714">
        <ele>197.21</ele>
        <time>2014-04-13T14:33:43Z</time>
      </trkpt>
      <trkpt lat="43.89596" lon="3.64935">
        <ele>198.17</ele>
        <time>2014-04-13T14:33:53Z</time>
      </trkpt>
      <trkpt lat="43.89666" lon="3.65014">
        <ele>196.73</ele>
        <time>2014-04-13T14:33:58Z</time>
      </trkpt>
      <trkpt lat="43.89677" lon="3.65033">
        <ele>196.73</ele>
        <time>2014-04-13T14:33:59Z</time>
      </trkpt>
      <trkpt lat="43.89685" lon="3.65054">
        <ele>196.25</ele>
        <time>2014-04-13T14:34:00Z</time>
      </trkpt>
      <trkpt lat="43.8969" lon="3.65075">
        <ele>195.77</ele>
        <time>2014-04-13T14:34:01Z</time>
      </trkpt>
      <trkpt lat="43.89693" lon="3.65098">
        <ele>195.28</ele>
        <time>2014-04-13T14:34:02Z</time>
      </trkpt>
      <trkpt lat="43.89695" lon="3.6512">
        <ele>195.28</ele>
        <time>2014-04-13T14:34:03Z</time>
      </trkpt>
      <trkpt lat="43.89695" lon="3.65142">
        <ele>194.8</ele>
        <time>2014-04-13T14:34:04Z</time>
      </trkpt>
      <trkpt lat="43.89695" lon="3.65284">
        <ele>192.88</ele>
        <time>2014-04-13T14:34:11Z</time>
      </trkpt>
      <trkpt lat="43.89698" lon="3.65306">
        <ele>192.4</ele>
        <time>2014-04-13T14:34:12Z</time>
      </trkpt>
      <trkpt lat="43.89722" lon="3.65428">
        <ele>193.36</ele>
        <time>2014-04-13T14:34:18Z</time>
      </trkpt>
      <trkpt lat="43.8973" lon="3.65446">
        <ele>193.84</ele>
        <time>2014-04-13T14:34:19Z</time>
      </trkpt>
      <trkpt lat="43.8974" lon="3.65462">
        <ele>194.32</ele>
        <time>2014-04-13T14:34:20Z</time>
      </trkpt>
      <trkpt lat="43.89751" lon="3.65477">
        <ele>194.32</ele>
        <time>2014-04-13T14:34:21Z</time>
      </trkpt>
      <trkpt lat="43.89762" lon="3.6549">
        <ele>194.8</ele>
        <time>2014-04-13T14:34:22Z</time>
      </trkpt>
      <trkpt lat="43.89774" lon="3.65502">
        <ele>194.8</ele>
        <time>2014-04-13T14:34:23Z</time>
      </trkpt>
      <trkpt lat="43.89787" lon="3.65513">
        <ele>195.28</ele>
        <time>2014-04-13T14:34:24Z</time>
      </trkpt>
      <trkpt lat="43.89801" lon="3.65521">
        <ele>195.28</ele>
        <time>2014-04-13T14:34:25Z</time>
      </trkpt>
      <trkpt lat="43.89816" lon="3.65527">
        <ele>195.77</ele>
        <time>2014-04-13T14:34:26Z</time>
      </trkpt>
      <trkpt lat="43.89832" lon="3.65529">
        <ele>197.21</ele>
        <time>2014-04-13T14:34:27Z</time>
      </trkpt>
      <trkpt lat="43.89849" lon="3.6553">
        <ele>197.21</ele>
        <time>2014-04-13T14:34:28Z</time>
      </trkpt>
      <trkpt lat="43.89894" lon="3.65529">
        <ele>197.21</ele>
        <time>2014-04-13T14:34:31Z</time>
      </trkpt>
      <trkpt lat="43.89911" lon="3.65515">
        <ele>198.17</ele>
        <time>2014-04-13T14:34:32Z</time>
      </trkpt>
      <trkpt lat="43.89927" lon="3.655">
        <ele>198.65</ele>
        <time>2014-04-13T14:34:33Z</time>
      </trkpt>
      <trkpt lat="43.89945" lon="3.65484">
        <ele>199.13</ele>
        <time>2014-04-13T14:34:34Z</time>
      </trkpt>
      <trkpt lat="43.89964" lon="3.65468">
        <ele>199.13</ele>
        <time>2014-04-13T14:34:35Z</time>
      </trkpt>
      <trkpt lat="43.90065" lon="3.65395">
        <ele>200.57</ele>
        <time>2014-04-13T14:34:41Z</time>
      </trkpt>
      <trkpt lat="43.90081" lon="3.65398">
        <ele>199.13</ele>
        <time>2014-04-13T14:34:42Z</time>
      </trkpt>
      <trkpt lat="43.90096" lon="3.65407">
        <ele>198.17</ele>
        <time>2014-04-13T14:34:43Z</time>
      </trkpt>
      <trkpt lat="43.9011" lon="3.65422">
        <ele>197.69</ele>
        <time>2014-04-13T14:34:44Z</time>
      </trkpt>
      <trkpt lat="43.90122" lon="3.65444">
        <ele>198.17</ele>
        <time>2014-04-13T14:34:45Z</time>
      </trkpt>
      <trkpt lat="43.90134" lon="3.65472">
        <ele>197.21</ele>
        <time>2014-04-13T14:34:46Z</time>
      </trkpt>
      <trkpt lat="43.90146" lon="3.65499">
        <ele>196.73</ele>
        <time>2014-04-13T14:34:47Z</time>
      </trkpt>
      <trkpt lat="43.90156" lon="3.65528">
        <ele>195.77</ele>
        <time>2014-04-13T14:34:48Z</time>
      </trkpt>
      <trkpt lat="43.90166" lon="3.65557">
        <ele>194.32</ele>
        <time>2014-04-13T14:34:49Z</time>
      </trkpt>
      <trkpt lat="43.90264" lon="3.65757">
        <ele>187.11</ele>
        <time>2014-04-13T14:34:57Z</time>
      </trkpt>
      <trkpt lat="43.90281" lon="3.65775">
        <ele>186.63</ele>
        <time>2014-04-13T14:34:58Z</time>
      </trkpt>
      <trkpt lat="43.90301" lon="3.65789">
        <ele>185.67</ele>
        <time>2014-04-13T14:34:59Z</time>
      </trkpt>
      <trkpt lat="43.90321" lon="3.65801">
        <ele>184.71</ele>
        <time>2014-04-13T14:35:00Z</time>
      </trkpt>
      <trkpt lat="43.90343" lon="3.65811">
        <ele>184.23</ele>
        <time>2014-04-13T14:35:01Z</time>
      </trkpt>
      <trkpt lat="43.90365" lon="3.65817">
        <ele>182.79</ele>
        <time>2014-04-13T14:35:02Z</time>
      </trkpt>
      <trkpt lat="43.90387" lon="3.65817">
        <ele>182.31</ele>
        <time>2014-04-13T14:35:03Z</time>
      </trkpt>
      <trkpt lat="43.90407" lon="3.65811">
        <ele>181.83</ele>
        <time>2014-04-13T14:35:04Z</time>
      </trkpt>
      <trkpt lat="43.90427" lon="3.65802">
        <ele>181.35</ele>
        <time>2014-04-13T14:35:05Z</time>
      </trkpt>
      <trkpt lat="43.90445" lon="3.6579">
        <ele>181.35</ele>
        <time>2014-04-13T14:35:06Z</time>
      </trkpt>
      <trkpt lat="43.90463" lon="3.65772">
        <ele>180.87</ele>
        <time>2014-04-13T14:35:07Z</time>
      </trkpt>
      <trkpt lat="43.90479" lon="3.65749">
        <ele>181.83</ele>
        <time>2014-04-13T14:35:08Z</time>
      </trkpt>
      <trkpt lat="43.90494" lon="3.65723">
        <ele>184.23</ele>
        <time>2014-04-13T14:35:09Z</time>
      </trkpt>
      <trkpt lat="43.90511" lon="3.657">
        <ele>185.19</ele>
        <time>2014-04-13T14:35:10Z</time>
      </trkpt>
      <trkpt lat="43.9065" lon="3.65584">
        <ele>184.71</ele>
        <time>2014-04-13T14:35:16Z</time>
      </trkpt>
      <trkpt lat="43.90782" lon="3.65541">
        <ele>182.79</ele>
        <time>2014-04-13T14:35:22Z</time>
      </trkpt>
      <trkpt lat="43.90962" lon="3.65551">
        <ele>182.79</ele>
        <time>2014-04-13T14:35:29Z</time>
      </trkpt>
      <trkpt lat="43.91049" lon="3.65583">
        <ele>182.31</ele>
        <time>2014-04-13T14:35:33Z</time>
      </trkpt>
      <trkpt lat="43.91196" lon="3.65625">
        <ele>180.87</ele>
        <time>2014-04-13T14:35:39Z</time>
      </trkpt>
      <trkpt lat="43.91341" lon="3.65684">
        <ele>178.46</ele>
        <time>2014-04-13T14:35:45Z</time>
      </trkpt>
      <trkpt lat="43.9136" lon="3.65705">
        <ele>178.94</ele>
        <time>2014-04-13T14:35:46Z</time>
      </trkpt>
      <trkpt lat="43.91379" lon="3.65728">
        <ele>180.38</ele>
        <time>2014-04-13T14:35:47Z</time>
      </trkpt>
      <trkpt lat="43.914" lon="3.65749">
        <ele>181.35</ele>
        <time>2014-04-13T14:35:48Z</time>
      </trkpt>
      <trkpt lat="43.91423" lon="3.65765">
        <ele>181.83</ele>
        <time>2014-04-13T14:35:49Z</time>
      </trkpt>
      <trkpt lat="43.91448" lon="3.65781">
        <ele>182.31</ele>
        <time>2014-04-13T14:35:50Z</time>
      </trkpt>
      <trkpt lat="43.91475" lon="3.65795">
        <ele>182.79</ele>
        <time>2014-04-13T14:35:51Z</time>
      </trkpt>
      <trkpt lat="43.917" lon="3.65868">
        <ele>187.59</ele>
        <time>2014-04-13T14:35:59Z</time>
      </trkpt>
      <trkpt lat="43.91794" lon="3.65919">
        <ele>186.15</ele>
        <time>2014-04-13T14:36:03Z</time>
      </trkpt>
      <trkpt lat="43.91944" lon="3.66006">
        <ele>181.35</ele>
        <time>2014-04-13T14:36:09Z</time>
      </trkpt>
      <trkpt lat="43.92185" lon="3.66104">
        <ele>177.98</ele>
        <time>2014-04-13T14:36:18Z</time>
      </trkpt>
      <trkpt lat="43.92361" lon="3.6621">
        <ele>173.66</ele>
        <time>2014-04-13T14:36:25Z</time>
      </trkpt>
      <trkpt lat="43.92466" lon="3.66324">
        <ele>172.69</ele>
        <time>2014-04-13T14:36:31Z</time>
      </trkpt>
      <trkpt lat="43.92517" lon="3.66395">
        <ele>171.73</ele>
        <time>2014-04-13T14:36:36Z</time>
      </trkpt>
      <trkpt lat="43.92525" lon="3.66406">
        <ele>171.73</ele>
        <time>2014-04-13T14:36:38Z</time>
      </trkpt>
      <trkpt lat="43.92527" lon="3.66406">
        <ele>172.21</ele>
        <time>2014-04-13T14:36:39Z</time>
      </trkpt>
      <trkpt lat="43.92529" lon="3.66402">
        <ele>172.69</ele>
        <time>2014-04-13T14:36:40Z</time>
      </trkpt>
      <trkpt lat="43.9253" lon="3.66397">
        <ele>173.17</ele>
        <time>2014-04-13T14:36:41Z</time>
      </trkpt>
      <trkpt lat="43.92532" lon="3.66392">
        <ele>173.17</ele>
        <time>2014-04-13T14:36:42Z</time>
      </trkpt>
      <trkpt lat="43.92533" lon="3.66387">
        <ele>173.17</ele>
        <time>2014-04-13T14:36:43Z</time>
      </trkpt>
      <trkpt lat="43.92535" lon="3.66383">
        <ele>173.17</ele>
        <time>2014-04-13T14:36:44Z</time>
      </trkpt>
      <trkpt lat="43.92545" lon="3.66354">
        <ele>172.21</ele>
        <time>2014-04-13T14:36:53Z</time>
      </trkpt>
      <trkpt lat="43.92545" lon="3.66352">
        <ele>172.69</ele>
        <time>2014-04-13T14:36:54Z</time>
      </trkpt>
      <trkpt lat="43.92544" lon="3.6635">
        <ele>172.21</ele>
        <time>2014-04-13T14:36:55Z</time>
      </trkpt>
      <trkpt lat="43.92543" lon="3.66349">
        <ele>172.21</ele>
        <time>2014-04-13T14:36:56Z</time>
      </trkpt>
      <trkpt lat="43.92541" lon="3.66347">
        <ele>171.73</ele>
        <time>2014-04-13T14:36:57Z</time>
      </trkpt>
      <trkpt lat="43.92531" lon="3.66339">
        <ele>170.77</ele>
        <time>2014-04-13T14:37:01Z</time>
      </trkpt>
      <trkpt lat="43.92528" lon="3.66339">
        <ele>170.77</ele>
        <time>2014-04-13T14:37:02Z</time>
      </trkpt>
      <trkpt lat="43.92526" lon="3.6634">
        <ele>170.77</ele>
        <time>2014-04-13T14:37:03Z</time>
      </trkpt>
      <trkpt lat="43.92524" lon="3.66341">
        <ele>170.29</ele>
        <time>2014-04-13T14:37:04Z</time>
      </trkpt>
      <trkpt lat="43.92523" lon="3.66343">
        <ele>170.29</ele>
        <time>2014-04-13T14:37:05Z</time>
      </trkpt>
      <trkpt lat="43.92523" lon="3.66345">
        <ele>169.81</ele>
        <time>2014-04-13T14:37:06Z</time>
      </trkpt>
      <trkpt lat="43.92522" lon="3.66347">
        <ele>168.37</ele>
        <time>2014-04-13T14:37:21Z</time>
      </trkpt>
      <trkpt lat="43.92523" lon="3.66349">
        <ele>170.29</ele>
        <time>2014-04-13T14:37:36Z</time>
      </trkpt>
      <trkpt lat="43.92524" lon="3.6635">
        <ele>170.29</ele>
        <time>2014-04-13T14:37:37Z</time>
      </trkpt>
      <trkpt lat="43.92525" lon="3.66351">
        <ele>170.29</ele>
        <time>2014-04-13T14:37:38Z</time>
      </trkpt>
      <trkpt lat="43.92527" lon="3.66352">
        <ele>170.29</ele>
        <time>2014-04-13T14:37:39Z</time>
      </trkpt>
      <trkpt lat="43.92528" lon="3.66352">
        <ele>170.29</ele>
        <time>2014-04-13T14:37:40Z</time>
      </trkpt>
      <trkpt lat="43.9253" lon="3.66351">
        <ele>170.29</ele>
        <time>2014-04-13T14:37:41Z</time>
      </trkpt>
      <trkpt lat="43.92531" lon="3.6635">
        <ele>170.29</ele>
        <time>2014-04-13T14:37:42Z</time>
      </trkpt>
      <trkpt lat="43.92537" lon="3.66349">
        <ele>170.29</ele>
        <time>2014-04-13T14:37:45Z</time>
      </trkpt>
      <trkpt lat="43.92538" lon="3.6635">
        <ele>170.77</ele>
        <time>2014-04-13T14:37:46Z</time>
      </trkpt>
      <trkpt lat="43.9254" lon="3.66352">
        <ele>170.77</ele>
        <time>2014-04-13T14:37:47Z</time>
      </trkpt>
      <trkpt lat="43.9254" lon="3.66355">
        <ele>170.77</ele>
        <time>2014-04-13T14:37:48Z</time>
      </trkpt>
      <trkpt lat="43.92539" lon="3.66359">
        <ele>170.77</ele>
        <time>2014-04-13T14:37:49Z</time>
      </trkpt>
      <trkpt lat="43.92536" lon="3.66365">
        <ele>170.77</ele>
        <time>2014-04-13T14:37:50Z</time>
      </trkpt>
      <trkpt lat="43.92531" lon="3.6637">
        <ele>170.77</ele>
        <time>2014-04-13T14:37:51Z</time>
      </trkpt>
      <trkpt lat="43.92525" lon="3.66375">
        <ele>170.77</ele>
        <time>2014-04-13T14:37:52Z</time>
      </trkpt>
      <trkpt lat="43.92519" lon="3.66377">
        <ele>170.77</ele>
        <time>2014-04-13T14:37:53Z</time>
      </trkpt>
      <trkpt lat="43.92514" lon="3.66379">
        <ele>170.77</ele>
        <time>2014-04-13T14:37:54Z</time>
      </trkpt>
      <trkpt lat="43.9251" lon="3.66381">
        <ele>170.77</ele>
        <time>2014-04-13T14:37:55Z</time>
      </trkpt>
      <trkpt lat="43.92509" lon="3.66382">
        <ele>171.73</ele>
        <time>2014-04-13T14:38:03Z</time>
      </trkpt>
      <trkpt lat="43.9251" lon="3.66384">
        <ele>172.69</ele>
        <time>2014-04-13T14:38:10Z</time>
      </trkpt>
      <trkpt lat="43.92509" lon="3.66387">
        <ele>172.69</ele>
        <time>2014-04-13T14:38:11Z</time>
      </trkpt>
      <trkpt lat="43.9251" lon="3.66395">
        <ele>172.21</ele>
        <time>2014-04-13T14:38:12Z</time>
      </trkpt>
      <trkpt lat="43.92512" lon="3.66404">
        <ele>172.21</ele>
        <time>2014-04-13T14:38:13Z</time>
      </trkpt>
      <trkpt lat="43.92516" lon="3.66415">
        <ele>171.73</ele>
        <time>2014-04-13T14:38:14Z</time>
      </trkpt>
      <trkpt lat="43.92522" lon="3.66428">
        <ele>171.25</ele>
        <time>2014-04-13T14:38:15Z</time>
      </trkpt>
      <trkpt lat="43.92543" lon="3.66477">
        <ele>169.81</ele>
        <time>2014-04-13T14:38:18Z</time>
      </trkpt>
      <trkpt lat="43.92553" lon="3.66494">
        <ele>169.81</ele>
        <time>2014-04-13T14:38:19Z</time>
      </trkpt>
      <trkpt lat="43.92564" lon="3.66511">
        <ele>170.29</ele>
        <time>2014-04-13T14:38:20Z</time>
      </trkpt>
      <trkpt lat="43.92635" lon="3.66599">
        <ele>170.29</ele>
        <time>2014-04-13T14:38:25Z</time>
      </trkpt>
      <trkpt lat="43.92654" lon="3.66612">
        <ele>170.29</ele>
        <time>2014-04-13T14:38:26Z</time>
      </trkpt>
      <trkpt lat="43.92674" lon="3.66621">
        <ele>170.29</ele>
        <time>2014-04-13T14:38:27Z</time>
      </trkpt>
      <trkpt lat="43.92697" lon="3.66628">
        <ele>170.29</ele>
        <time>2014-04-13T14:38:28Z</time>
      </trkpt>
      <trkpt lat="43.9272" lon="3.6663">
        <ele>169.81</ele>
        <time>2014-04-13T14:38:29Z</time>
      </trkpt>
      <trkpt lat="43.92744" lon="3.66629">
        <ele>168.85</ele>
        <time>2014-04-13T14:38:30Z</time>
      </trkpt>
      <trkpt lat="43.92769" lon="3.66628">
        <ele>168.37</ele>
        <time>2014-04-13T14:38:31Z</time>
      </trkpt>
      <trkpt lat="43.9295" lon="3.66609">
        <ele>170.77</ele>
        <time>2014-04-13T14:38:39Z</time>
      </trkpt>
      <trkpt lat="43.92971" lon="3.66619">
        <ele>169.81</ele>
        <time>2014-04-13T14:38:40Z</time>
      </trkpt>
      <trkpt lat="43.92992" lon="3.66635">
        <ele>169.33</ele>
        <time>2014-04-13T14:38:41Z</time>
      </trkpt>
      <trkpt lat="43.93012" lon="3.66652">
        <ele>169.33</ele>
        <time>2014-04-13T14:38:42Z</time>
      </trkpt>
      <trkpt lat="43.93032" lon="3.66672">
        <ele>168.37</ele>
        <time>2014-04-13T14:38:43Z</time>
      </trkpt>
      <trkpt lat="43.93054" lon="3.66692">
        <ele>168.85</ele>
        <time>2014-04-13T14:38:44Z</time>
      </trkpt>
      <trkpt lat="43.93221" lon="3.66809">
        <ele>168.85</ele>
        <time>2014-04-13T14:38:51Z</time>
      </trkpt>
      <trkpt lat="43.93345" lon="3.6694">
        <ele>165.96</ele>
        <time>2014-04-13T14:38:57Z</time>
      </trkpt>
      <trkpt lat="43.9336" lon="3.6697">
        <ele>165.48</ele>
        <time>2014-04-13T14:38:58Z</time>
      </trkpt>
      <trkpt lat="43.93378" lon="3.66999">
        <ele>165</ele>
        <time>2014-04-13T14:38:59Z</time>
      </trkpt>
      <trkpt lat="43.93397" lon="3.67026">
        <ele>165</ele>
        <time>2014-04-13T14:39:00Z</time>
      </trkpt>
      <trkpt lat="43.93418" lon="3.67054">
        <ele>164.52</ele>
        <time>2014-04-13T14:39:01Z</time>
      </trkpt>
      <trkpt lat="43.93587" lon="3.6726">
        <ele>165.96</ele>
        <time>2014-04-13T14:39:09Z</time>
      </trkpt>
      <trkpt lat="43.93706" lon="3.67437">
        <ele>166.45</ele>
        <time>2014-04-13T14:39:16Z</time>
      </trkpt>
      <trkpt lat="43.93773" lon="3.67663">
        <ele>163.56</ele>
        <time>2014-04-13T14:39:22Z</time>
      </trkpt>
      <trkpt lat="43.93854" lon="3.67968">
        <ele>156.35</ele>
        <time>2014-04-13T14:39:30Z</time>
      </trkpt>
      <trkpt lat="43.93932" lon="3.68132">
        <ele>152.51</ele>
        <time>2014-04-13T14:39:35Z</time>
      </trkpt>
      <trkpt lat="43.93998" lon="3.68312">
        <ele>152.03</ele>
        <time>2014-04-13T14:39:41Z</time>
      </trkpt>
      <trkpt lat="43.9401" lon="3.68352">
        <ele>153.95</ele>
        <time>2014-04-13T14:39:43Z</time>
      </trkpt>
      <trkpt lat="43.94007" lon="3.68366">
        <ele>153.95</ele>
        <time>2014-04-13T14:39:44Z</time>
      </trkpt>
      <trkpt lat="43.93999" lon="3.68387">
        <ele>154.43</ele>
        <time>2014-04-13T14:39:45Z</time>
      </trkpt>
      <trkpt lat="43.93988" lon="3.68405">
        <ele>156.35</ele>
        <time>2014-04-13T14:39:46Z</time>
      </trkpt>
      <trkpt lat="43.93977" lon="3.68421">
        <ele>158.75</ele>
        <time>2014-04-13T14:39:47Z</time>
      </trkpt>
      <trkpt lat="43.93972" lon="3.68438">
        <ele>159.24</ele>
        <time>2014-04-13T14:39:48Z</time>
      </trkpt>
      <trkpt lat="43.93916" lon="3.68515">
        <ele>163.08</ele>
        <time>2014-04-13T14:39:51Z</time>
      </trkpt>
      <trkpt lat="43.93904" lon="3.68545">
        <ele>163.08</ele>
        <time>2014-04-13T14:39:52Z</time>
      </trkpt>
      <trkpt lat="43.93893" lon="3.68576">
        <ele>164.52</ele>
        <time>2014-04-13T14:39:53Z</time>
      </trkpt>
      <trkpt lat="43.93884" lon="3.68605">
        <ele>163.56</ele>
        <time>2014-04-13T14:39:54Z</time>
      </trkpt>
      <trkpt lat="43.93879" lon="3.68634">
        <ele>162.12</ele>
        <time>2014-04-13T14:39:55Z</time>
      </trkpt>
      <trkpt lat="43.93877" lon="3.68661">
        <ele>161.16</ele>
        <time>2014-04-13T14:39:56Z</time>
      </trkpt>
      <trkpt lat="43.93879" lon="3.68686">
        <ele>160.68</ele>
        <time>2014-04-13T14:39:57Z</time>
      </trkpt>
      <trkpt lat="43.93881" lon="3.68708">
        <ele>158.75</ele>
        <time>2014-04-13T14:39:58Z</time>
      </trkpt>
      <trkpt lat="43.93885" lon="3.68729">
        <ele>157.79</ele>
        <time>2014-04-13T14:39:59Z</time>
      </trkpt>
      <trkpt lat="43.93889" lon="3.68747">
        <ele>156.83</ele>
        <time>2014-04-13T14:40:00Z</time>
      </trkpt>
      <trkpt lat="43.93893" lon="3.68762">
        <ele>155.87</ele>
        <time>2014-04-13T14:40:01Z</time>
      </trkpt>
      <trkpt lat="43.93911" lon="3.68843">
        <ele>150.1</ele>
        <time>2014-04-13T14:40:08Z</time>
      </trkpt>
      <trkpt lat="43.93918" lon="3.6888">
        <ele>149.62</ele>
        <time>2014-04-13T14:40:11Z</time>
      </trkpt>
      <trkpt lat="43.93918" lon="3.68894">
        <ele>149.62</ele>
        <time>2014-04-13T14:40:12Z</time>
      </trkpt>
      <trkpt lat="43.93916" lon="3.68908">
        <ele>149.62</ele>
        <time>2014-04-13T14:40:13Z</time>
      </trkpt>
      <trkpt lat="43.93909" lon="3.68918">
        <ele>149.14</ele>
        <time>2014-04-13T14:40:14Z</time>
      </trkpt>
      <trkpt lat="43.93901" lon="3.68927">
        <ele>149.14</ele>
        <time>2014-04-13T14:40:15Z</time>
      </trkpt>
      <trkpt lat="43.93891" lon="3.68933">
        <ele>149.14</ele>
        <time>2014-04-13T14:40:16Z</time>
      </trkpt>
      <trkpt lat="43.93882" lon="3.6894">
        <ele>150.58</ele>
        <time>2014-04-13T14:40:17Z</time>
      </trkpt>
      <trkpt lat="43.93869" lon="3.68946">
        <ele>153.47</ele>
        <time>2014-04-13T14:40:18Z</time>
      </trkpt>
      <trkpt lat="43.93856" lon="3.68952">
        <ele>153.47</ele>
        <time>2014-04-13T14:40:19Z</time>
      </trkpt>
      <trkpt lat="43.93844" lon="3.68959">
        <ele>153.95</ele>
        <time>2014-04-13T14:40:20Z</time>
      </trkpt>
      <trkpt lat="43.93832" lon="3.68969">
        <ele>153.95</ele>
        <time>2014-04-13T14:40:21Z</time>
      </trkpt>
      <trkpt lat="43.93821" lon="3.6898">
        <ele>154.43</ele>
        <time>2014-04-13T14:40:22Z</time>
      </trkpt>
      <trkpt lat="43.93811" lon="3.68991">
        <ele>154.43</ele>
        <time>2014-04-13T14:40:23Z</time>
      </trkpt>
      <trkpt lat="43.93801" lon="3.69005">
        <ele>154.43</ele>
        <time>2014-04-13T14:40:24Z</time>
      </trkpt>
      <trkpt lat="43.93774" lon="3.69051">
        <ele>155.87</ele>
        <time>2014-04-13T14:40:27Z</time>
      </trkpt>
      <trkpt lat="43.93758" lon="3.691">
        <ele>153.47</ele>
        <time>2014-04-13T14:40:30Z</time>
      </trkpt>
      <trkpt lat="43.93757" lon="3.69116">
        <ele>152.99</ele>
        <time>2014-04-13T14:40:31Z</time>
      </trkpt>
      <trkpt lat="43.9376" lon="3.69133">
        <ele>153.47</ele>
        <time>2014-04-13T14:40:32Z</time>
      </trkpt>
      <trkpt lat="43.93758" lon="3.69149">
        <ele>153.47</ele>
        <time>2014-04-13T14:40:33Z</time>
      </trkpt>
      <trkpt lat="43.93757" lon="3.69165">
        <ele>153.47</ele>
        <time>2014-04-13T14:40:34Z</time>
      </trkpt>
      <trkpt lat="43.93753" lon="3.69185">
        <ele>153.47</ele>
        <time>2014-04-13T14:40:35Z</time>
      </trkpt>
      <trkpt lat="43.9375" lon="3.69209">
        <ele>152.03</ele>
        <time>2014-04-13T14:40:36Z</time>
      </trkpt>
      <trkpt lat="43.9375" lon="3.69235">
        <ele>152.03</ele>
        <time>2014-04-13T14:40:37Z</time>
      </trkpt>
      <trkpt lat="43.9375" lon="3.6926">
        <ele>152.03</ele>
        <time>2014-04-13T14:40:38Z</time>
      </trkpt>
      <trkpt lat="43.9375" lon="3.69284">
        <ele>152.03</ele>
        <time>2014-04-13T14:40:39Z</time>
      </trkpt>
      <trkpt lat="43.93724" lon="3.69398">
        <ele>151.54</ele>
        <time>2014-04-13T14:40:44Z</time>
      </trkpt>
      <trkpt lat="43.93714" lon="3.69418">
        <ele>150.1</ele>
        <time>2014-04-13T14:40:45Z</time>
      </trkpt>
      <trkpt lat="43.93702" lon="3.69437">
        <ele>149.14</ele>
        <time>2014-04-13T14:40:46Z</time>
      </trkpt>
      <trkpt lat="43.93609" lon="3.69569">
        <ele>145.78</ele>
        <time>2014-04-13T14:40:52Z</time>
      </trkpt>
      <trkpt lat="43.93453" lon="3.69768">
        <ele>142.41</ele>
        <time>2014-04-13T14:41:00Z</time>
      </trkpt>
      <trkpt lat="43.93355" lon="3.69896">
        <ele>143.85</ele>
        <time>2014-04-13T14:41:06Z</time>
      </trkpt>
      <trkpt lat="43.93342" lon="3.69911">
        <ele>144.34</ele>
        <time>2014-04-13T14:41:07Z</time>
      </trkpt>
      <trkpt lat="43.93328" lon="3.69923">
        <ele>143.85</ele>
        <time>2014-04-13T14:41:08Z</time>
      </trkpt>
      <trkpt lat="43.93313" lon="3.69933">
        <ele>143.85</ele>
        <time>2014-04-13T14:41:09Z</time>
      </trkpt>
      <trkpt lat="43.93229" lon="3.70011">
        <ele>144.82</ele>
        <time>2014-04-13T14:41:16Z</time>
      </trkpt>
      <trkpt lat="43.93166" lon="3.70096">
        <ele>143.85</ele>
        <time>2014-04-13T14:41:24Z</time>
      </trkpt>
      <trkpt lat="43.93137" lon="3.70147">
        <ele>146.74</ele>
        <time>2014-04-13T14:41:30Z</time>
      </trkpt>
      <trkpt lat="43.93132" lon="3.70154">
        <ele>147.22</ele>
        <time>2014-04-13T14:41:31Z</time>
      </trkpt>
      <trkpt lat="43.93116" lon="3.70175">
        <ele>147.7</ele>
        <time>2014-04-13T14:41:34Z</time>
      </trkpt>
      <trkpt lat="43.93109" lon="3.70185">
        <ele>148.18</ele>
        <time>2014-04-13T14:41:35Z</time>
      </trkpt>
      <trkpt lat="43.93101" lon="3.70194">
        <ele>148.66</ele>
        <time>2014-04-13T14:41:36Z</time>
      </trkpt>
      <trkpt lat="43.93091" lon="3.70203">
        <ele>149.14</ele>
        <time>2014-04-13T14:41:37Z</time>
      </trkpt>
      <trkpt lat="43.93082" lon="3.70212">
        <ele>149.14</ele>
        <time>2014-04-13T14:41:38Z</time>
      </trkpt>
      <trkpt lat="43.93044" lon="3.70236">
        <ele>151.54</ele>
        <time>2014-04-13T14:41:44Z</time>
      </trkpt>
      <trkpt lat="43.93041" lon="3.70239">
        <ele>152.51</ele>
        <time>2014-04-13T14:41:53Z</time>
      </trkpt>
      <trkpt lat="43.9304" lon="3.70242">
        <ele>152.51</ele>
        <time>2014-04-13T14:41:58Z</time>
      </trkpt>
      <trkpt lat="43.93042" lon="3.70247">
        <ele>152.51</ele>
        <time>2014-04-13T14:41:59Z</time>
      </trkpt>
      <trkpt lat="43.93044" lon="3.70254">
        <ele>152.03</ele>
        <time>2014-04-13T14:42:00Z</time>
      </trkpt>
      <trkpt lat="43.9305" lon="3.70261">
        <ele>151.54</ele>
        <time>2014-04-13T14:42:01Z</time>
      </trkpt>
      <trkpt lat="43.93056" lon="3.70271">
        <ele>151.54</ele>
        <time>2014-04-13T14:42:02Z</time>
      </trkpt>
      <trkpt lat="43.93135" lon="3.70394">
        <ele>151.06</ele>
        <time>2014-04-13T14:42:14Z</time>
      </trkpt>
      <trkpt lat="43.93152" lon="3.70428">
        <ele>152.03</ele>
        <time>2014-04-13T14:42:21Z</time>
      </trkpt>
      <trkpt lat="43.93152" lon="3.70437">
        <ele>153.47</ele>
        <time>2014-04-13T14:42:28Z</time>
      </trkpt>
      <trkpt lat="43.93149" lon="3.70441">
        <ele>153.47</ele>
        <time>2014-04-13T14:42:29Z</time>
      </trkpt>
      <trkpt lat="43.93143" lon="3.70448">
        <ele>153.47</ele>
        <time>2014-04-13T14:42:30Z</time>
      </trkpt>
      <trkpt lat="43.93134" lon="3.70457">
        <ele>152.99</ele>
        <time>2014-04-13T14:42:31Z</time>
      </trkpt>
      <trkpt lat="43.93123" lon="3.70466">
        <ele>152.99</ele>
        <time>2014-04-13T14:42:32Z</time>
      </trkpt>
      <trkpt lat="43.93063" lon="3.70523">
        <ele>152.51</ele>
        <time>2014-04-13T14:42:38Z</time>
      </trkpt>
      <trkpt lat="43.93055" lon="3.70524">
        <ele>152.51</ele>
        <time>2014-04-13T14:42:39Z</time>
      </trkpt>
      <trkpt lat="43.93047" lon="3.70523">
        <ele>152.03</ele>
        <time>2014-04-13T14:42:40Z</time>
      </trkpt>
      <trkpt lat="43.9304" lon="3.70522">
        <ele>151.54</ele>
        <time>2014-04-13T14:42:41Z</time>
      </trkpt>
      <trkpt lat="43.93034" lon="3.70524">
        <ele>151.06</ele>
        <time>2014-04-13T14:42:42Z</time>
      </trkpt>
      <trkpt lat="43.93028" lon="3.70528">
        <ele>151.06</ele>
        <time>2014-04-13T14:42:43Z</time>
      </trkpt>
      <trkpt lat="43.93024" lon="3.70534">
        <ele>150.58</ele>
        <time>2014-04-13T14:42:44Z</time>
      </trkpt>
      <trkpt lat="43.9302" lon="3.70541">
        <ele>150.58</ele>
        <time>2014-04-13T14:42:45Z</time>
      </trkpt>
      <trkpt lat="43.93019" lon="3.70549">
        <ele>150.58</ele>
        <time>2014-04-13T14:42:46Z</time>
      </trkpt>
      <trkpt lat="43.93019" lon="3.70556">
        <ele>150.1</ele>
        <time>2014-04-13T14:42:47Z</time>
      </trkpt>
      <trkpt lat="43.93021" lon="3.70563">
        <ele>149.62</ele>
        <time>2014-04-13T14:42:48Z</time>
      </trkpt>
      <trkpt lat="43.93025" lon="3.70569">
        <ele>149.62</ele>
        <time>2014-04-13T14:42:49Z</time>
      </trkpt>
      <trkpt lat="43.9303" lon="3.70576">
        <ele>149.62</ele>
        <time>2014-04-13T14:42:50Z</time>
      </trkpt>
      <trkpt lat="43.93036" lon="3.70583">
        <ele>149.62</ele>
        <time>2014-04-13T14:42:51Z</time>
      </trkpt>
      <trkpt lat="43.93039" lon="3.70591">
        <ele>149.62</ele>
        <time>2014-04-13T14:42:52Z</time>
      </trkpt>
      <trkpt lat="43.9304" lon="3.70599">
        <ele>149.62</ele>
        <time>2014-04-13T14:42:53Z</time>
      </trkpt>
      <trkpt lat="43.93041" lon="3.70607">
        <ele>149.62</ele>
        <time>2014-04-13T14:42:54Z</time>
      </trkpt>
      <trkpt lat="43.93039" lon="3.70618">
        <ele>149.62</ele>
        <time>2014-04-13T14:42:55Z</time>
      </trkpt>
      <trkpt lat="43.93037" lon="3.7063">
        <ele>149.62</ele>
        <time>2014-04-13T14:42:56Z</time>
      </trkpt>
      <trkpt lat="43.93042" lon="3.7074">
        <ele>148.66</ele>
        <time>2014-04-13T14:43:03Z</time>
      </trkpt>
      <trkpt lat="43.93067" lon="3.70807">
        <ele>148.18</ele>
        <time>2014-04-13T14:43:07Z</time>
      </trkpt>
      <trkpt lat="43.93076" lon="3.70822">
        <ele>148.18</ele>
        <time>2014-04-13T14:43:08Z</time>
      </trkpt>
      <trkpt lat="43.93189" lon="3.71009">
        <ele>148.18</ele>
        <time>2014-04-13T14:43:22Z</time>
      </trkpt>
      <trkpt lat="43.93212" lon="3.71053">
        <ele>150.1</ele>
        <time>2014-04-13T14:43:27Z</time>
      </trkpt>
      <trkpt lat="43.93215" lon="3.71059">
        <ele>150.1</ele>
        <time>2014-04-13T14:43:28Z</time>
      </trkpt>
      <trkpt lat="43.93217" lon="3.71066">
        <ele>150.58</ele>
        <time>2014-04-13T14:43:29Z</time>
      </trkpt>
      <trkpt lat="43.93217" lon="3.71074">
        <ele>150.58</ele>
        <time>2014-04-13T14:43:30Z</time>
      </trkpt>
      <trkpt lat="43.93217" lon="3.71083">
        <ele>150.58</ele>
        <time>2014-04-13T14:43:31Z</time>
      </trkpt>
      <trkpt lat="43.93216" lon="3.71093">
        <ele>150.58</ele>
        <time>2014-04-13T14:43:32Z</time>
      </trkpt>
      <trkpt lat="43.93215" lon="3.71103">
        <ele>151.06</ele>
        <time>2014-04-13T14:43:33Z</time>
      </trkpt>
      <trkpt lat="43.93217" lon="3.71112">
        <ele>151.06</ele>
        <time>2014-04-13T14:43:34Z</time>
      </trkpt>
      <trkpt lat="43.93219" lon="3.71118">
        <ele>151.06</ele>
        <time>2014-04-13T14:43:35Z</time>
      </trkpt>
      <trkpt lat="43.93222" lon="3.71122">
        <ele>151.06</ele>
        <time>2014-04-13T14:43:36Z</time>
      </trkpt>
      <trkpt lat="43.93226" lon="3.71125">
        <ele>151.06</ele>
        <time>2014-04-13T14:43:37Z</time>
      </trkpt>
      <trkpt lat="43.9323" lon="3.71127">
        <ele>151.54</ele>
        <time>2014-04-13T14:43:38Z</time>
      </trkpt>
      <trkpt lat="43.93234" lon="3.71128">
        <ele>151.54</ele>
        <time>2014-04-13T14:43:39Z</time>
      </trkpt>
      <trkpt lat="43.93238" lon="3.71128">
        <ele>151.54</ele>
        <time>2014-04-13T14:43:40Z</time>
      </trkpt>
      <trkpt lat="43.93243" lon="3.71127">
        <ele>151.54</ele>
        <time>2014-04-13T14:43:41Z</time>
      </trkpt>
      <trkpt lat="43.93247" lon="3.71125">
        <ele>151.54</ele>
        <time>2014-04-13T14:43:42Z</time>
      </trkpt>
      <trkpt lat="43.9325" lon="3.71121">
        <ele>151.54</ele>
        <time>2014-04-13T14:43:43Z</time>
      </trkpt>
      <trkpt lat="43.93253" lon="3.71116">
        <ele>152.03</ele>
        <time>2014-04-13T14:43:44Z</time>
      </trkpt>
      <trkpt lat="43.93255" lon="3.7111">
        <ele>152.03</ele>
        <time>2014-04-13T14:43:45Z</time>
      </trkpt>
      <trkpt lat="43.93257" lon="3.71102">
        <ele>152.03</ele>
        <time>2014-04-13T14:43:46Z</time>
      </trkpt>
      <trkpt lat="43.93259" lon="3.71094">
        <ele>151.54</ele>
        <time>2014-04-13T14:43:47Z</time>
      </trkpt>
      <trkpt lat="43.93263" lon="3.71081">
        <ele>151.06</ele>
        <time>2014-04-13T14:43:49Z</time>
      </trkpt>
      <trkpt lat="43.93266" lon="3.71077">
        <ele>151.06</ele>
        <time>2014-04-13T14:43:50Z</time>
      </trkpt>
      <trkpt lat="43.93269" lon="3.71073">
        <ele>151.54</ele>
        <time>2014-04-13T14:43:51Z</time>
      </trkpt>
      <trkpt lat="43.93274" lon="3.71069">
        <ele>151.54</ele>
        <time>2014-04-13T14:43:52Z</time>
      </trkpt>
      <trkpt lat="43.93279" lon="3.71065">
        <ele>152.03</ele>
        <time>2014-04-13T14:43:53Z</time>
      </trkpt>
      <trkpt lat="43.93333" lon="3.71022">
        <ele>156.35</ele>
        <time>2014-04-13T14:44:03Z</time>
      </trkpt>
      <trkpt lat="43.93372" lon="3.70984">
        <ele>155.87</ele>
        <time>2014-04-13T14:44:12Z</time>
      </trkpt>
      <trkpt lat="43.93376" lon="3.70977">
        <ele>155.87</ele>
        <time>2014-04-13T14:44:13Z</time>
      </trkpt>
      <trkpt lat="43.9338" lon="3.70969">
        <ele>156.35</ele>
        <time>2014-04-13T14:44:14Z</time>
      </trkpt>
      <trkpt lat="43.93384" lon="3.70959">
        <ele>156.35</ele>
        <time>2014-04-13T14:44:15Z</time>
      </trkpt>
      <trkpt lat="43.93387" lon="3.70947">
        <ele>156.83</ele>
        <time>2014-04-13T14:44:16Z</time>
      </trkpt>
      <trkpt lat="43.9339" lon="3.70934">
        <ele>156.83</ele>
        <time>2014-04-13T14:44:17Z</time>
      </trkpt>
      <trkpt lat="43.93401" lon="3.7089">
        <ele>156.83</ele>
        <time>2014-04-13T14:44:21Z</time>
      </trkpt>
      <trkpt lat="43.93408" lon="3.70865">
        <ele>158.27</ele>
        <time>2014-04-13T14:44:24Z</time>
      </trkpt>
      <trkpt lat="43.93408" lon="3.70861">
        <ele>158.75</ele>
        <time>2014-04-13T14:44:25Z</time>
      </trkpt>
      <trkpt lat="43.93407" lon="3.70845">
        <ele>163.08</ele>
        <time>2014-04-13T14:44:36Z</time>
      </trkpt>
      <trkpt lat="43.93407" lon="3.70849">
        <ele>165</ele>
        <time>2014-04-13T14:44:53Z</time>
      </trkpt>
      <trkpt lat="43.93406" lon="3.70851">
        <ele>164.04</ele>
        <time>2014-04-13T14:44:54Z</time>
      </trkpt>
      <trkpt lat="43.93406" lon="3.70857">
        <ele>163.56</ele>
        <time>2014-04-13T14:44:56Z</time>
      </trkpt>
      <trkpt lat="43.93407" lon="3.70861">
        <ele>163.08</ele>
        <time>2014-04-13T14:44:57Z</time>
      </trkpt>
      <trkpt lat="43.93407" lon="3.70864">
        <ele>162.6</ele>
        <time>2014-04-13T14:44:58Z</time>
      </trkpt>
      <trkpt lat="43.93408" lon="3.70869">
        <ele>159.72</ele>
        <time>2014-04-13T14:45:11Z</time>
      </trkpt>
      <trkpt lat="43.93407" lon="3.7087">
        <ele>154.43</ele>
        <time>2014-04-13T14:46:48Z</time>
      </trkpt>
      <trkpt lat="43.93411" lon="3.70865">
        <ele>155.39</ele>
        <time>2014-04-13T15:35:10Z</time>
      </trkpt>
      <trkpt lat="43.93407" lon="3.70868">
        <ele>158.75</ele>
        <time>2014-04-13T15:36:22Z</time>
      </trkpt>
      <trkpt lat="43.934" lon="3.70878">
        <ele>161.16</ele>
        <time>2014-04-13T15:36:26Z</time>
      </trkpt>
      <trkpt lat="43.93394" lon="3.70884">
        <ele>161.64</ele>
        <time>2014-04-13T15:36:27Z</time>
      </trkpt>
      <trkpt lat="43.93391" lon="3.70891">
        <ele>163.08</ele>
        <time>2014-04-13T15:36:28Z</time>
      </trkpt>
      <trkpt lat="43.93389" lon="3.709">
        <ele>163.56</ele>
        <time>2014-04-13T15:36:29Z</time>
      </trkpt>
      <trkpt lat="43.93387" lon="3.7091">
        <ele>164.04</ele>
        <time>2014-04-13T15:36:30Z</time>
      </trkpt>
      <trkpt lat="43.93372" lon="3.70966">
        <ele>164.52</ele>
        <time>2014-04-13T15:36:35Z</time>
      </trkpt>
      <trkpt lat="43.93365" lon="3.70977">
        <ele>162.12</ele>
        <time>2014-04-13T15:36:36Z</time>
      </trkpt>
      <trkpt lat="43.93343" lon="3.71004">
        <ele>160.68</ele>
        <time>2014-04-13T15:36:39Z</time>
      </trkpt>
      <trkpt lat="43.93271" lon="3.71069">
        <ele>155.87</ele>
        <time>2014-04-13T15:36:50Z</time>
      </trkpt>
      <trkpt lat="43.93256" lon="3.71074">
        <ele>153.95</ele>
        <time>2014-04-13T15:36:57Z</time>
      </trkpt>
      <trkpt lat="43.93247" lon="3.71072">
        <ele>152.51</ele>
        <time>2014-04-13T15:37:00Z</time>
      </trkpt>
      <trkpt lat="43.93229" lon="3.71066">
        <ele>151.06</ele>
        <time>2014-04-13T15:37:03Z</time>
      </trkpt>
      <trkpt lat="43.93222" lon="3.71068">
        <ele>150.58</ele>
        <time>2014-04-13T15:37:04Z</time>
      </trkpt>
      <trkpt lat="43.93216" lon="3.71075">
        <ele>150.58</ele>
        <time>2014-04-13T15:37:05Z</time>
      </trkpt>
      <trkpt lat="43.93211" lon="3.71086">
        <ele>150.1</ele>
        <time>2014-04-13T15:37:06Z</time>
      </trkpt>
      <trkpt lat="43.93209" lon="3.71097">
        <ele>149.62</ele>
        <time>2014-04-13T15:37:07Z</time>
      </trkpt>
      <trkpt lat="43.93206" lon="3.71107">
        <ele>148.66</ele>
        <time>2014-04-13T15:37:08Z</time>
      </trkpt>
      <trkpt lat="43.93203" lon="3.71117">
        <ele>148.66</ele>
        <time>2014-04-13T15:37:09Z</time>
      </trkpt>
      <trkpt lat="43.93198" lon="3.71124">
        <ele>148.18</ele>
        <time>2014-04-13T15:37:10Z</time>
      </trkpt>
      <trkpt lat="43.93191" lon="3.71131">
        <ele>148.18</ele>
        <time>2014-04-13T15:37:11Z</time>
      </trkpt>
      <trkpt lat="43.93183" lon="3.71139">
        <ele>147.7</ele>
        <time>2014-04-13T15:37:12Z</time>
      </trkpt>
      <trkpt lat="43.93119" lon="3.7119">
        <ele>147.22</ele>
        <time>2014-04-13T15:37:17Z</time>
      </trkpt>
      <trkpt lat="43.93011" lon="3.71277">
        <ele>148.66</ele>
        <time>2014-04-13T15:37:27Z</time>
      </trkpt>
      <trkpt lat="43.92934" lon="3.71337">
        <ele>149.14</ele>
        <time>2014-04-13T15:37:36Z</time>
      </trkpt>
      <trkpt lat="43.92838" lon="3.71414">
        <ele>146.26</ele>
        <time>2014-04-13T15:37:46Z</time>
      </trkpt>
      <trkpt lat="43.92718" lon="3.71509">
        <ele>144.34</ele>
        <time>2014-04-13T15:37:56Z</time>
      </trkpt>
      <trkpt lat="43.92663" lon="3.71552">
        <ele>144.34</ele>
        <time>2014-04-13T15:38:02Z</time>
      </trkpt>
      <trkpt lat="43.92657" lon="3.71553">
        <ele>144.34</ele>
        <time>2014-04-13T15:38:03Z</time>
      </trkpt>
      <trkpt lat="43.9265" lon="3.71556">
        <ele>143.85</ele>
        <time>2014-04-13T15:38:04Z</time>
      </trkpt>
      <trkpt lat="43.92644" lon="3.71564">
        <ele>144.34</ele>
        <time>2014-04-13T15:38:05Z</time>
      </trkpt>
      <trkpt lat="43.92638" lon="3.71574">
        <ele>143.85</ele>
        <time>2014-04-13T15:38:06Z</time>
      </trkpt>
      <trkpt lat="43.92631" lon="3.71587">
        <ele>143.85</ele>
        <time>2014-04-13T15:38:07Z</time>
      </trkpt>
      <trkpt lat="43.92623" lon="3.71603">
        <ele>143.85</ele>
        <time>2014-04-13T15:38:08Z</time>
      </trkpt>
      <trkpt lat="43.92556" lon="3.71749">
        <ele>142.89</ele>
        <time>2014-04-13T15:38:16Z</time>
      </trkpt>
      <trkpt lat="43.92508" lon="3.71921">
        <ele>140.49</ele>
        <time>2014-04-13T15:38:26Z</time>
      </trkpt>
      <trkpt lat="43.92478" lon="3.72008">
        <ele>139.53</ele>
        <time>2014-04-13T15:38:34Z</time>
      </trkpt>
      <trkpt lat="43.92472" lon="3.72024">
        <ele>142.41</ele>
        <time>2014-04-13T15:38:41Z</time>
      </trkpt>
      <trkpt lat="43.92456" lon="3.72054">
        <ele>149.14</ele>
        <time>2014-04-13T15:38:56Z</time>
      </trkpt>
      <trkpt lat="43.92401" lon="3.72148">
        <ele>142.89</ele>
        <time>2014-04-13T15:39:05Z</time>
      </trkpt>
      <trkpt lat="43.92358" lon="3.72236">
        <ele>140.01</ele>
        <time>2014-04-13T15:39:13Z</time>
      </trkpt>
      <trkpt lat="43.92321" lon="3.72271">
        <ele>139.53</ele>
        <time>2014-04-13T15:39:20Z</time>
      </trkpt>
      <trkpt lat="43.92315" lon="3.72275">
        <ele>139.05</ele>
        <time>2014-04-13T15:39:21Z</time>
      </trkpt>
      <trkpt lat="43.9231" lon="3.72277">
        <ele>139.05</ele>
        <time>2014-04-13T15:39:22Z</time>
      </trkpt>
      <trkpt lat="43.92285" lon="3.72284">
        <ele>138.57</ele>
        <time>2014-04-13T15:39:31Z</time>
      </trkpt>
      <trkpt lat="43.92267" lon="3.72288">
        <ele>138.57</ele>
        <time>2014-04-13T15:39:42Z</time>
      </trkpt>
      <trkpt lat="43.92245" lon="3.72293">
        <ele>139.05</ele>
        <time>2014-04-13T15:39:47Z</time>
      </trkpt>
      <trkpt lat="43.9224" lon="3.72296">
        <ele>139.05</ele>
        <time>2014-04-13T15:39:48Z</time>
      </trkpt>
      <trkpt lat="43.92236" lon="3.723">
        <ele>139.05</ele>
        <time>2014-04-13T15:39:49Z</time>
      </trkpt>
      <trkpt lat="43.92232" lon="3.72305">
        <ele>139.53</ele>
        <time>2014-04-13T15:39:50Z</time>
      </trkpt>
      <trkpt lat="43.92228" lon="3.7231">
        <ele>140.01</ele>
        <time>2014-04-13T15:39:51Z</time>
      </trkpt>
      <trkpt lat="43.92225" lon="3.72316">
        <ele>140.01</ele>
        <time>2014-04-13T15:39:52Z</time>
      </trkpt>
      <trkpt lat="43.92208" lon="3.72347">
        <ele>139.53</ele>
        <time>2014-04-13T15:39:57Z</time>
      </trkpt>
      <trkpt lat="43.92205" lon="3.72356">
        <ele>139.53</ele>
        <time>2014-04-13T15:39:58Z</time>
      </trkpt>
      <trkpt lat="43.92194" lon="3.72388">
        <ele>145.3</ele>
        <time>2014-04-13T15:40:03Z</time>
      </trkpt>
      <trkpt lat="43.92187" lon="3.72448">
        <ele>148.66</ele>
        <time>2014-04-13T15:40:14Z</time>
      </trkpt>
      <trkpt lat="43.92185" lon="3.72453">
        <ele>149.62</ele>
        <time>2014-04-13T15:40:15Z</time>
      </trkpt>
      <trkpt lat="43.92161" lon="3.7252">
        <ele>146.74</ele>
        <time>2014-04-13T15:40:23Z</time>
      </trkpt>
      <trkpt lat="43.92152" lon="3.72531">
        <ele>146.74</ele>
        <time>2014-04-13T15:40:24Z</time>
      </trkpt>
      <trkpt lat="43.92142" lon="3.72542">
        <ele>146.26</ele>
        <time>2014-04-13T15:40:25Z</time>
      </trkpt>
      <trkpt lat="43.92119" lon="3.7256">
        <ele>145.3</ele>
        <time>2014-04-13T15:40:27Z</time>
      </trkpt>
      <trkpt lat="43.92106" lon="3.72567">
        <ele>144.34</ele>
        <time>2014-04-13T15:40:28Z</time>
      </trkpt>
      <trkpt lat="43.92092" lon="3.72567">
        <ele>143.37</ele>
        <time>2014-04-13T15:40:29Z</time>
      </trkpt>
      <trkpt lat="43.92077" lon="3.72563">
        <ele>141.93</ele>
        <time>2014-04-13T15:40:30Z</time>
      </trkpt>
      <trkpt lat="43.92063" lon="3.72558">
        <ele>141.93</ele>
        <time>2014-04-13T15:40:31Z</time>
      </trkpt>
      <trkpt lat="43.92049" lon="3.72555">
        <ele>140.97</ele>
        <time>2014-04-13T15:40:32Z</time>
      </trkpt>
      <trkpt lat="43.92034" lon="3.72557">
        <ele>140.01</ele>
        <time>2014-04-13T15:40:33Z</time>
      </trkpt>
      <trkpt lat="43.9202" lon="3.72563">
        <ele>139.05</ele>
        <time>2014-04-13T15:40:34Z</time>
      </trkpt>
      <trkpt lat="43.92005" lon="3.72572">
        <ele>138.57</ele>
        <time>2014-04-13T15:40:35Z</time>
      </trkpt>
      <trkpt lat="43.91992" lon="3.72584">
        <ele>138.09</ele>
        <time>2014-04-13T15:40:36Z</time>
      </trkpt>
      <trkpt lat="43.91979" lon="3.72593">
        <ele>137.13</ele>
        <time>2014-04-13T15:40:37Z</time>
      </trkpt>
      <trkpt lat="43.91887" lon="3.72665">
        <ele>135.68</ele>
        <time>2014-04-13T15:40:44Z</time>
      </trkpt>
      <trkpt lat="43.91876" lon="3.72681">
        <ele>135.68</ele>
        <time>2014-04-13T15:40:45Z</time>
      </trkpt>
      <trkpt lat="43.91865" lon="3.72697">
        <ele>135.68</ele>
        <time>2014-04-13T15:40:46Z</time>
      </trkpt>
      <trkpt lat="43.91856" lon="3.72715">
        <ele>135.68</ele>
        <time>2014-04-13T15:40:47Z</time>
      </trkpt>
      <trkpt lat="43.91845" lon="3.72731">
        <ele>138.09</ele>
        <time>2014-04-13T15:40:48Z</time>
      </trkpt>
      <trkpt lat="43.91811" lon="3.72777">
        <ele>138.57</ele>
        <time>2014-04-13T15:40:51Z</time>
      </trkpt>
      <trkpt lat="43.91797" lon="3.72788">
        <ele>138.09</ele>
        <time>2014-04-13T15:40:52Z</time>
      </trkpt>
      <trkpt lat="43.91781" lon="3.72797">
        <ele>137.61</ele>
        <time>2014-04-13T15:40:53Z</time>
      </trkpt>
      <trkpt lat="43.91764" lon="3.72802">
        <ele>136.64</ele>
        <time>2014-04-13T15:40:54Z</time>
      </trkpt>
      <trkpt lat="43.91746" lon="3.72802">
        <ele>135.68</ele>
        <time>2014-04-13T15:40:55Z</time>
      </trkpt>
      <trkpt lat="43.91728" lon="3.72799">
        <ele>135.68</ele>
        <time>2014-04-13T15:40:56Z</time>
      </trkpt>
      <trkpt lat="43.91711" lon="3.72794">
        <ele>135.2</ele>
        <time>2014-04-13T15:40:57Z</time>
      </trkpt>
      <trkpt lat="43.91695" lon="3.72789">
        <ele>135.2</ele>
        <time>2014-04-13T15:40:58Z</time>
      </trkpt>
      <trkpt lat="43.91607" lon="3.72768">
        <ele>134.72</ele>
        <time>2014-04-13T15:41:04Z</time>
      </trkpt>
      <trkpt lat="43.91593" lon="3.72769">
        <ele>134.24</ele>
        <time>2014-04-13T15:41:05Z</time>
      </trkpt>
      <trkpt lat="43.9158" lon="3.7278">
        <ele>135.2</ele>
        <time>2014-04-13T15:41:06Z</time>
      </trkpt>
      <trkpt lat="43.91572" lon="3.72795">
        <ele>133.76</ele>
        <time>2014-04-13T15:41:07Z</time>
      </trkpt>
      <trkpt lat="43.91568" lon="3.7281">
        <ele>133.28</ele>
        <time>2014-04-13T15:41:08Z</time>
      </trkpt>
      <trkpt lat="43.9157" lon="3.72824">
        <ele>133.28</ele>
        <time>2014-04-13T15:41:09Z</time>
      </trkpt>
      <trkpt lat="43.91574" lon="3.72843">
        <ele>133.28</ele>
        <time>2014-04-13T15:41:10Z</time>
      </trkpt>
      <trkpt lat="43.91583" lon="3.72865">
        <ele>134.24</ele>
        <time>2014-04-13T15:41:11Z</time>
      </trkpt>
      <trkpt lat="43.91592" lon="3.72885">
        <ele>135.2</ele>
        <time>2014-04-13T15:41:12Z</time>
      </trkpt>
      <trkpt lat="43.91602" lon="3.72907">
        <ele>135.68</ele>
        <time>2014-04-13T15:41:13Z</time>
      </trkpt>
      <trkpt lat="43.91613" lon="3.72933">
        <ele>136.16</ele>
        <time>2014-04-13T15:41:14Z</time>
      </trkpt>
      <trkpt lat="43.91671" lon="3.73139">
        <ele>135.68</ele>
        <time>2014-04-13T15:41:23Z</time>
      </trkpt>
      <trkpt lat="43.9168" lon="3.73302">
        <ele>137.61</ele>
        <time>2014-04-13T15:41:30Z</time>
      </trkpt>
      <trkpt lat="43.91661" lon="3.73415">
        <ele>136.16</ele>
        <time>2014-04-13T15:41:35Z</time>
      </trkpt>
      <trkpt lat="43.91652" lon="3.73437">
        <ele>136.16</ele>
        <time>2014-04-13T15:41:36Z</time>
      </trkpt>
      <trkpt lat="43.91566" lon="3.73639">
        <ele>135.2</ele>
        <time>2014-04-13T15:41:45Z</time>
      </trkpt>
      <trkpt lat="43.91471" lon="3.73772">
        <ele>129.43</ele>
        <time>2014-04-13T15:41:52Z</time>
      </trkpt>
      <trkpt lat="43.91451" lon="3.73785">
        <ele>128.95</ele>
        <time>2014-04-13T15:41:53Z</time>
      </trkpt>
      <trkpt lat="43.91394" lon="3.73815">
        <ele>127.03</ele>
        <time>2014-04-13T15:41:56Z</time>
      </trkpt>
      <trkpt lat="43.91374" lon="3.7382">
        <ele>126.55</ele>
        <time>2014-04-13T15:41:57Z</time>
      </trkpt>
      <trkpt lat="43.91355" lon="3.7382">
        <ele>126.07</ele>
        <time>2014-04-13T15:41:58Z</time>
      </trkpt>
      <trkpt lat="43.91335" lon="3.73817">
        <ele>126.07</ele>
        <time>2014-04-13T15:41:59Z</time>
      </trkpt>
      <trkpt lat="43.91314" lon="3.73809">
        <ele>125.59</ele>
        <time>2014-04-13T15:42:00Z</time>
      </trkpt>
      <trkpt lat="43.91294" lon="3.73795">
        <ele>125.59</ele>
        <time>2014-04-13T15:42:01Z</time>
      </trkpt>
      <trkpt lat="43.91274" lon="3.73785">
        <ele>125.11</ele>
        <time>2014-04-13T15:42:02Z</time>
      </trkpt>
      <trkpt lat="43.91124" lon="3.73662">
        <ele>121.74</ele>
        <time>2014-04-13T15:42:10Z</time>
      </trkpt>
      <trkpt lat="43.91059" lon="3.73652">
        <ele>120.78</ele>
        <time>2014-04-13T15:42:13Z</time>
      </trkpt>
      <trkpt lat="43.91037" lon="3.73655">
        <ele>120.78</ele>
        <time>2014-04-13T15:42:14Z</time>
      </trkpt>
      <trkpt lat="43.91016" lon="3.73661">
        <ele>121.74</ele>
        <time>2014-04-13T15:42:15Z</time>
      </trkpt>
      <trkpt lat="43.90996" lon="3.73669">
        <ele>121.74</ele>
        <time>2014-04-13T15:42:16Z</time>
      </trkpt>
      <trkpt lat="43.90976" lon="3.73682">
        <ele>123.19</ele>
        <time>2014-04-13T15:42:17Z</time>
      </trkpt>
      <trkpt lat="43.90958" lon="3.73697">
        <ele>124.15</ele>
        <time>2014-04-13T15:42:18Z</time>
      </trkpt>
      <trkpt lat="43.90939" lon="3.7371">
        <ele>124.15</ele>
        <time>2014-04-13T15:42:19Z</time>
      </trkpt>
      <trkpt lat="43.90813" lon="3.73788">
        <ele>122.71</ele>
        <time>2014-04-13T15:42:26Z</time>
      </trkpt>
      <trkpt lat="43.90795" lon="3.73785">
        <ele>122.22</ele>
        <time>2014-04-13T15:42:27Z</time>
      </trkpt>
      <trkpt lat="43.90777" lon="3.73782">
        <ele>119.82</ele>
        <time>2014-04-13T15:42:28Z</time>
      </trkpt>
      <trkpt lat="43.90617" lon="3.73757">
        <ele>125.11</ele>
        <time>2014-04-13T15:42:38Z</time>
      </trkpt>
      <trkpt lat="43.90485" lon="3.7379">
        <ele>127.99</ele>
        <time>2014-04-13T15:42:48Z</time>
      </trkpt>
      <trkpt lat="43.90376" lon="3.73805">
        <ele>134.72</ele>
        <time>2014-04-13T15:42:58Z</time>
      </trkpt>
      <trkpt lat="43.90304" lon="3.73785">
        <ele>135.68</ele>
        <time>2014-04-13T15:43:06Z</time>
      </trkpt>
      <trkpt lat="43.90194" lon="3.73755">
        <ele>136.64</ele>
        <time>2014-04-13T15:43:18Z</time>
      </trkpt>
      <trkpt lat="43.90169" lon="3.73747">
        <ele>137.13</ele>
        <time>2014-04-13T15:43:21Z</time>
      </trkpt>
      <trkpt lat="43.90141" lon="3.73738">
        <ele>136.64</ele>
        <time>2014-04-13T15:43:24Z</time>
      </trkpt>
      <trkpt lat="43.90022" lon="3.73706">
        <ele>134.72</ele>
        <time>2014-04-13T15:43:37Z</time>
      </trkpt>
      <trkpt lat="43.8993" lon="3.73683">
        <ele>133.28</ele>
        <time>2014-04-13T15:43:47Z</time>
      </trkpt>
      <trkpt lat="43.89868" lon="3.73671">
        <ele>133.76</ele>
        <time>2014-04-13T15:43:54Z</time>
      </trkpt>
      <trkpt lat="43.89859" lon="3.73673">
        <ele>133.76</ele>
        <time>2014-04-13T15:43:55Z</time>
      </trkpt>
      <trkpt lat="43.89851" lon="3.73676">
        <ele>133.76</ele>
        <time>2014-04-13T15:43:56Z</time>
      </trkpt>
      <trkpt lat="43.89711" lon="3.73722">
        <ele>133.76</ele>
        <time>2014-04-13T15:44:10Z</time>
      </trkpt>
      <trkpt lat="43.89636" lon="3.73744">
        <ele>134.72</ele>
        <time>2014-04-13T15:44:20Z</time>
      </trkpt>
      <trkpt lat="43.89571" lon="3.73765">
        <ele>136.16</ele>
        <time>2014-04-13T15:44:28Z</time>
      </trkpt>
      <trkpt lat="43.89435" lon="3.73808">
        <ele>137.13</ele>
        <time>2014-04-13T15:44:40Z</time>
      </trkpt>
      <trkpt lat="43.89272" lon="3.7386">
        <ele>132.32</ele>
        <time>2014-04-13T15:44:53Z</time>
      </trkpt>
      <trkpt lat="43.89226" lon="3.73875">
        <ele>130.88</ele>
        <time>2014-04-13T15:44:59Z</time>
      </trkpt>
      <trkpt lat="43.89136" lon="3.73903">
        <ele>129.92</ele>
        <time>2014-04-13T15:45:07Z</time>
      </trkpt>
      <trkpt lat="43.88954" lon="3.73957">
        <ele>128.47</ele>
        <time>2014-04-13T15:45:21Z</time>
      </trkpt>
      <trkpt lat="43.88947" lon="3.73955">
        <ele>128.47</ele>
        <time>2014-04-13T15:45:22Z</time>
      </trkpt>
      <trkpt lat="43.88941" lon="3.73951">
        <ele>127.99</ele>
        <time>2014-04-13T15:45:23Z</time>
      </trkpt>
      <trkpt lat="43.88935" lon="3.73948">
        <ele>127.99</ele>
        <time>2014-04-13T15:45:24Z</time>
      </trkpt>
      <trkpt lat="43.8893" lon="3.73947">
        <ele>127.99</ele>
        <time>2014-04-13T15:45:25Z</time>
      </trkpt>
      <trkpt lat="43.88925" lon="3.73952">
        <ele>128.47</ele>
        <time>2014-04-13T15:45:26Z</time>
      </trkpt>
      <trkpt lat="43.8892" lon="3.73959">
        <ele>128.47</ele>
        <time>2014-04-13T15:45:27Z</time>
      </trkpt>
      <trkpt lat="43.88913" lon="3.73969">
        <ele>128.95</ele>
        <time>2014-04-13T15:45:28Z</time>
      </trkpt>
      <trkpt lat="43.88905" lon="3.73978">
        <ele>128.95</ele>
        <time>2014-04-13T15:45:29Z</time>
      </trkpt>
      <trkpt lat="43.88895" lon="3.73986">
        <ele>128.47</ele>
        <time>2014-04-13T15:45:30Z</time>
      </trkpt>
      <trkpt lat="43.88883" lon="3.73993">
        <ele>129.43</ele>
        <time>2014-04-13T15:45:31Z</time>
      </trkpt>
      <trkpt lat="43.88872" lon="3.73999">
        <ele>129.43</ele>
        <time>2014-04-13T15:45:32Z</time>
      </trkpt>
      <trkpt lat="43.88741" lon="3.74057">
        <ele>133.76</ele>
        <time>2014-04-13T15:45:41Z</time>
      </trkpt>
      <trkpt lat="43.88607" lon="3.74048">
        <ele>138.57</ele>
        <time>2014-04-13T15:45:48Z</time>
      </trkpt>
      <trkpt lat="43.88437" lon="3.74062">
        <ele>145.78</ele>
        <time>2014-04-13T15:45:56Z</time>
      </trkpt>
      <trkpt lat="43.88416" lon="3.74073">
        <ele>146.74</ele>
        <time>2014-04-13T15:45:57Z</time>
      </trkpt>
      <trkpt lat="43.88395" lon="3.74086">
        <ele>147.7</ele>
        <time>2014-04-13T15:45:58Z</time>
      </trkpt>
      <trkpt lat="43.88375" lon="3.74106">
        <ele>149.14</ele>
        <time>2014-04-13T15:45:59Z</time>
      </trkpt>
      <trkpt lat="43.88356" lon="3.74125">
        <ele>150.58</ele>
        <time>2014-04-13T15:46:00Z</time>
      </trkpt>
      <trkpt lat="43.88338" lon="3.74147">
        <ele>151.06</ele>
        <time>2014-04-13T15:46:01Z</time>
      </trkpt>
      <trkpt lat="43.88322" lon="3.7417">
        <ele>151.54</ele>
        <time>2014-04-13T15:46:02Z</time>
      </trkpt>
      <trkpt lat="43.88306" lon="3.74195">
        <ele>152.51</ele>
        <time>2014-04-13T15:46:03Z</time>
      </trkpt>
      <trkpt lat="43.88292" lon="3.74221">
        <ele>152.99</ele>
        <time>2014-04-13T15:46:04Z</time>
      </trkpt>
      <trkpt lat="43.88277" lon="3.74248">
        <ele>153.47</ele>
        <time>2014-04-13T15:46:05Z</time>
      </trkpt>
      <trkpt lat="43.88151" lon="3.74418">
        <ele>158.75</ele>
        <time>2014-04-13T15:46:13Z</time>
      </trkpt>
      <trkpt lat="43.88009" lon="3.74489">
        <ele>163.56</ele>
        <time>2014-04-13T15:46:20Z</time>
      </trkpt>
      <trkpt lat="43.87876" lon="3.74494">
        <ele>169.33</ele>
        <time>2014-04-13T15:46:26Z</time>
      </trkpt>
      <trkpt lat="43.87855" lon="3.74484">
        <ele>170.29</ele>
        <time>2014-04-13T15:46:27Z</time>
      </trkpt>
      <trkpt lat="43.87836" lon="3.74466">
        <ele>169.81</ele>
        <time>2014-04-13T15:46:28Z</time>
      </trkpt>
      <trkpt lat="43.87819" lon="3.74444">
        <ele>169.81</ele>
        <time>2014-04-13T15:46:29Z</time>
      </trkpt>
      <trkpt lat="43.87802" lon="3.74423">
        <ele>169.81</ele>
        <time>2014-04-13T15:46:30Z</time>
      </trkpt>
      <trkpt lat="43.87788" lon="3.74399">
        <ele>170.29</ele>
        <time>2014-04-13T15:46:31Z</time>
      </trkpt>
      <trkpt lat="43.87775" lon="3.74373">
        <ele>170.77</ele>
        <time>2014-04-13T15:46:32Z</time>
      </trkpt>
      <trkpt lat="43.87764" lon="3.74347">
        <ele>170.77</ele>
        <time>2014-04-13T15:46:33Z</time>
      </trkpt>
      <trkpt lat="43.87753" lon="3.74321">
        <ele>171.25</ele>
        <time>2014-04-13T15:46:34Z</time>
      </trkpt>
      <trkpt lat="43.87712" lon="3.74254">
        <ele>172.21</ele>
        <time>2014-04-13T15:46:37Z</time>
      </trkpt>
      <trkpt lat="43.87695" lon="3.74235">
        <ele>172.69</ele>
        <time>2014-04-13T15:46:38Z</time>
      </trkpt>
      <trkpt lat="43.87676" lon="3.74219">
        <ele>173.17</ele>
        <time>2014-04-13T15:46:39Z</time>
      </trkpt>
      <trkpt lat="43.87656" lon="3.74206">
        <ele>174.14</ele>
        <time>2014-04-13T15:46:40Z</time>
      </trkpt>
      <trkpt lat="43.87635" lon="3.74195">
        <ele>174.62</ele>
        <time>2014-04-13T15:46:41Z</time>
      </trkpt>
      <trkpt lat="43.87614" lon="3.74188">
        <ele>175.58</ele>
        <time>2014-04-13T15:46:42Z</time>
      </trkpt>
      <trkpt lat="43.87593" lon="3.74183">
        <ele>176.06</ele>
        <time>2014-04-13T15:46:43Z</time>
      </trkpt>
      <trkpt lat="43.87571" lon="3.74182">
        <ele>177.02</ele>
        <time>2014-04-13T15:46:44Z</time>
      </trkpt>
      <trkpt lat="43.87549" lon="3.74183">
        <ele>177.02</ele>
        <time>2014-04-13T15:46:45Z</time>
      </trkpt>
      <trkpt lat="43.87528" lon="3.74186">
        <ele>177.5</ele>
        <time>2014-04-13T15:46:46Z</time>
      </trkpt>
      <trkpt lat="43.87506" lon="3.74192">
        <ele>177.98</ele>
        <time>2014-04-13T15:46:47Z</time>
      </trkpt>
      <trkpt lat="43.87484" lon="3.74198">
        <ele>177.98</ele>
        <time>2014-04-13T15:46:48Z</time>
      </trkpt>
      <trkpt lat="43.87266" lon="3.74243">
        <ele>182.79</ele>
        <time>2014-04-13T15:46:58Z</time>
      </trkpt>
      <trkpt lat="43.8706" lon="3.74214">
        <ele>189.52</ele>
        <time>2014-04-13T15:47:08Z</time>
      </trkpt>
      <trkpt lat="43.86856" lon="3.74115">
        <ele>197.69</ele>
        <time>2014-04-13T15:47:18Z</time>
      </trkpt>
      <trkpt lat="43.86671" lon="3.74028">
        <ele>204.9</ele>
        <time>2014-04-13T15:47:27Z</time>
      </trkpt>
      <trkpt lat="43.86542" lon="3.74068">
        <ele>208.26</ele>
        <time>2014-04-13T15:47:33Z</time>
      </trkpt>
      <trkpt lat="43.86325" lon="3.74229">
        <ele>214.03</ele>
        <time>2014-04-13T15:47:44Z</time>
      </trkpt>
      <trkpt lat="43.86162" lon="3.74317">
        <ele>224.12</ele>
        <time>2014-04-13T15:47:51Z</time>
      </trkpt>
      <trkpt lat="43.86136" lon="3.74317">
        <ele>226.53</ele>
        <time>2014-04-13T15:47:52Z</time>
      </trkpt>
      <trkpt lat="43.8611" lon="3.74314">
        <ele>228.93</ele>
        <time>2014-04-13T15:47:53Z</time>
      </trkpt>
      <trkpt lat="43.86084" lon="3.74307">
        <ele>231.81</ele>
        <time>2014-04-13T15:47:54Z</time>
      </trkpt>
      <trkpt lat="43.86058" lon="3.74296">
        <ele>234.22</ele>
        <time>2014-04-13T15:47:55Z</time>
      </trkpt>
      <trkpt lat="43.86033" lon="3.74282">
        <ele>236.62</ele>
        <time>2014-04-13T15:47:56Z</time>
      </trkpt>
      <trkpt lat="43.86009" lon="3.74265">
        <ele>239.51</ele>
        <time>2014-04-13T15:47:57Z</time>
      </trkpt>
      <trkpt lat="43.85985" lon="3.74248">
        <ele>241.91</ele>
        <time>2014-04-13T15:47:58Z</time>
      </trkpt>
      <trkpt lat="43.85863" lon="3.7418">
        <ele>254.41</ele>
        <time>2014-04-13T15:48:03Z</time>
      </trkpt>
      <trkpt lat="43.85837" lon="3.74175">
        <ele>257.29</ele>
        <time>2014-04-13T15:48:04Z</time>
      </trkpt>
      <trkpt lat="43.85811" lon="3.74173">
        <ele>259.21</ele>
        <time>2014-04-13T15:48:05Z</time>
      </trkpt>
      <trkpt lat="43.85784" lon="3.74174">
        <ele>261.62</ele>
        <time>2014-04-13T15:48:06Z</time>
      </trkpt>
      <trkpt lat="43.85756" lon="3.74176">
        <ele>264.02</ele>
        <time>2014-04-13T15:48:07Z</time>
      </trkpt>
      <trkpt lat="43.85504" lon="3.74214">
        <ele>285.65</ele>
        <time>2014-04-13T15:48:16Z</time>
      </trkpt>
      <trkpt lat="43.85316" lon="3.7418">
        <ele>301.51</ele>
        <time>2014-04-13T15:48:23Z</time>
      </trkpt>
      <trkpt lat="43.85082" lon="3.74061">
        <ele>319.78</ele>
        <time>2014-04-13T15:48:32Z</time>
      </trkpt>
      <trkpt lat="43.84878" lon="3.73983">
        <ele>324.1</ele>
        <time>2014-04-13T15:48:40Z</time>
      </trkpt>
      <trkpt lat="43.84852" lon="3.73984">
        <ele>323.62</ele>
        <time>2014-04-13T15:48:41Z</time>
      </trkpt>
      <trkpt lat="43.84826" lon="3.73988">
        <ele>322.66</ele>
        <time>2014-04-13T15:48:42Z</time>
      </trkpt>
      <trkpt lat="43.848" lon="3.73994">
        <ele>321.22</ele>
        <time>2014-04-13T15:48:43Z</time>
      </trkpt>
      <trkpt lat="43.84775" lon="3.74002">
        <ele>319.78</ele>
        <time>2014-04-13T15:48:44Z</time>
      </trkpt>
      <trkpt lat="43.8475" lon="3.74013">
        <ele>317.85</ele>
        <time>2014-04-13T15:48:45Z</time>
      </trkpt>
      <trkpt lat="43.84727" lon="3.74024">
        <ele>315.45</ele>
        <time>2014-04-13T15:48:46Z</time>
      </trkpt>
      <trkpt lat="43.84704" lon="3.74036">
        <ele>313.05</ele>
        <time>2014-04-13T15:48:47Z</time>
      </trkpt>
      <trkpt lat="43.84473" lon="3.7416">
        <ele>296.22</ele>
        <time>2014-04-13T15:48:58Z</time>
      </trkpt>
      <trkpt lat="43.84208" lon="3.74306">
        <ele>273.63</ele>
        <time>2014-04-13T15:49:11Z</time>
      </trkpt>
      <trkpt lat="43.83961" lon="3.74423">
        <ele>253.93</ele>
        <time>2014-04-13T15:49:23Z</time>
      </trkpt>
      <trkpt lat="43.83819" lon="3.74418">
        <ele>246.72</ele>
        <time>2014-04-13T15:49:30Z</time>
      </trkpt>
      <trkpt lat="43.83694" lon="3.7436">
        <ele>240.47</ele>
        <time>2014-04-13T15:49:38Z</time>
      </trkpt>
      <trkpt lat="43.83672" lon="3.74348">
        <ele>239.02</ele>
        <time>2014-04-13T15:49:41Z</time>
      </trkpt>
      <trkpt lat="43.83667" lon="3.7435">
        <ele>238.54</ele>
        <time>2014-04-13T15:49:42Z</time>
      </trkpt>
      <trkpt lat="43.83663" lon="3.74356">
        <ele>238.06</ele>
        <time>2014-04-13T15:49:43Z</time>
      </trkpt>
      <trkpt lat="43.83662" lon="3.74367">
        <ele>238.06</ele>
        <time>2014-04-13T15:49:44Z</time>
      </trkpt>
      <trkpt lat="43.8366" lon="3.7438">
        <ele>237.58</ele>
        <time>2014-04-13T15:49:45Z</time>
      </trkpt>
      <trkpt lat="43.83656" lon="3.74396">
        <ele>237.1</ele>
        <time>2014-04-13T15:49:46Z</time>
      </trkpt>
      <trkpt lat="43.83619" lon="3.74526">
        <ele>232.3</ele>
        <time>2014-04-13T15:49:52Z</time>
      </trkpt>
      <trkpt lat="43.8353" lon="3.74821">
        <ele>223.16</ele>
        <time>2014-04-13T15:50:04Z</time>
      </trkpt>
      <trkpt lat="43.83438" lon="3.7511">
        <ele>216.91</ele>
        <time>2014-04-13T15:50:14Z</time>
      </trkpt>
      <trkpt lat="43.833" lon="3.75564">
        <ele>203.46</ele>
        <time>2014-04-13T15:50:28Z</time>
      </trkpt>
      <trkpt lat="43.83208" lon="3.75812">
        <ele>195.28</ele>
        <time>2014-04-13T15:50:37Z</time>
      </trkpt>
      <trkpt lat="43.8319" lon="3.75825">
        <ele>193.84</ele>
        <time>2014-04-13T15:50:38Z</time>
      </trkpt>
      <trkpt lat="43.83167" lon="3.75834">
        <ele>194.32</ele>
        <time>2014-04-13T15:50:39Z</time>
      </trkpt>
      <trkpt lat="43.83144" lon="3.75843">
        <ele>194.32</ele>
        <time>2014-04-13T15:50:40Z</time>
      </trkpt>
      <trkpt lat="43.83121" lon="3.75853">
        <ele>194.32</ele>
        <time>2014-04-13T15:50:41Z</time>
      </trkpt>
      <trkpt lat="43.82992" lon="3.7596">
        <ele>192.4</ele>
        <time>2014-04-13T15:50:47Z</time>
      </trkpt>
      <trkpt lat="43.82881" lon="3.7609">
        <ele>190.48</ele>
        <time>2014-04-13T15:50:53Z</time>
      </trkpt>
      <trkpt lat="43.8287" lon="3.76117">
        <ele>190</ele>
        <time>2014-04-13T15:50:54Z</time>
      </trkpt>
      <trkpt lat="43.8286" lon="3.76146">
        <ele>189.52</ele>
        <time>2014-04-13T15:50:55Z</time>
      </trkpt>
      <trkpt lat="43.82837" lon="3.76231">
        <ele>187.11</ele>
        <time>2014-04-13T15:50:58Z</time>
      </trkpt>
      <trkpt lat="43.82834" lon="3.76259">
        <ele>186.63</ele>
        <time>2014-04-13T15:50:59Z</time>
      </trkpt>
      <trkpt lat="43.82834" lon="3.76285">
        <ele>185.67</ele>
        <time>2014-04-13T15:51:00Z</time>
      </trkpt>
      <trkpt lat="43.82831" lon="3.7638">
        <ele>184.71</ele>
        <time>2014-04-13T15:51:04Z</time>
      </trkpt>
      <trkpt lat="43.82828" lon="3.764">
        <ele>184.23</ele>
        <time>2014-04-13T15:51:05Z</time>
      </trkpt>
      <trkpt lat="43.82822" lon="3.76417">
        <ele>184.23</ele>
        <time>2014-04-13T15:51:06Z</time>
      </trkpt>
      <trkpt lat="43.82814" lon="3.76431">
        <ele>184.23</ele>
        <time>2014-04-13T15:51:07Z</time>
      </trkpt>
      <trkpt lat="43.82807" lon="3.76443">
        <ele>184.71</ele>
        <time>2014-04-13T15:51:08Z</time>
      </trkpt>
      <trkpt lat="43.82799" lon="3.76454">
        <ele>184.71</ele>
        <time>2014-04-13T15:51:09Z</time>
      </trkpt>
      <trkpt lat="43.82714" lon="3.766">
        <ele>187.11</ele>
        <time>2014-04-13T15:51:20Z</time>
      </trkpt>
      <trkpt lat="43.82709" lon="3.76617">
        <ele>187.59</ele>
        <time>2014-04-13T15:51:21Z</time>
      </trkpt>
      <trkpt lat="43.82685" lon="3.76723">
        <ele>190.96</ele>
        <time>2014-04-13T15:51:27Z</time>
      </trkpt>
      <trkpt lat="43.82684" lon="3.76742">
        <ele>191.44</ele>
        <time>2014-04-13T15:51:28Z</time>
      </trkpt>
      <trkpt lat="43.82685" lon="3.7676">
        <ele>192.4</ele>
        <time>2014-04-13T15:51:29Z</time>
      </trkpt>
      <trkpt lat="43.82688" lon="3.76779">
        <ele>192.4</ele>
        <time>2014-04-13T15:51:30Z</time>
      </trkpt>
      <trkpt lat="43.82692" lon="3.76797">
        <ele>192.88</ele>
        <time>2014-04-13T15:51:31Z</time>
      </trkpt>
      <trkpt lat="43.82695" lon="3.76816">
        <ele>192.88</ele>
        <time>2014-04-13T15:51:32Z</time>
      </trkpt>
      <trkpt lat="43.82719" lon="3.76976">
        <ele>196.25</ele>
        <time>2014-04-13T15:51:40Z</time>
      </trkpt>
      <trkpt lat="43.82719" lon="3.76997">
        <ele>196.73</ele>
        <time>2014-04-13T15:51:41Z</time>
      </trkpt>
      <trkpt lat="43.82702" lon="3.77184">
        <ele>192.88</ele>
        <time>2014-04-13T15:51:51Z</time>
      </trkpt>
      <trkpt lat="43.82655" lon="3.77337">
        <ele>191.44</ele>
        <time>2014-04-13T15:52:00Z</time>
      </trkpt>
      <trkpt lat="43.82631" lon="3.7749">
        <ele>190</ele>
        <time>2014-04-13T15:52:11Z</time>
      </trkpt>
      <trkpt lat="43.82629" lon="3.77519">
        <ele>190.96</ele>
        <time>2014-04-13T15:52:17Z</time>
      </trkpt>
      <trkpt lat="43.82624" lon="3.77549">
        <ele>191.44</ele>
        <time>2014-04-13T15:52:41Z</time>
      </trkpt>
      <trkpt lat="43.82621" lon="3.77646">
        <ele>192.4</ele>
        <time>2014-04-13T15:52:49Z</time>
      </trkpt>
      <trkpt lat="43.82622" lon="3.77658">
        <ele>192.88</ele>
        <time>2014-04-13T15:52:50Z</time>
      </trkpt>
      <trkpt lat="43.82632" lon="3.77742">
        <ele>195.28</ele>
        <time>2014-04-13T15:52:59Z</time>
      </trkpt>
      <trkpt lat="43.82623" lon="3.77749">
        <ele>196.73</ele>
        <time>2014-04-13T15:53:00Z</time>
      </trkpt>
      <trkpt lat="43.82544" lon="3.77799">
        <ele>192.4</ele>
        <time>2014-04-13T15:53:10Z</time>
      </trkpt>
      <trkpt lat="43.82439" lon="3.77828">
        <ele>183.27</ele>
        <time>2014-04-13T15:53:21Z</time>
      </trkpt>
      <trkpt lat="43.82306" lon="3.77869">
        <ele>181.83</ele>
        <time>2014-04-13T15:53:29Z</time>
      </trkpt>
      <trkpt lat="43.82064" lon="3.77944">
        <ele>184.71</ele>
        <time>2014-04-13T15:53:41Z</time>
      </trkpt>
      <trkpt lat="43.81754" lon="3.78041">
        <ele>185.67</ele>
        <time>2014-04-13T15:53:55Z</time>
      </trkpt>
      <trkpt lat="43.81661" lon="3.78067">
        <ele>190.96</ele>
        <time>2014-04-13T15:54:00Z</time>
      </trkpt>
      <trkpt lat="43.81648" lon="3.78065">
        <ele>191.44</ele>
        <time>2014-04-13T15:54:01Z</time>
      </trkpt>
      <trkpt lat="43.81637" lon="3.78056">
        <ele>192.4</ele>
        <time>2014-04-13T15:54:02Z</time>
      </trkpt>
      <trkpt lat="43.81628" lon="3.78042">
        <ele>193.36</ele>
        <time>2014-04-13T15:54:03Z</time>
      </trkpt>
      <trkpt lat="43.81619" lon="3.78027">
        <ele>193.84</ele>
        <time>2014-04-13T15:54:04Z</time>
      </trkpt>
      <trkpt lat="43.81609" lon="3.78012">
        <ele>194.32</ele>
        <time>2014-04-13T15:54:05Z</time>
      </trkpt>
      <trkpt lat="43.81596" lon="3.77999">
        <ele>195.77</ele>
        <time>2014-04-13T15:54:06Z</time>
      </trkpt>
      <trkpt lat="43.81581" lon="3.77994">
        <ele>196.25</ele>
        <time>2014-04-13T15:54:07Z</time>
      </trkpt>
      <trkpt lat="43.81565" lon="3.77994">
        <ele>197.21</ele>
        <time>2014-04-13T15:54:08Z</time>
      </trkpt>
      <trkpt lat="43.81517" lon="3.77994">
        <ele>199.13</ele>
        <time>2014-04-13T15:54:11Z</time>
      </trkpt>
      <trkpt lat="43.81504" lon="3.78001">
        <ele>200.09</ele>
        <time>2014-04-13T15:54:12Z</time>
      </trkpt>
      <trkpt lat="43.81491" lon="3.78011">
        <ele>201.05</ele>
        <time>2014-04-13T15:54:13Z</time>
      </trkpt>
      <trkpt lat="43.81479" lon="3.7802">
        <ele>202.01</ele>
        <time>2014-04-13T15:54:14Z</time>
      </trkpt>
      <trkpt lat="43.81466" lon="3.78028">
        <ele>202.49</ele>
        <time>2014-04-13T15:54:15Z</time>
      </trkpt>
      <trkpt lat="43.81453" lon="3.78035">
        <ele>202.49</ele>
        <time>2014-04-13T15:54:16Z</time>
      </trkpt>
      <trkpt lat="43.81421" lon="3.78073">
        <ele>203.46</ele>
        <time>2014-04-13T15:54:19Z</time>
      </trkpt>
      <trkpt lat="43.81418" lon="3.78091">
        <ele>203.94</ele>
        <time>2014-04-13T15:54:20Z</time>
      </trkpt>
      <trkpt lat="43.81419" lon="3.78112">
        <ele>204.42</ele>
        <time>2014-04-13T15:54:21Z</time>
      </trkpt>
      <trkpt lat="43.8142" lon="3.78135">
        <ele>204.9</ele>
        <time>2014-04-13T15:54:22Z</time>
      </trkpt>
      <trkpt lat="43.81424" lon="3.78158">
        <ele>205.38</ele>
        <time>2014-04-13T15:54:23Z</time>
      </trkpt>
      <trkpt lat="43.81428" lon="3.78182">
        <ele>206.34</ele>
        <time>2014-04-13T15:54:24Z</time>
      </trkpt>
      <trkpt lat="43.81457" lon="3.78366">
        <ele>214.03</ele>
        <time>2014-04-13T15:54:33Z</time>
      </trkpt>
      <trkpt lat="43.81452" lon="3.78374">
        <ele>214.99</ele>
        <time>2014-04-13T15:54:34Z</time>
      </trkpt>
      <trkpt lat="43.81446" lon="3.78382">
        <ele>214.99</ele>
        <time>2014-04-13T15:54:35Z</time>
      </trkpt>
      <trkpt lat="43.81435" lon="3.78387">
        <ele>214.99</ele>
        <time>2014-04-13T15:54:36Z</time>
      </trkpt>
      <trkpt lat="43.81423" lon="3.7839">
        <ele>215.47</ele>
        <time>2014-04-13T15:54:37Z</time>
      </trkpt>
      <trkpt lat="43.81409" lon="3.78393">
        <ele>215.95</ele>
        <time>2014-04-13T15:54:38Z</time>
      </trkpt>
      <trkpt lat="43.8136" lon="3.78414">
        <ele>215.95</ele>
        <time>2014-04-13T15:54:42Z</time>
      </trkpt>
      <trkpt lat="43.81354" lon="3.78425">
        <ele>215.47</ele>
        <time>2014-04-13T15:54:43Z</time>
      </trkpt>
      <trkpt lat="43.81346" lon="3.78437">
        <ele>214.03</ele>
        <time>2014-04-13T15:54:44Z</time>
      </trkpt>
      <trkpt lat="43.81337" lon="3.78446">
        <ele>213.55</ele>
        <time>2014-04-13T15:54:45Z</time>
      </trkpt>
      <trkpt lat="43.81327" lon="3.78455">
        <ele>212.59</ele>
        <time>2014-04-13T15:54:46Z</time>
      </trkpt>
      <trkpt lat="43.81315" lon="3.78463">
        <ele>211.63</ele>
        <time>2014-04-13T15:54:47Z</time>
      </trkpt>
      <trkpt lat="43.81305" lon="3.78475">
        <ele>210.67</ele>
        <time>2014-04-13T15:54:48Z</time>
      </trkpt>
      <trkpt lat="43.81296" lon="3.78491">
        <ele>210.19</ele>
        <time>2014-04-13T15:54:49Z</time>
      </trkpt>
      <trkpt lat="43.81287" lon="3.78509">
        <ele>209.22</ele>
        <time>2014-04-13T15:54:50Z</time>
      </trkpt>
      <trkpt lat="43.81278" lon="3.78527">
        <ele>208.26</ele>
        <time>2014-04-13T15:54:51Z</time>
      </trkpt>
      <trkpt lat="43.81222" lon="3.78623">
        <ele>202.98</ele>
        <time>2014-04-13T15:54:57Z</time>
      </trkpt>
      <trkpt lat="43.81211" lon="3.7863">
        <ele>201.53</ele>
        <time>2014-04-13T15:54:58Z</time>
      </trkpt>
      <trkpt lat="43.81199" lon="3.78634">
        <ele>199.61</ele>
        <time>2014-04-13T15:54:59Z</time>
      </trkpt>
      <trkpt lat="43.81184" lon="3.78635">
        <ele>198.17</ele>
        <time>2014-04-13T15:55:00Z</time>
      </trkpt>
      <trkpt lat="43.8117" lon="3.78631">
        <ele>196.73</ele>
        <time>2014-04-13T15:55:01Z</time>
      </trkpt>
      <trkpt lat="43.81155" lon="3.7862">
        <ele>195.28</ele>
        <time>2014-04-13T15:55:02Z</time>
      </trkpt>
      <trkpt lat="43.81142" lon="3.78607">
        <ele>194.32</ele>
        <time>2014-04-13T15:55:03Z</time>
      </trkpt>
      <trkpt lat="43.8113" lon="3.7859">
        <ele>193.36</ele>
        <time>2014-04-13T15:55:04Z</time>
      </trkpt>
      <trkpt lat="43.8112" lon="3.78573">
        <ele>192.88</ele>
        <time>2014-04-13T15:55:05Z</time>
      </trkpt>
      <trkpt lat="43.81113" lon="3.78555">
        <ele>191.44</ele>
        <time>2014-04-13T15:55:06Z</time>
      </trkpt>
      <trkpt lat="43.81106" lon="3.78537">
        <ele>190.96</ele>
        <time>2014-04-13T15:55:07Z</time>
      </trkpt>
      <trkpt lat="43.81087" lon="3.78507">
        <ele>189.04</ele>
        <time>2014-04-13T15:55:09Z</time>
      </trkpt>
      <trkpt lat="43.81074" lon="3.78499">
        <ele>188.08</ele>
        <time>2014-04-13T15:55:10Z</time>
      </trkpt>
      <trkpt lat="43.81062" lon="3.78497">
        <ele>187.59</ele>
        <time>2014-04-13T15:55:11Z</time>
      </trkpt>
      <trkpt lat="43.81051" lon="3.78542">
        <ele>184.71</ele>
        <time>2014-04-13T15:55:15Z</time>
      </trkpt>
      <trkpt lat="43.81059" lon="3.78558">
        <ele>184.71</ele>
        <time>2014-04-13T15:55:16Z</time>
      </trkpt>
      <trkpt lat="43.81068" lon="3.78576">
        <ele>184.71</ele>
        <time>2014-04-13T15:55:17Z</time>
      </trkpt>
      <trkpt lat="43.81077" lon="3.78593">
        <ele>184.23</ele>
        <time>2014-04-13T15:55:18Z</time>
      </trkpt>
      <trkpt lat="43.81087" lon="3.78607">
        <ele>183.75</ele>
        <time>2014-04-13T15:55:19Z</time>
      </trkpt>
      <trkpt lat="43.81098" lon="3.7862">
        <ele>183.75</ele>
        <time>2014-04-13T15:55:20Z</time>
      </trkpt>
      <trkpt lat="43.81108" lon="3.78632">
        <ele>182.79</ele>
        <time>2014-04-13T15:55:21Z</time>
      </trkpt>
      <trkpt lat="43.81139" lon="3.78667">
        <ele>181.35</ele>
        <time>2014-04-13T15:55:25Z</time>
      </trkpt>
      <trkpt lat="43.81139" lon="3.78672">
        <ele>180.87</ele>
        <time>2014-04-13T15:55:26Z</time>
      </trkpt>
      <trkpt lat="43.81135" lon="3.78675">
        <ele>180.38</ele>
        <time>2014-04-13T15:55:27Z</time>
      </trkpt>
      <trkpt lat="43.81122" lon="3.78678">
        <ele>178.46</ele>
        <time>2014-04-13T15:55:29Z</time>
      </trkpt>
      <trkpt lat="43.81115" lon="3.78673">
        <ele>177.5</ele>
        <time>2014-04-13T15:55:30Z</time>
      </trkpt>
      <trkpt lat="43.81104" lon="3.78664">
        <ele>177.02</ele>
        <time>2014-04-13T15:55:31Z</time>
      </trkpt>
      <trkpt lat="43.8109" lon="3.78647">
        <ele>178.46</ele>
        <time>2014-04-13T15:55:32Z</time>
      </trkpt>
      <trkpt lat="43.81076" lon="3.78631">
        <ele>178.46</ele>
        <time>2014-04-13T15:55:33Z</time>
      </trkpt>
      <trkpt lat="43.81063" lon="3.78616">
        <ele>177.98</ele>
        <time>2014-04-13T15:55:34Z</time>
      </trkpt>
      <trkpt lat="43.8098" lon="3.7853">
        <ele>175.58</ele>
        <time>2014-04-13T15:55:41Z</time>
      </trkpt>
      <trkpt lat="43.80968" lon="3.78527">
        <ele>174.62</ele>
        <time>2014-04-13T15:55:42Z</time>
      </trkpt>
      <trkpt lat="43.80956" lon="3.7853">
        <ele>174.62</ele>
        <time>2014-04-13T15:55:43Z</time>
      </trkpt>
      <trkpt lat="43.80943" lon="3.78536">
        <ele>174.62</ele>
        <time>2014-04-13T15:55:44Z</time>
      </trkpt>
      <trkpt lat="43.80931" lon="3.78547">
        <ele>174.62</ele>
        <time>2014-04-13T15:55:45Z</time>
      </trkpt>
      <trkpt lat="43.80919" lon="3.78558">
        <ele>174.62</ele>
        <time>2014-04-13T15:55:46Z</time>
      </trkpt>
      <trkpt lat="43.80906" lon="3.78573">
        <ele>174.62</ele>
        <time>2014-04-13T15:55:47Z</time>
      </trkpt>
      <trkpt lat="43.80892" lon="3.78589">
        <ele>174.14</ele>
        <time>2014-04-13T15:55:48Z</time>
      </trkpt>
      <trkpt lat="43.80757" lon="3.7873">
        <ele>172.69</ele>
        <time>2014-04-13T15:55:57Z</time>
      </trkpt>
      <trkpt lat="43.80562" lon="3.78929">
        <ele>174.62</ele>
        <time>2014-04-13T15:56:08Z</time>
      </trkpt>
      <trkpt lat="43.80467" lon="3.79055">
        <ele>174.62</ele>
        <time>2014-04-13T15:56:14Z</time>
      </trkpt>
      <trkpt lat="43.8045" lon="3.79074">
        <ele>174.62</ele>
        <time>2014-04-13T15:56:15Z</time>
      </trkpt>
      <trkpt lat="43.80432" lon="3.7909">
        <ele>174.62</ele>
        <time>2014-04-13T15:56:16Z</time>
      </trkpt>
      <trkpt lat="43.80258" lon="3.79211">
        <ele>177.02</ele>
        <time>2014-04-13T15:56:25Z</time>
      </trkpt>
      <trkpt lat="43.8023" lon="3.79253">
        <ele>177.98</ele>
        <time>2014-04-13T15:56:27Z</time>
      </trkpt>
      <trkpt lat="43.80218" lon="3.79278">
        <ele>178.46</ele>
        <time>2014-04-13T15:56:28Z</time>
      </trkpt>
      <trkpt lat="43.80207" lon="3.79306">
        <ele>178.94</ele>
        <time>2014-04-13T15:56:29Z</time>
      </trkpt>
      <trkpt lat="43.80158" lon="3.79406">
        <ele>178.94</ele>
        <time>2014-04-13T15:56:33Z</time>
      </trkpt>
      <trkpt lat="43.80144" lon="3.79426">
        <ele>178.94</ele>
        <time>2014-04-13T15:56:34Z</time>
      </trkpt>
      <trkpt lat="43.80127" lon="3.79444">
        <ele>178.94</ele>
        <time>2014-04-13T15:56:35Z</time>
      </trkpt>
      <trkpt lat="43.79971" lon="3.79559">
        <ele>180.38</ele>
        <time>2014-04-13T15:56:43Z</time>
      </trkpt>
      <trkpt lat="43.79625" lon="3.79772">
        <ele>183.75</ele>
        <time>2014-04-13T15:57:00Z</time>
      </trkpt>
      <trkpt lat="43.79459" lon="3.7995">
        <ele>187.11</ele>
        <time>2014-04-13T15:57:10Z</time>
      </trkpt>
      <trkpt lat="43.79449" lon="3.7997">
        <ele>187.11</ele>
        <time>2014-04-13T15:57:11Z</time>
      </trkpt>
      <trkpt lat="43.7944" lon="3.79989">
        <ele>187.11</ele>
        <time>2014-04-13T15:57:12Z</time>
      </trkpt>
      <trkpt lat="43.79386" lon="3.80074">
        <ele>187.59</ele>
        <time>2014-04-13T15:57:18Z</time>
      </trkpt>
      <trkpt lat="43.79379" lon="3.80079">
        <ele>188.08</ele>
        <time>2014-04-13T15:57:19Z</time>
      </trkpt>
      <trkpt lat="43.79374" lon="3.80081">
        <ele>188.08</ele>
        <time>2014-04-13T15:57:20Z</time>
      </trkpt>
      <trkpt lat="43.7937" lon="3.80082">
        <ele>188.56</ele>
        <time>2014-04-13T15:57:21Z</time>
      </trkpt>
      <trkpt lat="43.79369" lon="3.80083">
        <ele>188.56</ele>
        <time>2014-04-13T15:57:22Z</time>
      </trkpt>
      <trkpt lat="43.79371" lon="3.80081">
        <ele>188.56</ele>
        <time>2014-04-13T15:57:43Z</time>
      </trkpt>
      <trkpt lat="43.7937" lon="3.80082">
        <ele>188.08</ele>
        <time>2014-04-13T15:57:53Z</time>
      </trkpt>
      <trkpt lat="43.79369" lon="3.80086">
        <ele>188.56</ele>
        <time>2014-04-13T15:57:54Z</time>
      </trkpt>
      <trkpt lat="43.79368" lon="3.80094">
        <ele>188.56</ele>
        <time>2014-04-13T15:57:55Z</time>
      </trkpt>
      <trkpt lat="43.79353" lon="3.80177">
        <ele>190.96</ele>
        <time>2014-04-13T15:58:01Z</time>
      </trkpt>
      <trkpt lat="43.79347" lon="3.80196">
        <ele>191.92</ele>
        <time>2014-04-13T15:58:02Z</time>
      </trkpt>
      <trkpt lat="43.79339" lon="3.80215">
        <ele>192.88</ele>
        <time>2014-04-13T15:58:03Z</time>
      </trkpt>
      <trkpt lat="43.7933" lon="3.80233">
        <ele>193.84</ele>
        <time>2014-04-13T15:58:04Z</time>
      </trkpt>
      <trkpt lat="43.7932" lon="3.8025">
        <ele>194.8</ele>
        <time>2014-04-13T15:58:05Z</time>
      </trkpt>
      <trkpt lat="43.79308" lon="3.80266">
        <ele>195.77</ele>
        <time>2014-04-13T15:58:06Z</time>
      </trkpt>
      <trkpt lat="43.79294" lon="3.8028">
        <ele>196.73</ele>
        <time>2014-04-13T15:58:07Z</time>
      </trkpt>
      <trkpt lat="43.79279" lon="3.80293">
        <ele>197.69</ele>
        <time>2014-04-13T15:58:08Z</time>
      </trkpt>
      <trkpt lat="43.79262" lon="3.80305">
        <ele>198.65</ele>
        <time>2014-04-13T15:58:09Z</time>
      </trkpt>
      <trkpt lat="43.79245" lon="3.80317">
        <ele>199.61</ele>
        <time>2014-04-13T15:58:10Z</time>
      </trkpt>
      <trkpt lat="43.79108" lon="3.80409">
        <ele>207.3</ele>
        <time>2014-04-13T15:58:18Z</time>
      </trkpt>
      <trkpt lat="43.79094" lon="3.80427">
        <ele>208.26</ele>
        <time>2014-04-13T15:58:19Z</time>
      </trkpt>
      <trkpt lat="43.79082" lon="3.80446">
        <ele>209.22</ele>
        <time>2014-04-13T15:58:20Z</time>
      </trkpt>
      <trkpt lat="43.7901" lon="3.8055">
        <ele>214.51</ele>
        <time>2014-04-13T15:58:26Z</time>
      </trkpt>
      <trkpt lat="43.78999" lon="3.80557">
        <ele>214.99</ele>
        <time>2014-04-13T15:58:27Z</time>
      </trkpt>
      <trkpt lat="43.78987" lon="3.80557">
        <ele>214.99</ele>
        <time>2014-04-13T15:58:28Z</time>
      </trkpt>
      <trkpt lat="43.78974" lon="3.80552">
        <ele>215.47</ele>
        <time>2014-04-13T15:58:29Z</time>
      </trkpt>
      <trkpt lat="43.78961" lon="3.8054">
        <ele>215.95</ele>
        <time>2014-04-13T15:58:30Z</time>
      </trkpt>
      <trkpt lat="43.78947" lon="3.80524">
        <ele>216.43</ele>
        <time>2014-04-13T15:58:31Z</time>
      </trkpt>
      <trkpt lat="43.78934" lon="3.80506">
        <ele>217.4</ele>
        <time>2014-04-13T15:58:32Z</time>
      </trkpt>
      <trkpt lat="43.7892" lon="3.80486">
        <ele>218.36</ele>
        <time>2014-04-13T15:58:33Z</time>
      </trkpt>
      <trkpt lat="43.78905" lon="3.80467">
        <ele>218.84</ele>
        <time>2014-04-13T15:58:34Z</time>
      </trkpt>
      <trkpt lat="43.78841" lon="3.80401">
        <ele>224.12</ele>
        <time>2014-04-13T15:58:39Z</time>
      </trkpt>
      <trkpt lat="43.78832" lon="3.80398">
        <ele>224.12</ele>
        <time>2014-04-13T15:58:40Z</time>
      </trkpt>
      <trkpt lat="43.78818" lon="3.80411">
        <ele>225.57</ele>
        <time>2014-04-13T15:58:42Z</time>
      </trkpt>
      <trkpt lat="43.78816" lon="3.80419">
        <ele>225.57</ele>
        <time>2014-04-13T15:58:43Z</time>
      </trkpt>
      <trkpt lat="43.78818" lon="3.80433">
        <ele>225.57</ele>
        <time>2014-04-13T15:58:44Z</time>
      </trkpt>
      <trkpt lat="43.78825" lon="3.80447">
        <ele>226.53</ele>
        <time>2014-04-13T15:58:45Z</time>
      </trkpt>
      <trkpt lat="43.78833" lon="3.80465">
        <ele>227.49</ele>
        <time>2014-04-13T15:58:46Z</time>
      </trkpt>
      <trkpt lat="43.78842" lon="3.80484">
        <ele>228.45</ele>
        <time>2014-04-13T15:58:47Z</time>
      </trkpt>
      <trkpt lat="43.78852" lon="3.80502">
        <ele>229.89</ele>
        <time>2014-04-13T15:58:48Z</time>
      </trkpt>
      <trkpt lat="43.78862" lon="3.80518">
        <ele>230.37</ele>
        <time>2014-04-13T15:58:49Z</time>
      </trkpt>
      <trkpt lat="43.78873" lon="3.80532">
        <ele>231.33</ele>
        <time>2014-04-13T15:58:50Z</time>
      </trkpt>
      <trkpt lat="43.78884" lon="3.80544">
        <ele>231.81</ele>
        <time>2014-04-13T15:58:51Z</time>
      </trkpt>
      <trkpt lat="43.78895" lon="3.80554">
        <ele>231.81</ele>
        <time>2014-04-13T15:58:52Z</time>
      </trkpt>
      <trkpt lat="43.78922" lon="3.80579">
        <ele>233.26</ele>
        <time>2014-04-13T15:58:55Z</time>
      </trkpt>
      <trkpt lat="43.78927" lon="3.80588">
        <ele>233.74</ele>
        <time>2014-04-13T15:58:56Z</time>
      </trkpt>
      <trkpt lat="43.78929" lon="3.80596">
        <ele>233.74</ele>
        <time>2014-04-13T15:58:57Z</time>
      </trkpt>
      <trkpt lat="43.78923" lon="3.80605">
        <ele>234.22</ele>
        <time>2014-04-13T15:58:58Z</time>
      </trkpt>
      <trkpt lat="43.78899" lon="3.80599">
        <ele>235.18</ele>
        <time>2014-04-13T15:59:01Z</time>
      </trkpt>
      <trkpt lat="43.78887" lon="3.80591">
        <ele>235.18</ele>
        <time>2014-04-13T15:59:02Z</time>
      </trkpt>
      <trkpt lat="43.78873" lon="3.80584">
        <ele>236.62</ele>
        <time>2014-04-13T15:59:03Z</time>
      </trkpt>
      <trkpt lat="43.78858" lon="3.8058">
        <ele>237.58</ele>
        <time>2014-04-13T15:59:04Z</time>
      </trkpt>
      <trkpt lat="43.78844" lon="3.80581">
        <ele>239.02</ele>
        <time>2014-04-13T15:59:05Z</time>
      </trkpt>
      <trkpt lat="43.78831" lon="3.80586">
        <ele>239.99</ele>
        <time>2014-04-13T15:59:06Z</time>
      </trkpt>
      <trkpt lat="43.7882" lon="3.80591">
        <ele>239.99</ele>
        <time>2014-04-13T15:59:07Z</time>
      </trkpt>
      <trkpt lat="43.78811" lon="3.80597">
        <ele>240.95</ele>
        <time>2014-04-13T15:59:08Z</time>
      </trkpt>
      <trkpt lat="43.78805" lon="3.80607">
        <ele>241.91</ele>
        <time>2014-04-13T15:59:09Z</time>
      </trkpt>
      <trkpt lat="43.78804" lon="3.80615">
        <ele>241.91</ele>
        <time>2014-04-13T15:59:10Z</time>
      </trkpt>
      <trkpt lat="43.78812" lon="3.80634">
        <ele>241.91</ele>
        <time>2014-04-13T15:59:12Z</time>
      </trkpt>
      <trkpt lat="43.78822" lon="3.80641">
        <ele>242.39</ele>
        <time>2014-04-13T15:59:13Z</time>
      </trkpt>
      <trkpt lat="43.78836" lon="3.80647">
        <ele>242.87</ele>
        <time>2014-04-13T15:59:14Z</time>
      </trkpt>
      <trkpt lat="43.7885" lon="3.80655">
        <ele>242.39</ele>
        <time>2014-04-13T15:59:15Z</time>
      </trkpt>
      <trkpt lat="43.78862" lon="3.80664">
        <ele>241.91</ele>
        <time>2014-04-13T15:59:16Z</time>
      </trkpt>
      <trkpt lat="43.78874" lon="3.80675">
        <ele>242.39</ele>
        <time>2014-04-13T15:59:17Z</time>
      </trkpt>
      <trkpt lat="43.78883" lon="3.80689">
        <ele>242.39</ele>
        <time>2014-04-13T15:59:18Z</time>
      </trkpt>
      <trkpt lat="43.78889" lon="3.80706">
        <ele>241.91</ele>
        <time>2014-04-13T15:59:19Z</time>
      </trkpt>
      <trkpt lat="43.78895" lon="3.80725">
        <ele>240.47</ele>
        <time>2014-04-13T15:59:20Z</time>
      </trkpt>
      <trkpt lat="43.78901" lon="3.80744">
        <ele>239.99</ele>
        <time>2014-04-13T15:59:21Z</time>
      </trkpt>
      <trkpt lat="43.78909" lon="3.80762">
        <ele>239.51</ele>
        <time>2014-04-13T15:59:22Z</time>
      </trkpt>
      <trkpt lat="43.78918" lon="3.80779">
        <ele>239.02</ele>
        <time>2014-04-13T15:59:23Z</time>
      </trkpt>
      <trkpt lat="43.7893" lon="3.80794">
        <ele>238.54</ele>
        <time>2014-04-13T15:59:24Z</time>
      </trkpt>
      <trkpt lat="43.78943" lon="3.80807">
        <ele>237.58</ele>
        <time>2014-04-13T15:59:25Z</time>
      </trkpt>
      <trkpt lat="43.78958" lon="3.8082">
        <ele>236.62</ele>
        <time>2014-04-13T15:59:26Z</time>
      </trkpt>
      <trkpt lat="43.79012" lon="3.80877">
        <ele>234.22</ele>
        <time>2014-04-13T15:59:30Z</time>
      </trkpt>
      <trkpt lat="43.79022" lon="3.80895">
        <ele>233.26</ele>
        <time>2014-04-13T15:59:31Z</time>
      </trkpt>
      <trkpt lat="43.79031" lon="3.80914">
        <ele>232.3</ele>
        <time>2014-04-13T15:59:32Z</time>
      </trkpt>
      <trkpt lat="43.7904" lon="3.80936">
        <ele>231.33</ele>
        <time>2014-04-13T15:59:33Z</time>
      </trkpt>
      <trkpt lat="43.79047" lon="3.8096">
        <ele>230.85</ele>
        <time>2014-04-13T15:59:34Z</time>
      </trkpt>
      <trkpt lat="43.79052" lon="3.80985">
        <ele>229.89</ele>
        <time>2014-04-13T15:59:35Z</time>
      </trkpt>
      <trkpt lat="43.79056" lon="3.81011">
        <ele>229.41</ele>
        <time>2014-04-13T15:59:36Z</time>
      </trkpt>
      <trkpt lat="43.79101" lon="3.81296">
        <ele>220.28</ele>
        <time>2014-04-13T15:59:46Z</time>
      </trkpt>
      <trkpt lat="43.79109" lon="3.81565">
        <ele>213.55</ele>
        <time>2014-04-13T15:59:55Z</time>
      </trkpt>
      <trkpt lat="43.79103" lon="3.81865">
        <ele>207.3</ele>
        <time>2014-04-13T16:00:05Z</time>
      </trkpt>
      <trkpt lat="43.79085" lon="3.822">
        <ele>198.17</ele>
        <time>2014-04-13T16:00:16Z</time>
      </trkpt>
      <trkpt lat="43.79033" lon="3.82442">
        <ele>189.52</ele>
        <time>2014-04-13T16:00:24Z</time>
      </trkpt>
      <trkpt lat="43.78955" lon="3.82761">
        <ele>177.98</ele>
        <time>2014-04-13T16:00:35Z</time>
      </trkpt>
      <trkpt lat="43.78861" lon="3.83016">
        <ele>169.81</ele>
        <time>2014-04-13T16:00:45Z</time>
      </trkpt>
      <trkpt lat="43.78819" lon="3.83245">
        <ele>163.56</ele>
        <time>2014-04-13T16:00:53Z</time>
      </trkpt>
      <trkpt lat="43.78799" lon="3.8345">
        <ele>158.75</ele>
        <time>2014-04-13T16:01:00Z</time>
      </trkpt>
      <trkpt lat="43.78785" lon="3.83534">
        <ele>156.83</ele>
        <time>2014-04-13T16:01:03Z</time>
      </trkpt>
      <trkpt lat="43.78785" lon="3.83562">
        <ele>155.87</ele>
        <time>2014-04-13T16:01:04Z</time>
      </trkpt>
      <trkpt lat="43.78787" lon="3.83591">
        <ele>154.91</ele>
        <time>2014-04-13T16:01:05Z</time>
      </trkpt>
      <trkpt lat="43.78792" lon="3.83619">
        <ele>153.95</ele>
        <time>2014-04-13T16:01:06Z</time>
      </trkpt>
      <trkpt lat="43.78797" lon="3.83647">
        <ele>153.47</ele>
        <time>2014-04-13T16:01:07Z</time>
      </trkpt>
      <trkpt lat="43.7888" lon="3.84109">
        <ele>138.57</ele>
        <time>2014-04-13T16:01:24Z</time>
      </trkpt>
      <trkpt lat="43.78941" lon="3.84425">
        <ele>131.36</ele>
        <time>2014-04-13T16:01:35Z</time>
      </trkpt>
      <trkpt lat="43.79064" lon="3.84889">
        <ele>125.59</ele>
        <time>2014-04-13T16:01:52Z</time>
      </trkpt>
      <trkpt lat="43.79099" lon="3.85043">
        <ele>125.59</ele>
        <time>2014-04-13T16:01:59Z</time>
      </trkpt>
      <trkpt lat="43.79101" lon="3.85066">
        <ele>125.59</ele>
        <time>2014-04-13T16:02:00Z</time>
      </trkpt>
      <trkpt lat="43.791" lon="3.85091">
        <ele>125.59</ele>
        <time>2014-04-13T16:02:01Z</time>
      </trkpt>
      <trkpt lat="43.7907" lon="3.85444">
        <ele>124.15</ele>
        <time>2014-04-13T16:02:14Z</time>
      </trkpt>
      <trkpt lat="43.79033" lon="3.85601">
        <ele>123.67</ele>
        <time>2014-04-13T16:02:20Z</time>
      </trkpt>
      <trkpt lat="43.7902" lon="3.85623">
        <ele>123.67</ele>
        <time>2014-04-13T16:02:21Z</time>
      </trkpt>
      <trkpt lat="43.79005" lon="3.85641">
        <ele>123.67</ele>
        <time>2014-04-13T16:02:22Z</time>
      </trkpt>
      <trkpt lat="43.78987" lon="3.85657">
        <ele>122.71</ele>
        <time>2014-04-13T16:02:23Z</time>
      </trkpt>
      <trkpt lat="43.7897" lon="3.85671">
        <ele>122.22</ele>
        <time>2014-04-13T16:02:24Z</time>
      </trkpt>
      <trkpt lat="43.7895" lon="3.85679">
        <ele>121.74</ele>
        <time>2014-04-13T16:02:25Z</time>
      </trkpt>
      <trkpt lat="43.78929" lon="3.85686">
        <ele>121.26</ele>
        <time>2014-04-13T16:02:26Z</time>
      </trkpt>
      <trkpt lat="43.78908" lon="3.85693">
        <ele>120.78</ele>
        <time>2014-04-13T16:02:27Z</time>
      </trkpt>
      <trkpt lat="43.78887" lon="3.85698">
        <ele>120.3</ele>
        <time>2014-04-13T16:02:28Z</time>
      </trkpt>
      <trkpt lat="43.78628" lon="3.85758">
        <ele>118.86</ele>
        <time>2014-04-13T16:02:40Z</time>
      </trkpt>
      <trkpt lat="43.78372" lon="3.85809">
        <ele>117.42</ele>
        <time>2014-04-13T16:02:52Z</time>
      </trkpt>
      <trkpt lat="43.78351" lon="3.85805">
        <ele>116.94</ele>
        <time>2014-04-13T16:02:53Z</time>
      </trkpt>
      <trkpt lat="43.78127" lon="3.85756">
        <ele>112.61</ele>
        <time>2014-04-13T16:03:04Z</time>
      </trkpt>
      <trkpt lat="43.77978" lon="3.85686">
        <ele>110.69</ele>
        <time>2014-04-13T16:03:12Z</time>
      </trkpt>
      <trkpt lat="43.77945" lon="3.85672">
        <ele>110.69</ele>
        <time>2014-04-13T16:03:14Z</time>
      </trkpt>
      <trkpt lat="43.77929" lon="3.8567">
        <ele>110.69</ele>
        <time>2014-04-13T16:03:15Z</time>
      </trkpt>
      <trkpt lat="43.77912" lon="3.85673">
        <ele>110.21</ele>
        <time>2014-04-13T16:03:16Z</time>
      </trkpt>
      <trkpt lat="43.77897" lon="3.85683">
        <ele>109.73</ele>
        <time>2014-04-13T16:03:17Z</time>
      </trkpt>
      <trkpt lat="43.77883" lon="3.85699">
        <ele>109.73</ele>
        <time>2014-04-13T16:03:18Z</time>
      </trkpt>
      <trkpt lat="43.77867" lon="3.85716">
        <ele>109.73</ele>
        <time>2014-04-13T16:03:19Z</time>
      </trkpt>
      <trkpt lat="43.7785" lon="3.85735">
        <ele>109.73</ele>
        <time>2014-04-13T16:03:20Z</time>
      </trkpt>
      <trkpt lat="43.77834" lon="3.85754">
        <ele>109.73</ele>
        <time>2014-04-13T16:03:21Z</time>
      </trkpt>
      <trkpt lat="43.77817" lon="3.85772">
        <ele>110.69</ele>
        <time>2014-04-13T16:03:22Z</time>
      </trkpt>
      <trkpt lat="43.77774" lon="3.85822">
        <ele>111.17</ele>
        <time>2014-04-13T16:03:25Z</time>
      </trkpt>
      <trkpt lat="43.77762" lon="3.85843">
        <ele>112.13</ele>
        <time>2014-04-13T16:03:26Z</time>
      </trkpt>
      <trkpt lat="43.77752" lon="3.85865">
        <ele>112.61</ele>
        <time>2014-04-13T16:03:27Z</time>
      </trkpt>
      <trkpt lat="43.77745" lon="3.85888">
        <ele>112.61</ele>
        <time>2014-04-13T16:03:28Z</time>
      </trkpt>
      <trkpt lat="43.77738" lon="3.85915">
        <ele>112.61</ele>
        <time>2014-04-13T16:03:29Z</time>
      </trkpt>
      <trkpt lat="43.7773" lon="3.85942">
        <ele>111.65</ele>
        <time>2014-04-13T16:03:30Z</time>
      </trkpt>
      <trkpt lat="43.77594" lon="3.864">
        <ele>103.48</ele>
        <time>2014-04-13T16:03:47Z</time>
      </trkpt>
      <trkpt lat="43.77481" lon="3.86771">
        <ele>107.81</ele>
        <time>2014-04-13T16:04:01Z</time>
      </trkpt>
      <trkpt lat="43.77443" lon="3.86907">
        <ele>108.77</ele>
        <time>2014-04-13T16:04:08Z</time>
      </trkpt>
      <trkpt lat="43.7744" lon="3.8692">
        <ele>108.77</ele>
        <time>2014-04-13T16:04:09Z</time>
      </trkpt>
      <trkpt lat="43.77437" lon="3.86928">
        <ele>108.77</ele>
        <time>2014-04-13T16:04:10Z</time>
      </trkpt>
      <trkpt lat="43.77432" lon="3.86931">
        <ele>109.25</ele>
        <time>2014-04-13T16:04:11Z</time>
      </trkpt>
      <trkpt lat="43.77431" lon="3.86932">
        <ele>109.25</ele>
        <time>2014-04-13T16:04:12Z</time>
      </trkpt>
      <trkpt lat="43.77428" lon="3.86932">
        <ele>109.73</ele>
        <time>2014-04-13T16:04:20Z</time>
      </trkpt>
      <trkpt lat="43.77394" lon="3.86947">
        <ele>109.25</ele>
        <time>2014-04-13T16:04:24Z</time>
      </trkpt>
      <trkpt lat="43.77383" lon="3.86949">
        <ele>109.25</ele>
        <time>2014-04-13T16:04:25Z</time>
      </trkpt>
      <trkpt lat="43.7737" lon="3.86948">
        <ele>108.77</ele>
        <time>2014-04-13T16:04:26Z</time>
      </trkpt>
      <trkpt lat="43.7724" lon="3.86907">
        <ele>102.52</ele>
        <time>2014-04-13T16:04:37Z</time>
      </trkpt>
      <trkpt lat="43.77134" lon="3.86869">
        <ele>99.63</ele>
        <time>2014-04-13T16:04:48Z</time>
      </trkpt>
      <trkpt lat="43.7705" lon="3.86839">
        <ele>97.71</ele>
        <time>2014-04-13T16:04:58Z</time>
      </trkpt>
      <trkpt lat="43.7702" lon="3.8683">
        <ele>95.79</ele>
        <time>2014-04-13T16:05:08Z</time>
      </trkpt>
      <trkpt lat="43.76985" lon="3.86818">
        <ele>94.35</ele>
        <time>2014-04-13T16:05:14Z</time>
      </trkpt>
      <trkpt lat="43.7689" lon="3.8678">
        <ele>93.87</ele>
        <time>2014-04-13T16:05:24Z</time>
      </trkpt>
      <trkpt lat="43.7685" lon="3.86766">
        <ele>94.83</ele>
        <time>2014-04-13T16:05:31Z</time>
      </trkpt>
      <trkpt lat="43.76798" lon="3.86749">
        <ele>97.71</ele>
        <time>2014-04-13T16:05:40Z</time>
      </trkpt>
      <trkpt lat="43.76721" lon="3.8672">
        <ele>98.67</ele>
        <time>2014-04-13T16:05:50Z</time>
      </trkpt>
      <trkpt lat="43.76644" lon="3.86677">
        <ele>97.23</ele>
        <time>2014-04-13T16:05:59Z</time>
      </trkpt>
      <trkpt lat="43.76592" lon="3.86635">
        <ele>95.31</ele>
        <time>2014-04-13T16:06:07Z</time>
      </trkpt>
      <trkpt lat="43.76585" lon="3.86631">
        <ele>95.31</ele>
        <time>2014-04-13T16:06:08Z</time>
      </trkpt>
      <trkpt lat="43.76568" lon="3.86624">
        <ele>94.83</ele>
        <time>2014-04-13T16:06:10Z</time>
      </trkpt>
      <trkpt lat="43.76558" lon="3.86618">
        <ele>94.83</ele>
        <time>2014-04-13T16:06:11Z</time>
      </trkpt>
      <trkpt lat="43.76435" lon="3.86536">
        <ele>92.42</ele>
        <time>2014-04-13T16:06:23Z</time>
      </trkpt>
      <trkpt lat="43.76284" lon="3.86436">
        <ele>90.02</ele>
        <time>2014-04-13T16:06:37Z</time>
      </trkpt>
      <trkpt lat="43.76161" lon="3.86352">
        <ele>89.06</ele>
        <time>2014-04-13T16:06:49Z</time>
      </trkpt>
      <trkpt lat="43.76155" lon="3.86343">
        <ele>89.06</ele>
        <time>2014-04-13T16:06:50Z</time>
      </trkpt>
      <trkpt lat="43.7615" lon="3.86332">
        <ele>89.06</ele>
        <time>2014-04-13T16:06:51Z</time>
      </trkpt>
      <trkpt lat="43.76145" lon="3.86322">
        <ele>89.54</ele>
        <time>2014-04-13T16:06:52Z</time>
      </trkpt>
      <trkpt lat="43.76138" lon="3.86313">
        <ele>89.54</ele>
        <time>2014-04-13T16:06:53Z</time>
      </trkpt>
      <trkpt lat="43.7613" lon="3.86311">
        <ele>89.54</ele>
        <time>2014-04-13T16:06:54Z</time>
      </trkpt>
      <trkpt lat="43.7612" lon="3.86312">
        <ele>89.54</ele>
        <time>2014-04-13T16:06:55Z</time>
      </trkpt>
      <trkpt lat="43.76109" lon="3.86313">
        <ele>89.06</ele>
        <time>2014-04-13T16:06:56Z</time>
      </trkpt>
      <trkpt lat="43.76097" lon="3.8631">
        <ele>89.06</ele>
        <time>2014-04-13T16:06:57Z</time>
      </trkpt>
      <trkpt lat="43.76086" lon="3.86305">
        <ele>89.06</ele>
        <time>2014-04-13T16:06:58Z</time>
      </trkpt>
      <trkpt lat="43.76074" lon="3.86297">
        <ele>88.58</ele>
        <time>2014-04-13T16:06:59Z</time>
      </trkpt>
      <trkpt lat="43.75943" lon="3.86209">
        <ele>89.06</ele>
        <time>2014-04-13T16:07:09Z</time>
      </trkpt>
      <trkpt lat="43.75783" lon="3.86099">
        <ele>87.14</ele>
        <time>2014-04-13T16:07:18Z</time>
      </trkpt>
      <trkpt lat="43.75586" lon="3.85993">
        <ele>86.18</ele>
        <time>2014-04-13T16:07:28Z</time>
      </trkpt>
      <trkpt lat="43.75292" lon="3.85937">
        <ele>84.25</ele>
        <time>2014-04-13T16:07:42Z</time>
      </trkpt>
      <trkpt lat="43.74934" lon="3.8587">
        <ele>81.37</ele>
        <time>2014-04-13T16:07:58Z</time>
      </trkpt>
      <trkpt lat="43.74789" lon="3.85878">
        <ele>80.89</ele>
        <time>2014-04-13T16:08:05Z</time>
      </trkpt>
      <trkpt lat="43.74769" lon="3.85888">
        <ele>80.89</ele>
        <time>2014-04-13T16:08:06Z</time>
      </trkpt>
      <trkpt lat="43.74751" lon="3.85901">
        <ele>80.89</ele>
        <time>2014-04-13T16:08:07Z</time>
      </trkpt>
      <trkpt lat="43.74732" lon="3.85916">
        <ele>80.41</ele>
        <time>2014-04-13T16:08:08Z</time>
      </trkpt>
      <trkpt lat="43.74714" lon="3.85933">
        <ele>80.41</ele>
        <time>2014-04-13T16:08:09Z</time>
      </trkpt>
      <trkpt lat="43.74465" lon="3.86178">
        <ele>79.45</ele>
        <time>2014-04-13T16:08:23Z</time>
      </trkpt>
      <trkpt lat="43.74145" lon="3.86484">
        <ele>82.33</ele>
        <time>2014-04-13T16:08:40Z</time>
      </trkpt>
      <trkpt lat="43.73916" lon="3.86639">
        <ele>76.56</ele>
        <time>2014-04-13T16:08:51Z</time>
      </trkpt>
      <trkpt lat="43.73718" lon="3.86733">
        <ele>75.12</ele>
        <time>2014-04-13T16:09:00Z</time>
      </trkpt>
      <trkpt lat="43.73463" lon="3.86748">
        <ele>76.08</ele>
        <time>2014-04-13T16:09:11Z</time>
      </trkpt>
      <trkpt lat="43.73341" lon="3.86764">
        <ele>75.6</ele>
        <time>2014-04-13T16:09:17Z</time>
      </trkpt>
      <trkpt lat="43.73325" lon="3.86771">
        <ele>75.6</ele>
        <time>2014-04-13T16:09:18Z</time>
      </trkpt>
      <trkpt lat="43.73213" lon="3.86841">
        <ele>75.6</ele>
        <time>2014-04-13T16:09:27Z</time>
      </trkpt>
      <trkpt lat="43.7312" lon="3.86901">
        <ele>78</ele>
        <time>2014-04-13T16:09:37Z</time>
      </trkpt>
      <trkpt lat="43.73115" lon="3.86905">
        <ele>78.48</ele>
        <time>2014-04-13T16:09:41Z</time>
      </trkpt>
      <trkpt lat="43.73092" lon="3.8692">
        <ele>79.93</ele>
        <time>2014-04-13T16:09:51Z</time>
      </trkpt>
      <trkpt lat="43.73056" lon="3.86937">
        <ele>81.85</ele>
        <time>2014-04-13T16:09:57Z</time>
      </trkpt>
      <trkpt lat="43.73049" lon="3.86937">
        <ele>82.33</ele>
        <time>2014-04-13T16:09:58Z</time>
      </trkpt>
      <trkpt lat="43.73033" lon="3.86937">
        <ele>82.81</ele>
        <time>2014-04-13T16:10:00Z</time>
      </trkpt>
      <trkpt lat="43.73027" lon="3.8694">
        <ele>82.81</ele>
        <time>2014-04-13T16:10:01Z</time>
      </trkpt>
      <trkpt lat="43.7302" lon="3.86946">
        <ele>83.29</ele>
        <time>2014-04-13T16:10:02Z</time>
      </trkpt>
      <trkpt lat="43.73012" lon="3.86953">
        <ele>83.29</ele>
        <time>2014-04-13T16:10:03Z</time>
      </trkpt>
      <trkpt lat="43.73002" lon="3.8696">
        <ele>83.29</ele>
        <time>2014-04-13T16:10:04Z</time>
      </trkpt>
      <trkpt lat="43.72991" lon="3.86964">
        <ele>83.29</ele>
        <time>2014-04-13T16:10:05Z</time>
      </trkpt>
      <trkpt lat="43.7298" lon="3.86967">
        <ele>83.77</ele>
        <time>2014-04-13T16:10:06Z</time>
      </trkpt>
      <trkpt lat="43.7297" lon="3.86969">
        <ele>83.77</ele>
        <time>2014-04-13T16:10:07Z</time>
      </trkpt>
      <trkpt lat="43.72898" lon="3.86984">
        <ele>84.25</ele>
        <time>2014-04-13T16:10:14Z</time>
      </trkpt>
      <trkpt lat="43.72861" lon="3.86986">
        <ele>83.77</ele>
        <time>2014-04-13T16:10:19Z</time>
      </trkpt>
      <trkpt lat="43.72853" lon="3.86984">
        <ele>83.29</ele>
        <time>2014-04-13T16:10:20Z</time>
      </trkpt>
      <trkpt lat="43.72836" lon="3.86979">
        <ele>83.29</ele>
        <time>2014-04-13T16:10:22Z</time>
      </trkpt>
      <trkpt lat="43.72827" lon="3.86982">
        <ele>82.81</ele>
        <time>2014-04-13T16:10:23Z</time>
      </trkpt>
      <trkpt lat="43.72818" lon="3.86988">
        <ele>82.33</ele>
        <time>2014-04-13T16:10:24Z</time>
      </trkpt>
      <trkpt lat="43.72807" lon="3.86995">
        <ele>81.85</ele>
        <time>2014-04-13T16:10:25Z</time>
      </trkpt>
      <trkpt lat="43.72792" lon="3.87001">
        <ele>81.37</ele>
        <time>2014-04-13T16:10:26Z</time>
      </trkpt>
      <trkpt lat="43.72775" lon="3.87003">
        <ele>80.41</ele>
        <time>2014-04-13T16:10:27Z</time>
      </trkpt>
      <trkpt lat="43.72755" lon="3.87005">
        <ele>79.93</ele>
        <time>2014-04-13T16:10:28Z</time>
      </trkpt>
      <trkpt lat="43.72733" lon="3.87003">
        <ele>78.97</ele>
        <time>2014-04-13T16:10:29Z</time>
      </trkpt>
      <trkpt lat="43.72711" lon="3.86998">
        <ele>77.52</ele>
        <time>2014-04-13T16:10:30Z</time>
      </trkpt>
      <trkpt lat="43.72688" lon="3.86988">
        <ele>76.56</ele>
        <time>2014-04-13T16:10:31Z</time>
      </trkpt>
      <trkpt lat="43.72663" lon="3.86974">
        <ele>76.08</ele>
        <time>2014-04-13T16:10:32Z</time>
      </trkpt>
      <trkpt lat="43.72639" lon="3.86958">
        <ele>75.6</ele>
        <time>2014-04-13T16:10:33Z</time>
      </trkpt>
      <trkpt lat="43.72615" lon="3.86942">
        <ele>75.12</ele>
        <time>2014-04-13T16:10:34Z</time>
      </trkpt>
      <trkpt lat="43.72539" lon="3.86904">
        <ele>73.68</ele>
        <time>2014-04-13T16:10:37Z</time>
      </trkpt>
      <trkpt lat="43.72511" lon="3.86898">
        <ele>73.2</ele>
        <time>2014-04-13T16:10:38Z</time>
      </trkpt>
      <trkpt lat="43.72263" lon="3.8685">
        <ele>69.35</ele>
        <time>2014-04-13T16:10:47Z</time>
      </trkpt>
      <trkpt lat="43.72195" lon="3.86854">
        <ele>71.27</ele>
        <time>2014-04-13T16:10:50Z</time>
      </trkpt>
      <trkpt lat="43.72173" lon="3.86863">
        <ele>72.24</ele>
        <time>2014-04-13T16:10:51Z</time>
      </trkpt>
      <trkpt lat="43.72152" lon="3.86873">
        <ele>72.72</ele>
        <time>2014-04-13T16:10:52Z</time>
      </trkpt>
      <trkpt lat="43.72084" lon="3.86901">
        <ele>73.2</ele>
        <time>2014-04-13T16:10:55Z</time>
      </trkpt>
      <trkpt lat="43.72059" lon="3.86902">
        <ele>72.72</ele>
        <time>2014-04-13T16:10:56Z</time>
      </trkpt>
      <trkpt lat="43.72033" lon="3.86898">
        <ele>72.24</ele>
        <time>2014-04-13T16:10:57Z</time>
      </trkpt>
      <trkpt lat="43.72005" lon="3.8689">
        <ele>71.27</ele>
        <time>2014-04-13T16:10:58Z</time>
      </trkpt>
      <trkpt lat="43.71978" lon="3.8688">
        <ele>70.79</ele>
        <time>2014-04-13T16:10:59Z</time>
      </trkpt>
      <trkpt lat="43.7195" lon="3.86868">
        <ele>70.31</ele>
        <time>2014-04-13T16:11:00Z</time>
      </trkpt>
      <trkpt lat="43.71717" lon="3.86751">
        <ele>68.39</ele>
        <time>2014-04-13T16:11:09Z</time>
      </trkpt>
      <trkpt lat="43.7153" lon="3.86672">
        <ele>65.99</ele>
        <time>2014-04-13T16:11:17Z</time>
      </trkpt>
      <trkpt lat="43.71379" lon="3.86662">
        <ele>66.47</ele>
        <time>2014-04-13T16:11:24Z</time>
      </trkpt>
      <trkpt lat="43.71134" lon="3.86716">
        <ele>65.51</ele>
        <time>2014-04-13T16:11:36Z</time>
      </trkpt>
      <trkpt lat="43.70882" lon="3.86775">
        <ele>64.07</ele>
        <time>2014-04-13T16:11:48Z</time>
      </trkpt>
      <trkpt lat="43.70698" lon="3.86785">
        <ele>61.66</ele>
        <time>2014-04-13T16:11:57Z</time>
      </trkpt>
      <trkpt lat="43.70546" lon="3.868">
        <ele>60.7</ele>
        <time>2014-04-13T16:12:05Z</time>
      </trkpt>
      <trkpt lat="43.70443" lon="3.86799">
        <ele>60.22</ele>
        <time>2014-04-13T16:12:12Z</time>
      </trkpt>
      <trkpt lat="43.70428" lon="3.86793">
        <ele>60.22</ele>
        <time>2014-04-13T16:12:13Z</time>
      </trkpt>
      <trkpt lat="43.70413" lon="3.86786">
        <ele>60.22</ele>
        <time>2014-04-13T16:12:14Z</time>
      </trkpt>
      <trkpt lat="43.70398" lon="3.86776">
        <ele>60.22</ele>
        <time>2014-04-13T16:12:15Z</time>
      </trkpt>
      <trkpt lat="43.70384" lon="3.86764">
        <ele>60.22</ele>
        <time>2014-04-13T16:12:16Z</time>
      </trkpt>
      <trkpt lat="43.70371" lon="3.86751">
        <ele>60.22</ele>
        <time>2014-04-13T16:12:17Z</time>
      </trkpt>
      <trkpt lat="43.70359" lon="3.86737">
        <ele>60.22</ele>
        <time>2014-04-13T16:12:18Z</time>
      </trkpt>
      <trkpt lat="43.70349" lon="3.86723">
        <ele>60.22</ele>
        <time>2014-04-13T16:12:19Z</time>
      </trkpt>
      <trkpt lat="43.70341" lon="3.86709">
        <ele>60.22</ele>
        <time>2014-04-13T16:12:20Z</time>
      </trkpt>
      <trkpt lat="43.70307" lon="3.86629">
        <ele>58.78</ele>
        <time>2014-04-13T16:12:27Z</time>
      </trkpt>
      <trkpt lat="43.70263" lon="3.86511">
        <ele>58.78</ele>
        <time>2014-04-13T16:12:35Z</time>
      </trkpt>
      <trkpt lat="43.7024" lon="3.86443">
        <ele>59.74</ele>
        <time>2014-04-13T16:12:42Z</time>
      </trkpt>
      <trkpt lat="43.70201" lon="3.86345">
        <ele>60.7</ele>
        <time>2014-04-13T16:12:54Z</time>
      </trkpt>
      <trkpt lat="43.70185" lon="3.8632">
        <ele>61.18</ele>
        <time>2014-04-13T16:12:58Z</time>
      </trkpt>
      <trkpt lat="43.70119" lon="3.86273">
        <ele>58.78</ele>
        <time>2014-04-13T16:13:07Z</time>
      </trkpt>
      <trkpt lat="43.7008" lon="3.86255">
        <ele>58.3</ele>
        <time>2014-04-13T16:13:15Z</time>
      </trkpt>
      <trkpt lat="43.70075" lon="3.86248">
        <ele>58.3</ele>
        <time>2014-04-13T16:13:17Z</time>
      </trkpt>
      <trkpt lat="43.70073" lon="3.86242">
        <ele>57.82</ele>
        <time>2014-04-13T16:13:18Z</time>
      </trkpt>
      <trkpt lat="43.70071" lon="3.86234">
        <ele>57.34</ele>
        <time>2014-04-13T16:13:19Z</time>
      </trkpt>
      <trkpt lat="43.7007" lon="3.86226">
        <ele>57.34</ele>
        <time>2014-04-13T16:13:20Z</time>
      </trkpt>
      <trkpt lat="43.7007" lon="3.86217">
        <ele>56.86</ele>
        <time>2014-04-13T16:13:21Z</time>
      </trkpt>
      <trkpt lat="43.70071" lon="3.86207">
        <ele>57.34</ele>
        <time>2014-04-13T16:13:22Z</time>
      </trkpt>
      <trkpt lat="43.70073" lon="3.86195">
        <ele>57.34</ele>
        <time>2014-04-13T16:13:23Z</time>
      </trkpt>
      <trkpt lat="43.70096" lon="3.86051">
        <ele>57.82</ele>
        <time>2014-04-13T16:13:33Z</time>
      </trkpt>
      <trkpt lat="43.70121" lon="3.85905">
        <ele>58.78</ele>
        <time>2014-04-13T16:13:44Z</time>
      </trkpt>
      <trkpt lat="43.70131" lon="3.8584">
        <ele>59.74</ele>
        <time>2014-04-13T16:13:52Z</time>
      </trkpt>
      <trkpt lat="43.70148" lon="3.8574">
        <ele>60.22</ele>
        <time>2014-04-13T16:14:01Z</time>
      </trkpt>
      <trkpt lat="43.7018" lon="3.85551">
        <ele>58.78</ele>
        <time>2014-04-13T16:14:14Z</time>
      </trkpt>
      <trkpt lat="43.70198" lon="3.85434">
        <ele>58.78</ele>
        <time>2014-04-13T16:14:22Z</time>
      </trkpt>
      <trkpt lat="43.70197" lon="3.85425">
        <ele>58.78</ele>
        <time>2014-04-13T16:14:23Z</time>
      </trkpt>
      <trkpt lat="43.70197" lon="3.85417">
        <ele>58.78</ele>
        <time>2014-04-13T16:14:24Z</time>
      </trkpt>
      <trkpt lat="43.70198" lon="3.8541">
        <ele>59.26</ele>
        <time>2014-04-13T16:14:25Z</time>
      </trkpt>
      <trkpt lat="43.70199" lon="3.85404">
        <ele>59.26</ele>
        <time>2014-04-13T16:14:26Z</time>
      </trkpt>
      <trkpt lat="43.70202" lon="3.85396">
        <ele>59.74</ele>
        <time>2014-04-13T16:14:27Z</time>
      </trkpt>
      <trkpt lat="43.70204" lon="3.85389">
        <ele>59.74</ele>
        <time>2014-04-13T16:14:28Z</time>
      </trkpt>
      <trkpt lat="43.70204" lon="3.85381">
        <ele>59.74</ele>
        <time>2014-04-13T16:14:29Z</time>
      </trkpt>
      <trkpt lat="43.70199" lon="3.85376">
        <ele>60.22</ele>
        <time>2014-04-13T16:14:30Z</time>
      </trkpt>
      <trkpt lat="43.70192" lon="3.85373">
        <ele>60.7</ele>
        <time>2014-04-13T16:14:31Z</time>
      </trkpt>
      <trkpt lat="43.70185" lon="3.85371">
        <ele>61.18</ele>
        <time>2014-04-13T16:14:32Z</time>
      </trkpt>
      <trkpt lat="43.70174" lon="3.8537">
        <ele>61.66</ele>
        <time>2014-04-13T16:14:33Z</time>
      </trkpt>
      <trkpt lat="43.70163" lon="3.85369">
        <ele>61.66</ele>
        <time>2014-04-13T16:14:34Z</time>
      </trkpt>
      <trkpt lat="43.7015" lon="3.85366">
        <ele>62.14</ele>
        <time>2014-04-13T16:14:35Z</time>
      </trkpt>
      <trkpt lat="43.7003" lon="3.85349">
        <ele>63.58</ele>
        <time>2014-04-13T16:14:43Z</time>
      </trkpt>
      <trkpt lat="43.70014" lon="3.85353">
        <ele>63.58</ele>
        <time>2014-04-13T16:14:44Z</time>
      </trkpt>
      <trkpt lat="43.69997" lon="3.8536">
        <ele>63.58</ele>
        <time>2014-04-13T16:14:45Z</time>
      </trkpt>
      <trkpt lat="43.6993" lon="3.85386">
        <ele>63.58</ele>
        <time>2014-04-13T16:14:49Z</time>
      </trkpt>
      <trkpt lat="43.69912" lon="3.85388">
        <ele>63.58</ele>
        <time>2014-04-13T16:14:50Z</time>
      </trkpt>
      <trkpt lat="43.69895" lon="3.85387">
        <ele>63.1</ele>
        <time>2014-04-13T16:14:51Z</time>
      </trkpt>
      <trkpt lat="43.69776" lon="3.85382">
        <ele>61.18</ele>
        <time>2014-04-13T16:14:56Z</time>
      </trkpt>
      <trkpt lat="43.69572" lon="3.85366">
        <ele>59.26</ele>
        <time>2014-04-13T16:15:03Z</time>
      </trkpt>
      <trkpt lat="43.69434" lon="3.85362">
        <ele>59.26</ele>
        <time>2014-04-13T16:15:09Z</time>
      </trkpt>
      <trkpt lat="43.69191" lon="3.85292">
        <ele>61.66</ele>
        <time>2014-04-13T16:15:20Z</time>
      </trkpt>
      <trkpt lat="43.69157" lon="3.85277">
        <ele>61.66</ele>
        <time>2014-04-13T16:15:22Z</time>
      </trkpt>
      <trkpt lat="43.6914" lon="3.85273">
        <ele>61.18</ele>
        <time>2014-04-13T16:15:23Z</time>
      </trkpt>
      <trkpt lat="43.69122" lon="3.85273">
        <ele>61.18</ele>
        <time>2014-04-13T16:15:24Z</time>
      </trkpt>
      <trkpt lat="43.69104" lon="3.85279">
        <ele>60.7</ele>
        <time>2014-04-13T16:15:25Z</time>
      </trkpt>
      <trkpt lat="43.69086" lon="3.8529">
        <ele>60.7</ele>
        <time>2014-04-13T16:15:26Z</time>
      </trkpt>
      <trkpt lat="43.69069" lon="3.85304">
        <ele>61.18</ele>
        <time>2014-04-13T16:15:27Z</time>
      </trkpt>
      <trkpt lat="43.69052" lon="3.85319">
        <ele>61.18</ele>
        <time>2014-04-13T16:15:28Z</time>
      </trkpt>
      <trkpt lat="43.68911" lon="3.85466">
        <ele>61.18</ele>
        <time>2014-04-13T16:15:36Z</time>
      </trkpt>
      <trkpt lat="43.68753" lon="3.85596">
        <ele>58.3</ele>
        <time>2014-04-13T16:15:44Z</time>
      </trkpt>
      <trkpt lat="43.68732" lon="3.85608">
        <ele>58.3</ele>
        <time>2014-04-13T16:15:45Z</time>
      </trkpt>
      <trkpt lat="43.6871" lon="3.85617">
        <ele>57.82</ele>
        <time>2014-04-13T16:15:46Z</time>
      </trkpt>
      <trkpt lat="43.68531" lon="3.8566">
        <ele>55.89</ele>
        <time>2014-04-13T16:15:54Z</time>
      </trkpt>
      <trkpt lat="43.68512" lon="3.85654">
        <ele>55.89</ele>
        <time>2014-04-13T16:15:55Z</time>
      </trkpt>
      <trkpt lat="43.6845" lon="3.85641">
        <ele>56.86</ele>
        <time>2014-04-13T16:15:58Z</time>
      </trkpt>
      <trkpt lat="43.68428" lon="3.85641">
        <ele>56.86</ele>
        <time>2014-04-13T16:15:59Z</time>
      </trkpt>
      <trkpt lat="43.68286" lon="3.85663">
        <ele>59.26</ele>
        <time>2014-04-13T16:16:07Z</time>
      </trkpt>
      <trkpt lat="43.68084" lon="3.85697">
        <ele>59.74</ele>
        <time>2014-04-13T16:16:19Z</time>
      </trkpt>
      <trkpt lat="43.67961" lon="3.85671">
        <ele>59.74</ele>
        <time>2014-04-13T16:16:25Z</time>
      </trkpt>
      <trkpt lat="43.67803" lon="3.8562">
        <ele>63.1</ele>
        <time>2014-04-13T16:16:33Z</time>
      </trkpt>
      <trkpt lat="43.67749" lon="3.85601">
        <ele>62.62</ele>
        <time>2014-04-13T16:16:39Z</time>
      </trkpt>
      <trkpt lat="43.67744" lon="3.85598">
        <ele>62.62</ele>
        <time>2014-04-13T16:16:40Z</time>
      </trkpt>
      <trkpt lat="43.67739" lon="3.85594">
        <ele>62.62</ele>
        <time>2014-04-13T16:16:41Z</time>
      </trkpt>
      <trkpt lat="43.67734" lon="3.8559">
        <ele>62.62</ele>
        <time>2014-04-13T16:16:42Z</time>
      </trkpt>
      <trkpt lat="43.67729" lon="3.85588">
        <ele>62.62</ele>
        <time>2014-04-13T16:16:43Z</time>
      </trkpt>
      <trkpt lat="43.67724" lon="3.85591">
        <ele>62.14</ele>
        <time>2014-04-13T16:16:44Z</time>
      </trkpt>
      <trkpt lat="43.67719" lon="3.85597">
        <ele>62.14</ele>
        <time>2014-04-13T16:16:45Z</time>
      </trkpt>
      <trkpt lat="43.67712" lon="3.85605">
        <ele>62.14</ele>
        <time>2014-04-13T16:16:46Z</time>
      </trkpt>
      <trkpt lat="43.67704" lon="3.85612">
        <ele>61.66</ele>
        <time>2014-04-13T16:16:47Z</time>
      </trkpt>
      <trkpt lat="43.67694" lon="3.8562">
        <ele>61.66</ele>
        <time>2014-04-13T16:16:48Z</time>
      </trkpt>
      <trkpt lat="43.67613" lon="3.85706">
        <ele>60.22</ele>
        <time>2014-04-13T16:16:54Z</time>
      </trkpt>
      <trkpt lat="43.67476" lon="3.85844">
        <ele>59.74</ele>
        <time>2014-04-13T16:17:02Z</time>
      </trkpt>
      <trkpt lat="43.67366" lon="3.85948">
        <ele>60.7</ele>
        <time>2014-04-13T16:17:11Z</time>
      </trkpt>
      <trkpt lat="43.67247" lon="3.86028">
        <ele>59.26</ele>
        <time>2014-04-13T16:17:21Z</time>
      </trkpt>
      <trkpt lat="43.67115" lon="3.86113">
        <ele>56.37</ele>
        <time>2014-04-13T16:17:32Z</time>
      </trkpt>
      <trkpt lat="43.67094" lon="3.86128">
        <ele>55.89</ele>
        <time>2014-04-13T16:17:34Z</time>
      </trkpt>
      <trkpt lat="43.67087" lon="3.86137">
        <ele>55.41</ele>
        <time>2014-04-13T16:17:35Z</time>
      </trkpt>
      <trkpt lat="43.67066" lon="3.86163">
        <ele>54.93</ele>
        <time>2014-04-13T16:17:41Z</time>
      </trkpt>
      <trkpt lat="43.67062" lon="3.86165">
        <ele>54.93</ele>
        <time>2014-04-13T16:17:42Z</time>
      </trkpt>
      <trkpt lat="43.67056" lon="3.86167">
        <ele>54.45</ele>
        <time>2014-04-13T16:17:43Z</time>
      </trkpt>
      <trkpt lat="43.67035" lon="3.86171">
        <ele>53.97</ele>
        <time>2014-04-13T16:17:46Z</time>
      </trkpt>
      <trkpt lat="43.67027" lon="3.8617">
        <ele>54.45</ele>
        <time>2014-04-13T16:17:47Z</time>
      </trkpt>
      <trkpt lat="43.67018" lon="3.86169">
        <ele>54.45</ele>
        <time>2014-04-13T16:17:48Z</time>
      </trkpt>
      <trkpt lat="43.67009" lon="3.86169">
        <ele>54.93</ele>
        <time>2014-04-13T16:17:49Z</time>
      </trkpt>
      <trkpt lat="43.67" lon="3.8617">
        <ele>54.93</ele>
        <time>2014-04-13T16:17:50Z</time>
      </trkpt>
      <trkpt lat="43.66991" lon="3.86172">
        <ele>54.93</ele>
        <time>2014-04-13T16:17:51Z</time>
      </trkpt>
      <trkpt lat="43.66982" lon="3.86175">
        <ele>54.93</ele>
        <time>2014-04-13T16:17:52Z</time>
      </trkpt>
      <trkpt lat="43.66974" lon="3.86179">
        <ele>54.93</ele>
        <time>2014-04-13T16:17:53Z</time>
      </trkpt>
      <trkpt lat="43.66966" lon="3.86185">
        <ele>54.93</ele>
        <time>2014-04-13T16:17:54Z</time>
      </trkpt>
      <trkpt lat="43.66959" lon="3.86191">
        <ele>54.93</ele>
        <time>2014-04-13T16:17:55Z</time>
      </trkpt>
      <trkpt lat="43.66952" lon="3.86197">
        <ele>54.93</ele>
        <time>2014-04-13T16:17:56Z</time>
      </trkpt>
      <trkpt lat="43.66921" lon="3.86229">
        <ele>52.05</ele>
        <time>2014-04-13T16:18:04Z</time>
      </trkpt>
      <trkpt lat="43.66869" lon="3.86286">
        <ele>50.61</ele>
        <time>2014-04-13T16:18:10Z</time>
      </trkpt>
      <trkpt lat="43.66805" lon="3.8634">
        <ele>49.65</ele>
        <time>2014-04-13T16:18:15Z</time>
      </trkpt>
      <trkpt lat="43.66792" lon="3.86344">
        <ele>49.16</ele>
        <time>2014-04-13T16:18:16Z</time>
      </trkpt>
      <trkpt lat="43.66778" lon="3.86346">
        <ele>48.68</ele>
        <time>2014-04-13T16:18:17Z</time>
      </trkpt>
      <trkpt lat="43.66685" lon="3.86345">
        <ele>44.84</ele>
        <time>2014-04-13T16:18:24Z</time>
      </trkpt>
      <trkpt lat="43.66672" lon="3.86339">
        <ele>44.36</ele>
        <time>2014-04-13T16:18:25Z</time>
      </trkpt>
      <trkpt lat="43.66574" lon="3.8632">
        <ele>41.95</ele>
        <time>2014-04-13T16:18:31Z</time>
      </trkpt>
      <trkpt lat="43.66475" lon="3.8634">
        <ele>42.92</ele>
        <time>2014-04-13T16:18:38Z</time>
      </trkpt>
      <trkpt lat="43.66403" lon="3.86359">
        <ele>41.47</ele>
        <time>2014-04-13T16:18:46Z</time>
      </trkpt>
      <trkpt lat="43.66391" lon="3.86357">
        <ele>40.99</ele>
        <time>2014-04-13T16:18:47Z</time>
      </trkpt>
      <trkpt lat="43.66378" lon="3.86349">
        <ele>40.99</ele>
        <time>2014-04-13T16:18:48Z</time>
      </trkpt>
      <trkpt lat="43.66366" lon="3.86341">
        <ele>40.51</ele>
        <time>2014-04-13T16:18:49Z</time>
      </trkpt>
      <trkpt lat="43.66353" lon="3.86333">
        <ele>40.51</ele>
        <time>2014-04-13T16:18:50Z</time>
      </trkpt>
      <trkpt lat="43.66341" lon="3.86323">
        <ele>40.51</ele>
        <time>2014-04-13T16:18:51Z</time>
      </trkpt>
      <trkpt lat="43.66314" lon="3.86306">
        <ele>40.51</ele>
        <time>2014-04-13T16:18:53Z</time>
      </trkpt>
      <trkpt lat="43.66299" lon="3.86299">
        <ele>40.51</ele>
        <time>2014-04-13T16:18:54Z</time>
      </trkpt>
      <trkpt lat="43.66284" lon="3.86295">
        <ele>40.03</ele>
        <time>2014-04-13T16:18:55Z</time>
      </trkpt>
      <trkpt lat="43.66268" lon="3.86292">
        <ele>40.03</ele>
        <time>2014-04-13T16:18:56Z</time>
      </trkpt>
      <trkpt lat="43.66253" lon="3.8629">
        <ele>39.55</ele>
        <time>2014-04-13T16:18:57Z</time>
      </trkpt>
      <trkpt lat="43.66239" lon="3.8629">
        <ele>39.07</ele>
        <time>2014-04-13T16:18:58Z</time>
      </trkpt>
      <trkpt lat="43.66182" lon="3.86295">
        <ele>39.07</ele>
        <time>2014-04-13T16:19:04Z</time>
      </trkpt>
      <trkpt lat="43.66102" lon="3.86311">
        <ele>38.59</ele>
        <time>2014-04-13T16:19:11Z</time>
      </trkpt>
      <trkpt lat="43.65979" lon="3.8632">
        <ele>40.03</ele>
        <time>2014-04-13T16:19:18Z</time>
      </trkpt>
      <trkpt lat="43.65938" lon="3.86319">
        <ele>40.99</ele>
        <time>2014-04-13T16:19:20Z</time>
      </trkpt>
      <trkpt lat="43.65918" lon="3.86321">
        <ele>40.99</ele>
        <time>2014-04-13T16:19:21Z</time>
      </trkpt>
      <trkpt lat="43.65738" lon="3.86364">
        <ele>40.51</ele>
        <time>2014-04-13T16:19:31Z</time>
      </trkpt>
      <trkpt lat="43.65621" lon="3.86405">
        <ele>39.55</ele>
        <time>2014-04-13T16:19:38Z</time>
      </trkpt>
      <trkpt lat="43.65477" lon="3.86462">
        <ele>40.03</ele>
        <time>2014-04-13T16:19:46Z</time>
      </trkpt>
      <trkpt lat="43.65385" lon="3.86497">
        <ele>41.47</ele>
        <time>2014-04-13T16:19:54Z</time>
      </trkpt>
      <trkpt lat="43.65274" lon="3.86528">
        <ele>43.4</ele>
        <time>2014-04-13T16:20:03Z</time>
      </trkpt>
      <trkpt lat="43.65178" lon="3.86586">
        <ele>43.88</ele>
        <time>2014-04-13T16:20:11Z</time>
      </trkpt>
      <trkpt lat="43.6517" lon="3.86591">
        <ele>43.88</ele>
        <time>2014-04-13T16:20:12Z</time>
      </trkpt>
      <trkpt lat="43.65162" lon="3.86593">
        <ele>43.88</ele>
        <time>2014-04-13T16:20:13Z</time>
      </trkpt>
      <trkpt lat="43.65155" lon="3.86594">
        <ele>43.88</ele>
        <time>2014-04-13T16:20:14Z</time>
      </trkpt>
      <trkpt lat="43.6515" lon="3.86594">
        <ele>43.88</ele>
        <time>2014-04-13T16:20:15Z</time>
      </trkpt>
      <trkpt lat="43.65147" lon="3.86593">
        <ele>43.88</ele>
        <time>2014-04-13T16:20:16Z</time>
      </trkpt>
      <trkpt lat="43.65144" lon="3.86592">
        <ele>43.88</ele>
        <time>2014-04-13T16:20:17Z</time>
      </trkpt>
      <trkpt lat="43.65138" lon="3.86582">
        <ele>43.88</ele>
        <time>2014-04-13T16:20:20Z</time>
      </trkpt>
      <trkpt lat="43.65134" lon="3.86571">
        <ele>43.88</ele>
        <time>2014-04-13T16:20:21Z</time>
      </trkpt>
      <trkpt lat="43.65128" lon="3.86559">
        <ele>43.4</ele>
        <time>2014-04-13T16:20:22Z</time>
      </trkpt>
      <trkpt lat="43.65121" lon="3.8655">
        <ele>43.4</ele>
        <time>2014-04-13T16:20:23Z</time>
      </trkpt>
      <trkpt lat="43.65113" lon="3.86542">
        <ele>43.4</ele>
        <time>2014-04-13T16:20:24Z</time>
      </trkpt>
      <trkpt lat="43.65104" lon="3.86537">
        <ele>42.92</ele>
        <time>2014-04-13T16:20:25Z</time>
      </trkpt>
      <trkpt lat="43.65094" lon="3.8653">
        <ele>41.95</ele>
        <time>2014-04-13T16:20:26Z</time>
      </trkpt>
      <trkpt lat="43.65086" lon="3.8652">
        <ele>41.47</ele>
        <time>2014-04-13T16:20:27Z</time>
      </trkpt>
      <trkpt lat="43.6508" lon="3.86507">
        <ele>40.99</ele>
        <time>2014-04-13T16:20:28Z</time>
      </trkpt>
      <trkpt lat="43.65076" lon="3.86493">
        <ele>40.99</ele>
        <time>2014-04-13T16:20:29Z</time>
      </trkpt>
      <trkpt lat="43.65077" lon="3.86476">
        <ele>40.51</ele>
        <time>2014-04-13T16:20:30Z</time>
      </trkpt>
      <trkpt lat="43.65076" lon="3.86459">
        <ele>40.51</ele>
        <time>2014-04-13T16:20:31Z</time>
      </trkpt>
      <trkpt lat="43.65059" lon="3.86253">
        <ele>41.95</ele>
        <time>2014-04-13T16:20:41Z</time>
      </trkpt>
      <trkpt lat="43.65035" lon="3.86044">
        <ele>48.2</ele>
        <time>2014-04-13T16:20:48Z</time>
      </trkpt>
      <trkpt lat="43.64989" lon="3.8579">
        <ele>53.01</ele>
        <time>2014-04-13T16:20:56Z</time>
      </trkpt>
      <trkpt lat="43.64908" lon="3.85583">
        <ele>53.49</ele>
        <time>2014-04-13T16:21:03Z</time>
      </trkpt>
      <trkpt lat="43.64784" lon="3.85457">
        <ele>56.37</ele>
        <time>2014-04-13T16:21:09Z</time>
      </trkpt>
      <trkpt lat="43.64617" lon="3.85372">
        <ele>63.58</ele>
        <time>2014-04-13T16:21:16Z</time>
      </trkpt>
      <trkpt lat="43.64575" lon="3.85337">
        <ele>65.51</ele>
        <time>2014-04-13T16:21:18Z</time>
      </trkpt>
      <trkpt lat="43.64558" lon="3.85319">
        <ele>66.47</ele>
        <time>2014-04-13T16:21:19Z</time>
      </trkpt>
      <trkpt lat="43.64543" lon="3.853">
        <ele>67.43</ele>
        <time>2014-04-13T16:21:20Z</time>
      </trkpt>
      <trkpt lat="43.64527" lon="3.85266">
        <ele>69.83</ele>
        <time>2014-04-13T16:21:22Z</time>
      </trkpt>
      <trkpt lat="43.64524" lon="3.8525">
        <ele>70.79</ele>
        <time>2014-04-13T16:21:23Z</time>
      </trkpt>
      <trkpt lat="43.64521" lon="3.85235">
        <ele>70.79</ele>
        <time>2014-04-13T16:21:24Z</time>
      </trkpt>
      <trkpt lat="43.64518" lon="3.85224">
        <ele>70.79</ele>
        <time>2014-04-13T16:21:25Z</time>
      </trkpt>
      <trkpt lat="43.6451" lon="3.85217">
        <ele>70.79</ele>
        <time>2014-04-13T16:21:26Z</time>
      </trkpt>
      <trkpt lat="43.64499" lon="3.85209">
        <ele>69.83</ele>
        <time>2014-04-13T16:21:27Z</time>
      </trkpt>
      <trkpt lat="43.64487" lon="3.85199">
        <ele>69.83</ele>
        <time>2014-04-13T16:21:28Z</time>
      </trkpt>
      <trkpt lat="43.64475" lon="3.85182">
        <ele>69.83</ele>
        <time>2014-04-13T16:21:29Z</time>
      </trkpt>
      <trkpt lat="43.64462" lon="3.85161">
        <ele>69.35</ele>
        <time>2014-04-13T16:21:30Z</time>
      </trkpt>
      <trkpt lat="43.64449" lon="3.85136">
        <ele>69.35</ele>
        <time>2014-04-13T16:21:31Z</time>
      </trkpt>
      <trkpt lat="43.64334" lon="3.84899">
        <ele>73.2</ele>
        <time>2014-04-13T16:21:40Z</time>
      </trkpt>
      <trkpt lat="43.64261" lon="3.84788">
        <ele>69.83</ele>
        <time>2014-04-13T16:21:45Z</time>
      </trkpt>
      <trkpt lat="43.64243" lon="3.84771">
        <ele>68.87</ele>
        <time>2014-04-13T16:21:46Z</time>
      </trkpt>
      <trkpt lat="43.64223" lon="3.84757">
        <ele>66.95</ele>
        <time>2014-04-13T16:21:47Z</time>
      </trkpt>
      <trkpt lat="43.64201" lon="3.84744">
        <ele>65.51</ele>
        <time>2014-04-13T16:21:48Z</time>
      </trkpt>
      <trkpt lat="43.64177" lon="3.84733">
        <ele>63.1</ele>
        <time>2014-04-13T16:21:49Z</time>
      </trkpt>
      <trkpt lat="43.64153" lon="3.84723">
        <ele>61.66</ele>
        <time>2014-04-13T16:21:50Z</time>
      </trkpt>
      <trkpt lat="43.63843" lon="3.84631">
        <ele>51.57</ele>
        <time>2014-04-13T16:22:03Z</time>
      </trkpt>
      <trkpt lat="43.6376" lon="3.8457">
        <ele>52.53</ele>
        <time>2014-04-13T16:22:09Z</time>
      </trkpt>
      <trkpt lat="43.63663" lon="3.84475">
        <ele>50.61</ele>
        <time>2014-04-13T16:22:20Z</time>
      </trkpt>
      <trkpt lat="43.63626" lon="3.84447">
        <ele>48.68</ele>
        <time>2014-04-13T16:22:25Z</time>
      </trkpt>
      <trkpt lat="43.63622" lon="3.84444">
        <ele>48.2</ele>
        <time>2014-04-13T16:22:26Z</time>
      </trkpt>
      <trkpt lat="43.63619" lon="3.84442">
        <ele>48.68</ele>
        <time>2014-04-13T16:22:33Z</time>
      </trkpt>
      <trkpt lat="43.63614" lon="3.84438">
        <ele>49.16</ele>
        <time>2014-04-13T16:22:59Z</time>
      </trkpt>
      <trkpt lat="43.63554" lon="3.84406">
        <ele>50.61</ele>
        <time>2014-04-13T16:23:04Z</time>
      </trkpt>
      <trkpt lat="43.63434" lon="3.84344">
        <ele>53.97</ele>
        <time>2014-04-13T16:23:13Z</time>
      </trkpt>
      <trkpt lat="43.63346" lon="3.84311">
        <ele>53.49</ele>
        <time>2014-04-13T16:23:23Z</time>
      </trkpt>
      <trkpt lat="43.63279" lon="3.84295">
        <ele>52.53</ele>
        <time>2014-04-13T16:23:34Z</time>
      </trkpt>
      <trkpt lat="43.63261" lon="3.84288">
        <ele>52.05</ele>
        <time>2014-04-13T16:23:42Z</time>
      </trkpt>
      <trkpt lat="43.63221" lon="3.84267">
        <ele>52.05</ele>
        <time>2014-04-13T16:23:52Z</time>
      </trkpt>
      <trkpt lat="43.63198" lon="3.8425">
        <ele>51.57</ele>
        <time>2014-04-13T16:23:57Z</time>
      </trkpt>
      <trkpt lat="43.63181" lon="3.84234">
        <ele>50.61</ele>
        <time>2014-04-13T16:24:05Z</time>
      </trkpt>
      <trkpt lat="43.63177" lon="3.84229">
        <ele>50.61</ele>
        <time>2014-04-13T16:24:06Z</time>
      </trkpt>
      <trkpt lat="43.63174" lon="3.84223">
        <ele>50.61</ele>
        <time>2014-04-13T16:24:07Z</time>
      </trkpt>
      <trkpt lat="43.63171" lon="3.84214">
        <ele>51.09</ele>
        <time>2014-04-13T16:24:08Z</time>
      </trkpt>
      <trkpt lat="43.63166" lon="3.84192">
        <ele>51.09</ele>
        <time>2014-04-13T16:24:10Z</time>
      </trkpt>
      <trkpt lat="43.63162" lon="3.84183">
        <ele>51.57</ele>
        <time>2014-04-13T16:24:11Z</time>
      </trkpt>
      <trkpt lat="43.63158" lon="3.84176">
        <ele>51.57</ele>
        <time>2014-04-13T16:24:12Z</time>
      </trkpt>
      <trkpt lat="43.63154" lon="3.8417">
        <ele>52.05</ele>
        <time>2014-04-13T16:24:13Z</time>
      </trkpt>
      <trkpt lat="43.6315" lon="3.84165">
        <ele>52.53</ele>
        <time>2014-04-13T16:24:14Z</time>
      </trkpt>
      <trkpt lat="43.63145" lon="3.84161">
        <ele>52.53</ele>
        <time>2014-04-13T16:24:15Z</time>
      </trkpt>
      <trkpt lat="43.6314" lon="3.84157">
        <ele>53.01</ele>
        <time>2014-04-13T16:24:16Z</time>
      </trkpt>
      <trkpt lat="43.63134" lon="3.84154">
        <ele>53.01</ele>
        <time>2014-04-13T16:24:17Z</time>
      </trkpt>
      <trkpt lat="43.63128" lon="3.84153">
        <ele>53.49</ele>
        <time>2014-04-13T16:24:18Z</time>
      </trkpt>
      <trkpt lat="43.63123" lon="3.84152">
        <ele>53.49</ele>
        <time>2014-04-13T16:24:19Z</time>
      </trkpt>
      <trkpt lat="43.63117" lon="3.84153">
        <ele>53.97</ele>
        <time>2014-04-13T16:24:20Z</time>
      </trkpt>
      <trkpt lat="43.6311" lon="3.84155">
        <ele>53.97</ele>
        <time>2014-04-13T16:24:21Z</time>
      </trkpt>
      <trkpt lat="43.63104" lon="3.84158">
        <ele>53.97</ele>
        <time>2014-04-13T16:24:22Z</time>
      </trkpt>
      <trkpt lat="43.63098" lon="3.84162">
        <ele>54.45</ele>
        <time>2014-04-13T16:24:23Z</time>
      </trkpt>
      <trkpt lat="43.63093" lon="3.84167">
        <ele>54.45</ele>
        <time>2014-04-13T16:24:24Z</time>
      </trkpt>
      <trkpt lat="43.63088" lon="3.84172">
        <ele>54.45</ele>
        <time>2014-04-13T16:24:25Z</time>
      </trkpt>
      <trkpt lat="43.63079" lon="3.84179">
        <ele>53.97</ele>
        <time>2014-04-13T16:24:27Z</time>
      </trkpt>
      <trkpt lat="43.63076" lon="3.8418">
        <ele>53.97</ele>
        <time>2014-04-13T16:24:28Z</time>
      </trkpt>
      <trkpt lat="43.63072" lon="3.8418">
        <ele>53.49</ele>
        <time>2014-04-13T16:24:29Z</time>
      </trkpt>
      <trkpt lat="43.63031" lon="3.84179">
        <ele>53.97</ele>
        <time>2014-04-13T16:24:36Z</time>
      </trkpt>
      <trkpt lat="43.62947" lon="3.84162">
        <ele>54.45</ele>
        <time>2014-04-13T16:24:43Z</time>
      </trkpt>
      <trkpt lat="43.62835" lon="3.84082">
        <ele>56.37</ele>
        <time>2014-04-13T16:24:50Z</time>
      </trkpt>
      <trkpt lat="43.62708" lon="3.83928">
        <ele>61.66</ele>
        <time>2014-04-13T16:24:58Z</time>
      </trkpt>
      <trkpt lat="43.62586" lon="3.83727">
        <ele>69.35</ele>
        <time>2014-04-13T16:25:08Z</time>
      </trkpt>
      <trkpt lat="43.62554" lon="3.83672">
        <ele>72.24</ele>
        <time>2014-04-13T16:25:13Z</time>
      </trkpt>
      <trkpt lat="43.62553" lon="3.83665">
        <ele>72.24</ele>
        <time>2014-04-13T16:25:14Z</time>
      </trkpt>
      <trkpt lat="43.62553" lon="3.83657">
        <ele>72.72</ele>
        <time>2014-04-13T16:25:15Z</time>
      </trkpt>
      <trkpt lat="43.62555" lon="3.83647">
        <ele>72.72</ele>
        <time>2014-04-13T16:25:16Z</time>
      </trkpt>
      <trkpt lat="43.62556" lon="3.83634">
        <ele>72.72</ele>
        <time>2014-04-13T16:25:17Z</time>
      </trkpt>
      <trkpt lat="43.62557" lon="3.83622">
        <ele>72.72</ele>
        <time>2014-04-13T16:25:18Z</time>
      </trkpt>
      <trkpt lat="43.62556" lon="3.8361">
        <ele>72.72</ele>
        <time>2014-04-13T16:25:19Z</time>
      </trkpt>
      <trkpt lat="43.62553" lon="3.836">
        <ele>72.72</ele>
        <time>2014-04-13T16:25:20Z</time>
      </trkpt>
      <trkpt lat="43.62547" lon="3.83592">
        <ele>72.72</ele>
        <time>2014-04-13T16:25:21Z</time>
      </trkpt>
      <trkpt lat="43.62539" lon="3.83584">
        <ele>72.24</ele>
        <time>2014-04-13T16:25:22Z</time>
      </trkpt>
      <trkpt lat="43.62527" lon="3.83579">
        <ele>72.24</ele>
        <time>2014-04-13T16:25:23Z</time>
      </trkpt>
      <trkpt lat="43.62515" lon="3.83579">
        <ele>72.24</ele>
        <time>2014-04-13T16:25:24Z</time>
      </trkpt>
      <trkpt lat="43.62503" lon="3.83582">
        <ele>72.24</ele>
        <time>2014-04-13T16:25:25Z</time>
      </trkpt>
      <trkpt lat="43.62492" lon="3.83589">
        <ele>71.76</ele>
        <time>2014-04-13T16:25:26Z</time>
      </trkpt>
      <trkpt lat="43.62483" lon="3.83599">
        <ele>71.76</ele>
        <time>2014-04-13T16:25:27Z</time>
      </trkpt>
      <trkpt lat="43.62476" lon="3.83612">
        <ele>70.79</ele>
        <time>2014-04-13T16:25:28Z</time>
      </trkpt>
      <trkpt lat="43.6247" lon="3.83626">
        <ele>70.79</ele>
        <time>2014-04-13T16:25:29Z</time>
      </trkpt>
      <trkpt lat="43.62464" lon="3.83638">
        <ele>70.31</ele>
        <time>2014-04-13T16:25:30Z</time>
      </trkpt>
      <trkpt lat="43.62457" lon="3.83646">
        <ele>70.31</ele>
        <time>2014-04-13T16:25:31Z</time>
      </trkpt>
      <trkpt lat="43.6245" lon="3.8365">
        <ele>69.83</ele>
        <time>2014-04-13T16:25:32Z</time>
      </trkpt>
      <trkpt lat="43.62444" lon="3.83651">
        <ele>69.35</ele>
        <time>2014-04-13T16:25:33Z</time>
      </trkpt>
      <trkpt lat="43.62437" lon="3.83652">
        <ele>69.35</ele>
        <time>2014-04-13T16:25:34Z</time>
      </trkpt>
      <trkpt lat="43.62429" lon="3.83651">
        <ele>69.35</ele>
        <time>2014-04-13T16:25:35Z</time>
      </trkpt>
      <trkpt lat="43.62422" lon="3.83652">
        <ele>69.83</ele>
        <time>2014-04-13T16:25:36Z</time>
      </trkpt>
      <trkpt lat="43.62416" lon="3.83656">
        <ele>69.83</ele>
        <time>2014-04-13T16:25:37Z</time>
      </trkpt>
      <trkpt lat="43.62411" lon="3.83662">
        <ele>70.31</ele>
        <time>2014-04-13T16:25:38Z</time>
      </trkpt>
      <trkpt lat="43.62408" lon="3.8367">
        <ele>70.79</ele>
        <time>2014-04-13T16:25:39Z</time>
      </trkpt>
      <trkpt lat="43.62408" lon="3.83676">
        <ele>70.31</ele>
        <time>2014-04-13T16:25:40Z</time>
      </trkpt>
      <trkpt lat="43.62409" lon="3.83683">
        <ele>70.31</ele>
        <time>2014-04-13T16:25:41Z</time>
      </trkpt>
      <trkpt lat="43.62411" lon="3.83689">
        <ele>70.31</ele>
        <time>2014-04-13T16:25:42Z</time>
      </trkpt>
      <trkpt lat="43.62415" lon="3.83694">
        <ele>70.31</ele>
        <time>2014-04-13T16:25:43Z</time>
      </trkpt>
      <trkpt lat="43.62418" lon="3.83697">
        <ele>70.31</ele>
        <time>2014-04-13T16:25:44Z</time>
      </trkpt>
      <trkpt lat="43.62421" lon="3.83701">
        <ele>70.31</ele>
        <time>2014-04-13T16:25:45Z</time>
      </trkpt>
      <trkpt lat="43.62425" lon="3.83707">
        <ele>70.31</ele>
        <time>2014-04-13T16:25:46Z</time>
      </trkpt>
      <trkpt lat="43.62427" lon="3.83716">
        <ele>70.31</ele>
        <time>2014-04-13T16:25:47Z</time>
      </trkpt>
      <trkpt lat="43.62429" lon="3.83727">
        <ele>70.79</ele>
        <time>2014-04-13T16:25:48Z</time>
      </trkpt>
      <trkpt lat="43.62435" lon="3.83771">
        <ele>71.27</ele>
        <time>2014-04-13T16:25:52Z</time>
      </trkpt>
      <trkpt lat="43.62435" lon="3.83777">
        <ele>71.76</ele>
        <time>2014-04-13T16:25:53Z</time>
      </trkpt>
      <trkpt lat="43.62433" lon="3.83784">
        <ele>72.24</ele>
        <time>2014-04-13T16:25:54Z</time>
      </trkpt>
      <trkpt lat="43.62429" lon="3.83789">
        <ele>73.68</ele>
        <time>2014-04-13T16:25:55Z</time>
      </trkpt>
      <trkpt lat="43.62426" lon="3.83791">
        <ele>74.16</ele>
        <time>2014-04-13T16:25:56Z</time>
      </trkpt>
      <trkpt lat="43.62418" lon="3.8379">
        <ele>78</ele>
        <time>2014-04-13T16:26:03Z</time>
      </trkpt>
      <trkpt lat="43.62407" lon="3.83788">
        <ele>76.08</ele>
        <time>2014-04-13T16:26:24Z</time>
      </trkpt>
      <trkpt lat="43.62406" lon="3.83796">
        <ele>80.41</ele>
        <time>2014-04-13T16:26:25Z</time>
      </trkpt>
      <trkpt lat="43.62414" lon="3.83811">
        <ele>79.45</ele>
        <time>2014-04-13T16:26:37Z</time>
      </trkpt>
    </trkseg>
  </trk>
</gpx>